<?xml version='1.0' encoding='UTF-8'?><gpx version="1.1" creator="JPX - https://github.com/jenetics/jpx" xmlns="http://www.topografix.com/GPX/1/1"><trk><trkseg><trkpt lat="43.28599337165823" lon="13.350684211021013"><ele>133.0</ele><time>2026-04-19T08:08:17Z</time></trkpt><trkpt lat="43.285897622456595" lon="13.350667078027975"><ele>133.0</ele><time>2026-04-19T08:08:20Z</time></trkpt><trkpt lat="43.28582546890649" lon="13.350677708886465"><ele>133.0</ele><time>2026-04-19T08:08:22Z</time></trkpt><trkpt lat="43.28573774997403" lon="13.350746951389425"><ele>133.0</ele><time>2026-04-19T08:08:25Z</time></trkpt><trkpt lat="43.28566335312572" lon="13.350795978963653"><ele>133.0</ele><time>2026-04-19T08:08:37Z</time></trkpt><trkpt lat="43.28567423785354" lon="13.350951487012617"><ele>133.0</ele><time>2026-04-19T08:08:39Z</time></trkpt><trkpt lat="43.28570456698986" lon="13.351039563070616"><ele>133.0</ele><time>2026-04-19T08:08:40Z</time></trkpt><trkpt lat="43.2857316903551" lon="13.351123643864705"><ele>133.0</ele><time>2026-04-19T08:08:41Z</time></trkpt><trkpt lat="43.28573763108698" lon="13.351222384628805"><ele>133.0</ele><time>2026-04-19T08:08:42Z</time></trkpt><trkpt lat="43.285774529830675" lon="13.35131350921144"><ele>133.0</ele><time>2026-04-19T08:08:43Z</time></trkpt><trkpt lat="43.285802812310685" lon="13.35141503362196"><ele>133.0</ele><time>2026-04-19T08:08:44Z</time></trkpt><trkpt lat="43.285832283319685" lon="13.351515496118717"><ele>133.0</ele><time>2026-04-19T08:08:45Z</time></trkpt><trkpt lat="43.285863353282224" lon="13.351620781833631"><ele>132.8</ele><time>2026-04-19T08:08:46Z</time></trkpt><trkpt lat="43.28589195450556" lon="13.351730404798259"><ele>132.60000000000002</ele><time>2026-04-19T08:08:47Z</time></trkpt><trkpt lat="43.285922179640146" lon="13.351840891724523"><ele>132.39999999999998</ele><time>2026-04-19T08:08:48Z</time></trkpt><trkpt lat="43.28595799697947" lon="13.351954121948275"><ele>132.2</ele><time>2026-04-19T08:08:49Z</time></trkpt><trkpt lat="43.28599479690016" lon="13.352071552100837"><ele>132.0</ele><time>2026-04-19T08:08:50Z</time></trkpt><trkpt lat="43.28603578387317" lon="13.352198189578525"><ele>132.25</ele><time>2026-04-19T08:08:51Z</time></trkpt><trkpt lat="43.286078334646554" lon="13.352332440927848"><ele>132.5</ele><time>2026-04-19T08:08:52Z</time></trkpt><trkpt lat="43.2861205018483" lon="13.352470751895348"><ele>132.75</ele><time>2026-04-19T08:08:53Z</time></trkpt><trkpt lat="43.28616380489573" lon="13.352617309626682"><ele>133.0</ele><time>2026-04-19T08:08:54Z</time></trkpt><trkpt lat="43.28620813365029" lon="13.352768633055991"><ele>133.0</ele><time>2026-04-19T08:08:55Z</time></trkpt><trkpt lat="43.286254307926306" lon="13.352924053679471"><ele>133.0</ele><time>2026-04-19T08:08:56Z</time></trkpt><trkpt lat="43.28629631598272" lon="13.353068585347035"><ele>133.0</ele><time>2026-04-19T08:08:57Z</time></trkpt><trkpt lat="43.28634001654151" lon="13.353223465814285"><ele>133.0</ele><time>2026-04-19T08:08:58Z</time></trkpt><trkpt lat="43.28638515665405" lon="13.353380002112667"><ele>132.0</ele><time>2026-04-19T08:08:59Z</time></trkpt><trkpt lat="43.286431337131106" lon="13.35353915349265"><ele>131.0</ele><time>2026-04-19T08:09:00Z</time></trkpt><trkpt lat="43.286482258748535" lon="13.353705441384482"><ele>130.0</ele><time>2026-04-19T08:09:01Z</time></trkpt><trkpt lat="43.28653330676497" lon="13.353874927112779"><ele>129.0</ele><time>2026-04-19T08:09:02Z</time></trkpt><trkpt lat="43.286582233123056" lon="13.354042751057392"><ele>128.75</ele><time>2026-04-19T08:09:03Z</time></trkpt><trkpt lat="43.28663509939875" lon="13.354206913092009"><ele>128.5</ele><time>2026-04-19T08:09:04Z</time></trkpt><trkpt lat="43.28668555265759" lon="13.354371779438306"><ele>128.25</ele><time>2026-04-19T08:09:05Z</time></trkpt><trkpt lat="43.2867345652521" lon="13.354532037235193"><ele>128.0</ele><time>2026-04-19T08:09:06Z</time></trkpt><trkpt lat="43.28677838411586" lon="13.354691472063477"><ele>128.25</ele><time>2026-04-19T08:09:07Z</time></trkpt><trkpt lat="43.28682259138391" lon="13.354852147086138"><ele>128.5</ele><time>2026-04-19T08:09:08Z</time></trkpt><trkpt lat="43.28686824257669" lon="13.355010468841646"><ele>128.75</ele><time>2026-04-19T08:09:09Z</time></trkpt><trkpt lat="43.2869204571405" lon="13.355169217905376"><ele>129.0</ele><time>2026-04-19T08:09:10Z</time></trkpt><trkpt lat="43.28698179323495" lon="13.355318476034707"><ele>129.0</ele><time>2026-04-19T08:09:11Z</time></trkpt><trkpt lat="43.28706037538182" lon="13.355460841676432"><ele>129.0</ele><time>2026-04-19T08:09:12Z</time></trkpt><trkpt lat="43.28714811205944" lon="13.355592353322637"><ele>129.0</ele><time>2026-04-19T08:09:13Z</time></trkpt><trkpt lat="43.28723284976752" lon="13.355726072756564"><ele>129.0</ele><time>2026-04-19T08:09:14Z</time></trkpt><trkpt lat="43.287316195272666" lon="13.35585605377441"><ele>128.75</ele><time>2026-04-19T08:09:15Z</time></trkpt><trkpt lat="43.2873999712613" lon="13.355984571045433"><ele>128.5</ele><time>2026-04-19T08:09:16Z</time></trkpt><trkpt lat="43.28748720903847" lon="13.356109534703188"><ele>128.25</ele><time>2026-04-19T08:09:17Z</time></trkpt><trkpt lat="43.28757145164541" lon="13.356238179457309"><ele>128.0</ele><time>2026-04-19T08:09:18Z</time></trkpt><trkpt lat="43.28765239294522" lon="13.356373959153883"><ele>128.0</ele><time>2026-04-19T08:09:19Z</time></trkpt><trkpt lat="43.28773102014014" lon="13.356510984613447"><ele>128.0</ele><time>2026-04-19T08:09:20Z</time></trkpt><trkpt lat="43.28781275444712" lon="13.356646511295503"><ele>128.0</ele><time>2026-04-19T08:09:21Z</time></trkpt><trkpt lat="43.28789724108851" lon="13.356780175621921"><ele>128.0</ele><time>2026-04-19T08:09:22Z</time></trkpt><trkpt lat="43.287985387560695" lon="13.356918008857846"><ele>128.0</ele><time>2026-04-19T08:09:23Z</time></trkpt><trkpt lat="43.28807774996659" lon="13.357056364275886"><ele>128.0</ele><time>2026-04-19T08:09:24Z</time></trkpt><trkpt lat="43.28817293058861" lon="13.357197256184506"><ele>128.0</ele><time>2026-04-19T08:09:25Z</time></trkpt><trkpt lat="43.28826746673458" lon="13.35734100948873"><ele>128.0</ele><time>2026-04-19T08:09:26Z</time></trkpt><trkpt lat="43.288360560407554" lon="13.357492171922742"><ele>128.0</ele><time>2026-04-19T08:09:27Z</time></trkpt><trkpt lat="43.28845268220712" lon="13.35764503146315"><ele>128.0</ele><time>2026-04-19T08:09:28Z</time></trkpt><trkpt lat="43.28854583768276" lon="13.357800180334966"><ele>128.0</ele><time>2026-04-19T08:09:29Z</time></trkpt><trkpt lat="43.28863705301978" lon="13.357958723506133"><ele>128.0</ele><time>2026-04-19T08:09:30Z</time></trkpt><trkpt lat="43.28873107667332" lon="13.358119663944986"><ele>128.0</ele><time>2026-04-19T08:09:31Z</time></trkpt><trkpt lat="43.28882033842394" lon="13.358287621373249"><ele>128.0</ele><time>2026-04-19T08:09:32Z</time></trkpt><trkpt lat="43.28891015461319" lon="13.358452622995975"><ele>128.0</ele><time>2026-04-19T08:09:33Z</time></trkpt><trkpt lat="43.288998826977014" lon="13.358620169878938"><ele>127.66666666666666</ele><time>2026-04-19T08:09:34Z</time></trkpt><trkpt lat="43.28908950389367" lon="13.358786961131775"><ele>127.33333333333334</ele><time>2026-04-19T08:09:35Z</time></trkpt><trkpt lat="43.2891775361497" lon="13.358954690578466"><ele>127.0</ele><time>2026-04-19T08:09:36Z</time></trkpt><trkpt lat="43.28926912176428" lon="13.35912397161348"><ele>127.0</ele><time>2026-04-19T08:09:37Z</time></trkpt><trkpt lat="43.2893590064867" lon="13.359294543588204"><ele>127.0</ele><time>2026-04-19T08:09:38Z</time></trkpt><trkpt lat="43.28944885324701" lon="13.35946452865863"><ele>127.0</ele><time>2026-04-19T08:09:39Z</time></trkpt><trkpt lat="43.289541311741665" lon="13.359635198415548"><ele>127.0</ele><time>2026-04-19T08:09:40Z</time></trkpt><trkpt lat="43.2896293799064" lon="13.359812036684838"><ele>127.0</ele><time>2026-04-19T08:09:41Z</time></trkpt><trkpt lat="43.289720263167425" lon="13.35998612983318"><ele>127.0</ele><time>2026-04-19T08:09:42Z</time></trkpt><trkpt lat="43.289811914125885" lon="13.360169177550933"><ele>127.0</ele><time>2026-04-19T08:09:43Z</time></trkpt><trkpt lat="43.289904137476924" lon="13.360343646881953"><ele>127.0</ele><time>2026-04-19T08:09:44Z</time></trkpt><trkpt lat="43.29000033413892" lon="13.360523162562973"><ele>127.0</ele><time>2026-04-19T08:09:45Z</time></trkpt><trkpt lat="43.290093985615265" lon="13.360706267954397"><ele>126.33333333333334</ele><time>2026-04-19T08:09:46Z</time></trkpt><trkpt lat="43.2901862146986" lon="13.360892005132124"><ele>125.66666666666666</ele><time>2026-04-19T08:09:47Z</time></trkpt><trkpt lat="43.290284131077435" lon="13.361073006979185"><ele>125.0</ele><time>2026-04-19T08:09:48Z</time></trkpt><trkpt lat="43.2903815635148" lon="13.361261051393203"><ele>125.0</ele><time>2026-04-19T08:09:49Z</time></trkpt><trkpt lat="43.29048126489437" lon="13.361448689158903"><ele>125.0</ele><time>2026-04-19T08:09:50Z</time></trkpt><trkpt lat="43.29058091159671" lon="13.361633613531831"><ele>125.0</ele><time>2026-04-19T08:09:51Z</time></trkpt><trkpt lat="43.2906797042117" lon="13.361825302408691"><ele>125.0</ele><time>2026-04-19T08:09:52Z</time></trkpt><trkpt lat="43.29077939687754" lon="13.36201389846389"><ele>125.0</ele><time>2026-04-19T08:09:53Z</time></trkpt><trkpt lat="43.29088076809848" lon="13.362208282661719"><ele>125.0</ele><time>2026-04-19T08:09:54Z</time></trkpt><trkpt lat="43.29097908969814" lon="13.362394373189987"><ele>125.0</ele><time>2026-04-19T08:09:55Z</time></trkpt><trkpt lat="43.2910818541127" lon="13.362581192152627"><ele>125.0</ele><time>2026-04-19T08:09:56Z</time></trkpt><trkpt lat="43.291191930789175" lon="13.362771266120555"><ele>125.0</ele><time>2026-04-19T08:09:57Z</time></trkpt><trkpt lat="43.29130034834919" lon="13.362961341772925"><ele>125.0</ele><time>2026-04-19T08:09:58Z</time></trkpt><trkpt lat="43.29140769548468" lon="13.363153848120376"><ele>125.0</ele><time>2026-04-19T08:09:59Z</time></trkpt><trkpt lat="43.29151510560117" lon="13.363346625551776"><ele>125.0</ele><time>2026-04-19T08:10:00Z</time></trkpt><trkpt lat="43.29162105422713" lon="13.363541269046605"><ele>124.33333333333333</ele><time>2026-04-19T08:10:01Z</time></trkpt><trkpt lat="43.291719302164786" lon="13.363732321278603"><ele>123.66666666666666</ele><time>2026-04-19T08:10:02Z</time></trkpt><trkpt lat="43.291805865357446" lon="13.363927008972201"><ele>123.0</ele><time>2026-04-19T08:10:03Z</time></trkpt><trkpt lat="43.29187226032752" lon="13.364124807981787"><ele>123.0</ele><time>2026-04-19T08:10:04Z</time></trkpt><trkpt lat="43.291921277984066" lon="13.364345100972505"><ele>123.0</ele><time>2026-04-19T08:10:05Z</time></trkpt><trkpt lat="43.29195425407841" lon="13.364570656851809"><ele>123.0</ele><time>2026-04-19T08:10:06Z</time></trkpt><trkpt lat="43.29197574890979" lon="13.364799786000221"><ele>123.0</ele><time>2026-04-19T08:10:07Z</time></trkpt><trkpt lat="43.2919893399869" lon="13.365036030872407"><ele>123.0</ele><time>2026-04-19T08:10:08Z</time></trkpt><trkpt lat="43.292008009589935" lon="13.365272546795696"><ele>123.0</ele><time>2026-04-19T08:10:09Z</time></trkpt><trkpt lat="43.292030378684295" lon="13.365510216763886"><ele>123.0</ele><time>2026-04-19T08:10:10Z</time></trkpt><trkpt lat="43.29205379480935" lon="13.365750040130154"><ele>123.0</ele><time>2026-04-19T08:10:11Z</time></trkpt><trkpt lat="43.29207742847749" lon="13.365994014572186"><ele>123.0</ele><time>2026-04-19T08:10:12Z</time></trkpt><trkpt lat="43.2920991293892" lon="13.366237003401961"><ele>122.66666666666666</ele><time>2026-04-19T08:10:13Z</time></trkpt><trkpt lat="43.29211778949696" lon="13.366483353638142"><ele>122.33333333333333</ele><time>2026-04-19T08:10:14Z</time></trkpt><trkpt lat="43.292137308416756" lon="13.366728420910823"><ele>122.0</ele><time>2026-04-19T08:10:15Z</time></trkpt><trkpt lat="43.29216204421767" lon="13.366978798963421"><ele>121.66666666666666</ele><time>2026-04-19T08:10:16Z</time></trkpt><trkpt lat="43.292188588730596" lon="13.367232680912704"><ele>121.33333333333334</ele><time>2026-04-19T08:10:17Z</time></trkpt><trkpt lat="43.2922172547973" lon="13.367482688922156"><ele>121.0</ele><time>2026-04-19T08:10:18Z</time></trkpt><trkpt lat="43.29225877134103" lon="13.367729725994394"><ele>121.0</ele><time>2026-04-19T08:10:19Z</time></trkpt><trkpt lat="43.292315775994574" lon="13.367974757984179"><ele>121.0</ele><time>2026-04-19T08:10:20Z</time></trkpt><trkpt lat="43.29238180714332" lon="13.368209922305347"><ele>121.0</ele><time>2026-04-19T08:10:21Z</time></trkpt><trkpt lat="43.29245864571049" lon="13.368439887749105"><ele>121.0</ele><time>2026-04-19T08:10:22Z</time></trkpt><trkpt lat="43.29255571537836" lon="13.368658719219528"><ele>121.0</ele><time>2026-04-19T08:10:23Z</time></trkpt><trkpt lat="43.292667823443985" lon="13.368862509876761"><ele>121.0</ele><time>2026-04-19T08:10:24Z</time></trkpt><trkpt lat="43.29278094796394" lon="13.369059243058722"><ele>121.0</ele><time>2026-04-19T08:10:25Z</time></trkpt><trkpt lat="43.29290170287029" lon="13.369256761791602"><ele>121.0</ele><time>2026-04-19T08:10:26Z</time></trkpt><trkpt lat="43.29301944515626" lon="13.369446548736972"><ele>121.0</ele><time>2026-04-19T08:10:27Z</time></trkpt><trkpt lat="43.29314029536439" lon="13.369640948670101"><ele>120.66666666666667</ele><time>2026-04-19T08:10:28Z</time></trkpt><trkpt lat="43.29326193954881" lon="13.369826384105373"><ele>120.33333333333334</ele><time>2026-04-19T08:10:29Z</time></trkpt><trkpt lat="43.29338340020174" lon="13.37001534208251"><ele>120.0</ele><time>2026-04-19T08:10:30Z</time></trkpt><trkpt lat="43.29349147968451" lon="13.37020534497226"><ele>120.0</ele><time>2026-04-19T08:10:31Z</time></trkpt><trkpt lat="43.293588456933115" lon="13.370409665610358"><ele>120.0</ele><time>2026-04-19T08:10:32Z</time></trkpt><trkpt lat="43.293667544794566" lon="13.370635232927885"><ele>120.0</ele><time>2026-04-19T08:10:33Z</time></trkpt><trkpt lat="43.293723999712505" lon="13.370867002239969"><ele>119.66666666666666</ele><time>2026-04-19T08:10:34Z</time></trkpt><trkpt lat="43.29377367422701" lon="13.37111132467558"><ele>119.33333333333333</ele><time>2026-04-19T08:10:35Z</time></trkpt><trkpt lat="43.29382590075191" lon="13.371345665615053"><ele>119.0</ele><time>2026-04-19T08:10:36Z</time></trkpt><trkpt lat="43.29388495108869" lon="13.371579991054086"><ele>119.0</ele><time>2026-04-19T08:10:37Z</time></trkpt><trkpt lat="43.29394524916585" lon="13.371822804242797"><ele>119.0</ele><time>2026-04-19T08:10:38Z</time></trkpt><trkpt lat="43.2940009465266" lon="13.372053009418996"><ele>119.0</ele><time>2026-04-19T08:10:39Z</time></trkpt><trkpt lat="43.29405976404955" lon="13.372299796779192"><ele>119.0</ele><time>2026-04-19T08:10:40Z</time></trkpt><trkpt lat="43.2941119566311" lon="13.372537599288796"><ele>119.0</ele><time>2026-04-19T08:10:41Z</time></trkpt><trkpt lat="43.29416112291853" lon="13.372783501381154"><ele>119.0</ele><time>2026-04-19T08:10:42Z</time></trkpt><trkpt lat="43.29419888556119" lon="13.373034300056078"><ele>118.66666666666666</ele><time>2026-04-19T08:10:43Z</time></trkpt><trkpt lat="43.29422273196375" lon="13.373291136156476"><ele>118.33333333333334</ele><time>2026-04-19T08:10:44Z</time></trkpt><trkpt lat="43.29423351076092" lon="13.373553831595004"><ele>118.0</ele><time>2026-04-19T08:10:45Z</time></trkpt><trkpt lat="43.29423686918568" lon="13.373804293340786"><ele>118.66666666666667</ele><time>2026-04-19T08:10:46Z</time></trkpt><trkpt lat="43.2942523613821" lon="13.374061262335035"><ele>119.33333333333334</ele><time>2026-04-19T08:10:47Z</time></trkpt><trkpt lat="43.29426922162839" lon="13.374317166564873"><ele>120.0</ele><time>2026-04-19T08:10:48Z</time></trkpt><trkpt lat="43.294278172761146" lon="13.37457858660042"><ele>120.0</ele><time>2026-04-19T08:10:49Z</time></trkpt><trkpt lat="43.294282457318914" lon="13.374831080478696"><ele>120.0</ele><time>2026-04-19T08:10:50Z</time></trkpt><trkpt lat="43.294271195271364" lon="13.375077131559863"><ele>120.0</ele><time>2026-04-19T08:10:51Z</time></trkpt><trkpt lat="43.29423539451344" lon="13.375314165170353"><ele>119.66666666666666</ele><time>2026-04-19T08:10:52Z</time></trkpt><trkpt lat="43.294208697541094" lon="13.375587129222136"><ele>119.33333333333333</ele><time>2026-04-19T08:10:53Z</time></trkpt><trkpt lat="43.29417122315621" lon="13.375826060085064"><ele>119.0</ele><time>2026-04-19T08:10:54Z</time></trkpt><trkpt lat="43.29413384469501" lon="13.376062878575878"><ele>119.0</ele><time>2026-04-19T08:10:55Z</time></trkpt><trkpt lat="43.29409759230951" lon="13.376304605090498"><ele>119.0</ele><time>2026-04-19T08:10:56Z</time></trkpt><trkpt lat="43.29405987793591" lon="13.376538189686409"><ele>119.0</ele><time>2026-04-19T08:10:57Z</time></trkpt><trkpt lat="43.294019621190614" lon="13.376755745656162"><ele>119.0</ele><time>2026-04-19T08:10:58Z</time></trkpt><trkpt lat="43.293986470488605" lon="13.376971635211646"><ele>119.0</ele><time>2026-04-19T08:10:59Z</time></trkpt><trkpt lat="43.29395576923057" lon="13.377179930768946"><ele>119.0</ele><time>2026-04-19T08:11:00Z</time></trkpt><trkpt lat="43.29392274813799" lon="13.377386795832921"><ele>118.75</ele><time>2026-04-19T08:11:01Z</time></trkpt><trkpt lat="43.29388803732287" lon="13.37758979511405"><ele>118.5</ele><time>2026-04-19T08:11:02Z</time></trkpt><trkpt lat="43.2938401716991" lon="13.377784633539033"><ele>118.25</ele><time>2026-04-19T08:11:03Z</time></trkpt><trkpt lat="43.29379191670002" lon="13.37795511370396"><ele>118.0</ele><time>2026-04-19T08:11:04Z</time></trkpt><trkpt lat="43.29372981945801" lon="13.378105848038823"><ele>118.0</ele><time>2026-04-19T08:11:05Z</time></trkpt><trkpt lat="43.29365522635421" lon="13.37824292839429"><ele>118.0</ele><time>2026-04-19T08:11:06Z</time></trkpt><trkpt lat="43.29357158628379" lon="13.378368960459175"><ele>118.0</ele><time>2026-04-19T08:11:07Z</time></trkpt><trkpt lat="43.29348925984077" lon="13.378486054452576"><ele>118.0</ele><time>2026-04-19T08:11:08Z</time></trkpt><trkpt lat="43.29338776640308" lon="13.378581442279183"><ele>118.0</ele><time>2026-04-19T08:11:09Z</time></trkpt><trkpt lat="43.29327693523071" lon="13.378670698959345"><ele>118.0</ele><time>2026-04-19T08:11:10Z</time></trkpt><trkpt lat="43.29315424544015" lon="13.378748730467002"><ele>118.0</ele><time>2026-04-19T08:11:11Z</time></trkpt><trkpt lat="43.29302623749491" lon="13.378838869592634"><ele>118.0</ele><time>2026-04-19T08:11:12Z</time></trkpt><trkpt lat="43.29288628062551" lon="13.378894004405486"><ele>118.66666666666667</ele><time>2026-04-19T08:11:13Z</time></trkpt><trkpt lat="43.29274587322141" lon="13.378960251919619"><ele>119.33333333333334</ele><time>2026-04-19T08:11:14Z</time></trkpt><trkpt lat="43.29260087890699" lon="13.379033601621714"><ele>120.0</ele><time>2026-04-19T08:11:15Z</time></trkpt><trkpt lat="43.292456729294706" lon="13.379112567380545"><ele>120.0</ele><time>2026-04-19T08:11:16Z</time></trkpt><trkpt lat="43.29231282355006" lon="13.37918917620094"><ele>120.0</ele><time>2026-04-19T08:11:17Z</time></trkpt><trkpt lat="43.29216955291484" lon="13.379268532997015"><ele>120.0</ele><time>2026-04-19T08:11:18Z</time></trkpt><trkpt lat="43.292022811855865" lon="13.3793454454561"><ele>121.0</ele><time>2026-04-19T08:11:19Z</time></trkpt><trkpt lat="43.29187906676141" lon="13.379418578968595"><ele>122.0</ele><time>2026-04-19T08:11:20Z</time></trkpt><trkpt lat="43.29173037162418" lon="13.379500849373631"><ele>123.0</ele><time>2026-04-19T08:11:21Z</time></trkpt><trkpt lat="43.29158594073189" lon="13.379574971268205"><ele>123.0</ele><time>2026-04-19T08:11:22Z</time></trkpt><trkpt lat="43.29143348586416" lon="13.379657879212767"><ele>123.0</ele><time>2026-04-19T08:11:23Z</time></trkpt><trkpt lat="43.29128369283192" lon="13.379739331006293"><ele>123.0</ele><time>2026-04-19T08:11:24Z</time></trkpt><trkpt lat="43.29113287588724" lon="13.379819945233196"><ele>124.66666666666666</ele><time>2026-04-19T08:11:25Z</time></trkpt><trkpt lat="43.2909796243361" lon="13.37990904799403"><ele>126.33333333333333</ele><time>2026-04-19T08:11:26Z</time></trkpt><trkpt lat="43.290819252779016" lon="13.37999273832682"><ele>128.0</ele><time>2026-04-19T08:11:27Z</time></trkpt><trkpt lat="43.290663484797925" lon="13.380076138672475"><ele>128.33333333333331</ele><time>2026-04-19T08:11:28Z</time></trkpt><trkpt lat="43.2905010549266" lon="13.380157833657755"><ele>128.66666666666666</ele><time>2026-04-19T08:11:29Z</time></trkpt><trkpt lat="43.290339066592146" lon="13.380245335077738"><ele>129.0</ele><time>2026-04-19T08:11:30Z</time></trkpt><trkpt lat="43.29017537078796" lon="13.380334023161296"><ele>129.0</ele><time>2026-04-19T08:11:31Z</time></trkpt><trkpt lat="43.29001319343529" lon="13.380426437845049"><ele>129.0</ele><time>2026-04-19T08:11:32Z</time></trkpt><trkpt lat="43.28984637797996" lon="13.38051351924801"><ele>129.0</ele><time>2026-04-19T08:11:33Z</time></trkpt><trkpt lat="43.2896797198377" lon="13.380601123703078"><ele>130.33333333333334</ele><time>2026-04-19T08:11:34Z</time></trkpt><trkpt lat="43.28951619417409" lon="13.380691545783105"><ele>131.66666666666669</ele><time>2026-04-19T08:11:35Z</time></trkpt><trkpt lat="43.28935006798087" lon="13.380781662815945"><ele>133.0</ele><time>2026-04-19T08:11:36Z</time></trkpt><trkpt lat="43.289184796891576" lon="13.380864204247112"><ele>133.0</ele><time>2026-04-19T08:11:37Z</time></trkpt><trkpt lat="43.28901875130189" lon="13.380952032506155"><ele>133.0</ele><time>2026-04-19T08:11:38Z</time></trkpt><trkpt lat="43.28885505433708" lon="13.381042598281551"><ele>133.0</ele><time>2026-04-19T08:11:39.001Z</time></trkpt><trkpt lat="43.288687197722815" lon="13.381130006249956"><ele>133.33333333333334</ele><time>2026-04-19T08:11:40.001Z</time></trkpt><trkpt lat="43.28852222953209" lon="13.381216984824066"><ele>133.66666666666666</ele><time>2026-04-19T08:11:41.001Z</time></trkpt><trkpt lat="43.288356217025324" lon="13.381307378727387"><ele>134.0</ele><time>2026-04-19T08:11:42.001Z</time></trkpt><trkpt lat="43.288193875757415" lon="13.381398370471548"><ele>134.66666666666666</ele><time>2026-04-19T08:11:43.001Z</time></trkpt><trkpt lat="43.288029351590275" lon="13.381486677915204"><ele>135.33333333333334</ele><time>2026-04-19T08:11:44.001Z</time></trkpt><trkpt lat="43.28786442724162" lon="13.381572744536758"><ele>136.0</ele><time>2026-04-19T08:11:45.001Z</time></trkpt><trkpt lat="43.287703584415" lon="13.381654311864159"><ele>136.0</ele><time>2026-04-19T08:11:46.001Z</time></trkpt><trkpt lat="43.287556258291254" lon="13.381744742752693"><ele>136.0</ele><time>2026-04-19T08:11:47.001Z</time></trkpt><trkpt lat="43.287417299095516" lon="13.381830941988754"><ele>136.0</ele><time>2026-04-19T08:11:48.001Z</time></trkpt><trkpt lat="43.287302383168154" lon="13.381948461722047"><ele>136.66666666666669</ele><time>2026-04-19T08:11:49.001Z</time></trkpt><trkpt lat="43.28719103310271" lon="13.382131878247186"><ele>137.33333333333334</ele><time>2026-04-19T08:11:50.001Z</time></trkpt><trkpt lat="43.28711732119273" lon="13.382305049533365"><ele>138.0</ele><time>2026-04-19T08:11:51.001Z</time></trkpt><trkpt lat="43.2870549751795" lon="13.382505157084623"><ele>138.33333333333334</ele><time>2026-04-19T08:11:52.001Z</time></trkpt><trkpt lat="43.287013864098306" lon="13.382713585756008"><ele>138.66666666666669</ele><time>2026-04-19T08:11:53.001Z</time></trkpt><trkpt lat="43.28699256148326" lon="13.382925798294817"><ele>139.0</ele><time>2026-04-19T08:11:54.001Z</time></trkpt><trkpt lat="43.28698946837092" lon="13.383140098718084"><ele>140.33333333333334</ele><time>2026-04-19T08:11:55.001Z</time></trkpt><trkpt lat="43.28700417921479" lon="13.383347001637347"><ele>141.66666666666666</ele><time>2026-04-19T08:11:56.001Z</time></trkpt><trkpt lat="43.287022964325516" lon="13.383559392663491"><ele>143.0</ele><time>2026-04-19T08:11:57.001Z</time></trkpt><trkpt lat="43.287035273212446" lon="13.383782320226683"><ele>145.0</ele><time>2026-04-19T08:11:58Z</time></trkpt><trkpt lat="43.287044912843626" lon="13.38401150815036"><ele>147.0</ele><time>2026-04-19T08:11:59Z</time></trkpt><trkpt lat="43.28705529472053" lon="13.384242083515925"><ele>149.0</ele><time>2026-04-19T08:12:00Z</time></trkpt><trkpt lat="43.28706676823759" lon="13.384479672176454"><ele>150.33333333333331</ele><time>2026-04-19T08:12:01Z</time></trkpt><trkpt lat="43.287083719006624" lon="13.384716190094453"><ele>151.66666666666666</ele><time>2026-04-19T08:12:02Z</time></trkpt><trkpt lat="43.28709938707107" lon="13.384951029269745"><ele>153.0</ele><time>2026-04-19T08:12:03Z</time></trkpt><trkpt lat="43.2871129912667" lon="13.38517733105067"><ele>153.0</ele><time>2026-04-19T08:12:04Z</time></trkpt><trkpt lat="43.28711497769595" lon="13.385405886076478"><ele>153.0</ele><time>2026-04-19T08:12:05Z</time></trkpt><trkpt lat="43.287093177006845" lon="13.385629355028655"><ele>153.0</ele><time>2026-04-19T08:12:06Z</time></trkpt><trkpt lat="43.28702573712589" lon="13.38582707731274"><ele>154.33333333333334</ele><time>2026-04-19T08:12:07Z</time></trkpt><trkpt lat="43.28696411523243" lon="13.386030445963472"><ele>155.66666666666669</ele><time>2026-04-19T08:12:08Z</time></trkpt><trkpt lat="43.286915954845206" lon="13.386241579357048"><ele>157.0</ele><time>2026-04-19T08:12:09Z</time></trkpt><trkpt lat="43.286857099289314" lon="13.386439230888987"><ele>157.75</ele><time>2026-04-19T08:12:10Z</time></trkpt><trkpt lat="43.28680290805794" lon="13.386645962536047"><ele>158.5</ele><time>2026-04-19T08:12:11Z</time></trkpt><trkpt lat="43.28676126203424" lon="13.386837904030772"><ele>159.25</ele><time>2026-04-19T08:12:12Z</time></trkpt><trkpt lat="43.2867294960627" lon="13.387025368841973"><ele>160.0</ele><time>2026-04-19T08:12:13Z</time></trkpt><trkpt lat="43.28672230936349" lon="13.387217377616995"><ele>161.0</ele><time>2026-04-19T08:12:14Z</time></trkpt><trkpt lat="43.286739417084036" lon="13.387410155843323"><ele>162.0</ele><time>2026-04-19T08:12:15Z</time></trkpt><trkpt lat="43.286785109629506" lon="13.3875918859721"><ele>163.0</ele><time>2026-04-19T08:12:16Z</time></trkpt><trkpt lat="43.28683886381406" lon="13.387763420173908"><ele>164.0</ele><time>2026-04-19T08:12:17Z</time></trkpt><trkpt lat="43.28689185374062" lon="13.387938912345891"><ele>166.0</ele><time>2026-04-19T08:12:18Z</time></trkpt><trkpt lat="43.28694353167447" lon="13.388120559561091"><ele>168.0</ele><time>2026-04-19T08:12:19Z</time></trkpt><trkpt lat="43.286996092886234" lon="13.388307080939956"><ele>170.0</ele><time>2026-04-19T08:12:20Z</time></trkpt><trkpt lat="43.28704761618878" lon="13.38849505385191"><ele>172.0</ele><time>2026-04-19T08:12:21Z</time></trkpt><trkpt lat="43.28709967873771" lon="13.38868408371013"><ele>171.0</ele><time>2026-04-19T08:12:22Z</time></trkpt><trkpt lat="43.287152650769656" lon="13.388872947094036"><ele>170.0</ele><time>2026-04-19T08:12:23Z</time></trkpt><trkpt lat="43.28720568731541" lon="13.389063081165785"><ele>169.0</ele><time>2026-04-19T08:12:24Z</time></trkpt><trkpt lat="43.287254866579445" lon="13.389254201299696"><ele>168.0</ele><time>2026-04-19T08:12:25Z</time></trkpt><trkpt lat="43.287301659415306" lon="13.389442520727455"><ele>168.0</ele><time>2026-04-19T08:12:26Z</time></trkpt><trkpt lat="43.28734488167773" lon="13.389624290849909"><ele>168.0</ele><time>2026-04-19T08:12:27Z</time></trkpt><trkpt lat="43.287374037239914" lon="13.389807098299837"><ele>168.0</ele><time>2026-04-19T08:12:28Z</time></trkpt><trkpt lat="43.28737613691201" lon="13.389984266330412"><ele>168.0</ele><time>2026-04-19T08:12:29Z</time></trkpt><trkpt lat="43.287339555498455" lon="13.390156126788145"><ele>169.5</ele><time>2026-04-19T08:12:30Z</time></trkpt><trkpt lat="43.28732261351648" lon="13.3903246402168"><ele>171.0</ele><time>2026-04-19T08:12:31Z</time></trkpt><trkpt lat="43.28729057127945" lon="13.390481798689883"><ele>172.5</ele><time>2026-04-19T08:12:32Z</time></trkpt><trkpt lat="43.287266774974526" lon="13.39064300668606"><ele>174.0</ele><time>2026-04-19T08:12:33Z</time></trkpt><trkpt lat="43.287244545118135" lon="13.390801711263231"><ele>178.0</ele><time>2026-04-19T08:12:34Z</time></trkpt><trkpt lat="43.28722147146853" lon="13.39096634264378"><ele>182.0</ele><time>2026-04-19T08:12:35Z</time></trkpt><trkpt lat="43.28719237957812" lon="13.391128332330167"><ele>186.0</ele><time>2026-04-19T08:12:36Z</time></trkpt><trkpt lat="43.2871555598836" lon="13.391284779989572"><ele>190.0</ele><time>2026-04-19T08:12:37Z</time></trkpt><trkpt lat="43.287104884672736" lon="13.391434881420983"><ele>190.0</ele><time>2026-04-19T08:12:38Z</time></trkpt><trkpt lat="43.287032512266535" lon="13.391567036667062"><ele>190.0</ele><time>2026-04-19T08:12:39Z</time></trkpt><trkpt lat="43.28694282517439" lon="13.39167888649487"><ele>190.0</ele><time>2026-04-19T08:12:40Z</time></trkpt><trkpt lat="43.28685412726694" lon="13.391789537905291"><ele>190.0</ele><time>2026-04-19T08:12:41Z</time></trkpt><trkpt lat="43.28675732156441" lon="13.391884164514542"><ele>190.0</ele><time>2026-04-19T08:12:42Z</time></trkpt><trkpt lat="43.286664217654696" lon="13.391984706907433"><ele>190.0</ele><time>2026-04-19T08:12:43Z</time></trkpt><trkpt lat="43.28657841958947" lon="13.392101087304088"><ele>190.0</ele><time>2026-04-19T08:12:44Z</time></trkpt><trkpt lat="43.286490272300846" lon="13.392211061209183"><ele>190.0</ele><time>2026-04-19T08:12:45Z</time></trkpt><trkpt lat="43.286402768634765" lon="13.392320242834215"><ele>190.0</ele><time>2026-04-19T08:12:46Z</time></trkpt><trkpt lat="43.2863207924153" lon="13.392433012962371"><ele>190.0</ele><time>2026-04-19T08:12:47Z</time></trkpt><trkpt lat="43.286248275297346" lon="13.39256340441759"><ele>190.0</ele><time>2026-04-19T08:12:48Z</time></trkpt><trkpt lat="43.28619077835928" lon="13.39270893045041"><ele>190.0</ele><time>2026-04-19T08:12:49Z</time></trkpt><trkpt lat="43.286142758937686" lon="13.392869531209772"><ele>191.0</ele><time>2026-04-19T08:12:50Z</time></trkpt><trkpt lat="43.286098390659646" lon="13.393035808955565"><ele>192.0</ele><time>2026-04-19T08:12:51Z</time></trkpt><trkpt lat="43.28605767897125" lon="13.393203985608686"><ele>193.0</ele><time>2026-04-19T08:12:52Z</time></trkpt><trkpt lat="43.28600321945506" lon="13.393390296523373"><ele>194.0</ele><time>2026-04-19T08:12:53Z</time></trkpt><trkpt lat="43.2859494461373" lon="13.393564415714664"><ele>194.0</ele><time>2026-04-19T08:12:54Z</time></trkpt><trkpt lat="43.28589573582914" lon="13.393745820024623"><ele>194.0</ele><time>2026-04-19T08:12:55Z</time></trkpt><trkpt lat="43.28584553221574" lon="13.393926180054002"><ele>194.0</ele><time>2026-04-19T08:12:56Z</time></trkpt><trkpt lat="43.285794334854394" lon="13.394104232332818"><ele>194.0</ele><time>2026-04-19T08:12:57Z</time></trkpt><trkpt lat="43.28574450618128" lon="13.394271115434673"><ele>195.2</ele><time>2026-04-19T08:12:58Z</time></trkpt><trkpt lat="43.28570414763979" lon="13.394422606966359"><ele>196.39999999999998</ele><time>2026-04-19T08:12:59Z</time></trkpt><trkpt lat="43.28567944004004" lon="13.394567590726663"><ele>197.6</ele><time>2026-04-19T08:13:00Z</time></trkpt><trkpt lat="43.285671650410606" lon="13.394712398272626"><ele>198.8</ele><time>2026-04-19T08:13:01Z</time></trkpt><trkpt lat="43.285689765749005" lon="13.394851586733951"><ele>200.0</ele><time>2026-04-19T08:13:02Z</time></trkpt><trkpt lat="43.28573215832401" lon="13.394988038755836"><ele>200.5</ele><time>2026-04-19T08:13:03.001Z</time></trkpt><trkpt lat="43.285795217001294" lon="13.395119000611125"><ele>201.0</ele><time>2026-04-19T08:13:04.001Z</time></trkpt><trkpt lat="43.28586688392152" lon="13.39526237122458"><ele>201.5</ele><time>2026-04-19T08:13:05.001Z</time></trkpt><trkpt lat="43.28593615116547" lon="13.395419884047406"><ele>202.0</ele><time>2026-04-19T08:13:06.001Z</time></trkpt><trkpt lat="43.28600652104605" lon="13.395596881334837"><ele>202.66666666666666</ele><time>2026-04-19T08:13:07.001Z</time></trkpt><trkpt lat="43.28608141740617" lon="13.39578550993189"><ele>203.33333333333331</ele><time>2026-04-19T08:13:08.001Z</time></trkpt><trkpt lat="43.28615946224863" lon="13.395977453295009"><ele>204.0</ele><time>2026-04-19T08:13:09.001Z</time></trkpt><trkpt lat="43.286239067203475" lon="13.396166864822993"><ele>204.66666666666669</ele><time>2026-04-19T08:13:10.001Z</time></trkpt><trkpt lat="43.28632478401671" lon="13.39636325532917"><ele>205.33333333333334</ele><time>2026-04-19T08:13:11.001Z</time></trkpt><trkpt lat="43.2864034338997" lon="13.396565146742143"><ele>206.0</ele><time>2026-04-19T08:13:12.001Z</time></trkpt><trkpt lat="43.28648105655184" lon="13.396780574815"><ele>206.0</ele><time>2026-04-19T08:13:13.001Z</time></trkpt><trkpt lat="43.286544402400416" lon="13.39700209688719"><ele>206.0</ele><time>2026-04-19T08:13:14.001Z</time></trkpt><trkpt lat="43.28659679471506" lon="13.397234236493357"><ele>206.0</ele><time>2026-04-19T08:13:15.001Z</time></trkpt><trkpt lat="43.28663839580473" lon="13.397464118854518"><ele>207.33333333333334</ele><time>2026-04-19T08:13:16.001Z</time></trkpt><trkpt lat="43.28668378494013" lon="13.397700302940798"><ele>208.66666666666669</ele><time>2026-04-19T08:13:17.001Z</time></trkpt><trkpt lat="43.28673031842236" lon="13.397929394277579"><ele>210.0</ele><time>2026-04-19T08:13:18.001Z</time></trkpt><trkpt lat="43.286778968977636" lon="13.398163509752836"><ele>212.0</ele><time>2026-04-19T08:13:19.001Z</time></trkpt><trkpt lat="43.28682774576208" lon="13.39839325521059"><ele>214.0</ele><time>2026-04-19T08:13:20.001Z</time></trkpt><trkpt lat="43.28687638746921" lon="13.398619660549379"><ele>216.0</ele><time>2026-04-19T08:13:21.001Z</time></trkpt><trkpt lat="43.286921353165944" lon="13.398846872226619"><ele>217.33333333333331</ele><time>2026-04-19T08:13:22.001Z</time></trkpt><trkpt lat="43.286967663015545" lon="13.399075068707761"><ele>218.66666666666666</ele><time>2026-04-19T08:13:23.001Z</time></trkpt><trkpt lat="43.28701763685752" lon="13.399305619671408"><ele>220.0</ele><time>2026-04-19T08:13:24.001Z</time></trkpt><trkpt lat="43.28706766384982" lon="13.399533624688125"><ele>220.33333333333331</ele><time>2026-04-19T08:13:25.001Z</time></trkpt><trkpt lat="43.28711094434761" lon="13.399767867606865"><ele>220.66666666666669</ele><time>2026-04-19T08:13:26.001Z</time></trkpt><trkpt lat="43.2871411163767" lon="13.400002462988795"><ele>221.0</ele><time>2026-04-19T08:13:27.001Z</time></trkpt><trkpt lat="43.28715983279887" lon="13.400235710306385"><ele>221.0</ele><time>2026-04-19T08:13:28.001Z</time></trkpt><trkpt lat="43.28717251801143" lon="13.400482318574912"><ele>221.0</ele><time>2026-04-19T08:13:29.001Z</time></trkpt><trkpt lat="43.28718016435448" lon="13.400729718964929"><ele>221.0</ele><time>2026-04-19T08:13:30.001Z</time></trkpt><trkpt lat="43.28719385779564" lon="13.400982973703151"><ele>222.0</ele><time>2026-04-19T08:13:31.001Z</time></trkpt><trkpt lat="43.28720543500073" lon="13.401226050802123"><ele>223.0</ele><time>2026-04-19T08:13:32.001Z</time></trkpt><trkpt lat="43.28721996219462" lon="13.401483264856369"><ele>224.0</ele><time>2026-04-19T08:13:33.001Z</time></trkpt><trkpt lat="43.28723413379814" lon="13.401736520548017"><ele>224.66666666666669</ele><time>2026-04-19T08:13:34.001Z</time></trkpt><trkpt lat="43.287250864230735" lon="13.401995655158572"><ele>225.33333333333331</ele><time>2026-04-19T08:13:35.001Z</time></trkpt><trkpt lat="43.28726741845815" lon="13.402251903351168"><ele>226.0</ele><time>2026-04-19T08:13:36.001Z</time></trkpt><trkpt lat="43.28728224002444" lon="13.40250486002267"><ele>226.0</ele><time>2026-04-19T08:13:37.001Z</time></trkpt><trkpt lat="43.287297083931456" lon="13.402758765586215"><ele>226.0</ele><time>2026-04-19T08:13:38.001Z</time></trkpt><trkpt lat="43.28731194211909" lon="13.403008552928316"><ele>226.0</ele><time>2026-04-19T08:13:39.001Z</time></trkpt><trkpt lat="43.28733718955147" lon="13.40325587330368"><ele>226.66666666666666</ele><time>2026-04-19T08:13:40.001Z</time></trkpt><trkpt lat="43.28738620699243" lon="13.403499853971597"><ele>227.33333333333331</ele><time>2026-04-19T08:13:41.001Z</time></trkpt><trkpt lat="43.2874451582639" lon="13.403740667571773"><ele>228.0</ele><time>2026-04-19T08:13:42.001Z</time></trkpt><trkpt lat="43.287482183813495" lon="13.403996102153906"><ele>230.33333333333331</ele><time>2026-04-19T08:13:43.001Z</time></trkpt><trkpt lat="43.28753348754607" lon="13.404242675219217"><ele>232.66666666666666</ele><time>2026-04-19T08:13:44.001Z</time></trkpt><trkpt lat="43.28758642019841" lon="13.404503089412914"><ele>235.0</ele><time>2026-04-19T08:13:45.001Z</time></trkpt><trkpt lat="43.28763510745287" lon="13.40477438009741"><ele>237.0</ele><time>2026-04-19T08:13:46.001Z</time></trkpt><trkpt lat="43.28766573284134" lon="13.404985504666454"><ele>239.0</ele><time>2026-04-19T08:13:47.001Z</time></trkpt><trkpt lat="43.28769350262117" lon="13.405240611748898"><ele>241.0</ele><time>2026-04-19T08:13:48.001Z</time></trkpt><trkpt lat="43.28772041012709" lon="13.405501790878603"><ele>242.0</ele><time>2026-04-19T08:13:49.001Z</time></trkpt><trkpt lat="43.28776125537226" lon="13.405762919655858"><ele>243.0</ele><time>2026-04-19T08:13:50.001Z</time></trkpt><trkpt lat="43.28778184135434" lon="13.406028963546898"><ele>244.0</ele><time>2026-04-19T08:13:51.001Z</time></trkpt><trkpt lat="43.28780017827739" lon="13.406295502497905"><ele>244.66666666666666</ele><time>2026-04-19T08:13:52.001Z</time></trkpt><trkpt lat="43.28779510388935" lon="13.406564578790148"><ele>245.33333333333331</ele><time>2026-04-19T08:13:53.001Z</time></trkpt><trkpt lat="43.28780388832386" lon="13.406824753877315"><ele>246.0</ele><time>2026-04-19T08:13:54.001Z</time></trkpt><trkpt lat="43.28782711999604" lon="13.407080239706039"><ele>249.33333333333331</ele><time>2026-04-19T08:13:55.001Z</time></trkpt><trkpt lat="43.287821848619096" lon="13.407338896069307"><ele>252.66666666666666</ele><time>2026-04-19T08:13:56.001Z</time></trkpt><trkpt lat="43.28783767034236" lon="13.407573123423735"><ele>256.0</ele><time>2026-04-19T08:13:57.001Z</time></trkpt><trkpt lat="43.287876508877986" lon="13.407785899295918"><ele>256.0</ele><time>2026-04-19T08:13:58.001Z</time></trkpt><trkpt lat="43.28790220308029" lon="13.407984551333298"><ele>256.0</ele><time>2026-04-19T08:13:59.001Z</time></trkpt><trkpt lat="43.28792606656552" lon="13.408185516442083"><ele>256.0</ele><time>2026-04-19T08:14:00.001Z</time></trkpt><trkpt lat="43.287992178641495" lon="13.408391741729949"><ele>259.0</ele><time>2026-04-19T08:14:01.001Z</time></trkpt><trkpt lat="43.28802637328934" lon="13.408596276789153"><ele>262.0</ele><time>2026-04-19T08:14:02.001Z</time></trkpt><trkpt lat="43.288065954883066" lon="13.408802501056428"><ele>265.0</ele><time>2026-04-19T08:14:03.001Z</time></trkpt><trkpt lat="43.28811794138453" lon="13.409003268611977"><ele>259.0</ele><time>2026-04-19T08:14:04.001Z</time></trkpt><trkpt lat="43.2881873802072" lon="13.409198711516703"><ele>253.0</ele><time>2026-04-19T08:14:05.001Z</time></trkpt><trkpt lat="43.28827873942121" lon="13.409376751852063"><ele>247.0</ele><time>2026-04-19T08:14:06.001Z</time></trkpt><trkpt lat="43.288389375244144" lon="13.409538064190079"><ele>250.66666666666666</ele><time>2026-04-19T08:14:07.001Z</time></trkpt><trkpt lat="43.28850098432386" lon="13.409703428635375"><ele>254.33333333333331</ele><time>2026-04-19T08:14:08.001Z</time></trkpt><trkpt lat="43.28860417734885" lon="13.409882510803097"><ele>258.0</ele><time>2026-04-19T08:14:09.001Z</time></trkpt><trkpt lat="43.288691826807415" lon="13.410095880517671"><ele>258.0</ele><time>2026-04-19T08:14:10.001Z</time></trkpt><trkpt lat="43.28876895445725" lon="13.410318369036599"><ele>258.0</ele><time>2026-04-19T08:14:11.001Z</time></trkpt><trkpt lat="43.288847014342046" lon="13.41055394458279"><ele>258.0</ele><time>2026-04-19T08:14:12.001Z</time></trkpt><trkpt lat="43.28893957771986" lon="13.410792370223836"><ele>257.0</ele><time>2026-04-19T08:14:13.001Z</time></trkpt><trkpt lat="43.28902038936302" lon="13.411035904666829"><ele>256.0</ele><time>2026-04-19T08:14:14.001Z</time></trkpt><trkpt lat="43.28910024112623" lon="13.41127053240025"><ele>255.0</ele><time>2026-04-19T08:14:15.001Z</time></trkpt><trkpt lat="43.28917485131415" lon="13.411494548134714"><ele>257.3333333333333</ele><time>2026-04-19T08:14:16.001Z</time></trkpt><trkpt lat="43.28923547676398" lon="13.41172345946423"><ele>259.66666666666663</ele><time>2026-04-19T08:14:17.001Z</time></trkpt><trkpt lat="43.289253691661855" lon="13.41196306906729"><ele>262.0</ele><time>2026-04-19T08:14:18.001Z</time></trkpt><trkpt lat="43.28928244353605" lon="13.41220318183822"><ele>263.66666666666663</ele><time>2026-04-19T08:14:19.001Z</time></trkpt><trkpt lat="43.289326263662616" lon="13.412452363011939"><ele>265.3333333333333</ele><time>2026-04-19T08:14:20.001Z</time></trkpt><trkpt lat="43.289351933595555" lon="13.412694348196117"><ele>267.0</ele><time>2026-04-19T08:14:21.001Z</time></trkpt><trkpt lat="43.289388800071364" lon="13.412933962598235"><ele>267.3333333333333</ele><time>2026-04-19T08:14:22.001Z</time></trkpt><trkpt lat="43.28944500006636" lon="13.413152753224503"><ele>267.66666666666663</ele><time>2026-04-19T08:14:23.001Z</time></trkpt><trkpt lat="43.28953114732107" lon="13.413360169030007"><ele>268.0</ele><time>2026-04-19T08:14:24.001Z</time></trkpt><trkpt lat="43.289634287783194" lon="13.413559732969793"><ele>268.0</ele><time>2026-04-19T08:14:25.001Z</time></trkpt><trkpt lat="43.28973529354002" lon="13.413764959395268"><ele>268.0</ele><time>2026-04-19T08:14:26Z</time></trkpt><trkpt lat="43.289830077507624" lon="13.413977043356216"><ele>268.0</ele><time>2026-04-19T08:14:27Z</time></trkpt><trkpt lat="43.28992620361647" lon="13.414201801671862"><ele>267.66666666666663</ele><time>2026-04-19T08:14:28Z</time></trkpt><trkpt lat="43.29001261314538" lon="13.414436214443683"><ele>267.3333333333333</ele><time>2026-04-19T08:14:29Z</time></trkpt><trkpt lat="43.290081387145115" lon="13.414687647584135"><ele>267.0</ele><time>2026-04-19T08:14:30Z</time></trkpt><trkpt lat="43.29013191051171" lon="13.414951247237026"><ele>267.0</ele><time>2026-04-19T08:14:31Z</time></trkpt><trkpt lat="43.290170461356965" lon="13.415225464248266"><ele>267.0</ele><time>2026-04-19T08:14:32Z</time></trkpt><trkpt lat="43.29021758813126" lon="13.415495679862929"><ele>267.0</ele><time>2026-04-19T08:14:33Z</time></trkpt><trkpt lat="43.290266874354245" lon="13.415767110697816"><ele>266.6666666666667</ele><time>2026-04-19T08:14:34Z</time></trkpt><trkpt lat="43.2903144941302" lon="13.416036738775427"><ele>266.33333333333337</ele><time>2026-04-19T08:14:35Z</time></trkpt><trkpt lat="43.29035393588863" lon="13.41629122572314"><ele>266.0</ele><time>2026-04-19T08:14:36Z</time></trkpt><trkpt lat="43.290387155386476" lon="13.41653036215111"><ele>266.0</ele><time>2026-04-19T08:14:37Z</time></trkpt><trkpt lat="43.29037122175208" lon="13.416756914064692"><ele>266.0</ele><time>2026-04-19T08:14:38Z</time></trkpt><trkpt lat="43.29038162308914" lon="13.416967080299223"><ele>266.0</ele><time>2026-04-19T08:14:39Z</time></trkpt><trkpt lat="43.2903878026088" lon="13.417157827562185"><ele>266.25</ele><time>2026-04-19T08:14:40Z</time></trkpt><trkpt lat="43.29042550299475" lon="13.417332841514405"><ele>266.5</ele><time>2026-04-19T08:14:41Z</time></trkpt><trkpt lat="43.29048789598398" lon="13.417497236310119"><ele>266.75</ele><time>2026-04-19T08:14:42Z</time></trkpt><trkpt lat="43.290571316416" lon="13.417652952086916"><ele>267.0</ele><time>2026-04-19T08:14:43Z</time></trkpt><trkpt lat="43.29066661331475" lon="13.417807967924684"><ele>270.3333333333333</ele><time>2026-04-19T08:14:44Z</time></trkpt><trkpt lat="43.29076553004251" lon="13.417980403133877"><ele>273.66666666666663</ele><time>2026-04-19T08:14:45Z</time></trkpt><trkpt lat="43.29086528070985" lon="13.41815803304916"><ele>277.0</ele><time>2026-04-19T08:14:46Z</time></trkpt><trkpt lat="43.290958047262016" lon="13.418354765190607"><ele>277.0</ele><time>2026-04-19T08:14:47Z</time></trkpt><trkpt lat="43.29104145003908" lon="13.41857063361581"><ele>277.0</ele><time>2026-04-19T08:14:48Z</time></trkpt><trkpt lat="43.291114574565874" lon="13.418798590676486"><ele>277.0</ele><time>2026-04-19T08:14:49Z</time></trkpt><trkpt lat="43.29118545632114" lon="13.419035030805984"><ele>276.0</ele><time>2026-04-19T08:14:50Z</time></trkpt><trkpt lat="43.29125271604319" lon="13.41927288736014"><ele>275.0</ele><time>2026-04-19T08:14:51Z</time></trkpt><trkpt lat="43.2913136992713" lon="13.419511363471347"><ele>274.0</ele><time>2026-04-19T08:14:52Z</time></trkpt><trkpt lat="43.29137613798183" lon="13.419735141868998"><ele>277.0</ele><time>2026-04-19T08:14:53Z</time></trkpt><trkpt lat="43.29144253046708" lon="13.419941846337672"><ele>280.0</ele><time>2026-04-19T08:14:54Z</time></trkpt><trkpt lat="43.29152747938209" lon="13.420120874304267"><ele>283.0</ele><time>2026-04-19T08:14:55Z</time></trkpt><trkpt lat="43.29163272182638" lon="13.420274708895025"><ele>283.0</ele><time>2026-04-19T08:14:56Z</time></trkpt><trkpt lat="43.29175877831181" lon="13.420390505709964"><ele>283.0</ele><time>2026-04-19T08:14:57Z</time></trkpt><trkpt lat="43.29190080859372" lon="13.420479474061558"><ele>283.0</ele><time>2026-04-19T08:14:58Z</time></trkpt><trkpt lat="43.29205338873307" lon="13.420549329003114"><ele>284.0</ele><time>2026-04-19T08:14:59Z</time></trkpt><trkpt lat="43.29221143875012" lon="13.420626355795445"><ele>285.0</ele><time>2026-04-19T08:15:00Z</time></trkpt><trkpt lat="43.29237022024134" lon="13.420717011065227"><ele>286.0</ele><time>2026-04-19T08:15:01Z</time></trkpt><trkpt lat="43.29253312796586" lon="13.420805549504896"><ele>286.0</ele><time>2026-04-19T08:15:02Z</time></trkpt><trkpt lat="43.29269810175862" lon="13.42089170479277"><ele>286.0</ele><time>2026-04-19T08:15:03Z</time></trkpt><trkpt lat="43.292865567845745" lon="13.420964435796707"><ele>286.0</ele><time>2026-04-19T08:15:04Z</time></trkpt><trkpt lat="43.2930435907304" lon="13.421050457601009"><ele>285.66666666666663</ele><time>2026-04-19T08:15:05Z</time></trkpt><trkpt lat="43.2932146185123" lon="13.421110664695194"><ele>285.3333333333333</ele><time>2026-04-19T08:15:06Z</time></trkpt><trkpt lat="43.29337816467243" lon="13.421214948732846"><ele>285.0</ele><time>2026-04-19T08:15:07Z</time></trkpt><trkpt lat="43.293535841275656" lon="13.421339418155751"><ele>285.0</ele><time>2026-04-19T08:15:08Z</time></trkpt><trkpt lat="43.29368509567949" lon="13.421480913786661"><ele>285.0</ele><time>2026-04-19T08:15:09Z</time></trkpt><trkpt lat="43.29382207356013" lon="13.42163435546356"><ele>285.0</ele><time>2026-04-19T08:15:10Z</time></trkpt><trkpt lat="43.29394449156103" lon="13.421774169813679"><ele>286.25</ele><time>2026-04-19T08:15:11Z</time></trkpt><trkpt lat="43.294062363201206" lon="13.421892275044758"><ele>287.5</ele><time>2026-04-19T08:15:12Z</time></trkpt><trkpt lat="43.29417558398994" lon="13.422001344605704"><ele>288.75</ele><time>2026-04-19T08:15:13Z</time></trkpt><trkpt lat="43.29427894871008" lon="13.42210926704263"><ele>290.0</ele><time>2026-04-19T08:15:14Z</time></trkpt><trkpt lat="43.29436043336335" lon="13.4222450383239"><ele>290.0</ele><time>2026-04-19T08:15:15Z</time></trkpt><trkpt lat="43.294449689665285" lon="13.422361176163925"><ele>290.0</ele><time>2026-04-19T08:15:16Z</time></trkpt><trkpt lat="43.29451288081443" lon="13.422481380353021"><ele>290.0</ele><time>2026-04-19T08:15:17Z</time></trkpt><trkpt lat="43.29457290160904" lon="13.422593941151826"><ele>290.0</ele><time>2026-04-19T08:15:18Z</time></trkpt><trkpt lat="43.29463460801952" lon="13.422696399344565"><ele>290.0</ele><time>2026-04-19T08:15:19Z</time></trkpt><trkpt lat="43.29469059923508" lon="13.422800138094603"><ele>290.0</ele><time>2026-04-19T08:15:20Z</time></trkpt><trkpt lat="43.294742712490844" lon="13.422908120443092"><ele>290.0</ele><time>2026-04-19T08:15:21Z</time></trkpt><trkpt lat="43.29480128167876" lon="13.423016869940753"><ele>290.0</ele><time>2026-04-19T08:15:22Z</time></trkpt><trkpt lat="43.29486835913813" lon="13.423131291444342"><ele>290.0</ele><time>2026-04-19T08:15:23Z</time></trkpt><trkpt lat="43.29493534577297" lon="13.423248036759768"><ele>290.0</ele><time>2026-04-19T08:15:24Z</time></trkpt><trkpt lat="43.29500351895387" lon="13.423368635079644"><ele>290.75</ele><time>2026-04-19T08:15:25Z</time></trkpt><trkpt lat="43.29507481915008" lon="13.42349449921527"><ele>291.5</ele><time>2026-04-19T08:15:26Z</time></trkpt><trkpt lat="43.29514524265996" lon="13.423616457780318"><ele>292.25</ele><time>2026-04-19T08:15:27Z</time></trkpt><trkpt lat="43.29521888697709" lon="13.42374552247462"><ele>293.0</ele><time>2026-04-19T08:15:28Z</time></trkpt><trkpt lat="43.29528997643689" lon="13.423874423013912"><ele>293.0</ele><time>2026-04-19T08:15:29Z</time></trkpt><trkpt lat="43.295365160922245" lon="13.424000185434569"><ele>293.0</ele><time>2026-04-19T08:15:30Z</time></trkpt><trkpt lat="43.29544082747186" lon="13.424123576909272"><ele>293.0</ele><time>2026-04-19T08:15:31Z</time></trkpt><trkpt lat="43.29551106018239" lon="13.424253033091839"><ele>293.0</ele><time>2026-04-19T08:15:32Z</time></trkpt><trkpt lat="43.29558015445554" lon="13.424384783459168"><ele>295.25</ele><time>2026-04-19T08:15:33Z</time></trkpt><trkpt lat="43.29564839462406" lon="13.424512370976062"><ele>297.5</ele><time>2026-04-19T08:15:34Z</time></trkpt><trkpt lat="43.29572068640499" lon="13.424647764885139"><ele>299.75</ele><time>2026-04-19T08:15:35Z</time></trkpt><trkpt lat="43.29577627442553" lon="13.424780258210813"><ele>302.0</ele><time>2026-04-19T08:15:36Z</time></trkpt><trkpt lat="43.29583198574816" lon="13.424918364769063"><ele>302.0</ele><time>2026-04-19T08:15:37Z</time></trkpt><trkpt lat="43.295883524386014" lon="13.42505975734975"><ele>302.0</ele><time>2026-04-19T08:15:38Z</time></trkpt><trkpt lat="43.295944509540604" lon="13.425197579534355"><ele>302.0</ele><time>2026-04-19T08:15:39Z</time></trkpt><trkpt lat="43.29600301979896" lon="13.425335539300809"><ele>302.0</ele><time>2026-04-19T08:15:40Z</time></trkpt><trkpt lat="43.296060826330006" lon="13.425473657723224"><ele>301.0</ele><time>2026-04-19T08:15:41Z</time></trkpt><trkpt lat="43.296121566888054" lon="13.425612081515988"><ele>300.0</ele><time>2026-04-19T08:15:42Z</time></trkpt><trkpt lat="43.296178578837804" lon="13.425754071139147"><ele>299.0</ele><time>2026-04-19T08:15:43Z</time></trkpt><trkpt lat="43.2962379512278" lon="13.425897215728721"><ele>298.0</ele><time>2026-04-19T08:15:44Z</time></trkpt><trkpt lat="43.296305697373924" lon="13.426039968547443"><ele>298.0</ele><time>2026-04-19T08:15:45Z</time></trkpt><trkpt lat="43.29637461975894" lon="13.426170269992927"><ele>298.0</ele><time>2026-04-19T08:15:46Z</time></trkpt><trkpt lat="43.29645124889046" lon="13.426303926296047"><ele>298.0</ele><time>2026-04-19T08:15:47Z</time></trkpt><trkpt lat="43.29652530004159" lon="13.426427970723834"><ele>298.0</ele><time>2026-04-19T08:15:48Z</time></trkpt><trkpt lat="43.296606611653196" lon="13.426558453226413"><ele>300.25</ele><time>2026-04-19T08:15:49Z</time></trkpt><trkpt lat="43.29668028145875" lon="13.426697776589743"><ele>302.5</ele><time>2026-04-19T08:15:50.001Z</time></trkpt><trkpt lat="43.29677177221852" lon="13.426829173430317"><ele>304.75</ele><time>2026-04-19T08:15:51.001Z</time></trkpt><trkpt lat="43.29685622016191" lon="13.426967714983583"><ele>307.0</ele><time>2026-04-19T08:15:52.001Z</time></trkpt><trkpt lat="43.29694554633238" lon="13.4270969400199"><ele>305.5</ele><time>2026-04-19T08:15:53.001Z</time></trkpt><trkpt lat="43.29702956114137" lon="13.427227813526562"><ele>304.0</ele><time>2026-04-19T08:15:54.001Z</time></trkpt><trkpt lat="43.29711231612751" lon="13.427352149283951"><ele>302.5</ele><time>2026-04-19T08:15:55.001Z</time></trkpt><trkpt lat="43.29719287887005" lon="13.427472697832227"><ele>301.0</ele><time>2026-04-19T08:15:56.001Z</time></trkpt><trkpt lat="43.297263146700736" lon="13.427607081991203"><ele>303.75</ele><time>2026-04-19T08:15:57.001Z</time></trkpt><trkpt lat="43.2973381343592" lon="13.427745152964812"><ele>306.5</ele><time>2026-04-19T08:15:58.001Z</time></trkpt><trkpt lat="43.29740399250728" lon="13.427888421941681"><ele>309.25</ele><time>2026-04-19T08:15:59.001Z</time></trkpt><trkpt lat="43.29745827757541" lon="13.428044880208976"><ele>312.0</ele><time>2026-04-19T08:16:00.001Z</time></trkpt><trkpt lat="43.297515250247564" lon="13.42820015647834"><ele>312.0</ele><time>2026-04-19T08:16:01.001Z</time></trkpt><trkpt lat="43.29756618789373" lon="13.42835722806963"><ele>312.0</ele><time>2026-04-19T08:16:02.001Z</time></trkpt><trkpt lat="43.297613807662295" lon="13.428518726629733"><ele>312.0</ele><time>2026-04-19T08:16:03.001Z</time></trkpt><trkpt lat="43.29765642565221" lon="13.428682495637716"><ele>312.0</ele><time>2026-04-19T08:16:04.001Z</time></trkpt><trkpt lat="43.29769466551748" lon="13.428852885010969"><ele>311.75</ele><time>2026-04-19T08:16:05.001Z</time></trkpt><trkpt lat="43.297732776239734" lon="13.42901475526407"><ele>311.5</ele><time>2026-04-19T08:16:06.001Z</time></trkpt><trkpt lat="43.29776009810916" lon="13.429185920396682"><ele>311.25</ele><time>2026-04-19T08:16:07.001Z</time></trkpt><trkpt lat="43.297786442724274" lon="13.429353525220716"><ele>311.0</ele><time>2026-04-19T08:16:08.001Z</time></trkpt><trkpt lat="43.297814772778466" lon="13.429520047624289"><ele>310.5</ele><time>2026-04-19T08:16:09.001Z</time></trkpt><trkpt lat="43.2978412785211" lon="13.429692085929684"><ele>310.0</ele><time>2026-04-19T08:16:10.001Z</time></trkpt><trkpt lat="43.29785459668712" lon="13.42985104880444"><ele>309.5</ele><time>2026-04-19T08:16:11.001Z</time></trkpt><trkpt lat="43.29788048110567" lon="13.430015285790553"><ele>309.0</ele><time>2026-04-19T08:16:12.001Z</time></trkpt><trkpt lat="43.29790870111187" lon="13.430194342002483"><ele>309.0</ele><time>2026-04-19T08:16:13.001Z</time></trkpt><trkpt lat="43.29793527931902" lon="13.430360323703663"><ele>309.0</ele><time>2026-04-19T08:16:14.001Z</time></trkpt><trkpt lat="43.29796209764015" lon="13.430529768272391"><ele>309.0</ele><time>2026-04-19T08:16:15.001Z</time></trkpt><trkpt lat="43.29798961518735" lon="13.430696211868279"><ele>309.0</ele><time>2026-04-19T08:16:16.001Z</time></trkpt><trkpt lat="43.298043409201426" lon="13.430863780519982"><ele>308.5</ele><time>2026-04-19T08:16:17.001Z</time></trkpt><trkpt lat="43.29807133988695" lon="13.4310328275969"><ele>308.0</ele><time>2026-04-19T08:16:18.001Z</time></trkpt><trkpt lat="43.29810021889172" lon="13.43120233184649"><ele>307.5</ele><time>2026-04-19T08:16:19.001Z</time></trkpt><trkpt lat="43.29812363725288" lon="13.431374923409393"><ele>307.0</ele><time>2026-04-19T08:16:20.001Z</time></trkpt><trkpt lat="43.29815134898523" lon="13.431549170887601"><ele>306.5</ele><time>2026-04-19T08:16:21.001Z</time></trkpt><trkpt lat="43.29818420482016" lon="13.431722212653712"><ele>306.0</ele><time>2026-04-19T08:16:22.001Z</time></trkpt><trkpt lat="43.29820091546352" lon="13.431899721567047"><ele>305.5</ele><time>2026-04-19T08:16:23.001Z</time></trkpt><trkpt lat="43.298234658818465" lon="13.432074215196687"><ele>305.0</ele><time>2026-04-19T08:16:24.001Z</time></trkpt><trkpt lat="43.29826638853492" lon="13.432238295367199"><ele>305.0</ele><time>2026-04-19T08:16:25.001Z</time></trkpt><trkpt lat="43.29830090625935" lon="13.432408470986609"><ele>305.0</ele><time>2026-04-19T08:16:26.001Z</time></trkpt><trkpt lat="43.29833520655147" lon="13.43257859538349"><ele>305.0</ele><time>2026-04-19T08:16:27.001Z</time></trkpt><trkpt lat="43.29836988438198" lon="13.432750592294132"><ele>305.0</ele><time>2026-04-19T08:16:28.001Z</time></trkpt><trkpt lat="43.29840413745623" lon="13.43292048245826"><ele>306.75</ele><time>2026-04-19T08:16:29.001Z</time></trkpt><trkpt lat="43.29843761141193" lon="13.433086508337905"><ele>308.5</ele><time>2026-04-19T08:16:30.001Z</time></trkpt><trkpt lat="43.29847401189728" lon="13.433256802271416"><ele>310.25</ele><time>2026-04-19T08:16:31.001Z</time></trkpt><trkpt lat="43.29851341105014" lon="13.433419194045332"><ele>312.0</ele><time>2026-04-19T08:16:32.001Z</time></trkpt><trkpt lat="43.29855430019405" lon="13.433576756364923"><ele>312.0</ele><time>2026-04-19T08:16:33.001Z</time></trkpt><trkpt lat="43.298600372079214" lon="13.433737305697335"><ele>312.0</ele><time>2026-04-19T08:16:34.001Z</time></trkpt><trkpt lat="43.29864595613807" lon="13.43389583227957"><ele>312.0</ele><time>2026-04-19T08:16:35.001Z</time></trkpt><trkpt lat="43.29868965218064" lon="13.434046320948305"><ele>312.0</ele><time>2026-04-19T08:16:36.001Z</time></trkpt><trkpt lat="43.298736893521244" lon="13.434203153670465"><ele>313.25</ele><time>2026-04-19T08:16:37.001Z</time></trkpt><trkpt lat="43.298784199093795" lon="13.434364294595973"><ele>314.5</ele><time>2026-04-19T08:16:38.001Z</time></trkpt><trkpt lat="43.29882858046103" lon="13.434517240829019"><ele>315.75</ele><time>2026-04-19T08:16:39.001Z</time></trkpt><trkpt lat="43.29887495646529" lon="13.434677060859283"><ele>317.0</ele><time>2026-04-19T08:16:40.001Z</time></trkpt><trkpt lat="43.298920890103616" lon="13.434835356482084"><ele>317.5</ele><time>2026-04-19T08:16:41.001Z</time></trkpt><trkpt lat="43.298965749463804" lon="13.434989783047149"><ele>318.0</ele><time>2026-04-19T08:16:42.001Z</time></trkpt><trkpt lat="43.299011369207186" lon="13.435146814918063"><ele>318.5</ele><time>2026-04-19T08:16:43.001Z</time></trkpt><trkpt lat="43.29905560578794" lon="13.435305854104051"><ele>319.0</ele><time>2026-04-19T08:16:44.001Z</time></trkpt><trkpt lat="43.299094191464185" lon="13.435449805601491"><ele>319.2</ele><time>2026-04-19T08:16:45.001Z</time></trkpt><trkpt lat="43.29912871151553" lon="13.435586533982471"><ele>319.4</ele><time>2026-04-19T08:16:46.001Z</time></trkpt><trkpt lat="43.299159998506624" lon="13.435718044444366"><ele>319.6</ele><time>2026-04-19T08:16:47.001Z</time></trkpt><trkpt lat="43.299188181347" lon="13.435841593577281"><ele>319.8</ele><time>2026-04-19T08:16:48.001Z</time></trkpt><trkpt lat="43.29921348494844" lon="13.435954184899806"><ele>320.0</ele><time>2026-04-19T08:16:49.001Z</time></trkpt><trkpt lat="43.299237827065426" lon="13.436062497405"><ele>320.0</ele><time>2026-04-19T08:16:50.001Z</time></trkpt><trkpt lat="43.29925651399297" lon="13.436158070860794"><ele>320.0</ele><time>2026-04-19T08:16:51.001Z</time></trkpt><trkpt lat="43.29928023223261" lon="13.436308200859012"><ele>320.0</ele><time>2026-04-19T08:16:53.001Z</time></trkpt><trkpt lat="43.29925318897269" lon="13.436447737692223"><ele>320.0</ele><time>2026-04-19T08:16:55.001Z</time></trkpt><trkpt lat="43.29921015177894" lon="13.436517868732095"><ele>320.0</ele><time>2026-04-19T08:16:56.001Z</time></trkpt><trkpt lat="43.2991451520789" lon="13.436575768922824"><ele>320.0</ele><time>2026-04-19T08:16:57.001Z</time></trkpt><trkpt lat="43.2990718854608" lon="13.436622500012106"><ele>319.6666666666667</ele><time>2026-04-19T08:16:58.001Z</time></trkpt><trkpt lat="43.29898713035727" lon="13.436665053747063"><ele>319.33333333333337</ele><time>2026-04-19T08:16:59.001Z</time></trkpt><trkpt lat="43.29891214850492" lon="13.436696801389125"><ele>319.0</ele><time>2026-04-19T08:17:00.001Z</time></trkpt><trkpt lat="43.29883127413333" lon="13.436731887079896"><ele>318.6666666666667</ele><time>2026-04-19T08:17:01.001Z</time></trkpt><trkpt lat="43.2987579576168" lon="13.436761607220037"><ele>318.3333333333333</ele><time>2026-04-19T08:17:02.001Z</time></trkpt><trkpt lat="43.298682547992385" lon="13.436791399935583"><ele>318.0</ele><time>2026-04-19T08:17:03.001Z</time></trkpt><trkpt lat="43.29860267583499" lon="13.436815269455186"><ele>317.6666666666667</ele><time>2026-04-19T08:17:04.001Z</time></trkpt><trkpt lat="43.29851871660315" lon="13.436815257148327"><ele>317.3333333333333</ele><time>2026-04-19T08:17:05.001Z</time></trkpt><trkpt lat="43.29843672330815" lon="13.436785550138714"><ele>317.0</ele><time>2026-04-19T08:17:06Z</time></trkpt><trkpt lat="43.29835376681733" lon="13.436738631800962"><ele>316.66666666666663</ele><time>2026-04-19T08:17:07Z</time></trkpt><trkpt lat="43.298282509815195" lon="13.43669030123789"><ele>316.3333333333333</ele><time>2026-04-19T08:17:08Z</time></trkpt><trkpt lat="43.29819381058484" lon="13.436644086804245"><ele>316.0</ele><time>2026-04-19T08:17:09Z</time></trkpt><trkpt lat="43.298104441420215" lon="13.436634303419456"><ele>314.2</ele><time>2026-04-19T08:17:10Z</time></trkpt><trkpt lat="43.298009267831674" lon="13.436634754260849"><ele>312.40000000000003</ele><time>2026-04-19T08:17:11Z</time></trkpt><trkpt lat="43.297915190931654" lon="13.436661371037422"><ele>310.6</ele><time>2026-04-19T08:17:12Z</time></trkpt><trkpt lat="43.29781486915744" lon="13.436677028208615"><ele>308.8</ele><time>2026-04-19T08:17:13Z</time></trkpt><trkpt lat="43.29771449427407" lon="13.436692495752965"><ele>307.0</ele><time>2026-04-19T08:17:14Z</time></trkpt><trkpt lat="43.29761009449126" lon="13.436677641662902"><ele>307.0</ele><time>2026-04-19T08:17:15Z</time></trkpt><trkpt lat="43.297503886216255" lon="13.436635514215428"><ele>307.0</ele><time>2026-04-19T08:17:16Z</time></trkpt><trkpt lat="43.29739022201942" lon="13.43658302934087"><ele>307.0</ele><time>2026-04-19T08:17:17Z</time></trkpt><trkpt lat="43.297280512356146" lon="13.436536555155989"><ele>307.0</ele><time>2026-04-19T08:17:18Z</time></trkpt><trkpt lat="43.29715787462204" lon="13.436510466789963"><ele>305.25</ele><time>2026-04-19T08:17:19Z</time></trkpt><trkpt lat="43.29703335265669" lon="13.436490910603268"><ele>303.5</ele><time>2026-04-19T08:17:20Z</time></trkpt><trkpt lat="43.2969170779939" lon="13.436467784233491"><ele>301.75</ele><time>2026-04-19T08:17:21Z</time></trkpt><trkpt lat="43.29680166414788" lon="13.436442472650679"><ele>300.0</ele><time>2026-04-19T08:17:22Z</time></trkpt><trkpt lat="43.29669352511007" lon="13.436420057276624"><ele>300.0</ele><time>2026-04-19T08:17:23Z</time></trkpt><trkpt lat="43.29658385761423" lon="13.436397716711985"><ele>300.0</ele><time>2026-04-19T08:17:24Z</time></trkpt><trkpt lat="43.296476257106264" lon="13.436376793120864"><ele>300.0</ele><time>2026-04-19T08:17:25Z</time></trkpt><trkpt lat="43.2963683944708" lon="13.436355835097238"><ele>300.0</ele><time>2026-04-19T08:17:26Z</time></trkpt><trkpt lat="43.296262207227905" lon="13.436336379188406"><ele>300.0</ele><time>2026-04-19T08:17:27Z</time></trkpt><trkpt lat="43.29615728001492" lon="13.436317840175635"><ele>299.8</ele><time>2026-04-19T08:17:28Z</time></trkpt><trkpt lat="43.296056166291166" lon="13.436286735405863"><ele>299.6</ele><time>2026-04-19T08:17:29Z</time></trkpt><trkpt lat="43.29595239435663" lon="13.436265988080704"><ele>299.4</ele><time>2026-04-19T08:17:30Z</time></trkpt><trkpt lat="43.29585270455287" lon="13.436243950935731"><ele>299.2</ele><time>2026-04-19T08:17:31Z</time></trkpt><trkpt lat="43.295753242970925" lon="13.436221246437448"><ele>299.0</ele><time>2026-04-19T08:17:32Z</time></trkpt><trkpt lat="43.295652438581655" lon="13.43620081534867"><ele>298.2</ele><time>2026-04-19T08:17:33Z</time></trkpt><trkpt lat="43.29555184677415" lon="13.43618151285964"><ele>297.4</ele><time>2026-04-19T08:17:34Z</time></trkpt><trkpt lat="43.295451943431864" lon="13.43616151404174"><ele>296.6</ele><time>2026-04-19T08:17:35Z</time></trkpt><trkpt lat="43.29535402517953" lon="13.436144203876905"><ele>295.8</ele><time>2026-04-19T08:17:36Z</time></trkpt><trkpt lat="43.29525753228483" lon="13.43612984020361"><ele>295.0</ele><time>2026-04-19T08:17:37Z</time></trkpt><trkpt lat="43.29516430718396" lon="13.436117871000588"><ele>295.0</ele><time>2026-04-19T08:17:38Z</time></trkpt><trkpt lat="43.29507354150952" lon="13.436100250532755"><ele>295.0</ele><time>2026-04-19T08:17:39Z</time></trkpt><trkpt lat="43.29498269888293" lon="13.436078673231522"><ele>295.0</ele><time>2026-04-19T08:17:40Z</time></trkpt><trkpt lat="43.29489200561474" lon="13.4360635574305"><ele>295.0</ele><time>2026-04-19T08:17:41Z</time></trkpt><trkpt lat="43.29480113155774" lon="13.436053247344681"><ele>295.0</ele><time>2026-04-19T08:17:42Z</time></trkpt><trkpt lat="43.29471039706922" lon="13.436048213362216"><ele>294.4</ele><time>2026-04-19T08:17:43Z</time></trkpt><trkpt lat="43.294618450808755" lon="13.436033783978752"><ele>293.8</ele><time>2026-04-19T08:17:44Z</time></trkpt><trkpt lat="43.29452484097343" lon="13.43602628971991"><ele>293.2</ele><time>2026-04-19T08:17:45Z</time></trkpt><trkpt lat="43.29443113236448" lon="13.436020198590596"><ele>292.6</ele><time>2026-04-19T08:17:46Z</time></trkpt><trkpt lat="43.294343312164976" lon="13.436008646411253"><ele>292.0</ele><time>2026-04-19T08:17:47Z</time></trkpt><trkpt lat="43.29424767498202" lon="13.436002631531352"><ele>292.0</ele><time>2026-04-19T08:17:48Z</time></trkpt><trkpt lat="43.29415034778074" lon="13.435992434898868"><ele>292.0</ele><time>2026-04-19T08:17:49Z</time></trkpt><trkpt lat="43.29405408732465" lon="13.435987323669355"><ele>292.0</ele><time>2026-04-19T08:17:50Z</time></trkpt><trkpt lat="43.293958543253716" lon="13.435981049964585"><ele>292.0</ele><time>2026-04-19T08:17:51Z</time></trkpt><trkpt lat="43.29385901439154" lon="13.435973161725116"><ele>292.0</ele><time>2026-04-19T08:17:52Z</time></trkpt><trkpt lat="43.293763232905505" lon="13.435972479689026"><ele>291.2</ele><time>2026-04-19T08:17:53Z</time></trkpt><trkpt lat="43.293669527601544" lon="13.435968134153544"><ele>290.4</ele><time>2026-04-19T08:17:54Z</time></trkpt><trkpt lat="43.293572951511884" lon="13.43596921865924"><ele>289.6</ele><time>2026-04-19T08:17:55.001Z</time></trkpt><trkpt lat="43.29347632099266" lon="13.435970555032046"><ele>288.8</ele><time>2026-04-19T08:17:56.001Z</time></trkpt><trkpt lat="43.29337864296605" lon="13.435972391608773"><ele>288.0</ele><time>2026-04-19T08:17:57.001Z</time></trkpt><trkpt lat="43.29328089207324" lon="13.43597194733503"><ele>288.0</ele><time>2026-04-19T08:17:58.001Z</time></trkpt><trkpt lat="43.293186117860635" lon="13.43597274565799"><ele>288.0</ele><time>2026-04-19T08:17:59.001Z</time></trkpt><trkpt lat="43.29310569322266" lon="13.435972234985803"><ele>288.0</ele><time>2026-04-19T08:18:00.001Z</time></trkpt><trkpt lat="43.2930308159758" lon="13.435980805745551"><ele>288.0</ele><time>2026-04-19T08:18:01.001Z</time></trkpt><trkpt lat="43.29294704689056" lon="13.435964136159056"><ele>288.0</ele><time>2026-04-19T08:18:03.001Z</time></trkpt><trkpt lat="43.29284820574603" lon="13.435966834305713"><ele>288.0</ele><time>2026-04-19T08:18:06.001Z</time></trkpt><trkpt lat="43.292748219489404" lon="13.435953920071205"><ele>286.2</ele><time>2026-04-19T08:18:08.001Z</time></trkpt><trkpt lat="43.29262589860974" lon="13.435950892838934"><ele>284.4</ele><time>2026-04-19T08:18:10.001Z</time></trkpt><trkpt lat="43.29249201107942" lon="13.43593865861541"><ele>282.59999999999997</ele><time>2026-04-19T08:18:12.001Z</time></trkpt><trkpt lat="43.292403530794395" lon="13.435960884431418"><ele>280.8</ele><time>2026-04-19T08:18:13.001Z</time></trkpt><trkpt lat="43.29231040663483" lon="13.435983659567686"><ele>279.0</ele><time>2026-04-19T08:18:14.001Z</time></trkpt><trkpt lat="43.292222700419124" lon="13.436001850143981"><ele>277.0</ele><time>2026-04-19T08:18:15.001Z</time></trkpt><trkpt lat="43.29212667083061" lon="13.436015203998698"><ele>275.0</ele><time>2026-04-19T08:18:16.001Z</time></trkpt><trkpt lat="43.29202585447506" lon="13.43603847909886"><ele>273.0</ele><time>2026-04-19T08:18:17.001Z</time></trkpt><trkpt lat="43.291925704812385" lon="13.436062282972227"><ele>271.0</ele><time>2026-04-19T08:18:18.001Z</time></trkpt><trkpt lat="43.29182231474406" lon="13.436081569355098"><ele>269.0</ele><time>2026-04-19T08:18:19.001Z</time></trkpt><trkpt lat="43.29171546951397" lon="13.436106857427971"><ele>269.0</ele><time>2026-04-19T08:18:20.001Z</time></trkpt><trkpt lat="43.291606173859364" lon="13.436127252937995"><ele>269.0</ele><time>2026-04-19T08:18:21.001Z</time></trkpt><trkpt lat="43.29149287776917" lon="13.436142089467932"><ele>269.0</ele><time>2026-04-19T08:18:22.001Z</time></trkpt><trkpt lat="43.29139055821714" lon="13.436170298965383"><ele>269.0</ele><time>2026-04-19T08:18:23.001Z</time></trkpt><trkpt lat="43.291300583591436" lon="13.436191062034387"><ele>269.0</ele><time>2026-04-19T08:18:24.001Z</time></trkpt><trkpt lat="43.29121218945217" lon="13.436209515501522"><ele>268.0</ele><time>2026-04-19T08:18:25.001Z</time></trkpt><trkpt lat="43.29113037393335" lon="13.436218161780484"><ele>267.0</ele><time>2026-04-19T08:18:26.001Z</time></trkpt><trkpt lat="43.29105475489134" lon="13.436231445669913"><ele>266.0</ele><time>2026-04-19T08:18:27.001Z</time></trkpt><trkpt lat="43.29098771544266" lon="13.436260591893998"><ele>265.0</ele><time>2026-04-19T08:18:28.001Z</time></trkpt><trkpt lat="43.29088592576555" lon="13.436279898604635"><ele>264.0</ele><time>2026-04-19T08:18:30.001Z</time></trkpt><trkpt lat="43.29078889402301" lon="13.436310749897538"><ele>263.0</ele><time>2026-04-19T08:18:32.001Z</time></trkpt><trkpt lat="43.290683174047984" lon="13.436297989757225"><ele>263.0</ele><time>2026-04-19T08:18:34.001Z</time></trkpt><trkpt lat="43.2906154945159" lon="13.436262265972601"><ele>263.0</ele><time>2026-04-19T08:18:35.001Z</time></trkpt><trkpt lat="43.29050785737543" lon="13.436191691538854"><ele>263.0</ele><time>2026-04-19T08:18:37.001Z</time></trkpt><trkpt lat="43.290438160426014" lon="13.436156132942925"><ele>263.0</ele><time>2026-04-19T08:18:38.001Z</time></trkpt><trkpt lat="43.29036535227591" lon="13.436119328915758"><ele>263.0</ele><time>2026-04-19T08:18:39.001Z</time></trkpt><trkpt lat="43.2902902070771" lon="13.436077150378148"><ele>263.0</ele><time>2026-04-19T08:18:40.001Z</time></trkpt><trkpt lat="43.290212205360156" lon="13.436039824843622"><ele>262.33333333333337</ele><time>2026-04-19T08:18:41.001Z</time></trkpt><trkpt lat="43.290135127253436" lon="13.435999411538335"><ele>261.6666666666667</ele><time>2026-04-19T08:18:42.001Z</time></trkpt><trkpt lat="43.29006315007428" lon="13.435958473599117"><ele>261.0</ele><time>2026-04-19T08:18:43.001Z</time></trkpt><trkpt lat="43.28999707107814" lon="13.435919119761932"><ele>260.3333333333333</ele><time>2026-04-19T08:18:44.001Z</time></trkpt><trkpt lat="43.289933152063256" lon="13.435885384797501"><ele>259.66666666666663</ele><time>2026-04-19T08:18:45.001Z</time></trkpt><trkpt lat="43.289816655319726" lon="13.435825072684654"><ele>259.0</ele><time>2026-04-19T08:18:47.001Z</time></trkpt><trkpt lat="43.28970966747011" lon="13.435777463253245"><ele>257.7142857142857</ele><time>2026-04-19T08:18:49.001Z</time></trkpt><trkpt lat="43.28964494878558" lon="13.435740295843486"><ele>256.42857142857144</ele><time>2026-04-19T08:18:51.001Z</time></trkpt><trkpt lat="43.289562389524164" lon="13.435692948344482"><ele>255.14285714285714</ele><time>2026-04-19T08:18:54.001Z</time></trkpt><trkpt lat="43.28958683838197" lon="13.4357858848367"><ele>253.85714285714286</ele><time>2026-04-19T08:21:21Z</time></trkpt><trkpt lat="43.28964100472142" lon="13.435830008849573"><ele>252.57142857142858</ele><time>2026-04-19T08:21:28Z</time></trkpt><trkpt lat="43.289715192951995" lon="13.43584929401926"><ele>251.28571428571428</ele><time>2026-04-19T08:21:42Z</time></trkpt><trkpt lat="43.28973660173835" lon="13.435931898421886"><ele>250.0</ele><time>2026-04-19T08:22:12.001Z</time></trkpt><trkpt lat="43.28973735955235" lon="13.435812256441118"><ele>249.99999999999997</ele><time>2026-04-19T08:22:31.001Z</time></trkpt><trkpt lat="43.28966974319539" lon="13.435841578110267"><ele>250.0</ele><time>2026-04-19T08:35:54.004Z</time></trkpt><trkpt lat="43.28960549205785" lon="13.435801059717885"><ele>250.0</ele><time>2026-04-19T08:35:59.003Z</time></trkpt><trkpt lat="43.28953819693973" lon="13.435761773171667"><ele>250.0</ele><time>2026-04-19T08:36:04.002Z</time></trkpt><trkpt lat="43.28952699726334" lon="13.435665288378644"><ele>249.99999999999997</ele><time>2026-04-19T08:37:05.999Z</time></trkpt><trkpt lat="43.289478771231856" lon="13.435605837864003"><ele>250.0</ele><time>2026-04-19T08:37:08.999Z</time></trkpt><trkpt lat="43.28937168727932" lon="13.43558834082847"><ele>249.99999999999997</ele><time>2026-04-19T08:37:28.999Z</time></trkpt><trkpt lat="43.28925344243619" lon="13.435534939598606"><ele>250.0</ele><time>2026-04-19T08:37:30.999Z</time></trkpt><trkpt lat="43.28913319846199" lon="13.435475071843472"><ele>250.0</ele><time>2026-04-19T08:37:32.999Z</time></trkpt><trkpt lat="43.289072248513335" lon="13.435449582188228"><ele>250.0</ele><time>2026-04-19T08:37:33.999Z</time></trkpt><trkpt lat="43.289013267494" lon="13.435417355778728"><ele>249.99999999999997</ele><time>2026-04-19T08:37:34.999Z</time></trkpt><trkpt lat="43.288951428970876" lon="13.435380346152872"><ele>250.0</ele><time>2026-04-19T08:37:35.999Z</time></trkpt><trkpt lat="43.28889296887452" lon="13.435339232954352"><ele>249.85714285714283</ele><time>2026-04-19T08:37:36.999Z</time></trkpt><trkpt lat="43.2888330135475" lon="13.435301207569243"><ele>249.71428571428572</ele><time>2026-04-19T08:37:37.999Z</time></trkpt><trkpt lat="43.288770308804445" lon="13.435264798349813"><ele>249.57142857142856</ele><time>2026-04-19T08:37:38.999Z</time></trkpt><trkpt lat="43.28870671113369" lon="13.435228792770396"><ele>249.42857142857142</ele><time>2026-04-19T08:37:39.999Z</time></trkpt><trkpt lat="43.28863459002096" lon="13.435203402941157"><ele>249.28571428571428</ele><time>2026-04-19T08:37:40.999Z</time></trkpt><trkpt lat="43.28858144856587" lon="13.435143943789933"><ele>249.14285714285714</ele><time>2026-04-19T08:37:41.999Z</time></trkpt><trkpt lat="43.288534481645215" lon="13.435073787760658"><ele>249.0</ele><time>2026-04-19T08:37:42.999Z</time></trkpt><trkpt lat="43.28845921396556" lon="13.434914172870917"><ele>249.0</ele><time>2026-04-19T08:37:44.999Z</time></trkpt><trkpt lat="43.28840803719577" lon="13.43483946175273"><ele>248.99999999999997</ele><time>2026-04-19T08:37:45.999Z</time></trkpt><trkpt lat="43.28834657497142" lon="13.434779916042062"><ele>249.0</ele><time>2026-04-19T08:37:46.999Z</time></trkpt><trkpt lat="43.28827652300085" lon="13.434751877174024"><ele>249.0</ele><time>2026-04-19T08:37:47.999Z</time></trkpt><trkpt lat="43.288205908722894" lon="13.434756786934699"><ele>248.99999999999997</ele><time>2026-04-19T08:37:48.999Z</time></trkpt><trkpt lat="43.2881300018334" lon="13.43477655305737"><ele>249.0</ele><time>2026-04-19T08:37:49.999Z</time></trkpt><trkpt lat="43.28807725632453" lon="13.434854320398333"><ele>249.0</ele><time>2026-04-19T08:37:50.999Z</time></trkpt><trkpt lat="43.28796372544988" lon="13.434795881489189"><ele>249.39999999999998</ele><time>2026-04-19T08:37:51.999Z</time></trkpt><trkpt lat="43.28786818823553" lon="13.434770620204134"><ele>249.79999999999998</ele><time>2026-04-19T08:37:52.999Z</time></trkpt><trkpt lat="43.28776919141018" lon="13.434729850088988"><ele>250.20000000000002</ele><time>2026-04-19T08:37:53.999Z</time></trkpt><trkpt lat="43.28767103549909" lon="13.434679443407026"><ele>250.60000000000002</ele><time>2026-04-19T08:37:54.999Z</time></trkpt><trkpt lat="43.28757350783731" lon="13.434622888845624"><ele>251.0</ele><time>2026-04-19T08:37:55.998Z</time></trkpt><trkpt lat="43.287467439763624" lon="13.434571470158009"><ele>251.0</ele><time>2026-04-19T08:37:57Z</time></trkpt><trkpt lat="43.287366975072075" lon="13.434520116652779"><ele>251.00000000000003</ele><time>2026-04-19T08:37:58Z</time></trkpt><trkpt lat="43.287270615657604" lon="13.434455534318072"><ele>251.00000000000003</ele><time>2026-04-19T08:37:59Z</time></trkpt><trkpt lat="43.28718286994299" lon="13.434386075151707"><ele>251.0</ele><time>2026-04-19T08:38:00Z</time></trkpt><trkpt lat="43.28709647445445" lon="13.434307597265034"><ele>251.0</ele><time>2026-04-19T08:38:01Z</time></trkpt><trkpt lat="43.287010913567606" lon="13.434230489380647"><ele>249.25</ele><time>2026-04-19T08:38:02Z</time></trkpt><trkpt lat="43.286935688377895" lon="13.434151810928999"><ele>247.5</ele><time>2026-04-19T08:38:03Z</time></trkpt><trkpt lat="43.28678517793102" lon="13.43399388235474"><ele>245.75</ele><time>2026-04-19T08:38:04Z</time></trkpt><trkpt lat="43.28669480192899" lon="13.433867239890445"><ele>244.0</ele><time>2026-04-19T08:38:05Z</time></trkpt><trkpt lat="43.28661439281348" lon="13.433726519952362"><ele>244.0</ele><time>2026-04-19T08:38:06Z</time></trkpt><trkpt lat="43.28654589344262" lon="13.43358409069368"><ele>244.0</ele><time>2026-04-19T08:38:07Z</time></trkpt><trkpt lat="43.28648444255262" lon="13.43343777560737"><ele>244.0</ele><time>2026-04-19T08:38:08Z</time></trkpt><trkpt lat="43.28643211505723" lon="13.433292668722569"><ele>244.0</ele><time>2026-04-19T08:38:09Z</time></trkpt><trkpt lat="43.28638379166281" lon="13.433142265376683"><ele>241.75</ele><time>2026-04-19T08:38:10Z</time></trkpt><trkpt lat="43.28632548757986" lon="13.433012482942353"><ele>239.5</ele><time>2026-04-19T08:38:11Z</time></trkpt><trkpt lat="43.286255884120756" lon="13.432884450951969"><ele>237.25</ele><time>2026-04-19T08:38:12Z</time></trkpt><trkpt lat="43.286171824578034" lon="13.432773010994316"><ele>235.0</ele><time>2026-04-19T08:38:13Z</time></trkpt><trkpt lat="43.28607517670675" lon="13.432674169598563"><ele>234.5</ele><time>2026-04-19T08:38:14Z</time></trkpt><trkpt lat="43.28597384255969" lon="13.432590586446397"><ele>234.0</ele><time>2026-04-19T08:38:15Z</time></trkpt><trkpt lat="43.28586385027651" lon="13.4325186205689"><ele>233.5</ele><time>2026-04-19T08:38:16Z</time></trkpt><trkpt lat="43.28575065805388" lon="13.432459548943184"><ele>233.0</ele><time>2026-04-19T08:38:17Z</time></trkpt><trkpt lat="43.285637450340026" lon="13.432412712490143"><ele>232.0</ele><time>2026-04-19T08:38:18Z</time></trkpt><trkpt lat="43.285522470680206" lon="13.432378949942853"><ele>231.0</ele><time>2026-04-19T08:38:19Z</time></trkpt><trkpt lat="43.28540605875657" lon="13.43235478526704"><ele>230.0</ele><time>2026-04-19T08:38:20Z</time></trkpt><trkpt lat="43.285278473700444" lon="13.432352783201885"><ele>229.0</ele><time>2026-04-19T08:38:21Z</time></trkpt><trkpt lat="43.28516318467527" lon="13.432358858161711"><ele>229.0</ele><time>2026-04-19T08:38:22Z</time></trkpt><trkpt lat="43.28504586773649" lon="13.432371948476494"><ele>229.0</ele><time>2026-04-19T08:38:23Z</time></trkpt><trkpt lat="43.2849260227183" lon="13.432396791563255"><ele>229.0</ele><time>2026-04-19T08:38:24Z</time></trkpt><trkpt lat="43.284809484844345" lon="13.432426992755406"><ele>229.0</ele><time>2026-04-19T08:38:25Z</time></trkpt><trkpt lat="43.28469785698344" lon="13.43248395453288"><ele>228.6</ele><time>2026-04-19T08:38:26Z</time></trkpt><trkpt lat="43.28458616299302" lon="13.432518944461181"><ele>228.2</ele><time>2026-04-19T08:38:27Z</time></trkpt><trkpt lat="43.28447974744469" lon="13.432544069692227"><ele>227.79999999999998</ele><time>2026-04-19T08:38:28Z</time></trkpt><trkpt lat="43.284380881220635" lon="13.432566530923843"><ele>227.39999999999998</ele><time>2026-04-19T08:38:29Z</time></trkpt><trkpt lat="43.28429742816686" lon="13.43257720165624"><ele>227.0</ele><time>2026-04-19T08:38:30Z</time></trkpt><trkpt lat="43.284220644392065" lon="13.432555035389795"><ele>227.00000000000003</ele><time>2026-04-19T08:38:31Z</time></trkpt><trkpt lat="43.28412894888726" lon="13.432526814918587"><ele>227.0</ele><time>2026-04-19T08:38:32Z</time></trkpt><trkpt lat="43.28404058594359" lon="13.432501370794801"><ele>227.0</ele><time>2026-04-19T08:38:33Z</time></trkpt><trkpt lat="43.28397132144011" lon="13.43247416429703"><ele>227.0</ele><time>2026-04-19T08:38:34Z</time></trkpt><trkpt lat="43.283895240726046" lon="13.43247336855259"><ele>227.00000000000003</ele><time>2026-04-19T08:38:35Z</time></trkpt><trkpt lat="43.28382064994133" lon="13.432507398958299"><ele>227.0</ele><time>2026-04-19T08:38:36Z</time></trkpt><trkpt lat="43.28375414947863" lon="13.432556020122153"><ele>227.0</ele><time>2026-04-19T08:38:37Z</time></trkpt><trkpt lat="43.283698143718865" lon="13.432641154886966"><ele>227.0</ele><time>2026-04-19T08:38:38Z</time></trkpt><trkpt lat="43.28366993820776" lon="13.432769659920053"><ele>227.0</ele><time>2026-04-19T08:38:39Z</time></trkpt><trkpt lat="43.2836450988799" lon="13.432921673675272"><ele>227.0</ele><time>2026-04-19T08:38:40Z</time></trkpt><trkpt lat="43.28348882201683" lon="13.432797763090024"><ele>227.0</ele><time>2026-04-19T08:38:41Z</time></trkpt><trkpt lat="43.28338478722461" lon="13.432830145155592"><ele>227.0</ele><time>2026-04-19T08:38:42Z</time></trkpt><trkpt lat="43.28326766745922" lon="13.432866600171407"><ele>227.0</ele><time>2026-04-19T08:38:43Z</time></trkpt><trkpt lat="43.283144829039955" lon="13.432905598969045"><ele>227.0</ele><time>2026-04-19T08:38:44Z</time></trkpt><trkpt lat="43.283014588661935" lon="13.432946972500531"><ele>224.0</ele><time>2026-04-19T08:38:45Z</time></trkpt><trkpt lat="43.28289286974907" lon="13.43298551743128"><ele>221.0</ele><time>2026-04-19T08:38:45.999Z</time></trkpt><trkpt lat="43.28277060396248" lon="13.433025101088116"><ele>218.0</ele><time>2026-04-19T08:38:46.999Z</time></trkpt><trkpt lat="43.282668431611285" lon="13.433058886601994"><ele>215.0</ele><time>2026-04-19T08:38:47.999Z</time></trkpt><trkpt lat="43.28255208121496" lon="13.433093177526453"><ele>215.0</ele><time>2026-04-19T08:38:48.999Z</time></trkpt><trkpt lat="43.28241921778183" lon="13.433098835374304"><ele>215.0</ele><time>2026-04-19T08:38:50.072Z</time></trkpt><trkpt lat="43.2823058720253" lon="13.433066720735871"><ele>215.0</ele><time>2026-04-19T08:38:50.999Z</time></trkpt><trkpt lat="43.282086018387375" lon="13.432922045152349"><ele>215.66666666666669</ele><time>2026-04-19T08:38:51.999Z</time></trkpt><trkpt lat="43.28200031357145" lon="13.43284431101606"><ele>216.33333333333331</ele><time>2026-04-19T08:38:52.999Z</time></trkpt><trkpt lat="43.28179012920934" lon="13.432601442689954"><ele>217.0</ele><time>2026-04-19T08:38:53.999Z</time></trkpt><trkpt lat="43.28167322767702" lon="13.432503851686608"><ele>217.0</ele><time>2026-04-19T08:38:54.999Z</time></trkpt><trkpt lat="43.2815678285721" lon="13.432386746892238"><ele>217.0</ele><time>2026-04-19T08:38:55.999Z</time></trkpt><trkpt lat="43.281453631321305" lon="13.432299685611135"><ele>217.0</ele><time>2026-04-19T08:38:56.999Z</time></trkpt><trkpt lat="43.28136111920499" lon="13.43221063434405"><ele>217.0</ele><time>2026-04-19T08:38:57.999Z</time></trkpt><trkpt lat="43.28125906954528" lon="13.43213869967966"><ele>217.2</ele><time>2026-04-19T08:38:58.999Z</time></trkpt><trkpt lat="43.28116548695388" lon="13.43209280210464"><ele>217.39999999999998</ele><time>2026-04-19T08:38:59.999Z</time></trkpt><trkpt lat="43.28106562874745" lon="13.432066589420785"><ele>217.60000000000002</ele><time>2026-04-19T08:39:00.999Z</time></trkpt><trkpt lat="43.28096339753816" lon="13.432067953318827"><ele>217.8</ele><time>2026-04-19T08:39:01.999Z</time></trkpt><trkpt lat="43.2808569070558" lon="13.432060897949171"><ele>218.0</ele><time>2026-04-19T08:39:02.999Z</time></trkpt><trkpt lat="43.28074395434269" lon="13.432076790255502"><ele>218.0</ele><time>2026-04-19T08:39:03.999Z</time></trkpt><trkpt lat="43.280628409485125" lon="13.43211488889191"><ele>218.0</ele><time>2026-04-19T08:39:04.999Z</time></trkpt><trkpt lat="43.28050301093234" lon="13.43214515288771"><ele>218.0</ele><time>2026-04-19T08:39:05.999Z</time></trkpt><trkpt lat="43.28037392888835" lon="13.432180902385303"><ele>218.0</ele><time>2026-04-19T08:39:06.999Z</time></trkpt><trkpt lat="43.28024519879616" lon="13.432221393595606"><ele>213.75</ele><time>2026-04-19T08:39:07.999Z</time></trkpt><trkpt lat="43.28012016733514" lon="13.432265301455846"><ele>209.5</ele><time>2026-04-19T08:39:08.999Z</time></trkpt><trkpt lat="43.2799953909727" lon="13.432299297727683"><ele>205.25</ele><time>2026-04-19T08:39:09.999Z</time></trkpt><trkpt lat="43.279868249528974" lon="13.432319026653651"><ele>201.0</ele><time>2026-04-19T08:39:10.999Z</time></trkpt><trkpt lat="43.27974129418182" lon="13.432332591299973"><ele>200.25</ele><time>2026-04-19T08:39:11.999Z</time></trkpt><trkpt lat="43.27961060497427" lon="13.432334035749188"><ele>199.5</ele><time>2026-04-19T08:39:12.999Z</time></trkpt><trkpt lat="43.27947927581601" lon="13.432346991192093"><ele>198.75</ele><time>2026-04-19T08:39:13.999Z</time></trkpt><trkpt lat="43.27934540156073" lon="13.432326254388949"><ele>198.0</ele><time>2026-04-19T08:39:14.999Z</time></trkpt><trkpt lat="43.27922215035699" lon="13.432288546469083"><ele>198.0</ele><time>2026-04-19T08:39:15.999Z</time></trkpt><trkpt lat="43.27911294145439" lon="13.432228022069914"><ele>198.0</ele><time>2026-04-19T08:39:16.999Z</time></trkpt><trkpt lat="43.27900399063536" lon="13.43214156691828"><ele>198.0</ele><time>2026-04-19T08:39:17.999Z</time></trkpt><trkpt lat="43.27890328381635" lon="13.432036095740818"><ele>198.0</ele><time>2026-04-19T08:39:18.999Z</time></trkpt><trkpt lat="43.27881517799283" lon="13.431906022326995"><ele>197.25</ele><time>2026-04-19T08:39:19.999Z</time></trkpt><trkpt lat="43.27873942969167" lon="13.431757734124965"><ele>196.5</ele><time>2026-04-19T08:39:20.999Z</time></trkpt><trkpt lat="43.27866489988039" lon="13.431606971979445"><ele>195.75</ele><time>2026-04-19T08:39:21.999Z</time></trkpt><trkpt lat="43.2785857415397" lon="13.431459990523583"><ele>195.0</ele><time>2026-04-19T08:39:22.999Z</time></trkpt><trkpt lat="43.278497748792574" lon="13.431319727561029"><ele>196.25</ele><time>2026-04-19T08:39:23.999Z</time></trkpt><trkpt lat="43.278399995703516" lon="13.431185830290175"><ele>197.5</ele><time>2026-04-19T08:39:24.999Z</time></trkpt><trkpt lat="43.278290902681206" lon="13.431075457347662"><ele>198.75</ele><time>2026-04-19T08:39:25.999Z</time></trkpt><trkpt lat="43.278177106471205" lon="13.43097484858438"><ele>200.0</ele><time>2026-04-19T08:39:26.999Z</time></trkpt><trkpt lat="43.27805117026048" lon="13.43090234569746"><ele>200.0</ele><time>2026-04-19T08:39:27.999Z</time></trkpt><trkpt lat="43.27791929014136" lon="13.430858935523073"><ele>200.0</ele><time>2026-04-19T08:39:28.999Z</time></trkpt><trkpt lat="43.27778945006692" lon="13.430848411576608"><ele>200.0</ele><time>2026-04-19T08:39:29.999Z</time></trkpt><trkpt lat="43.277659035195214" lon="13.430871309469627"><ele>200.0</ele><time>2026-04-19T08:39:30.999Z</time></trkpt><trkpt lat="43.27752748936845" lon="13.430917081941109"><ele>200.0</ele><time>2026-04-19T08:39:31.999Z</time></trkpt><trkpt lat="43.277393729847056" lon="13.430970871265933"><ele>200.0</ele><time>2026-04-19T08:39:32.999Z</time></trkpt><trkpt lat="43.27725055098027" lon="13.431031969482133"><ele>200.0</ele><time>2026-04-19T08:39:33.999Z</time></trkpt><trkpt lat="43.27711163208476" lon="13.43108699350112"><ele>200.0</ele><time>2026-04-19T08:39:34.999Z</time></trkpt><trkpt lat="43.276966900787954" lon="13.43114599309662"><ele>200.0</ele><time>2026-04-19T08:39:35.999Z</time></trkpt><trkpt lat="43.27682168728021" lon="13.431201018871466"><ele>200.0</ele><time>2026-04-19T08:39:36.999Z</time></trkpt><trkpt lat="43.276674503499855" lon="13.431259418787644"><ele>200.0</ele><time>2026-04-19T08:39:37.999Z</time></trkpt><trkpt lat="43.27653257882243" lon="13.431315706139257"><ele>197.5</ele><time>2026-04-19T08:39:38.999Z</time></trkpt><trkpt lat="43.276383449060795" lon="13.431366795787433"><ele>195.0</ele><time>2026-04-19T08:39:39.999Z</time></trkpt><trkpt lat="43.27623470672077" lon="13.431412820885233"><ele>192.5</ele><time>2026-04-19T08:39:40.999Z</time></trkpt><trkpt lat="43.27610119355885" lon="13.43144156829123"><ele>190.0</ele><time>2026-04-19T08:39:41.999Z</time></trkpt><trkpt lat="43.27595422837668" lon="13.431471393483486"><ele>190.0</ele><time>2026-04-19T08:39:42.999Z</time></trkpt><trkpt lat="43.2758128408141" lon="13.431491889280261"><ele>190.0</ele><time>2026-04-19T08:39:43.999Z</time></trkpt><trkpt lat="43.275675511489936" lon="13.431497016691509"><ele>190.0</ele><time>2026-04-19T08:39:44.999Z</time></trkpt><trkpt lat="43.275545210632316" lon="13.431483038636882"><ele>190.0</ele><time>2026-04-19T08:39:45.999Z</time></trkpt><trkpt lat="43.27541594233998" lon="13.431443697528495"><ele>190.0</ele><time>2026-04-19T08:39:46.999Z</time></trkpt><trkpt lat="43.275294438944684" lon="13.431378785654944"><ele>190.0</ele><time>2026-04-19T08:39:47.999Z</time></trkpt><trkpt lat="43.27518274774767" lon="13.43129085867392"><ele>190.0</ele><time>2026-04-19T08:39:48.999Z</time></trkpt><trkpt lat="43.275084378226225" lon="13.431165622435245"><ele>190.0</ele><time>2026-04-19T08:39:49.999Z</time></trkpt><trkpt lat="43.275001286977144" lon="13.431015614493814"><ele>190.0</ele><time>2026-04-19T08:39:50.999Z</time></trkpt><trkpt lat="43.274916939894425" lon="13.430854136676993"><ele>190.0</ele><time>2026-04-19T08:39:51.999Z</time></trkpt><trkpt lat="43.27482953735964" lon="13.430690317268647"><ele>190.0</ele><time>2026-04-19T08:39:52.999Z</time></trkpt><trkpt lat="43.27473600265552" lon="13.43051879662749"><ele>190.0</ele><time>2026-04-19T08:39:53.999Z</time></trkpt><trkpt lat="43.274639376317175" lon="13.430340621949782"><ele>187.0</ele><time>2026-04-19T08:39:54.999Z</time></trkpt><trkpt lat="43.27454137225835" lon="13.430164535647874"><ele>184.0</ele><time>2026-04-19T08:39:55.998Z</time></trkpt><trkpt lat="43.274438191210415" lon="13.429986666490771"><ele>181.0</ele><time>2026-04-19T08:39:56.998Z</time></trkpt><trkpt lat="43.274333943143084" lon="13.429810053211794"><ele>182.33333333333334</ele><time>2026-04-19T08:39:57.998Z</time></trkpt><trkpt lat="43.27422774944288" lon="13.429631842285229"><ele>183.66666666666666</ele><time>2026-04-19T08:39:58.998Z</time></trkpt><trkpt lat="43.2741198359648" lon="13.429452095398373"><ele>185.0</ele><time>2026-04-19T08:39:59.998Z</time></trkpt><trkpt lat="43.274012508014785" lon="13.429266344221109"><ele>183.0</ele><time>2026-04-19T08:40:00.998Z</time></trkpt><trkpt lat="43.27390654423611" lon="13.429080191662965"><ele>181.0</ele><time>2026-04-19T08:40:01.998Z</time></trkpt><trkpt lat="43.27379276100251" lon="13.428895400938103"><ele>179.0</ele><time>2026-04-19T08:40:03Z</time></trkpt><trkpt lat="43.27368187144071" lon="13.428716382182772"><ele>179.0</ele><time>2026-04-19T08:40:04Z</time></trkpt><trkpt lat="43.273569321954504" lon="13.428533413124626"><ele>179.0</ele><time>2026-04-19T08:40:05Z</time></trkpt><trkpt lat="43.273455587581665" lon="13.42834765162442"><ele>179.0</ele><time>2026-04-19T08:40:06Z</time></trkpt><trkpt lat="43.273341602841256" lon="13.428163275913073"><ele>179.0</ele><time>2026-04-19T08:40:07Z</time></trkpt><trkpt lat="43.27322923949548" lon="13.427979232910923"><ele>179.0</ele><time>2026-04-19T08:40:08Z</time></trkpt><trkpt lat="43.27311755962989" lon="13.42779762093015"><ele>179.0</ele><time>2026-04-19T08:40:09Z</time></trkpt><trkpt lat="43.2730023179112" lon="13.427624050740597"><ele>177.66666666666666</ele><time>2026-04-19T08:40:10Z</time></trkpt><trkpt lat="43.272883928146946" lon="13.4274558258471"><ele>176.33333333333334</ele><time>2026-04-19T08:40:11Z</time></trkpt><trkpt lat="43.27276126349821" lon="13.427295613761661"><ele>175.0</ele><time>2026-04-19T08:40:12Z</time></trkpt><trkpt lat="43.27263179392798" lon="13.427141619135638"><ele>175.0</ele><time>2026-04-19T08:40:13Z</time></trkpt><trkpt lat="43.27249494591857" lon="13.427008724136755"><ele>175.0</ele><time>2026-04-19T08:40:14Z</time></trkpt><trkpt lat="43.27234703506028" lon="13.426889854537622"><ele>175.0</ele><time>2026-04-19T08:40:15Z</time></trkpt><trkpt lat="43.27219643167982" lon="13.426779227414169"><ele>174.33333333333334</ele><time>2026-04-19T08:40:16Z</time></trkpt><trkpt lat="43.272046197985915" lon="13.426673530755899"><ele>173.66666666666666</ele><time>2026-04-19T08:40:17Z</time></trkpt><trkpt lat="43.27189270617648" lon="13.426565542939235"><ele>173.0</ele><time>2026-04-19T08:40:18Z</time></trkpt><trkpt lat="43.27174641512872" lon="13.426462057067189"><ele>173.0</ele><time>2026-04-19T08:40:19Z</time></trkpt><trkpt lat="43.27160628802519" lon="13.426355533126632"><ele>173.0</ele><time>2026-04-19T08:40:20Z</time></trkpt><trkpt lat="43.27147635679694" lon="13.42626167144272"><ele>173.0</ele><time>2026-04-19T08:40:21Z</time></trkpt><trkpt lat="43.27135038350852" lon="13.426170611954227"><ele>173.0</ele><time>2026-04-19T08:40:22Z</time></trkpt><trkpt lat="43.271236857540984" lon="13.426088269447789"><ele>172.4</ele><time>2026-04-19T08:40:23Z</time></trkpt><trkpt lat="43.27113824212713" lon="13.426011074315424"><ele>171.8</ele><time>2026-04-19T08:40:24Z</time></trkpt><trkpt lat="43.27105779132999" lon="13.425949076054332"><ele>171.2</ele><time>2026-04-19T08:40:25Z</time></trkpt><trkpt lat="43.270995889103325" lon="13.4258989252801"><ele>170.6</ele><time>2026-04-19T08:40:26Z</time></trkpt><trkpt lat="43.270952974736325" lon="13.42578588957029"><ele>170.0</ele><time>2026-04-19T08:40:28Z</time></trkpt><trkpt lat="43.27103324624219" lon="13.425714898001816"><ele>170.0</ele><time>2026-04-19T08:40:30Z</time></trkpt><trkpt lat="43.27106186957946" lon="13.425622273187575"><ele>170.0</ele><time>2026-04-19T08:40:33Z</time></trkpt><trkpt lat="43.27087050437289" lon="13.425582613922362"><ele>170.0</ele><time>2026-04-19T08:40:34Z</time></trkpt><trkpt lat="43.27082591715395" lon="13.425454111019752"><ele>170.0</ele><time>2026-04-19T08:45:21.999Z</time></trkpt><trkpt lat="43.27073820298682" lon="13.425490985387002"><ele>170.0</ele><time>2026-04-19T08:45:57.999Z</time></trkpt><trkpt lat="43.27066421768194" lon="13.425538220848765"><ele>170.0</ele><time>2026-04-19T08:45:59.999Z</time></trkpt><trkpt lat="43.270679954286045" lon="13.425453248130653"><ele>170.0</ele><time>2026-04-19T08:46:00.999Z</time></trkpt><trkpt lat="43.27059621948253" lon="13.42537158456596"><ele>170.0</ele><time>2026-04-19T08:46:03.999Z</time></trkpt><trkpt lat="43.270449233348884" lon="13.425525700769237"><ele>170.0</ele><time>2026-04-19T08:46:04.999Z</time></trkpt><trkpt lat="43.270389136654984" lon="13.42548750651344"><ele>169.66666666666666</ele><time>2026-04-19T08:46:05.999Z</time></trkpt><trkpt lat="43.27032410815877" lon="13.425437807080316"><ele>169.33333333333331</ele><time>2026-04-19T08:46:06.999Z</time></trkpt><trkpt lat="43.270253895002405" lon="13.42537870510828"><ele>169.0</ele><time>2026-04-19T08:46:07.999Z</time></trkpt><trkpt lat="43.270178742286696" lon="13.425321326653506"><ele>168.66666666666666</ele><time>2026-04-19T08:46:08.999Z</time></trkpt><trkpt lat="43.27009640234891" lon="13.425264551216177"><ele>168.33333333333334</ele><time>2026-04-19T08:46:09.999Z</time></trkpt><trkpt lat="43.27001088223698" lon="13.42521033341014"><ele>168.0</ele><time>2026-04-19T08:46:10.999Z</time></trkpt><trkpt lat="43.26991999648384" lon="13.42514532582658"><ele>168.0</ele><time>2026-04-19T08:46:11.999Z</time></trkpt><trkpt lat="43.26982979011409" lon="13.425068621240472"><ele>168.0</ele><time>2026-04-19T08:46:12.999Z</time></trkpt><trkpt lat="43.269730554852835" lon="13.424987182759276"><ele>168.0</ele><time>2026-04-19T08:46:13.999Z</time></trkpt><trkpt lat="43.26962619868771" lon="13.42490947123058"><ele>168.0</ele><time>2026-04-19T08:46:14.999Z</time></trkpt><trkpt lat="43.26951506589241" lon="13.424832087471415"><ele>168.0</ele><time>2026-04-19T08:46:15.999Z</time></trkpt><trkpt lat="43.269399540744885" lon="13.424752978433935"><ele>168.0</ele><time>2026-04-19T08:46:16.999Z</time></trkpt><trkpt lat="43.2692831339433" lon="13.424668391372736"><ele>168.0</ele><time>2026-04-19T08:46:17.999Z</time></trkpt><trkpt lat="43.2691650547723" lon="13.424578478056242"><ele>168.0</ele><time>2026-04-19T08:46:19Z</time></trkpt><trkpt lat="43.26904106860325" lon="13.42450469257934"><ele>168.0</ele><time>2026-04-19T08:46:20Z</time></trkpt><trkpt lat="43.26892220545967" lon="13.424396950481384"><ele>168.0</ele><time>2026-04-19T08:46:21Z</time></trkpt><trkpt lat="43.26880016737082" lon="13.424307734670515"><ele>168.0</ele><time>2026-04-19T08:46:22Z</time></trkpt><trkpt lat="43.26865856509011" lon="13.424204216430347"><ele>168.0</ele><time>2026-04-19T08:46:23Z</time></trkpt><trkpt lat="43.26851033649266" lon="13.424095854074032"><ele>168.0</ele><time>2026-04-19T08:46:24Z</time></trkpt><trkpt lat="43.26834819904976" lon="13.423996325957129"><ele>168.0</ele><time>2026-04-19T08:46:25Z</time></trkpt><trkpt lat="43.268175847701116" lon="13.423903264304377"><ele>168.0</ele><time>2026-04-19T08:46:26Z</time></trkpt><trkpt lat="43.26800548681489" lon="13.423733089003688"><ele>168.66666666666666</ele><time>2026-04-19T08:46:28Z</time></trkpt><trkpt lat="43.26786727561496" lon="13.42363553610408"><ele>169.33333333333331</ele><time>2026-04-19T08:46:29Z</time></trkpt><trkpt lat="43.267732366042345" lon="13.423535775427826"><ele>170.0</ele><time>2026-04-19T08:46:30Z</time></trkpt><trkpt lat="43.267599869133896" lon="13.42343896376518"><ele>170.0</ele><time>2026-04-19T08:46:31Z</time></trkpt><trkpt lat="43.26746776690531" lon="13.423337837643068"><ele>170.0</ele><time>2026-04-19T08:46:32Z</time></trkpt><trkpt lat="43.26732976107336" lon="13.423234574302926"><ele>170.0</ele><time>2026-04-19T08:46:33Z</time></trkpt><trkpt lat="43.26719401155138" lon="13.423132393896223"><ele>169.33333333333331</ele><time>2026-04-19T08:46:34Z</time></trkpt><trkpt lat="43.2670546149522" lon="13.423032029083512"><ele>168.66666666666666</ele><time>2026-04-19T08:46:35Z</time></trkpt><trkpt lat="43.26691307799977" lon="13.422929805020106"><ele>168.0</ele><time>2026-04-19T08:46:36Z</time></trkpt><trkpt lat="43.266770968146325" lon="13.422823623749975"><ele>168.0</ele><time>2026-04-19T08:46:37Z</time></trkpt><trkpt lat="43.26662596862614" lon="13.422715076110432"><ele>168.0</ele><time>2026-04-19T08:46:38Z</time></trkpt><trkpt lat="43.266480872691055" lon="13.422609346865478"><ele>168.0</ele><time>2026-04-19T08:46:39Z</time></trkpt><trkpt lat="43.266332231478195" lon="13.422505130033525"><ele>168.0</ele><time>2026-04-19T08:46:40Z</time></trkpt><trkpt lat="43.26618287996415" lon="13.422401843753642"><ele>168.0</ele><time>2026-04-19T08:46:41Z</time></trkpt><trkpt lat="43.26603418836393" lon="13.422298787726781"><ele>168.0</ele><time>2026-04-19T08:46:42Z</time></trkpt><trkpt lat="43.26588569797298" lon="13.422190897512918"><ele>168.33333333333334</ele><time>2026-04-19T08:46:43Z</time></trkpt><trkpt lat="43.26573536845246" lon="13.422080101304925"><ele>168.66666666666669</ele><time>2026-04-19T08:46:44Z</time></trkpt><trkpt lat="43.265585184758194" lon="13.421970593205724"><ele>169.0</ele><time>2026-04-19T08:46:45Z</time></trkpt><trkpt lat="43.26543658201541" lon="13.421862760569052"><ele>169.0</ele><time>2026-04-19T08:46:46Z</time></trkpt><trkpt lat="43.2652895009222" lon="13.421760370225778"><ele>169.0</ele><time>2026-04-19T08:46:47Z</time></trkpt><trkpt lat="43.265140826397044" lon="13.42165270337086"><ele>169.0</ele><time>2026-04-19T08:46:48Z</time></trkpt><trkpt lat="43.264988213909064" lon="13.421542082119823"><ele>169.0</ele><time>2026-04-19T08:46:49Z</time></trkpt><trkpt lat="43.264835423004364" lon="13.421418503116977"><ele>169.0</ele><time>2026-04-19T08:46:50Z</time></trkpt><trkpt lat="43.26468772603471" lon="13.421307502128867"><ele>169.0</ele><time>2026-04-19T08:46:51Z</time></trkpt><trkpt lat="43.26453977985617" lon="13.42120309940846"><ele>168.0</ele><time>2026-04-19T08:46:52Z</time></trkpt><trkpt lat="43.26439416562548" lon="13.421096070248053"><ele>167.0</ele><time>2026-04-19T08:46:53Z</time></trkpt><trkpt lat="43.26425590212428" lon="13.420993600946858"><ele>166.0</ele><time>2026-04-19T08:46:54Z</time></trkpt><trkpt lat="43.264120517426875" lon="13.420892867695688"><ele>166.0</ele><time>2026-04-19T08:46:55Z</time></trkpt><trkpt lat="43.26398228030365" lon="13.420810225077782"><ele>166.0</ele><time>2026-04-19T08:46:56Z</time></trkpt><trkpt lat="43.26385208148367" lon="13.42075464871478"><ele>166.0</ele><time>2026-04-19T08:46:57Z</time></trkpt><trkpt lat="43.263719237599744" lon="13.420731242073252"><ele>166.0</ele><time>2026-04-19T08:46:58Z</time></trkpt><trkpt lat="43.26358125314273" lon="13.420751079185377"><ele>165.5</ele><time>2026-04-19T08:46:59Z</time></trkpt><trkpt lat="43.26344629961183" lon="13.42080332624475"><ele>165.0</ele><time>2026-04-19T08:47:00Z</time></trkpt><trkpt lat="43.26331051117544" lon="13.420871362746412"><ele>164.5</ele><time>2026-04-19T08:47:01Z</time></trkpt><trkpt lat="43.263179263362275" lon="13.420947841342514"><ele>164.0</ele><time>2026-04-19T08:47:02Z</time></trkpt><trkpt lat="43.26303935756744" lon="13.421018946568617"><ele>161.0</ele><time>2026-04-19T08:47:03Z</time></trkpt><trkpt lat="43.262898725446384" lon="13.421090965432661"><ele>158.0</ele><time>2026-04-19T08:47:04Z</time></trkpt><trkpt lat="43.26275393956302" lon="13.421165493259485"><ele>155.0</ele><time>2026-04-19T08:47:04.999Z</time></trkpt><trkpt lat="43.26260705161732" lon="13.42123938237864"><ele>155.66666666666666</ele><time>2026-04-19T08:47:05.999Z</time></trkpt><trkpt lat="43.262463433717286" lon="13.421316998973259"><ele>156.33333333333334</ele><time>2026-04-19T08:47:06.999Z</time></trkpt><trkpt lat="43.26232003828653" lon="13.421388162779511"><ele>157.0</ele><time>2026-04-19T08:47:07.999Z</time></trkpt><trkpt lat="43.26217664668219" lon="13.421452908509849"><ele>156.0</ele><time>2026-04-19T08:47:08.999Z</time></trkpt><trkpt lat="43.262038367136185" lon="13.42150969839438"><ele>155.0</ele><time>2026-04-19T08:47:09.999Z</time></trkpt><trkpt lat="43.26189821820453" lon="13.421557687337405"><ele>154.0</ele><time>2026-04-19T08:47:10.999Z</time></trkpt><trkpt lat="43.26175626891454" lon="13.421599208017254"><ele>153.0</ele><time>2026-04-19T08:47:11.999Z</time></trkpt><trkpt lat="43.261623881174025" lon="13.42162897952909"><ele>153.0</ele><time>2026-04-19T08:47:12.999Z</time></trkpt><trkpt lat="43.26149322092218" lon="13.421675392661582"><ele>153.0</ele><time>2026-04-19T08:47:13.999Z</time></trkpt><trkpt lat="43.26136923886365" lon="13.421738171083645"><ele>153.0</ele><time>2026-04-19T08:47:14.999Z</time></trkpt><trkpt lat="43.2612476358413" lon="13.42182517896357"><ele>153.0</ele><time>2026-04-19T08:47:15.999Z</time></trkpt><trkpt lat="43.26113888604418" lon="13.421932519722601"><ele>152.0</ele><time>2026-04-19T08:47:16.999Z</time></trkpt><trkpt lat="43.26103711289473" lon="13.422053395234299"><ele>151.0</ele><time>2026-04-19T08:47:17.999Z</time></trkpt><trkpt lat="43.26093493526771" lon="13.422186448684641"><ele>150.0</ele><time>2026-04-19T08:47:18.999Z</time></trkpt><trkpt lat="43.260834545556925" lon="13.42231695464518"><ele>149.0</ele><time>2026-04-19T08:47:19.999Z</time></trkpt><trkpt lat="43.26073341857751" lon="13.422442042390248"><ele>149.0</ele><time>2026-04-19T08:47:20.999Z</time></trkpt><trkpt lat="43.26063818378743" lon="13.42255881708327"><ele>149.0</ele><time>2026-04-19T08:47:21.999Z</time></trkpt><trkpt lat="43.26054468993569" lon="13.4226598283533"><ele>149.0</ele><time>2026-04-19T08:47:22.999Z</time></trkpt><trkpt lat="43.26045528031372" lon="13.42274067281006"><ele>149.0</ele><time>2026-04-19T08:47:23.999Z</time></trkpt><trkpt lat="43.26036715686731" lon="13.422803750878828"><ele>147.2</ele><time>2026-04-19T08:47:24.999Z</time></trkpt><trkpt lat="43.260283441573876" lon="13.422848311699555"><ele>145.4</ele><time>2026-04-19T08:47:25.999Z</time></trkpt><trkpt lat="43.26019961748323" lon="13.422865132317368"><ele>143.6</ele><time>2026-04-19T08:47:26.999Z</time></trkpt><trkpt lat="43.26011307546571" lon="13.422847068866755"><ele>141.8</ele><time>2026-04-19T08:47:27.999Z</time></trkpt><trkpt lat="43.260027498468645" lon="13.422799917000708"><ele>140.0</ele><time>2026-04-19T08:47:28.999Z</time></trkpt><trkpt lat="43.25993442988769" lon="13.422742115966761"><ele>140.0</ele><time>2026-04-19T08:47:29.999Z</time></trkpt><trkpt lat="43.259834840054445" lon="13.42268849155919"><ele>140.0</ele><time>2026-04-19T08:47:30.999Z</time></trkpt><trkpt lat="43.259731198827126" lon="13.422633039322607"><ele>140.0</ele><time>2026-04-19T08:47:31.999Z</time></trkpt><trkpt lat="43.259627037986604" lon="13.422576318913336"><ele>140.0</ele><time>2026-04-19T08:47:32.999Z</time></trkpt><trkpt lat="43.259522591478806" lon="13.422517218793127"><ele>140.0</ele><time>2026-04-19T08:47:33.999Z</time></trkpt><trkpt lat="43.25942115849014" lon="13.422448796983126"><ele>139.0</ele><time>2026-04-19T08:47:34.999Z</time></trkpt><trkpt lat="43.259324078437075" lon="13.422362921395356"><ele>138.0</ele><time>2026-04-19T08:47:35.999Z</time></trkpt><trkpt lat="43.25923838691373" lon="13.422261297595794"><ele>137.0</ele><time>2026-04-19T08:47:36.999Z</time></trkpt><trkpt lat="43.25915502354668" lon="13.422149934974685"><ele>136.0</ele><time>2026-04-19T08:47:37.999Z</time></trkpt><trkpt lat="43.25907168679637" lon="13.422040222354237"><ele>135.75</ele><time>2026-04-19T08:47:38.999Z</time></trkpt><trkpt lat="43.258985136137" lon="13.421930018238456"><ele>135.5</ele><time>2026-04-19T08:47:39.999Z</time></trkpt><trkpt lat="43.25890002134089" lon="13.421788021581722"><ele>135.25</ele><time>2026-04-19T08:47:40.999Z</time></trkpt><trkpt lat="43.25881527320872" lon="13.421701989961079"><ele>135.0</ele><time>2026-04-19T08:47:41.999Z</time></trkpt><trkpt lat="43.25873286769299" lon="13.4215913519895"><ele>135.4</ele><time>2026-04-19T08:47:42.999Z</time></trkpt><trkpt lat="43.25865535583383" lon="13.421484248324596"><ele>135.8</ele><time>2026-04-19T08:47:43.999Z</time></trkpt><trkpt lat="43.25858392501383" lon="13.42137261939193"><ele>136.2</ele><time>2026-04-19T08:47:44.999Z</time></trkpt><trkpt lat="43.258520007316065" lon="13.421262909024668"><ele>136.6</ele><time>2026-04-19T08:47:45.999Z</time></trkpt><trkpt lat="43.25846368372607" lon="13.421146434302509"><ele>137.0</ele><time>2026-04-19T08:47:46.999Z</time></trkpt><trkpt lat="43.25840861697091" lon="13.421028725509629"><ele>137.0</ele><time>2026-04-19T08:47:47.999Z</time></trkpt><trkpt lat="43.25835648191496" lon="13.42091308897803"><ele>137.0</ele><time>2026-04-19T08:47:48.999Z</time></trkpt><trkpt lat="43.258307862554204" lon="13.420796142346124"><ele>137.0</ele><time>2026-04-19T08:47:49.999Z</time></trkpt><trkpt lat="43.258259095931216" lon="13.420677721979756"><ele>137.0</ele><time>2026-04-19T08:47:50.999Z</time></trkpt><trkpt lat="43.258209901782486" lon="13.420558487203017"><ele>137.0</ele><time>2026-04-19T08:47:51.999Z</time></trkpt><trkpt lat="43.258158314462456" lon="13.420438671726286"><ele>137.6</ele><time>2026-04-19T08:47:52.999Z</time></trkpt><trkpt lat="43.258108348400256" lon="13.420318900054822"><ele>138.2</ele><time>2026-04-19T08:47:53.999Z</time></trkpt><trkpt lat="43.25805895738748" lon="13.420199363791372"><ele>138.8</ele><time>2026-04-19T08:47:54.999Z</time></trkpt><trkpt lat="43.25800872840102" lon="13.420077560162449"><ele>139.4</ele><time>2026-04-19T08:47:55.999Z</time></trkpt><trkpt lat="43.25796223817265" lon="13.419963607651958"><ele>140.0</ele><time>2026-04-19T08:47:56.999Z</time></trkpt><trkpt lat="43.257912549534005" lon="13.419851234938935"><ele>140.0</ele><time>2026-04-19T08:47:57.999Z</time></trkpt><trkpt lat="43.25785982829781" lon="13.419730483305583"><ele>140.0</ele><time>2026-04-19T08:47:58.999Z</time></trkpt><trkpt lat="43.25780431666725" lon="13.419602685687753"><ele>140.0</ele><time>2026-04-19T08:47:59.999Z</time></trkpt><trkpt lat="43.25774885486896" lon="13.419475545336192"><ele>140.0</ele><time>2026-04-19T08:48:00.999Z</time></trkpt><trkpt lat="43.257694383549506" lon="13.419343559973168"><ele>140.0</ele><time>2026-04-19T08:48:01.999Z</time></trkpt><trkpt lat="43.25764097375919" lon="13.41920586407576"><ele>140.0</ele><time>2026-04-19T08:48:02.999Z</time></trkpt><trkpt lat="43.25758469668854" lon="13.419065311987897"><ele>140.0</ele><time>2026-04-19T08:48:03.999Z</time></trkpt><trkpt lat="43.25752886269552" lon="13.418930642449897"><ele>140.0</ele><time>2026-04-19T08:48:04.999Z</time></trkpt><trkpt lat="43.25747305923353" lon="13.418794477873734"><ele>140.0</ele><time>2026-04-19T08:48:05.999Z</time></trkpt><trkpt lat="43.257417923697666" lon="13.418662301112112"><ele>139.8</ele><time>2026-04-19T08:48:06.999Z</time></trkpt><trkpt lat="43.25736407629178" lon="13.41853295705651"><ele>139.6</ele><time>2026-04-19T08:48:07.999Z</time></trkpt><trkpt lat="43.25731146969396" lon="13.41840556202042"><ele>139.4</ele><time>2026-04-19T08:48:08.999Z</time></trkpt><trkpt lat="43.257255036349044" lon="13.418279759730757"><ele>139.2</ele><time>2026-04-19T08:48:09.999Z</time></trkpt><trkpt lat="43.25720187850843" lon="13.418147696596023"><ele>139.0</ele><time>2026-04-19T08:48:10.999Z</time></trkpt><trkpt lat="43.25715137079179" lon="13.41802180527312"><ele>139.2</ele><time>2026-04-19T08:48:11.999Z</time></trkpt><trkpt lat="43.25710004918715" lon="13.417894580012234"><ele>139.4</ele><time>2026-04-19T08:48:12.999Z</time></trkpt><trkpt lat="43.25704736692137" lon="13.417767562188155"><ele>139.6</ele><time>2026-04-19T08:48:13.999Z</time></trkpt><trkpt lat="43.25699315706197" lon="13.417645834677442"><ele>139.8</ele><time>2026-04-19T08:48:14.999Z</time></trkpt><trkpt lat="43.25693870086473" lon="13.417526335541451"><ele>140.0</ele><time>2026-04-19T08:48:15.999Z</time></trkpt><trkpt lat="43.25688623973918" lon="13.4174078262355"><ele>140.0</ele><time>2026-04-19T08:48:16.999Z</time></trkpt><trkpt lat="43.256833811622165" lon="13.41728541869595"><ele>140.0</ele><time>2026-04-19T08:48:17.999Z</time></trkpt><trkpt lat="43.25678313650408" lon="13.417167948603586"><ele>140.0</ele><time>2026-04-19T08:48:18.999Z</time></trkpt><trkpt lat="43.2567344011819" lon="13.417044700695312"><ele>140.0</ele><time>2026-04-19T08:48:19.999Z</time></trkpt><trkpt lat="43.256684490508604" lon="13.416918187200954"><ele>140.0</ele><time>2026-04-19T08:48:20.999Z</time></trkpt><trkpt lat="43.25663391572812" lon="13.41679377765315"><ele>140.0</ele><time>2026-04-19T08:48:21.999Z</time></trkpt><trkpt lat="43.25658210701255" lon="13.416669275532374"><ele>140.0</ele><time>2026-04-19T08:48:22.998Z</time></trkpt><trkpt lat="43.25652991772899" lon="13.416543320710293"><ele>140.0</ele><time>2026-04-19T08:48:23.998Z</time></trkpt><trkpt lat="43.25647616239546" lon="13.416418679365393"><ele>140.0</ele><time>2026-04-19T08:48:25Z</time></trkpt><trkpt lat="43.25642474550374" lon="13.416295055734405"><ele>140.0</ele><time>2026-04-19T08:48:26Z</time></trkpt><trkpt lat="43.2563712144219" lon="13.41617187289241"><ele>139.4</ele><time>2026-04-19T08:48:27Z</time></trkpt><trkpt lat="43.25631859363389" lon="13.416049205133765"><ele>138.8</ele><time>2026-04-19T08:48:28Z</time></trkpt><trkpt lat="43.2562718928854" lon="13.415933514393965"><ele>138.2</ele><time>2026-04-19T08:48:29Z</time></trkpt><trkpt lat="43.25621793440373" lon="13.415813706306098"><ele>137.6</ele><time>2026-04-19T08:48:30Z</time></trkpt><trkpt lat="43.25617173554682" lon="13.415698237788163"><ele>137.0</ele><time>2026-04-19T08:48:31Z</time></trkpt><trkpt lat="43.25611743334883" lon="13.415582162079465"><ele>137.2</ele><time>2026-04-19T08:48:32Z</time></trkpt><trkpt lat="43.25606371284865" lon="13.415459855213417"><ele>137.39999999999998</ele><time>2026-04-19T08:48:33Z</time></trkpt><trkpt lat="43.25601486587887" lon="13.41533804960136"><ele>137.60000000000002</ele><time>2026-04-19T08:48:34Z</time></trkpt><trkpt lat="43.255966020923836" lon="13.415219092137008"><ele>137.8</ele><time>2026-04-19T08:48:35Z</time></trkpt><trkpt lat="43.25591735686277" lon="13.415097539108169"><ele>138.0</ele><time>2026-04-19T08:48:36Z</time></trkpt><trkpt lat="43.25586925699247" lon="13.414982573395326"><ele>138.0</ele><time>2026-04-19T08:48:37Z</time></trkpt><trkpt lat="43.255821199238476" lon="13.414868789583213"><ele>138.0</ele><time>2026-04-19T08:48:38Z</time></trkpt><trkpt lat="43.25577355112671" lon="13.414760966442927"><ele>138.0</ele><time>2026-04-19T08:48:39Z</time></trkpt><trkpt lat="43.2557262338172" lon="13.414659159970702"><ele>138.0</ele><time>2026-04-19T08:48:40Z</time></trkpt><trkpt lat="43.25567781402541" lon="13.41456261143197"><ele>138.0</ele><time>2026-04-19T08:48:41Z</time></trkpt><trkpt lat="43.255633297034315" lon="13.414482647684315"><ele>138.0</ele><time>2026-04-19T08:48:42Z</time></trkpt><trkpt lat="43.25558136893995" lon="13.414367397566346"><ele>138.6</ele><time>2026-04-19T08:48:44Z</time></trkpt><trkpt lat="43.25545602334849" lon="13.414415269173697"><ele>139.20000000000002</ele><time>2026-04-19T08:48:45Z</time></trkpt><trkpt lat="43.25538619811455" lon="13.414444377702754"><ele>139.8</ele><time>2026-04-19T08:48:46Z</time></trkpt><trkpt lat="43.255309452474215" lon="13.414492659781386"><ele>140.4</ele><time>2026-04-19T08:48:47Z</time></trkpt><trkpt lat="43.25522707954207" lon="13.414554095435038"><ele>141.0</ele><time>2026-04-19T08:48:48Z</time></trkpt><trkpt lat="43.255139703264106" lon="13.414631487736052"><ele>141.0</ele><time>2026-04-19T08:48:49Z</time></trkpt><trkpt lat="43.25504989499201" lon="13.414713222911645"><ele>141.0</ele><time>2026-04-19T08:48:50Z</time></trkpt><trkpt lat="43.25495674168846" lon="13.414797564973275"><ele>141.0</ele><time>2026-04-19T08:48:51Z</time></trkpt><trkpt lat="43.25485583791434" lon="13.414884394193859"><ele>141.0</ele><time>2026-04-19T08:48:52Z</time></trkpt><trkpt lat="43.25475878924603" lon="13.414964173695997"><ele>141.0</ele><time>2026-04-19T08:48:53Z</time></trkpt><trkpt lat="43.25465943777264" lon="13.415049712250442"><ele>141.0</ele><time>2026-04-19T08:48:54Z</time></trkpt><trkpt lat="43.2545628156094" lon="13.415130133103343"><ele>141.0</ele><time>2026-04-19T08:48:55Z</time></trkpt><trkpt lat="43.2544656548214" lon="13.415210850810341"><ele>141.0</ele><time>2026-04-19T08:48:56Z</time></trkpt><trkpt lat="43.254369618323" lon="13.415292353722323"><ele>141.0</ele><time>2026-04-19T08:48:57Z</time></trkpt><trkpt lat="43.25427399360401" lon="13.415374470689127"><ele>141.0</ele><time>2026-04-19T08:48:58Z</time></trkpt><trkpt lat="43.254179648987254" lon="13.415456036836"><ele>141.0</ele><time>2026-04-19T08:48:59Z</time></trkpt><trkpt lat="43.254085833341406" lon="13.415532681787575"><ele>141.0</ele><time>2026-04-19T08:49:00Z</time></trkpt><trkpt lat="43.253996354000435" lon="13.415622812566271"><ele>141.0</ele><time>2026-04-19T08:49:01Z</time></trkpt><trkpt lat="43.25390311809116" lon="13.41570369054898"><ele>140.5</ele><time>2026-04-19T08:49:02Z</time></trkpt><trkpt lat="43.253799199143515" lon="13.41576124144248"><ele>140.0</ele><time>2026-04-19T08:49:03Z</time></trkpt><trkpt lat="43.25370823753061" lon="13.415851689501274"><ele>139.5</ele><time>2026-04-19T08:49:04Z</time></trkpt><trkpt lat="43.253613121580784" lon="13.415935172914976"><ele>139.0</ele><time>2026-04-19T08:49:05Z</time></trkpt><trkpt lat="43.253511755703556" lon="13.416017937818545"><ele>139.0</ele><time>2026-04-19T08:49:06Z</time></trkpt><trkpt lat="43.25340584530276" lon="13.416093325741338"><ele>139.0</ele><time>2026-04-19T08:49:07Z</time></trkpt><trkpt lat="43.253290508037935" lon="13.416164136127783"><ele>139.0</ele><time>2026-04-19T08:49:07.999Z</time></trkpt><trkpt lat="43.25316748330952" lon="13.41622732179293"><ele>139.0</ele><time>2026-04-19T08:49:08.999Z</time></trkpt><trkpt lat="43.253043176483025" lon="13.416280772802914"><ele>138.25</ele><time>2026-04-19T08:49:09.999Z</time></trkpt><trkpt lat="43.25291333398851" lon="13.416312811750924"><ele>137.5</ele><time>2026-04-19T08:49:10.999Z</time></trkpt><trkpt lat="43.25278514518666" lon="13.416340169729311"><ele>136.75</ele><time>2026-04-19T08:49:11.999Z</time></trkpt><trkpt lat="43.2526384220714" lon="13.416371263059176"><ele>136.0</ele><time>2026-04-19T08:49:12.999Z</time></trkpt><trkpt lat="43.25249620565365" lon="13.416336372582926"><ele>136.0</ele><time>2026-04-19T08:49:13.999Z</time></trkpt><trkpt lat="43.252356586536884" lon="13.416312886280407"><ele>136.0</ele><time>2026-04-19T08:49:14.999Z</time></trkpt><trkpt lat="43.25221477140825" lon="13.416279405429163"><ele>136.0</ele><time>2026-04-19T08:49:15.999Z</time></trkpt><trkpt lat="43.252066385508435" lon="13.416260683054222"><ele>136.0</ele><time>2026-04-19T08:49:16.999Z</time></trkpt><trkpt lat="43.25191889102695" lon="13.41621558323461"><ele>134.0</ele><time>2026-04-19T08:49:17.999Z</time></trkpt><trkpt lat="43.251770218264184" lon="13.416171155438567"><ele>132.0</ele><time>2026-04-19T08:49:18.999Z</time></trkpt><trkpt lat="43.25161811765697" lon="13.416128521359234"><ele>130.0</ele><time>2026-04-19T08:49:19.999Z</time></trkpt><trkpt lat="43.25146666332874" lon="13.416085983134096"><ele>129.0</ele><time>2026-04-19T08:49:20.999Z</time></trkpt><trkpt lat="43.251315015771766" lon="13.416047228168711"><ele>128.0</ele><time>2026-04-19T08:49:21.999Z</time></trkpt><trkpt lat="43.25116311101594" lon="13.416017273863899"><ele>127.0</ele><time>2026-04-19T08:49:22.999Z</time></trkpt><trkpt lat="43.251019066485405" lon="13.415982916478884"><ele>127.0</ele><time>2026-04-19T08:49:23.999Z</time></trkpt><trkpt lat="43.25088381762335" lon="13.415949573188344"><ele>127.0</ele><time>2026-04-19T08:49:24.999Z</time></trkpt><trkpt lat="43.25075887585134" lon="13.415915546656858"><ele>127.0</ele><time>2026-04-19T08:49:25.999Z</time></trkpt><trkpt lat="43.25064167474039" lon="13.415887407046105"><ele>127.0</ele><time>2026-04-19T08:49:26.999Z</time></trkpt><trkpt lat="43.25053773672736" lon="13.41585033190929"><ele>127.8</ele><time>2026-04-19T08:49:27.999Z</time></trkpt><trkpt lat="43.25043761596224" lon="13.415799032936844"><ele>128.6</ele><time>2026-04-19T08:49:28.999Z</time></trkpt><trkpt lat="43.25033739427223" lon="13.415732024087031"><ele>129.39999999999998</ele><time>2026-04-19T08:49:29.999Z</time></trkpt><trkpt lat="43.25023236771372" lon="13.415684917784633"><ele>130.2</ele><time>2026-04-19T08:49:30.999Z</time></trkpt><trkpt lat="43.250123577144535" lon="13.415665208962114"><ele>131.0</ele><time>2026-04-19T08:49:31.999Z</time></trkpt><trkpt lat="43.25000896896793" lon="13.41566903694057"><ele>131.0</ele><time>2026-04-19T08:49:32.999Z</time></trkpt><trkpt lat="43.24988994577338" lon="13.415703680202913"><ele>131.0</ele><time>2026-04-19T08:49:33.999Z</time></trkpt><trkpt lat="43.24975366921434" lon="13.415675454778109"><ele>131.0</ele><time>2026-04-19T08:49:34.999Z</time></trkpt><trkpt lat="43.24960568401954" lon="13.415635564682685"><ele>131.0</ele><time>2026-04-19T08:49:35.999Z</time></trkpt><trkpt lat="43.249484325124946" lon="13.415592605970602"><ele>131.0</ele><time>2026-04-19T08:49:36.999Z</time></trkpt><trkpt lat="43.24933889455174" lon="13.415549209537472"><ele>131.0</ele><time>2026-04-19T08:49:37.999Z</time></trkpt><trkpt lat="43.2491897935243" lon="13.415511070941243"><ele>131.0</ele><time>2026-04-19T08:49:38.999Z</time></trkpt><trkpt lat="43.249037093652426" lon="13.415474462136087"><ele>131.0</ele><time>2026-04-19T08:49:39.999Z</time></trkpt><trkpt lat="43.2488865045429" lon="13.415430274385962"><ele>131.0</ele><time>2026-04-19T08:49:40.999Z</time></trkpt><trkpt lat="43.24873839221103" lon="13.415391468813734"><ele>131.0</ele><time>2026-04-19T08:49:41.999Z</time></trkpt><trkpt lat="43.24858287320357" lon="13.415350666839199"><ele>131.0</ele><time>2026-04-19T08:49:42.999Z</time></trkpt><trkpt lat="43.248430138570725" lon="13.415310725708698"><ele>131.0</ele><time>2026-04-19T08:49:43.999Z</time></trkpt><trkpt lat="43.24827467464098" lon="13.415272846921106"><ele>131.0</ele><time>2026-04-19T08:49:44.999Z</time></trkpt><trkpt lat="43.24812045611255" lon="13.415234253437497"><ele>130.33333333333331</ele><time>2026-04-19T08:49:45.999Z</time></trkpt><trkpt lat="43.24796487327159" lon="13.415194307953419"><ele>129.66666666666666</ele><time>2026-04-19T08:49:46.999Z</time></trkpt><trkpt lat="43.24780728383098" lon="13.415157059825887"><ele>129.0</ele><time>2026-04-19T08:49:47.999Z</time></trkpt><trkpt lat="43.247647838655276" lon="13.41511709794665"><ele>129.0</ele><time>2026-04-19T08:49:48.999Z</time></trkpt><trkpt lat="43.247489428897694" lon="13.415076793602585"><ele>129.0</ele><time>2026-04-19T08:49:49.999Z</time></trkpt><trkpt lat="43.24733518961948" lon="13.415035640040019"><ele>129.0</ele><time>2026-04-19T08:49:50.999Z</time></trkpt><trkpt lat="43.24717749654042" lon="13.414995302919012"><ele>129.66666666666666</ele><time>2026-04-19T08:49:51.999Z</time></trkpt><trkpt lat="43.24701760553649" lon="13.414955572315565"><ele>130.33333333333331</ele><time>2026-04-19T08:49:52.999Z</time></trkpt><trkpt lat="43.24686303880428" lon="13.414922945757672"><ele>131.0</ele><time>2026-04-19T08:49:53.999Z</time></trkpt><trkpt lat="43.246707421003194" lon="13.414892541657297"><ele>131.0</ele><time>2026-04-19T08:49:54.999Z</time></trkpt><trkpt lat="43.24654895946035" lon="13.414861718052721"><ele>131.0</ele><time>2026-04-19T08:49:55.999Z</time></trkpt><trkpt lat="43.246391916170616" lon="13.414837379403485"><ele>131.0</ele><time>2026-04-19T08:49:56.999Z</time></trkpt><trkpt lat="43.246240149411214" lon="13.414814946343244"><ele>131.33333333333331</ele><time>2026-04-19T08:49:57.999Z</time></trkpt><trkpt lat="43.24608680388078" lon="13.414788677684495"><ele>131.66666666666666</ele><time>2026-04-19T08:49:58.999Z</time></trkpt><trkpt lat="43.24593725534558" lon="13.414762644833367"><ele>132.0</ele><time>2026-04-19T08:49:59.999Z</time></trkpt><trkpt lat="43.2457874400447" lon="13.414737628528806"><ele>132.0</ele><time>2026-04-19T08:50:00.999Z</time></trkpt><trkpt lat="43.2456384495613" lon="13.414709160644046"><ele>132.0</ele><time>2026-04-19T08:50:01.999Z</time></trkpt><trkpt lat="43.24549398302906" lon="13.414680856681562"><ele>132.0</ele><time>2026-04-19T08:50:02.999Z</time></trkpt><trkpt lat="43.24535199122092" lon="13.414654800124882"><ele>132.0</ele><time>2026-04-19T08:50:03.999Z</time></trkpt><trkpt lat="43.24519918433395" lon="13.414623540766481"><ele>132.5</ele><time>2026-04-19T08:50:04.999Z</time></trkpt><trkpt lat="43.245061577173935" lon="13.41459686096959"><ele>133.0</ele><time>2026-04-19T08:50:05.999Z</time></trkpt><trkpt lat="43.244930795307916" lon="13.414568466100802"><ele>133.5</ele><time>2026-04-19T08:50:06.999Z</time></trkpt><trkpt lat="43.24480806063777" lon="13.414546416597373"><ele>134.0</ele><time>2026-04-19T08:50:07.999Z</time></trkpt><trkpt lat="43.244699049733576" lon="13.414522509612292"><ele>134.0</ele><time>2026-04-19T08:50:08.999Z</time></trkpt><trkpt lat="43.24460580976766" lon="13.41448668920454"><ele>134.0</ele><time>2026-04-19T08:50:09.999Z</time></trkpt><trkpt lat="43.24452680372381" lon="13.414429408644628"><ele>134.0</ele><time>2026-04-19T08:50:10.999Z</time></trkpt><trkpt lat="43.24446757661017" lon="13.414353374732519"><ele>134.0</ele><time>2026-04-19T08:50:11.999Z</time></trkpt><trkpt lat="43.24442683898156" lon="13.414251595522614"><ele>134.0</ele><time>2026-04-19T08:50:12.999Z</time></trkpt><trkpt lat="43.24438931639305" lon="13.414142658960236"><ele>134.0</ele><time>2026-04-19T08:50:13.999Z</time></trkpt><trkpt lat="43.24438978920006" lon="13.413993626539586"><ele>134.0</ele><time>2026-04-19T08:50:14.999Z</time></trkpt><trkpt lat="43.24435117283779" lon="13.413859299198954"><ele>134.0</ele><time>2026-04-19T08:50:15.999Z</time></trkpt><trkpt lat="43.244290829454826" lon="13.413743918316854"><ele>134.0</ele><time>2026-04-19T08:50:16.999Z</time></trkpt><trkpt lat="43.24420943545843" lon="13.41365460859023"><ele>134.0</ele><time>2026-04-19T08:50:17.999Z</time></trkpt><trkpt lat="43.24411348650815" lon="13.41359843212646"><ele>134.0</ele><time>2026-04-19T08:50:18.999Z</time></trkpt><trkpt lat="43.24400528004995" lon="13.41356665937998"><ele>134.25</ele><time>2026-04-19T08:50:19.999Z</time></trkpt><trkpt lat="43.24389035303625" lon="13.413534626968186"><ele>134.5</ele><time>2026-04-19T08:50:20.999Z</time></trkpt><trkpt lat="43.243767508391585" lon="13.413483691383359"><ele>134.75</ele><time>2026-04-19T08:50:21.999Z</time></trkpt><trkpt lat="43.243644579974905" lon="13.413431184598"><ele>135.0</ele><time>2026-04-19T08:50:22.999Z</time></trkpt><trkpt lat="43.24352438804659" lon="13.413380093883873"><ele>135.0</ele><time>2026-04-19T08:50:23.999Z</time></trkpt><trkpt lat="43.24340208304683" lon="13.413323722823312"><ele>135.0</ele><time>2026-04-19T08:50:24.999Z</time></trkpt><trkpt lat="43.24327982961178" lon="13.413258015516051"><ele>135.0</ele><time>2026-04-19T08:50:25.999Z</time></trkpt><trkpt lat="43.24316008399717" lon="13.41318339548362"><ele>135.0</ele><time>2026-04-19T08:50:26.999Z</time></trkpt><trkpt lat="43.24304321186395" lon="13.413097097481275"><ele>135.0</ele><time>2026-04-19T08:50:27.999Z</time></trkpt><trkpt lat="43.24292726095682" lon="13.41299732740896"><ele>135.0</ele><time>2026-04-19T08:50:28.999Z</time></trkpt><trkpt lat="43.24281787747964" lon="13.412882906122258"><ele>135.0</ele><time>2026-04-19T08:50:30Z</time></trkpt><trkpt lat="43.24271361849155" lon="13.412766301772441"><ele>135.0</ele><time>2026-04-19T08:50:31Z</time></trkpt><trkpt lat="43.24261325576875" lon="13.412646299069964"><ele>135.0</ele><time>2026-04-19T08:50:32Z</time></trkpt><trkpt lat="43.24251759326809" lon="13.4125211328977"><ele>135.0</ele><time>2026-04-19T08:50:33Z</time></trkpt><trkpt lat="43.24242990751401" lon="13.412402811254935"><ele>135.0</ele><time>2026-04-19T08:50:34Z</time></trkpt><trkpt lat="43.24233959691416" lon="13.4122977105763"><ele>135.0</ele><time>2026-04-19T08:50:35Z</time></trkpt><trkpt lat="43.24224000966802" lon="13.412208509292364"><ele>135.5</ele><time>2026-04-19T08:50:36Z</time></trkpt><trkpt lat="43.24213289547969" lon="13.412138605006863"><ele>136.0</ele><time>2026-04-19T08:50:37Z</time></trkpt><trkpt lat="43.2420198467446" lon="13.412096493982453"><ele>136.5</ele><time>2026-04-19T08:50:38Z</time></trkpt><trkpt lat="43.241904287406726" lon="13.412084082154616"><ele>137.0</ele><time>2026-04-19T08:50:39Z</time></trkpt><trkpt lat="43.24178699086864" lon="13.412098014977742"><ele>137.0</ele><time>2026-04-19T08:50:40Z</time></trkpt><trkpt lat="43.24167513913832" lon="13.412137878403092"><ele>137.0</ele><time>2026-04-19T08:50:41Z</time></trkpt><trkpt lat="43.241570305091976" lon="13.412200820701734"><ele>137.0</ele><time>2026-04-19T08:50:42Z</time></trkpt><trkpt lat="43.241473642667636" lon="13.412262683002096"><ele>137.0</ele><time>2026-04-19T08:50:43Z</time></trkpt><trkpt lat="43.24137640865463" lon="13.41229715345464"><ele>137.0</ele><time>2026-04-19T08:50:44Z</time></trkpt><trkpt lat="43.241280484087085" lon="13.412300246725986"><ele>137.2</ele><time>2026-04-19T08:50:45Z</time></trkpt><trkpt lat="43.24118703280727" lon="13.412266593716502"><ele>137.39999999999998</ele><time>2026-04-19T08:50:46Z</time></trkpt><trkpt lat="43.241102516582814" lon="13.412200798891076"><ele>137.60000000000002</ele><time>2026-04-19T08:50:47Z</time></trkpt><trkpt lat="43.24102857977946" lon="13.412108348495916"><ele>137.8</ele><time>2026-04-19T08:50:48Z</time></trkpt><trkpt lat="43.240966232707784" lon="13.411991027510698"><ele>138.0</ele><time>2026-04-19T08:50:49Z</time></trkpt><trkpt lat="43.24090747541874" lon="13.411861109083647"><ele>138.5</ele><time>2026-04-19T08:50:50Z</time></trkpt><trkpt lat="43.24084540636791" lon="13.411723885872394"><ele>139.0</ele><time>2026-04-19T08:50:51Z</time></trkpt><trkpt lat="43.24077495030268" lon="13.411572013859097"><ele>139.5</ele><time>2026-04-19T08:50:52Z</time></trkpt><trkpt lat="43.24070424488347" lon="13.411424396828737"><ele>140.0</ele><time>2026-04-19T08:50:53Z</time></trkpt><trkpt lat="43.2406411571092" lon="13.411277549816127"><ele>140.0</ele><time>2026-04-19T08:50:54Z</time></trkpt><trkpt lat="43.240572456287545" lon="13.411125138597576"><ele>140.0</ele><time>2026-04-19T08:50:55Z</time></trkpt><trkpt lat="43.24049764280548" lon="13.410966859745335"><ele>140.0</ele><time>2026-04-19T08:50:56Z</time></trkpt><trkpt lat="43.24041640048303" lon="13.410798233810146"><ele>140.0</ele><time>2026-04-19T08:50:57Z</time></trkpt><trkpt lat="43.240329137298716" lon="13.410620571237166"><ele>140.33333333333331</ele><time>2026-04-19T08:50:58Z</time></trkpt><trkpt lat="43.240240836812696" lon="13.410435482468955"><ele>140.66666666666666</ele><time>2026-04-19T08:50:59Z</time></trkpt><trkpt lat="43.24015239297931" lon="13.410249479716791"><ele>141.0</ele><time>2026-04-19T08:51:00Z</time></trkpt><trkpt lat="43.240065364299795" lon="13.410054443062217"><ele>141.0</ele><time>2026-04-19T08:51:01Z</time></trkpt><trkpt lat="43.23998329175111" lon="13.409858735023525"><ele>141.0</ele><time>2026-04-19T08:51:02Z</time></trkpt><trkpt lat="43.23989407553979" lon="13.409661614548146"><ele>141.0</ele><time>2026-04-19T08:51:03Z</time></trkpt><trkpt lat="43.23980461338887" lon="13.409457274203337"><ele>141.0</ele><time>2026-04-19T08:51:04Z</time></trkpt><trkpt lat="43.239710493521365" lon="13.409263075811632"><ele>141.0</ele><time>2026-04-19T08:51:05Z</time></trkpt><trkpt lat="43.239622573923896" lon="13.409053371169687"><ele>141.0</ele><time>2026-04-19T08:51:06Z</time></trkpt><trkpt lat="43.23953040175706" lon="13.408848200732828"><ele>141.33333333333334</ele><time>2026-04-19T08:51:07Z</time></trkpt><trkpt lat="43.2394369216775" lon="13.408638311448644"><ele>141.66666666666669</ele><time>2026-04-19T08:51:08Z</time></trkpt><trkpt lat="43.23934181863303" lon="13.408426932592743"><ele>142.0</ele><time>2026-04-19T08:51:09Z</time></trkpt><trkpt lat="43.239248624809434" lon="13.40821277908547"><ele>142.0</ele><time>2026-04-19T08:51:10Z</time></trkpt><trkpt lat="43.23916261624534" lon="13.407999212527548"><ele>142.0</ele><time>2026-04-19T08:51:11Z</time></trkpt><trkpt lat="43.23907245712751" lon="13.407773855895073"><ele>142.0</ele><time>2026-04-19T08:51:12Z</time></trkpt><trkpt lat="43.23899004807978" lon="13.407549352032397"><ele>142.0</ele><time>2026-04-19T08:51:13Z</time></trkpt><trkpt lat="43.238902304787956" lon="13.407316976184505"><ele>142.0</ele><time>2026-04-19T08:51:14Z</time></trkpt><trkpt lat="43.238818722929715" lon="13.407083445316113"><ele>142.0</ele><time>2026-04-19T08:51:15Z</time></trkpt><trkpt lat="43.23874273782103" lon="13.406851785934453"><ele>142.33333333333334</ele><time>2026-04-19T08:51:16Z</time></trkpt><trkpt lat="43.23866039104788" lon="13.406614480341275"><ele>142.66666666666666</ele><time>2026-04-19T08:51:16.999Z</time></trkpt><trkpt lat="43.238583341123906" lon="13.40637556790198"><ele>143.0</ele><time>2026-04-19T08:51:17.999Z</time></trkpt><trkpt lat="43.23850986251119" lon="13.406136466830874"><ele>143.0</ele><time>2026-04-19T08:51:18.999Z</time></trkpt><trkpt lat="43.238437998704896" lon="13.405891710813885"><ele>143.0</ele><time>2026-04-19T08:51:19.999Z</time></trkpt><trkpt lat="43.238367604647316" lon="13.405650273354052"><ele>143.0</ele><time>2026-04-19T08:51:20.999Z</time></trkpt><trkpt lat="43.23830103987957" lon="13.405404941702773"><ele>143.0</ele><time>2026-04-19T08:51:21.999Z</time></trkpt><trkpt lat="43.238235393393424" lon="13.405159559901122"><ele>143.0</ele><time>2026-04-19T08:51:22.999Z</time></trkpt><trkpt lat="43.23817253812177" lon="13.404908484610917"><ele>143.0</ele><time>2026-04-19T08:51:23.999Z</time></trkpt><trkpt lat="43.238110619094584" lon="13.404654628537767"><ele>143.0</ele><time>2026-04-19T08:51:24.999Z</time></trkpt><trkpt lat="43.2380561547424" lon="13.404399074824115"><ele>143.0</ele><time>2026-04-19T08:51:25.999Z</time></trkpt><trkpt lat="43.238000688864766" lon="13.404138643443966"><ele>143.0</ele><time>2026-04-19T08:51:26.999Z</time></trkpt><trkpt lat="43.237949432880974" lon="13.403888416549211"><ele>143.0</ele><time>2026-04-19T08:51:27.999Z</time></trkpt><trkpt lat="43.237899511544015" lon="13.403631031907459"><ele>143.0</ele><time>2026-04-19T08:51:28.999Z</time></trkpt><trkpt lat="43.23785246415743" lon="13.403372998197675"><ele>143.0</ele><time>2026-04-19T08:51:29.999Z</time></trkpt><trkpt lat="43.237809250893406" lon="13.403119288097695"><ele>143.66666666666666</ele><time>2026-04-19T08:51:30.999Z</time></trkpt><trkpt lat="43.23777050348221" lon="13.402859050359586"><ele>144.33333333333334</ele><time>2026-04-19T08:51:31.999Z</time></trkpt><trkpt lat="43.23773327074782" lon="13.4026021452882"><ele>145.0</ele><time>2026-04-19T08:51:32.999Z</time></trkpt><trkpt lat="43.23769733014394" lon="13.402338685279192"><ele>145.33333333333334</ele><time>2026-04-19T08:51:33.999Z</time></trkpt><trkpt lat="43.23766243786207" lon="13.40208153233328"><ele>145.66666666666666</ele><time>2026-04-19T08:51:34.999Z</time></trkpt><trkpt lat="43.23763148023793" lon="13.401815641551561"><ele>146.0</ele><time>2026-04-19T08:51:35.999Z</time></trkpt><trkpt lat="43.237603325453755" lon="13.401546244993302"><ele>145.66666666666666</ele><time>2026-04-19T08:51:36.999Z</time></trkpt><trkpt lat="43.23757746452701" lon="13.401272848601733"><ele>145.33333333333334</ele><time>2026-04-19T08:51:37.999Z</time></trkpt><trkpt lat="43.237548652746504" lon="13.40100043569117"><ele>145.0</ele><time>2026-04-19T08:51:38.999Z</time></trkpt><trkpt lat="43.23751638568576" lon="13.400728525253765"><ele>144.66666666666669</ele><time>2026-04-19T08:51:39.999Z</time></trkpt><trkpt lat="43.237479369065724" lon="13.400453982447402"><ele>144.33333333333334</ele><time>2026-04-19T08:51:40.999Z</time></trkpt><trkpt lat="43.237444463215375" lon="13.40017467079728"><ele>144.0</ele><time>2026-04-19T08:51:41.999Z</time></trkpt><trkpt lat="43.23741382801592" lon="13.399896334936319"><ele>143.66666666666666</ele><time>2026-04-19T08:51:42.999Z</time></trkpt><trkpt lat="43.23739416638638" lon="13.399611958335598"><ele>143.33333333333331</ele><time>2026-04-19T08:51:43.999Z</time></trkpt><trkpt lat="43.237389333210196" lon="13.399328607461785"><ele>143.0</ele><time>2026-04-19T08:51:44.999Z</time></trkpt><trkpt lat="43.237325972697484" lon="13.399051650571227"><ele>144.33333333333331</ele><time>2026-04-19T08:51:45.999Z</time></trkpt><trkpt lat="43.237295858762344" lon="13.398765801670228"><ele>145.66666666666666</ele><time>2026-04-19T08:51:46.999Z</time></trkpt><trkpt lat="43.23726687363567" lon="13.398478628899113"><ele>147.0</ele><time>2026-04-19T08:51:47.999Z</time></trkpt><trkpt lat="43.23723367941136" lon="13.398194071153103"><ele>147.0</ele><time>2026-04-19T08:51:48.999Z</time></trkpt><trkpt lat="43.23719960232069" lon="13.397908949049196"><ele>147.0</ele><time>2026-04-19T08:51:49.999Z</time></trkpt><trkpt lat="43.237169686891036" lon="13.39762651311886"><ele>147.0</ele><time>2026-04-19T08:51:50.999Z</time></trkpt><trkpt lat="43.23713815445334" lon="13.397333125497358"><ele>147.33333333333334</ele><time>2026-04-19T08:51:51.999Z</time></trkpt><trkpt lat="43.23710244607722" lon="13.397043138283689"><ele>147.66666666666669</ele><time>2026-04-19T08:51:52.999Z</time></trkpt><trkpt lat="43.237071202637736" lon="13.39675207824699"><ele>148.0</ele><time>2026-04-19T08:51:53.999Z</time></trkpt><trkpt lat="43.23703785705144" lon="13.39646653513501"><ele>147.33333333333334</ele><time>2026-04-19T08:51:54.999Z</time></trkpt><trkpt lat="43.237004797213906" lon="13.396183298563352"><ele>146.66666666666666</ele><time>2026-04-19T08:51:55.999Z</time></trkpt><trkpt lat="43.236963210572235" lon="13.395893692013034"><ele>146.0</ele><time>2026-04-19T08:51:56.999Z</time></trkpt><trkpt lat="43.236928207555756" lon="13.395608506732056"><ele>145.33333333333331</ele><time>2026-04-19T08:51:57.999Z</time></trkpt><trkpt lat="43.23690634520445" lon="13.395327828673391"><ele>144.66666666666666</ele><time>2026-04-19T08:51:58.999Z</time></trkpt><trkpt lat="43.23687807206972" lon="13.395043272375256"><ele>144.0</ele><time>2026-04-19T08:51:59.999Z</time></trkpt><trkpt lat="43.236844396097666" lon="13.394753177205406"><ele>144.0</ele><time>2026-04-19T08:52:00.999Z</time></trkpt><trkpt lat="43.236812318740135" lon="13.394466964279918"><ele>144.0</ele><time>2026-04-19T08:52:01.999Z</time></trkpt><trkpt lat="43.236776105741995" lon="13.394183677768368"><ele>144.0</ele><time>2026-04-19T08:52:02.999Z</time></trkpt><trkpt lat="43.236741028668604" lon="13.393896247196023"><ele>143.66666666666666</ele><time>2026-04-19T08:52:03.999Z</time></trkpt><trkpt lat="43.23671093037489" lon="13.393610396563362"><ele>143.33333333333331</ele><time>2026-04-19T08:52:04.999Z</time></trkpt><trkpt lat="43.23668230332475" lon="13.393320328484865"><ele>143.0</ele><time>2026-04-19T08:52:05.999Z</time></trkpt><trkpt lat="43.23665157775997" lon="13.39303596435018"><ele>144.33333333333331</ele><time>2026-04-19T08:52:06.999Z</time></trkpt><trkpt lat="43.236616040378706" lon="13.392750571358393"><ele>145.66666666666666</ele><time>2026-04-19T08:52:07.999Z</time></trkpt><trkpt lat="43.23658644471662" lon="13.392465133785718"><ele>147.0</ele><time>2026-04-19T08:52:08.999Z</time></trkpt><trkpt lat="43.2365524683778" lon="13.392176957609502"><ele>147.0</ele><time>2026-04-19T08:52:09.999Z</time></trkpt><trkpt lat="43.23652218181362" lon="13.391891831919624"><ele>147.0</ele><time>2026-04-19T08:52:10.999Z</time></trkpt><trkpt lat="43.23649137398533" lon="13.391604575212938"><ele>147.0</ele><time>2026-04-19T08:52:11.999Z</time></trkpt><trkpt lat="43.23645699735972" lon="13.391316686416932"><ele>147.33333333333334</ele><time>2026-04-19T08:52:12.999Z</time></trkpt><trkpt lat="43.23642557841877" lon="13.391027305625874"><ele>147.66666666666669</ele><time>2026-04-19T08:52:13.999Z</time></trkpt><trkpt lat="43.23639413189618" lon="13.390744020714504"><ele>148.0</ele><time>2026-04-19T08:52:14.999Z</time></trkpt><trkpt lat="43.23635812238848" lon="13.390458393113702"><ele>148.0</ele><time>2026-04-19T08:52:15.999Z</time></trkpt><trkpt lat="43.23632651883991" lon="13.390173976445475"><ele>148.0</ele><time>2026-04-19T08:52:16.999Z</time></trkpt><trkpt lat="43.23629517633454" lon="13.389888455721584"><ele>148.0</ele><time>2026-04-19T08:52:17.999Z</time></trkpt><trkpt lat="43.236262404977694" lon="13.389600349370216"><ele>147.66666666666669</ele><time>2026-04-19T08:52:18.999Z</time></trkpt><trkpt lat="43.236232709012064" lon="13.389316807401542"><ele>147.33333333333334</ele><time>2026-04-19T08:52:19.999Z</time></trkpt><trkpt lat="43.23619855227964" lon="13.389030633453316"><ele>147.0</ele><time>2026-04-19T08:52:20.999Z</time></trkpt><trkpt lat="43.236168446507115" lon="13.38874173337944"><ele>147.0</ele><time>2026-04-19T08:52:21.999Z</time></trkpt><trkpt lat="43.236137187998914" lon="13.388456168712256"><ele>147.0</ele><time>2026-04-19T08:52:22.999Z</time></trkpt><trkpt lat="43.23610340847693" lon="13.388167743580558"><ele>147.0</ele><time>2026-04-19T08:52:23.999Z</time></trkpt><trkpt lat="43.23607161818271" lon="13.387882285731818"><ele>146.66666666666666</ele><time>2026-04-19T08:52:24.999Z</time></trkpt><trkpt lat="43.23604056511071" lon="13.387596441227407"><ele>146.33333333333331</ele><time>2026-04-19T08:52:25.999Z</time></trkpt><trkpt lat="43.23600721989585" lon="13.387312449442236"><ele>146.0</ele><time>2026-04-19T08:52:26.999Z</time></trkpt><trkpt lat="43.23597620573673" lon="13.387027112877297"><ele>145.66666666666666</ele><time>2026-04-19T08:52:27.999Z</time></trkpt><trkpt lat="43.235942540153296" lon="13.386736953928818"><ele>145.33333333333334</ele><time>2026-04-19T08:52:28.999Z</time></trkpt><trkpt lat="43.23591137770423" lon="13.386450655500699"><ele>145.0</ele><time>2026-04-19T08:52:29.999Z</time></trkpt><trkpt lat="43.235877376098905" lon="13.386162398649944"><ele>144.66666666666669</ele><time>2026-04-19T08:52:30.999Z</time></trkpt><trkpt lat="43.2358468997949" lon="13.385874990606782"><ele>144.33333333333334</ele><time>2026-04-19T08:52:31.999Z</time></trkpt><trkpt lat="43.23581415300525" lon="13.385591448092107"><ele>144.0</ele><time>2026-04-19T08:52:32.999Z</time></trkpt><trkpt lat="43.235781976148544" lon="13.38530658262757"><ele>143.66666666666666</ele><time>2026-04-19T08:52:33.999Z</time></trkpt><trkpt lat="43.23574803038923" lon="13.385019156859155"><ele>143.33333333333331</ele><time>2026-04-19T08:52:34.999Z</time></trkpt><trkpt lat="43.23571219384103" lon="13.384729808849347"><ele>143.0</ele><time>2026-04-19T08:52:36Z</time></trkpt><trkpt lat="43.2356788202758" lon="13.384445983230394"><ele>142.33333333333331</ele><time>2026-04-19T08:52:37Z</time></trkpt><trkpt lat="43.23564737814877" lon="13.384157757284056"><ele>141.66666666666666</ele><time>2026-04-19T08:52:38Z</time></trkpt><trkpt lat="43.23561654502475" lon="13.383872558928898"><ele>141.0</ele><time>2026-04-19T08:52:39Z</time></trkpt><trkpt lat="43.23558486635805" lon="13.383584943709554"><ele>142.66666666666666</ele><time>2026-04-19T08:52:40Z</time></trkpt><trkpt lat="43.235550992884164" lon="13.383301266063368"><ele>144.33333333333331</ele><time>2026-04-19T08:52:41Z</time></trkpt><trkpt lat="43.23551774814896" lon="13.383015852153147"><ele>146.0</ele><time>2026-04-19T08:52:42Z</time></trkpt><trkpt lat="43.23548633726783" lon="13.382728894691654"><ele>146.66666666666666</ele><time>2026-04-19T08:52:43Z</time></trkpt><trkpt lat="43.23545584868138" lon="13.382440078603123"><ele>147.33333333333334</ele><time>2026-04-19T08:52:44Z</time></trkpt><trkpt lat="43.23542355638225" lon="13.382154251107348"><ele>148.0</ele><time>2026-04-19T08:52:45Z</time></trkpt><trkpt lat="43.235389989533815" lon="13.38186746732556"><ele>148.33333333333334</ele><time>2026-04-19T08:52:46Z</time></trkpt><trkpt lat="43.235359225712315" lon="13.381583623870705"><ele>148.66666666666666</ele><time>2026-04-19T08:52:47Z</time></trkpt><trkpt lat="43.2353267896633" lon="13.381296179250539"><ele>149.0</ele><time>2026-04-19T08:52:48Z</time></trkpt><trkpt lat="43.23529188782146" lon="13.381011097245777"><ele>149.0</ele><time>2026-04-19T08:52:49Z</time></trkpt><trkpt lat="43.23526190429165" lon="13.38072487318317"><ele>149.0</ele><time>2026-04-19T08:52:50Z</time></trkpt><trkpt lat="43.23523186724867" lon="13.380438105768029"><ele>149.0</ele><time>2026-04-19T08:52:51Z</time></trkpt><trkpt lat="43.235202329161794" lon="13.380150671607462"><ele>149.0</ele><time>2026-04-19T08:52:52Z</time></trkpt><trkpt lat="43.23517046590004" lon="13.379866682997877"><ele>149.0</ele><time>2026-04-19T08:52:53Z</time></trkpt><trkpt lat="43.235134261591355" lon="13.379578063728912"><ele>149.0</ele><time>2026-04-19T08:52:54Z</time></trkpt><trkpt lat="43.235101553792084" lon="13.37929182745961"><ele>149.0</ele><time>2026-04-19T08:52:55Z</time></trkpt><trkpt lat="43.23506954645392" lon="13.37900515796409"><ele>149.0</ele><time>2026-04-19T08:52:56Z</time></trkpt><trkpt lat="43.235038680925264" lon="13.378720509775986"><ele>149.0</ele><time>2026-04-19T08:52:57Z</time></trkpt><trkpt lat="43.23500793450394" lon="13.378434284736272"><ele>148.66666666666666</ele><time>2026-04-19T08:52:58Z</time></trkpt><trkpt lat="43.234972510999114" lon="13.378146996862862"><ele>148.33333333333334</ele><time>2026-04-19T08:52:59Z</time></trkpt><trkpt lat="43.234943482476865" lon="13.377860459186804"><ele>148.0</ele><time>2026-04-19T08:53:00Z</time></trkpt><trkpt lat="43.23490771474175" lon="13.377573361506702"><ele>148.0</ele><time>2026-04-19T08:53:01Z</time></trkpt><trkpt lat="43.234875656181714" lon="13.37728638688222"><ele>148.0</ele><time>2026-04-19T08:53:02Z</time></trkpt><trkpt lat="43.234845723095255" lon="13.377000928991414"><ele>148.0</ele><time>2026-04-19T08:53:03Z</time></trkpt><trkpt lat="43.23481218536958" lon="13.376714109666919"><ele>147.66666666666669</ele><time>2026-04-19T08:53:04Z</time></trkpt><trkpt lat="43.23477800486584" lon="13.376427541577726"><ele>147.33333333333334</ele><time>2026-04-19T08:53:05Z</time></trkpt><trkpt lat="43.23474706593281" lon="13.376141618317343"><ele>147.0</ele><time>2026-04-19T08:53:06Z</time></trkpt><trkpt lat="43.23471343000508" lon="13.375855598029178"><ele>147.66666666666666</ele><time>2026-04-19T08:53:07Z</time></trkpt><trkpt lat="43.23467905705779" lon="13.375570421463761"><ele>148.33333333333331</ele><time>2026-04-19T08:53:08Z</time></trkpt><trkpt lat="43.23464602936458" lon="13.37528011302648"><ele>149.0</ele><time>2026-04-19T08:53:09Z</time></trkpt><trkpt lat="43.2346135350849" lon="13.374993999639043"><ele>149.0</ele><time>2026-04-19T08:53:10Z</time></trkpt><trkpt lat="43.23457917726846" lon="13.374707002386852"><ele>149.0</ele><time>2026-04-19T08:53:11Z</time></trkpt><trkpt lat="43.23454698394304" lon="13.374421228589496"><ele>149.0</ele><time>2026-04-19T08:53:12Z</time></trkpt><trkpt lat="43.23452003046957" lon="13.37413737801708"><ele>149.66666666666666</ele><time>2026-04-19T08:53:13Z</time></trkpt><trkpt lat="43.23448673046869" lon="13.373853790265768"><ele>150.33333333333334</ele><time>2026-04-19T08:53:14Z</time></trkpt><trkpt lat="43.23445793275222" lon="13.373567912539652"><ele>151.0</ele><time>2026-04-19T08:53:15Z</time></trkpt><trkpt lat="43.23442485647081" lon="13.373281488423466"><ele>151.33333333333334</ele><time>2026-04-19T08:53:16Z</time></trkpt><trkpt lat="43.234395106270135" lon="13.372996133246087"><ele>151.66666666666666</ele><time>2026-04-19T08:53:17Z</time></trkpt><trkpt lat="43.234361839411065" lon="13.372708148815597"><ele>152.0</ele><time>2026-04-19T08:53:18Z</time></trkpt><trkpt lat="43.23433039827414" lon="13.372423917982145"><ele>152.33333333333331</ele><time>2026-04-19T08:53:19Z</time></trkpt><trkpt lat="43.2342974963834" lon="13.372137256347463"><ele>152.66666666666666</ele><time>2026-04-19T08:53:20Z</time></trkpt><trkpt lat="43.23426702816611" lon="13.371852291350931"><ele>153.0</ele><time>2026-04-19T08:53:21Z</time></trkpt><trkpt lat="43.23423943972358" lon="13.371562567379728"><ele>153.66666666666666</ele><time>2026-04-19T08:53:22Z</time></trkpt><trkpt lat="43.23421069999358" lon="13.371276105574394"><ele>154.33333333333331</ele><time>2026-04-19T08:53:23Z</time></trkpt><trkpt lat="43.23418426144949" lon="13.370990530411122"><ele>155.0</ele><time>2026-04-19T08:53:24Z</time></trkpt><trkpt lat="43.234154967586264" lon="13.3707015939326"><ele>155.66666666666666</ele><time>2026-04-19T08:53:25Z</time></trkpt><trkpt lat="43.23412490722188" lon="13.370414837874653"><ele>156.33333333333334</ele><time>2026-04-19T08:53:26Z</time></trkpt><trkpt lat="43.23409614752292" lon="13.370127878207732"><ele>157.0</ele><time>2026-04-19T08:53:27Z</time></trkpt><trkpt lat="43.23406641194892" lon="13.369839923301338"><ele>157.0</ele><time>2026-04-19T08:53:28Z</time></trkpt><trkpt lat="43.234038872970274" lon="13.369548561053309"><ele>157.0</ele><time>2026-04-19T08:53:28.999Z</time></trkpt><trkpt lat="43.23400802145976" lon="13.369262457791262"><ele>157.0</ele><time>2026-04-19T08:53:29.999Z</time></trkpt><trkpt lat="43.23398429521711" lon="13.368974657539079"><ele>156.33333333333334</ele><time>2026-04-19T08:53:30.999Z</time></trkpt><trkpt lat="43.23395696760784" lon="13.368690475762024"><ele>155.66666666666666</ele><time>2026-04-19T08:53:31.999Z</time></trkpt><trkpt lat="43.233930640616165" lon="13.368403313280334"><ele>155.0</ele><time>2026-04-19T08:53:32.999Z</time></trkpt><trkpt lat="43.2339030422789" lon="13.368117065201824"><ele>155.0</ele><time>2026-04-19T08:53:33.999Z</time></trkpt><trkpt lat="43.23387649453058" lon="13.367828960048845"><ele>155.0</ele><time>2026-04-19T08:53:34.999Z</time></trkpt><trkpt lat="43.23385202741986" lon="13.367541326684004"><ele>155.0</ele><time>2026-04-19T08:53:35.999Z</time></trkpt><trkpt lat="43.23382454201239" lon="13.367254653053886"><ele>155.0</ele><time>2026-04-19T08:53:36.999Z</time></trkpt><trkpt lat="43.23379428544885" lon="13.366967410526522"><ele>155.0</ele><time>2026-04-19T08:53:37.999Z</time></trkpt><trkpt lat="43.23376360320505" lon="13.366679458947123"><ele>155.0</ele><time>2026-04-19T08:53:38.999Z</time></trkpt><trkpt lat="43.23373620203965" lon="13.36639126556601"><ele>155.33333333333331</ele><time>2026-04-19T08:53:39.999Z</time></trkpt><trkpt lat="43.233709065094914" lon="13.366104639941586"><ele>155.66666666666666</ele><time>2026-04-19T08:53:40.999Z</time></trkpt><trkpt lat="43.23368232014912" lon="13.365817319902524"><ele>156.0</ele><time>2026-04-19T08:53:41.999Z</time></trkpt><trkpt lat="43.23365374200021" lon="13.365528398391808"><ele>156.33333333333334</ele><time>2026-04-19T08:53:42.999Z</time></trkpt><trkpt lat="43.233627371437976" lon="13.365243733696458"><ele>156.66666666666669</ele><time>2026-04-19T08:53:43.999Z</time></trkpt><trkpt lat="43.23359964109982" lon="13.36495530580783"><ele>157.0</ele><time>2026-04-19T08:53:44.999Z</time></trkpt><trkpt lat="43.233572638839895" lon="13.364668344806931"><ele>157.33333333333334</ele><time>2026-04-19T08:53:45.999Z</time></trkpt><trkpt lat="43.23354624926686" lon="13.364382612107121"><ele>157.66666666666666</ele><time>2026-04-19T08:53:46.999Z</time></trkpt><trkpt lat="43.23351954150238" lon="13.364096291237537"><ele>158.0</ele><time>2026-04-19T08:53:47.999Z</time></trkpt><trkpt lat="43.233495285274266" lon="13.363805953799401"><ele>158.66666666666666</ele><time>2026-04-19T08:53:48.999Z</time></trkpt><trkpt lat="43.2334683021656" lon="13.363516174181298"><ele>159.33333333333334</ele><time>2026-04-19T08:53:49.999Z</time></trkpt><trkpt lat="43.233438224906635" lon="13.363231671077482"><ele>160.0</ele><time>2026-04-19T08:53:50.999Z</time></trkpt><trkpt lat="43.23341418697964" lon="13.362945629141658"><ele>161.0</ele><time>2026-04-19T08:53:51.999Z</time></trkpt><trkpt lat="43.233384230170934" lon="13.362659038062045"><ele>162.0</ele><time>2026-04-19T08:53:52.999Z</time></trkpt><trkpt lat="43.23335766326426" lon="13.362370579751206"><ele>163.0</ele><time>2026-04-19T08:53:53.999Z</time></trkpt><trkpt lat="43.23332868618317" lon="13.362084890681546"><ele>163.0</ele><time>2026-04-19T08:53:54.999Z</time></trkpt><trkpt lat="43.23329977668789" lon="13.361797687106014"><ele>163.0</ele><time>2026-04-19T08:53:55.999Z</time></trkpt><trkpt lat="43.233272930663254" lon="13.361510796803241"><ele>163.0</ele><time>2026-04-19T08:53:56.999Z</time></trkpt><trkpt lat="43.23324515237506" lon="13.36122650444589"><ele>163.0</ele><time>2026-04-19T08:53:57.999Z</time></trkpt><trkpt lat="43.23321790445845" lon="13.3609385225712"><ele>163.0</ele><time>2026-04-19T08:53:58.999Z</time></trkpt><trkpt lat="43.233187913939354" lon="13.360654662390335"><ele>163.0</ele><time>2026-04-19T08:53:59.999Z</time></trkpt><trkpt lat="43.23316422208328" lon="13.36036594328761"><ele>161.33333333333334</ele><time>2026-04-19T08:54:00.999Z</time></trkpt><trkpt lat="43.23313513275013" lon="13.360080666427784"><ele>159.66666666666666</ele><time>2026-04-19T08:54:01.999Z</time></trkpt><trkpt lat="43.233107858254044" lon="13.359794503200701"><ele>158.0</ele><time>2026-04-19T08:54:02.999Z</time></trkpt><trkpt lat="43.233080066772075" lon="13.359508610374352"><ele>158.0</ele><time>2026-04-19T08:54:03.999Z</time></trkpt><trkpt lat="43.233052204828" lon="13.359221899636424"><ele>158.0</ele><time>2026-04-19T08:54:04.999Z</time></trkpt><trkpt lat="43.233024318078556" lon="13.35893430988573"><ele>158.0</ele><time>2026-04-19T08:54:05.999Z</time></trkpt><trkpt lat="43.2329965419398" lon="13.35864735549555"><ele>158.66666666666666</ele><time>2026-04-19T08:54:06.999Z</time></trkpt><trkpt lat="43.23296934314641" lon="13.358358861955413"><ele>159.33333333333334</ele><time>2026-04-19T08:54:07.999Z</time></trkpt><trkpt lat="43.23294100232894" lon="13.358072188142664"><ele>160.0</ele><time>2026-04-19T08:54:08.999Z</time></trkpt><trkpt lat="43.23291344964492" lon="13.357786690243707"><ele>161.33333333333334</ele><time>2026-04-19T08:54:09.999Z</time></trkpt><trkpt lat="43.23288617483563" lon="13.357499745760931"><ele>162.66666666666666</ele><time>2026-04-19T08:54:10.999Z</time></trkpt><trkpt lat="43.23285763094051" lon="13.357213080973256"><ele>164.0</ele><time>2026-04-19T08:54:11.999Z</time></trkpt><trkpt lat="43.232829705937554" lon="13.356925812520835"><ele>165.66666666666666</ele><time>2026-04-19T08:54:12.999Z</time></trkpt><trkpt lat="43.232800972858" lon="13.356638275168253"><ele>167.33333333333334</ele><time>2026-04-19T08:54:13.999Z</time></trkpt><trkpt lat="43.23277309718036" lon="13.35635261354577"><ele>169.0</ele><time>2026-04-19T08:54:14.999Z</time></trkpt><trkpt lat="43.23274247254798" lon="13.356064903951244"><ele>170.33333333333334</ele><time>2026-04-19T08:54:15.999Z</time></trkpt><trkpt lat="43.23271135523877" lon="13.355778890771793"><ele>171.66666666666666</ele><time>2026-04-19T08:54:16.999Z</time></trkpt><trkpt lat="43.23267182646335" lon="13.35549482007338"><ele>173.0</ele><time>2026-04-19T08:54:17.999Z</time></trkpt><trkpt lat="43.23262671558667" lon="13.355210248967648"><ele>173.33333333333331</ele><time>2026-04-19T08:54:18.999Z</time></trkpt><trkpt lat="43.23256506839309" lon="13.354932491859365"><ele>173.66666666666666</ele><time>2026-04-19T08:54:19.999Z</time></trkpt><trkpt lat="43.232508133713054" lon="13.354655661510021"><ele>174.0</ele><time>2026-04-19T08:54:20.999Z</time></trkpt><trkpt lat="43.232446455357945" lon="13.354371751873288"><ele>175.0</ele><time>2026-04-19T08:54:21.999Z</time></trkpt><trkpt lat="43.23237581531674" lon="13.354093822658117"><ele>176.0</ele><time>2026-04-19T08:54:22.999Z</time></trkpt><trkpt lat="43.23229912308822" lon="13.353819644511324"><ele>177.0</ele><time>2026-04-19T08:54:23.999Z</time></trkpt><trkpt lat="43.23222286182675" lon="13.353542047957587"><ele>177.33333333333334</ele><time>2026-04-19T08:54:24.999Z</time></trkpt><trkpt lat="43.23214133805189" lon="13.353278124464996"><ele>177.66666666666669</ele><time>2026-04-19T08:54:25.999Z</time></trkpt><trkpt lat="43.23204788621994" lon="13.353015415330853"><ele>178.0</ele><time>2026-04-19T08:54:26.999Z</time></trkpt><trkpt lat="43.23195395773916" lon="13.35276029381323"><ele>177.66666666666669</ele><time>2026-04-19T08:54:27.999Z</time></trkpt><trkpt lat="43.23185210338634" lon="13.352511773937335"><ele>177.33333333333334</ele><time>2026-04-19T08:54:28.999Z</time></trkpt><trkpt lat="43.23174999592636" lon="13.352254895023101"><ele>177.0</ele><time>2026-04-19T08:54:29.999Z</time></trkpt><trkpt lat="43.23165232767358" lon="13.351998284135059"><ele>177.0</ele><time>2026-04-19T08:54:30.999Z</time></trkpt><trkpt lat="43.23155280197239" lon="13.351739876081695"><ele>177.0</ele><time>2026-04-19T08:54:31.999Z</time></trkpt><trkpt lat="43.23145377498419" lon="13.351484666682344"><ele>177.0</ele><time>2026-04-19T08:54:32.999Z</time></trkpt><trkpt lat="43.23135614319084" lon="13.351227278778666"><ele>178.33333333333334</ele><time>2026-04-19T08:54:33.999Z</time></trkpt><trkpt lat="43.23125773610883" lon="13.350971356471534"><ele>179.66666666666669</ele><time>2026-04-19T08:54:34.999Z</time></trkpt><trkpt lat="43.231163732922894" lon="13.350719484263793"><ele>181.0</ele><time>2026-04-19T08:54:35.999Z</time></trkpt><trkpt lat="43.23106618796008" lon="13.350466818110071"><ele>181.0</ele><time>2026-04-19T08:54:36.999Z</time></trkpt><trkpt lat="43.23097037544463" lon="13.350204947756131"><ele>181.0</ele><time>2026-04-19T08:54:37.999Z</time></trkpt><trkpt lat="43.23087091738877" lon="13.349946685542749"><ele>181.0</ele><time>2026-04-19T08:54:38.999Z</time></trkpt><trkpt lat="43.2307747664201" lon="13.349694466549657"><ele>181.0</ele><time>2026-04-19T08:54:39.999Z</time></trkpt><trkpt lat="43.23066942562148" lon="13.349436490674437"><ele>181.0</ele><time>2026-04-19T08:54:40.999Z</time></trkpt><trkpt lat="43.230572234263555" lon="13.349178108489937"><ele>181.0</ele><time>2026-04-19T08:54:42Z</time></trkpt><trkpt lat="43.230478053830545" lon="13.348916037388012"><ele>180.33333333333334</ele><time>2026-04-19T08:54:43Z</time></trkpt><trkpt lat="43.23037891649656" lon="13.348660221768817"><ele>179.66666666666666</ele><time>2026-04-19T08:54:44Z</time></trkpt><trkpt lat="43.230277780755564" lon="13.34840238319149"><ele>179.0</ele><time>2026-04-19T08:54:45Z</time></trkpt><trkpt lat="43.23017712174165" lon="13.348145946997402"><ele>179.66666666666666</ele><time>2026-04-19T08:54:46Z</time></trkpt><trkpt lat="43.230075798296525" lon="13.347891708096917"><ele>180.33333333333334</ele><time>2026-04-19T08:54:47Z</time></trkpt><trkpt lat="43.229968451111496" lon="13.347646423035261"><ele>181.0</ele><time>2026-04-19T08:54:48Z</time></trkpt><trkpt lat="43.229860004138345" lon="13.347398651170087"><ele>179.66666666666669</ele><time>2026-04-19T08:54:49Z</time></trkpt><trkpt lat="43.229751928162855" lon="13.347148472295157"><ele>178.33333333333334</ele><time>2026-04-19T08:54:50Z</time></trkpt><trkpt lat="43.22964193499661" lon="13.34690188177687"><ele>177.0</ele><time>2026-04-19T08:54:51Z</time></trkpt><trkpt lat="43.22952983006226" lon="13.346657012219703"><ele>177.0</ele><time>2026-04-19T08:54:52Z</time></trkpt><trkpt lat="43.22941504351307" lon="13.346410016804018"><ele>177.0</ele><time>2026-04-19T08:54:53Z</time></trkpt><trkpt lat="43.22929846442358" lon="13.34616647903462"><ele>177.0</ele><time>2026-04-19T08:54:54Z</time></trkpt><trkpt lat="43.22918078097323" lon="13.345928794879923"><ele>176.33333333333334</ele><time>2026-04-19T08:54:55Z</time></trkpt><trkpt lat="43.229059149098546" lon="13.345687264696002"><ele>175.66666666666669</ele><time>2026-04-19T08:54:56Z</time></trkpt><trkpt lat="43.22893406826208" lon="13.345454795931824"><ele>175.0</ele><time>2026-04-19T08:54:57Z</time></trkpt><trkpt lat="43.22880476458559" lon="13.345221013414813"><ele>175.0</ele><time>2026-04-19T08:54:58Z</time></trkpt><trkpt lat="43.2286710096585" lon="13.344999783271792"><ele>175.0</ele><time>2026-04-19T08:54:59Z</time></trkpt><trkpt lat="43.228531394542024" lon="13.3447787851797"><ele>175.0</ele><time>2026-04-19T08:55:00Z</time></trkpt><trkpt lat="43.228387646686784" lon="13.344567415379723"><ele>174.66666666666669</ele><time>2026-04-19T08:55:01Z</time></trkpt><trkpt lat="43.228240484695725" lon="13.344357410981459"><ele>174.33333333333334</ele><time>2026-04-19T08:55:02Z</time></trkpt><trkpt lat="43.22808627117379" lon="13.344158314575079"><ele>174.0</ele><time>2026-04-19T08:55:03Z</time></trkpt><trkpt lat="43.22792586182155" lon="13.343966067264999"><ele>174.0</ele><time>2026-04-19T08:55:04Z</time></trkpt><trkpt lat="43.22776315347673" lon="13.343784596986595"><ele>174.0</ele><time>2026-04-19T08:55:05Z</time></trkpt><trkpt lat="43.227595401701606" lon="13.343606853593567"><ele>174.0</ele><time>2026-04-19T08:55:06Z</time></trkpt><trkpt lat="43.22742355746453" lon="13.343436829221277"><ele>173.33333333333334</ele><time>2026-04-19T08:55:07Z</time></trkpt><trkpt lat="43.227249690912544" lon="13.343270822101658"><ele>172.66666666666669</ele><time>2026-04-19T08:55:08Z</time></trkpt><trkpt lat="43.227072092758135" lon="13.343109131313373"><ele>172.0</ele><time>2026-04-19T08:55:09Z</time></trkpt><trkpt lat="43.22689212362859" lon="13.342958613716984"><ele>172.0</ele><time>2026-04-19T08:55:10Z</time></trkpt><trkpt lat="43.226710759813656" lon="13.34280910758551"><ele>172.0</ele><time>2026-04-19T08:55:11Z</time></trkpt><trkpt lat="43.226528102000046" lon="13.342656050229833"><ele>172.0</ele><time>2026-04-19T08:55:12Z</time></trkpt><trkpt lat="43.22634601407273" lon="13.34250416159985"><ele>171.66666666666669</ele><time>2026-04-19T08:55:13Z</time></trkpt><trkpt lat="43.226166797155535" lon="13.342355572310286"><ele>171.33333333333334</ele><time>2026-04-19T08:55:14Z</time></trkpt><trkpt lat="43.22598725616706" lon="13.342205421965822"><ele>171.0</ele><time>2026-04-19T08:55:15Z</time></trkpt><trkpt lat="43.22580486212807" lon="13.342052546002748"><ele>170.33333333333334</ele><time>2026-04-19T08:55:16Z</time></trkpt><trkpt lat="43.22562331708647" lon="13.341904740921192"><ele>169.66666666666669</ele><time>2026-04-19T08:55:17Z</time></trkpt><trkpt lat="43.22544308846841" lon="13.341756910537145"><ele>169.0</ele><time>2026-04-19T08:55:18Z</time></trkpt><trkpt lat="43.225262094583655" lon="13.341610528181658"><ele>169.0</ele><time>2026-04-19T08:55:19Z</time></trkpt><trkpt lat="43.22508097304298" lon="13.341458705323117"><ele>169.0</ele><time>2026-04-19T08:55:20Z</time></trkpt><trkpt lat="43.22489985453881" lon="13.341309136450663"><ele>169.0</ele><time>2026-04-19T08:55:21Z</time></trkpt><trkpt lat="43.22471875277633" lon="13.341156118508417"><ele>169.33333333333334</ele><time>2026-04-19T08:55:22Z</time></trkpt><trkpt lat="43.22453712476268" lon="13.34100280424687"><ele>169.66666666666666</ele><time>2026-04-19T08:55:23Z</time></trkpt><trkpt lat="43.22435603708547" lon="13.340851624800935"><ele>170.0</ele><time>2026-04-19T08:55:24Z</time></trkpt><trkpt lat="43.224176188388135" lon="13.340700499520125"><ele>170.0</ele><time>2026-04-19T08:55:25Z</time></trkpt><trkpt lat="43.223994286817046" lon="13.340548762755265"><ele>170.0</ele><time>2026-04-19T08:55:26Z</time></trkpt><trkpt lat="43.223814893056534" lon="13.340400362330099"><ele>170.0</ele><time>2026-04-19T08:55:27Z</time></trkpt><trkpt lat="43.22363401430651" lon="13.340247397605348"><ele>170.0</ele><time>2026-04-19T08:55:28Z</time></trkpt><trkpt lat="43.22345282204251" lon="13.340095150853438"><ele>170.0</ele><time>2026-04-19T08:55:29Z</time></trkpt><trkpt lat="43.223271446818245" lon="13.339950408624969"><ele>170.0</ele><time>2026-04-19T08:55:30Z</time></trkpt><trkpt lat="43.2230896584925" lon="13.339803073314643"><ele>170.66666666666666</ele><time>2026-04-19T08:55:31Z</time></trkpt><trkpt lat="43.22290940371501" lon="13.33965507332718"><ele>171.33333333333334</ele><time>2026-04-19T08:55:32Z</time></trkpt><trkpt lat="43.22272868688743" lon="13.33950131255015"><ele>172.0</ele><time>2026-04-19T08:55:33Z</time></trkpt><trkpt lat="43.22254938089727" lon="13.339349413377864"><ele>172.0</ele><time>2026-04-19T08:55:34Z</time></trkpt><trkpt lat="43.2223695342216" lon="13.33919948179445"><ele>172.0</ele><time>2026-04-19T08:55:34.999Z</time></trkpt><trkpt lat="43.222187970211" lon="13.339048964244204"><ele>172.0</ele><time>2026-04-19T08:55:35.999Z</time></trkpt><trkpt lat="43.22200568235062" lon="13.33889696096764"><ele>172.66666666666669</ele><time>2026-04-19T08:55:36.999Z</time></trkpt><trkpt lat="43.22182423791743" lon="13.338748123830655"><ele>173.33333333333334</ele><time>2026-04-19T08:55:37.999Z</time></trkpt><trkpt lat="43.221642518280596" lon="13.338601568370061"><ele>174.0</ele><time>2026-04-19T08:55:38.999Z</time></trkpt><trkpt lat="43.22146114347864" lon="13.338451371835635"><ele>174.0</ele><time>2026-04-19T08:55:39.999Z</time></trkpt><trkpt lat="43.221279651480714" lon="13.338302388263749"><ele>174.0</ele><time>2026-04-19T08:55:40.999Z</time></trkpt><trkpt lat="43.22109896983016" lon="13.338150041602542"><ele>174.0</ele><time>2026-04-19T08:55:41.999Z</time></trkpt><trkpt lat="43.22091686548777" lon="13.337997087829232"><ele>173.66666666666666</ele><time>2026-04-19T08:55:42.999Z</time></trkpt><trkpt lat="43.22073688090414" lon="13.337844754849915"><ele>173.33333333333331</ele><time>2026-04-19T08:55:43.999Z</time></trkpt><trkpt lat="43.2205552185923" lon="13.337697340932095"><ele>173.0</ele><time>2026-04-19T08:55:44.999Z</time></trkpt><trkpt lat="43.22037616770562" lon="13.337542312191891"><ele>173.0</ele><time>2026-04-19T08:55:45.999Z</time></trkpt><trkpt lat="43.220194349174555" lon="13.337394833354471"><ele>173.0</ele><time>2026-04-19T08:55:46.999Z</time></trkpt><trkpt lat="43.2200142023622" lon="13.33724432481045"><ele>173.0</ele><time>2026-04-19T08:55:47.999Z</time></trkpt><trkpt lat="43.21983181694504" lon="13.33709440104569"><ele>172.66666666666666</ele><time>2026-04-19T08:55:48.999Z</time></trkpt><trkpt lat="43.21965118147688" lon="13.336942700534856"><ele>172.33333333333334</ele><time>2026-04-19T08:55:49.999Z</time></trkpt><trkpt lat="43.21946879222348" lon="13.336792505415545"><ele>172.0</ele><time>2026-04-19T08:55:50.999Z</time></trkpt><trkpt lat="43.21928685401192" lon="13.336644738431424"><ele>172.0</ele><time>2026-04-19T08:55:51.999Z</time></trkpt><trkpt lat="43.21910630245538" lon="13.336494775672813"><ele>172.0</ele><time>2026-04-19T08:55:52.999Z</time></trkpt><trkpt lat="43.21892440372681" lon="13.336346001682728"><ele>172.0</ele><time>2026-04-19T08:55:53.999Z</time></trkpt><trkpt lat="43.218743604192426" lon="13.336194793857354"><ele>172.33333333333334</ele><time>2026-04-19T08:55:54.999Z</time></trkpt><trkpt lat="43.21856274235531" lon="13.336046550311242"><ele>172.66666666666666</ele><time>2026-04-19T08:55:55.999Z</time></trkpt><trkpt lat="43.21838235245156" lon="13.335892279642364"><ele>173.0</ele><time>2026-04-19T08:55:56.999Z</time></trkpt><trkpt lat="43.218201644254876" lon="13.335743052932674"><ele>172.66666666666666</ele><time>2026-04-19T08:55:57.999Z</time></trkpt><trkpt lat="43.21802173925895" lon="13.335592593714418"><ele>172.33333333333334</ele><time>2026-04-19T08:55:58.999Z</time></trkpt><trkpt lat="43.21784211924383" lon="13.335439685251709"><ele>172.0</ele><time>2026-04-19T08:55:59.999Z</time></trkpt><trkpt lat="43.21766532268455" lon="13.33528537867998"><ele>172.0</ele><time>2026-04-19T08:56:00.999Z</time></trkpt><trkpt lat="43.217490124831464" lon="13.335120492111184"><ele>172.0</ele><time>2026-04-19T08:56:01.999Z</time></trkpt><trkpt lat="43.21731799855213" lon="13.334944407743349"><ele>172.0</ele><time>2026-04-19T08:56:02.999Z</time></trkpt><trkpt lat="43.217149178481876" lon="13.334769237146572"><ele>173.0</ele><time>2026-04-19T08:56:03.999Z</time></trkpt><trkpt lat="43.21698951157477" lon="13.33457502409127"><ele>174.0</ele><time>2026-04-19T08:56:04.999Z</time></trkpt><trkpt lat="43.21684250635307" lon="13.33436535121988"><ele>175.0</ele><time>2026-04-19T08:56:05.999Z</time></trkpt><trkpt lat="43.216701614633166" lon="13.334148380224878"><ele>175.0</ele><time>2026-04-19T08:56:06.999Z</time></trkpt><trkpt lat="43.216566506956234" lon="13.333926722760184"><ele>175.0</ele><time>2026-04-19T08:56:07.999Z</time></trkpt><trkpt lat="43.21643799722618" lon="13.333696606854405"><ele>175.0</ele><time>2026-04-19T08:56:08.999Z</time></trkpt><trkpt lat="43.21631832115089" lon="13.333456441393983"><ele>176.0</ele><time>2026-04-19T08:56:09.999Z</time></trkpt><trkpt lat="43.216207983919354" lon="13.3332082771361"><ele>177.0</ele><time>2026-04-19T08:56:10.999Z</time></trkpt><trkpt lat="43.216104279638266" lon="13.332952798514976"><ele>178.0</ele><time>2026-04-19T08:56:11.999Z</time></trkpt><trkpt lat="43.21601174113894" lon="13.332691802386092"><ele>178.0</ele><time>2026-04-19T08:56:12.999Z</time></trkpt><trkpt lat="43.21592685755236" lon="13.332427148390828"><ele>178.0</ele><time>2026-04-19T08:56:13.999Z</time></trkpt><trkpt lat="43.215849851153436" lon="13.332157155578038"><ele>178.0</ele><time>2026-04-19T08:56:14.999Z</time></trkpt><trkpt lat="43.215786812436356" lon="13.331881305835083"><ele>177.33333333333334</ele><time>2026-04-19T08:56:15.999Z</time></trkpt><trkpt lat="43.21573483713906" lon="13.331598257783904"><ele>176.66666666666666</ele><time>2026-04-19T08:56:16.999Z</time></trkpt><trkpt lat="43.21568798135007" lon="13.331315325715945"><ele>176.0</ele><time>2026-04-19T08:56:17.999Z</time></trkpt><trkpt lat="43.21564900342247" lon="13.331031227213492"><ele>178.66666666666666</ele><time>2026-04-19T08:56:18.999Z</time></trkpt><trkpt lat="43.21562206491679" lon="13.330743345272671"><ele>181.33333333333334</ele><time>2026-04-19T08:56:19.999Z</time></trkpt><trkpt lat="43.21560723896444" lon="13.330452735308981"><ele>184.0</ele><time>2026-04-19T08:56:20.999Z</time></trkpt><trkpt lat="43.21559812376652" lon="13.330162851700736"><ele>184.33333333333334</ele><time>2026-04-19T08:56:21.999Z</time></trkpt><trkpt lat="43.215595169075854" lon="13.329873298955773"><ele>184.66666666666666</ele><time>2026-04-19T08:56:22.999Z</time></trkpt><trkpt lat="43.21559606997486" lon="13.329583717523633"><ele>185.0</ele><time>2026-04-19T08:56:23.999Z</time></trkpt><trkpt lat="43.21559808277543" lon="13.329294149822648"><ele>186.33333333333331</ele><time>2026-04-19T08:56:24.999Z</time></trkpt><trkpt lat="43.21559918124679" lon="13.329004317260098"><ele>187.66666666666666</ele><time>2026-04-19T08:56:25.999Z</time></trkpt><trkpt lat="43.21559960658216" lon="13.32871482506123"><ele>189.0</ele><time>2026-04-19T08:56:26.999Z</time></trkpt><trkpt lat="43.21559653917249" lon="13.328424491024663"><ele>189.0</ele><time>2026-04-19T08:56:27.999Z</time></trkpt><trkpt lat="43.215598751466445" lon="13.32813543579971"><ele>189.0</ele><time>2026-04-19T08:56:28.999Z</time></trkpt><trkpt lat="43.2155995770504" lon="13.327845255519605"><ele>189.0</ele><time>2026-04-19T08:56:29.999Z</time></trkpt><trkpt lat="43.21560012062486" lon="13.32755565007559"><ele>189.0</ele><time>2026-04-19T08:56:30.999Z</time></trkpt><trkpt lat="43.21559998767464" lon="13.32726746355663"><ele>189.0</ele><time>2026-04-19T08:56:31.999Z</time></trkpt><trkpt lat="43.215596077546735" lon="13.326977323961533"><ele>189.0</ele><time>2026-04-19T08:56:32.999Z</time></trkpt><trkpt lat="43.215592048841934" lon="13.326691160146789"><ele>190.0</ele><time>2026-04-19T08:56:33.999Z</time></trkpt><trkpt lat="43.21558694475792" lon="13.326399157225598"><ele>191.0</ele><time>2026-04-19T08:56:34.999Z</time></trkpt><trkpt lat="43.215585360111355" lon="13.326105818352467"><ele>192.0</ele><time>2026-04-19T08:56:35.999Z</time></trkpt><trkpt lat="43.21557620584567" lon="13.325815757532022"><ele>192.0</ele><time>2026-04-19T08:56:36.999Z</time></trkpt><trkpt lat="43.215557318814774" lon="13.32552294107298"><ele>192.0</ele><time>2026-04-19T08:56:37.999Z</time></trkpt><trkpt lat="43.21553222416275" lon="13.325235018644426"><ele>192.0</ele><time>2026-04-19T08:56:38.999Z</time></trkpt><trkpt lat="43.21549376596518" lon="13.324950567286553"><ele>190.33333333333334</ele><time>2026-04-19T08:56:39.999Z</time></trkpt><trkpt lat="43.215446408241355" lon="13.324669926085953"><ele>188.66666666666669</ele><time>2026-04-19T08:56:40.999Z</time></trkpt><trkpt lat="43.21538987920374" lon="13.324394822402876"><ele>187.0</ele><time>2026-04-19T08:56:41.999Z</time></trkpt><trkpt lat="43.21533429354249" lon="13.324115404474709"><ele>185.66666666666669</ele><time>2026-04-19T08:56:42.999Z</time></trkpt><trkpt lat="43.215280723743604" lon="13.323833500160347"><ele>184.33333333333334</ele><time>2026-04-19T08:56:43.999Z</time></trkpt><trkpt lat="43.21522769572218" lon="13.323552332927623"><ele>183.0</ele><time>2026-04-19T08:56:44.999Z</time></trkpt><trkpt lat="43.21517470880409" lon="13.32327052593235"><ele>182.66666666666666</ele><time>2026-04-19T08:56:45.999Z</time></trkpt><trkpt lat="43.215121518990124" lon="13.322987881124506"><ele>182.33333333333331</ele><time>2026-04-19T08:56:46.999Z</time></trkpt><trkpt lat="43.21506845879561" lon="13.322706109514737"><ele>182.0</ele><time>2026-04-19T08:56:48Z</time></trkpt><trkpt lat="43.21501387735283" lon="13.32242459616097"><ele>181.66666666666666</ele><time>2026-04-19T08:56:49Z</time></trkpt><trkpt lat="43.21495801054947" lon="13.322146555207569"><ele>181.33333333333334</ele><time>2026-04-19T08:56:50Z</time></trkpt><trkpt lat="43.21490150345643" lon="13.321867731314212"><ele>181.0</ele><time>2026-04-19T08:56:51Z</time></trkpt><trkpt lat="43.21484625655772" lon="13.321589522089177"><ele>182.66666666666669</ele><time>2026-04-19T08:56:52Z</time></trkpt><trkpt lat="43.214792405031886" lon="13.321312436164964"><ele>184.33333333333334</ele><time>2026-04-19T08:56:53Z</time></trkpt><trkpt lat="43.21473878872181" lon="13.321033164205552"><ele>186.0</ele><time>2026-04-19T08:56:54Z</time></trkpt><trkpt lat="43.21468260886902" lon="13.320755710332314"><ele>186.33333333333334</ele><time>2026-04-19T08:56:55Z</time></trkpt><trkpt lat="43.21462572415013" lon="13.320473659654072"><ele>186.66666666666669</ele><time>2026-04-19T08:56:56Z</time></trkpt><trkpt lat="43.21456811306555" lon="13.320192205146752"><ele>187.0</ele><time>2026-04-19T08:56:57Z</time></trkpt><trkpt lat="43.214510824091754" lon="13.319912947563981"><ele>186.33333333333334</ele><time>2026-04-19T08:56:58Z</time></trkpt><trkpt lat="43.21445711710725" lon="13.319628952937645"><ele>185.66666666666666</ele><time>2026-04-19T08:56:59Z</time></trkpt><trkpt lat="43.21440452919477" lon="13.319347524737054"><ele>185.0</ele><time>2026-04-19T08:57:00Z</time></trkpt><trkpt lat="43.21435183715298" lon="13.319069180189507"><ele>185.0</ele><time>2026-04-19T08:57:01Z</time></trkpt><trkpt lat="43.214297251717724" lon="13.318788824171975"><ele>185.0</ele><time>2026-04-19T08:57:02Z</time></trkpt><trkpt lat="43.2142428675082" lon="13.318508374533964"><ele>185.0</ele><time>2026-04-19T08:57:03Z</time></trkpt><trkpt lat="43.21418763714791" lon="13.318231014580162"><ele>184.33333333333331</ele><time>2026-04-19T08:57:04Z</time></trkpt><trkpt lat="43.214135394321296" lon="13.317954191872694"><ele>183.66666666666666</ele><time>2026-04-19T08:57:05Z</time></trkpt><trkpt lat="43.214083851692955" lon="13.317673549860729"><ele>183.0</ele><time>2026-04-19T08:57:06Z</time></trkpt><trkpt lat="43.21402753272526" lon="13.317393143601725"><ele>183.66666666666666</ele><time>2026-04-19T08:57:07Z</time></trkpt><trkpt lat="43.21396946019508" lon="13.317112460121118"><ele>184.33333333333331</ele><time>2026-04-19T08:57:08Z</time></trkpt><trkpt lat="43.21391412769513" lon="13.316832418431806"><ele>185.0</ele><time>2026-04-19T08:57:09Z</time></trkpt><trkpt lat="43.21386006579009" lon="13.316552166272299"><ele>184.66666666666666</ele><time>2026-04-19T08:57:10Z</time></trkpt><trkpt lat="43.2138033636734" lon="13.316273118840641"><ele>184.33333333333334</ele><time>2026-04-19T08:57:11Z</time></trkpt><trkpt lat="43.21374596062503" lon="13.31599514983498"><ele>184.0</ele><time>2026-04-19T08:57:12Z</time></trkpt><trkpt lat="43.213691149040315" lon="13.315714008764928"><ele>183.66666666666669</ele><time>2026-04-19T08:57:13Z</time></trkpt><trkpt lat="43.21363998790694" lon="13.315434279505885"><ele>183.33333333333334</ele><time>2026-04-19T08:57:14Z</time></trkpt><trkpt lat="43.21358330994895" lon="13.31515540032608"><ele>183.0</ele><time>2026-04-19T08:57:15Z</time></trkpt><trkpt lat="43.21352592983684" lon="13.314877054393579"><ele>183.66666666666666</ele><time>2026-04-19T08:57:16Z</time></trkpt><trkpt lat="43.21346552974068" lon="13.314597520544494"><ele>184.33333333333331</ele><time>2026-04-19T08:57:17Z</time></trkpt><trkpt lat="43.213401412693166" lon="13.31431960760695"><ele>185.0</ele><time>2026-04-19T08:57:18Z</time></trkpt><trkpt lat="43.21333395116556" lon="13.314043848867112"><ele>185.0</ele><time>2026-04-19T08:57:19Z</time></trkpt><trkpt lat="43.213262198831025" lon="13.313773590644615"><ele>185.0</ele><time>2026-04-19T08:57:20Z</time></trkpt><trkpt lat="43.21318617887705" lon="13.31350282820901"><ele>185.0</ele><time>2026-04-19T08:57:21Z</time></trkpt><trkpt lat="43.21310874160794" lon="13.313233971292973"><ele>185.0</ele><time>2026-04-19T08:57:22Z</time></trkpt><trkpt lat="43.21302212024592" lon="13.312966749011299"><ele>185.0</ele><time>2026-04-19T08:57:23Z</time></trkpt><trkpt lat="43.21293595444779" lon="13.312705852638087"><ele>185.0</ele><time>2026-04-19T08:57:24Z</time></trkpt><trkpt lat="43.21284499033794" lon="13.312449996904911"><ele>185.33333333333331</ele><time>2026-04-19T08:57:25Z</time></trkpt><trkpt lat="43.21274637092812" lon="13.312194198260828"><ele>185.66666666666666</ele><time>2026-04-19T08:57:26Z</time></trkpt><trkpt lat="43.21264280619836" lon="13.311941391786311"><ele>186.0</ele><time>2026-04-19T08:57:27Z</time></trkpt><trkpt lat="43.212534270953725" lon="13.311690820781704"><ele>186.0</ele><time>2026-04-19T08:57:28Z</time></trkpt><trkpt lat="43.21242254888538" lon="13.311444497725514"><ele>186.0</ele><time>2026-04-19T08:57:29Z</time></trkpt><trkpt lat="43.21230810582918" lon="13.311199149853909"><ele>186.0</ele><time>2026-04-19T08:57:30Z</time></trkpt><trkpt lat="43.21218826970852" lon="13.310955130103892"><ele>186.33333333333334</ele><time>2026-04-19T08:57:31Z</time></trkpt><trkpt lat="43.2120646430049" lon="13.310703478191206"><ele>186.66666666666669</ele><time>2026-04-19T08:57:32Z</time></trkpt><trkpt lat="43.211940620471616" lon="13.310448865893036"><ele>187.0</ele><time>2026-04-19T08:57:33Z</time></trkpt><trkpt lat="43.211831993400665" lon="13.31024052571164"><ele>187.66666666666669</ele><time>2026-04-19T08:57:34Z</time></trkpt><trkpt lat="43.211707028440046" lon="13.310007936164768"><ele>188.33333333333334</ele><time>2026-04-19T08:57:35Z</time></trkpt><trkpt lat="43.211583565349876" lon="13.309773260100085"><ele>189.0</ele><time>2026-04-19T08:57:36Z</time></trkpt><trkpt lat="43.21145800143637" lon="13.309534942604953"><ele>189.0</ele><time>2026-04-19T08:57:37Z</time></trkpt><trkpt lat="43.21133533586552" lon="13.309297847847116"><ele>189.0</ele><time>2026-04-19T08:57:38Z</time></trkpt><trkpt lat="43.211213724262386" lon="13.309061729585888"><ele>189.0</ele><time>2026-04-19T08:57:39Z</time></trkpt><trkpt lat="43.211087003816324" lon="13.308828283559222"><ele>188.66666666666666</ele><time>2026-04-19T08:57:40Z</time></trkpt><trkpt lat="43.210961631456364" lon="13.308593050997743"><ele>188.33333333333331</ele><time>2026-04-19T08:57:41Z</time></trkpt><trkpt lat="43.21083770422139" lon="13.308363618690075"><ele>188.0</ele><time>2026-04-19T08:57:42Z</time></trkpt><trkpt lat="43.21071399974196" lon="13.308125578288433"><ele>188.66666666666666</ele><time>2026-04-19T08:57:43Z</time></trkpt><trkpt lat="43.210590417881654" lon="13.307883555266733"><ele>189.33333333333334</ele><time>2026-04-19T08:57:44Z</time></trkpt><trkpt lat="43.210465951266066" lon="13.307651578347619"><ele>190.0</ele><time>2026-04-19T08:57:45Z</time></trkpt><trkpt lat="43.21034144782254" lon="13.307415042836416"><ele>190.33333333333334</ele><time>2026-04-19T08:57:45.999Z</time></trkpt><trkpt lat="43.21021841737845" lon="13.307182930490285"><ele>190.66666666666666</ele><time>2026-04-19T08:57:46.999Z</time></trkpt><trkpt lat="43.21009495974092" lon="13.306950235058455"><ele>191.0</ele><time>2026-04-19T08:57:47.999Z</time></trkpt><trkpt lat="43.2099699928662" lon="13.306718801810536"><ele>191.0</ele><time>2026-04-19T08:57:48.999Z</time></trkpt><trkpt lat="43.2098477606917" lon="13.306481496159906"><ele>191.0</ele><time>2026-04-19T08:57:49.999Z</time></trkpt><trkpt lat="43.209722747190426" lon="13.30624888711503"><ele>191.0</ele><time>2026-04-19T08:57:50.999Z</time></trkpt><trkpt lat="43.209600275159865" lon="13.306009687769848"><ele>190.66666666666666</ele><time>2026-04-19T08:57:51.999Z</time></trkpt><trkpt lat="43.20947522834784" lon="13.305775384895432"><ele>190.33333333333334</ele><time>2026-04-19T08:57:52.999Z</time></trkpt><trkpt lat="43.209352455025616" lon="13.305540434282012"><ele>190.0</ele><time>2026-04-19T08:57:53.999Z</time></trkpt><trkpt lat="43.209227433214814" lon="13.305305741431498"><ele>190.0</ele><time>2026-04-19T08:57:54.999Z</time></trkpt><trkpt lat="43.20910112704544" lon="13.305072595557808"><ele>190.0</ele><time>2026-04-19T08:57:55.999Z</time></trkpt><trkpt lat="43.20897751061617" lon="13.304840180434985"><ele>190.0</ele><time>2026-04-19T08:57:56.999Z</time></trkpt><trkpt lat="43.20885660570288" lon="13.304603548896607"><ele>190.0</ele><time>2026-04-19T08:57:57.999Z</time></trkpt><trkpt lat="43.20873413244434" lon="13.30436714869072"><ele>190.0</ele><time>2026-04-19T08:57:58.999Z</time></trkpt><trkpt lat="43.208608715250584" lon="13.304133365264354"><ele>190.0</ele><time>2026-04-19T08:57:59.999Z</time></trkpt><trkpt lat="43.20848412547696" lon="13.303897095079154"><ele>190.0</ele><time>2026-04-19T08:58:00.999Z</time></trkpt><trkpt lat="43.208359115777604" lon="13.30366624057088"><ele>190.0</ele><time>2026-04-19T08:58:01.999Z</time></trkpt><trkpt lat="43.20823542176739" lon="13.303432376755463"><ele>190.0</ele><time>2026-04-19T08:58:02.999Z</time></trkpt><trkpt lat="43.208115591273604" lon="13.303195936460288"><ele>190.0</ele><time>2026-04-19T08:58:03.999Z</time></trkpt><trkpt lat="43.20799278611147" lon="13.302960061155538"><ele>190.0</ele><time>2026-04-19T08:58:04.999Z</time></trkpt><trkpt lat="43.207869411093846" lon="13.302725762109837"><ele>190.0</ele><time>2026-04-19T08:58:05.999Z</time></trkpt><trkpt lat="43.20774314586608" lon="13.30249363610201"><ele>190.0</ele><time>2026-04-19T08:58:06.999Z</time></trkpt><trkpt lat="43.207619498155346" lon="13.302258759721141"><ele>190.0</ele><time>2026-04-19T08:58:07.999Z</time></trkpt><trkpt lat="43.207497074036404" lon="13.30201839912149"><ele>190.0</ele><time>2026-04-19T08:58:08.999Z</time></trkpt><trkpt lat="43.20737421772931" lon="13.301782863266736"><ele>193.33333333333334</ele><time>2026-04-19T08:58:09.999Z</time></trkpt><trkpt lat="43.20725358379477" lon="13.301547208848941"><ele>196.66666666666669</ele><time>2026-04-19T08:58:10.999Z</time></trkpt><trkpt lat="43.207127001337106" lon="13.301315480047169"><ele>200.0</ele><time>2026-04-19T08:58:11.999Z</time></trkpt><trkpt lat="43.20700418025179" lon="13.301084526705115"><ele>200.0</ele><time>2026-04-19T08:58:12.999Z</time></trkpt><trkpt lat="43.20687957918529" lon="13.300847434298058"><ele>200.0</ele><time>2026-04-19T08:58:13.999Z</time></trkpt><trkpt lat="43.20675334710601" lon="13.30061328531501"><ele>200.0</ele><time>2026-04-19T08:58:14.999Z</time></trkpt><trkpt lat="43.20662603107032" lon="13.300377355607008"><ele>200.0</ele><time>2026-04-19T08:58:15.999Z</time></trkpt><trkpt lat="43.20650356983035" lon="13.30014420791769"><ele>200.0</ele><time>2026-04-19T08:58:16.999Z</time></trkpt><trkpt lat="43.20638241831419" lon="13.299909555518484"><ele>200.0</ele><time>2026-04-19T08:58:17.999Z</time></trkpt><trkpt lat="43.20625996886553" lon="13.299671604091046"><ele>204.0</ele><time>2026-04-19T08:58:18.999Z</time></trkpt><trkpt lat="43.206136415916525" lon="13.299436264339594"><ele>208.0</ele><time>2026-04-19T08:58:19.999Z</time></trkpt><trkpt lat="43.20601203653615" lon="13.29920045281596"><ele>212.0</ele><time>2026-04-19T08:58:20.999Z</time></trkpt><trkpt lat="43.205888471997724" lon="13.298966905431529"><ele>213.33333333333334</ele><time>2026-04-19T08:58:21.999Z</time></trkpt><trkpt lat="43.20576290905102" lon="13.298732864821455"><ele>214.66666666666669</ele><time>2026-04-19T08:58:22.999Z</time></trkpt><trkpt lat="43.205640720694575" lon="13.298497297765724"><ele>216.0</ele><time>2026-04-19T08:58:23.999Z</time></trkpt><trkpt lat="43.20551285119815" lon="13.298266792549885"><ele>214.0</ele><time>2026-04-19T08:58:24.999Z</time></trkpt><trkpt lat="43.20538765311349" lon="13.298031914668696"><ele>212.0</ele><time>2026-04-19T08:58:25.999Z</time></trkpt><trkpt lat="43.20526405157464" lon="13.2977952191935"><ele>210.0</ele><time>2026-04-19T08:58:26.999Z</time></trkpt><trkpt lat="43.205142200308785" lon="13.297560373405172"><ele>210.0</ele><time>2026-04-19T08:58:27.999Z</time></trkpt><trkpt lat="43.205021344486596" lon="13.297322323313711"><ele>210.0</ele><time>2026-04-19T08:58:28.999Z</time></trkpt><trkpt lat="43.204905638428166" lon="13.297079390221464"><ele>210.0</ele><time>2026-04-19T08:58:29.999Z</time></trkpt><trkpt lat="43.20479307789767" lon="13.296833262219003"><ele>209.66666666666669</ele><time>2026-04-19T08:58:30.999Z</time></trkpt><trkpt lat="43.20468794823631" lon="13.296582297147834"><ele>209.33333333333334</ele><time>2026-04-19T08:58:31.999Z</time></trkpt><trkpt lat="43.20459653923079" lon="13.296322099262843"><ele>209.0</ele><time>2026-04-19T08:58:32.999Z</time></trkpt><trkpt lat="43.204507816009325" lon="13.296056160882092"><ele>209.66666666666669</ele><time>2026-04-19T08:58:33.999Z</time></trkpt><trkpt lat="43.204432775621925" lon="13.295787207529349"><ele>210.33333333333331</ele><time>2026-04-19T08:58:34.999Z</time></trkpt><trkpt lat="43.20436987055846" lon="13.295514131935676"><ele>211.0</ele><time>2026-04-19T08:58:35.999Z</time></trkpt><trkpt lat="43.20431183516413" lon="13.295233500415046"><ele>212.66666666666666</ele><time>2026-04-19T08:58:36.999Z</time></trkpt><trkpt lat="43.20426203877158" lon="13.294950797623752"><ele>214.33333333333331</ele><time>2026-04-19T08:58:37.999Z</time></trkpt><trkpt lat="43.20422168772224" lon="13.294666496998818"><ele>216.0</ele><time>2026-04-19T08:58:38.999Z</time></trkpt><trkpt lat="43.2041939886613" lon="13.294377269648901"><ele>216.0</ele><time>2026-04-19T08:58:39.999Z</time></trkpt><trkpt lat="43.2041798936115" lon="13.2940868757832"><ele>216.0</ele><time>2026-04-19T08:58:40.999Z</time></trkpt><trkpt lat="43.204175713243835" lon="13.293795952420021"><ele>216.0</ele><time>2026-04-19T08:58:41.999Z</time></trkpt><trkpt lat="43.20417801740167" lon="13.293507010459994"><ele>216.66666666666669</ele><time>2026-04-19T08:58:42.999Z</time></trkpt><trkpt lat="43.2041830611142" lon="13.29321644563113"><ele>217.33333333333334</ele><time>2026-04-19T08:58:43.999Z</time></trkpt><trkpt lat="43.20419215284362" lon="13.292929082728813"><ele>218.0</ele><time>2026-04-19T08:58:44.999Z</time></trkpt><trkpt lat="43.20420620403612" lon="13.292642793295476"><ele>218.33333333333334</ele><time>2026-04-19T08:58:45.999Z</time></trkpt><trkpt lat="43.20421710220399" lon="13.292351626444447"><ele>218.66666666666669</ele><time>2026-04-19T08:58:46.999Z</time></trkpt><trkpt lat="43.20422444968813" lon="13.292059622373047"><ele>219.0</ele><time>2026-04-19T08:58:47.999Z</time></trkpt><trkpt lat="43.20423470659239" lon="13.291773042471299"><ele>219.0</ele><time>2026-04-19T08:58:48.999Z</time></trkpt><trkpt lat="43.204241843118176" lon="13.291481936952323"><ele>219.0</ele><time>2026-04-19T08:58:49.999Z</time></trkpt><trkpt lat="43.204251118384796" lon="13.291190182534931"><ele>219.0</ele><time>2026-04-19T08:58:50.999Z</time></trkpt><trkpt lat="43.20425966650446" lon="13.290895823141202"><ele>218.33333333333331</ele><time>2026-04-19T08:58:51.999Z</time></trkpt><trkpt lat="43.20426892962629" lon="13.290610813585857"><ele>217.66666666666666</ele><time>2026-04-19T08:58:52.999Z</time></trkpt><trkpt lat="43.20427831369416" lon="13.290320310824688"><ele>217.0</ele><time>2026-04-19T08:58:54Z</time></trkpt><trkpt lat="43.204289973186064" lon="13.290029969544882"><ele>218.33333333333331</ele><time>2026-04-19T08:58:55Z</time></trkpt><trkpt lat="43.20430014091637" lon="13.289740736250659"><ele>219.66666666666669</ele><time>2026-04-19T08:58:56Z</time></trkpt><trkpt lat="43.20431136086645" lon="13.289451884684185"><ele>221.0</ele><time>2026-04-19T08:58:57Z</time></trkpt><trkpt lat="43.20432229559607" lon="13.289162082772819"><ele>223.0</ele><time>2026-04-19T08:58:58Z</time></trkpt><trkpt lat="43.204331870614055" lon="13.288873766696712"><ele>225.0</ele><time>2026-04-19T08:58:59Z</time></trkpt><trkpt lat="43.20434247929836" lon="13.288584836891664"><ele>227.0</ele><time>2026-04-19T08:59:00Z</time></trkpt><trkpt lat="43.20434710770984" lon="13.288296340826241"><ele>226.66666666666669</ele><time>2026-04-19T08:59:01Z</time></trkpt><trkpt lat="43.20434633478167" lon="13.288004793742344"><ele>226.33333333333331</ele><time>2026-04-19T08:59:02Z</time></trkpt><trkpt lat="43.20433888360476" lon="13.287711779844534"><ele>226.0</ele><time>2026-04-19T08:59:03Z</time></trkpt><trkpt lat="43.20433155618036" lon="13.287421360702483"><ele>223.0</ele><time>2026-04-19T08:59:04Z</time></trkpt><trkpt lat="43.204319451104226" lon="13.287130008933614"><ele>220.0</ele><time>2026-04-19T08:59:05Z</time></trkpt><trkpt lat="43.20430616677291" lon="13.286840254222547"><ele>217.0</ele><time>2026-04-19T08:59:06Z</time></trkpt><trkpt lat="43.20428632163198" lon="13.286552787559302"><ele>215.33333333333331</ele><time>2026-04-19T08:59:07Z</time></trkpt><trkpt lat="43.20425826730509" lon="13.286272055591"><ele>213.66666666666669</ele><time>2026-04-19T08:59:08Z</time></trkpt><trkpt lat="43.204224456840635" lon="13.285986601456507"><ele>212.0</ele><time>2026-04-19T08:59:09Z</time></trkpt><trkpt lat="43.20418787095204" lon="13.285700472436085"><ele>211.0</ele><time>2026-04-19T08:59:10Z</time></trkpt><trkpt lat="43.20415070724586" lon="13.285414846412268"><ele>210.0</ele><time>2026-04-19T08:59:11Z</time></trkpt><trkpt lat="43.20410837585834" lon="13.285126676592109"><ele>209.0</ele><time>2026-04-19T08:59:12Z</time></trkpt><trkpt lat="43.20406740155156" lon="13.284841387490363"><ele>208.66666666666669</ele><time>2026-04-19T08:59:13Z</time></trkpt><trkpt lat="43.20402426748134" lon="13.284557923166751"><ele>208.33333333333331</ele><time>2026-04-19T08:59:14Z</time></trkpt><trkpt lat="43.20397903245225" lon="13.28427685338631"><ele>208.0</ele><time>2026-04-19T08:59:15Z</time></trkpt><trkpt lat="43.20393374916749" lon="13.283993500953494"><ele>212.66666666666666</ele><time>2026-04-19T08:59:16Z</time></trkpt><trkpt lat="43.20389042885285" lon="13.28370879929589"><ele>217.33333333333331</ele><time>2026-04-19T08:59:17Z</time></trkpt><trkpt lat="43.20385191160113" lon="13.283424123342554"><ele>222.0</ele><time>2026-04-19T08:59:18Z</time></trkpt><trkpt lat="43.20381360734406" lon="13.283139163754134"><ele>221.33333333333331</ele><time>2026-04-19T08:59:19Z</time></trkpt><trkpt lat="43.20376620230329" lon="13.282859480124523"><ele>220.66666666666666</ele><time>2026-04-19T08:59:20Z</time></trkpt><trkpt lat="43.20372104799952" lon="13.282575137803494"><ele>220.0</ele><time>2026-04-19T08:59:21Z</time></trkpt><trkpt lat="43.203676786938395" lon="13.282293492861754"><ele>219.0</ele><time>2026-04-19T08:59:22Z</time></trkpt><trkpt lat="43.20363160724268" lon="13.282008646398394"><ele>218.0</ele><time>2026-04-19T08:59:23Z</time></trkpt><trkpt lat="43.20358803566253" lon="13.281726705210426"><ele>217.0</ele><time>2026-04-19T08:59:24Z</time></trkpt><trkpt lat="43.203543442234434" lon="13.281440941697632"><ele>217.33333333333331</ele><time>2026-04-19T08:59:25Z</time></trkpt><trkpt lat="43.20350220402313" lon="13.281156476343327"><ele>217.66666666666669</ele><time>2026-04-19T08:59:26Z</time></trkpt><trkpt lat="43.2034601265081" lon="13.280873587916851"><ele>218.0</ele><time>2026-04-19T08:59:27Z</time></trkpt><trkpt lat="43.20341777526081" lon="13.28059021921909"><ele>218.0</ele><time>2026-04-19T08:59:28Z</time></trkpt><trkpt lat="43.20337684663956" lon="13.280307678715271"><ele>218.0</ele><time>2026-04-19T08:59:29Z</time></trkpt><trkpt lat="43.20333291111143" lon="13.280024413664279"><ele>218.0</ele><time>2026-04-19T08:59:30Z</time></trkpt><trkpt lat="43.203284492432104" lon="13.279739737364602"><ele>219.0</ele><time>2026-04-19T08:59:31Z</time></trkpt><trkpt lat="43.20323537763314" lon="13.27945785531873"><ele>220.0</ele><time>2026-04-19T08:59:32Z</time></trkpt><trkpt lat="43.20318199948568" lon="13.279172623754578"><ele>221.0</ele><time>2026-04-19T08:59:33Z</time></trkpt><trkpt lat="43.203127436196404" lon="13.278891962043774"><ele>223.66666666666669</ele><time>2026-04-19T08:59:34Z</time></trkpt><trkpt lat="43.20307270766086" lon="13.278611551362873"><ele>226.33333333333331</ele><time>2026-04-19T08:59:35Z</time></trkpt><trkpt lat="43.203014809615425" lon="13.278333373879564"><ele>229.0</ele><time>2026-04-19T08:59:36Z</time></trkpt><trkpt lat="43.20295122782155" lon="13.278060706393443"><ele>223.66666666666666</ele><time>2026-04-19T08:59:37Z</time></trkpt><trkpt lat="43.20287448519171" lon="13.277790459272081"><ele>218.33333333333331</ele><time>2026-04-19T08:59:38Z</time></trkpt><trkpt lat="43.20280021975423" lon="13.277518266018664"><ele>213.0</ele><time>2026-04-19T08:59:39Z</time></trkpt><trkpt lat="43.20271915688364" lon="13.277245217359956"><ele>211.33333333333331</ele><time>2026-04-19T08:59:40Z</time></trkpt><trkpt lat="43.20263426967667" lon="13.276976766559352"><ele>209.66666666666666</ele><time>2026-04-19T08:59:41Z</time></trkpt><trkpt lat="43.202545247306546" lon="13.276713322381385"><ele>208.0</ele><time>2026-04-19T08:59:42Z</time></trkpt><trkpt lat="43.20245687323858" lon="13.276452349961504"><ele>207.66666666666666</ele><time>2026-04-19T08:59:43Z</time></trkpt><trkpt lat="43.2023623588115" lon="13.276193876035556"><ele>207.33333333333331</ele><time>2026-04-19T08:59:44Z</time></trkpt><trkpt lat="43.202264533395564" lon="13.275937676814852"><ele>207.0</ele><time>2026-04-19T08:59:45Z</time></trkpt><trkpt lat="43.20216078195136" lon="13.275682549295237"><ele>207.66666666666669</ele><time>2026-04-19T08:59:46Z</time></trkpt><trkpt lat="43.20205390560465" lon="13.275434078614698"><ele>208.33333333333334</ele><time>2026-04-19T08:59:47Z</time></trkpt><trkpt lat="43.201941623876" lon="13.275184857982387"><ele>209.0</ele><time>2026-04-19T08:59:48Z</time></trkpt><trkpt lat="43.20182584410352" lon="13.274939344366622"><ele>209.0</ele><time>2026-04-19T08:59:49Z</time></trkpt><trkpt lat="43.20171072260497" lon="13.274697834898427"><ele>209.0</ele><time>2026-04-19T08:59:50Z</time></trkpt><trkpt lat="43.20158980298913" lon="13.274458963045836"><ele>209.0</ele><time>2026-04-19T08:59:51Z</time></trkpt><trkpt lat="43.20146811430266" lon="13.27422483364441"><ele>209.33333333333334</ele><time>2026-04-19T08:59:51.999Z</time></trkpt><trkpt lat="43.201338826189215" lon="13.273997898256734"><ele>209.66666666666669</ele><time>2026-04-19T08:59:52.999Z</time></trkpt><trkpt lat="43.201207085031776" lon="13.273770802085298"><ele>210.0</ele><time>2026-04-19T08:59:53.999Z</time></trkpt><trkpt lat="43.20107181394524" lon="13.273549573808685"><ele>210.0</ele><time>2026-04-19T08:59:54.999Z</time></trkpt><trkpt lat="43.20093462632434" lon="13.273328109766549"><ele>210.0</ele><time>2026-04-19T08:59:55.999Z</time></trkpt><trkpt lat="43.200793367081594" lon="13.273113033317903"><ele>210.0</ele><time>2026-04-19T08:59:56.999Z</time></trkpt><trkpt lat="43.2006490599623" lon="13.272901378908271"><ele>209.66666666666669</ele><time>2026-04-19T08:59:57.999Z</time></trkpt><trkpt lat="43.20050113854255" lon="13.27269570414501"><ele>209.33333333333334</ele><time>2026-04-19T08:59:58.999Z</time></trkpt><trkpt lat="43.200351928564714" lon="13.272494484746696"><ele>209.0</ele><time>2026-04-19T08:59:59.999Z</time></trkpt><trkpt lat="43.20019744410281" lon="13.27229876191656"><ele>208.66666666666669</ele><time>2026-04-19T09:00:00.999Z</time></trkpt><trkpt lat="43.20004039917982" lon="13.272107293366542"><ele>208.33333333333331</ele><time>2026-04-19T09:00:01.999Z</time></trkpt><trkpt lat="43.1998785851216" lon="13.271918872329726"><ele>208.0</ele><time>2026-04-19T09:00:02.999Z</time></trkpt><trkpt lat="43.199720685514826" lon="13.27173157077896"><ele>208.0</ele><time>2026-04-19T09:00:03.999Z</time></trkpt><trkpt lat="43.19955509028986" lon="13.271550939336027"><ele>208.0</ele><time>2026-04-19T09:00:04.999Z</time></trkpt><trkpt lat="43.1993887277361" lon="13.271365687173628"><ele>208.0</ele><time>2026-04-19T09:00:05.999Z</time></trkpt><trkpt lat="43.199224556427026" lon="13.271178184352367"><ele>208.33333333333331</ele><time>2026-04-19T09:00:06.999Z</time></trkpt><trkpt lat="43.1990603673762" lon="13.270996898021556"><ele>208.66666666666669</ele><time>2026-04-19T09:00:07.999Z</time></trkpt><trkpt lat="43.19889792092269" lon="13.270813565474942"><ele>209.0</ele><time>2026-04-19T09:00:08.999Z</time></trkpt><trkpt lat="43.198733348481255" lon="13.270633124681606"><ele>208.33333333333334</ele><time>2026-04-19T09:00:09.999Z</time></trkpt><trkpt lat="43.198562881796654" lon="13.270454790606554"><ele>207.66666666666669</ele><time>2026-04-19T09:00:10.999Z</time></trkpt><trkpt lat="43.19840004255629" lon="13.270275879742526"><ele>207.0</ele><time>2026-04-19T09:00:11.999Z</time></trkpt><trkpt lat="43.198235220858486" lon="13.270088021171853"><ele>207.0</ele><time>2026-04-19T09:00:12.999Z</time></trkpt><trkpt lat="43.198074087007114" lon="13.26990368934792"><ele>207.0</ele><time>2026-04-19T09:00:13.999Z</time></trkpt><trkpt lat="43.19791043894006" lon="13.269720812685833"><ele>207.0</ele><time>2026-04-19T09:00:14.999Z</time></trkpt><trkpt lat="43.19774509429174" lon="13.269542389687095"><ele>207.66666666666669</ele><time>2026-04-19T09:00:15.999Z</time></trkpt><trkpt lat="43.19758077278236" lon="13.269361573328077"><ele>208.33333333333334</ele><time>2026-04-19T09:00:16.999Z</time></trkpt><trkpt lat="43.19741785207502" lon="13.26918499043005"><ele>209.0</ele><time>2026-04-19T09:00:17.999Z</time></trkpt><trkpt lat="43.1972552680181" lon="13.26899559854358"><ele>210.33333333333334</ele><time>2026-04-19T09:00:18.999Z</time></trkpt><trkpt lat="43.19709344117305" lon="13.268812508821798"><ele>211.66666666666669</ele><time>2026-04-19T09:00:19.999Z</time></trkpt><trkpt lat="43.19692739721946" lon="13.268623788602689"><ele>213.0</ele><time>2026-04-19T09:00:20.999Z</time></trkpt><trkpt lat="43.19676057798312" lon="13.268438673172417"><ele>213.0</ele><time>2026-04-19T09:00:21.999Z</time></trkpt><trkpt lat="43.19659674947542" lon="13.268258991712868"><ele>213.0</ele><time>2026-04-19T09:00:22.999Z</time></trkpt><trkpt lat="43.19643424755678" lon="13.268074901683569"><ele>213.0</ele><time>2026-04-19T09:00:23.999Z</time></trkpt><trkpt lat="43.19626989226505" lon="13.267898014006024"><ele>215.0</ele><time>2026-04-19T09:00:24.999Z</time></trkpt><trkpt lat="43.19610595176937" lon="13.267716981589688"><ele>217.0</ele><time>2026-04-19T09:00:25.999Z</time></trkpt><trkpt lat="43.195940273770525" lon="13.26753605294065"><ele>219.0</ele><time>2026-04-19T09:00:26.999Z</time></trkpt><trkpt lat="43.1957706516148" lon="13.267354393143437"><ele>220.0</ele><time>2026-04-19T09:00:27.999Z</time></trkpt><trkpt lat="43.1956078577673" lon="13.267169619767502"><ele>221.0</ele><time>2026-04-19T09:00:28.999Z</time></trkpt><trkpt lat="43.195445236960175" lon="13.266985575848683"><ele>222.0</ele><time>2026-04-19T09:00:29.999Z</time></trkpt><trkpt lat="43.195280278707365" lon="13.266798875982849"><ele>222.0</ele><time>2026-04-19T09:00:30.999Z</time></trkpt><trkpt lat="43.19511622609008" lon="13.266609746610909"><ele>222.0</ele><time>2026-04-19T09:00:31.999Z</time></trkpt><trkpt lat="43.19495409936608" lon="13.266424259371176"><ele>222.0</ele><time>2026-04-19T09:00:32.999Z</time></trkpt><trkpt lat="43.19478944065557" lon="13.266234834350458"><ele>222.66666666666669</ele><time>2026-04-19T09:00:33.999Z</time></trkpt><trkpt lat="43.19462449762314" lon="13.266054535473177"><ele>223.33333333333334</ele><time>2026-04-19T09:00:34.999Z</time></trkpt><trkpt lat="43.19446124709402" lon="13.265876334069004"><ele>224.0</ele><time>2026-04-19T09:00:35.999Z</time></trkpt><trkpt lat="43.19429874206172" lon="13.265698541081523"><ele>223.66666666666669</ele><time>2026-04-19T09:00:36.999Z</time></trkpt><trkpt lat="43.19413763350763" lon="13.265520441055413"><ele>223.33333333333331</ele><time>2026-04-19T09:00:37.999Z</time></trkpt><trkpt lat="43.193978318309526" lon="13.26534203292139"><ele>223.0</ele><time>2026-04-19T09:00:38.999Z</time></trkpt><trkpt lat="43.19382551666153" lon="13.265175427287707"><ele>223.0</ele><time>2026-04-19T09:00:39.999Z</time></trkpt><trkpt lat="43.19367638935807" lon="13.265017386029285"><ele>223.0</ele><time>2026-04-19T09:00:40.999Z</time></trkpt><trkpt lat="43.19352529898206" lon="13.26486112092178"><ele>223.0</ele><time>2026-04-19T09:00:41.999Z</time></trkpt><trkpt lat="43.193387707317825" lon="13.264711554572576"><ele>223.33333333333331</ele><time>2026-04-19T09:00:42.999Z</time></trkpt><trkpt lat="43.1932503786197" lon="13.264566271464295"><ele>223.66666666666669</ele><time>2026-04-19T09:00:43.999Z</time></trkpt><trkpt lat="43.1931169397761" lon="13.264417017392146"><ele>224.0</ele><time>2026-04-19T09:00:44.999Z</time></trkpt><trkpt lat="43.19298271010709" lon="13.264270705803348"><ele>224.0</ele><time>2026-04-19T09:00:45.999Z</time></trkpt><trkpt lat="43.19285469760515" lon="13.26412577554365"><ele>224.0</ele><time>2026-04-19T09:00:46.999Z</time></trkpt><trkpt lat="43.19272948533516" lon="13.263981585050711"><ele>224.0</ele><time>2026-04-19T09:00:47.999Z</time></trkpt><trkpt lat="43.19259366210752" lon="13.263833998397727"><ele>224.66666666666669</ele><time>2026-04-19T09:00:48.999Z</time></trkpt><trkpt lat="43.192456407284695" lon="13.26368372939839"><ele>225.33333333333331</ele><time>2026-04-19T09:00:49.999Z</time></trkpt><trkpt lat="43.192314117652884" lon="13.263526946111556"><ele>226.0</ele><time>2026-04-19T09:00:50.999Z</time></trkpt><trkpt lat="43.19216781923349" lon="13.263363827193283"><ele>224.66666666666666</ele><time>2026-04-19T09:00:51.999Z</time></trkpt><trkpt lat="43.192024025446834" lon="13.263205283823451"><ele>223.33333333333331</ele><time>2026-04-19T09:00:52.999Z</time></trkpt><trkpt lat="43.19188960440624" lon="13.263054616391704"><ele>222.0</ele><time>2026-04-19T09:00:53.999Z</time></trkpt><trkpt lat="43.19176093587682" lon="13.26290958978198"><ele>225.33333333333331</ele><time>2026-04-19T09:00:54.999Z</time></trkpt><trkpt lat="43.19163477693369" lon="13.262771899759013"><ele>228.66666666666666</ele><time>2026-04-19T09:00:55.999Z</time></trkpt><trkpt lat="43.191511266397164" lon="13.262635820831415"><ele>232.0</ele><time>2026-04-19T09:00:56.999Z</time></trkpt><trkpt lat="43.19139551740359" lon="13.262507984962742"><ele>233.25</ele><time>2026-04-19T09:00:57.999Z</time></trkpt><trkpt lat="43.19128460356553" lon="13.262386007811553"><ele>234.5</ele><time>2026-04-19T09:00:58.999Z</time></trkpt><trkpt lat="43.191179120521355" lon="13.262268207171738"><ele>235.75</ele><time>2026-04-19T09:01:00Z</time></trkpt><trkpt lat="43.19107612508922" lon="13.262155981217898"><ele>237.0</ele><time>2026-04-19T09:01:01Z</time></trkpt><trkpt lat="43.19097584749666" lon="13.262043979296212"><ele>237.5</ele><time>2026-04-19T09:01:02Z</time></trkpt><trkpt lat="43.19087774121884" lon="13.261932420965282"><ele>238.0</ele><time>2026-04-19T09:01:03Z</time></trkpt><trkpt lat="43.19078069048988" lon="13.261824218368726"><ele>238.5</ele><time>2026-04-19T09:01:04Z</time></trkpt><trkpt lat="43.19068386323782" lon="13.261720097093955"><ele>239.0</ele><time>2026-04-19T09:01:05Z</time></trkpt><trkpt lat="43.190590969139045" lon="13.261621221830943"><ele>239.25</ele><time>2026-04-19T09:01:06Z</time></trkpt><trkpt lat="43.190499974249455" lon="13.26152916258273"><ele>239.5</ele><time>2026-04-19T09:01:07Z</time></trkpt><trkpt lat="43.19039962905984" lon="13.261448277567697"><ele>239.75</ele><time>2026-04-19T09:01:08Z</time></trkpt><trkpt lat="43.19029104271147" lon="13.261366123435314"><ele>240.0</ele><time>2026-04-19T09:01:09Z</time></trkpt><trkpt lat="43.1901907871429" lon="13.261253716234318"><ele>240.0</ele><time>2026-04-19T09:01:10Z</time></trkpt><trkpt lat="43.190086834562365" lon="13.261133473667092"><ele>240.0</ele><time>2026-04-19T09:01:11Z</time></trkpt><trkpt lat="43.189982735890744" lon="13.261016805608369"><ele>240.0</ele><time>2026-04-19T09:01:12Z</time></trkpt><trkpt lat="43.189885980694875" lon="13.260907845572133"><ele>240.0</ele><time>2026-04-19T09:01:13Z</time></trkpt><trkpt lat="43.189791290391355" lon="13.260803888906969"><ele>240.0</ele><time>2026-04-19T09:01:14Z</time></trkpt><trkpt lat="43.18970196327994" lon="13.260703522636968"><ele>240.0</ele><time>2026-04-19T09:01:15Z</time></trkpt><trkpt lat="43.18961515007427" lon="13.260605781076027"><ele>240.0</ele><time>2026-04-19T09:01:16Z</time></trkpt><trkpt lat="43.18953050617004" lon="13.260512272952926"><ele>240.0</ele><time>2026-04-19T09:01:17Z</time></trkpt><trkpt lat="43.18944957561742" lon="13.260421165439212"><ele>240.0</ele><time>2026-04-19T09:01:18Z</time></trkpt><trkpt lat="43.18937113871417" lon="13.260339433762033"><ele>239.8</ele><time>2026-04-19T09:01:19Z</time></trkpt><trkpt lat="43.18928813677457" lon="13.260252161367404"><ele>239.6</ele><time>2026-04-19T09:01:20Z</time></trkpt><trkpt lat="43.18920669209909" lon="13.260159627606773"><ele>239.39999999999998</ele><time>2026-04-19T09:01:21Z</time></trkpt><trkpt lat="43.18912155451505" lon="13.260066103737396"><ele>239.2</ele><time>2026-04-19T09:01:22Z</time></trkpt><trkpt lat="43.189032751350425" lon="13.259964510387142"><ele>239.0</ele><time>2026-04-19T09:01:23Z</time></trkpt><trkpt lat="43.188929471359856" lon="13.259865429593662"><ele>239.5</ele><time>2026-04-19T09:01:24Z</time></trkpt><trkpt lat="43.188841745342984" lon="13.25974915832423"><ele>240.0</ele><time>2026-04-19T09:01:25Z</time></trkpt><trkpt lat="43.18873952003428" lon="13.259638221952763"><ele>240.5</ele><time>2026-04-19T09:01:26Z</time></trkpt><trkpt lat="43.18863830745073" lon="13.259530972178945"><ele>241.0</ele><time>2026-04-19T09:01:27Z</time></trkpt><trkpt lat="43.18854507608876" lon="13.259428112358805"><ele>241.0</ele><time>2026-04-19T09:01:28Z</time></trkpt><trkpt lat="43.188453035031415" lon="13.259318988759972"><ele>241.0</ele><time>2026-04-19T09:01:29Z</time></trkpt><trkpt lat="43.18836311810103" lon="13.25921492553005"><ele>241.0</ele><time>2026-04-19T09:01:30Z</time></trkpt><trkpt lat="43.188270091349096" lon="13.259110040345304"><ele>241.0</ele><time>2026-04-19T09:01:31Z</time></trkpt><trkpt lat="43.188174267927266" lon="13.259002926771512"><ele>241.25</ele><time>2026-04-19T09:01:32Z</time></trkpt><trkpt lat="43.18807532114263" lon="13.258894123517512"><ele>241.5</ele><time>2026-04-19T09:01:33Z</time></trkpt><trkpt lat="43.1879761221972" lon="13.25878607689355"><ele>241.75</ele><time>2026-04-19T09:01:34Z</time></trkpt><trkpt lat="43.18787242804944" lon="13.258672321851016"><ele>242.0</ele><time>2026-04-19T09:01:35Z</time></trkpt><trkpt lat="43.187768189648466" lon="13.258553864380529"><ele>242.0</ele><time>2026-04-19T09:01:36Z</time></trkpt><trkpt lat="43.18766119311777" lon="13.25843469896832"><ele>242.0</ele><time>2026-04-19T09:01:37Z</time></trkpt><trkpt lat="43.1875544987947" lon="13.258318916663969"><ele>242.0</ele><time>2026-04-19T09:01:38Z</time></trkpt><trkpt lat="43.18744942621265" lon="13.258204277612386"><ele>242.0</ele><time>2026-04-19T09:01:39Z</time></trkpt><trkpt lat="43.1873445585164" lon="13.25808494233295"><ele>242.25</ele><time>2026-04-19T09:01:40Z</time></trkpt><trkpt lat="43.18724254206584" lon="13.257965971060345"><ele>242.5</ele><time>2026-04-19T09:01:41Z</time></trkpt><trkpt lat="43.187136265930434" lon="13.257851072067545"><ele>242.75</ele><time>2026-04-19T09:01:42Z</time></trkpt><trkpt lat="43.1870325207948" lon="13.257728672062873"><ele>243.0</ele><time>2026-04-19T09:01:43Z</time></trkpt><trkpt lat="43.18692806243986" lon="13.257617461524669"><ele>243.0</ele><time>2026-04-19T09:01:44Z</time></trkpt><trkpt lat="43.1868231777134" lon="13.257504189600155"><ele>243.0</ele><time>2026-04-19T09:01:45Z</time></trkpt><trkpt lat="43.1867188086731" lon="13.257391992561393"><ele>243.0</ele><time>2026-04-19T09:01:46Z</time></trkpt><trkpt lat="43.18661259112106" lon="13.257276401314131"><ele>243.0</ele><time>2026-04-19T09:01:47Z</time></trkpt><trkpt lat="43.18650738038852" lon="13.257159570035734"><ele>243.0</ele><time>2026-04-19T09:01:48Z</time></trkpt><trkpt lat="43.186399972423274" lon="13.257038302398628"><ele>243.0</ele><time>2026-04-19T09:01:49Z</time></trkpt><trkpt lat="43.1862949727518" lon="13.256919682448197"><ele>243.0</ele><time>2026-04-19T09:01:50Z</time></trkpt><trkpt lat="43.18618519513652" lon="13.25680409891642"><ele>243.0</ele><time>2026-04-19T09:01:51Z</time></trkpt><trkpt lat="43.18607756130416" lon="13.256677959461687"><ele>243.0</ele><time>2026-04-19T09:01:52Z</time></trkpt><trkpt lat="43.18596647406397" lon="13.25655629405466"><ele>243.0</ele><time>2026-04-19T09:01:53Z</time></trkpt><trkpt lat="43.18585596145427" lon="13.256436984405905"><ele>243.0</ele><time>2026-04-19T09:01:54Z</time></trkpt><trkpt lat="43.1857471497045" lon="13.256313800053885"><ele>243.0</ele><time>2026-04-19T09:01:55Z</time></trkpt><trkpt lat="43.18563785336297" lon="13.256189012550703"><ele>242.0</ele><time>2026-04-19T09:01:56Z</time></trkpt><trkpt lat="43.18552578536263" lon="13.256067748701874"><ele>241.0</ele><time>2026-04-19T09:01:57Z</time></trkpt><trkpt lat="43.185416764915814" lon="13.25594499431435"><ele>240.0</ele><time>2026-04-19T09:01:58Z</time></trkpt><trkpt lat="43.18530660231305" lon="13.255815360251738"><ele>239.0</ele><time>2026-04-19T09:01:59Z</time></trkpt><trkpt lat="43.185200212217055" lon="13.255692274374008"><ele>239.25</ele><time>2026-04-19T09:02:00Z</time></trkpt><trkpt lat="43.185081842240095" lon="13.255562277922024"><ele>239.5</ele><time>2026-04-19T09:02:01Z</time></trkpt><trkpt lat="43.1849689100165" lon="13.255434680109454"><ele>239.75</ele><time>2026-04-19T09:02:02Z</time></trkpt><trkpt lat="43.18485449869168" lon="13.255308868876698"><ele>240.0</ele><time>2026-04-19T09:02:03Z</time></trkpt><trkpt lat="43.18473636400867" lon="13.255185850679544"><ele>239.0</ele><time>2026-04-19T09:02:04Z</time></trkpt><trkpt lat="43.18462536901637" lon="13.255054502122789"><ele>238.0</ele><time>2026-04-19T09:02:04.999Z</time></trkpt><trkpt lat="43.18450624076264" lon="13.254928167994033"><ele>237.0</ele><time>2026-04-19T09:02:05.999Z</time></trkpt><trkpt lat="43.18438713489315" lon="13.254794503456496"><ele>238.33333333333331</ele><time>2026-04-19T09:02:06.999Z</time></trkpt><trkpt lat="43.184271602052355" lon="13.254669244561585"><ele>239.66666666666666</ele><time>2026-04-19T09:02:07.999Z</time></trkpt><trkpt lat="43.184153980571544" lon="13.25453559463954"><ele>241.0</ele><time>2026-04-19T09:02:08.999Z</time></trkpt><trkpt lat="43.18403453498096" lon="13.254402328804781"><ele>238.33333333333331</ele><time>2026-04-19T09:02:09.999Z</time></trkpt><trkpt lat="43.183915286076775" lon="13.254271380493577"><ele>235.66666666666669</ele><time>2026-04-19T09:02:10.999Z</time></trkpt><trkpt lat="43.18380088876102" lon="13.254139496171646"><ele>233.0</ele><time>2026-04-19T09:02:11.999Z</time></trkpt><trkpt lat="43.18368093190868" lon="13.254011997917047"><ele>233.5</ele><time>2026-04-19T09:02:12.999Z</time></trkpt><trkpt lat="43.18356538369597" lon="13.253884024515093"><ele>234.0</ele><time>2026-04-19T09:02:13.999Z</time></trkpt><trkpt lat="43.183451395322464" lon="13.253757579899178"><ele>234.5</ele><time>2026-04-19T09:02:14.999Z</time></trkpt><trkpt lat="43.18333630300672" lon="13.253624653922376"><ele>235.0</ele><time>2026-04-19T09:02:15.999Z</time></trkpt><trkpt lat="43.18321972936942" lon="13.253498164809258"><ele>235.5</ele><time>2026-04-19T09:02:16.999Z</time></trkpt><trkpt lat="43.18311163548292" lon="13.253372696273708"><ele>236.0</ele><time>2026-04-19T09:02:17.999Z</time></trkpt><trkpt lat="43.18299427129372" lon="13.253243215935527"><ele>236.5</ele><time>2026-04-19T09:02:18.999Z</time></trkpt><trkpt lat="43.1828786676929" lon="13.25311325951162"><ele>237.0</ele><time>2026-04-19T09:02:19.999Z</time></trkpt><trkpt lat="43.18276253488983" lon="13.252989746929655"><ele>237.0</ele><time>2026-04-19T09:02:20.999Z</time></trkpt><trkpt lat="43.18264255088829" lon="13.252863179471765"><ele>237.0</ele><time>2026-04-19T09:02:21.999Z</time></trkpt><trkpt lat="43.182527207255866" lon="13.252733462382455"><ele>237.0</ele><time>2026-04-19T09:02:22.999Z</time></trkpt><trkpt lat="43.18241075945979" lon="13.252605520385305"><ele>237.5</ele><time>2026-04-19T09:02:23.999Z</time></trkpt><trkpt lat="43.182298476799495" lon="13.252480510661188"><ele>238.0</ele><time>2026-04-19T09:02:24.999Z</time></trkpt><trkpt lat="43.182184917271975" lon="13.252355795757216"><ele>238.5</ele><time>2026-04-19T09:02:25.999Z</time></trkpt><trkpt lat="43.182070182785736" lon="13.252234880933093"><ele>239.0</ele><time>2026-04-19T09:02:26.999Z</time></trkpt><trkpt lat="43.18195299106899" lon="13.252113409351322"><ele>240.75</ele><time>2026-04-19T09:02:27.999Z</time></trkpt><trkpt lat="43.18183348732387" lon="13.25199692605294"><ele>242.5</ele><time>2026-04-19T09:02:28.999Z</time></trkpt><trkpt lat="43.18171454728342" lon="13.251885173338405"><ele>244.25</ele><time>2026-04-19T09:02:29.999Z</time></trkpt><trkpt lat="43.181590017260014" lon="13.251768819931051"><ele>246.0</ele><time>2026-04-19T09:02:30.999Z</time></trkpt><trkpt lat="43.181463186476456" lon="13.251657197920034"><ele>246.66666666666669</ele><time>2026-04-19T09:02:31.999Z</time></trkpt><trkpt lat="43.18133288559331" lon="13.251535032364844"><ele>247.33333333333334</ele><time>2026-04-19T09:02:32.999Z</time></trkpt><trkpt lat="43.18120511481339" lon="13.251428450581056"><ele>248.0</ele><time>2026-04-19T09:02:33.999Z</time></trkpt><trkpt lat="43.181071570675996" lon="13.251321103999421"><ele>248.0</ele><time>2026-04-19T09:02:34.999Z</time></trkpt><trkpt lat="43.180933358302354" lon="13.251214949002126"><ele>248.0</ele><time>2026-04-19T09:02:35.999Z</time></trkpt><trkpt lat="43.18079199397384" lon="13.251109607253314"><ele>248.0</ele><time>2026-04-19T09:02:36.999Z</time></trkpt><trkpt lat="43.18065105232038" lon="13.2510083360864"><ele>248.66666666666669</ele><time>2026-04-19T09:02:37.999Z</time></trkpt><trkpt lat="43.18050575469797" lon="13.250910664425252"><ele>249.33333333333331</ele><time>2026-04-19T09:02:38.999Z</time></trkpt><trkpt lat="43.18035651847647" lon="13.250814630576874"><ele>250.0</ele><time>2026-04-19T09:02:39.999Z</time></trkpt><trkpt lat="43.18020556289395" lon="13.250717725282255"><ele>250.66666666666666</ele><time>2026-04-19T09:02:40.999Z</time></trkpt><trkpt lat="43.18004574944747" lon="13.250622134259197"><ele>251.33333333333331</ele><time>2026-04-19T09:02:41.999Z</time></trkpt><trkpt lat="43.179890490843" lon="13.2505320691946"><ele>252.0</ele><time>2026-04-19T09:02:42.999Z</time></trkpt><trkpt lat="43.17973212982765" lon="13.250448393451709"><ele>253.0</ele><time>2026-04-19T09:02:43.999Z</time></trkpt><trkpt lat="43.179568840345745" lon="13.2503642430182"><ele>254.0</ele><time>2026-04-19T09:02:44.999Z</time></trkpt><trkpt lat="43.17940473849476" lon="13.250289752987038"><ele>255.0</ele><time>2026-04-19T09:02:45.999Z</time></trkpt><trkpt lat="43.179237236640944" lon="13.250210118803711"><ele>255.0</ele><time>2026-04-19T09:02:46.999Z</time></trkpt><trkpt lat="43.17906823523253" lon="13.250142236992618"><ele>255.0</ele><time>2026-04-19T09:02:47.999Z</time></trkpt><trkpt lat="43.17889753444731" lon="13.250073052858165"><ele>255.0</ele><time>2026-04-19T09:02:48.999Z</time></trkpt><trkpt lat="43.17872568036913" lon="13.25001635972112"><ele>254.66666666666669</ele><time>2026-04-19T09:02:49.999Z</time></trkpt><trkpt lat="43.178552536138916" lon="13.249959921847527"><ele>254.33333333333334</ele><time>2026-04-19T09:02:50.999Z</time></trkpt><trkpt lat="43.17837940848578" lon="13.24990198410392"><ele>254.0</ele><time>2026-04-19T09:02:51.999Z</time></trkpt><trkpt lat="43.17820886980149" lon="13.249851939024207"><ele>254.66666666666669</ele><time>2026-04-19T09:02:52.999Z</time></trkpt><trkpt lat="43.17805084422792" lon="13.249804472237896"><ele>255.33333333333331</ele><time>2026-04-19T09:02:53.999Z</time></trkpt><trkpt lat="43.17790535369853" lon="13.249756177362661"><ele>256.0</ele><time>2026-04-19T09:02:54.999Z</time></trkpt><trkpt lat="43.17777012741243" lon="13.24970045124633"><ele>256.0</ele><time>2026-04-19T09:02:55.999Z</time></trkpt><trkpt lat="43.17761886410188" lon="13.249621087109077"><ele>256.0</ele><time>2026-04-19T09:02:56.999Z</time></trkpt><trkpt lat="43.17747900933294" lon="13.249533385171636"><ele>256.0</ele><time>2026-04-19T09:02:57.999Z</time></trkpt><trkpt lat="43.177315400056486" lon="13.249589494549415"><ele>255.75</ele><time>2026-04-19T09:02:58.999Z</time></trkpt><trkpt lat="43.17718488678054" lon="13.249549199728403"><ele>255.5</ele><time>2026-04-19T09:02:59.999Z</time></trkpt><trkpt lat="43.17705971977752" lon="13.249510894195275"><ele>255.25</ele><time>2026-04-19T09:03:00.999Z</time></trkpt><trkpt lat="43.17693874829589" lon="13.249474539263886"><ele>255.0</ele><time>2026-04-19T09:03:01.999Z</time></trkpt><trkpt lat="43.17681736958547" lon="13.249440397173872"><ele>255.0</ele><time>2026-04-19T09:03:02.999Z</time></trkpt><trkpt lat="43.17669911307693" lon="13.24940741633328"><ele>255.0</ele><time>2026-04-19T09:03:03.999Z</time></trkpt><trkpt lat="43.17658065390965" lon="13.24936352350147"><ele>255.0</ele><time>2026-04-19T09:03:05Z</time></trkpt><trkpt lat="43.17646320121497" lon="13.249294381389472"><ele>255.0</ele><time>2026-04-19T09:03:06Z</time></trkpt><trkpt lat="43.176338856450556" lon="13.249234137418089"><ele>254.75</ele><time>2026-04-19T09:03:07Z</time></trkpt><trkpt lat="43.176205210613155" lon="13.249197006507398"><ele>254.5</ele><time>2026-04-19T09:03:08Z</time></trkpt><trkpt lat="43.17606127472156" lon="13.249156257166941"><ele>254.25</ele><time>2026-04-19T09:03:09Z</time></trkpt><trkpt lat="43.175913645050514" lon="13.249112747258106"><ele>254.0</ele><time>2026-04-19T09:03:10Z</time></trkpt><trkpt lat="43.17576917859882" lon="13.249065028349325"><ele>253.0</ele><time>2026-04-19T09:03:11Z</time></trkpt><trkpt lat="43.17561979306057" lon="13.249013310081601"><ele>252.0</ele><time>2026-04-19T09:03:12Z</time></trkpt><trkpt lat="43.17546233912658" lon="13.248956493367958"><ele>251.0</ele><time>2026-04-19T09:03:13Z</time></trkpt><trkpt lat="43.17529018281612" lon="13.248902023205863"><ele>253.66666666666669</ele><time>2026-04-19T09:03:14Z</time></trkpt><trkpt lat="43.1751212792415" lon="13.248853997155232"><ele>256.3333333333333</ele><time>2026-04-19T09:03:15Z</time></trkpt><trkpt lat="43.17495212550455" lon="13.248804969974577"><ele>259.0</ele><time>2026-04-19T09:03:16Z</time></trkpt><trkpt lat="43.174781394803816" lon="13.24875576898691"><ele>259.0</ele><time>2026-04-19T09:03:17Z</time></trkpt><trkpt lat="43.17460976333687" lon="13.248704890002214"><ele>259.0</ele><time>2026-04-19T09:03:18Z</time></trkpt><trkpt lat="43.17443280631031" lon="13.24865225153211"><ele>259.0</ele><time>2026-04-19T09:03:19Z</time></trkpt><trkpt lat="43.174248056382005" lon="13.24860522499966"><ele>259.0</ele><time>2026-04-19T09:03:20Z</time></trkpt><trkpt lat="43.17405374208712" lon="13.248552727432143"><ele>259.0</ele><time>2026-04-19T09:03:21Z</time></trkpt><trkpt lat="43.173858839819154" lon="13.248497018039634"><ele>259.0</ele><time>2026-04-19T09:03:22Z</time></trkpt><trkpt lat="43.17366990347955" lon="13.248439310837094"><ele>257.3333333333333</ele><time>2026-04-19T09:03:23Z</time></trkpt><trkpt lat="43.17347494022507" lon="13.248379276422728"><ele>255.66666666666669</ele><time>2026-04-19T09:03:24Z</time></trkpt><trkpt lat="43.173275988463544" lon="13.248322689655705"><ele>254.0</ele><time>2026-04-19T09:03:25Z</time></trkpt><trkpt lat="43.17307385798643" lon="13.248264297370985"><ele>253.66666666666669</ele><time>2026-04-19T09:03:26Z</time></trkpt><trkpt lat="43.17287609834206" lon="13.248207414054376"><ele>253.33333333333331</ele><time>2026-04-19T09:03:27Z</time></trkpt><trkpt lat="43.17267984542559" lon="13.248145043905106"><ele>253.0</ele><time>2026-04-19T09:03:28Z</time></trkpt><trkpt lat="43.17248352983696" lon="13.248084136669268"><ele>258.0</ele><time>2026-04-19T09:03:29Z</time></trkpt><trkpt lat="43.17229043607572" lon="13.248025691913961"><ele>263.0</ele><time>2026-04-19T09:03:30Z</time></trkpt><trkpt lat="43.17209495426937" lon="13.24796834859958"><ele>268.0</ele><time>2026-04-19T09:03:31Z</time></trkpt><trkpt lat="43.17189994860309" lon="13.247918452840494"><ele>268.0</ele><time>2026-04-19T09:03:32Z</time></trkpt><trkpt lat="43.17170579648936" lon="13.247864902950482"><ele>268.0</ele><time>2026-04-19T09:03:33Z</time></trkpt><trkpt lat="43.17150837517799" lon="13.247808263070883"><ele>268.0</ele><time>2026-04-19T09:03:34Z</time></trkpt><trkpt lat="43.17131153235256" lon="13.247753342756988"><ele>265.66666666666663</ele><time>2026-04-19T09:03:35Z</time></trkpt><trkpt lat="43.17111285738162" lon="13.24769500558196"><ele>263.3333333333333</ele><time>2026-04-19T09:03:36Z</time></trkpt><trkpt lat="43.17091528195293" lon="13.247635673177546"><ele>261.0</ele><time>2026-04-19T09:03:37Z</time></trkpt><trkpt lat="43.170718710104246" lon="13.24757137198992"><ele>257.3333333333333</ele><time>2026-04-19T09:03:38Z</time></trkpt><trkpt lat="43.17052327952576" lon="13.247509088294185"><ele>253.66666666666666</ele><time>2026-04-19T09:03:39Z</time></trkpt><trkpt lat="43.17032798306425" lon="13.247449790220239"><ele>250.0</ele><time>2026-04-19T09:03:40Z</time></trkpt><trkpt lat="43.17013485713475" lon="13.247393754129229"><ele>250.0</ele><time>2026-04-19T09:03:41Z</time></trkpt><trkpt lat="43.169938042402954" lon="13.247336863115112"><ele>250.0</ele><time>2026-04-19T09:03:42Z</time></trkpt><trkpt lat="43.169742655086566" lon="13.247280757476181"><ele>250.0</ele><time>2026-04-19T09:03:43Z</time></trkpt><trkpt lat="43.16954571553547" lon="13.247224570413366"><ele>249.0</ele><time>2026-04-19T09:03:44Z</time></trkpt><trkpt lat="43.16934960609967" lon="13.247166909017892"><ele>248.0</ele><time>2026-04-19T09:03:45Z</time></trkpt><trkpt lat="43.16915111636757" lon="13.247111989972117"><ele>247.0</ele><time>2026-04-19T09:03:46Z</time></trkpt><trkpt lat="43.16895348202156" lon="13.247059293576337"><ele>246.33333333333331</ele><time>2026-04-19T09:03:47Z</time></trkpt><trkpt lat="43.16875686674904" lon="13.24701081253238"><ele>245.66666666666669</ele><time>2026-04-19T09:03:48Z</time></trkpt><trkpt lat="43.168555774595745" lon="13.246971566007371"><ele>245.0</ele><time>2026-04-19T09:03:49Z</time></trkpt><trkpt lat="43.16835612823946" lon="13.246939268056742"><ele>245.0</ele><time>2026-04-19T09:03:50Z</time></trkpt><trkpt lat="43.1681515370439" lon="13.246909644770177"><ele>245.0</ele><time>2026-04-19T09:03:51Z</time></trkpt><trkpt lat="43.167947018727794" lon="13.246884409854012"><ele>245.0</ele><time>2026-04-19T09:03:52Z</time></trkpt><trkpt lat="43.167740079042034" lon="13.246861357425963"><ele>245.0</ele><time>2026-04-19T09:03:53Z</time></trkpt><trkpt lat="43.16753337662962" lon="13.24683526216762"><ele>245.0</ele><time>2026-04-19T09:03:54Z</time></trkpt><trkpt lat="43.167323305248146" lon="13.246820048129937"><ele>245.0</ele><time>2026-04-19T09:03:55Z</time></trkpt><trkpt lat="43.167125620539906" lon="13.246864186920329"><ele>245.0</ele><time>2026-04-19T09:03:56Z</time></trkpt><trkpt lat="43.166917952296075" lon="13.246879698693778"><ele>245.0</ele><time>2026-04-19T09:03:57Z</time></trkpt><trkpt lat="43.16670690441877" lon="13.246748310071546"><ele>245.0</ele><time>2026-04-19T09:03:58Z</time></trkpt><trkpt lat="43.166498887403044" lon="13.24672557368252"><ele>245.0</ele><time>2026-04-19T09:03:59Z</time></trkpt><trkpt lat="43.166294128004225" lon="13.246696148916977"><ele>245.0</ele><time>2026-04-19T09:04:00Z</time></trkpt><trkpt lat="43.16609292238636" lon="13.246662175538702"><ele>245.0</ele><time>2026-04-19T09:04:01Z</time></trkpt><trkpt lat="43.16589397406735" lon="13.24663214730438"><ele>245.0</ele><time>2026-04-19T09:04:02Z</time></trkpt><trkpt lat="43.16570095518625" lon="13.246610213179805"><ele>245.0</ele><time>2026-04-19T09:04:03Z</time></trkpt><trkpt lat="43.165506648519084" lon="13.246587103108991"><ele>245.0</ele><time>2026-04-19T09:04:04Z</time></trkpt><trkpt lat="43.16531396525375" lon="13.246560631335466"><ele>244.66666666666669</ele><time>2026-04-19T09:04:04.999Z</time></trkpt><trkpt lat="43.165116117518494" lon="13.246536387822475"><ele>244.33333333333331</ele><time>2026-04-19T09:04:05.999Z</time></trkpt><trkpt lat="43.1649138560244" lon="13.24651065680113"><ele>244.0</ele><time>2026-04-19T09:04:06.999Z</time></trkpt><trkpt lat="43.1647117958919" lon="13.246488218948913"><ele>247.0</ele><time>2026-04-19T09:04:07.999Z</time></trkpt><trkpt lat="43.164510422247595" lon="13.246461996466659"><ele>250.0</ele><time>2026-04-19T09:04:08.999Z</time></trkpt><trkpt lat="43.1643135480058" lon="13.246430657433185"><ele>253.0</ele><time>2026-04-19T09:04:09.999Z</time></trkpt><trkpt lat="43.16411362459262" lon="13.24640384602351"><ele>258.0</ele><time>2026-04-19T09:04:10.999Z</time></trkpt><trkpt lat="43.163913432325764" lon="13.24637751171734"><ele>263.0</ele><time>2026-04-19T09:04:11.999Z</time></trkpt><trkpt lat="43.163718743135014" lon="13.246353299125486"><ele>268.0</ele><time>2026-04-19T09:04:12.999Z</time></trkpt><trkpt lat="43.16350930750727" lon="13.246328731837536"><ele>268.0</ele><time>2026-04-19T09:04:13.999Z</time></trkpt><trkpt lat="43.163323018649194" lon="13.24630348803488"><ele>268.0</ele><time>2026-04-19T09:04:14.999Z</time></trkpt><trkpt lat="43.16312956428629" lon="13.246279060216361"><ele>268.0</ele><time>2026-04-19T09:04:15.999Z</time></trkpt><trkpt lat="43.16237352650547" lon="13.24617192532307"><ele>254.0</ele><time>2026-04-19T09:04:20.066Z</time></trkpt><trkpt lat="43.16190761654193" lon="13.245752068643469"><ele>254.0</ele><time>2026-04-19T09:04:21.999Z</time></trkpt><trkpt lat="43.16174439158198" lon="13.245649088423631"><ele>254.0</ele><time>2026-04-19T09:04:22.999Z</time></trkpt><trkpt lat="43.161582219975706" lon="13.245505670616732"><ele>254.0</ele><time>2026-04-19T09:04:23.999Z</time></trkpt><trkpt lat="43.16141333862118" lon="13.245362464313962"><ele>253.0</ele><time>2026-04-19T09:04:24.999Z</time></trkpt><trkpt lat="43.16124201141378" lon="13.245192828972959"><ele>252.0</ele><time>2026-04-19T09:04:25.999Z</time></trkpt><trkpt lat="43.16107712011297" lon="13.245015052910174"><ele>251.0</ele><time>2026-04-19T09:04:26.999Z</time></trkpt><trkpt lat="43.16091329147748" lon="13.244823070087428"><ele>250.0</ele><time>2026-04-19T09:04:27.999Z</time></trkpt><trkpt lat="43.160757080015976" lon="13.244629084515509"><ele>249.0</ele><time>2026-04-19T09:04:28.999Z</time></trkpt><trkpt lat="43.16060695962346" lon="13.244425168146439"><ele>248.0</ele><time>2026-04-19T09:04:29.999Z</time></trkpt><trkpt lat="43.160458441314496" lon="13.244212750222086"><ele>248.0</ele><time>2026-04-19T09:04:30.999Z</time></trkpt><trkpt lat="43.16031731553235" lon="13.243989907562472"><ele>248.0</ele><time>2026-04-19T09:04:31.999Z</time></trkpt><trkpt lat="43.1601761898576" lon="13.243760240617164"><ele>248.0</ele><time>2026-04-19T09:04:32.999Z</time></trkpt><trkpt lat="43.160030651938754" lon="13.243528304052088"><ele>247.33333333333334</ele><time>2026-04-19T09:04:33.999Z</time></trkpt><trkpt lat="43.15988339762792" lon="13.243297043929656"><ele>246.66666666666669</ele><time>2026-04-19T09:04:34.999Z</time></trkpt><trkpt lat="43.159738414272525" lon="13.243063948864975"><ele>246.0</ele><time>2026-04-19T09:04:35.999Z</time></trkpt><trkpt lat="43.15959289552188" lon="13.242828801091823"><ele>246.0</ele><time>2026-04-19T09:04:36.999Z</time></trkpt><trkpt lat="43.159446973213996" lon="13.242596614658705"><ele>246.0</ele><time>2026-04-19T09:04:37.999Z</time></trkpt><trkpt lat="43.159301875463186" lon="13.242368276648678"><ele>246.0</ele><time>2026-04-19T09:04:38.999Z</time></trkpt><trkpt lat="43.159154990544415" lon="13.242139765058504"><ele>248.0</ele><time>2026-04-19T09:04:39.999Z</time></trkpt><trkpt lat="43.15900734923017" lon="13.241909814660131"><ele>250.0</ele><time>2026-04-19T09:04:40.999Z</time></trkpt><trkpt lat="43.15886234188924" lon="13.241677684802275"><ele>252.0</ele><time>2026-04-19T09:04:41.999Z</time></trkpt><trkpt lat="43.15871487693602" lon="13.24145044808538"><ele>253.0</ele><time>2026-04-19T09:04:42.999Z</time></trkpt><trkpt lat="43.15857094552992" lon="13.241219908176175"><ele>254.0</ele><time>2026-04-19T09:04:43.999Z</time></trkpt><trkpt lat="43.15842260139931" lon="13.24098842209532"><ele>255.0</ele><time>2026-04-19T09:04:44.999Z</time></trkpt><trkpt lat="43.15827650869267" lon="13.24075751390217"><ele>259.0</ele><time>2026-04-19T09:04:45.999Z</time></trkpt><trkpt lat="43.15813059346868" lon="13.240525075623006"><ele>263.0</ele><time>2026-04-19T09:04:46.999Z</time></trkpt><trkpt lat="43.157982629328124" lon="13.240292496075417"><ele>267.0</ele><time>2026-04-19T09:04:47.999Z</time></trkpt><trkpt lat="43.15783712375077" lon="13.240062504996123"><ele>267.0</ele><time>2026-04-19T09:04:48.999Z</time></trkpt><trkpt lat="43.157690312933354" lon="13.239833610715824"><ele>267.0</ele><time>2026-04-19T09:04:49.999Z</time></trkpt><trkpt lat="43.15754639419185" lon="13.239601345649419"><ele>267.0</ele><time>2026-04-19T09:04:50.999Z</time></trkpt><trkpt lat="43.15739979749076" lon="13.239367600116596"><ele>266.6666666666667</ele><time>2026-04-19T09:04:51.999Z</time></trkpt><trkpt lat="43.15725555966405" lon="13.239135654786239"><ele>266.33333333333337</ele><time>2026-04-19T09:04:52.999Z</time></trkpt><trkpt lat="43.157109039740234" lon="13.238904108991775"><ele>266.0</ele><time>2026-04-19T09:04:53.999Z</time></trkpt><trkpt lat="43.156965287398684" lon="13.238672012396371"><ele>266.0</ele><time>2026-04-19T09:04:54.999Z</time></trkpt><trkpt lat="43.156819051130576" lon="13.238441909817267"><ele>266.0</ele><time>2026-04-19T09:04:55.999Z</time></trkpt><trkpt lat="43.156670335659065" lon="13.238213741782145"><ele>266.0</ele><time>2026-04-19T09:04:56.999Z</time></trkpt><trkpt lat="43.156527301666294" lon="13.237983412390454"><ele>264.6666666666667</ele><time>2026-04-19T09:04:57.999Z</time></trkpt><trkpt lat="43.15637786479252" lon="13.237755800580576"><ele>263.3333333333333</ele><time>2026-04-19T09:04:58.999Z</time></trkpt><trkpt lat="43.156233018725345" lon="13.237524495694698"><ele>262.0</ele><time>2026-04-19T09:04:59.999Z</time></trkpt><trkpt lat="43.15608873411414" lon="13.237289853079584"><ele>260.3333333333333</ele><time>2026-04-19T09:05:00.999Z</time></trkpt><trkpt lat="43.15594090297545" lon="13.23705768896384"><ele>258.6666666666667</ele><time>2026-04-19T09:05:01.999Z</time></trkpt><trkpt lat="43.15579557369422" lon="13.23683019791134"><ele>257.0</ele><time>2026-04-19T09:05:02.999Z</time></trkpt><trkpt lat="43.155648579897715" lon="13.236597212710379"><ele>255.66666666666669</ele><time>2026-04-19T09:05:03.999Z</time></trkpt><trkpt lat="43.155503665054944" lon="13.23636609380601"><ele>254.33333333333331</ele><time>2026-04-19T09:05:04.999Z</time></trkpt><trkpt lat="43.155356086875095" lon="13.236133401070274"><ele>253.0</ele><time>2026-04-19T09:05:05.999Z</time></trkpt><trkpt lat="43.15521022701534" lon="13.235907785492257"><ele>253.0</ele><time>2026-04-19T09:05:06.999Z</time></trkpt><trkpt lat="43.15506535549684" lon="13.23567542092523"><ele>253.0</ele><time>2026-04-19T09:05:07.999Z</time></trkpt><trkpt lat="43.1549188036183" lon="13.23544177122022"><ele>253.0</ele><time>2026-04-19T09:05:08.999Z</time></trkpt><trkpt lat="43.15476990506089" lon="13.235208593610063"><ele>253.0</ele><time>2026-04-19T09:05:09.999Z</time></trkpt><trkpt lat="43.15462414116159" lon="13.23497861445297"><ele>253.0</ele><time>2026-04-19T09:05:11Z</time></trkpt><trkpt lat="43.15447638868305" lon="13.234748249357711"><ele>253.0</ele><time>2026-04-19T09:05:12Z</time></trkpt><trkpt lat="43.15433126004085" lon="13.234518542733243"><ele>253.0</ele><time>2026-04-19T09:05:13Z</time></trkpt><trkpt lat="43.15418324392932" lon="13.234286275553432"><ele>253.0</ele><time>2026-04-19T09:05:14Z</time></trkpt><trkpt lat="43.15403770554567" lon="13.234059538976409"><ele>253.0</ele><time>2026-04-19T09:05:15Z</time></trkpt><trkpt lat="43.15389210994802" lon="13.233833765868333"><ele>256.0</ele><time>2026-04-19T09:05:16Z</time></trkpt><trkpt lat="43.153745318353764" lon="13.233599809725135"><ele>259.0</ele><time>2026-04-19T09:05:17Z</time></trkpt><trkpt lat="43.15359914061197" lon="13.233370168334515"><ele>262.0</ele><time>2026-04-19T09:05:18Z</time></trkpt><trkpt lat="43.15345609257919" lon="13.233139905004776"><ele>264.3333333333333</ele><time>2026-04-19T09:05:19Z</time></trkpt><trkpt lat="43.15330689616261" lon="13.232906639484456"><ele>266.6666666666667</ele><time>2026-04-19T09:05:20Z</time></trkpt><trkpt lat="43.15315838380832" lon="13.232678910284228"><ele>269.0</ele><time>2026-04-19T09:05:21Z</time></trkpt><trkpt lat="43.15301477924338" lon="13.232446897186602"><ele>271.0</ele><time>2026-04-19T09:05:22Z</time></trkpt><trkpt lat="43.15286895310456" lon="13.232211085319838"><ele>273.0</ele><time>2026-04-19T09:05:23Z</time></trkpt><trkpt lat="43.15272287865836" lon="13.231982992104571"><ele>275.0</ele><time>2026-04-19T09:05:24Z</time></trkpt><trkpt lat="43.152576111563455" lon="13.231754111708435"><ele>275.0</ele><time>2026-04-19T09:05:25Z</time></trkpt><trkpt lat="43.15243114109907" lon="13.231525100982589"><ele>275.0</ele><time>2026-04-19T09:05:26Z</time></trkpt><trkpt lat="43.1522851863463" lon="13.231287046481775"><ele>275.0</ele><time>2026-04-19T09:05:27Z</time></trkpt><trkpt lat="43.1521371044027" lon="13.23106050325746"><ele>273.33333333333337</ele><time>2026-04-19T09:05:28Z</time></trkpt><trkpt lat="43.151994948783305" lon="13.230834372361139"><ele>271.6666666666667</ele><time>2026-04-19T09:05:29Z</time></trkpt><trkpt lat="43.151845373192906" lon="13.23059894205795"><ele>270.0</ele><time>2026-04-19T09:05:30Z</time></trkpt><trkpt lat="43.1517013210627" lon="13.230365952006482"><ele>271.3333333333333</ele><time>2026-04-19T09:05:31Z</time></trkpt><trkpt lat="43.15155689373477" lon="13.230129557684105"><ele>272.66666666666663</ele><time>2026-04-19T09:05:32Z</time></trkpt><trkpt lat="43.15142217655524" lon="13.229889159066351"><ele>274.0</ele><time>2026-04-19T09:05:33Z</time></trkpt><trkpt lat="43.15128728489903" lon="13.229645594064477"><ele>275.66666666666663</ele><time>2026-04-19T09:05:34Z</time></trkpt><trkpt lat="43.15116381060641" lon="13.229391014171927"><ele>277.3333333333333</ele><time>2026-04-19T09:05:35Z</time></trkpt><trkpt lat="43.151047809324375" lon="13.229127832887261"><ele>279.0</ele><time>2026-04-19T09:05:36Z</time></trkpt><trkpt lat="43.15094361710794" lon="13.228860452771904"><ele>279.6666666666667</ele><time>2026-04-19T09:05:37Z</time></trkpt><trkpt lat="43.1508517478711" lon="13.228585245783693"><ele>280.33333333333337</ele><time>2026-04-19T09:05:38Z</time></trkpt><trkpt lat="43.15077195605801" lon="13.228296333316862"><ele>281.0</ele><time>2026-04-19T09:05:39Z</time></trkpt><trkpt lat="43.15069941291828" lon="13.228003566267274"><ele>281.33333333333337</ele><time>2026-04-19T09:05:40Z</time></trkpt><trkpt lat="43.150634927972334" lon="13.227712593525336"><ele>281.6666666666667</ele><time>2026-04-19T09:05:41Z</time></trkpt><trkpt lat="43.15058131106525" lon="13.227415302206678"><ele>282.0</ele><time>2026-04-19T09:05:42Z</time></trkpt><trkpt lat="43.15053927692047" lon="13.227114051463303"><ele>282.0</ele><time>2026-04-19T09:05:43Z</time></trkpt><trkpt lat="43.15050784227593" lon="13.226816798399184"><ele>282.0</ele><time>2026-04-19T09:05:44Z</time></trkpt><trkpt lat="43.150491185287365" lon="13.226507118948913"><ele>282.0</ele><time>2026-04-19T09:05:45Z</time></trkpt><trkpt lat="43.15047808774168" lon="13.22620014088149"><ele>283.0</ele><time>2026-04-19T09:05:46Z</time></trkpt><trkpt lat="43.15048082839766" lon="13.225890938877978"><ele>284.0</ele><time>2026-04-19T09:05:47Z</time></trkpt><trkpt lat="43.1504942014507" lon="13.225587275434224"><ele>285.0</ele><time>2026-04-19T09:05:48Z</time></trkpt><trkpt lat="43.15051959488512" lon="13.225277951273577"><ele>285.0</ele><time>2026-04-19T09:05:49Z</time></trkpt><trkpt lat="43.15055911231755" lon="13.224975523047421"><ele>285.0</ele><time>2026-04-19T09:05:50Z</time></trkpt><trkpt lat="43.150602972637785" lon="13.22467571582604"><ele>285.0</ele><time>2026-04-19T09:05:51Z</time></trkpt><trkpt lat="43.15065608825367" lon="13.224380566600521"><ele>280.6666666666667</ele><time>2026-04-19T09:05:52Z</time></trkpt><trkpt lat="43.1507167029218" lon="13.224083683235747"><ele>276.33333333333337</ele><time>2026-04-19T09:05:53Z</time></trkpt><trkpt lat="43.15078577266035" lon="13.22379199010158"><ele>272.0</ele><time>2026-04-19T09:05:54Z</time></trkpt><trkpt lat="43.150852619462" lon="13.223501934878582"><ele>269.33333333333337</ele><time>2026-04-19T09:05:55Z</time></trkpt><trkpt lat="43.150917521009795" lon="13.223207641084885"><ele>266.6666666666667</ele><time>2026-04-19T09:05:56Z</time></trkpt><trkpt lat="43.15098375863624" lon="13.22291664891918"><ele>264.0</ele><time>2026-04-19T09:05:57Z</time></trkpt><trkpt lat="43.1510471318946" lon="13.222622980518329"><ele>263.6666666666667</ele><time>2026-04-19T09:05:58Z</time></trkpt><trkpt lat="43.15110840193258" lon="13.22232985178675"><ele>263.33333333333337</ele><time>2026-04-19T09:05:59Z</time></trkpt><trkpt lat="43.15116668276983" lon="13.222036477180374"><ele>263.0</ele><time>2026-04-19T09:06:00Z</time></trkpt><trkpt lat="43.15122147560438" lon="13.221741184146378"><ele>264.33333333333337</ele><time>2026-04-19T09:06:01Z</time></trkpt><trkpt lat="43.15126926960801" lon="13.22144180640579"><ele>265.6666666666667</ele><time>2026-04-19T09:06:02Z</time></trkpt><trkpt lat="43.15130796896012" lon="13.22113855440832"><ele>267.0</ele><time>2026-04-19T09:06:03Z</time></trkpt><trkpt lat="43.15133906520854" lon="13.220837780712543"><ele>268.6666666666667</ele><time>2026-04-19T09:06:04Z</time></trkpt><trkpt lat="43.15136431864848" lon="13.220534062023281"><ele>270.33333333333337</ele><time>2026-04-19T09:06:04.999Z</time></trkpt><trkpt lat="43.15138186933967" lon="13.220228651573336"><ele>272.0</ele><time>2026-04-19T09:06:05.999Z</time></trkpt><trkpt lat="43.15139165277474" lon="13.21992311427593"><ele>272.33333333333337</ele><time>2026-04-19T09:06:06.999Z</time></trkpt><trkpt lat="43.15139244629902" lon="13.219620123365571"><ele>272.6666666666667</ele><time>2026-04-19T09:06:07.999Z</time></trkpt><trkpt lat="43.151385097167385" lon="13.219314180088753"><ele>273.0</ele><time>2026-04-19T09:06:08.999Z</time></trkpt><trkpt lat="43.15136991190491" lon="13.219011354166362"><ele>273.3333333333333</ele><time>2026-04-19T09:06:09.999Z</time></trkpt><trkpt lat="43.151345964580294" lon="13.21870391948458"><ele>273.66666666666663</ele><time>2026-04-19T09:06:10.999Z</time></trkpt><trkpt lat="43.15131728785108" lon="13.218403719853917"><ele>274.0</ele><time>2026-04-19T09:06:11.999Z</time></trkpt><trkpt lat="43.151284387293856" lon="13.218100822121729"><ele>275.0</ele><time>2026-04-19T09:06:12.999Z</time></trkpt><trkpt lat="43.15124793752064" lon="13.217803873801335"><ele>276.0</ele><time>2026-04-19T09:06:13.999Z</time></trkpt><trkpt lat="43.15120795095269" lon="13.217502752612464"><ele>277.0</ele><time>2026-04-19T09:06:14.999Z</time></trkpt><trkpt lat="43.15116545170902" lon="13.217201388936571"><ele>278.0</ele><time>2026-04-19T09:06:15.999Z</time></trkpt><trkpt lat="43.15111820077046" lon="13.216905541174993"><ele>279.0</ele><time>2026-04-19T09:06:16.999Z</time></trkpt><trkpt lat="43.15106394029726" lon="13.216608616144418"><ele>280.0</ele><time>2026-04-19T09:06:17.999Z</time></trkpt><trkpt lat="43.15100894480527" lon="13.216311862735468"><ele>281.0</ele><time>2026-04-19T09:06:18.999Z</time></trkpt><trkpt lat="43.150955488823406" lon="13.21601572654745"><ele>282.0</ele><time>2026-04-19T09:06:19.999Z</time></trkpt><trkpt lat="43.150900859357" lon="13.215721722184963"><ele>283.0</ele><time>2026-04-19T09:06:20.999Z</time></trkpt><trkpt lat="43.150844824768" lon="13.215425605304583"><ele>282.0</ele><time>2026-04-19T09:06:21.999Z</time></trkpt><trkpt lat="43.15078795025934" lon="13.215132357862478"><ele>281.0</ele><time>2026-04-19T09:06:22.999Z</time></trkpt><trkpt lat="43.15073313956524" lon="13.214837249267518"><ele>280.0</ele><time>2026-04-19T09:06:23.999Z</time></trkpt><trkpt lat="43.15067537683346" lon="13.214543466740178"><ele>280.0</ele><time>2026-04-19T09:06:24.999Z</time></trkpt><trkpt lat="43.15060441982398" lon="13.214256735245847"><ele>280.0</ele><time>2026-04-19T09:06:25.999Z</time></trkpt><trkpt lat="43.15051599382418" lon="13.21397587096189"><ele>280.0</ele><time>2026-04-19T09:06:26.999Z</time></trkpt><trkpt lat="43.15042285975108" lon="13.213697781356709"><ele>281.3333333333333</ele><time>2026-04-19T09:06:27.999Z</time></trkpt><trkpt lat="43.15031880803736" lon="13.213426627682344"><ele>282.6666666666667</ele><time>2026-04-19T09:06:28.999Z</time></trkpt><trkpt lat="43.15020274257578" lon="13.213165352824378"><ele>284.0</ele><time>2026-04-19T09:06:29.999Z</time></trkpt><trkpt lat="43.15007273009017" lon="13.212908479112615"><ele>283.0</ele><time>2026-04-19T09:06:30.999Z</time></trkpt><trkpt lat="43.14992821066746" lon="13.212656085187028"><ele>282.0</ele><time>2026-04-19T09:06:31.999Z</time></trkpt><trkpt lat="43.149766920007906" lon="13.212411773096573"><ele>286.0</ele><time>2026-04-19T09:06:32.999Z</time></trkpt><trkpt lat="43.14959213278857" lon="13.212171651498895"><ele>290.0</ele><time>2026-04-19T09:06:33.999Z</time></trkpt><trkpt lat="43.14941558159033" lon="13.211932989678463"><ele>290.0</ele><time>2026-04-19T09:06:34.999Z</time></trkpt><trkpt lat="43.14924701268968" lon="13.211691005428305"><ele>290.0</ele><time>2026-04-19T09:06:35.999Z</time></trkpt><trkpt lat="43.14908757154233" lon="13.211444439174711"><ele>289.5</ele><time>2026-04-19T09:06:36.999Z</time></trkpt><trkpt lat="43.14893854766174" lon="13.211194634786626"><ele>289.0</ele><time>2026-04-19T09:06:37.999Z</time></trkpt><trkpt lat="43.14880617749512" lon="13.210943372249583"><ele>289.0</ele><time>2026-04-19T09:06:38.999Z</time></trkpt><trkpt lat="43.14869776700685" lon="13.210677230837668"><ele>289.0</ele><time>2026-04-19T09:06:39.999Z</time></trkpt><trkpt lat="43.148602892513814" lon="13.21039251168941"><ele>296.0</ele><time>2026-04-19T09:06:40.999Z</time></trkpt><trkpt lat="43.148518433701554" lon="13.210093536708504"><ele>303.0</ele><time>2026-04-19T09:06:41.999Z</time></trkpt><trkpt lat="43.148443984522764" lon="13.209786075497039"><ele>305.0</ele><time>2026-04-19T09:06:42.999Z</time></trkpt><trkpt lat="43.14837472085493" lon="13.209481221555727"><ele>307.0</ele><time>2026-04-19T09:06:43.999Z</time></trkpt><trkpt lat="43.14830482915551" lon="13.209177677191152"><ele>308.5</ele><time>2026-04-19T09:06:44.999Z</time></trkpt><trkpt lat="43.148236087618756" lon="13.208871867305847"><ele>310.0</ele><time>2026-04-19T09:06:45.999Z</time></trkpt><trkpt lat="43.148149997784444" lon="13.20855476296103"><ele>308.5</ele><time>2026-04-19T09:06:46.999Z</time></trkpt><trkpt lat="43.14808622749767" lon="13.20820108615606"><ele>307.0</ele><time>2026-04-19T09:06:47.999Z</time></trkpt><trkpt lat="43.14804411296918" lon="13.207843741902149"><ele>307.0</ele><time>2026-04-19T09:06:48.999Z</time></trkpt><trkpt lat="43.147984587789935" lon="13.2075138620786"><ele>307.0</ele><time>2026-04-19T09:06:49.999Z</time></trkpt><trkpt lat="43.147925634669704" lon="13.207186239171332"><ele>314.5</ele><time>2026-04-19T09:06:50.999Z</time></trkpt><trkpt lat="43.147863371226904" lon="13.206860823280833"><ele>322.0</ele><time>2026-04-19T09:06:51.999Z</time></trkpt><trkpt lat="43.147797896813834" lon="13.206539336229055"><ele>324.5</ele><time>2026-04-19T09:06:52.999Z</time></trkpt><trkpt lat="43.14773071662381" lon="13.20622041068058"><ele>327.0</ele><time>2026-04-19T09:06:53.999Z</time></trkpt><trkpt lat="43.1476600637311" lon="13.205879851170941"><ele>324.5</ele><time>2026-04-19T09:06:55.066Z</time></trkpt><trkpt lat="43.147596930728206" lon="13.205557081871495"><ele>322.0</ele><time>2026-04-19T09:06:56.061Z</time></trkpt><trkpt lat="43.14753755486785" lon="13.205230428568884"><ele>322.0</ele><time>2026-04-19T09:06:57.057Z</time></trkpt><trkpt lat="43.147479138020074" lon="13.20490309151855"><ele>322.0</ele><time>2026-04-19T09:06:58.057Z</time></trkpt><trkpt lat="43.14742280928709" lon="13.204573336877392"><ele>311.5</ele><time>2026-04-19T09:06:59.051Z</time></trkpt><trkpt lat="43.147364397080466" lon="13.204247425030077"><ele>301.0</ele><time>2026-04-19T09:07:00.039Z</time></trkpt><trkpt lat="43.147329859309714" lon="13.203909857390343"><ele>300.0</ele><time>2026-04-19T09:07:01.037Z</time></trkpt><trkpt lat="43.14708895371975" lon="13.20327555623147"><ele>300.6666666666667</ele><time>2026-04-19T09:07:02.999Z</time></trkpt><trkpt lat="43.1470182173741" lon="13.202988544413454"><ele>301.33333333333337</ele><time>2026-04-19T09:07:03.999Z</time></trkpt><trkpt lat="43.14697967656469" lon="13.2026822432694"><ele>302.0</ele><time>2026-04-19T09:07:04.999Z</time></trkpt><trkpt lat="43.146965157934794" lon="13.202366136178263"><ele>303.0</ele><time>2026-04-19T09:07:05.999Z</time></trkpt><trkpt lat="43.1469726560427" lon="13.202064790080897"><ele>304.0</ele><time>2026-04-19T09:07:06.999Z</time></trkpt><trkpt lat="43.14698222800208" lon="13.201771351621229"><ele>305.0</ele><time>2026-04-19T09:07:07.999Z</time></trkpt><trkpt lat="43.14697574047905" lon="13.201477639278341"><ele>306.6666666666667</ele><time>2026-04-19T09:07:08.999Z</time></trkpt><trkpt lat="43.14695132632614" lon="13.201195629560534"><ele>308.3333333333333</ele><time>2026-04-19T09:07:09.999Z</time></trkpt><trkpt lat="43.14691539493828" lon="13.200918931356556"><ele>310.0</ele><time>2026-04-19T09:07:10.999Z</time></trkpt><trkpt lat="43.146859766392055" lon="13.200648239948613"><ele>313.0</ele><time>2026-04-19T09:07:11.999Z</time></trkpt><trkpt lat="43.1467898413839" lon="13.200387843641995"><ele>316.0</ele><time>2026-04-19T09:07:12.999Z</time></trkpt><trkpt lat="43.146701545517175" lon="13.200135616317942"><ele>319.0</ele><time>2026-04-19T09:07:13.999Z</time></trkpt><trkpt lat="43.14660597376944" lon="13.19989015201713"><ele>314.0</ele><time>2026-04-19T09:07:14.999Z</time></trkpt><trkpt lat="43.14649878909737" lon="13.199654767694277"><ele>309.0</ele><time>2026-04-19T09:07:15.999Z</time></trkpt><trkpt lat="43.14638247587818" lon="13.199429035216188"><ele>304.0</ele><time>2026-04-19T09:07:17Z</time></trkpt><trkpt lat="43.14626604463926" lon="13.199219841933878"><ele>304.0</ele><time>2026-04-19T09:07:18Z</time></trkpt><trkpt lat="43.14615721805406" lon="13.199009220879056"><ele>304.0</ele><time>2026-04-19T09:07:19Z</time></trkpt><trkpt lat="43.14605492226867" lon="13.198794789915993"><ele>304.0</ele><time>2026-04-19T09:07:20Z</time></trkpt><trkpt lat="43.14596001299415" lon="13.198592819379966"><ele>305.3333333333333</ele><time>2026-04-19T09:07:21Z</time></trkpt><trkpt lat="43.14586241009899" lon="13.198384148420292"><ele>306.6666666666667</ele><time>2026-04-19T09:07:22Z</time></trkpt><trkpt lat="43.14576193170698" lon="13.198177106109387"><ele>308.0</ele><time>2026-04-19T09:07:23Z</time></trkpt><trkpt lat="43.14566390679127" lon="13.19796844232123"><ele>305.33333333333337</ele><time>2026-04-19T09:07:24Z</time></trkpt><trkpt lat="43.14556839748752" lon="13.197757296175494"><ele>302.6666666666667</ele><time>2026-04-19T09:07:25Z</time></trkpt><trkpt lat="43.14547680469579" lon="13.197535094093949"><ele>300.0</ele><time>2026-04-19T09:07:26Z</time></trkpt><trkpt lat="43.14538984177414" lon="13.197307988126582"><ele>300.0</ele><time>2026-04-19T09:07:27Z</time></trkpt><trkpt lat="43.14530666408889" lon="13.19706701825774"><ele>300.0</ele><time>2026-04-19T09:07:28Z</time></trkpt><trkpt lat="43.145236649410606" lon="13.196821300169955"><ele>300.0</ele><time>2026-04-19T09:07:29Z</time></trkpt><trkpt lat="43.14517786494933" lon="13.196569965844176"><ele>301.3333333333333</ele><time>2026-04-19T09:07:30Z</time></trkpt><trkpt lat="43.145139584630826" lon="13.196302291974694"><ele>302.66666666666663</ele><time>2026-04-19T09:07:31Z</time></trkpt><trkpt lat="43.14510775084938" lon="13.19602769809685"><ele>304.0</ele><time>2026-04-19T09:07:32Z</time></trkpt><trkpt lat="43.14507330133163" lon="13.195748757275656"><ele>306.66666666666663</ele><time>2026-04-19T09:07:33Z</time></trkpt><trkpt lat="43.14502376743755" lon="13.19546969954237"><ele>309.3333333333333</ele><time>2026-04-19T09:07:34Z</time></trkpt><trkpt lat="43.14493936390401" lon="13.195167401943761"><ele>312.0</ele><time>2026-04-19T09:07:35Z</time></trkpt><trkpt lat="43.14488039896322" lon="13.194849429706325"><ele>315.6666666666667</ele><time>2026-04-19T09:07:36Z</time></trkpt><trkpt lat="43.14490326497542" lon="13.194620619262304"><ele>319.33333333333337</ele><time>2026-04-19T09:07:37Z</time></trkpt><trkpt lat="43.14485923663215" lon="13.19433578765409"><ele>323.0</ele><time>2026-04-19T09:07:38Z</time></trkpt><trkpt lat="43.144814703176735" lon="13.194048228711711"><ele>316.6666666666667</ele><time>2026-04-19T09:07:39Z</time></trkpt><trkpt lat="43.1447774105397" lon="13.19375996641821"><ele>310.3333333333333</ele><time>2026-04-19T09:07:40Z</time></trkpt><trkpt lat="43.14474085609753" lon="13.193477317089574"><ele>304.0</ele><time>2026-04-19T09:07:41Z</time></trkpt><trkpt lat="43.1447034413413" lon="13.193192739407973"><ele>305.3333333333333</ele><time>2026-04-19T09:07:42Z</time></trkpt><trkpt lat="43.144667494421384" lon="13.192915272154798"><ele>306.6666666666667</ele><time>2026-04-19T09:07:43Z</time></trkpt><trkpt lat="43.14462673126164" lon="13.19263498541259"><ele>308.0</ele><time>2026-04-19T09:07:44Z</time></trkpt><trkpt lat="43.14459268375823" lon="13.192361535946642"><ele>307.33333333333337</ele><time>2026-04-19T09:07:45Z</time></trkpt><trkpt lat="43.144558291165424" lon="13.192090071237343"><ele>306.6666666666667</ele><time>2026-04-19T09:07:46Z</time></trkpt><trkpt lat="43.144519749025974" lon="13.191815831597184"><ele>306.0</ele><time>2026-04-19T09:07:47Z</time></trkpt><trkpt lat="43.14448322777027" lon="13.19154523916301"><ele>306.6666666666667</ele><time>2026-04-19T09:07:48Z</time></trkpt><trkpt lat="43.144441160594624" lon="13.191276405056497"><ele>307.33333333333337</ele><time>2026-04-19T09:07:49Z</time></trkpt><trkpt lat="43.14439687340575" lon="13.191016678640038"><ele>308.0</ele><time>2026-04-19T09:07:50Z</time></trkpt><trkpt lat="43.14435560129699" lon="13.19074604441532"><ele>308.6666666666667</ele><time>2026-04-19T09:07:51Z</time></trkpt><trkpt lat="43.1443155948111" lon="13.190478744891251"><ele>309.3333333333333</ele><time>2026-04-19T09:07:52Z</time></trkpt><trkpt lat="43.144274894871344" lon="13.190208210897916"><ele>310.0</ele><time>2026-04-19T09:07:53Z</time></trkpt><trkpt lat="43.14422354254713" lon="13.189938691649239"><ele>309.66666666666663</ele><time>2026-04-19T09:07:54Z</time></trkpt><trkpt lat="43.1441607981589" lon="13.18967395997862"><ele>309.3333333333333</ele><time>2026-04-19T09:07:55Z</time></trkpt><trkpt lat="43.144093774301545" lon="13.189412805080389"><ele>309.0</ele><time>2026-04-19T09:07:56Z</time></trkpt><trkpt lat="43.14402013575205" lon="13.189158850535113"><ele>310.0</ele><time>2026-04-19T09:07:57Z</time></trkpt><trkpt lat="43.143921285982174" lon="13.188913323911295"><ele>311.0</ele><time>2026-04-19T09:07:58Z</time></trkpt><trkpt lat="43.14380239169535" lon="13.188669327228238"><ele>312.0</ele><time>2026-04-19T09:07:59Z</time></trkpt><trkpt lat="43.14368362753797" lon="13.188429873089408"><ele>312.0</ele><time>2026-04-19T09:08:00Z</time></trkpt><trkpt lat="43.143554910489435" lon="13.188193196459514"><ele>312.0</ele><time>2026-04-19T09:08:01Z</time></trkpt><trkpt lat="43.14341993610043" lon="13.187957016002693"><ele>312.0</ele><time>2026-04-19T09:08:02Z</time></trkpt><trkpt lat="43.14328556430194" lon="13.187725247385524"><ele>309.6666666666667</ele><time>2026-04-19T09:08:03Z</time></trkpt><trkpt lat="43.14314722602334" lon="13.187496412145421"><ele>307.33333333333337</ele><time>2026-04-19T09:08:04Z</time></trkpt><trkpt lat="43.14300594985922" lon="13.18726619565986"><ele>305.0</ele><time>2026-04-19T09:08:05Z</time></trkpt><trkpt lat="43.14286477184619" lon="13.187030102310587"><ele>305.0</ele><time>2026-04-19T09:08:06Z</time></trkpt><trkpt lat="43.14272514356707" lon="13.186792498147794"><ele>305.0</ele><time>2026-04-19T09:08:07Z</time></trkpt><trkpt lat="43.14258389361436" lon="13.186550581262372"><ele>305.0</ele><time>2026-04-19T09:08:08Z</time></trkpt><trkpt lat="43.142451123161074" lon="13.18630026634064"><ele>302.5</ele><time>2026-04-19T09:08:09Z</time></trkpt><trkpt lat="43.14231915607311" lon="13.186048670181124"><ele>300.0</ele><time>2026-04-19T09:08:09.999Z</time></trkpt><trkpt lat="43.1421922409535" lon="13.18578995124276"><ele>303.5</ele><time>2026-04-19T09:08:10.999Z</time></trkpt><trkpt lat="43.14206907303243" lon="13.185526004854923"><ele>307.0</ele><time>2026-04-19T09:08:11.999Z</time></trkpt><trkpt lat="43.14194980841742" lon="13.185260313748755"><ele>307.0</ele><time>2026-04-19T09:08:12.999Z</time></trkpt><trkpt lat="43.14183321864563" lon="13.184991533801972"><ele>307.0</ele><time>2026-04-19T09:08:13.999Z</time></trkpt><trkpt lat="43.14172025372541" lon="13.184717019045952"><ele>304.0</ele><time>2026-04-19T09:08:14.999Z</time></trkpt><trkpt lat="43.141611704633256" lon="13.184438925902642"><ele>301.0</ele><time>2026-04-19T09:08:15.999Z</time></trkpt><trkpt lat="43.14150859997736" lon="13.184159496109226"><ele>301.0</ele><time>2026-04-19T09:08:16.999Z</time></trkpt><trkpt lat="43.14141348324649" lon="13.183872533440027"><ele>301.0</ele><time>2026-04-19T09:08:17.999Z</time></trkpt><trkpt lat="43.14132644614066" lon="13.183582400071039"><ele>301.0</ele><time>2026-04-19T09:08:18.999Z</time></trkpt><trkpt lat="43.14124813856579" lon="13.183288777846672"><ele>301.0</ele><time>2026-04-19T09:08:19.999Z</time></trkpt><trkpt lat="43.141175021131055" lon="13.182993964005847"><ele>304.5</ele><time>2026-04-19T09:08:20.999Z</time></trkpt><trkpt lat="43.141103202058325" lon="13.182702458222066"><ele>308.0</ele><time>2026-04-19T09:08:21.999Z</time></trkpt><trkpt lat="43.1410317975322" lon="13.182408734294633"><ele>311.33333333333337</ele><time>2026-04-19T09:08:22.999Z</time></trkpt><trkpt lat="43.14096563317988" lon="13.182115909346754"><ele>314.6666666666667</ele><time>2026-04-19T09:08:23.999Z</time></trkpt><trkpt lat="43.1408940320951" lon="13.181826225447418"><ele>318.0</ele><time>2026-04-19T09:08:24.999Z</time></trkpt><trkpt lat="43.140822442995166" lon="13.181539582407739"><ele>320.6666666666667</ele><time>2026-04-19T09:08:25.999Z</time></trkpt><trkpt lat="43.14075104342998" lon="13.181253431697105"><ele>323.33333333333337</ele><time>2026-04-19T09:08:26.999Z</time></trkpt><trkpt lat="43.14067814795773" lon="13.180967362524115"><ele>326.0</ele><time>2026-04-19T09:08:27.999Z</time></trkpt><trkpt lat="43.14060169387494" lon="13.180681034214512"><ele>318.33333333333337</ele><time>2026-04-19T09:08:28.999Z</time></trkpt><trkpt lat="43.14051826784038" lon="13.180402814928193"><ele>310.6666666666667</ele><time>2026-04-19T09:08:29.999Z</time></trkpt><trkpt lat="43.14042500235524" lon="13.180127317641059"><ele>303.0</ele><time>2026-04-19T09:08:30.999Z</time></trkpt><trkpt lat="43.14032184685998" lon="13.17985790392876"><ele>305.0</ele><time>2026-04-19T09:08:31.999Z</time></trkpt><trkpt lat="43.140211058623315" lon="13.179593489004922"><ele>307.0</ele><time>2026-04-19T09:08:32.999Z</time></trkpt><trkpt lat="43.14009005057251" lon="13.17933244039427"><ele>309.0</ele><time>2026-04-19T09:08:33.999Z</time></trkpt><trkpt lat="43.139961318610716" lon="13.179076058275799"><ele>304.5</ele><time>2026-04-19T09:08:34.999Z</time></trkpt><trkpt lat="43.13982577621328" lon="13.17882523078982"><ele>300.0</ele><time>2026-04-19T09:08:35.999Z</time></trkpt><trkpt lat="43.13968840201647" lon="13.1785692785816"><ele>300.0</ele><time>2026-04-19T09:08:36.999Z</time></trkpt><trkpt lat="43.13954846336541" lon="13.178314993764491"><ele>300.0</ele><time>2026-04-19T09:08:37.999Z</time></trkpt><trkpt lat="43.13941245496705" lon="13.178051207695082"><ele>301.0</ele><time>2026-04-19T09:08:38.999Z</time></trkpt><trkpt lat="43.13927572260101" lon="13.177786940820205"><ele>302.0</ele><time>2026-04-19T09:08:39.999Z</time></trkpt><trkpt lat="43.13914139425063" lon="13.177520691675427"><ele>300.5</ele><time>2026-04-19T09:08:40.999Z</time></trkpt><trkpt lat="43.139010320569334" lon="13.177249417356817"><ele>299.0</ele><time>2026-04-19T09:08:41.999Z</time></trkpt><trkpt lat="43.13887049587336" lon="13.176976394760267"><ele>299.0</ele><time>2026-04-19T09:08:42.999Z</time></trkpt><trkpt lat="43.13875954731175" lon="13.176688746551807"><ele>299.0</ele><time>2026-04-19T09:08:43.999Z</time></trkpt><trkpt lat="43.13864898738067" lon="13.176394689021986"><ele>300.0</ele><time>2026-04-19T09:08:44.999Z</time></trkpt><trkpt lat="43.13854815665764" lon="13.176096195659149"><ele>301.0</ele><time>2026-04-19T09:08:45.999Z</time></trkpt><trkpt lat="43.13845722197172" lon="13.175790261179728"><ele>302.5</ele><time>2026-04-19T09:08:46.999Z</time></trkpt><trkpt lat="43.13837693360082" lon="13.175480574878142"><ele>304.0</ele><time>2026-04-19T09:08:47.999Z</time></trkpt><trkpt lat="43.13830718845402" lon="13.175165533490826"><ele>303.5</ele><time>2026-04-19T09:08:48.999Z</time></trkpt><trkpt lat="43.138248305507574" lon="13.174848980564771"><ele>303.0</ele><time>2026-04-19T09:08:49.999Z</time></trkpt><trkpt lat="43.138197436132074" lon="13.17452788730084"><ele>303.0</ele><time>2026-04-19T09:08:50.999Z</time></trkpt><trkpt lat="43.1381492412012" lon="13.17420686620311"><ele>303.0</ele><time>2026-04-19T09:08:51.999Z</time></trkpt><trkpt lat="43.138103512350284" lon="13.17388665143951"><ele>306.0</ele><time>2026-04-19T09:08:52.999Z</time></trkpt><trkpt lat="43.13806233490148" lon="13.173561864183283"><ele>309.0</ele><time>2026-04-19T09:08:53.999Z</time></trkpt><trkpt lat="43.138021041303276" lon="13.173237244905769"><ele>310.5</ele><time>2026-04-19T09:08:54.999Z</time></trkpt><trkpt lat="43.137977215310556" lon="13.172913284350779"><ele>312.0</ele><time>2026-04-19T09:08:55.999Z</time></trkpt><trkpt lat="43.13793341126922" lon="13.172586071653345"><ele>314.0</ele><time>2026-04-19T09:08:56.999Z</time></trkpt><trkpt lat="43.137887886941314" lon="13.172256997651557"><ele>316.0</ele><time>2026-04-19T09:08:57.999Z</time></trkpt><trkpt lat="43.13784146904782" lon="13.171929664842198"><ele>316.0</ele><time>2026-04-19T09:08:58.999Z</time></trkpt><trkpt lat="43.137799328057476" lon="13.171597725284736"><ele>316.0</ele><time>2026-04-19T09:08:59.999Z</time></trkpt><trkpt lat="43.13775827092965" lon="13.171269469614545"><ele>315.0</ele><time>2026-04-19T09:09:00.999Z</time></trkpt><trkpt lat="43.137720854186945" lon="13.170936282205638"><ele>314.0</ele><time>2026-04-19T09:09:01.999Z</time></trkpt><trkpt lat="43.13769227098742" lon="13.170601923777223"><ele>312.5</ele><time>2026-04-19T09:09:02.999Z</time></trkpt><trkpt lat="43.137670247048966" lon="13.170271040083954"><ele>311.0</ele><time>2026-04-19T09:09:03.999Z</time></trkpt><trkpt lat="43.137660274137396" lon="13.169937861059845"><ele>310.5</ele><time>2026-04-19T09:09:04.999Z</time></trkpt><trkpt lat="43.13766306476981" lon="13.169605190506891"><ele>310.0</ele><time>2026-04-19T09:09:05.999Z</time></trkpt><trkpt lat="43.1376785856747" lon="13.169275626995786"><ele>309.5</ele><time>2026-04-19T09:09:06.999Z</time></trkpt><trkpt lat="43.13770518507942" lon="13.168947439798593"><ele>309.0</ele><time>2026-04-19T09:09:07.999Z</time></trkpt><trkpt lat="43.137738741990134" lon="13.168622311000622"><ele>309.0</ele><time>2026-04-19T09:09:08.999Z</time></trkpt><trkpt lat="43.137781421863" lon="13.168296688858733"><ele>309.0</ele><time>2026-04-19T09:09:09.999Z</time></trkpt><trkpt lat="43.1378369431593" lon="13.167975688704674"><ele>308.5</ele><time>2026-04-19T09:09:10.999Z</time></trkpt><trkpt lat="43.13790309015707" lon="13.167667182958262"><ele>308.0</ele><time>2026-04-19T09:09:11.999Z</time></trkpt><trkpt lat="43.13796627955286" lon="13.167372947401091"><ele>307.6666666666667</ele><time>2026-04-19T09:09:12.999Z</time></trkpt><trkpt lat="43.13803400902782" lon="13.167086851396839"><ele>307.3333333333333</ele><time>2026-04-19T09:09:13.999Z</time></trkpt><trkpt lat="43.13810408066896" lon="13.166803920415079"><ele>307.0</ele><time>2026-04-19T09:09:14.999Z</time></trkpt><trkpt lat="43.13817421092036" lon="13.166521032624608"><ele>324.0</ele><time>2026-04-19T09:09:15.999Z</time></trkpt><trkpt lat="43.13824616886576" lon="13.166233871067636"><ele>341.0</ele><time>2026-04-19T09:09:16.999Z</time></trkpt><trkpt lat="43.13831764990069" lon="13.165931258267532"><ele>343.6666666666667</ele><time>2026-04-19T09:09:18.067Z</time></trkpt><trkpt lat="43.13839373277001" lon="13.165656876502165"><ele>346.3333333333333</ele><time>2026-04-19T09:09:19.054Z</time></trkpt><trkpt lat="43.138474532027324" lon="13.165389684736146"><ele>349.0</ele><time>2026-04-19T09:09:20.05Z</time></trkpt><trkpt lat="43.13855249179627" lon="13.16512304131848"><ele>358.0</ele><time>2026-04-19T09:09:21.047Z</time></trkpt><trkpt lat="43.13862718332891" lon="13.164849541843529"><ele>367.0</ele><time>2026-04-19T09:09:22.047Z</time></trkpt><trkpt lat="43.139274730225814" lon="13.16219515355245"><ele>308.0</ele><time>2026-04-19T09:09:32.372Z</time></trkpt><trkpt lat="43.13751225586032" lon="13.159581741855893"><ele>308.0</ele><time>2026-04-19T09:09:37.999Z</time></trkpt><trkpt lat="43.13741076387528" lon="13.159276918564181"><ele>308.0</ele><time>2026-04-19T09:09:38.999Z</time></trkpt><trkpt lat="43.13729200164552" lon="13.15897597242726"><ele>317.5</ele><time>2026-04-19T09:09:39.999Z</time></trkpt><trkpt lat="43.13717762624062" lon="13.158687773390607"><ele>327.0</ele><time>2026-04-19T09:09:40.999Z</time></trkpt><trkpt lat="43.13706818043721" lon="13.158382138600235"><ele>324.0</ele><time>2026-04-19T09:09:42Z</time></trkpt><trkpt lat="43.136964909398436" lon="13.158087558611225"><ele>321.0</ele><time>2026-04-19T09:09:43Z</time></trkpt><trkpt lat="43.13686263233748" lon="13.157783848887181"><ele>321.0</ele><time>2026-04-19T09:09:44Z</time></trkpt><trkpt lat="43.13674710001087" lon="13.157480451435362"><ele>321.0</ele><time>2026-04-19T09:09:45Z</time></trkpt><trkpt lat="43.136630445216674" lon="13.157190171391994"><ele>320.5</ele><time>2026-04-19T09:09:46Z</time></trkpt><trkpt lat="43.13652739306093" lon="13.1568838774116"><ele>320.0</ele><time>2026-04-19T09:09:47Z</time></trkpt><trkpt lat="43.13641441732688" lon="13.156587700116436"><ele>315.5</ele><time>2026-04-19T09:09:48Z</time></trkpt><trkpt lat="43.13629883740692" lon="13.156296463737224"><ele>311.0</ele><time>2026-04-19T09:09:49Z</time></trkpt><trkpt lat="43.136184474348504" lon="13.156003612172684"><ele>311.0</ele><time>2026-04-19T09:09:50Z</time></trkpt><trkpt lat="43.136071585954674" lon="13.155706323935494"><ele>311.0</ele><time>2026-04-19T09:09:51Z</time></trkpt><trkpt lat="43.13595853860483" lon="13.155408863077893"><ele>312.5</ele><time>2026-04-19T09:09:52Z</time></trkpt><trkpt lat="43.13584795984355" lon="13.155112483903581"><ele>314.0</ele><time>2026-04-19T09:09:53Z</time></trkpt><trkpt lat="43.13573583237919" lon="13.154816103349438"><ele>314.0</ele><time>2026-04-19T09:09:54Z</time></trkpt><trkpt lat="43.13562485883782" lon="13.154517465092013"><ele>314.0</ele><time>2026-04-19T09:09:55Z</time></trkpt><trkpt lat="43.13551816858147" lon="13.154215503079293"><ele>314.5</ele><time>2026-04-19T09:09:56Z</time></trkpt><trkpt lat="43.13542604062743" lon="13.153909351483023"><ele>315.0</ele><time>2026-04-19T09:09:57Z</time></trkpt><trkpt lat="43.135346989570095" lon="13.153593029635562"><ele>315.0</ele><time>2026-04-19T09:09:58Z</time></trkpt><trkpt lat="43.1352763931216" lon="13.153271996453292"><ele>315.0</ele><time>2026-04-19T09:09:59Z</time></trkpt><trkpt lat="43.1352165715358" lon="13.152945201622611"><ele>316.0</ele><time>2026-04-19T09:10:00Z</time></trkpt><trkpt lat="43.135165430825325" lon="13.152617970046105"><ele>317.0</ele><time>2026-04-19T09:10:01Z</time></trkpt><trkpt lat="43.13512903826031" lon="13.15228747620251"><ele>317.5</ele><time>2026-04-19T09:10:02Z</time></trkpt><trkpt lat="43.13509966229638" lon="13.151957989691104"><ele>318.0</ele><time>2026-04-19T09:10:03Z</time></trkpt><trkpt lat="43.13507490200304" lon="13.151626006439146"><ele>317.5</ele><time>2026-04-19T09:10:04Z</time></trkpt><trkpt lat="43.1350555870079" lon="13.15129556868064"><ele>317.0</ele><time>2026-04-19T09:10:05Z</time></trkpt><trkpt lat="43.1350368506806" lon="13.150961918714001"><ele>318.0</ele><time>2026-04-19T09:10:06Z</time></trkpt><trkpt lat="43.13501673987947" lon="13.15062731747217"><ele>319.0</ele><time>2026-04-19T09:10:07Z</time></trkpt><trkpt lat="43.13499840203732" lon="13.150293208611604"><ele>319.0</ele><time>2026-04-19T09:10:08Z</time></trkpt><trkpt lat="43.1349776196285" lon="13.149957163740766"><ele>319.0</ele><time>2026-04-19T09:10:09Z</time></trkpt><trkpt lat="43.13495437844581" lon="13.149625913336815"><ele>320.5</ele><time>2026-04-19T09:10:10Z</time></trkpt><trkpt lat="43.13493058073338" lon="13.14929365588876"><ele>322.0</ele><time>2026-04-19T09:10:11Z</time></trkpt><trkpt lat="43.13490783958852" lon="13.148961709665173"><ele>321.0</ele><time>2026-04-19T09:10:12Z</time></trkpt><trkpt lat="43.13488045064122" lon="13.148632466418261"><ele>320.0</ele><time>2026-04-19T09:10:13Z</time></trkpt><trkpt lat="43.13484697643402" lon="13.148302406405064"><ele>319.0</ele><time>2026-04-19T09:10:14Z</time></trkpt><trkpt lat="43.13480160661923" lon="13.147974216836088"><ele>318.0</ele><time>2026-04-19T09:10:15Z</time></trkpt><trkpt lat="43.13474654945886" lon="13.14765062291753"><ele>317.5</ele><time>2026-04-19T09:10:16Z</time></trkpt><trkpt lat="43.13467905744973" lon="13.147329310633559"><ele>317.0</ele><time>2026-04-19T09:10:17Z</time></trkpt><trkpt lat="43.13459499592712" lon="13.14701367430341"><ele>317.0</ele><time>2026-04-19T09:10:18Z</time></trkpt><trkpt lat="43.13449675026292" lon="13.146707605833956"><ele>317.0</ele><time>2026-04-19T09:10:19Z</time></trkpt><trkpt lat="43.13438680167295" lon="13.146407255727064"><ele>317.5</ele><time>2026-04-19T09:10:20Z</time></trkpt><trkpt lat="43.13426585638338" lon="13.1461164320814"><ele>318.0</ele><time>2026-04-19T09:10:21Z</time></trkpt><trkpt lat="43.13413804098602" lon="13.145832222763172"><ele>319.0</ele><time>2026-04-19T09:10:22Z</time></trkpt><trkpt lat="43.1340084934728" lon="13.145545728774831"><ele>320.0</ele><time>2026-04-19T09:10:23Z</time></trkpt><trkpt lat="43.13387493497371" lon="13.145269031907858"><ele>320.0</ele><time>2026-04-19T09:10:24Z</time></trkpt><trkpt lat="43.13373702682498" lon="13.144993797192953"><ele>320.0</ele><time>2026-04-19T09:10:25Z</time></trkpt><trkpt lat="43.13359746429272" lon="13.144719804725836"><ele>323.0</ele><time>2026-04-19T09:10:26Z</time></trkpt><trkpt lat="43.13345713134482" lon="13.144443822238836"><ele>326.0</ele><time>2026-04-19T09:10:27Z</time></trkpt><trkpt lat="43.13331667578614" lon="13.144172561806123"><ele>324.5</ele><time>2026-04-19T09:10:28Z</time></trkpt><trkpt lat="43.133170100099484" lon="13.143902614206993"><ele>323.0</ele><time>2026-04-19T09:10:29Z</time></trkpt><trkpt lat="43.13301688019726" lon="13.143645326816475"><ele>323.0</ele><time>2026-04-19T09:10:30Z</time></trkpt><trkpt lat="43.13285412042991" lon="13.143402936804305"><ele>323.0</ele><time>2026-04-19T09:10:31Z</time></trkpt><trkpt lat="43.13268540712527" lon="13.143162716978415"><ele>323.0</ele><time>2026-04-19T09:10:32Z</time></trkpt><trkpt lat="43.1325093866572" lon="13.142929014753253"><ele>323.0</ele><time>2026-04-19T09:10:33Z</time></trkpt><trkpt lat="43.13232385587126" lon="13.142705879502534"><ele>323.0</ele><time>2026-04-19T09:10:34Z</time></trkpt><trkpt lat="43.13213240603452" lon="13.142493408221172"><ele>323.0</ele><time>2026-04-19T09:10:35Z</time></trkpt><trkpt lat="43.13193796966054" lon="13.142287711229327"><ele>326.0</ele><time>2026-04-19T09:10:35.999Z</time></trkpt><trkpt lat="43.131744841630095" lon="13.142087037052711"><ele>329.0</ele><time>2026-04-19T09:10:36.999Z</time></trkpt><trkpt lat="43.13154978324593" lon="13.14188634986431"><ele>329.0</ele><time>2026-04-19T09:10:37.999Z</time></trkpt><trkpt lat="43.131353143377865" lon="13.141689486050582"><ele>329.0</ele><time>2026-04-19T09:10:38.999Z</time></trkpt><trkpt lat="43.13115527904115" lon="13.141491467344425"><ele>328.5</ele><time>2026-04-19T09:10:39.999Z</time></trkpt><trkpt lat="43.130958874403206" lon="13.141292808737711"><ele>328.0</ele><time>2026-04-19T09:10:40.999Z</time></trkpt><trkpt lat="43.13076114802699" lon="13.141096993821764"><ele>326.5</ele><time>2026-04-19T09:10:41.999Z</time></trkpt><trkpt lat="43.1305640246425" lon="13.140899308084023"><ele>325.0</ele><time>2026-04-19T09:10:42.999Z</time></trkpt><trkpt lat="43.130367777752014" lon="13.140700515535142"><ele>331.5</ele><time>2026-04-19T09:10:43.999Z</time></trkpt><trkpt lat="43.130170799846866" lon="13.140502664998396"><ele>338.0</ele><time>2026-04-19T09:10:44.999Z</time></trkpt><trkpt lat="43.12997145691365" lon="13.140305055711845"><ele>332.0</ele><time>2026-04-19T09:10:45.999Z</time></trkpt><trkpt lat="43.129773020014504" lon="13.14011024563621"><ele>326.0</ele><time>2026-04-19T09:10:46.999Z</time></trkpt><trkpt lat="43.12957420013745" lon="13.13991810771095"><ele>331.5</ele><time>2026-04-19T09:10:47.999Z</time></trkpt><trkpt lat="43.12937330859383" lon="13.13972722497793"><ele>337.0</ele><time>2026-04-19T09:10:48.999Z</time></trkpt><trkpt lat="43.12917229531507" lon="13.139536846900153"><ele>332.0</ele><time>2026-04-19T09:10:49.999Z</time></trkpt><trkpt lat="43.12896972427831" lon="13.139347469744571"><ele>327.0</ele><time>2026-04-19T09:10:50.999Z</time></trkpt><trkpt lat="43.128766071501836" lon="13.139150845403028"><ele>326.5</ele><time>2026-04-19T09:10:51.999Z</time></trkpt><trkpt lat="43.12856406727083" lon="13.138970850176575"><ele>326.0</ele><time>2026-04-19T09:10:52.999Z</time></trkpt><trkpt lat="43.12836046074145" lon="13.138783296081884"><ele>332.0</ele><time>2026-04-19T09:10:53.999Z</time></trkpt><trkpt lat="43.12815875741438" lon="13.138595669538324"><ele>338.0</ele><time>2026-04-19T09:10:54.999Z</time></trkpt><trkpt lat="43.12795806354789" lon="13.138409879334105"><ele>338.0</ele><time>2026-04-19T09:10:55.999Z</time></trkpt><trkpt lat="43.127757070749524" lon="13.13822133758428"><ele>338.0</ele><time>2026-04-19T09:10:56.999Z</time></trkpt><trkpt lat="43.12755279356382" lon="13.138038143997315"><ele>348.0</ele><time>2026-04-19T09:10:57.999Z</time></trkpt><trkpt lat="43.12735038902869" lon="13.137854099742738"><ele>358.0</ele><time>2026-04-19T09:10:58.999Z</time></trkpt><trkpt lat="43.12714400770478" lon="13.137668956609673"><ele>358.0</ele><time>2026-04-19T09:10:59.999Z</time></trkpt><trkpt lat="43.126938882945275" lon="13.137487607967495"><ele>358.0</ele><time>2026-04-19T09:11:00.999Z</time></trkpt><trkpt lat="43.126735726452125" lon="13.137299385386862"><ele>360.0</ele><time>2026-04-19T09:11:01.999Z</time></trkpt><trkpt lat="43.12652849003358" lon="13.137106044545845"><ele>362.0</ele><time>2026-04-19T09:11:02.999Z</time></trkpt><trkpt lat="43.12631956651296" lon="13.136908941915927"><ele>362.0</ele><time>2026-04-19T09:11:03.999Z</time></trkpt><trkpt lat="43.12610670937794" lon="13.136712254278535"><ele>362.0</ele><time>2026-04-19T09:11:04.999Z</time></trkpt><trkpt lat="43.1258879433621" lon="13.136512658381124"><ele>347.5</ele><time>2026-04-19T09:11:05.999Z</time></trkpt><trkpt lat="43.125658418563944" lon="13.13630523826935"><ele>333.0</ele><time>2026-04-19T09:11:06.999Z</time></trkpt><trkpt lat="43.125420519789884" lon="13.136087310053805"><ele>333.0</ele><time>2026-04-19T09:11:08.065Z</time></trkpt><trkpt lat="43.12512544755362" lon="13.135783081365668"><ele>333.0</ele><time>2026-04-19T09:11:09.999Z</time></trkpt><trkpt lat="43.12491354926672" lon="13.135598564460187"><ele>337.5</ele><time>2026-04-19T09:11:10.999Z</time></trkpt><trkpt lat="43.12471661298051" lon="13.13540659152414"><ele>342.0</ele><time>2026-04-19T09:11:11.999Z</time></trkpt><trkpt lat="43.12451973876784" lon="13.13525095588537"><ele>342.0</ele><time>2026-04-19T09:11:12.999Z</time></trkpt><trkpt lat="43.12431997323124" lon="13.135067343565302"><ele>342.0</ele><time>2026-04-19T09:11:13.999Z</time></trkpt><trkpt lat="43.12390847464211" lon="13.134693620135938"><ele>347.5</ele><time>2026-04-19T09:11:15.999Z</time></trkpt><trkpt lat="43.12368867173821" lon="13.13451982893176"><ele>353.0</ele><time>2026-04-19T09:11:16.999Z</time></trkpt><trkpt lat="43.123485246849185" lon="13.134336599949027"><ele>353.0</ele><time>2026-04-19T09:11:17.999Z</time></trkpt><trkpt lat="43.12327854926943" lon="13.134159387867566"><ele>353.0</ele><time>2026-04-19T09:11:18.999Z</time></trkpt><trkpt lat="43.1230853948447" lon="13.13397952366533"><ele>399.0</ele><time>2026-04-19T09:11:19.999Z</time></trkpt><trkpt lat="43.12158625428957" lon="13.132952751573288"><ele>377.0</ele><time>2026-04-19T09:11:27.044Z</time></trkpt><trkpt lat="43.12136636802614" lon="13.132840777909335"><ele>355.0</ele><time>2026-04-19T09:11:28.046Z</time></trkpt><trkpt lat="43.1204782" lon="13.1324619"><ele>339.0</ele><time>2026-04-19T09:11:31.063Z</time></trkpt><trkpt lat="43.119663500956584" lon="13.13174251961554"><ele>339.0</ele><time>2026-04-19T09:11:34.999Z</time></trkpt><trkpt lat="43.11947243141369" lon="13.131609233655961"><ele>339.0</ele><time>2026-04-19T09:11:35.999Z</time></trkpt><trkpt lat="43.119281423410996" lon="13.131608434693007"><ele>339.0</ele><time>2026-04-19T09:11:36.999Z</time></trkpt><trkpt lat="43.11915689189695" lon="13.131684698410211"><ele>339.0</ele><time>2026-04-19T09:11:38.999Z</time></trkpt><trkpt lat="43.11903252761185" lon="13.1316380597224"><ele>339.0</ele><time>2026-04-19T09:11:39.999Z</time></trkpt><trkpt lat="43.11892000602877" lon="13.131585840221423"><ele>339.0</ele><time>2026-04-19T09:11:40.999Z</time></trkpt><trkpt lat="43.11879647173949" lon="13.131516455797671"><ele>339.0</ele><time>2026-04-19T09:11:41.999Z</time></trkpt><trkpt lat="43.118704899447685" lon="13.131464734575214"><ele>339.0</ele><time>2026-04-19T09:11:42.999Z</time></trkpt><trkpt lat="43.11864409323766" lon="13.131420897298701"><ele>339.0</ele><time>2026-04-19T09:11:43.999Z</time></trkpt><trkpt lat="43.118601510369324" lon="13.131354103463876"><ele>339.0</ele><time>2026-04-19T09:11:45.999Z</time></trkpt><trkpt lat="43.11851327217818" lon="13.131325092567437"><ele>339.0</ele><time>2026-04-19T09:13:54Z</time></trkpt><trkpt lat="43.118425537073655" lon="13.131273975061701"><ele>339.0</ele><time>2026-04-19T09:13:56Z</time></trkpt><trkpt lat="43.11833108274849" lon="13.131230755613009"><ele>339.0</ele><time>2026-04-19T09:13:58Z</time></trkpt><trkpt lat="43.11822277929636" lon="13.131173616461217"><ele>339.0</ele><time>2026-04-19T09:14:00Z</time></trkpt><trkpt lat="43.11816313393309" lon="13.131144483432944"><ele>339.0</ele><time>2026-04-19T09:14:01Z</time></trkpt><trkpt lat="43.118101483240565" lon="13.131117726605055"><ele>339.0</ele><time>2026-04-19T09:14:02Z</time></trkpt><trkpt lat="43.11803851720427" lon="13.131090666394734"><ele>339.0</ele><time>2026-04-19T09:14:03Z</time></trkpt><trkpt lat="43.11796022759752" lon="13.131058894488486"><ele>339.0</ele><time>2026-04-19T09:14:04Z</time></trkpt><trkpt lat="43.117882009934185" lon="13.131029302340664"><ele>339.0</ele><time>2026-04-19T09:14:05Z</time></trkpt><trkpt lat="43.11778910017809" lon="13.131002928213263"><ele>339.0</ele><time>2026-04-19T09:14:06Z</time></trkpt><trkpt lat="43.117710635341794" lon="13.130930328682371"><ele>339.0</ele><time>2026-04-19T09:14:07Z</time></trkpt><trkpt lat="43.117601772199606" lon="13.130880375163516"><ele>339.0</ele><time>2026-04-19T09:14:08Z</time></trkpt><trkpt lat="43.11748150850933" lon="13.130821180584418"><ele>339.0</ele><time>2026-04-19T09:14:09Z</time></trkpt><trkpt lat="43.11736476238859" lon="13.130763759906694"><ele>339.0</ele><time>2026-04-19T09:14:10Z</time></trkpt><trkpt lat="43.117247777963286" lon="13.130718990587248"><ele>339.0</ele><time>2026-04-19T09:14:11Z</time></trkpt><trkpt lat="43.11716653807888" lon="13.130630488498811"><ele>339.0</ele><time>2026-04-19T09:14:12Z</time></trkpt><trkpt lat="43.11706485231702" lon="13.130568158940678"><ele>339.0</ele><time>2026-04-19T09:14:13Z</time></trkpt><trkpt lat="43.11696524726572" lon="13.130510078200057"><ele>339.0</ele><time>2026-04-19T09:14:14Z</time></trkpt><trkpt lat="43.11685152826577" lon="13.130452878860725"><ele>339.0</ele><time>2026-04-19T09:14:15Z</time></trkpt><trkpt lat="43.11672761216003" lon="13.13039951215117"><ele>339.0</ele><time>2026-04-19T09:14:16Z</time></trkpt><trkpt lat="43.116601897694125" lon="13.13034863011359"><ele>339.0</ele><time>2026-04-19T09:14:17Z</time></trkpt><trkpt lat="43.11647506074935" lon="13.130294356489598"><ele>339.0</ele><time>2026-04-19T09:14:18Z</time></trkpt><trkpt lat="43.11634239963016" lon="13.130234600524822"><ele>339.0</ele><time>2026-04-19T09:14:19Z</time></trkpt><trkpt lat="43.11622097655092" lon="13.130184504163113"><ele>339.0</ele><time>2026-04-19T09:14:20Z</time></trkpt><trkpt lat="43.11609327529754" lon="13.130135037775897"><ele>339.0</ele><time>2026-04-19T09:14:21Z</time></trkpt><trkpt lat="43.115967795289485" lon="13.130093476964742"><ele>339.0</ele><time>2026-04-19T09:14:22Z</time></trkpt><trkpt lat="43.11583535414908" lon="13.130055301722154"><ele>339.25</ele><time>2026-04-19T09:14:23Z</time></trkpt><trkpt lat="43.115702923265644" lon="13.130024119671045"><ele>339.5</ele><time>2026-04-19T09:14:24Z</time></trkpt><trkpt lat="43.11556946251453" lon="13.129993158361344"><ele>339.75</ele><time>2026-04-19T09:14:25Z</time></trkpt><trkpt lat="43.115433064884684" lon="13.129959587456112"><ele>340.0</ele><time>2026-04-19T09:14:26Z</time></trkpt><trkpt lat="43.115291815837075" lon="13.129939396183612"><ele>340.0</ele><time>2026-04-19T09:14:27Z</time></trkpt><trkpt lat="43.11514653576234" lon="13.129916293503344"><ele>340.0</ele><time>2026-04-19T09:14:28Z</time></trkpt><trkpt lat="43.11499402248606" lon="13.129894516385683"><ele>340.0</ele><time>2026-04-19T09:14:29Z</time></trkpt><trkpt lat="43.11483054896097" lon="13.129875875787084"><ele>340.66666666666663</ele><time>2026-04-19T09:14:30Z</time></trkpt><trkpt lat="43.11466385436392" lon="13.129863135994484"><ele>341.3333333333333</ele><time>2026-04-19T09:14:31Z</time></trkpt><trkpt lat="43.11449629793284" lon="13.129854882882718"><ele>342.0</ele><time>2026-04-19T09:14:32Z</time></trkpt><trkpt lat="43.11432530902761" lon="13.129856694179727"><ele>342.0</ele><time>2026-04-19T09:14:33Z</time></trkpt><trkpt lat="43.11414596516508" lon="13.129873767617946"><ele>342.0</ele><time>2026-04-19T09:14:34Z</time></trkpt><trkpt lat="43.11396959014523" lon="13.129878172371107"><ele>342.0</ele><time>2026-04-19T09:14:35Z</time></trkpt><trkpt lat="43.11379275934182" lon="13.129882820695535"><ele>342.0</ele><time>2026-04-19T09:14:36Z</time></trkpt><trkpt lat="43.1136172899022" lon="13.129891795539939"><ele>342.0</ele><time>2026-04-19T09:14:37Z</time></trkpt><trkpt lat="43.11344052151206" lon="13.129901075292214"><ele>342.0</ele><time>2026-04-19T09:14:38Z</time></trkpt><trkpt lat="43.113260356375484" lon="13.129914201023231"><ele>343.0</ele><time>2026-04-19T09:14:39Z</time></trkpt><trkpt lat="43.113072524839886" lon="13.12992388219229"><ele>344.0</ele><time>2026-04-19T09:14:40Z</time></trkpt><trkpt lat="43.11286797283154" lon="13.129931490303186"><ele>345.0</ele><time>2026-04-19T09:14:41Z</time></trkpt><trkpt lat="43.11272688017433" lon="13.129943663438969"><ele>345.0</ele><time>2026-04-19T09:14:42Z</time></trkpt><trkpt lat="43.1125390462916" lon="13.129956253411516"><ele>345.0</ele><time>2026-04-19T09:14:43Z</time></trkpt><trkpt lat="43.11235202147801" lon="13.129958789931667"><ele>345.0</ele><time>2026-04-19T09:14:44Z</time></trkpt><trkpt lat="43.11216918047574" lon="13.12996749100202"><ele>345.6666666666667</ele><time>2026-04-19T09:14:45Z</time></trkpt><trkpt lat="43.111990868851514" lon="13.12996039271192"><ele>346.33333333333337</ele><time>2026-04-19T09:14:46Z</time></trkpt><trkpt lat="43.11180678783585" lon="13.129954061559753"><ele>347.0</ele><time>2026-04-19T09:14:47Z</time></trkpt><trkpt lat="43.11163065455618" lon="13.12994035166595"><ele>348.33333333333337</ele><time>2026-04-19T09:14:48Z</time></trkpt><trkpt lat="43.1114461069945" lon="13.129934727790573"><ele>349.6666666666667</ele><time>2026-04-19T09:14:49Z</time></trkpt><trkpt lat="43.11126069017246" lon="13.129921534245648"><ele>351.0</ele><time>2026-04-19T09:14:50Z</time></trkpt><trkpt lat="43.11107438961822" lon="13.12990474161689"><ele>351.0</ele><time>2026-04-19T09:14:51Z</time></trkpt><trkpt lat="43.11088257640052" lon="13.129897505694911"><ele>351.0</ele><time>2026-04-19T09:14:52Z</time></trkpt><trkpt lat="43.11070255546083" lon="13.129914513414674"><ele>351.0</ele><time>2026-04-19T09:14:53Z</time></trkpt><trkpt lat="43.11052380047947" lon="13.129956891621466"><ele>350.0</ele><time>2026-04-19T09:14:54Z</time></trkpt><trkpt lat="43.11030666113107" lon="13.129862402067673"><ele>349.0</ele><time>2026-04-19T09:14:55Z</time></trkpt><trkpt lat="43.110105286894814" lon="13.12985173816139"><ele>348.0</ele><time>2026-04-19T09:14:56Z</time></trkpt><trkpt lat="43.109902496608555" lon="13.129838368125188"><ele>348.0</ele><time>2026-04-19T09:14:57Z</time></trkpt><trkpt lat="43.10970296175058" lon="13.12982755868917"><ele>348.0</ele><time>2026-04-19T09:14:58Z</time></trkpt><trkpt lat="43.10949728567121" lon="13.129813217179908"><ele>348.0</ele><time>2026-04-19T09:14:59Z</time></trkpt><trkpt lat="43.109294177575855" lon="13.129799629666811"><ele>348.0</ele><time>2026-04-19T09:15:00Z</time></trkpt><trkpt lat="43.10908656462842" lon="13.129783781663631"><ele>348.0</ele><time>2026-04-19T09:15:01Z</time></trkpt><trkpt lat="43.10888088444941" lon="13.129775687419976"><ele>348.0</ele><time>2026-04-19T09:15:02Z</time></trkpt><trkpt lat="43.10867284301833" lon="13.129764087386537"><ele>350.0</ele><time>2026-04-19T09:15:03Z</time></trkpt><trkpt lat="43.1084651468678" lon="13.129750305144043"><ele>352.0</ele><time>2026-04-19T09:15:04Z</time></trkpt><trkpt lat="43.10825319859686" lon="13.129735779231398"><ele>354.0</ele><time>2026-04-19T09:15:05Z</time></trkpt><trkpt lat="43.10804215469451" lon="13.129723835275529"><ele>354.3333333333333</ele><time>2026-04-19T09:15:06Z</time></trkpt><trkpt lat="43.10783254475811" lon="13.129706758232969"><ele>354.66666666666663</ele><time>2026-04-19T09:15:07Z</time></trkpt><trkpt lat="43.107620476509744" lon="13.12969154235185"><ele>355.0</ele><time>2026-04-19T09:15:08Z</time></trkpt><trkpt lat="43.10740990439539" lon="13.129678121474182"><ele>355.0</ele><time>2026-04-19T09:15:08.999Z</time></trkpt><trkpt lat="43.10720536668653" lon="13.129661199285996"><ele>355.0</ele><time>2026-04-19T09:15:09.999Z</time></trkpt><trkpt lat="43.10701196738142" lon="13.129645865829183"><ele>355.0</ele><time>2026-04-19T09:15:10.999Z</time></trkpt><trkpt lat="43.106832614587454" lon="13.129633446387105"><ele>355.0</ele><time>2026-04-19T09:15:11.999Z</time></trkpt><trkpt lat="43.106665514562394" lon="13.129626027506024"><ele>355.0</ele><time>2026-04-19T09:15:12.999Z</time></trkpt><trkpt lat="43.10651483352437" lon="13.129618024204808"><ele>355.0</ele><time>2026-04-19T09:15:13.999Z</time></trkpt><trkpt lat="43.10638172770693" lon="13.129608741490564"><ele>355.4</ele><time>2026-04-19T09:15:14.999Z</time></trkpt><trkpt lat="43.106266496091855" lon="13.129600362693752"><ele>355.8</ele><time>2026-04-19T09:15:15.999Z</time></trkpt><trkpt lat="43.10617852479965" lon="13.129577698153408"><ele>356.20000000000005</ele><time>2026-04-19T09:15:16.999Z</time></trkpt><trkpt lat="43.10608072056359" lon="13.129562134939581"><ele>356.6</ele><time>2026-04-19T09:15:17.999Z</time></trkpt><trkpt lat="43.10598109726085" lon="13.129530783162451"><ele>357.0</ele><time>2026-04-19T09:15:19.999Z</time></trkpt><trkpt lat="43.105888221740614" lon="13.129527619846069"><ele>357.0</ele><time>2026-04-19T09:15:44.999Z</time></trkpt><trkpt lat="43.10576074882528" lon="13.129547805512415"><ele>357.0</ele><time>2026-04-19T09:15:46.999Z</time></trkpt><trkpt lat="43.10568372307011" lon="13.129552791027729"><ele>357.0</ele><time>2026-04-19T09:15:47.999Z</time></trkpt><trkpt lat="43.105593012969145" lon="13.129556288636698"><ele>357.0</ele><time>2026-04-19T09:15:48.999Z</time></trkpt><trkpt lat="43.10549171537382" lon="13.12955267096136"><ele>357.0</ele><time>2026-04-19T09:15:49.999Z</time></trkpt><trkpt lat="43.105393862287904" lon="13.12958108972695"><ele>358.0</ele><time>2026-04-19T09:15:50.999Z</time></trkpt><trkpt lat="43.105291064882586" lon="13.12959063185474"><ele>359.0</ele><time>2026-04-19T09:15:51.999Z</time></trkpt><trkpt lat="43.10504962043235" lon="13.129521002200295"><ele>360.0</ele><time>2026-04-19T09:15:53.999Z</time></trkpt><trkpt lat="43.10493147433757" lon="13.129516604922026"><ele>359.25</ele><time>2026-04-19T09:15:54.999Z</time></trkpt><trkpt lat="43.104789184360804" lon="13.129506516895566"><ele>358.5</ele><time>2026-04-19T09:15:55.999Z</time></trkpt><trkpt lat="43.1046438686474" lon="13.12949999110028"><ele>357.75</ele><time>2026-04-19T09:15:56.999Z</time></trkpt><trkpt lat="43.10448565657386" lon="13.129479227032558"><ele>357.0</ele><time>2026-04-19T09:15:57.999Z</time></trkpt><trkpt lat="43.10432988680211" lon="13.129455881869285"><ele>357.0</ele><time>2026-04-19T09:15:59Z</time></trkpt><trkpt lat="43.10416683904731" lon="13.129429373298997"><ele>357.0</ele><time>2026-04-19T09:16:00Z</time></trkpt><trkpt lat="43.10400339085885" lon="13.129395204596264"><ele>357.0</ele><time>2026-04-19T09:16:01Z</time></trkpt><trkpt lat="43.103829237261195" lon="13.129360109194282"><ele>357.6666666666667</ele><time>2026-04-19T09:16:02Z</time></trkpt><trkpt lat="43.1036550817176" lon="13.129317856012173"><ele>358.33333333333337</ele><time>2026-04-19T09:16:03Z</time></trkpt><trkpt lat="43.103473713754674" lon="13.129261189863287"><ele>359.0</ele><time>2026-04-19T09:16:04Z</time></trkpt><trkpt lat="43.103287691619386" lon="13.129193738773708"><ele>359.33333333333337</ele><time>2026-04-19T09:16:05Z</time></trkpt><trkpt lat="43.10310341937555" lon="13.129119894661947"><ele>359.6666666666667</ele><time>2026-04-19T09:16:06Z</time></trkpt><trkpt lat="43.10292283444987" lon="13.129033133548486"><ele>360.0</ele><time>2026-04-19T09:16:07Z</time></trkpt><trkpt lat="43.102733729142976" lon="13.128942400126192"><ele>360.0</ele><time>2026-04-19T09:16:08Z</time></trkpt><trkpt lat="43.102546608142454" lon="13.128851853549854"><ele>360.0</ele><time>2026-04-19T09:16:09Z</time></trkpt><trkpt lat="43.102350065213855" lon="13.128723023781841"><ele>360.0</ele><time>2026-04-19T09:16:10Z</time></trkpt><trkpt lat="43.102165877908945" lon="13.12859448223844"><ele>361.0</ele><time>2026-04-19T09:16:11Z</time></trkpt><trkpt lat="43.10198930891443" lon="13.128454461043496"><ele>362.0</ele><time>2026-04-19T09:16:12Z</time></trkpt><trkpt lat="43.10182321415251" lon="13.128321549804394"><ele>363.0</ele><time>2026-04-19T09:16:13Z</time></trkpt><trkpt lat="43.101652517442425" lon="13.128162491933367"><ele>364.3333333333333</ele><time>2026-04-19T09:16:14Z</time></trkpt><trkpt lat="43.10148584824357" lon="13.128001416585303"><ele>365.66666666666663</ele><time>2026-04-19T09:16:15Z</time></trkpt><trkpt lat="43.10132538209048" lon="13.127834560467269"><ele>367.0</ele><time>2026-04-19T09:16:16Z</time></trkpt><trkpt lat="43.10117340949219" lon="13.127650997134488"><ele>367.0</ele><time>2026-04-19T09:16:17Z</time></trkpt><trkpt lat="43.101023062405886" lon="13.127461463762863"><ele>367.0</ele><time>2026-04-19T09:16:18Z</time></trkpt><trkpt lat="43.1008723098512" lon="13.12727081528112"><ele>367.0</ele><time>2026-04-19T09:16:19Z</time></trkpt><trkpt lat="43.10072088080272" lon="13.127072223454432"><ele>367.0</ele><time>2026-04-19T09:16:20Z</time></trkpt><trkpt lat="43.100571734616175" lon="13.12686866079803"><ele>367.0</ele><time>2026-04-19T09:16:21Z</time></trkpt><trkpt lat="43.10042806060937" lon="13.12666246483673"><ele>367.0</ele><time>2026-04-19T09:16:22Z</time></trkpt><trkpt lat="43.10028941701574" lon="13.126444081512439"><ele>367.66666666666663</ele><time>2026-04-19T09:16:23Z</time></trkpt><trkpt lat="43.10015402269518" lon="13.126222570019774"><ele>368.3333333333333</ele><time>2026-04-19T09:16:24Z</time></trkpt><trkpt lat="43.10002127650008" lon="13.126000899583365"><ele>369.0</ele><time>2026-04-19T09:16:25Z</time></trkpt><trkpt lat="43.09988374106169" lon="13.125777889264835"><ele>371.3333333333333</ele><time>2026-04-19T09:16:26Z</time></trkpt><trkpt lat="43.099748766633006" lon="13.125556943332803"><ele>373.66666666666663</ele><time>2026-04-19T09:16:27Z</time></trkpt><trkpt lat="43.099609808834806" lon="13.125335565840922"><ele>376.0</ele><time>2026-04-19T09:16:28Z</time></trkpt><trkpt lat="43.09946607827615" lon="13.12511663336219"><ele>376.0</ele><time>2026-04-19T09:16:29Z</time></trkpt><trkpt lat="43.09931240280036" lon="13.124905876176756"><ele>376.0</ele><time>2026-04-19T09:16:30Z</time></trkpt><trkpt lat="43.09914764487284" lon="13.12470655582699"><ele>376.0</ele><time>2026-04-19T09:16:31Z</time></trkpt><trkpt lat="43.0989670252561" lon="13.124565539814972"><ele>376.5</ele><time>2026-04-19T09:16:32Z</time></trkpt><trkpt lat="43.098788851838364" lon="13.124356216060203"><ele>377.0</ele><time>2026-04-19T09:16:33Z</time></trkpt><trkpt lat="43.09860622385434" lon="13.124176968965457"><ele>377.5</ele><time>2026-04-19T09:16:34Z</time></trkpt><trkpt lat="43.09842016633274" lon="13.12400450143837"><ele>378.0</ele><time>2026-04-19T09:16:35Z</time></trkpt><trkpt lat="43.09822811149563" lon="13.123840921055349"><ele>378.0</ele><time>2026-04-19T09:16:36Z</time></trkpt><trkpt lat="43.09803027470667" lon="13.123681930436465"><ele>378.0</ele><time>2026-04-19T09:16:37Z</time></trkpt><trkpt lat="43.09782744450889" lon="13.123530599625754"><ele>378.0</ele><time>2026-04-19T09:16:38Z</time></trkpt><trkpt lat="43.09762212299321" lon="13.123382455462393"><ele>378.0</ele><time>2026-04-19T09:16:39Z</time></trkpt><trkpt lat="43.09741478076896" lon="13.12322903453279"><ele>383.0</ele><time>2026-04-19T09:16:40Z</time></trkpt><trkpt lat="43.09720817447431" lon="13.123067738445581"><ele>388.0</ele><time>2026-04-19T09:16:41Z</time></trkpt><trkpt lat="43.09700493641283" lon="13.12290495739937"><ele>388.0</ele><time>2026-04-19T09:16:42Z</time></trkpt><trkpt lat="43.09681185623178" lon="13.122738993732082"><ele>388.0</ele><time>2026-04-19T09:16:43Z</time></trkpt><trkpt lat="43.09661845668092" lon="13.122577117692114"><ele>384.0</ele><time>2026-04-19T09:16:44Z</time></trkpt><trkpt lat="43.09642894524156" lon="13.122399053170133"><ele>380.0</ele><time>2026-04-19T09:16:45Z</time></trkpt><trkpt lat="43.09624484630192" lon="13.122215299795794"><ele>390.0</ele><time>2026-04-19T09:16:46Z</time></trkpt><trkpt lat="43.0960653353627" lon="13.122023024604829"><ele>400.0</ele><time>2026-04-19T09:16:47Z</time></trkpt><trkpt lat="43.095891273783074" lon="13.121826281049712"><ele>400.5</ele><time>2026-04-19T09:16:48Z</time></trkpt><trkpt lat="43.09572200726118" lon="13.121618877244176"><ele>401.0</ele><time>2026-04-19T09:16:49Z</time></trkpt><trkpt lat="43.0955567153306" lon="13.12140746456329"><ele>417.0</ele><time>2026-04-19T09:16:50Z</time></trkpt><trkpt lat="43.09539442643017" lon="13.121180763729718"><ele>433.0</ele><time>2026-04-19T09:16:51Z</time></trkpt><trkpt lat="43.09523287269282" lon="13.120956807486582"><ele>438.0</ele><time>2026-04-19T09:16:52Z</time></trkpt><trkpt lat="43.09507098750121" lon="13.120731081546197"><ele>443.0</ele><time>2026-04-19T09:16:53Z</time></trkpt><trkpt lat="43.09490715538331" lon="13.12050690566602"><ele>443.0</ele><time>2026-04-19T09:16:54Z</time></trkpt><trkpt lat="43.09474348768211" lon="13.120282069179119"><ele>443.0</ele><time>2026-04-19T09:16:55Z</time></trkpt><trkpt lat="43.09457132048548" lon="13.120039354412691"><ele>454.5</ele><time>2026-04-19T09:16:56.066Z</time></trkpt><trkpt lat="43.094412185686" lon="13.119813207166416"><ele>466.0</ele><time>2026-04-19T09:16:57.059Z</time></trkpt><trkpt lat="43.09272889487396" lon="13.117441991110375"><ele>394.0</ele><time>2026-04-19T09:17:08.635Z</time></trkpt><trkpt lat="43.091607673756975" lon="13.11356791800871"><ele>390.0</ele><time>2026-04-19T09:17:16.999Z</time></trkpt><trkpt lat="43.091559496876854" lon="13.113265457695746"><ele>386.0</ele><time>2026-04-19T09:17:17.999Z</time></trkpt><trkpt lat="43.091377367595115" lon="13.112958249907637"><ele>386.0</ele><time>2026-04-19T09:17:18.999Z</time></trkpt><trkpt lat="43.09125345613743" lon="13.11265106452618"><ele>386.0</ele><time>2026-04-19T09:17:19.999Z</time></trkpt><trkpt lat="43.09111425487429" lon="13.112341931142415"><ele>391.5</ele><time>2026-04-19T09:17:20.999Z</time></trkpt><trkpt lat="43.0909876709856" lon="13.112037562512414"><ele>397.0</ele><time>2026-04-19T09:17:21.999Z</time></trkpt><trkpt lat="43.09086095563146" lon="13.111734181937853"><ele>396.0</ele><time>2026-04-19T09:17:22.999Z</time></trkpt><trkpt lat="43.09073631385404" lon="13.111432364673016"><ele>395.0</ele><time>2026-04-19T09:17:23.999Z</time></trkpt><trkpt lat="43.090615859086306" lon="13.111118262176083"><ele>395.0</ele><time>2026-04-19T09:17:24.999Z</time></trkpt><trkpt lat="43.09049777748378" lon="13.110809866115096"><ele>395.0</ele><time>2026-04-19T09:17:25.999Z</time></trkpt><trkpt lat="43.0903843011895" lon="13.110500505502777"><ele>404.0</ele><time>2026-04-19T09:17:26.999Z</time></trkpt><trkpt lat="43.09027424834453" lon="13.110191569399397"><ele>413.0</ele><time>2026-04-19T09:17:27.999Z</time></trkpt><trkpt lat="43.09016518574542" lon="13.109872344449583"><ele>420.5</ele><time>2026-04-19T09:17:28.999Z</time></trkpt><trkpt lat="43.09005323900829" lon="13.109574202661635"><ele>428.0</ele><time>2026-04-19T09:17:29.999Z</time></trkpt><trkpt lat="43.089942772095355" lon="13.109265106077235"><ele>416.0</ele><time>2026-04-19T09:17:30.999Z</time></trkpt><trkpt lat="43.08983243785131" lon="13.108958742972941"><ele>404.0</ele><time>2026-04-19T09:17:31.999Z</time></trkpt><trkpt lat="43.08972137678105" lon="13.108655708827461"><ele>404.0</ele><time>2026-04-19T09:17:32.999Z</time></trkpt><trkpt lat="43.089608356273644" lon="13.108350510202737"><ele>404.0</ele><time>2026-04-19T09:17:33.999Z</time></trkpt><trkpt lat="43.0895039966669" lon="13.108026149982088"><ele>404.5</ele><time>2026-04-19T09:17:34.999Z</time></trkpt><trkpt lat="43.08934663674912" lon="13.10768037934467"><ele>405.0</ele><time>2026-04-19T09:17:35.999Z</time></trkpt><trkpt lat="43.089222251834606" lon="13.107342188657736"><ele>404.5</ele><time>2026-04-19T09:17:36.999Z</time></trkpt><trkpt lat="43.08910546147522" lon="13.107027027424309"><ele>404.0</ele><time>2026-04-19T09:17:37.999Z</time></trkpt><trkpt lat="43.088985528978434" lon="13.106697432848932"><ele>405.0</ele><time>2026-04-19T09:17:38.999Z</time></trkpt><trkpt lat="43.08886732316225" lon="13.106371642746604"><ele>406.0</ele><time>2026-04-19T09:17:39.999Z</time></trkpt><trkpt lat="43.08874818276132" lon="13.106044289661929"><ele>405.5</ele><time>2026-04-19T09:17:40.999Z</time></trkpt><trkpt lat="43.088629478564755" lon="13.105714234800415"><ele>405.0</ele><time>2026-04-19T09:17:41.999Z</time></trkpt><trkpt lat="43.088516595228505" lon="13.105390604331904"><ele>405.0</ele><time>2026-04-19T09:17:42.999Z</time></trkpt><trkpt lat="43.08839350819175" lon="13.105066629315878"><ele>405.0</ele><time>2026-04-19T09:17:43.999Z</time></trkpt><trkpt lat="43.08824999713586" lon="13.104739555720654"><ele>405.0</ele><time>2026-04-19T09:17:44.999Z</time></trkpt><trkpt lat="43.08812916374802" lon="13.104395579985617"><ele>405.0</ele><time>2026-04-19T09:17:45.999Z</time></trkpt><trkpt lat="43.08800202448788" lon="13.104070452805793"><ele>405.0</ele><time>2026-04-19T09:17:46.999Z</time></trkpt><trkpt lat="43.08787653674979" lon="13.103743396764422"><ele>405.0</ele><time>2026-04-19T09:17:47.999Z</time></trkpt><trkpt lat="43.08774112427922" lon="13.103420011777951"><ele>409.5</ele><time>2026-04-19T09:17:48.999Z</time></trkpt><trkpt lat="43.087602931431384" lon="13.103105096012262"><ele>414.0</ele><time>2026-04-19T09:17:49.999Z</time></trkpt><trkpt lat="43.087458661598106" lon="13.102794590062583"><ele>409.5</ele><time>2026-04-19T09:17:50.999Z</time></trkpt><trkpt lat="43.08730959960703" lon="13.102487183592546"><ele>405.0</ele><time>2026-04-19T09:17:51.999Z</time></trkpt><trkpt lat="43.08715488868972" lon="13.102190759790265"><ele>405.0</ele><time>2026-04-19T09:17:52.999Z</time></trkpt><trkpt lat="43.086999886159525" lon="13.101898470737"><ele>405.0</ele><time>2026-04-19T09:17:53.999Z</time></trkpt><trkpt lat="43.08683796059102" lon="13.101607938029908"><ele>404.0</ele><time>2026-04-19T09:17:54.999Z</time></trkpt><trkpt lat="43.086676933283776" lon="13.101323095157216"><ele>403.0</ele><time>2026-04-19T09:17:55.999Z</time></trkpt><trkpt lat="43.08651562425804" lon="13.1010320073841"><ele>403.0</ele><time>2026-04-19T09:17:56.999Z</time></trkpt><trkpt lat="43.08635824977746" lon="13.10075106902866"><ele>403.0</ele><time>2026-04-19T09:17:57.999Z</time></trkpt><trkpt lat="43.086199290983195" lon="13.100463084386522"><ele>408.5</ele><time>2026-04-19T09:17:58.999Z</time></trkpt><trkpt lat="43.08604055278855" lon="13.100178231211753"><ele>414.0</ele><time>2026-04-19T09:17:59.999Z</time></trkpt><trkpt lat="43.08587935859088" lon="13.0998793679079"><ele>410.5</ele><time>2026-04-19T09:18:00.999Z</time></trkpt><trkpt lat="43.08572291462778" lon="13.09960987489538"><ele>407.0</ele><time>2026-04-19T09:18:01.999Z</time></trkpt><trkpt lat="43.08556865522572" lon="13.099327530467399"><ele>410.0</ele><time>2026-04-19T09:18:02.999Z</time></trkpt><trkpt lat="43.08542550550704" lon="13.099063933866589"><ele>413.0</ele><time>2026-04-19T09:18:04Z</time></trkpt><trkpt lat="43.08524701806982" lon="13.09877198664051"><ele>413.0</ele><time>2026-04-19T09:18:05Z</time></trkpt><trkpt lat="43.08509043109171" lon="13.098500274557972"><ele>413.0</ele><time>2026-04-19T09:18:06Z</time></trkpt><trkpt lat="43.0849334278759" lon="13.098219572030494"><ele>409.0</ele><time>2026-04-19T09:18:07Z</time></trkpt><trkpt lat="43.08477681019857" lon="13.097939911464648"><ele>405.0</ele><time>2026-04-19T09:18:08Z</time></trkpt><trkpt lat="43.08461897454922" lon="13.097656501860174"><ele>414.5</ele><time>2026-04-19T09:18:09Z</time></trkpt><trkpt lat="43.08446655671192" lon="13.097384843099679"><ele>424.0</ele><time>2026-04-19T09:18:10Z</time></trkpt><trkpt lat="43.08431001295977" lon="13.097099184145714"><ele>424.0</ele><time>2026-04-19T09:18:11Z</time></trkpt><trkpt lat="43.0841575969958" lon="13.096819831837177"><ele>424.0</ele><time>2026-04-19T09:18:12Z</time></trkpt><trkpt lat="43.084003412360616" lon="13.096538813209508"><ele>421.5</ele><time>2026-04-19T09:18:13Z</time></trkpt><trkpt lat="43.08385115393034" lon="13.096258395872935"><ele>419.0</ele><time>2026-04-19T09:18:14Z</time></trkpt><trkpt lat="43.083693946364114" lon="13.095979980455526"><ele>425.0</ele><time>2026-04-19T09:18:15Z</time></trkpt><trkpt lat="43.083535978402466" lon="13.095695835725346"><ele>431.0</ele><time>2026-04-19T09:18:16Z</time></trkpt><trkpt lat="43.083373655238546" lon="13.09540745943937"><ele>418.5</ele><time>2026-04-19T09:18:17Z</time></trkpt><trkpt lat="43.08321248149278" lon="13.095120194171496"><ele>406.0</ele><time>2026-04-19T09:18:18Z</time></trkpt><trkpt lat="43.08305214655842" lon="13.094833572272181"><ele>406.0</ele><time>2026-04-19T09:18:19Z</time></trkpt><trkpt lat="43.08288847020103" lon="13.094549102042407"><ele>406.0</ele><time>2026-04-19T09:18:20Z</time></trkpt><trkpt lat="43.082803344620466" lon="13.094259294438315"><ele>410.0</ele><time>2026-04-19T09:18:21Z</time></trkpt><trkpt lat="43.082664231968025" lon="13.093941584815706"><ele>414.0</ele><time>2026-04-19T09:18:22Z</time></trkpt><trkpt lat="43.08256090578084" lon="13.09361112249385"><ele>414.0</ele><time>2026-04-19T09:18:23Z</time></trkpt><trkpt lat="43.08243853307497" lon="13.093293458171178"><ele>414.0</ele><time>2026-04-19T09:18:24Z</time></trkpt><trkpt lat="43.082317389687844" lon="13.092974458177695"><ele>412.5</ele><time>2026-04-19T09:18:25Z</time></trkpt><trkpt lat="43.08220449840303" lon="13.092650555654924"><ele>411.0</ele><time>2026-04-19T09:18:26Z</time></trkpt><trkpt lat="43.08209619367752" lon="13.092326045752628"><ele>411.0</ele><time>2026-04-19T09:18:27Z</time></trkpt><trkpt lat="43.08199136340235" lon="13.091993339535332"><ele>411.0</ele><time>2026-04-19T09:18:28Z</time></trkpt><trkpt lat="43.081890261043526" lon="13.091666465699328"><ele>414.5</ele><time>2026-04-19T09:18:29Z</time></trkpt><trkpt lat="43.08179486141365" lon="13.091330664121484"><ele>418.0</ele><time>2026-04-19T09:18:30Z</time></trkpt><trkpt lat="43.08170432932924" lon="13.090993610694106"><ele>419.5</ele><time>2026-04-19T09:18:31Z</time></trkpt><trkpt lat="43.08162304835887" lon="13.090649319085166"><ele>421.0</ele><time>2026-04-19T09:18:32Z</time></trkpt><trkpt lat="43.08154306050644" lon="13.090303558558743"><ele>416.0</ele><time>2026-04-19T09:18:33Z</time></trkpt><trkpt lat="43.081468371944936" lon="13.089961959507631"><ele>411.0</ele><time>2026-04-19T09:18:34Z</time></trkpt><trkpt lat="43.08139419268538" lon="13.08961966383444"><ele>411.0</ele><time>2026-04-19T09:18:35Z</time></trkpt><trkpt lat="43.08132479163169" lon="13.089279212619335"><ele>411.0</ele><time>2026-04-19T09:18:36Z</time></trkpt><trkpt lat="43.08126584388422" lon="13.088927476750008"><ele>412.0</ele><time>2026-04-19T09:18:37Z</time></trkpt><trkpt lat="43.08121052062318" lon="13.088576130523558"><ele>413.0</ele><time>2026-04-19T09:18:38Z</time></trkpt><trkpt lat="43.08116113868647" lon="13.08822290582131"><ele>414.0</ele><time>2026-04-19T09:18:39Z</time></trkpt><trkpt lat="43.081119337421754" lon="13.087871953953494"><ele>415.0</ele><time>2026-04-19T09:18:40Z</time></trkpt><trkpt lat="43.081088023935116" lon="13.08751149151342"><ele>414.0</ele><time>2026-04-19T09:18:41Z</time></trkpt><trkpt lat="43.0810637335902" lon="13.087149639743108"><ele>413.0</ele><time>2026-04-19T09:18:42Z</time></trkpt><trkpt lat="43.08104915880499" lon="13.086792220715214"><ele>413.0</ele><time>2026-04-19T09:18:43Z</time></trkpt><trkpt lat="43.08103788858322" lon="13.086432291445771"><ele>413.0</ele><time>2026-04-19T09:18:44Z</time></trkpt><trkpt lat="43.08102751616904" lon="13.086076099433214"><ele>417.0</ele><time>2026-04-19T09:18:45Z</time></trkpt><trkpt lat="43.081023323697266" lon="13.085713566408764"><ele>421.0</ele><time>2026-04-19T09:18:46Z</time></trkpt><trkpt lat="43.08102359481501" lon="13.085351574886275"><ele>421.0</ele><time>2026-04-19T09:18:47Z</time></trkpt><trkpt lat="43.08101974079797" lon="13.084997261751733"><ele>421.0</ele><time>2026-04-19T09:18:48Z</time></trkpt><trkpt lat="43.0810179462826" lon="13.084639887989775"><ele>425.0</ele><time>2026-04-19T09:18:49Z</time></trkpt><trkpt lat="43.08101417776239" lon="13.084280854794185"><ele>429.0</ele><time>2026-04-19T09:18:50Z</time></trkpt><trkpt lat="43.08101115070277" lon="13.083918473489064"><ele>432.0</ele><time>2026-04-19T09:18:51Z</time></trkpt><trkpt lat="43.081007857192986" lon="13.083547921401033"><ele>435.0</ele><time>2026-04-19T09:18:52Z</time></trkpt><trkpt lat="43.081002892889146" lon="13.083169341174168"><ele>436.5</ele><time>2026-04-19T09:18:53Z</time></trkpt><trkpt lat="43.08099522262911" lon="13.082781880069964"><ele>438.0</ele><time>2026-04-19T09:18:54Z</time></trkpt><trkpt lat="43.08098250099518" lon="13.082385667584724"><ele>444.0</ele><time>2026-04-19T09:18:55Z</time></trkpt><trkpt lat="43.08096390724606" lon="13.081961553758777"><ele>450.0</ele><time>2026-04-19T09:18:56.065Z</time></trkpt><trkpt lat="43.0809373296026" lon="13.081555319848315"><ele>453.5</ele><time>2026-04-19T09:18:57.062Z</time></trkpt><trkpt lat="43.08090859370526" lon="13.081145689921192"><ele>457.0</ele><time>2026-04-19T09:18:58.061Z</time></trkpt><trkpt lat="43.08043051017632" lon="13.078137901640698"><ele>438.5</ele><time>2026-04-19T09:19:06.999Z</time></trkpt><trkpt lat="43.08036734311795" lon="13.077754825186545"><ele>420.0</ele><time>2026-04-19T09:19:07.999Z</time></trkpt><trkpt lat="43.08031527055006" lon="13.077404889603987"><ele>420.0</ele><time>2026-04-19T09:19:08.999Z</time></trkpt><trkpt lat="43.080247334427725" lon="13.077065085927925"><ele>420.0</ele><time>2026-04-19T09:19:09.999Z</time></trkpt><trkpt lat="43.08025085603961" lon="13.076709828586425"><ele>422.5</ele><time>2026-04-19T09:19:10.999Z</time></trkpt><trkpt lat="43.08021342121759" lon="13.07637117717154"><ele>425.0</ele><time>2026-04-19T09:19:11.999Z</time></trkpt><trkpt lat="43.08017048029493" lon="13.076033396037205"><ele>427.0</ele><time>2026-04-19T09:19:12.999Z</time></trkpt><trkpt lat="43.0801477451608" lon="13.07568474231038"><ele>429.0</ele><time>2026-04-19T09:19:13.999Z</time></trkpt><trkpt lat="43.08011814407956" lon="13.07534173391554"><ele>429.0</ele><time>2026-04-19T09:19:14.999Z</time></trkpt><trkpt lat="43.080091141767824" lon="13.074997784283143"><ele>429.0</ele><time>2026-04-19T09:19:15.999Z</time></trkpt><trkpt lat="43.0800674621269" lon="13.0746523126984"><ele>431.5</ele><time>2026-04-19T09:19:16.999Z</time></trkpt><trkpt lat="43.080033906687184" lon="13.074310009597346"><ele>434.0</ele><time>2026-04-19T09:19:17.999Z</time></trkpt><trkpt lat="43.08002046020013" lon="13.073968803271525"><ele>435.5</ele><time>2026-04-19T09:19:18.999Z</time></trkpt><trkpt lat="43.079974596422325" lon="13.07367389112699"><ele>437.0</ele><time>2026-04-19T09:19:19.999Z</time></trkpt><trkpt lat="43.07996986208324" lon="13.073309865345845"><ele>440.0</ele><time>2026-04-19T09:19:20.999Z</time></trkpt><trkpt lat="43.079955349094654" lon="13.072967455965317"><ele>443.0</ele><time>2026-04-19T09:19:21.999Z</time></trkpt><trkpt lat="43.07994285827194" lon="13.072633664049421"><ele>448.5</ele><time>2026-04-19T09:19:22.999Z</time></trkpt><trkpt lat="43.0799340955473" lon="13.07229852778833"><ele>454.0</ele><time>2026-04-19T09:19:23.999Z</time></trkpt><trkpt lat="43.07991819182193" lon="13.07196729679471"><ele>443.5</ele><time>2026-04-19T09:19:24.999Z</time></trkpt><trkpt lat="43.07989974810439" lon="13.071630072454582"><ele>433.0</ele><time>2026-04-19T09:19:25.999Z</time></trkpt><trkpt lat="43.07988536371401" lon="13.071292446534766"><ele>433.0</ele><time>2026-04-19T09:19:26.999Z</time></trkpt><trkpt lat="43.07986774659747" lon="13.070955445478898"><ele>433.0</ele><time>2026-04-19T09:19:27.999Z</time></trkpt><trkpt lat="43.079851913688394" lon="13.07061908812172"><ele>450.0</ele><time>2026-04-19T09:19:28.999Z</time></trkpt><trkpt lat="43.07981926008001" lon="13.069924090783882"><ele>450.0</ele><time>2026-04-19T09:19:31.059Z</time></trkpt><trkpt lat="43.079803413564186" lon="13.069586857284905"><ele>450.0</ele><time>2026-04-19T09:19:32.059Z</time></trkpt><trkpt lat="43.07770222060223" lon="13.059975402071595"><ele>452.5</ele><time>2026-04-19T09:19:58.999Z</time></trkpt><trkpt lat="43.07751918212544" lon="13.059481258601839"><ele>455.0</ele><time>2026-04-19T09:19:59.999Z</time></trkpt><trkpt lat="43.07743046928332" lon="13.05911607776769"><ele>449.0</ele><time>2026-04-19T09:20:00.999Z</time></trkpt><trkpt lat="43.0773300310456" lon="13.058752743903558"><ele>443.0</ele><time>2026-04-19T09:20:01.999Z</time></trkpt><trkpt lat="43.07724073437034" lon="13.05838611542832"><ele>442.0</ele><time>2026-04-19T09:20:02.999Z</time></trkpt><trkpt lat="43.07714901100916" lon="13.058021214917838"><ele>441.0</ele><time>2026-04-19T09:20:03.999Z</time></trkpt><trkpt lat="43.07705803202954" lon="13.057655372624145"><ele>439.0</ele><time>2026-04-19T09:20:04.999Z</time></trkpt><trkpt lat="43.076948407493305" lon="13.05727816740632"><ele>437.0</ele><time>2026-04-19T09:20:05.999Z</time></trkpt><trkpt lat="43.076875277767215" lon="13.056923049196978"><ele>437.0</ele><time>2026-04-19T09:20:06.999Z</time></trkpt><trkpt lat="43.076793298047434" lon="13.05656394870387"><ele>437.0</ele><time>2026-04-19T09:20:07.999Z</time></trkpt><trkpt lat="43.07670883671973" lon="13.056217131321617"><ele>437.0</ele><time>2026-04-19T09:20:08.999Z</time></trkpt><trkpt lat="43.07663484426968" lon="13.055862526127147"><ele>437.0</ele><time>2026-04-19T09:20:10Z</time></trkpt><trkpt lat="43.076564565955266" lon="13.055501340492238"><ele>437.5</ele><time>2026-04-19T09:20:11Z</time></trkpt><trkpt lat="43.076496102622464" lon="13.055142836999426"><ele>438.0</ele><time>2026-04-19T09:20:12Z</time></trkpt><trkpt lat="43.07642500197234" lon="13.054785552424581"><ele>440.0</ele><time>2026-04-19T09:20:13Z</time></trkpt><trkpt lat="43.07635688835847" lon="13.054425420959355"><ele>442.0</ele><time>2026-04-19T09:20:14Z</time></trkpt><trkpt lat="43.07629426501783" lon="13.05406148972063"><ele>443.5</ele><time>2026-04-19T09:20:15Z</time></trkpt><trkpt lat="43.07623761680989" lon="13.05369602372778"><ele>445.0</ele><time>2026-04-19T09:20:16Z</time></trkpt><trkpt lat="43.07618405811477" lon="13.053329646198202"><ele>448.5</ele><time>2026-04-19T09:20:17Z</time></trkpt><trkpt lat="43.0761323847112" lon="13.05296445442915"><ele>452.0</ele><time>2026-04-19T09:20:18Z</time></trkpt><trkpt lat="43.076080391039945" lon="13.052596278920559"><ele>454.0</ele><time>2026-04-19T09:20:19Z</time></trkpt><trkpt lat="43.07603924671124" lon="13.052232774837766"><ele>456.0</ele><time>2026-04-19T09:20:20Z</time></trkpt><trkpt lat="43.076004121681805" lon="13.051866013182046"><ele>457.0</ele><time>2026-04-19T09:20:21Z</time></trkpt><trkpt lat="43.075970032968165" lon="13.051499239258812"><ele>458.0</ele><time>2026-04-19T09:20:22Z</time></trkpt><trkpt lat="43.07593391849407" lon="13.0511331531638"><ele>463.0</ele><time>2026-04-19T09:20:23Z</time></trkpt><trkpt lat="43.075899878298145" lon="13.050766870435519"><ele>468.0</ele><time>2026-04-19T09:20:24Z</time></trkpt><trkpt lat="43.07587122916913" lon="13.050401168340056"><ele>468.0</ele><time>2026-04-19T09:20:25Z</time></trkpt><trkpt lat="43.07584776448699" lon="13.050037112991376"><ele>468.0</ele><time>2026-04-19T09:20:26Z</time></trkpt><trkpt lat="43.075828781565626" lon="13.049674100670995"><ele>475.5</ele><time>2026-04-19T09:20:27Z</time></trkpt><trkpt lat="43.07581045309915" lon="13.049310622095803"><ele>483.0</ele><time>2026-04-19T09:20:28Z</time></trkpt><trkpt lat="43.07580069068297" lon="13.04894211685708"><ele>496.5</ele><time>2026-04-19T09:20:29Z</time></trkpt><trkpt lat="43.07579779712359" lon="13.048571883892963"><ele>510.0</ele><time>2026-04-19T09:20:30Z</time></trkpt><trkpt lat="43.07579739954802" lon="13.048201541080104"><ele>516.0</ele><time>2026-04-19T09:20:31Z</time></trkpt><trkpt lat="43.07579522691435" lon="13.047832987659755"><ele>522.0</ele><time>2026-04-19T09:20:32Z</time></trkpt><trkpt lat="43.07579336504598" lon="13.047465490038203"><ele>517.5</ele><time>2026-04-19T09:20:33Z</time></trkpt><trkpt lat="43.0757962634823" lon="13.04707495291971"><ele>513.0</ele><time>2026-04-19T09:20:34.065Z</time></trkpt><trkpt lat="43.07580206914088" lon="13.046707099026463"><ele>512.5</ele><time>2026-04-19T09:20:35.064Z</time></trkpt><trkpt lat="43.07580935685824" lon="13.046341806180747"><ele>512.0</ele><time>2026-04-19T09:20:36.066Z</time></trkpt><trkpt lat="43.07581345966585" lon="13.04597364967969"><ele>522.5</ele><time>2026-04-19T09:20:37.062Z</time></trkpt><trkpt lat="43.07582189553215" lon="13.045612466136996"><ele>533.0</ele><time>2026-04-19T09:20:38.06Z</time></trkpt><trkpt lat="43.075827322535325" lon="13.04525403649234"><ele>534.0</ele><time>2026-04-19T09:20:39.042Z</time></trkpt><trkpt lat="43.07583135563267" lon="13.044889355596547"><ele>535.0</ele><time>2026-04-19T09:20:40.034Z</time></trkpt><trkpt lat="43.0760108" lon="13.0428639"><ele>496.0</ele><time>2026-04-19T09:20:43.061Z</time></trkpt><trkpt lat="43.07613280568896" lon="13.042091235320326"><ele>496.0</ele><time>2026-04-19T09:20:46Z</time></trkpt><trkpt lat="43.07618172698531" lon="13.041686619859266"><ele>496.0</ele><time>2026-04-19T09:20:47Z</time></trkpt><trkpt lat="43.07625432495195" lon="13.041262198963139"><ele>504.5</ele><time>2026-04-19T09:20:48Z</time></trkpt><trkpt lat="43.07629829760931" lon="13.040867477728357"><ele>513.0</ele><time>2026-04-19T09:20:49Z</time></trkpt><trkpt lat="43.07636658618135" lon="13.040478239448865"><ele>519.0</ele><time>2026-04-19T09:20:50Z</time></trkpt><trkpt lat="43.07643230063039" lon="13.040093414039282"><ele>525.0</ele><time>2026-04-19T09:20:51Z</time></trkpt><trkpt lat="43.076498713976235" lon="13.039705785244719"><ele>535.5</ele><time>2026-04-19T09:20:52Z</time></trkpt><trkpt lat="43.07656608282807" lon="13.039317875760212"><ele>546.0</ele><time>2026-04-19T09:20:53Z</time></trkpt><trkpt lat="43.07663887824563" lon="13.038909216659087"><ele>556.5</ele><time>2026-04-19T09:20:54.054Z</time></trkpt><trkpt lat="43.0767187396564" lon="13.038509467318375"><ele>567.0</ele><time>2026-04-19T09:20:55.052Z</time></trkpt><trkpt lat="43.07678674383736" lon="13.038121182736525"><ele>565.5</ele><time>2026-04-19T09:20:56.056Z</time></trkpt><trkpt lat="43.07685482372097" lon="13.037737635817823"><ele>564.0</ele><time>2026-04-19T09:20:57.054Z</time></trkpt><trkpt lat="43.07692842770214" lon="13.03736075218594"><ele>564.0</ele><time>2026-04-19T09:20:58.049Z</time></trkpt><trkpt lat="43.07700364024837" lon="13.036981691650407"><ele>564.0</ele><time>2026-04-19T09:20:59.049Z</time></trkpt><trkpt lat="43.077072459321336" lon="13.036599893113856"><ele>476.0</ele><time>2026-04-19T09:21:00.032Z</time></trkpt><trkpt lat="43.07776200986233" lon="13.03438034623383"><ele>476.5</ele><time>2026-04-19T09:21:05Z</time></trkpt><trkpt lat="43.077862129766544" lon="13.033966122946465"><ele>477.0</ele><time>2026-04-19T09:21:06Z</time></trkpt><trkpt lat="43.07793425375181" lon="13.033558561079099"><ele>479.0</ele><time>2026-04-19T09:21:07Z</time></trkpt><trkpt lat="43.07805286783601" lon="13.033164283250567"><ele>481.0</ele><time>2026-04-19T09:21:08Z</time></trkpt><trkpt lat="43.07815565642713" lon="13.032765904526924"><ele>480.5</ele><time>2026-04-19T09:21:09Z</time></trkpt><trkpt lat="43.07825662803513" lon="13.032373172279987"><ele>480.0</ele><time>2026-04-19T09:21:10Z</time></trkpt><trkpt lat="43.07835708686807" lon="13.031977230122681"><ele>490.5</ele><time>2026-04-19T09:21:11Z</time></trkpt><trkpt lat="43.0784555599071" lon="13.03158572089876"><ele>501.0</ele><time>2026-04-19T09:21:12Z</time></trkpt><trkpt lat="43.078553052267914" lon="13.031183812253323"><ele>499.5</ele><time>2026-04-19T09:21:13Z</time></trkpt><trkpt lat="43.07864797149509" lon="13.030783721597818"><ele>498.0</ele><time>2026-04-19T09:21:14Z</time></trkpt><trkpt lat="43.07874783404407" lon="13.030384502570179"><ele>498.0</ele><time>2026-04-19T09:21:15Z</time></trkpt><trkpt lat="43.07884612469029" lon="13.029983875727357"><ele>498.0</ele><time>2026-04-19T09:21:16Z</time></trkpt><trkpt lat="43.07894337820121" lon="13.029581552776392"><ele>499.0</ele><time>2026-04-19T09:21:17Z</time></trkpt><trkpt lat="43.079033638921416" lon="13.02918022664731"><ele>500.0</ele><time>2026-04-19T09:21:18Z</time></trkpt><trkpt lat="43.07912650605542" lon="13.028776379414317"><ele>527.0</ele><time>2026-04-19T09:21:18.999Z</time></trkpt><trkpt lat="43.07921488025237" lon="13.028369598277694"><ele>554.0</ele><time>2026-04-19T09:21:19.999Z</time></trkpt><trkpt lat="43.07931063439591" lon="13.02797013156022"><ele>568.5</ele><time>2026-04-19T09:21:20.999Z</time></trkpt><trkpt lat="43.07940648086524" lon="13.027546592374005"><ele>583.0</ele><time>2026-04-19T09:21:22.048Z</time></trkpt><trkpt lat="43.079497239091985" lon="13.02714257694665"><ele>593.0</ele><time>2026-04-19T09:21:23.045Z</time></trkpt><trkpt lat="43.07958782087678" lon="13.026729311375151"><ele>603.0</ele><time>2026-04-19T09:21:24.045Z</time></trkpt><trkpt lat="43.079678306232935" lon="13.026313849792224"><ele>551.0</ele><time>2026-04-19T09:21:25.046Z</time></trkpt><trkpt lat="43.07726531883777" lon="13.003000453206223"><ele>551.0</ele><time>2026-04-19T09:22:17.999Z</time></trkpt><trkpt lat="43.07715216912199" lon="13.0025596906749"><ele>551.0</ele><time>2026-04-19T09:22:18.999Z</time></trkpt><trkpt lat="43.077061426412854" lon="13.002151826730428"><ele>549.5</ele><time>2026-04-19T09:22:19.999Z</time></trkpt><trkpt lat="43.07697780298254" lon="13.001735448966055"><ele>548.0</ele><time>2026-04-19T09:22:20.999Z</time></trkpt><trkpt lat="43.07685991294938" lon="13.001309494108623"><ele>548.0</ele><time>2026-04-19T09:22:21.999Z</time></trkpt><trkpt lat="43.07677423533984" lon="13.0009105161015"><ele>548.0</ele><time>2026-04-19T09:22:22.999Z</time></trkpt><trkpt lat="43.076677921975985" lon="13.000500762087634"><ele>553.5</ele><time>2026-04-19T09:22:24Z</time></trkpt><trkpt lat="43.07658822724551" lon="13.000083822765856"><ele>559.0</ele><time>2026-04-19T09:22:25Z</time></trkpt><trkpt lat="43.076498470844655" lon="12.999669314949823"><ele>559.0</ele><time>2026-04-19T09:22:26Z</time></trkpt><trkpt lat="43.076407933847356" lon="12.999256761491095"><ele>559.0</ele><time>2026-04-19T09:22:27Z</time></trkpt><trkpt lat="43.076314765060076" lon="12.998843032181929"><ele>561.5</ele><time>2026-04-19T09:22:28Z</time></trkpt><trkpt lat="43.07622781981305" lon="12.998437680440087"><ele>564.0</ele><time>2026-04-19T09:22:29Z</time></trkpt><trkpt lat="43.076141616658965" lon="12.998034360173449"><ele>566.0</ele><time>2026-04-19T09:22:30Z</time></trkpt><trkpt lat="43.07604828964046" lon="12.997595347056539"><ele>568.0</ele><time>2026-04-19T09:22:31Z</time></trkpt><trkpt lat="43.075952508093955" lon="12.997180293055633"><ele>570.0</ele><time>2026-04-19T09:22:32Z</time></trkpt><trkpt lat="43.07585776297718" lon="12.996764237234224"><ele>572.0</ele><time>2026-04-19T09:22:33Z</time></trkpt><trkpt lat="43.075763899517" lon="12.996348758635415"><ele>620.0</ele><time>2026-04-19T09:22:34Z</time></trkpt><trkpt lat="43.075346436973085" lon="12.99427945333269"><ele>624.5</ele><time>2026-04-19T09:22:39.054Z</time></trkpt><trkpt lat="43.07526705008903" lon="12.993877066418793"><ele>629.0</ele><time>2026-04-19T09:22:40.045Z</time></trkpt><trkpt lat="43.07518686933149" lon="12.99347062319899"><ele>691.0</ele><time>2026-04-19T09:22:41.047Z</time></trkpt><trkpt lat="43.07462768052627" lon="12.99082030648958"><ele>702.0</ele><time>2026-04-19T09:22:44.057Z</time></trkpt><trkpt lat="43.074435713805606" lon="12.989494131816686"><ele>739.0</ele><time>2026-04-19T09:22:45.058Z</time></trkpt><trkpt lat="43.07427864955589" lon="12.988161112322214"><ele>764.0</ele><time>2026-04-19T09:22:46.058Z</time></trkpt><trkpt lat="43.07415302627856" lon="12.98682068562535"><ele>797.0</ele><time>2026-04-19T09:22:47.058Z</time></trkpt><trkpt lat="43.074072973548525" lon="12.985473920746482"><ele>735.0</ele><time>2026-04-19T09:22:48.059Z</time></trkpt><trkpt lat="43.07401135086286" lon="12.984126141911968"><ele>725.0</ele><time>2026-04-19T09:22:49.059Z</time></trkpt><trkpt lat="43.07397975141536" lon="12.982781975715106"><ele>745.0</ele><time>2026-04-19T09:22:50.055Z</time></trkpt><trkpt lat="43.07396362141348" lon="12.981426127337011"><ele>735.0</ele><time>2026-04-19T09:22:51.059Z</time></trkpt><trkpt lat="43.07396048016282" lon="12.980074304572225"><ele>695.0</ele><time>2026-04-19T09:22:52.06Z</time></trkpt><trkpt lat="43.0739548347597" lon="12.978726454268477"><ele>619.0</ele><time>2026-04-19T09:22:53.057Z</time></trkpt><trkpt lat="43.07393756217374" lon="12.976221826692154"><ele>614.5</ele><time>2026-04-19T09:23:19Z</time></trkpt><trkpt lat="43.07391432428407" lon="12.97577898608235"><ele>610.0</ele><time>2026-04-19T09:23:20Z</time></trkpt><trkpt lat="43.07390350926916" lon="12.97533187711072"><ele>609.0</ele><time>2026-04-19T09:23:21Z</time></trkpt><trkpt lat="43.07389162843905" lon="12.97488918528379"><ele>608.0</ele><time>2026-04-19T09:23:22Z</time></trkpt><trkpt lat="43.073875948356594" lon="12.974456529212365"><ele>614.0</ele><time>2026-04-19T09:23:23Z</time></trkpt><trkpt lat="43.07385667034382" lon="12.974022958259088"><ele>620.0</ele><time>2026-04-19T09:23:24Z</time></trkpt><trkpt lat="43.07383433311678" lon="12.97359483973046"><ele>626.0</ele><time>2026-04-19T09:23:25Z</time></trkpt><trkpt lat="43.07380947161889" lon="12.973167007622012"><ele>632.0</ele><time>2026-04-19T09:23:26Z</time></trkpt><trkpt lat="43.073782337603554" lon="12.972737625745465"><ele>637.5</ele><time>2026-04-19T09:23:27Z</time></trkpt><trkpt lat="43.073752857103074" lon="12.97231089018594"><ele>643.0</ele><time>2026-04-19T09:23:28Z</time></trkpt><trkpt lat="43.07371675409932" lon="12.971880507800241"><ele>656.0</ele><time>2026-04-19T09:23:29Z</time></trkpt><trkpt lat="43.073677478087774" lon="12.971445016017194"><ele>669.0</ele><time>2026-04-19T09:23:30Z</time></trkpt><trkpt lat="43.0736368985875" lon="12.971005340547293"><ele>685.5</ele><time>2026-04-19T09:23:31Z</time></trkpt><trkpt lat="43.07359747858687" lon="12.970566029692742"><ele>702.0</ele><time>2026-04-19T09:23:32Z</time></trkpt><trkpt lat="43.07355800115825" lon="12.970127869418608"><ele>711.5</ele><time>2026-04-19T09:23:33Z</time></trkpt><trkpt lat="43.073517859661095" lon="12.969689943458096"><ele>721.0</ele><time>2026-04-19T09:23:34Z</time></trkpt><trkpt lat="43.07347423242921" lon="12.96922904409313"><ele>729.0</ele><time>2026-04-19T09:23:35.054Z</time></trkpt><trkpt lat="43.07340696192649" lon="12.96880073825029"><ele>737.0</ele><time>2026-04-19T09:23:36.051Z</time></trkpt><trkpt lat="43.073341552574014" lon="12.968367622722655"><ele>810.0</ele><time>2026-04-19T09:23:37.049Z</time></trkpt><trkpt lat="43.07275187408052" lon="12.965718048624664"><ele>669.0</ele><time>2026-04-19T09:23:40.055Z</time></trkpt><trkpt lat="43.069453714625915" lon="12.956204247984674"><ele>673.0</ele><time>2026-04-19T09:24:07.999Z</time></trkpt><trkpt lat="43.069309828682606" lon="12.955828323547006"><ele>677.0</ele><time>2026-04-19T09:24:08.999Z</time></trkpt><trkpt lat="43.06914750491029" lon="12.95547019786259"><ele>691.0</ele><time>2026-04-19T09:24:09.999Z</time></trkpt><trkpt lat="43.06896925709795" lon="12.955116428266155"><ele>705.0</ele><time>2026-04-19T09:24:10.999Z</time></trkpt><trkpt lat="43.06879265281376" lon="12.9547626492055"><ele>720.5</ele><time>2026-04-19T09:24:11.999Z</time></trkpt><trkpt lat="43.06861523543958" lon="12.95441105274149"><ele>736.0</ele><time>2026-04-19T09:24:12.999Z</time></trkpt><trkpt lat="43.068437796126595" lon="12.95406035190094"><ele>773.5</ele><time>2026-04-19T09:24:13.999Z</time></trkpt><trkpt lat="43.06825970408728" lon="12.953708400796284"><ele>811.0</ele><time>2026-04-19T09:24:14.999Z</time></trkpt><trkpt lat="43.06807268024001" lon="12.953339675960937"><ele>829.0</ele><time>2026-04-19T09:24:16.048Z</time></trkpt><trkpt lat="43.067865966843634" lon="12.953018932514572"><ele>847.0</ele><time>2026-04-19T09:24:17.049Z</time></trkpt><trkpt lat="43.06649227040506" lon="12.950990636372067"><ele>840.0</ele><time>2026-04-19T09:24:20.058Z</time></trkpt><trkpt lat="43.06582719425462" lon="12.949991690736962"><ele>865.0</ele><time>2026-04-19T09:24:21.057Z</time></trkpt><trkpt lat="43.06516987226062" lon="12.948987137504307"><ele>894.0</ele><time>2026-04-19T09:24:22.054Z</time></trkpt><trkpt lat="43.0644935048103" lon="12.947997320487593"><ele>903.0</ele><time>2026-04-19T09:24:23.056Z</time></trkpt><trkpt lat="43.063814879098" lon="12.947008539266621"><ele>906.0</ele><time>2026-04-19T09:24:24.059Z</time></trkpt><trkpt lat="43.06314548026829" lon="12.946013530100592"><ele>888.0</ele><time>2026-04-19T09:24:25.059Z</time></trkpt><trkpt lat="43.062478670498415" lon="12.94501521043215"><ele>847.0</ele><time>2026-04-19T09:24:26.059Z</time></trkpt><trkpt lat="43.06181085588511" lon="12.944020295087336"><ele>833.0</ele><time>2026-04-19T09:24:27.057Z</time></trkpt><trkpt lat="43.06127" lon="12.9432291"><ele>785.0</ele><time>2026-04-19T09:24:28.059Z</time></trkpt><trkpt lat="43.044244778907434" lon="12.931569225203306"><ele>776.0</ele><time>2026-04-19T09:25:39.998Z</time></trkpt><trkpt lat="43.043805499873564" lon="12.93133291637576"><ele>776.0</ele><time>2026-04-19T09:25:40.998Z</time></trkpt><trkpt lat="43.043516503341166" lon="12.931246117659436"><ele>776.0</ele><time>2026-04-19T09:25:41.998Z</time></trkpt><trkpt lat="43.043229063548665" lon="12.931182875693938"><ele>773.5</ele><time>2026-04-19T09:25:42.998Z</time></trkpt><trkpt lat="43.042933590913584" lon="12.931119003640381"><ele>771.0</ele><time>2026-04-19T09:25:43.998Z</time></trkpt><trkpt lat="43.04265000424577" lon="12.931045430020804"><ele>770.5</ele><time>2026-04-19T09:25:44.998Z</time></trkpt><trkpt lat="43.04236583384443" lon="12.930978308806553"><ele>770.0</ele><time>2026-04-19T09:25:46.001Z</time></trkpt><trkpt lat="43.04208546944494" lon="12.930915870395982"><ele>768.5</ele><time>2026-04-19T09:25:47.001Z</time></trkpt><trkpt lat="43.04181013833807" lon="12.930858102181805"><ele>767.0</ele><time>2026-04-19T09:25:48.001Z</time></trkpt><trkpt lat="43.04153434856398" lon="12.930804925352398"><ele>767.0</ele><time>2026-04-19T09:25:49.001Z</time></trkpt><trkpt lat="43.041258266463075" lon="12.930746019496889"><ele>767.0</ele><time>2026-04-19T09:25:50.001Z</time></trkpt><trkpt lat="43.04099091934179" lon="12.93068603502922"><ele>768.0</ele><time>2026-04-19T09:25:51.001Z</time></trkpt><trkpt lat="43.04072950321387" lon="12.930627512905295"><ele>769.0</ele><time>2026-04-19T09:25:52.001Z</time></trkpt><trkpt lat="43.040479136539915" lon="12.930575153062344"><ele>769.0</ele><time>2026-04-19T09:25:53.001Z</time></trkpt><trkpt lat="43.04023546450521" lon="12.930522233650146"><ele>769.0</ele><time>2026-04-19T09:25:54.001Z</time></trkpt><trkpt lat="43.03999832812204" lon="12.930463903116262"><ele>774.0</ele><time>2026-04-19T09:25:55.001Z</time></trkpt><trkpt lat="43.03976991609654" lon="12.930406351716716"><ele>779.0</ele><time>2026-04-19T09:25:56.001Z</time></trkpt><trkpt lat="43.039544535613" lon="12.930350101972374"><ele>779.0</ele><time>2026-04-19T09:25:57.001Z</time></trkpt><trkpt lat="43.03923619017772" lon="12.930272182051008"><ele>779.0</ele><time>2026-04-19T09:25:58.001Z</time></trkpt><trkpt lat="43.038995273816184" lon="12.93019880490752"><ele>780.5</ele><time>2026-04-19T09:25:59.001Z</time></trkpt><trkpt lat="43.03876003297793" lon="12.930128044299455"><ele>782.0</ele><time>2026-04-19T09:26:00.001Z</time></trkpt><trkpt lat="43.038505991047664" lon="12.930057574368464"><ele>774.0</ele><time>2026-04-19T09:26:01.001Z</time></trkpt><trkpt lat="43.03825950928906" lon="12.929983349395819"><ele>766.0</ele><time>2026-04-19T09:26:02Z</time></trkpt><trkpt lat="43.03801340447326" lon="12.929901607053669"><ele>766.0</ele><time>2026-04-19T09:26:03Z</time></trkpt><trkpt lat="43.037770024773074" lon="12.929810551145001"><ele>766.0</ele><time>2026-04-19T09:26:04Z</time></trkpt><trkpt lat="43.037530626060835" lon="12.929720499382656"><ele>767.5</ele><time>2026-04-19T09:26:05Z</time></trkpt><trkpt lat="43.037289797642565" lon="12.92961759331897"><ele>769.0</ele><time>2026-04-19T09:26:06Z</time></trkpt><trkpt lat="43.037054691242616" lon="12.92951284824143"><ele>769.0</ele><time>2026-04-19T09:26:07Z</time></trkpt><trkpt lat="43.036819192639626" lon="12.929411794853117"><ele>769.0</ele><time>2026-04-19T09:26:08Z</time></trkpt><trkpt lat="43.036586578116484" lon="12.929310401311925"><ele>766.5</ele><time>2026-04-19T09:26:09Z</time></trkpt><trkpt lat="43.036354910341984" lon="12.929198103621484"><ele>764.0</ele><time>2026-04-19T09:26:10Z</time></trkpt><trkpt lat="43.03612034074299" lon="12.929079895236494"><ele>764.0</ele><time>2026-04-19T09:26:11Z</time></trkpt><trkpt lat="43.035892303202495" lon="12.928956523809367"><ele>764.0</ele><time>2026-04-19T09:26:12Z</time></trkpt><trkpt lat="43.03566478798726" lon="12.928825937214095"><ele>765.0</ele><time>2026-04-19T09:26:13Z</time></trkpt><trkpt lat="43.035439871200396" lon="12.928689777380987"><ele>766.0</ele><time>2026-04-19T09:26:14Z</time></trkpt><trkpt lat="43.03521563892118" lon="12.928553345053508"><ele>766.0</ele><time>2026-04-19T09:26:15Z</time></trkpt><trkpt lat="43.03499522568456" lon="12.9284104860201"><ele>766.0</ele><time>2026-04-19T09:26:16Z</time></trkpt><trkpt lat="43.034775912864205" lon="12.928269218329014"><ele>768.5</ele><time>2026-04-19T09:26:17Z</time></trkpt><trkpt lat="43.034560529007436" lon="12.928119789396456"><ele>771.0</ele><time>2026-04-19T09:26:18Z</time></trkpt><trkpt lat="43.034347285287666" lon="12.927971817720072"><ele>773.0</ele><time>2026-04-19T09:26:19Z</time></trkpt><trkpt lat="43.03413422744973" lon="12.927817975604631"><ele>775.0</ele><time>2026-04-19T09:26:20Z</time></trkpt><trkpt lat="43.033925603609575" lon="12.927669037235402"><ele>774.0</ele><time>2026-04-19T09:26:21Z</time></trkpt><trkpt lat="43.033722607061875" lon="12.927510620547736"><ele>773.0</ele><time>2026-04-19T09:26:22Z</time></trkpt><trkpt lat="43.033521995747535" lon="12.927347758902252"><ele>773.0</ele><time>2026-04-19T09:26:23Z</time></trkpt><trkpt lat="43.03332381802098" lon="12.927187750489987"><ele>773.0</ele><time>2026-04-19T09:26:24Z</time></trkpt><trkpt lat="43.03312662383349" lon="12.927028139630327"><ele>773.5</ele><time>2026-04-19T09:26:25Z</time></trkpt><trkpt lat="43.03293424664321" lon="12.92686632041697"><ele>774.0</ele><time>2026-04-19T09:26:26Z</time></trkpt><trkpt lat="43.032739767083335" lon="12.926706032287319"><ele>773.0</ele><time>2026-04-19T09:26:27Z</time></trkpt><trkpt lat="43.03254871845908" lon="12.926544942833072"><ele>772.0</ele><time>2026-04-19T09:26:28Z</time></trkpt><trkpt lat="43.03235442077834" lon="12.926382302790278"><ele>772.0</ele><time>2026-04-19T09:26:29Z</time></trkpt><trkpt lat="43.03216236913258" lon="12.926213188443468"><ele>772.0</ele><time>2026-04-19T09:26:30Z</time></trkpt><trkpt lat="43.031968937968664" lon="12.92603834764529"><ele>771.5</ele><time>2026-04-19T09:26:31Z</time></trkpt><trkpt lat="43.031773208891494" lon="12.925862299022066"><ele>771.0</ele><time>2026-04-19T09:26:32Z</time></trkpt><trkpt lat="43.03157419606687" lon="12.925688639694911"><ele>777.0</ele><time>2026-04-19T09:26:33Z</time></trkpt><trkpt lat="43.03136885070598" lon="12.925516701789647"><ele>783.0</ele><time>2026-04-19T09:26:34Z</time></trkpt><trkpt lat="43.031161540036294" lon="12.925346905491692"><ele>783.0</ele><time>2026-04-19T09:26:35Z</time></trkpt><trkpt lat="43.03095221231852" lon="12.925167117365135"><ele>783.0</ele><time>2026-04-19T09:26:36Z</time></trkpt><trkpt lat="43.03074087970525" lon="12.924984415972233"><ele>790.0</ele><time>2026-04-19T09:26:37Z</time></trkpt><trkpt lat="43.03052882751396" lon="12.924804749633111"><ele>797.0</ele><time>2026-04-19T09:26:38Z</time></trkpt><trkpt lat="43.03031273468585" lon="12.924627007597605"><ele>797.0</ele><time>2026-04-19T09:26:39Z</time></trkpt><trkpt lat="43.03009473401388" lon="12.92445135621086"><ele>797.0</ele><time>2026-04-19T09:26:40Z</time></trkpt><trkpt lat="43.029873074218095" lon="12.9242816413449"><ele>792.5</ele><time>2026-04-19T09:26:41Z</time></trkpt><trkpt lat="43.02965560790125" lon="12.924111735374984"><ele>788.0</ele><time>2026-04-19T09:26:42Z</time></trkpt><trkpt lat="43.0294489510377" lon="12.923905498614692"><ele>788.0</ele><time>2026-04-19T09:26:43Z</time></trkpt><trkpt lat="43.02926616084073" lon="12.923704439140067"><ele>788.0</ele><time>2026-04-19T09:26:44Z</time></trkpt><trkpt lat="43.02908661032181" lon="12.92348659875157"><ele>782.0</ele><time>2026-04-19T09:26:45Z</time></trkpt><trkpt lat="43.028894410281104" lon="12.923275439887425"><ele>776.0</ele><time>2026-04-19T09:26:46Z</time></trkpt><trkpt lat="43.02870606859054" lon="12.923061652618344"><ele>776.0</ele><time>2026-04-19T09:26:47Z</time></trkpt><trkpt lat="43.02851834166996" lon="12.92284007690309"><ele>776.0</ele><time>2026-04-19T09:26:48Z</time></trkpt><trkpt lat="43.02833188759078" lon="12.922613817723976"><ele>774.0</ele><time>2026-04-19T09:26:49Z</time></trkpt><trkpt lat="43.02814405201033" lon="12.922380074240795"><ele>772.0</ele><time>2026-04-19T09:26:50Z</time></trkpt><trkpt lat="43.027960287308204" lon="12.922136491993477"><ele>772.0</ele><time>2026-04-19T09:26:51Z</time></trkpt><trkpt lat="43.027782318958856" lon="12.921881195451416"><ele>772.0</ele><time>2026-04-19T09:26:52Z</time></trkpt><trkpt lat="43.02760614769856" lon="12.921616199677171"><ele>772.5</ele><time>2026-04-19T09:26:53Z</time></trkpt><trkpt lat="43.0274346413627" lon="12.921348810025249"><ele>773.0</ele><time>2026-04-19T09:26:54Z</time></trkpt><trkpt lat="43.02726797564445" lon="12.921071022662717"><ele>770.5</ele><time>2026-04-19T09:26:55Z</time></trkpt><trkpt lat="43.027109138819455" lon="12.920780988571602"><ele>768.0</ele><time>2026-04-19T09:26:56Z</time></trkpt><trkpt lat="43.02695566700542" lon="12.920489444831098"><ele>768.0</ele><time>2026-04-19T09:26:57Z</time></trkpt><trkpt lat="43.02680855356379" lon="12.920189446858485"><ele>768.0</ele><time>2026-04-19T09:26:58Z</time></trkpt><trkpt lat="43.02666617403187" lon="12.919883689464937"><ele>770.5</ele><time>2026-04-19T09:26:59Z</time></trkpt><trkpt lat="43.02652701199245" lon="12.919576665644101"><ele>773.0</ele><time>2026-04-19T09:27:00Z</time></trkpt><trkpt lat="43.02639251224786" lon="12.91926249104062"><ele>772.0</ele><time>2026-04-19T09:27:01Z</time></trkpt><trkpt lat="43.026265946930984" lon="12.91894497574233"><ele>771.0</ele><time>2026-04-19T09:27:02Z</time></trkpt><trkpt lat="43.026146129648254" lon="12.918617486900658"><ele>770.0</ele><time>2026-04-19T09:27:03Z</time></trkpt><trkpt lat="43.02603455023785" lon="12.918284005460306"><ele>769.0</ele><time>2026-04-19T09:27:04Z</time></trkpt><trkpt lat="43.02592828007129" lon="12.917947772488887"><ele>769.0</ele><time>2026-04-19T09:27:04.999Z</time></trkpt><trkpt lat="43.025827746141985" lon="12.917609841167424"><ele>769.0</ele><time>2026-04-19T09:27:05.999Z</time></trkpt><trkpt lat="43.02573360236801" lon="12.917266563140554"><ele>769.5</ele><time>2026-04-19T09:27:06.999Z</time></trkpt><trkpt lat="43.02564733909433" lon="12.916918874664724"><ele>770.0</ele><time>2026-04-19T09:27:07.999Z</time></trkpt><trkpt lat="43.02556923211655" lon="12.916568737145314"><ele>770.5</ele><time>2026-04-19T09:27:08.999Z</time></trkpt><trkpt lat="43.02549705263355" lon="12.916212196016726"><ele>771.0</ele><time>2026-04-19T09:27:09.999Z</time></trkpt><trkpt lat="43.02543054909102" lon="12.915855303935862"><ele>773.0</ele><time>2026-04-19T09:27:10.999Z</time></trkpt><trkpt lat="43.02537154106049" lon="12.915492136930837"><ele>775.0</ele><time>2026-04-19T09:27:11.999Z</time></trkpt><trkpt lat="43.025325462201856" lon="12.915127846808154"><ele>779.5</ele><time>2026-04-19T09:27:12.999Z</time></trkpt><trkpt lat="43.02528233876481" lon="12.914761162459989"><ele>784.0</ele><time>2026-04-19T09:27:13.999Z</time></trkpt><trkpt lat="43.025247934842476" lon="12.914390209386934"><ele>788.0</ele><time>2026-04-19T09:27:14.999Z</time></trkpt><trkpt lat="43.025215455793955" lon="12.91401049339807"><ele>792.0</ele><time>2026-04-19T09:27:15.999Z</time></trkpt><trkpt lat="43.02518336066988" lon="12.913634358098468"><ele>789.0</ele><time>2026-04-19T09:27:16.999Z</time></trkpt><trkpt lat="43.02515624146112" lon="12.913258018003242"><ele>786.0</ele><time>2026-04-19T09:27:17.999Z</time></trkpt><trkpt lat="43.025157355541225" lon="12.912876318542146"><ele>784.0</ele><time>2026-04-19T09:27:18.999Z</time></trkpt><trkpt lat="43.02515478800647" lon="12.91250984546887"><ele>782.0</ele><time>2026-04-19T09:27:19.999Z</time></trkpt><trkpt lat="43.02514715179652" lon="12.912142449314898"><ele>782.0</ele><time>2026-04-19T09:27:20.999Z</time></trkpt><trkpt lat="43.02513920005736" lon="12.911776770854788"><ele>782.0</ele><time>2026-04-19T09:27:21.999Z</time></trkpt><trkpt lat="43.02513150970886" lon="12.911418346368636"><ele>786.5</ele><time>2026-04-19T09:27:22.999Z</time></trkpt><trkpt lat="43.02512785706045" lon="12.911051095709663"><ele>791.0</ele><time>2026-04-19T09:27:23.999Z</time></trkpt><trkpt lat="43.02512287266341" lon="12.910679224426035"><ele>792.0</ele><time>2026-04-19T09:27:24.999Z</time></trkpt><trkpt lat="43.02511648122692" lon="12.91030353697903"><ele>793.0</ele><time>2026-04-19T09:27:25.999Z</time></trkpt><trkpt lat="43.02510923661044" lon="12.90992805566941"><ele>796.0</ele><time>2026-04-19T09:27:26.999Z</time></trkpt><trkpt lat="43.025101269447404" lon="12.909555874316764"><ele>799.0</ele><time>2026-04-19T09:27:27.999Z</time></trkpt><trkpt lat="43.02509265306893" lon="12.909162128421087"><ele>800.0</ele><time>2026-04-19T09:27:29.066Z</time></trkpt><trkpt lat="43.02508165468763" lon="12.908784627324149"><ele>801.0</ele><time>2026-04-19T09:27:30.066Z</time></trkpt><trkpt lat="43.02507582294863" lon="12.908407078565096"><ele>792.0</ele><time>2026-04-19T09:27:31.059Z</time></trkpt><trkpt lat="43.025082118936155" lon="12.90764684231483"><ele>786.0</ele><time>2026-04-19T09:27:32.999Z</time></trkpt><trkpt lat="43.02504060683888" lon="12.90725289096424"><ele>780.0</ele><time>2026-04-19T09:27:33.999Z</time></trkpt><trkpt lat="43.025032835647494" lon="12.906810140482696"><ele>777.5</ele><time>2026-04-19T09:27:34.999Z</time></trkpt><trkpt lat="43.02502676347151" lon="12.906442813256552"><ele>775.0</ele><time>2026-04-19T09:27:35.999Z</time></trkpt><trkpt lat="43.025014820268204" lon="12.906084485581562"><ele>773.0</ele><time>2026-04-19T09:27:36.999Z</time></trkpt><trkpt lat="43.025006606588214" lon="12.905728404668642"><ele>771.0</ele><time>2026-04-19T09:27:37.999Z</time></trkpt><trkpt lat="43.024996239009944" lon="12.905373891876168"><ele>771.0</ele><time>2026-04-19T09:27:38.999Z</time></trkpt><trkpt lat="43.02498586040745" lon="12.90502027138239"><ele>771.0</ele><time>2026-04-19T09:27:39.999Z</time></trkpt><trkpt lat="43.024974128223164" lon="12.904671735809583"><ele>771.0</ele><time>2026-04-19T09:27:40.999Z</time></trkpt><trkpt lat="43.02495239571315" lon="12.904322348158512"><ele>771.0</ele><time>2026-04-19T09:27:41.999Z</time></trkpt><trkpt lat="43.024922868821214" lon="12.903970232462955"><ele>769.0</ele><time>2026-04-19T09:27:42.999Z</time></trkpt><trkpt lat="43.02488862600356" lon="12.903625745335372"><ele>767.0</ele><time>2026-04-19T09:27:43.999Z</time></trkpt><trkpt lat="43.02485167315267" lon="12.903280036506626"><ele>766.5</ele><time>2026-04-19T09:27:44.999Z</time></trkpt><trkpt lat="43.02480826095981" lon="12.902939795636428"><ele>766.0</ele><time>2026-04-19T09:27:45.999Z</time></trkpt><trkpt lat="43.02476040937918" lon="12.902593884923439"><ele>765.5</ele><time>2026-04-19T09:27:46.999Z</time></trkpt><trkpt lat="43.02470163040524" lon="12.902246648911001"><ele>765.0</ele><time>2026-04-19T09:27:47.999Z</time></trkpt><trkpt lat="43.02463595611165" lon="12.901904934389384"><ele>764.5</ele><time>2026-04-19T09:27:48.999Z</time></trkpt><trkpt lat="43.02456468129224" lon="12.901563344724925"><ele>764.0</ele><time>2026-04-19T09:27:49.999Z</time></trkpt><trkpt lat="43.024489189963795" lon="12.901225900762213"><ele>764.0</ele><time>2026-04-19T09:27:50.999Z</time></trkpt><trkpt lat="43.024405726077696" lon="12.900889640046957"><ele>764.0</ele><time>2026-04-19T09:27:52Z</time></trkpt><trkpt lat="43.024317379759445" lon="12.90055827852924"><ele>764.0</ele><time>2026-04-19T09:27:53.001Z</time></trkpt><trkpt lat="43.02422877497984" lon="12.90023418553088"><ele>764.0</ele><time>2026-04-19T09:27:54Z</time></trkpt><trkpt lat="43.0241334396193" lon="12.899913256633875"><ele>766.0</ele><time>2026-04-19T09:27:55Z</time></trkpt><trkpt lat="43.02403366980693" lon="12.89959430959476"><ele>768.0</ele><time>2026-04-19T09:27:56.001Z</time></trkpt><trkpt lat="43.0239230557481" lon="12.899278043336768"><ele>767.5</ele><time>2026-04-19T09:27:57Z</time></trkpt><trkpt lat="43.023808542432235" lon="12.898965865349824"><ele>767.0</ele><time>2026-04-19T09:27:58Z</time></trkpt><trkpt lat="43.02368344393496" lon="12.898662937917663"><ele>765.5</ele><time>2026-04-19T09:27:59Z</time></trkpt><trkpt lat="43.023559791977185" lon="12.898357168946637"><ele>764.0</ele><time>2026-04-19T09:28:00Z</time></trkpt><trkpt lat="43.0234260997515" lon="12.89805676221457"><ele>764.5</ele><time>2026-04-19T09:28:01Z</time></trkpt><trkpt lat="43.02329077574686" lon="12.897760131130047"><ele>765.0</ele><time>2026-04-19T09:28:02Z</time></trkpt><trkpt lat="43.02315150675326" lon="12.897468539189369"><ele>765.0</ele><time>2026-04-19T09:28:03Z</time></trkpt><trkpt lat="43.023003234045184" lon="12.897180763507366"><ele>765.0</ele><time>2026-04-19T09:28:04Z</time></trkpt><trkpt lat="43.02284881900804" lon="12.896891101778696"><ele>764.0</ele><time>2026-04-19T09:28:05Z</time></trkpt><trkpt lat="43.022671302075096" lon="12.896596814523667"><ele>763.0</ele><time>2026-04-19T09:28:06Z</time></trkpt><trkpt lat="43.02249486181578" lon="12.89630035988402"><ele>763.5</ele><time>2026-04-19T09:28:07Z</time></trkpt><trkpt lat="43.022301156628515" lon="12.896005058644086"><ele>764.0</ele><time>2026-04-19T09:28:08Z</time></trkpt><trkpt lat="43.022097492396966" lon="12.895707279130253"><ele>764.0</ele><time>2026-04-19T09:28:09Z</time></trkpt><trkpt lat="43.021897682983514" lon="12.89542094933869"><ele>764.0</ele><time>2026-04-19T09:28:10Z</time></trkpt><trkpt lat="43.02168623801568" lon="12.895137496603315"><ele>764.5</ele><time>2026-04-19T09:28:11Z</time></trkpt><trkpt lat="43.021467699155124" lon="12.894858691853424"><ele>765.0</ele><time>2026-04-19T09:28:12Z</time></trkpt><trkpt lat="43.02123879169469" lon="12.894580390183258"><ele>765.0</ele><time>2026-04-19T09:28:13Z</time></trkpt><trkpt lat="43.02100376364878" lon="12.894301561952005"><ele>765.0</ele><time>2026-04-19T09:28:14Z</time></trkpt><trkpt lat="43.02076144531229" lon="12.894028831818767"><ele>766.5</ele><time>2026-04-19T09:28:15Z</time></trkpt><trkpt lat="43.020514350884575" lon="12.893763395748993"><ele>768.0</ele><time>2026-04-19T09:28:16Z</time></trkpt><trkpt lat="43.020263197005804" lon="12.893507580433669"><ele>767.5</ele><time>2026-04-19T09:28:17Z</time></trkpt><trkpt lat="43.02000293755773" lon="12.893259724324233"><ele>767.0</ele><time>2026-04-19T09:28:18Z</time></trkpt><trkpt lat="43.01974142001513" lon="12.893029345549555"><ele>767.0</ele><time>2026-04-19T09:28:19Z</time></trkpt><trkpt lat="43.01947517749296" lon="12.892809920383883"><ele>767.0</ele><time>2026-04-19T09:28:20Z</time></trkpt><trkpt lat="43.019199905111634" lon="12.892599745351228"><ele>768.0</ele><time>2026-04-19T09:28:21Z</time></trkpt><trkpt lat="43.01892129556162" lon="12.892405328411309"><ele>769.0</ele><time>2026-04-19T09:28:22Z</time></trkpt><trkpt lat="43.01863487540524" lon="12.892222515398903"><ele>769.0</ele><time>2026-04-19T09:28:23Z</time></trkpt><trkpt lat="43.018346392571154" lon="12.892047260832655"><ele>769.0</ele><time>2026-04-19T09:28:24Z</time></trkpt><trkpt lat="43.01805123343962" lon="12.89187791400108"><ele>770.0</ele><time>2026-04-19T09:28:25Z</time></trkpt><trkpt lat="43.017754450613694" lon="12.891705878738481"><ele>771.0</ele><time>2026-04-19T09:28:26Z</time></trkpt><trkpt lat="43.01745959226982" lon="12.89153763684553"><ele>771.0</ele><time>2026-04-19T09:28:27Z</time></trkpt><trkpt lat="43.01716906100848" lon="12.891373053292307"><ele>771.0</ele><time>2026-04-19T09:28:28Z</time></trkpt><trkpt lat="43.01687900668528" lon="12.891207825573481"><ele>769.5</ele><time>2026-04-19T09:28:29Z</time></trkpt><trkpt lat="43.01658417990835" lon="12.891041381655558"><ele>768.0</ele><time>2026-04-19T09:28:30Z</time></trkpt><trkpt lat="43.01629054146771" lon="12.89086105705446"><ele>770.5</ele><time>2026-04-19T09:28:31Z</time></trkpt><trkpt lat="43.016001872487124" lon="12.890673051193408"><ele>773.0</ele><time>2026-04-19T09:28:32Z</time></trkpt><trkpt lat="43.015712203683236" lon="12.89047679177132"><ele>773.0</ele><time>2026-04-19T09:28:33Z</time></trkpt><trkpt lat="43.01543212226421" lon="12.89027732560522"><ele>773.0</ele><time>2026-04-19T09:28:34Z</time></trkpt><trkpt lat="43.015156836202365" lon="12.890070889913437"><ele>775.5</ele><time>2026-04-19T09:28:35Z</time></trkpt><trkpt lat="43.01488453749708" lon="12.889848482053464"><ele>778.0</ele><time>2026-04-19T09:28:36Z</time></trkpt><trkpt lat="43.01462217639547" lon="12.889621904660254"><ele>778.0</ele><time>2026-04-19T09:28:37Z</time></trkpt><trkpt lat="43.01436109633093" lon="12.889386452528102"><ele>778.0</ele><time>2026-04-19T09:28:38Z</time></trkpt><trkpt lat="43.01410932932153" lon="12.889137640288947"><ele>775.0</ele><time>2026-04-19T09:28:39Z</time></trkpt><trkpt lat="43.01386755502516" lon="12.888890210536227"><ele>772.0</ele><time>2026-04-19T09:28:40Z</time></trkpt><trkpt lat="43.01362931526956" lon="12.888644562073967"><ele>772.5</ele><time>2026-04-19T09:28:41Z</time></trkpt><trkpt lat="43.013394355797224" lon="12.88839407046137"><ele>773.0</ele><time>2026-04-19T09:28:42Z</time></trkpt><trkpt lat="43.01316815837005" lon="12.888147096314956"><ele>773.0</ele><time>2026-04-19T09:28:43Z</time></trkpt><trkpt lat="43.01295051052216" lon="12.887893036783803"><ele>773.0</ele><time>2026-04-19T09:28:44Z</time></trkpt><trkpt lat="43.012739703586384" lon="12.88763192255395"><ele>781.0</ele><time>2026-04-19T09:28:45Z</time></trkpt><trkpt lat="43.01253597490206" lon="12.8873633442526"><ele>789.0</ele><time>2026-04-19T09:28:46Z</time></trkpt><trkpt lat="43.012335772486786" lon="12.88708874645145"><ele>790.5</ele><time>2026-04-19T09:28:47Z</time></trkpt><trkpt lat="43.01213519672359" lon="12.886801710260658"><ele>792.0</ele><time>2026-04-19T09:28:48Z</time></trkpt><trkpt lat="43.01193488928596" lon="12.886501778298566"><ele>806.0</ele><time>2026-04-19T09:28:49Z</time></trkpt><trkpt lat="43.011739190803134" lon="12.886186977952802"><ele>820.0</ele><time>2026-04-19T09:28:50Z</time></trkpt><trkpt lat="43.01155250503441" lon="12.885860170998852"><ele>825.0</ele><time>2026-04-19T09:28:51Z</time></trkpt><trkpt lat="43.011368412000444" lon="12.885502570071516"><ele>830.0</ele><time>2026-04-19T09:28:52.065Z</time></trkpt><trkpt lat="43.01119018800907" lon="12.885171701120836"><ele>828.0</ele><time>2026-04-19T09:28:53.064Z</time></trkpt><trkpt lat="43.01101274911011" lon="12.884843385935092"><ele>826.0</ele><time>2026-04-19T09:28:54.06Z</time></trkpt><trkpt lat="43.00947657139906" lon="12.881315430244836"><ele>845.0</ele><time>2026-04-19T09:28:59.05Z</time></trkpt><trkpt lat="43.009061674320016" lon="12.880083086483305"><ele>847.0</ele><time>2026-04-19T09:29:00.055Z</time></trkpt><trkpt lat="43.00864795057771" lon="12.878857318173553"><ele>840.0</ele><time>2026-04-19T09:29:01.055Z</time></trkpt><trkpt lat="43.00823843155579" lon="12.877634862521667"><ele>827.0</ele><time>2026-04-19T09:29:02.051Z</time></trkpt><trkpt lat="43.00782127573945" lon="12.876406627905807"><ele>827.0</ele><time>2026-04-19T09:29:03.054Z</time></trkpt><trkpt lat="43.0076701" lon="12.8759766"><ele>827.0</ele><time>2026-04-19T09:29:04.052Z</time></trkpt><trkpt lat="43.007188449339225" lon="12.874254496927827"><ele>811.0</ele><time>2026-04-19T09:29:19.999Z</time></trkpt><trkpt lat="43.00705633519167" lon="12.873924267704195"><ele>795.0</ele><time>2026-04-19T09:29:20.999Z</time></trkpt><trkpt lat="43.00677532023301" lon="12.873525704872648"><ele>794.5</ele><time>2026-04-19T09:29:21.999Z</time></trkpt><trkpt lat="43.00662854345103" lon="12.873204006626779"><ele>794.0</ele><time>2026-04-19T09:29:22.999Z</time></trkpt><trkpt lat="43.006483866495486" lon="12.872880777236007"><ele>794.5</ele><time>2026-04-19T09:29:23.999Z</time></trkpt><trkpt lat="43.006338116594314" lon="12.872557529534326"><ele>795.0</ele><time>2026-04-19T09:29:24.999Z</time></trkpt><trkpt lat="43.00619166199264" lon="12.872238835738537"><ele>795.0</ele><time>2026-04-19T09:29:25.999Z</time></trkpt><trkpt lat="43.00604292525558" lon="12.871929201997478"><ele>795.0</ele><time>2026-04-19T09:29:26.999Z</time></trkpt><trkpt lat="43.005895778043424" lon="12.87162237708493"><ele>804.5</ele><time>2026-04-19T09:29:27.999Z</time></trkpt><trkpt lat="43.00574137113648" lon="12.87130556400752"><ele>814.0</ele><time>2026-04-19T09:29:28.999Z</time></trkpt><trkpt lat="43.00558294047229" lon="12.870990252740171"><ele>808.5</ele><time>2026-04-19T09:29:29.999Z</time></trkpt><trkpt lat="43.00542628267958" lon="12.870674558860141"><ele>803.0</ele><time>2026-04-19T09:29:30.999Z</time></trkpt><trkpt lat="43.005263483760345" lon="12.87036105560015"><ele>799.5</ele><time>2026-04-19T09:29:31.999Z</time></trkpt><trkpt lat="43.005103907468566" lon="12.870046101566528"><ele>796.0</ele><time>2026-04-19T09:29:32.999Z</time></trkpt><trkpt lat="43.00494520782989" lon="12.869735426793197"><ele>801.0</ele><time>2026-04-19T09:29:33.999Z</time></trkpt><trkpt lat="43.00478712665944" lon="12.869433201358856"><ele>806.0</ele><time>2026-04-19T09:29:34.999Z</time></trkpt><trkpt lat="43.00463344187601" lon="12.869138223561462"><ele>806.0</ele><time>2026-04-19T09:29:35.999Z</time></trkpt><trkpt lat="43.004476899595" lon="12.86884425014425"><ele>806.0</ele><time>2026-04-19T09:29:36.999Z</time></trkpt><trkpt lat="43.004326904434485" lon="12.868561714889974"><ele>802.0</ele><time>2026-04-19T09:29:37.999Z</time></trkpt><trkpt lat="43.00417716710351" lon="12.868276389605503"><ele>798.0</ele><time>2026-04-19T09:29:38.999Z</time></trkpt><trkpt lat="43.00402771190339" lon="12.867983856081933"><ele>805.0</ele><time>2026-04-19T09:29:39.999Z</time></trkpt><trkpt lat="43.00387579840449" lon="12.867694931579976"><ele>812.0</ele><time>2026-04-19T09:29:40.999Z</time></trkpt><trkpt lat="43.0021130829924" lon="12.864294548040313"><ele>809.0</ele><time>2026-04-19T09:29:52.031Z</time></trkpt><trkpt lat="43.001956652611824" lon="12.863989808622067"><ele>806.0</ele><time>2026-04-19T09:29:53.028Z</time></trkpt><trkpt lat="42.9934717541045" lon="12.845785072632236"><ele>761.5</ele><time>2026-04-19T09:30:35.998Z</time></trkpt><trkpt lat="42.99339887838074" lon="12.845450484270199"><ele>717.0</ele><time>2026-04-19T09:30:36.998Z</time></trkpt><trkpt lat="42.9933140033721" lon="12.845063422145808"><ele>718.0</ele><time>2026-04-19T09:30:37.998Z</time></trkpt><trkpt lat="42.99323908075126" lon="12.84465296137825"><ele>719.0</ele><time>2026-04-19T09:30:38.998Z</time></trkpt><trkpt lat="42.99315504416705" lon="12.844254226466282"><ele>719.0</ele><time>2026-04-19T09:30:39.998Z</time></trkpt><trkpt lat="42.993044232891656" lon="12.843838019083728"><ele>719.0</ele><time>2026-04-19T09:30:41Z</time></trkpt><trkpt lat="42.992976061779615" lon="12.843448319513552"><ele>730.0</ele><time>2026-04-19T09:30:42Z</time></trkpt><trkpt lat="42.99288765331049" lon="12.843036279771061"><ele>741.0</ele><time>2026-04-19T09:30:43Z</time></trkpt><trkpt lat="42.99279649282184" lon="12.842624163809635"><ele>756.0</ele><time>2026-04-19T09:30:44Z</time></trkpt><trkpt lat="42.99270599240889" lon="12.84221321612058"><ele>771.0</ele><time>2026-04-19T09:30:45Z</time></trkpt><trkpt lat="42.99264782950558" lon="12.841793691660797"><ele>785.5</ele><time>2026-04-19T09:30:46Z</time></trkpt><trkpt lat="42.99258503444782" lon="12.841350888027629"><ele>800.0</ele><time>2026-04-19T09:30:47.055Z</time></trkpt><trkpt lat="42.99252910585286" lon="12.840931678067964"><ele>799.5</ele><time>2026-04-19T09:30:48.051Z</time></trkpt><trkpt lat="42.99247846416979" lon="12.840511018605856"><ele>799.0</ele><time>2026-04-19T09:30:49.049Z</time></trkpt><trkpt lat="42.99226313424261" lon="12.837766699387547"><ele>656.0</ele><time>2026-04-19T09:30:52.052Z</time></trkpt><trkpt lat="42.991397186786486" lon="12.829990996820543"><ele>656.0</ele><time>2026-04-19T09:31:13Z</time></trkpt><trkpt lat="42.99132797907385" lon="12.829517491413194"><ele>656.0</ele><time>2026-04-19T09:31:14Z</time></trkpt><trkpt lat="42.99125929612354" lon="12.82911386995488"><ele>673.5</ele><time>2026-04-19T09:31:15Z</time></trkpt><trkpt lat="42.991190676825546" lon="12.828722888377559"><ele>691.0</ele><time>2026-04-19T09:31:16Z</time></trkpt><trkpt lat="42.991123082483895" lon="12.828320037168021"><ele>711.5</ele><time>2026-04-19T09:31:17Z</time></trkpt><trkpt lat="42.99105553610805" lon="12.827917985894796"><ele>732.0</ele><time>2026-04-19T09:31:18Z</time></trkpt><trkpt lat="42.990983130792685" lon="12.82749692817084"><ele>746.0</ele><time>2026-04-19T09:31:19.052Z</time></trkpt><trkpt lat="42.990915694949656" lon="12.82709753212685"><ele>760.0</ele><time>2026-04-19T09:31:20.052Z</time></trkpt><trkpt lat="42.99085166260525" lon="12.826697184821603"><ele>774.0</ele><time>2026-04-19T09:31:21.055Z</time></trkpt><trkpt lat="42.990787192837736" lon="12.826292880311692"><ele>788.0</ele><time>2026-04-19T09:31:22.054Z</time></trkpt><trkpt lat="42.99071776983951" lon="12.825893339031506"><ele>800.0</ele><time>2026-04-19T09:31:23.054Z</time></trkpt><trkpt lat="42.99062753647236" lon="12.825507959125437"><ele>812.0</ele><time>2026-04-19T09:31:24.044Z</time></trkpt><trkpt lat="42.98980514051738" lon="12.822999418379831"><ele>804.0</ele><time>2026-04-19T09:31:27.052Z</time></trkpt><trkpt lat="42.989377936934495" lon="12.821782439333248"><ele>822.0</ele><time>2026-04-19T09:31:28.053Z</time></trkpt><trkpt lat="42.9890837" lon="12.8210449"><ele>790.0</ele><time>2026-04-19T09:31:29.048Z</time></trkpt><trkpt lat="42.98858306140192" lon="12.819886350616379"><ele>798.0</ele><time>2026-04-19T09:32:24.049Z</time></trkpt><trkpt lat="42.988060567294774" lon="12.818735629759383"><ele>775.0</ele><time>2026-04-19T09:32:25.052Z</time></trkpt><trkpt lat="42.98750163711235" lon="12.817622376471839"><ele>749.0</ele><time>2026-04-19T09:32:26.052Z</time></trkpt><trkpt lat="42.986942253772845" lon="12.81651598843041"><ele>736.0</ele><time>2026-04-19T09:32:27.048Z</time></trkpt><trkpt lat="42.98637756134747" lon="12.815401522587878"><ele>713.0</ele><time>2026-04-19T09:32:28.052Z</time></trkpt><trkpt lat="42.985814183518904" lon="12.814292495523205"><ele>522.0</ele><time>2026-04-19T09:32:29.052Z</time></trkpt><trkpt lat="42.97856993836002" lon="12.798714672439685"><ele>521.5</ele><time>2026-04-19T09:32:29.999Z</time></trkpt><trkpt lat="42.97840981574056" lon="12.798327769170475"><ele>521.0</ele><time>2026-04-19T09:32:30.999Z</time></trkpt><trkpt lat="42.97828135342229" lon="12.797937089812331"><ele>512.5</ele><time>2026-04-19T09:32:31.999Z</time></trkpt><trkpt lat="42.97814890208631" lon="12.797561591412608"><ele>504.0</ele><time>2026-04-19T09:32:32.999Z</time></trkpt><trkpt lat="42.978022455471255" lon="12.797188875250185"><ele>506.5</ele><time>2026-04-19T09:32:33.999Z</time></trkpt><trkpt lat="42.97789375829052" lon="12.7968007999324"><ele>509.0</ele><time>2026-04-19T09:32:34.999Z</time></trkpt><trkpt lat="42.97776287808248" lon="12.796422897324492"><ele>509.0</ele><time>2026-04-19T09:32:35.999Z</time></trkpt><trkpt lat="42.977636304053775" lon="12.796048907610816"><ele>509.0</ele><time>2026-04-19T09:32:36.999Z</time></trkpt><trkpt lat="42.97751142589181" lon="12.795681526261255"><ele>521.0</ele><time>2026-04-19T09:32:37.999Z</time></trkpt><trkpt lat="42.97738894588267" lon="12.795310214704429"><ele>533.0</ele><time>2026-04-19T09:32:38.999Z</time></trkpt><trkpt lat="42.977270239163175" lon="12.794937916603882"><ele>534.0</ele><time>2026-04-19T09:32:39.999Z</time></trkpt><trkpt lat="42.977147099646565" lon="12.794561529969636"><ele>535.0</ele><time>2026-04-19T09:32:40.999Z</time></trkpt><trkpt lat="42.977017843988065" lon="12.794179541761428"><ele>530.0</ele><time>2026-04-19T09:32:41.999Z</time></trkpt><trkpt lat="42.976888661447376" lon="12.79378878403481"><ele>525.0</ele><time>2026-04-19T09:32:42.999Z</time></trkpt><trkpt lat="42.97676473814087" lon="12.793382954766317"><ele>550.0</ele><time>2026-04-19T09:32:43.999Z</time></trkpt><trkpt lat="42.97663848869935" lon="12.792935961115019"><ele>575.0</ele><time>2026-04-19T09:32:45.056Z</time></trkpt><trkpt lat="42.97652449508664" lon="12.792499232585834"><ele>576.0</ele><time>2026-04-19T09:32:46.051Z</time></trkpt><trkpt lat="42.97641395873244" lon="12.79205220632201"><ele>577.0</ele><time>2026-04-19T09:32:47.048Z</time></trkpt><trkpt lat="42.976305414752055" lon="12.791599129082478"><ele>417.0</ele><time>2026-04-19T09:32:48.048Z</time></trkpt><trkpt lat="42.97802759420244" lon="12.766717425790036"><ele>417.0</ele><time>2026-04-19T09:33:43.998Z</time></trkpt><trkpt lat="42.97799700520579" lon="12.766339423292271"><ele>417.0</ele><time>2026-04-19T09:33:44.998Z</time></trkpt><trkpt lat="42.97796178080245" lon="12.765960925625809"><ele>431.5</ele><time>2026-04-19T09:33:45.998Z</time></trkpt><trkpt lat="42.97790483831035" lon="12.765576631225246"><ele>446.0</ele><time>2026-04-19T09:33:46.998Z</time></trkpt><trkpt lat="42.97788621731714" lon="12.765234188226973"><ele>467.5</ele><time>2026-04-19T09:33:47.998Z</time></trkpt><trkpt lat="42.977858993574394" lon="12.764878142970737"><ele>489.0</ele><time>2026-04-19T09:33:48.998Z</time></trkpt><trkpt lat="42.9778313986646" lon="12.764520276530448"><ele>504.0</ele><time>2026-04-19T09:33:50Z</time></trkpt><trkpt lat="42.977803873952354" lon="12.764163476510749"><ele>519.0</ele><time>2026-04-19T09:33:51Z</time></trkpt><trkpt lat="42.97777634378056" lon="12.763806414829546"><ele>520.5</ele><time>2026-04-19T09:33:52Z</time></trkpt><trkpt lat="42.97774742935443" lon="12.763432020985887"><ele>522.0</ele><time>2026-04-19T09:33:53.051Z</time></trkpt><trkpt lat="42.97413452008916" lon="12.752889836061755"><ele>450.5</ele><time>2026-04-19T09:34:19Z</time></trkpt><trkpt lat="42.97396124297689" lon="12.752556832356795"><ele>379.0</ele><time>2026-04-19T09:34:20Z</time></trkpt><trkpt lat="42.97381276476589" lon="12.752277166421777"><ele>379.0</ele><time>2026-04-19T09:34:21Z</time></trkpt><trkpt lat="42.97367051142959" lon="12.752012464555996"><ele>379.0</ele><time>2026-04-19T09:34:22Z</time></trkpt><trkpt lat="42.973524085177935" lon="12.751737842281365"><ele>374.5</ele><time>2026-04-19T09:34:23Z</time></trkpt><trkpt lat="42.973371942511704" lon="12.751470816460435"><ele>370.0</ele><time>2026-04-19T09:34:24Z</time></trkpt><trkpt lat="42.9732196007985" lon="12.751202094697401"><ele>376.5</ele><time>2026-04-19T09:34:25Z</time></trkpt><trkpt lat="42.97307397630992" lon="12.75094169811583"><ele>383.0</ele><time>2026-04-19T09:34:26Z</time></trkpt><trkpt lat="42.97292707482183" lon="12.750687689697102"><ele>383.0</ele><time>2026-04-19T09:34:27Z</time></trkpt><trkpt lat="42.97277348225528" lon="12.750446422725949"><ele>383.0</ele><time>2026-04-19T09:34:28Z</time></trkpt><trkpt lat="42.97261562894263" lon="12.750212453065668"><ele>384.0</ele><time>2026-04-19T09:34:29Z</time></trkpt><trkpt lat="42.97246406494352" lon="12.749972690903144"><ele>385.0</ele><time>2026-04-19T09:34:30Z</time></trkpt><trkpt lat="42.97231228151931" lon="12.749736867461259"><ele>385.0</ele><time>2026-04-19T09:34:31Z</time></trkpt><trkpt lat="42.97215764236014" lon="12.749503227259913"><ele>385.0</ele><time>2026-04-19T09:34:32Z</time></trkpt><trkpt lat="42.97199785187583" lon="12.749274188356571"><ele>389.0</ele><time>2026-04-19T09:34:33Z</time></trkpt><trkpt lat="42.971838185193924" lon="12.749047439468697"><ele>393.0</ele><time>2026-04-19T09:34:34Z</time></trkpt><trkpt lat="42.9716774909391" lon="12.748823397660107"><ele>393.0</ele><time>2026-04-19T09:34:35Z</time></trkpt><trkpt lat="42.97151414157435" lon="12.748606281795327"><ele>393.0</ele><time>2026-04-19T09:34:36Z</time></trkpt><trkpt lat="42.971344631344415" lon="12.748393678444081"><ele>387.5</ele><time>2026-04-19T09:34:37Z</time></trkpt><trkpt lat="42.97117885221178" lon="12.748177229293345"><ele>382.0</ele><time>2026-04-19T09:34:38Z</time></trkpt><trkpt lat="42.97101049990817" lon="12.747956620803658"><ele>385.3333333333333</ele><time>2026-04-19T09:34:39Z</time></trkpt><trkpt lat="42.97085158887115" lon="12.747745069836387"><ele>388.66666666666663</ele><time>2026-04-19T09:34:40Z</time></trkpt><trkpt lat="42.97069520976792" lon="12.747530849873092"><ele>392.0</ele><time>2026-04-19T09:34:41Z</time></trkpt><trkpt lat="42.97053460976641" lon="12.747310894976891"><ele>392.0</ele><time>2026-04-19T09:34:42Z</time></trkpt><trkpt lat="42.97037714557395" lon="12.747089788554764"><ele>392.0</ele><time>2026-04-19T09:34:43Z</time></trkpt><trkpt lat="42.97018503008209" lon="12.746900965162588"><ele>389.5</ele><time>2026-04-19T09:34:44Z</time></trkpt><trkpt lat="42.96997272790667" lon="12.746699120402125"><ele>387.0</ele><time>2026-04-19T09:34:45Z</time></trkpt><trkpt lat="42.96977480201739" lon="12.74647285336854"><ele>387.0</ele><time>2026-04-19T09:34:46Z</time></trkpt><trkpt lat="42.969582259924685" lon="12.746267129878632"><ele>387.0</ele><time>2026-04-19T09:34:47Z</time></trkpt><trkpt lat="42.96938304183411" lon="12.746058874392302"><ele>383.0</ele><time>2026-04-19T09:34:48Z</time></trkpt><trkpt lat="42.96917446526056" lon="12.745854071255614"><ele>379.0</ele><time>2026-04-19T09:34:49Z</time></trkpt><trkpt lat="42.96896953863049" lon="12.745652885074705"><ele>379.0</ele><time>2026-04-19T09:34:50Z</time></trkpt><trkpt lat="42.96876571754304" lon="12.745445352096441"><ele>379.0</ele><time>2026-04-19T09:34:51Z</time></trkpt><trkpt lat="42.96855598989617" lon="12.745236992937752"><ele>382.5</ele><time>2026-04-19T09:34:51.999Z</time></trkpt><trkpt lat="42.96834225247602" lon="12.745035951837265"><ele>386.0</ele><time>2026-04-19T09:34:52.999Z</time></trkpt><trkpt lat="42.96812283705387" lon="12.744831165503985"><ele>386.0</ele><time>2026-04-19T09:34:53.999Z</time></trkpt><trkpt lat="42.967900592168284" lon="12.744628316060151"><ele>386.0</ele><time>2026-04-19T09:34:54.999Z</time></trkpt><trkpt lat="42.96767561414112" lon="12.744425526086594"><ele>386.0</ele><time>2026-04-19T09:34:55.999Z</time></trkpt><trkpt lat="42.96744823114894" lon="12.744223943089024"><ele>386.0</ele><time>2026-04-19T09:34:56.999Z</time></trkpt><trkpt lat="42.96722851910127" lon="12.744023256823601"><ele>386.0</ele><time>2026-04-19T09:34:57.999Z</time></trkpt><trkpt lat="42.96702472265893" lon="12.743848854271869"><ele>386.0</ele><time>2026-04-19T09:34:58.999Z</time></trkpt><trkpt lat="42.966830438503976" lon="12.743668068854928"><ele>379.5</ele><time>2026-04-19T09:34:59.999Z</time></trkpt><trkpt lat="42.96660957539764" lon="12.743479170676157"><ele>373.0</ele><time>2026-04-19T09:35:00.999Z</time></trkpt><trkpt lat="42.966351794670395" lon="12.743266639906766"><ele>373.0</ele><time>2026-04-19T09:35:01.999Z</time></trkpt><trkpt lat="42.96610721692045" lon="12.743066675373873"><ele>373.0</ele><time>2026-04-19T09:35:02.999Z</time></trkpt><trkpt lat="42.96588468765035" lon="12.742857988568838"><ele>367.0</ele><time>2026-04-19T09:35:03.999Z</time></trkpt><trkpt lat="42.96565828406064" lon="12.742654401645142"><ele>361.0</ele><time>2026-04-19T09:35:04.999Z</time></trkpt><trkpt lat="42.965431564454" lon="12.742447807435049"><ele>361.0</ele><time>2026-04-19T09:35:05.999Z</time></trkpt><trkpt lat="42.965215694946984" lon="12.742231670436844"><ele>361.0</ele><time>2026-04-19T09:35:06.999Z</time></trkpt><trkpt lat="42.96501080338534" lon="12.742010480978522"><ele>351.5</ele><time>2026-04-19T09:35:07.999Z</time></trkpt><trkpt lat="42.96482038683588" lon="12.741813044712929"><ele>342.0</ele><time>2026-04-19T09:35:08.999Z</time></trkpt><trkpt lat="42.96463504382442" lon="12.741603165835507"><ele>342.0</ele><time>2026-04-19T09:35:09.999Z</time></trkpt><trkpt lat="42.96445373273166" lon="12.741402186093769"><ele>342.0</ele><time>2026-04-19T09:35:10.999Z</time></trkpt><trkpt lat="42.96428364343104" lon="12.74120380159474"><ele>337.5</ele><time>2026-04-19T09:35:11.999Z</time></trkpt><trkpt lat="42.964110826189916" lon="12.740992062552424"><ele>333.0</ele><time>2026-04-19T09:35:12.999Z</time></trkpt><trkpt lat="42.96394083421225" lon="12.740781156001425"><ele>333.0</ele><time>2026-04-19T09:35:13.999Z</time></trkpt><trkpt lat="42.9637739378829" lon="12.740566061132233"><ele>333.0</ele><time>2026-04-19T09:35:14.999Z</time></trkpt><trkpt lat="42.963608471781136" lon="12.740343595928316"><ele>329.5</ele><time>2026-04-19T09:35:15.999Z</time></trkpt><trkpt lat="42.963443747049936" lon="12.740119815282146"><ele>326.0</ele><time>2026-04-19T09:35:16.999Z</time></trkpt><trkpt lat="42.96327492565973" lon="12.739886143981472"><ele>335.0</ele><time>2026-04-19T09:35:17.999Z</time></trkpt><trkpt lat="42.96310801383826" lon="12.739650080002379"><ele>344.0</ele><time>2026-04-19T09:35:18.999Z</time></trkpt><trkpt lat="42.96294337725792" lon="12.739411020524699"><ele>341.0</ele><time>2026-04-19T09:35:19.999Z</time></trkpt><trkpt lat="42.962779269830605" lon="12.739165243123002"><ele>338.0</ele><time>2026-04-19T09:35:20.999Z</time></trkpt><trkpt lat="42.962615353315435" lon="12.738924220869244"><ele>342.0</ele><time>2026-04-19T09:35:21.999Z</time></trkpt><trkpt lat="42.962449420952986" lon="12.73868145378009"><ele>346.0</ele><time>2026-04-19T09:35:22.999Z</time></trkpt><trkpt lat="42.96228604349171" lon="12.738447535148264"><ele>346.0</ele><time>2026-04-19T09:35:23.999Z</time></trkpt><trkpt lat="42.96211990006515" lon="12.73821730877551"><ele>346.0</ele><time>2026-04-19T09:35:24.999Z</time></trkpt><trkpt lat="42.96194794617431" lon="12.737995620350434"><ele>346.0</ele><time>2026-04-19T09:35:25.999Z</time></trkpt><trkpt lat="42.96176833821252" lon="12.737783983681208"><ele>346.0</ele><time>2026-04-19T09:35:26.999Z</time></trkpt><trkpt lat="42.96158244097186" lon="12.737581102518645"><ele>353.0</ele><time>2026-04-19T09:35:27.999Z</time></trkpt><trkpt lat="42.96138954905946" lon="12.737390853823864"><ele>360.0</ele><time>2026-04-19T09:35:28.999Z</time></trkpt><trkpt lat="42.96118905201472" lon="12.737211909348755"><ele>360.0</ele><time>2026-04-19T09:35:29.999Z</time></trkpt><trkpt lat="42.960974742917664" lon="12.737043021209793"><ele>360.0</ele><time>2026-04-19T09:35:30.999Z</time></trkpt><trkpt lat="42.9607540443035" lon="12.736880888980101"><ele>365.0</ele><time>2026-04-19T09:35:31.999Z</time></trkpt><trkpt lat="42.9605309565608" lon="12.736726198371224"><ele>370.0</ele><time>2026-04-19T09:35:32.999Z</time></trkpt><trkpt lat="42.96030844208283" lon="12.736573778451206"><ele>370.0</ele><time>2026-04-19T09:35:33.999Z</time></trkpt><trkpt lat="42.96008637480791" lon="12.736416756572844"><ele>370.0</ele><time>2026-04-19T09:35:34.999Z</time></trkpt><trkpt lat="42.9598928340389" lon="12.73627785619167"><ele>370.0</ele><time>2026-04-19T09:35:35.999Z</time></trkpt><trkpt lat="42.95969117720865" lon="12.736142803528235"><ele>370.0</ele><time>2026-04-19T09:35:36.999Z</time></trkpt><trkpt lat="42.959488886440354" lon="12.735987983500985"><ele>370.0</ele><time>2026-04-19T09:35:37.999Z</time></trkpt><trkpt lat="42.95922773293553" lon="12.735855157010148"><ele>370.0</ele><time>2026-04-19T09:35:38.999Z</time></trkpt><trkpt lat="42.95896162589156" lon="12.73581677769081"><ele>362.5</ele><time>2026-04-19T09:35:39.999Z</time></trkpt><trkpt lat="42.95874162819429" lon="12.735696661664422"><ele>355.0</ele><time>2026-04-19T09:35:40.999Z</time></trkpt><trkpt lat="42.95846064275955" lon="12.735759672480054"><ele>349.0</ele><time>2026-04-19T09:35:41.999Z</time></trkpt><trkpt lat="42.95824372605559" lon="12.735676551948389"><ele>343.0</ele><time>2026-04-19T09:35:42.999Z</time></trkpt><trkpt lat="42.958022093925734" lon="12.735586697655096"><ele>343.0</ele><time>2026-04-19T09:35:43.999Z</time></trkpt><trkpt lat="42.95779723443838" lon="12.735487863263804"><ele>343.0</ele><time>2026-04-19T09:35:44.999Z</time></trkpt><trkpt lat="42.95758130390128" lon="12.735373422299634"><ele>341.0</ele><time>2026-04-19T09:35:45.999Z</time></trkpt><trkpt lat="42.95736953180547" lon="12.735248410774307"><ele>339.0</ele><time>2026-04-19T09:35:46.999Z</time></trkpt><trkpt lat="42.957160414149236" lon="12.735096696257713"><ele>335.0</ele><time>2026-04-19T09:35:47.999Z</time></trkpt><trkpt lat="42.9569579461913" lon="12.73492373409354"><ele>331.0</ele><time>2026-04-19T09:35:48.999Z</time></trkpt><trkpt lat="42.95676884116472" lon="12.734744723825713"><ele>331.5</ele><time>2026-04-19T09:35:49.999Z</time></trkpt><trkpt lat="42.95658348578301" lon="12.734558829605382"><ele>332.0</ele><time>2026-04-19T09:35:50.999Z</time></trkpt><trkpt lat="42.95639995269293" lon="12.73436233033044"><ele>328.5</ele><time>2026-04-19T09:35:51.999Z</time></trkpt><trkpt lat="42.95622308363267" lon="12.734156130815897"><ele>325.0</ele><time>2026-04-19T09:35:52.999Z</time></trkpt><trkpt lat="42.95605612035362" lon="12.733953504243273"><ele>325.0</ele><time>2026-04-19T09:35:53.999Z</time></trkpt><trkpt lat="42.95589815897268" lon="12.733758244804863"><ele>325.0</ele><time>2026-04-19T09:35:55Z</time></trkpt><trkpt lat="42.9557437837672" lon="12.733573452907473"><ele>325.0</ele><time>2026-04-19T09:35:56Z</time></trkpt><trkpt lat="42.95560091590339" lon="12.733387618865468"><ele>322.0</ele><time>2026-04-19T09:35:57Z</time></trkpt><trkpt lat="42.95546078461345" lon="12.733208466796016"><ele>319.0</ele><time>2026-04-19T09:35:58Z</time></trkpt><trkpt lat="42.95531081938033" lon="12.733038613653006"><ele>316.0</ele><time>2026-04-19T09:35:59Z</time></trkpt><trkpt lat="42.95515269303622" lon="12.7328808357796"><ele>315.3333333333333</ele><time>2026-04-19T09:36:00Z</time></trkpt><trkpt lat="42.9549893198229" lon="12.732737656272054"><ele>314.6666666666667</ele><time>2026-04-19T09:36:01Z</time></trkpt><trkpt lat="42.9548203450419" lon="12.732614580578938"><ele>314.0</ele><time>2026-04-19T09:36:02Z</time></trkpt><trkpt lat="42.95464601469393" lon="12.732505351368014"><ele>314.0</ele><time>2026-04-19T09:36:03Z</time></trkpt><trkpt lat="42.95446553002537" lon="12.732406518339184"><ele>314.0</ele><time>2026-04-19T09:36:04Z</time></trkpt><trkpt lat="42.95429609018456" lon="12.732291512785133"><ele>314.0</ele><time>2026-04-19T09:36:05Z</time></trkpt><trkpt lat="42.95412550553574" lon="12.732175997789795"><ele>313.0</ele><time>2026-04-19T09:36:06Z</time></trkpt><trkpt lat="42.95395702004759" lon="12.732048383637807"><ele>312.0</ele><time>2026-04-19T09:36:07Z</time></trkpt><trkpt lat="42.95378866199889" lon="12.731931034811069"><ele>311.0</ele><time>2026-04-19T09:36:08Z</time></trkpt><trkpt lat="42.953619213591466" lon="12.73181114187292"><ele>311.0</ele><time>2026-04-19T09:36:09Z</time></trkpt><trkpt lat="42.95345668678443" lon="12.731696350536643"><ele>311.0</ele><time>2026-04-19T09:36:10Z</time></trkpt><trkpt lat="42.95330387828355" lon="12.731563057434505"><ele>311.0</ele><time>2026-04-19T09:36:11Z</time></trkpt><trkpt lat="42.953164406820264" lon="12.731401230823403"><ele>311.6666666666667</ele><time>2026-04-19T09:36:12Z</time></trkpt><trkpt lat="42.95303579299184" lon="12.731237003283617"><ele>312.3333333333333</ele><time>2026-04-19T09:36:13Z</time></trkpt><trkpt lat="42.952921394769895" lon="12.731050375979486"><ele>313.0</ele><time>2026-04-19T09:36:14Z</time></trkpt><trkpt lat="42.952830966742006" lon="12.730829811444705"><ele>311.3333333333333</ele><time>2026-04-19T09:36:15Z</time></trkpt><trkpt lat="42.952752960812404" lon="12.730610036344817"><ele>309.6666666666667</ele><time>2026-04-19T09:36:16Z</time></trkpt><trkpt lat="42.95268644478724" lon="12.730373067151927"><ele>308.0</ele><time>2026-04-19T09:36:17Z</time></trkpt><trkpt lat="42.952640514154474" lon="12.730138672417432"><ele>307.33333333333337</ele><time>2026-04-19T09:36:18Z</time></trkpt><trkpt lat="42.95261326261025" lon="12.729905489454818"><ele>306.6666666666667</ele><time>2026-04-19T09:36:19Z</time></trkpt><trkpt lat="42.952600787917" lon="12.729668154191092"><ele>306.0</ele><time>2026-04-19T09:36:20Z</time></trkpt><trkpt lat="42.952603472410544" lon="12.729436651379425"><ele>305.3333333333333</ele><time>2026-04-19T09:36:21Z</time></trkpt><trkpt lat="42.95261144857593" lon="12.729207589769679"><ele>304.66666666666663</ele><time>2026-04-19T09:36:22Z</time></trkpt><trkpt lat="42.95261747212828" lon="12.728976104450108"><ele>304.0</ele><time>2026-04-19T09:36:23Z</time></trkpt><trkpt lat="42.95262758623364" lon="12.728743769108624"><ele>303.66666666666663</ele><time>2026-04-19T09:36:24Z</time></trkpt><trkpt lat="42.95263619180748" lon="12.72851373523425"><ele>303.3333333333333</ele><time>2026-04-19T09:36:25Z</time></trkpt><trkpt lat="42.95263394475727" lon="12.728282198039429"><ele>303.0</ele><time>2026-04-19T09:36:26Z</time></trkpt><trkpt lat="42.952636708990646" lon="12.728050729915008"><ele>303.0</ele><time>2026-04-19T09:36:27Z</time></trkpt><trkpt lat="42.95264144996979" lon="12.72781643437494"><ele>303.0</ele><time>2026-04-19T09:36:28Z</time></trkpt><trkpt lat="42.952640086419166" lon="12.727586617437149"><ele>303.0</ele><time>2026-04-19T09:36:29Z</time></trkpt><trkpt lat="42.952625852934275" lon="12.7273537115999"><ele>301.3333333333333</ele><time>2026-04-19T09:36:30Z</time></trkpt><trkpt lat="42.952595609464964" lon="12.727123431302493"><ele>299.66666666666663</ele><time>2026-04-19T09:36:31Z</time></trkpt><trkpt lat="42.95255515018629" lon="12.726890410104774"><ele>298.0</ele><time>2026-04-19T09:36:32Z</time></trkpt><trkpt lat="42.95250466907475" lon="12.726657248431483"><ele>296.0</ele><time>2026-04-19T09:36:33Z</time></trkpt><trkpt lat="42.95245357345163" lon="12.726423400835808"><ele>294.0</ele><time>2026-04-19T09:36:34Z</time></trkpt><trkpt lat="42.95240542377565" lon="12.726192289287615"><ele>292.0</ele><time>2026-04-19T09:36:35Z</time></trkpt><trkpt lat="42.952360843165536" lon="12.72596095742817"><ele>291.66666666666663</ele><time>2026-04-19T09:36:36Z</time></trkpt><trkpt lat="42.952319679242386" lon="12.725728457983406"><ele>291.3333333333333</ele><time>2026-04-19T09:36:37Z</time></trkpt><trkpt lat="42.95227697390279" lon="12.725498512333573"><ele>291.0</ele><time>2026-04-19T09:36:38Z</time></trkpt><trkpt lat="42.952232760459964" lon="12.725269426167884"><ele>289.0</ele><time>2026-04-19T09:36:39Z</time></trkpt><trkpt lat="42.952186231824015" lon="12.725039944385967"><ele>287.0</ele><time>2026-04-19T09:36:40Z</time></trkpt><trkpt lat="42.95214036553822" lon="12.724817032519576"><ele>285.0</ele><time>2026-04-19T09:36:41Z</time></trkpt><trkpt lat="42.95209459016424" lon="12.724590978495094"><ele>284.3333333333333</ele><time>2026-04-19T09:36:42Z</time></trkpt><trkpt lat="42.9520501482447" lon="12.724374639312778"><ele>283.66666666666663</ele><time>2026-04-19T09:36:43Z</time></trkpt><trkpt lat="42.952004884296734" lon="12.724167643573326"><ele>283.0</ele><time>2026-04-19T09:36:44Z</time></trkpt><trkpt lat="42.95195842859324" lon="12.723970466092805"><ele>283.0</ele><time>2026-04-19T09:36:45Z</time></trkpt><trkpt lat="42.9519149479057" lon="12.723778892119432"><ele>283.0</ele><time>2026-04-19T09:36:46Z</time></trkpt><trkpt lat="42.95188373785262" lon="12.723598428410579"><ele>283.0</ele><time>2026-04-19T09:36:47Z</time></trkpt><trkpt lat="42.9518663737945" lon="12.72342861870129"><ele>283.0</ele><time>2026-04-19T09:36:48Z</time></trkpt><trkpt lat="42.95187318916731" lon="12.723270200205212"><ele>282.4</ele><time>2026-04-19T09:36:49Z</time></trkpt><trkpt lat="42.95190934868751" lon="12.72313007305361"><ele>281.8</ele><time>2026-04-19T09:36:50Z</time></trkpt><trkpt lat="42.95196217779938" lon="12.723009421185358"><ele>281.2</ele><time>2026-04-19T09:36:51Z</time></trkpt><trkpt lat="42.95203181996116" lon="12.722904749894454"><ele>280.6</ele><time>2026-04-19T09:36:52Z</time></trkpt><trkpt lat="42.95211614856873" lon="12.722831784841038"><ele>280.0</ele><time>2026-04-19T09:36:52.999Z</time></trkpt><trkpt lat="42.952219011409746" lon="12.722784954317175"><ele>280.0</ele><time>2026-04-19T09:36:53.999Z</time></trkpt><trkpt lat="42.952326603547476" lon="12.72276665786175"><ele>280.0</ele><time>2026-04-19T09:36:54.999Z</time></trkpt><trkpt lat="42.95243546804767" lon="12.722765766775336"><ele>280.0</ele><time>2026-04-19T09:36:55.999Z</time></trkpt><trkpt lat="42.95254637104696" lon="12.722776628490475"><ele>280.0</ele><time>2026-04-19T09:36:56.999Z</time></trkpt><trkpt lat="42.952658367364734" lon="12.722785478669353"><ele>280.0</ele><time>2026-04-19T09:36:57.999Z</time></trkpt><trkpt lat="42.952773625766596" lon="12.72278736245139"><ele>279.2</ele><time>2026-04-19T09:36:58.999Z</time></trkpt><trkpt lat="42.95289163734668" lon="12.722785901976291"><ele>278.4</ele><time>2026-04-19T09:36:59.999Z</time></trkpt><trkpt lat="42.9530024988081" lon="12.72278457559985"><ele>277.6</ele><time>2026-04-19T09:37:00.999Z</time></trkpt><trkpt lat="42.953096346324784" lon="12.722788589629252"><ele>276.8</ele><time>2026-04-19T09:37:01.999Z</time></trkpt><trkpt lat="42.953177020150335" lon="12.7227953021493"><ele>276.0</ele><time>2026-04-19T09:37:02.999Z</time></trkpt><trkpt lat="42.953259100095025" lon="12.722794928402205"><ele>276.0</ele><time>2026-04-19T09:37:03.999Z</time></trkpt><trkpt lat="42.95334012387247" lon="12.722805826270484"><ele>276.0</ele><time>2026-04-19T09:37:04.999Z</time></trkpt><trkpt lat="42.95342339282395" lon="12.722725183524089"><ele>276.0</ele><time>2026-04-19T09:37:05.999Z</time></trkpt><trkpt lat="42.95349300400018" lon="12.722643212625465"><ele>276.0</ele><time>2026-04-19T09:37:06.999Z</time></trkpt><trkpt lat="42.953543908492954" lon="12.72254282425673"><ele>276.0</ele><time>2026-04-19T09:37:07.999Z</time></trkpt><trkpt lat="42.953568392807185" lon="12.722419045292579"><ele>275.8</ele><time>2026-04-19T09:37:08.999Z</time></trkpt><trkpt lat="42.953559630633876" lon="12.72229331069615"><ele>275.6</ele><time>2026-04-19T09:37:09.999Z</time></trkpt><trkpt lat="42.95352179160128" lon="12.722172131041383"><ele>275.4</ele><time>2026-04-19T09:37:10.999Z</time></trkpt><trkpt lat="42.953460621512185" lon="12.722073147696063"><ele>275.2</ele><time>2026-04-19T09:37:11.999Z</time></trkpt><trkpt lat="42.95337966603714" lon="12.722006322972982"><ele>275.0</ele><time>2026-04-19T09:37:12.999Z</time></trkpt><trkpt lat="42.95328882368825" lon="12.721969053285584"><ele>274.8</ele><time>2026-04-19T09:37:13.999Z</time></trkpt><trkpt lat="42.953198840438986" lon="12.721968764581204"><ele>274.6</ele><time>2026-04-19T09:37:14.999Z</time></trkpt><trkpt lat="42.95310031995781" lon="12.721985166684217"><ele>274.4</ele><time>2026-04-19T09:37:15.999Z</time></trkpt><trkpt lat="42.952998299236306" lon="12.721991794779248"><ele>274.2</ele><time>2026-04-19T09:37:16.999Z</time></trkpt><trkpt lat="42.952880778952434" lon="12.721993562066102"><ele>274.0</ele><time>2026-04-19T09:37:17.999Z</time></trkpt><trkpt lat="42.95275056877355" lon="12.722001530278032"><ele>274.0</ele><time>2026-04-19T09:37:18.999Z</time></trkpt><trkpt lat="42.95260916461414" lon="12.722016314606257"><ele>274.0</ele><time>2026-04-19T09:37:19.999Z</time></trkpt><trkpt lat="42.95246513145198" lon="12.72203703887189"><ele>274.0</ele><time>2026-04-19T09:37:20.999Z</time></trkpt><trkpt lat="42.95231653420823" lon="12.722051074004495"><ele>274.0</ele><time>2026-04-19T09:37:21.999Z</time></trkpt><trkpt lat="42.95216295685289" lon="12.722060003465593"><ele>274.3333333333333</ele><time>2026-04-19T09:37:22.999Z</time></trkpt><trkpt lat="42.952007392610604" lon="12.722069510179663"><ele>274.6666666666667</ele><time>2026-04-19T09:37:23.999Z</time></trkpt><trkpt lat="42.95184535114409" lon="12.722068451933755"><ele>275.0</ele><time>2026-04-19T09:37:24.999Z</time></trkpt><trkpt lat="42.95168593630623" lon="12.722055511377183"><ele>276.0</ele><time>2026-04-19T09:37:25.999Z</time></trkpt><trkpt lat="42.95152184764826" lon="12.722037489697268"><ele>277.0</ele><time>2026-04-19T09:37:26.999Z</time></trkpt><trkpt lat="42.95135864180734" lon="12.722016429412074"><ele>278.0</ele><time>2026-04-19T09:37:27.999Z</time></trkpt><trkpt lat="42.951203579818376" lon="12.722000095543214"><ele>278.0</ele><time>2026-04-19T09:37:28.999Z</time></trkpt><trkpt lat="42.951052097334994" lon="12.721979182333348"><ele>278.0</ele><time>2026-04-19T09:37:29.999Z</time></trkpt><trkpt lat="42.95089953099196" lon="12.721948279591466"><ele>278.0</ele><time>2026-04-19T09:37:30.999Z</time></trkpt><trkpt lat="42.95074069977581" lon="12.721910827923127"><ele>276.0</ele><time>2026-04-19T09:37:31.999Z</time></trkpt><trkpt lat="42.950593355272204" lon="12.721879867550074"><ele>274.0</ele><time>2026-04-19T09:37:32.999Z</time></trkpt><trkpt lat="42.950450109522265" lon="12.721854802737948"><ele>272.0</ele><time>2026-04-19T09:37:33.999Z</time></trkpt><trkpt lat="42.950309766137295" lon="12.72183225398579"><ele>270.0</ele><time>2026-04-19T09:37:34.999Z</time></trkpt><trkpt lat="42.95016445714228" lon="12.72181431549898"><ele>269.6666666666667</ele><time>2026-04-19T09:37:35.999Z</time></trkpt><trkpt lat="42.95001524114685" lon="12.721798872853045"><ele>269.33333333333337</ele><time>2026-04-19T09:37:36.999Z</time></trkpt><trkpt lat="42.949864195898655" lon="12.721777935042622"><ele>269.0</ele><time>2026-04-19T09:37:37.999Z</time></trkpt><trkpt lat="42.949708990959714" lon="12.721768827605178"><ele>269.0</ele><time>2026-04-19T09:37:38.999Z</time></trkpt><trkpt lat="42.949551203360514" lon="12.721773072963593"><ele>269.0</ele><time>2026-04-19T09:37:39.999Z</time></trkpt><trkpt lat="42.949392526446715" lon="12.72179126036583"><ele>269.0</ele><time>2026-04-19T09:37:40.999Z</time></trkpt><trkpt lat="42.94923019457319" lon="12.721817798276623"><ele>268.6666666666667</ele><time>2026-04-19T09:37:41.999Z</time></trkpt><trkpt lat="42.94906223043254" lon="12.721850299965068"><ele>268.3333333333333</ele><time>2026-04-19T09:37:42.999Z</time></trkpt><trkpt lat="42.94889088932157" lon="12.721876654865127"><ele>268.0</ele><time>2026-04-19T09:37:43.999Z</time></trkpt><trkpt lat="42.94872349680304" lon="12.721902673314746"><ele>268.0</ele><time>2026-04-19T09:37:44.999Z</time></trkpt><trkpt lat="42.94855154054863" lon="12.721930601774881"><ele>268.0</ele><time>2026-04-19T09:37:45.999Z</time></trkpt><trkpt lat="42.94837683207019" lon="12.721954294906714"><ele>268.0</ele><time>2026-04-19T09:37:46.999Z</time></trkpt><trkpt lat="42.94820110822791" lon="12.721974723048858"><ele>267.66666666666663</ele><time>2026-04-19T09:37:47.999Z</time></trkpt><trkpt lat="42.94803181384172" lon="12.721991609994681"><ele>267.3333333333333</ele><time>2026-04-19T09:37:48.999Z</time></trkpt><trkpt lat="42.94786840242655" lon="12.722014903505768"><ele>267.0</ele><time>2026-04-19T09:37:49.999Z</time></trkpt><trkpt lat="42.94770505413986" lon="12.722028983084321"><ele>266.6666666666667</ele><time>2026-04-19T09:37:50.999Z</time></trkpt><trkpt lat="42.94754154267835" lon="12.722037949884683"><ele>266.33333333333337</ele><time>2026-04-19T09:37:51.999Z</time></trkpt><trkpt lat="42.94737012712926" lon="12.722039934424206"><ele>266.0</ele><time>2026-04-19T09:37:52.999Z</time></trkpt><trkpt lat="42.94719788377776" lon="12.722033790872228"><ele>266.0</ele><time>2026-04-19T09:37:53.999Z</time></trkpt><trkpt lat="42.947021132894164" lon="12.722019330044695"><ele>266.0</ele><time>2026-04-19T09:37:54.999Z</time></trkpt><trkpt lat="42.94684270441662" lon="12.72201764568954"><ele>266.0</ele><time>2026-04-19T09:37:55.999Z</time></trkpt><trkpt lat="42.94666336563859" lon="12.722018819899363"><ele>265.33333333333337</ele><time>2026-04-19T09:37:56.999Z</time></trkpt><trkpt lat="42.94648271296898" lon="12.722019127766957"><ele>264.6666666666667</ele><time>2026-04-19T09:37:57.999Z</time></trkpt><trkpt lat="42.946298601150545" lon="12.722018691658082"><ele>264.0</ele><time>2026-04-19T09:37:58.999Z</time></trkpt><trkpt lat="42.946112744492396" lon="12.722019214185869"><ele>264.0</ele><time>2026-04-19T09:37:59.999Z</time></trkpt><trkpt lat="42.9459226870773" lon="12.722026430610752"><ele>264.0</ele><time>2026-04-19T09:38:01Z</time></trkpt><trkpt lat="42.94573667569173" lon="12.722032417940127"><ele>264.0</ele><time>2026-04-19T09:38:02Z</time></trkpt><trkpt lat="42.945548502065705" lon="12.722050181215355"><ele>262.6666666666667</ele><time>2026-04-19T09:38:03Z</time></trkpt><trkpt lat="42.94536411283429" lon="12.72208031362535"><ele>261.33333333333337</ele><time>2026-04-19T09:38:04Z</time></trkpt><trkpt lat="42.94518244053774" lon="12.722129380566376"><ele>260.0</ele><time>2026-04-19T09:38:05Z</time></trkpt><trkpt lat="42.945006892063034" lon="12.72218263995389"><ele>260.0</ele><time>2026-04-19T09:38:06Z</time></trkpt><trkpt lat="42.944836304215364" lon="12.722236886139783"><ele>260.0</ele><time>2026-04-19T09:38:07Z</time></trkpt><trkpt lat="42.944670912459294" lon="12.7222851272693"><ele>260.0</ele><time>2026-04-19T09:38:08Z</time></trkpt><trkpt lat="42.94450776291102" lon="12.72232152529564"><ele>260.0</ele><time>2026-04-19T09:38:09Z</time></trkpt><trkpt lat="42.94434434181323" lon="12.722350520519573"><ele>260.0</ele><time>2026-04-19T09:38:10Z</time></trkpt><trkpt lat="42.944178246503355" lon="12.722376704857652"><ele>260.0</ele><time>2026-04-19T09:38:11Z</time></trkpt><trkpt lat="42.94401270791677" lon="12.722396423078383"><ele>259.6666666666667</ele><time>2026-04-19T09:38:12Z</time></trkpt><trkpt lat="42.94384088214036" lon="12.722412618858927"><ele>259.3333333333333</ele><time>2026-04-19T09:38:13Z</time></trkpt><trkpt lat="42.94366535614778" lon="12.722420326595959"><ele>259.0</ele><time>2026-04-19T09:38:14Z</time></trkpt><trkpt lat="42.943486135469655" lon="12.722429532620737"><ele>258.3333333333333</ele><time>2026-04-19T09:38:15Z</time></trkpt><trkpt lat="42.943306649446725" lon="12.722440153462538"><ele>257.6666666666667</ele><time>2026-04-19T09:38:16Z</time></trkpt><trkpt lat="42.943120621711266" lon="12.722457611780065"><ele>257.0</ele><time>2026-04-19T09:38:17Z</time></trkpt><trkpt lat="42.942934424886126" lon="12.722476137302019"><ele>257.0</ele><time>2026-04-19T09:38:18Z</time></trkpt><trkpt lat="42.94274521032489" lon="12.722490827631747"><ele>257.0</ele><time>2026-04-19T09:38:19Z</time></trkpt><trkpt lat="42.94255184434222" lon="12.722517331265685"><ele>257.0</ele><time>2026-04-19T09:38:20Z</time></trkpt><trkpt lat="42.94231806120183" lon="12.722567815169814"><ele>256.33333333333337</ele><time>2026-04-19T09:38:21Z</time></trkpt><trkpt lat="42.942083852668425" lon="12.722621144916612"><ele>255.66666666666669</ele><time>2026-04-19T09:38:22Z</time></trkpt><trkpt lat="42.94195187741163" lon="12.722485177062175"><ele>255.0</ele><time>2026-04-19T09:38:23Z</time></trkpt><trkpt lat="42.94174228409251" lon="12.722476278858467"><ele>255.33333333333331</ele><time>2026-04-19T09:38:24Z</time></trkpt><trkpt lat="42.9415287686174" lon="12.722468930381112"><ele>255.66666666666666</ele><time>2026-04-19T09:38:25Z</time></trkpt><trkpt lat="42.941324184669604" lon="12.722471857455544"><ele>256.0</ele><time>2026-04-19T09:38:26Z</time></trkpt><trkpt lat="42.94111120189675" lon="12.722463629045844"><ele>256.0</ele><time>2026-04-19T09:38:27Z</time></trkpt><trkpt lat="42.94089874216484" lon="12.722460146405657"><ele>256.0</ele><time>2026-04-19T09:38:28Z</time></trkpt><trkpt lat="42.94068760186402" lon="12.722453657293029"><ele>256.0</ele><time>2026-04-19T09:38:29Z</time></trkpt><trkpt lat="42.94047892111749" lon="12.722449117112296"><ele>254.66666666666666</ele><time>2026-04-19T09:38:30Z</time></trkpt><trkpt lat="42.94027200079646" lon="12.72244948096422"><ele>253.33333333333331</ele><time>2026-04-19T09:38:31Z</time></trkpt><trkpt lat="42.940063098687276" lon="12.722451552778002"><ele>252.0</ele><time>2026-04-19T09:38:32Z</time></trkpt><trkpt lat="42.9398513154886" lon="12.72244950621922"><ele>251.33333333333331</ele><time>2026-04-19T09:38:33Z</time></trkpt><trkpt lat="42.93964195818548" lon="12.72245060377645"><ele>250.66666666666666</ele><time>2026-04-19T09:38:34Z</time></trkpt><trkpt lat="42.939433880291354" lon="12.722456934974835"><ele>250.0</ele><time>2026-04-19T09:38:35Z</time></trkpt><trkpt lat="42.93922328481568" lon="12.72248855158878"><ele>249.33333333333331</ele><time>2026-04-19T09:38:36Z</time></trkpt><trkpt lat="42.93901611275474" lon="12.72254002704112"><ele>248.66666666666669</ele><time>2026-04-19T09:38:37Z</time></trkpt><trkpt lat="42.93881129753712" lon="12.722595985943194"><ele>248.0</ele><time>2026-04-19T09:38:38Z</time></trkpt><trkpt lat="42.93860384301354" lon="12.72264927816521"><ele>248.0</ele><time>2026-04-19T09:38:39Z</time></trkpt><trkpt lat="42.938399187333324" lon="12.722705563088471"><ele>248.0</ele><time>2026-04-19T09:38:40Z</time></trkpt><trkpt lat="42.93819327597789" lon="12.722773614718166"><ele>248.0</ele><time>2026-04-19T09:38:41Z</time></trkpt><trkpt lat="42.9379933004887" lon="12.722847045779034"><ele>248.0</ele><time>2026-04-19T09:38:42Z</time></trkpt><trkpt lat="42.93779190595577" lon="12.722931274522882"><ele>248.0</ele><time>2026-04-19T09:38:43Z</time></trkpt><trkpt lat="42.9375970036959" lon="12.723024361783933"><ele>248.0</ele><time>2026-04-19T09:38:44Z</time></trkpt><trkpt lat="42.93739992020438" lon="12.72313247875059"><ele>249.0</ele><time>2026-04-19T09:38:45Z</time></trkpt><trkpt lat="42.93720626095746" lon="12.723243840630078"><ele>250.0</ele><time>2026-04-19T09:38:46Z</time></trkpt><trkpt lat="42.93701593793838" lon="12.72336429191324"><ele>251.0</ele><time>2026-04-19T09:38:47Z</time></trkpt><trkpt lat="42.936825691300925" lon="12.723493544721071"><ele>251.66666666666669</ele><time>2026-04-19T09:38:48Z</time></trkpt><trkpt lat="42.93664165511005" lon="12.723624604868865"><ele>252.33333333333331</ele><time>2026-04-19T09:38:49Z</time></trkpt><trkpt lat="42.93645758021727" lon="12.723764213150348"><ele>253.0</ele><time>2026-04-19T09:38:50Z</time></trkpt><trkpt lat="42.936274000793254" lon="12.723904945453098"><ele>253.0</ele><time>2026-04-19T09:38:50.999Z</time></trkpt><trkpt lat="42.93609733806913" lon="12.724053973479473"><ele>253.0</ele><time>2026-04-19T09:38:51.999Z</time></trkpt><trkpt lat="42.93592065476435" lon="12.724209049454227"><ele>253.0</ele><time>2026-04-19T09:38:52.999Z</time></trkpt><trkpt lat="42.93574261302034" lon="12.724360779912416"><ele>254.66666666666666</ele><time>2026-04-19T09:38:53.999Z</time></trkpt><trkpt lat="42.93556149779398" lon="12.724504101264193"><ele>256.3333333333333</ele><time>2026-04-19T09:38:54.999Z</time></trkpt><trkpt lat="42.93537857082807" lon="12.72464657950862"><ele>258.0</ele><time>2026-04-19T09:38:55.999Z</time></trkpt><trkpt lat="42.93519642743242" lon="12.724791747998347"><ele>259.3333333333333</ele><time>2026-04-19T09:38:56.999Z</time></trkpt><trkpt lat="42.93501458580103" lon="12.724937761628732"><ele>260.66666666666663</ele><time>2026-04-19T09:38:57.999Z</time></trkpt><trkpt lat="42.93483433110503" lon="12.725083957999718"><ele>262.0</ele><time>2026-04-19T09:38:58.999Z</time></trkpt><trkpt lat="42.9346533086338" lon="12.72523138320771"><ele>262.0</ele><time>2026-04-19T09:38:59.999Z</time></trkpt><trkpt lat="42.93447473623921" lon="12.725382271120163"><ele>262.0</ele><time>2026-04-19T09:39:00.999Z</time></trkpt><trkpt lat="42.93429657972093" lon="12.725529131479027"><ele>262.0</ele><time>2026-04-19T09:39:01.999Z</time></trkpt><trkpt lat="42.93411532829749" lon="12.725682821516456"><ele>259.0</ele><time>2026-04-19T09:39:02.999Z</time></trkpt><trkpt lat="42.93393769372146" lon="12.725832440922911"><ele>256.0</ele><time>2026-04-19T09:39:03.999Z</time></trkpt><trkpt lat="42.93375414871695" lon="12.72597713162101"><ele>253.0</ele><time>2026-04-19T09:39:04.999Z</time></trkpt><trkpt lat="42.93357708310913" lon="12.72612392298914"><ele>253.0</ele><time>2026-04-19T09:39:05.999Z</time></trkpt><trkpt lat="42.93339946309022" lon="12.726272917864312"><ele>253.0</ele><time>2026-04-19T09:39:06.999Z</time></trkpt><trkpt lat="42.933217223342744" lon="12.726416366820148"><ele>253.0</ele><time>2026-04-19T09:39:07.999Z</time></trkpt><trkpt lat="42.93303774714512" lon="12.726566244075046"><ele>249.0</ele><time>2026-04-19T09:39:08.999Z</time></trkpt><trkpt lat="42.93285736502972" lon="12.726713083156268"><ele>245.0</ele><time>2026-04-19T09:39:09.999Z</time></trkpt><trkpt lat="42.93267820683862" lon="12.726862860108731"><ele>241.0</ele><time>2026-04-19T09:39:10.999Z</time></trkpt><trkpt lat="42.93249820988008" lon="12.72700976522277"><ele>241.0</ele><time>2026-04-19T09:39:11.999Z</time></trkpt><trkpt lat="42.93232203810541" lon="12.72715793817433"><ele>241.0</ele><time>2026-04-19T09:39:12.999Z</time></trkpt><trkpt lat="42.93213985305285" lon="12.727302690144016"><ele>241.0</ele><time>2026-04-19T09:39:13.999Z</time></trkpt><trkpt lat="42.93195583334846" lon="12.727446961418455"><ele>241.0</ele><time>2026-04-19T09:39:14.999Z</time></trkpt><trkpt lat="42.93176993598342" lon="12.727574214052833"><ele>241.0</ele><time>2026-04-19T09:39:15.999Z</time></trkpt><trkpt lat="42.931572835020766" lon="12.727699801757145"><ele>241.0</ele><time>2026-04-19T09:39:16.999Z</time></trkpt><trkpt lat="42.93137001461519" lon="12.72781724792169"><ele>241.5</ele><time>2026-04-19T09:39:17.999Z</time></trkpt><trkpt lat="42.93115745355046" lon="12.727929547627028"><ele>242.0</ele><time>2026-04-19T09:39:18.999Z</time></trkpt><trkpt lat="42.93094767417069" lon="12.728035923702107"><ele>241.0</ele><time>2026-04-19T09:39:19.999Z</time></trkpt><trkpt lat="42.93073251975968" lon="12.728131055074218"><ele>240.0</ele><time>2026-04-19T09:39:20.999Z</time></trkpt><trkpt lat="42.930509767142595" lon="12.728208670731217"><ele>240.0</ele><time>2026-04-19T09:39:21.999Z</time></trkpt><trkpt lat="42.93028581904238" lon="12.72827431669269"><ele>240.0</ele><time>2026-04-19T09:39:22.999Z</time></trkpt><trkpt lat="42.93006122426972" lon="12.72833432166546"><ele>238.5</ele><time>2026-04-19T09:39:23.999Z</time></trkpt><trkpt lat="42.929832346021975" lon="12.72838419784318"><ele>237.0</ele><time>2026-04-19T09:39:24.999Z</time></trkpt><trkpt lat="42.929602825012616" lon="12.728426442903796"><ele>237.0</ele><time>2026-04-19T09:39:25.999Z</time></trkpt><trkpt lat="42.92937220574797" lon="12.728463204987039"><ele>237.0</ele><time>2026-04-19T09:39:26.999Z</time></trkpt><trkpt lat="42.92913888075256" lon="12.728485135755154"><ele>235.5</ele><time>2026-04-19T09:39:27.999Z</time></trkpt><trkpt lat="42.92890432335697" lon="12.728493032071096"><ele>234.0</ele><time>2026-04-19T09:39:28.999Z</time></trkpt><trkpt lat="42.92866975290294" lon="12.7284906564406"><ele>234.0</ele><time>2026-04-19T09:39:29.999Z</time></trkpt><trkpt lat="42.92843647543308" lon="12.728473968808814"><ele>234.0</ele><time>2026-04-19T09:39:30.999Z</time></trkpt><trkpt lat="42.928202422973094" lon="12.728447252846879"><ele>233.5</ele><time>2026-04-19T09:39:31.999Z</time></trkpt><trkpt lat="42.92796880408367" lon="12.72840837766817"><ele>233.0</ele><time>2026-04-19T09:39:32.999Z</time></trkpt><trkpt lat="42.92773537523928" lon="12.728371037660192"><ele>232.5</ele><time>2026-04-19T09:39:33.999Z</time></trkpt><trkpt lat="42.92750197131622" lon="12.728328197282863"><ele>232.0</ele><time>2026-04-19T09:39:34.999Z</time></trkpt><trkpt lat="42.9272673600194" lon="12.728286475097551"><ele>232.0</ele><time>2026-04-19T09:39:35.999Z</time></trkpt><trkpt lat="42.92703362881854" lon="12.728251515085244"><ele>232.0</ele><time>2026-04-19T09:39:36.999Z</time></trkpt><trkpt lat="42.926798355110556" lon="12.728216121685575"><ele>232.0</ele><time>2026-04-19T09:39:37.999Z</time></trkpt><trkpt lat="42.926563132247445" lon="12.728178148280888"><ele>232.0</ele><time>2026-04-19T09:39:38.999Z</time></trkpt><trkpt lat="42.92632794911275" lon="12.728139952675326"><ele>232.0</ele><time>2026-04-19T09:39:39.999Z</time></trkpt><trkpt lat="42.92609293745616" lon="12.728098957293637"><ele>232.0</ele><time>2026-04-19T09:39:40.999Z</time></trkpt><trkpt lat="42.925857778175114" lon="12.728057220430365"><ele>231.0</ele><time>2026-04-19T09:39:41.999Z</time></trkpt><trkpt lat="42.925622009556925" lon="12.728013855607129"><ele>230.0</ele><time>2026-04-19T09:39:42.999Z</time></trkpt><trkpt lat="42.92538576872564" lon="12.727975263538024"><ele>230.0</ele><time>2026-04-19T09:39:43.999Z</time></trkpt><trkpt lat="42.925148960807626" lon="12.727935259431854"><ele>230.0</ele><time>2026-04-19T09:39:44.999Z</time></trkpt><trkpt lat="42.92491282998485" lon="12.727896209326738"><ele>230.0</ele><time>2026-04-19T09:39:45.999Z</time></trkpt><trkpt lat="42.92467695277172" lon="12.727851928979444"><ele>230.0</ele><time>2026-04-19T09:39:46.999Z</time></trkpt><trkpt lat="42.924440514393886" lon="12.72780775944588"><ele>229.5</ele><time>2026-04-19T09:39:47.999Z</time></trkpt><trkpt lat="42.924202900788174" lon="12.727763349963917"><ele>229.0</ele><time>2026-04-19T09:39:48.999Z</time></trkpt><trkpt lat="42.923966807850896" lon="12.727724574953363"><ele>228.5</ele><time>2026-04-19T09:39:49.999Z</time></trkpt><trkpt lat="42.92372888615726" lon="12.727684777799674"><ele>228.0</ele><time>2026-04-19T09:39:50.999Z</time></trkpt><trkpt lat="42.92349217884028" lon="12.727646601892728"><ele>227.5</ele><time>2026-04-19T09:39:51.999Z</time></trkpt><trkpt lat="42.92325572871372" lon="12.727606835683181"><ele>227.0</ele><time>2026-04-19T09:39:52.999Z</time></trkpt><trkpt lat="42.92301849727304" lon="12.727565143900781"><ele>227.0</ele><time>2026-04-19T09:39:53.999Z</time></trkpt><trkpt lat="42.92278417486137" lon="12.72752276893459"><ele>227.0</ele><time>2026-04-19T09:39:54.999Z</time></trkpt><trkpt lat="42.922548310086896" lon="12.727483410470182"><ele>226.5</ele><time>2026-04-19T09:39:55.999Z</time></trkpt><trkpt lat="42.92231467979491" lon="12.727452315705875"><ele>226.0</ele><time>2026-04-19T09:39:56.999Z</time></trkpt><trkpt lat="42.922079011182575" lon="12.727429061825134"><ele>226.0</ele><time>2026-04-19T09:39:57.999Z</time></trkpt><trkpt lat="42.92184355823382" lon="12.727410824877257"><ele>226.0</ele><time>2026-04-19T09:39:58.999Z</time></trkpt><trkpt lat="42.92160904472077" lon="12.727404067966285"><ele>225.0</ele><time>2026-04-19T09:39:59.999Z</time></trkpt><trkpt lat="42.921375343822845" lon="12.727405897329268"><ele>224.0</ele><time>2026-04-19T09:40:00.999Z</time></trkpt><trkpt lat="42.9211402616034" lon="12.727419962375075"><ele>224.0</ele><time>2026-04-19T09:40:01.999Z</time></trkpt><trkpt lat="42.92090345048892" lon="12.72743691395624"><ele>224.0</ele><time>2026-04-19T09:40:02.999Z</time></trkpt><trkpt lat="42.92066920050357" lon="12.72745777677855"><ele>224.0</ele><time>2026-04-19T09:40:03.998Z</time></trkpt><trkpt lat="42.92043074856577" lon="12.727487367305354"><ele>224.0</ele><time>2026-04-19T09:40:04.998Z</time></trkpt><trkpt lat="42.92019366418808" lon="12.727522703979162"><ele>223.5</ele><time>2026-04-19T09:40:05.998Z</time></trkpt><trkpt lat="42.91995503527395" lon="12.727559820667429"><ele>223.0</ele><time>2026-04-19T09:40:07Z</time></trkpt><trkpt lat="42.919716742093485" lon="12.72761010325926"><ele>223.0</ele><time>2026-04-19T09:40:08Z</time></trkpt><trkpt lat="42.919480510029835" lon="12.727665342964858"><ele>223.0</ele><time>2026-04-19T09:40:09Z</time></trkpt><trkpt lat="42.919241359748426" lon="12.727713561754065"><ele>222.5</ele><time>2026-04-19T09:40:10Z</time></trkpt><trkpt lat="42.91899776447051" lon="12.727755349256427"><ele>222.0</ele><time>2026-04-19T09:40:11Z</time></trkpt><trkpt lat="42.91875506907623" lon="12.727798423010416"><ele>222.0</ele><time>2026-04-19T09:40:12Z</time></trkpt><trkpt lat="42.91851278339672" lon="12.727843373894629"><ele>222.0</ele><time>2026-04-19T09:40:13Z</time></trkpt><trkpt lat="42.9182726858312" lon="12.727899297150989"><ele>223.0</ele><time>2026-04-19T09:40:14Z</time></trkpt><trkpt lat="42.91803126053503" lon="12.727951227484315"><ele>224.0</ele><time>2026-04-19T09:40:15Z</time></trkpt><trkpt lat="42.91778989699912" lon="12.728003654563071"><ele>223.0</ele><time>2026-04-19T09:40:16Z</time></trkpt><trkpt lat="42.91754378577089" lon="12.728055403640566"><ele>222.0</ele><time>2026-04-19T09:40:17Z</time></trkpt><trkpt lat="42.91730504810165" lon="12.72810291410539"><ele>222.0</ele><time>2026-04-19T09:40:18Z</time></trkpt><trkpt lat="42.91706248402222" lon="12.728149663164592"><ele>222.0</ele><time>2026-04-19T09:40:19Z</time></trkpt><trkpt lat="42.916823353727146" lon="12.728200903772912"><ele>222.5</ele><time>2026-04-19T09:40:20Z</time></trkpt><trkpt lat="42.91658236957841" lon="12.728247970906018"><ele>223.0</ele><time>2026-04-19T09:40:21Z</time></trkpt><trkpt lat="42.91633894131917" lon="12.728298280657462"><ele>223.0</ele><time>2026-04-19T09:40:22Z</time></trkpt><trkpt lat="42.91609673797308" lon="12.728346952502827"><ele>223.0</ele><time>2026-04-19T09:40:23Z</time></trkpt><trkpt lat="42.91584983282604" lon="12.72839568427139"><ele>223.0</ele><time>2026-04-19T09:40:24Z</time></trkpt><trkpt lat="42.91560227995861" lon="12.728451329087843"><ele>223.0</ele><time>2026-04-19T09:40:25Z</time></trkpt><trkpt lat="42.915351414574225" lon="12.728496119660768"><ele>223.0</ele><time>2026-04-19T09:40:26Z</time></trkpt><trkpt lat="42.915102986595265" lon="12.728524872988638"><ele>223.0</ele><time>2026-04-19T09:40:27Z</time></trkpt><trkpt lat="42.914853774138955" lon="12.728531484447746"><ele>222.5</ele><time>2026-04-19T09:40:28Z</time></trkpt><trkpt lat="42.914602881037304" lon="12.728516837320658"><ele>222.0</ele><time>2026-04-19T09:40:29Z</time></trkpt><trkpt lat="42.91434846950069" lon="12.72848715798"><ele>221.5</ele><time>2026-04-19T09:40:30Z</time></trkpt><trkpt lat="42.914098232935" lon="12.728441690388307"><ele>221.0</ele><time>2026-04-19T09:40:31Z</time></trkpt><trkpt lat="42.913846861951306" lon="12.728382257214948"><ele>221.0</ele><time>2026-04-19T09:40:32Z</time></trkpt><trkpt lat="42.91359733793436" lon="12.728307337890332"><ele>221.0</ele><time>2026-04-19T09:40:33Z</time></trkpt><trkpt lat="42.91335020437623" lon="12.728218758035544"><ele>222.0</ele><time>2026-04-19T09:40:34Z</time></trkpt><trkpt lat="42.91310939581158" lon="12.728111725635182"><ele>223.0</ele><time>2026-04-19T09:40:35Z</time></trkpt><trkpt lat="42.912870002637305" lon="12.727995282577323"><ele>223.0</ele><time>2026-04-19T09:40:36Z</time></trkpt><trkpt lat="42.91263465258049" lon="12.72786732757178"><ele>223.0</ele><time>2026-04-19T09:40:37Z</time></trkpt><trkpt lat="42.91240882605034" lon="12.727723987611814"><ele>220.0</ele><time>2026-04-19T09:40:38Z</time></trkpt><trkpt lat="42.9121853454777" lon="12.727568682826899"><ele>217.0</ele><time>2026-04-19T09:40:39Z</time></trkpt><trkpt lat="42.911967735390625" lon="12.727400453570741"><ele>217.0</ele><time>2026-04-19T09:40:40Z</time></trkpt><trkpt lat="42.911752664435156" lon="12.727220590355046"><ele>217.0</ele><time>2026-04-19T09:40:41Z</time></trkpt><trkpt lat="42.91154083056818" lon="12.727028725867434"><ele>214.5</ele><time>2026-04-19T09:40:42Z</time></trkpt><trkpt lat="42.91133379756764" lon="12.726824875807457"><ele>212.0</ele><time>2026-04-19T09:40:43Z</time></trkpt><trkpt lat="42.91113177092627" lon="12.726616984020929"><ele>212.0</ele><time>2026-04-19T09:40:44Z</time></trkpt><trkpt lat="42.91092715484432" lon="12.726410308848145"><ele>212.0</ele><time>2026-04-19T09:40:45Z</time></trkpt><trkpt lat="42.9107188095247" lon="12.726206158787296"><ele>212.5</ele><time>2026-04-19T09:40:46Z</time></trkpt><trkpt lat="42.91050951201574" lon="12.72600738154312"><ele>213.0</ele><time>2026-04-19T09:40:47Z</time></trkpt><trkpt lat="42.910300654835375" lon="12.725810559059795"><ele>213.0</ele><time>2026-04-19T09:40:48Z</time></trkpt><trkpt lat="42.910091755997556" lon="12.72560738218354"><ele>213.0</ele><time>2026-04-19T09:40:49Z</time></trkpt><trkpt lat="42.90988756701881" lon="12.725404069183346"><ele>213.0</ele><time>2026-04-19T09:40:50Z</time></trkpt><trkpt lat="42.90968110384118" lon="12.725201786955484"><ele>213.0</ele><time>2026-04-19T09:40:51Z</time></trkpt><trkpt lat="42.90947400920266" lon="12.725002736203082"><ele>213.0</ele><time>2026-04-19T09:40:52Z</time></trkpt><trkpt lat="42.90926569394418" lon="12.724803531230686"><ele>213.0</ele><time>2026-04-19T09:40:53Z</time></trkpt><trkpt lat="42.90905927218605" lon="12.724605775663326"><ele>213.0</ele><time>2026-04-19T09:40:54Z</time></trkpt><trkpt lat="42.9088526058484" lon="12.724409834637772"><ele>213.0</ele><time>2026-04-19T09:40:54.999Z</time></trkpt><trkpt lat="42.90864736597473" lon="12.724213364019306"><ele>212.5</ele><time>2026-04-19T09:40:55.999Z</time></trkpt><trkpt lat="42.908445310550455" lon="12.724016148473968"><ele>212.0</ele><time>2026-04-19T09:40:56.999Z</time></trkpt><trkpt lat="42.90824047537602" lon="12.723815425353422"><ele>211.0</ele><time>2026-04-19T09:40:57.999Z</time></trkpt><trkpt lat="42.908029613496" lon="12.723622554894765"><ele>210.0</ele><time>2026-04-19T09:40:58.999Z</time></trkpt><trkpt lat="42.90781389898009" lon="12.723433103694418"><ele>208.5</ele><time>2026-04-19T09:40:59.999Z</time></trkpt><trkpt lat="42.907596943670505" lon="12.723231310387938"><ele>207.0</ele><time>2026-04-19T09:41:00.999Z</time></trkpt><trkpt lat="42.90738420716021" lon="12.723034211697426"><ele>207.0</ele><time>2026-04-19T09:41:01.999Z</time></trkpt><trkpt lat="42.907172653079826" lon="12.72283539938498"><ele>207.0</ele><time>2026-04-19T09:41:02.999Z</time></trkpt><trkpt lat="42.906960448348535" lon="12.72264217557655"><ele>207.0</ele><time>2026-04-19T09:41:03.999Z</time></trkpt><trkpt lat="42.90674317483812" lon="12.722452650361916"><ele>207.0</ele><time>2026-04-19T09:41:04.999Z</time></trkpt><trkpt lat="42.90652067992381" lon="12.722268100157484"><ele>207.0</ele><time>2026-04-19T09:41:05.999Z</time></trkpt><trkpt lat="42.90629328658009" lon="12.722090669220716"><ele>207.0</ele><time>2026-04-19T09:41:06.999Z</time></trkpt><trkpt lat="42.906064284749206" lon="12.721925160244204"><ele>207.5</ele><time>2026-04-19T09:41:07.999Z</time></trkpt><trkpt lat="42.90583064730735" lon="12.72177300987175"><ele>208.0</ele><time>2026-04-19T09:41:08.999Z</time></trkpt><trkpt lat="42.905592093637594" lon="12.721633731444134"><ele>208.0</ele><time>2026-04-19T09:41:09.999Z</time></trkpt><trkpt lat="42.905359683331326" lon="12.721528550925237"><ele>208.0</ele><time>2026-04-19T09:41:10.999Z</time></trkpt><trkpt lat="42.90510684077466" lon="12.721378911934677"><ele>208.0</ele><time>2026-04-19T09:41:11.999Z</time></trkpt><trkpt lat="42.90485920667245" lon="12.721264365952875"><ele>208.0</ele><time>2026-04-19T09:41:12.999Z</time></trkpt><trkpt lat="42.90460663154625" lon="12.721167289208381"><ele>208.0</ele><time>2026-04-19T09:41:13.999Z</time></trkpt><trkpt lat="42.90434980574408" lon="12.721073530418307"><ele>208.0</ele><time>2026-04-19T09:41:14.999Z</time></trkpt><trkpt lat="42.904091420776794" lon="12.720988087539336"><ele>207.5</ele><time>2026-04-19T09:41:15.999Z</time></trkpt><trkpt lat="42.9038278026376" lon="12.720912263411295"><ele>207.0</ele><time>2026-04-19T09:41:16.999Z</time></trkpt><trkpt lat="42.90356248906802" lon="12.720847364543314"><ele>206.5</ele><time>2026-04-19T09:41:17.999Z</time></trkpt><trkpt lat="42.903291769681324" lon="12.720791831660955"><ele>206.0</ele><time>2026-04-19T09:41:18.999Z</time></trkpt><trkpt lat="42.90302480758829" lon="12.720749100439814"><ele>206.0</ele><time>2026-04-19T09:41:19.999Z</time></trkpt><trkpt lat="42.90275463141165" lon="12.72071126565446"><ele>206.0</ele><time>2026-04-19T09:41:20.999Z</time></trkpt><trkpt lat="42.90248179520574" lon="12.720683450256944"><ele>206.5</ele><time>2026-04-19T09:41:21.999Z</time></trkpt><trkpt lat="42.9021996236169" lon="12.720666186152805"><ele>207.0</ele><time>2026-04-19T09:41:22.999Z</time></trkpt><trkpt lat="42.901905554725616" lon="12.720656158924829"><ele>207.5</ele><time>2026-04-19T09:41:23.999Z</time></trkpt><trkpt lat="42.90161071790567" lon="12.720650283967588"><ele>208.0</ele><time>2026-04-19T09:41:24.999Z</time></trkpt><trkpt lat="42.90130860522252" lon="12.720644276235577"><ele>208.0</ele><time>2026-04-19T09:41:25.999Z</time></trkpt><trkpt lat="42.90100252506067" lon="12.720639166569699"><ele>208.0</ele><time>2026-04-19T09:41:26.999Z</time></trkpt><trkpt lat="42.90069106868057" lon="12.720636013423482"><ele>207.5</ele><time>2026-04-19T09:41:27.999Z</time></trkpt><trkpt lat="42.900377278142976" lon="12.720635272960859"><ele>207.0</ele><time>2026-04-19T09:41:28.999Z</time></trkpt><trkpt lat="42.9000731186297" lon="12.720644402915864"><ele>207.0</ele><time>2026-04-19T09:41:29.999Z</time></trkpt><trkpt lat="42.899759787766136" lon="12.72066208395979"><ele>207.0</ele><time>2026-04-19T09:41:30.999Z</time></trkpt><trkpt lat="42.899450885492705" lon="12.720675438482662"><ele>206.5</ele><time>2026-04-19T09:41:31.999Z</time></trkpt><trkpt lat="42.89914791587434" lon="12.720689861329692"><ele>206.0</ele><time>2026-04-19T09:41:32.999Z</time></trkpt><trkpt lat="42.89884975452487" lon="12.720704856562119"><ele>206.0</ele><time>2026-04-19T09:41:33.999Z</time></trkpt><trkpt lat="42.89855576725435" lon="12.720725528799905"><ele>206.0</ele><time>2026-04-19T09:41:34.999Z</time></trkpt><trkpt lat="42.898265814608" lon="12.720749394925503"><ele>204.5</ele><time>2026-04-19T09:41:35.999Z</time></trkpt><trkpt lat="42.89797685684086" lon="12.720784351624058"><ele>203.0</ele><time>2026-04-19T09:41:36.999Z</time></trkpt><trkpt lat="42.89768232267089" lon="12.72082912313452"><ele>205.0</ele><time>2026-04-19T09:41:37.999Z</time></trkpt><trkpt lat="42.89738871220485" lon="12.72087720658351"><ele>207.0</ele><time>2026-04-19T09:41:38.999Z</time></trkpt><trkpt lat="42.89709940719829" lon="12.720933382129337"><ele>207.0</ele><time>2026-04-19T09:41:39.999Z</time></trkpt><trkpt lat="42.896809210888314" lon="12.720992947256978"><ele>207.0</ele><time>2026-04-19T09:41:40.999Z</time></trkpt><trkpt lat="42.89652140236563" lon="12.721049927212917"><ele>206.5</ele><time>2026-04-19T09:41:41.999Z</time></trkpt><trkpt lat="42.8962293884038" lon="12.721115649514658"><ele>206.0</ele><time>2026-04-19T09:41:42.999Z</time></trkpt><trkpt lat="42.89594065482883" lon="12.721182633626016"><ele>206.5</ele><time>2026-04-19T09:41:43.999Z</time></trkpt><trkpt lat="42.89565311290094" lon="12.721255607224618"><ele>207.0</ele><time>2026-04-19T09:41:44.999Z</time></trkpt><trkpt lat="42.89537484286387" lon="12.721331241906299"><ele>207.0</ele><time>2026-04-19T09:41:45.999Z</time></trkpt><trkpt lat="42.89509576923023" lon="12.721402208713743"><ele>207.0</ele><time>2026-04-19T09:41:46.999Z</time></trkpt><trkpt lat="42.894825722738425" lon="12.721483247411483"><ele>207.0</ele><time>2026-04-19T09:41:47.999Z</time></trkpt><trkpt lat="42.89455447035756" lon="12.72157305650938"><ele>207.0</ele><time>2026-04-19T09:41:48.999Z</time></trkpt><trkpt lat="42.894279262375065" lon="12.721668442251767"><ele>206.5</ele><time>2026-04-19T09:41:49.999Z</time></trkpt><trkpt lat="42.89399630687095" lon="12.721771732112948"><ele>206.0</ele><time>2026-04-19T09:41:50.999Z</time></trkpt><trkpt lat="42.8937018658137" lon="12.721883213104775"><ele>207.5</ele><time>2026-04-19T09:41:51.999Z</time></trkpt><trkpt lat="42.893408752142506" lon="12.721996875120299"><ele>209.0</ele><time>2026-04-19T09:41:52.999Z</time></trkpt><trkpt lat="42.893109535825474" lon="12.72210666999838"><ele>209.0</ele><time>2026-04-19T09:41:53.999Z</time></trkpt><trkpt lat="42.89280953543104" lon="12.722218614293926"><ele>209.0</ele><time>2026-04-19T09:41:54.999Z</time></trkpt><trkpt lat="42.89251778724589" lon="12.722344071447043"><ele>207.0</ele><time>2026-04-19T09:41:55.999Z</time></trkpt><trkpt lat="42.89222380784943" lon="12.722476222928362"><ele>205.0</ele><time>2026-04-19T09:41:56.999Z</time></trkpt><trkpt lat="42.89193363235301" lon="12.722599833674037"><ele>205.5</ele><time>2026-04-19T09:41:57.999Z</time></trkpt><trkpt lat="42.891648387360476" lon="12.722728832431956"><ele>206.0</ele><time>2026-04-19T09:41:58.999Z</time></trkpt><trkpt lat="42.891360293147066" lon="12.722859079171645"><ele>206.0</ele><time>2026-04-19T09:41:59.999Z</time></trkpt><trkpt lat="42.89107877780243" lon="12.722981611401867"><ele>206.0</ele><time>2026-04-19T09:42:00.999Z</time></trkpt><trkpt lat="42.890805989571305" lon="12.723124638593768"><ele>205.0</ele><time>2026-04-19T09:42:01.999Z</time></trkpt><trkpt lat="42.89052682610512" lon="12.723266547679428"><ele>204.0</ele><time>2026-04-19T09:42:02.999Z</time></trkpt><trkpt lat="42.890254774984186" lon="12.723417488397653"><ele>205.5</ele><time>2026-04-19T09:42:03.999Z</time></trkpt><trkpt lat="42.8899842100751" lon="12.723564368088354"><ele>207.0</ele><time>2026-04-19T09:42:04.999Z</time></trkpt><trkpt lat="42.889714156766864" lon="12.72371622363043"><ele>207.0</ele><time>2026-04-19T09:42:05.999Z</time></trkpt><trkpt lat="42.889444814890865" lon="12.723870537454726"><ele>207.0</ele><time>2026-04-19T09:42:06.999Z</time></trkpt><trkpt lat="42.889179247908416" lon="12.724023252007102"><ele>206.5</ele><time>2026-04-19T09:42:07.999Z</time></trkpt><trkpt lat="42.88891127543432" lon="12.724177390763586"><ele>206.0</ele><time>2026-04-19T09:42:08.999Z</time></trkpt><trkpt lat="42.88864629616435" lon="12.72433339279988"><ele>206.5</ele><time>2026-04-19T09:42:09.999Z</time></trkpt><trkpt lat="42.88837844330915" lon="12.7244924648613"><ele>207.0</ele><time>2026-04-19T09:42:10.999Z</time></trkpt><trkpt lat="42.88811452310082" lon="12.724656394449017"><ele>207.0</ele><time>2026-04-19T09:42:11.998Z</time></trkpt><trkpt lat="42.887848132511564" lon="12.724818028144472"><ele>207.0</ele><time>2026-04-19T09:42:13Z</time></trkpt><trkpt lat="42.887577016136056" lon="12.724980162569128"><ele>208.0</ele><time>2026-04-19T09:42:14Z</time></trkpt><trkpt lat="42.8873109548621" lon="12.72514032996783"><ele>209.0</ele><time>2026-04-19T09:42:15Z</time></trkpt><trkpt lat="42.887039303063325" lon="12.725294050850255"><ele>209.0</ele><time>2026-04-19T09:42:16Z</time></trkpt><trkpt lat="42.88677090301443" lon="12.725451522936563"><ele>209.0</ele><time>2026-04-19T09:42:17Z</time></trkpt><trkpt lat="42.88650590129905" lon="12.725609301849772"><ele>208.0</ele><time>2026-04-19T09:42:18Z</time></trkpt><trkpt lat="42.88624439360939" lon="12.72576552175969"><ele>207.0</ele><time>2026-04-19T09:42:19Z</time></trkpt><trkpt lat="42.885987535518304" lon="12.725921846897739"><ele>207.0</ele><time>2026-04-19T09:42:20Z</time></trkpt><trkpt lat="42.885731322263695" lon="12.72607891223079"><ele>207.0</ele><time>2026-04-19T09:42:21Z</time></trkpt><trkpt lat="42.88547468415023" lon="12.726232997599245"><ele>207.0</ele><time>2026-04-19T09:42:22Z</time></trkpt><trkpt lat="42.88521896778151" lon="12.726384056631446"><ele>207.0</ele><time>2026-04-19T09:42:23Z</time></trkpt><trkpt lat="42.884962584263235" lon="12.726534123884589"><ele>207.0</ele><time>2026-04-19T09:42:24Z</time></trkpt><trkpt lat="42.88470799549704" lon="12.726695273066913"><ele>207.0</ele><time>2026-04-19T09:42:25Z</time></trkpt><trkpt lat="42.88444934267793" lon="12.726855910748732"><ele>208.0</ele><time>2026-04-19T09:42:26Z</time></trkpt><trkpt lat="42.88418445490202" lon="12.727025795210137"><ele>209.0</ele><time>2026-04-19T09:42:27Z</time></trkpt><trkpt lat="42.88391382655237" lon="12.727195316440639"><ele>209.0</ele><time>2026-04-19T09:42:28Z</time></trkpt><trkpt lat="42.883633487576134" lon="12.727369111984578"><ele>209.0</ele><time>2026-04-19T09:42:29Z</time></trkpt><trkpt lat="42.88334668983792" lon="12.727542560739797"><ele>209.0</ele><time>2026-04-19T09:42:30Z</time></trkpt><trkpt lat="42.88305495036374" lon="12.727715901987926"><ele>209.0</ele><time>2026-04-19T09:42:31Z</time></trkpt><trkpt lat="42.88275901166735" lon="12.727892925570641"><ele>209.5</ele><time>2026-04-19T09:42:32Z</time></trkpt><trkpt lat="42.882462761202405" lon="12.728067454635964"><ele>210.0</ele><time>2026-04-19T09:42:33Z</time></trkpt><trkpt lat="42.882163184509864" lon="12.728244283735554"><ele>210.0</ele><time>2026-04-19T09:42:34Z</time></trkpt><trkpt lat="42.88185847460087" lon="12.72842062494356"><ele>210.0</ele><time>2026-04-19T09:42:35Z</time></trkpt><trkpt lat="42.88155770260535" lon="12.728604261180957"><ele>209.5</ele><time>2026-04-19T09:42:36Z</time></trkpt><trkpt lat="42.881256614421886" lon="12.728788512925686"><ele>209.0</ele><time>2026-04-19T09:42:37Z</time></trkpt><trkpt lat="42.880955329492494" lon="12.728970555124342"><ele>208.0</ele><time>2026-04-19T09:42:38Z</time></trkpt><trkpt lat="42.88065522888919" lon="12.729145270611646"><ele>207.0</ele><time>2026-04-19T09:42:39Z</time></trkpt><trkpt lat="42.880358973022325" lon="12.729316654779732"><ele>207.5</ele><time>2026-04-19T09:42:40Z</time></trkpt><trkpt lat="42.88006436702643" lon="12.729478605939503"><ele>208.0</ele><time>2026-04-19T09:42:41Z</time></trkpt><trkpt lat="42.87977531725316" lon="12.729638849760757"><ele>208.0</ele><time>2026-04-19T09:42:42Z</time></trkpt><trkpt lat="42.87949483433943" lon="12.729792483710156"><ele>208.0</ele><time>2026-04-19T09:42:43Z</time></trkpt><trkpt lat="42.879219750711826" lon="12.729934857867121"><ele>208.0</ele><time>2026-04-19T09:42:44Z</time></trkpt><trkpt lat="42.878944623554204" lon="12.730065691353596"><ele>208.0</ele><time>2026-04-19T09:42:45Z</time></trkpt><trkpt lat="42.8786702023768" lon="12.730180965296386"><ele>208.0</ele><time>2026-04-19T09:42:46Z</time></trkpt><trkpt lat="42.87839966146848" lon="12.730275925384174"><ele>208.0</ele><time>2026-04-19T09:42:47Z</time></trkpt><trkpt lat="42.878128331999456" lon="12.730343800996332"><ele>208.0</ele><time>2026-04-19T09:42:48Z</time></trkpt><trkpt lat="42.87785953040094" lon="12.730397753667521"><ele>208.0</ele><time>2026-04-19T09:42:49Z</time></trkpt><trkpt lat="42.87758901031025" lon="12.73043490827536"><ele>208.0</ele><time>2026-04-19T09:42:50Z</time></trkpt><trkpt lat="42.877319682921566" lon="12.730459256714102"><ele>208.0</ele><time>2026-04-19T09:42:51Z</time></trkpt><trkpt lat="42.87705357508679" lon="12.730470005120555"><ele>208.0</ele><time>2026-04-19T09:42:52Z</time></trkpt><trkpt lat="42.87678582044174" lon="12.730468463779257"><ele>208.0</ele><time>2026-04-19T09:42:53Z</time></trkpt><trkpt lat="42.8765222405014" lon="12.730448633329612"><ele>208.0</ele><time>2026-04-19T09:42:54Z</time></trkpt><trkpt lat="42.876253360606455" lon="12.730412256153295"><ele>208.0</ele><time>2026-04-19T09:42:55Z</time></trkpt><trkpt lat="42.87598842383056" lon="12.730357774840943"><ele>208.5</ele><time>2026-04-19T09:42:56Z</time></trkpt><trkpt lat="42.87572363701753" lon="12.730283657480507"><ele>209.0</ele><time>2026-04-19T09:42:57Z</time></trkpt><trkpt lat="42.87546385056588" lon="12.73019136143563"><ele>209.5</ele><time>2026-04-19T09:42:57.999Z</time></trkpt><trkpt lat="42.875204185472484" lon="12.730085656184357"><ele>210.0</ele><time>2026-04-19T09:42:58.999Z</time></trkpt><trkpt lat="42.87494828938348" lon="12.729972973058565"><ele>210.0</ele><time>2026-04-19T09:42:59.999Z</time></trkpt><trkpt lat="42.874688586207064" lon="12.729856411600906"><ele>210.0</ele><time>2026-04-19T09:43:00.999Z</time></trkpt><trkpt lat="42.87442400664921" lon="12.729734929908272"><ele>211.0</ele><time>2026-04-19T09:43:01.999Z</time></trkpt><trkpt lat="42.874161465467274" lon="12.72961018055416"><ele>212.0</ele><time>2026-04-19T09:43:02.999Z</time></trkpt><trkpt lat="42.87390267726303" lon="12.72949748041288"><ele>212.0</ele><time>2026-04-19T09:43:03.999Z</time></trkpt><trkpt lat="42.87364156293938" lon="12.72940197632025"><ele>212.0</ele><time>2026-04-19T09:43:04.999Z</time></trkpt><trkpt lat="42.87337542714876" lon="12.729309861336969"><ele>212.0</ele><time>2026-04-19T09:43:05.999Z</time></trkpt><trkpt lat="42.873104024783764" lon="12.729219679892532"><ele>212.0</ele><time>2026-04-19T09:43:06.999Z</time></trkpt><trkpt lat="42.8728275254223" lon="12.729136475101255"><ele>212.0</ele><time>2026-04-19T09:43:07.999Z</time></trkpt><trkpt lat="42.87255076766509" lon="12.729075418172705"><ele>212.0</ele><time>2026-04-19T09:43:08.999Z</time></trkpt><trkpt lat="42.872268972047216" lon="12.729039564757434"><ele>212.0</ele><time>2026-04-19T09:43:09.999Z</time></trkpt><trkpt lat="42.871985648503504" lon="12.729025199469836"><ele>212.0</ele><time>2026-04-19T09:43:10.999Z</time></trkpt><trkpt lat="42.871702628810496" lon="12.72902683578872"><ele>211.5</ele><time>2026-04-19T09:43:11.999Z</time></trkpt><trkpt lat="42.871417074498225" lon="12.729040174237474"><ele>211.0</ele><time>2026-04-19T09:43:12.999Z</time></trkpt><trkpt lat="42.87112843715597" lon="12.729068279096545"><ele>212.0</ele><time>2026-04-19T09:43:13.999Z</time></trkpt><trkpt lat="42.870848324190185" lon="12.7291205552406"><ele>213.0</ele><time>2026-04-19T09:43:14.999Z</time></trkpt><trkpt lat="42.87056635456952" lon="12.729186535274836"><ele>213.0</ele><time>2026-04-19T09:43:15.999Z</time></trkpt><trkpt lat="42.870288197459125" lon="12.72926746376964"><ele>213.0</ele><time>2026-04-19T09:43:16.999Z</time></trkpt><trkpt lat="42.87001451655444" lon="12.729365007979293"><ele>211.5</ele><time>2026-04-19T09:43:17.999Z</time></trkpt><trkpt lat="42.86974505016048" lon="12.729475236156617"><ele>210.0</ele><time>2026-04-19T09:43:18.999Z</time></trkpt><trkpt lat="42.869483917598735" lon="12.729606755857771"><ele>211.0</ele><time>2026-04-19T09:43:19.999Z</time></trkpt><trkpt lat="42.86923131377676" lon="12.72976077121749"><ele>212.0</ele><time>2026-04-19T09:43:20.999Z</time></trkpt><trkpt lat="42.86897928686592" lon="12.72992592318537"><ele>212.0</ele><time>2026-04-19T09:43:21.999Z</time></trkpt><trkpt lat="42.868732274600376" lon="12.7301035455208"><ele>212.0</ele><time>2026-04-19T09:43:22.999Z</time></trkpt><trkpt lat="42.86849090216253" lon="12.730294182227578"><ele>212.5</ele><time>2026-04-19T09:43:23.999Z</time></trkpt><trkpt lat="42.86825193805378" lon="12.730487761109947"><ele>213.0</ele><time>2026-04-19T09:43:24.999Z</time></trkpt><trkpt lat="42.86800809321688" lon="12.73068905664808"><ele>213.0</ele><time>2026-04-19T09:43:25.999Z</time></trkpt><trkpt lat="42.86776303906365" lon="12.730897747534518"><ele>213.0</ele><time>2026-04-19T09:43:26.999Z</time></trkpt><trkpt lat="42.8675117047963" lon="12.731114039314637"><ele>212.5</ele><time>2026-04-19T09:43:27.999Z</time></trkpt><trkpt lat="42.86725337044308" lon="12.731331932352903"><ele>212.0</ele><time>2026-04-19T09:43:28.999Z</time></trkpt><trkpt lat="42.86698853841267" lon="12.731547657472591"><ele>212.0</ele><time>2026-04-19T09:43:29.999Z</time></trkpt><trkpt lat="42.866728957758795" lon="12.73175492697644"><ele>212.0</ele><time>2026-04-19T09:43:30.999Z</time></trkpt><trkpt lat="42.866468582621486" lon="12.731961823899617"><ele>212.0</ele><time>2026-04-19T09:43:31.999Z</time></trkpt><trkpt lat="42.86621615245065" lon="12.732173266235401"><ele>212.0</ele><time>2026-04-19T09:43:32.999Z</time></trkpt><trkpt lat="42.86596701736182" lon="12.732390884954775"><ele>213.0</ele><time>2026-04-19T09:43:33.999Z</time></trkpt><trkpt lat="42.86572678237908" lon="12.732620410654896"><ele>214.0</ele><time>2026-04-19T09:43:34.999Z</time></trkpt><trkpt lat="42.86549541066366" lon="12.732868370290522"><ele>214.0</ele><time>2026-04-19T09:43:35.999Z</time></trkpt><trkpt lat="42.86527039386901" lon="12.733129893933873"><ele>214.0</ele><time>2026-04-19T09:43:36.999Z</time></trkpt><trkpt lat="42.86505013709297" lon="12.733398805533197"><ele>213.5</ele><time>2026-04-19T09:43:37.999Z</time></trkpt><trkpt lat="42.86483336001518" lon="12.73367367127726"><ele>213.0</ele><time>2026-04-19T09:43:38.999Z</time></trkpt><trkpt lat="42.86461579854865" lon="12.733948208932523"><ele>213.0</ele><time>2026-04-19T09:43:39.999Z</time></trkpt><trkpt lat="42.86439758010282" lon="12.734218487169903"><ele>213.0</ele><time>2026-04-19T09:43:40.999Z</time></trkpt><trkpt lat="42.86417879665415" lon="12.734481277008795"><ele>213.0</ele><time>2026-04-19T09:43:41.999Z</time></trkpt><trkpt lat="42.863959201250545" lon="12.734738911201013"><ele>213.0</ele><time>2026-04-19T09:43:42.999Z</time></trkpt><trkpt lat="42.86373667070594" lon="12.73499134604337"><ele>212.5</ele><time>2026-04-19T09:43:43.999Z</time></trkpt><trkpt lat="42.863514510362066" lon="12.735240093919263"><ele>212.0</ele><time>2026-04-19T09:43:44.999Z</time></trkpt><trkpt lat="42.86328705144755" lon="12.735480368628497"><ele>212.0</ele><time>2026-04-19T09:43:45.999Z</time></trkpt><trkpt lat="42.86304952494568" lon="12.735717569033438"><ele>212.0</ele><time>2026-04-19T09:43:46.999Z</time></trkpt><trkpt lat="42.86280543984624" lon="12.735951977977646"><ele>214.0</ele><time>2026-04-19T09:43:47.999Z</time></trkpt><trkpt lat="42.8625522360913" lon="12.73617909536314"><ele>216.0</ele><time>2026-04-19T09:43:48.999Z</time></trkpt><trkpt lat="42.862293977939046" lon="12.736394434994626"><ele>216.0</ele><time>2026-04-19T09:43:49.999Z</time></trkpt><trkpt lat="42.862025791979285" lon="12.736602864484198"><ele>216.0</ele><time>2026-04-19T09:43:50.999Z</time></trkpt><trkpt lat="42.86174805325138" lon="12.736807974512264"><ele>215.5</ele><time>2026-04-19T09:43:51.999Z</time></trkpt><trkpt lat="42.861459814514006" lon="12.73700942198924"><ele>215.0</ele><time>2026-04-19T09:43:52.999Z</time></trkpt><trkpt lat="42.8611670126163" lon="12.737209184692079"><ele>215.0</ele><time>2026-04-19T09:43:53.999Z</time></trkpt><trkpt lat="42.86087166284322" lon="12.737405752532032"><ele>215.0</ele><time>2026-04-19T09:43:54.999Z</time></trkpt><trkpt lat="42.86057714816959" lon="12.73759908384477"><ele>215.0</ele><time>2026-04-19T09:43:55.999Z</time></trkpt><trkpt lat="42.86028367269516" lon="12.737786516919716"><ele>215.0</ele><time>2026-04-19T09:43:56.999Z</time></trkpt><trkpt lat="42.85999412143842" lon="12.737970817661035"><ele>215.0</ele><time>2026-04-19T09:43:57.999Z</time></trkpt><trkpt lat="42.8597075027338" lon="12.738154191071935"><ele>215.0</ele><time>2026-04-19T09:43:58.999Z</time></trkpt><trkpt lat="42.85942425772277" lon="12.738335694998378"><ele>215.0</ele><time>2026-04-19T09:43:59.999Z</time></trkpt><trkpt lat="42.859143075925644" lon="12.738510226096187"><ele>215.0</ele><time>2026-04-19T09:44:00.999Z</time></trkpt><trkpt lat="42.85886523890704" lon="12.738678107731586"><ele>215.5</ele><time>2026-04-19T09:44:01.999Z</time></trkpt><trkpt lat="42.858596970894176" lon="12.73884360856045"><ele>216.0</ele><time>2026-04-19T09:44:02.999Z</time></trkpt><trkpt lat="42.858338267075034" lon="12.739013510589473"><ele>216.0</ele><time>2026-04-19T09:44:03.999Z</time></trkpt><trkpt lat="42.85808862018918" lon="12.739182753261517"><ele>216.0</ele><time>2026-04-19T09:44:04.999Z</time></trkpt><trkpt lat="42.8578394963989" lon="12.739349247879712"><ele>216.0</ele><time>2026-04-19T09:44:05.999Z</time></trkpt><trkpt lat="42.857587528316365" lon="12.739518344457089"><ele>216.0</ele><time>2026-04-19T09:44:06.999Z</time></trkpt><trkpt lat="42.857338093883605" lon="12.739701916251821"><ele>216.0</ele><time>2026-04-19T09:44:07.999Z</time></trkpt><trkpt lat="42.85709069363515" lon="12.739887434620012"><ele>216.0</ele><time>2026-04-19T09:44:08.999Z</time></trkpt><trkpt lat="42.856842634151526" lon="12.740080235891526"><ele>215.5</ele><time>2026-04-19T09:44:09.999Z</time></trkpt><trkpt lat="42.85659501512226" lon="12.740273452691454"><ele>215.0</ele><time>2026-04-19T09:44:10.999Z</time></trkpt><trkpt lat="42.856349096390545" lon="12.740470012374693"><ele>215.0</ele><time>2026-04-19T09:44:11.999Z</time></trkpt><trkpt lat="42.856103250533394" lon="12.74067279738073"><ele>215.0</ele><time>2026-04-19T09:44:12.999Z</time></trkpt><trkpt lat="42.855858306232136" lon="12.740881927670769"><ele>216.5</ele><time>2026-04-19T09:44:13.999Z</time></trkpt><trkpt lat="42.85561486858102" lon="12.741091050979803"><ele>218.0</ele><time>2026-04-19T09:44:14.999Z</time></trkpt><trkpt lat="42.85537356864459" lon="12.741304229955492"><ele>218.0</ele><time>2026-04-19T09:44:15.999Z</time></trkpt><trkpt lat="42.85513512064972" lon="12.741516992161516"><ele>218.0</ele><time>2026-04-19T09:44:16.998Z</time></trkpt><trkpt lat="42.85489969901254" lon="12.741734024009174"><ele>217.5</ele><time>2026-04-19T09:44:18Z</time></trkpt><trkpt lat="42.85466367601278" lon="12.741955047510135"><ele>217.0</ele><time>2026-04-19T09:44:19Z</time></trkpt><trkpt lat="42.8544297595218" lon="12.742174970820153"><ele>217.0</ele><time>2026-04-19T09:44:20Z</time></trkpt><trkpt lat="42.85419593938042" lon="12.742399814739445"><ele>217.0</ele><time>2026-04-19T09:44:21Z</time></trkpt><trkpt lat="42.853964188436166" lon="12.742627336944224"><ele>217.0</ele><time>2026-04-19T09:44:22Z</time></trkpt><trkpt lat="42.85373362019077" lon="12.742862504902936"><ele>217.0</ele><time>2026-04-19T09:44:23Z</time></trkpt><trkpt lat="42.853508544191484" lon="12.74310600613888"><ele>216.5</ele><time>2026-04-19T09:44:24Z</time></trkpt><trkpt lat="42.85328497590901" lon="12.743351928301653"><ele>216.0</ele><time>2026-04-19T09:44:25Z</time></trkpt><trkpt lat="42.85306589279995" lon="12.743598239323061"><ele>217.0</ele><time>2026-04-19T09:44:26Z</time></trkpt><trkpt lat="42.85284889514302" lon="12.743837299523424"><ele>218.0</ele><time>2026-04-19T09:44:27Z</time></trkpt><trkpt lat="42.852626199132615" lon="12.744081868625274"><ele>217.0</ele><time>2026-04-19T09:44:28Z</time></trkpt><trkpt lat="42.85242172919941" lon="12.744308399531812"><ele>216.0</ele><time>2026-04-19T09:44:29Z</time></trkpt><trkpt lat="42.852207547085065" lon="12.744546142743182"><ele>216.0</ele><time>2026-04-19T09:44:30Z</time></trkpt><trkpt lat="42.85199955420393" lon="12.744775630918486"><ele>216.0</ele><time>2026-04-19T09:44:31Z</time></trkpt><trkpt lat="42.851792634744704" lon="12.74499882141435"><ele>216.0</ele><time>2026-04-19T09:44:32Z</time></trkpt><trkpt lat="42.85158375772809" lon="12.745225745760346"><ele>216.0</ele><time>2026-04-19T09:44:33Z</time></trkpt><trkpt lat="42.85136999176091" lon="12.745450716065253"><ele>216.0</ele><time>2026-04-19T09:44:34Z</time></trkpt><trkpt lat="42.851159285652095" lon="12.745673778698595"><ele>216.0</ele><time>2026-04-19T09:44:35Z</time></trkpt><trkpt lat="42.850939558616396" lon="12.745900584339301"><ele>216.5</ele><time>2026-04-19T09:44:36Z</time></trkpt><trkpt lat="42.85071810851283" lon="12.746113850587804"><ele>217.0</ele><time>2026-04-19T09:44:37Z</time></trkpt><trkpt lat="42.85048575316331" lon="12.746312077407788"><ele>217.0</ele><time>2026-04-19T09:44:38Z</time></trkpt><trkpt lat="42.85023183576568" lon="12.746499228169883"><ele>217.0</ele><time>2026-04-19T09:44:39Z</time></trkpt><trkpt lat="42.84998307100279" lon="12.746698803978669"><ele>216.5</ele><time>2026-04-19T09:44:40Z</time></trkpt><trkpt lat="42.849720454505835" lon="12.746892884802026"><ele>216.0</ele><time>2026-04-19T09:44:41Z</time></trkpt><trkpt lat="42.84944680643641" lon="12.747076620794143"><ele>215.5</ele><time>2026-04-19T09:44:42Z</time></trkpt><trkpt lat="42.84916632247495" lon="12.747261193281057"><ele>215.0</ele><time>2026-04-19T09:44:43Z</time></trkpt><trkpt lat="42.84888662555068" lon="12.747439168561504"><ele>215.0</ele><time>2026-04-19T09:44:44Z</time></trkpt><trkpt lat="42.848607302218866" lon="12.747632407780413"><ele>215.0</ele><time>2026-04-19T09:44:45Z</time></trkpt><trkpt lat="42.848330610381254" lon="12.74782973317947"><ele>215.5</ele><time>2026-04-19T09:44:46Z</time></trkpt><trkpt lat="42.84805199587117" lon="12.748032717138969"><ele>216.0</ele><time>2026-04-19T09:44:47Z</time></trkpt><trkpt lat="42.847782708825186" lon="12.748258503674736"><ele>216.0</ele><time>2026-04-19T09:44:48Z</time></trkpt><trkpt lat="42.84752010092846" lon="12.748498772402481"><ele>216.0</ele><time>2026-04-19T09:44:49Z</time></trkpt><trkpt lat="42.84726916494357" lon="12.74875696554338"><ele>216.0</ele><time>2026-04-19T09:44:50Z</time></trkpt><trkpt lat="42.84701670334042" lon="12.749018301946435"><ele>216.0</ele><time>2026-04-19T09:44:51Z</time></trkpt><trkpt lat="42.84676034475964" lon="12.749265425952267"><ele>215.5</ele><time>2026-04-19T09:44:52Z</time></trkpt><trkpt lat="42.84650328437632" lon="12.749511642505553"><ele>215.0</ele><time>2026-04-19T09:44:53Z</time></trkpt><trkpt lat="42.84624637288471" lon="12.749758160019521"><ele>215.0</ele><time>2026-04-19T09:44:54Z</time></trkpt><trkpt lat="42.84599027789318" lon="12.750003749955713"><ele>215.0</ele><time>2026-04-19T09:44:55Z</time></trkpt><trkpt lat="42.845731942492634" lon="12.750243582506661"><ele>215.5</ele><time>2026-04-19T09:44:56Z</time></trkpt><trkpt lat="42.84547315132842" lon="12.750475827295956"><ele>216.0</ele><time>2026-04-19T09:44:57Z</time></trkpt><trkpt lat="42.84521841066044" lon="12.7507090749353"><ele>216.5</ele><time>2026-04-19T09:44:58Z</time></trkpt><trkpt lat="42.844973248178164" lon="12.750950041249816"><ele>217.0</ele><time>2026-04-19T09:44:59Z</time></trkpt><trkpt lat="42.84472874322474" lon="12.751179081704262"><ele>217.0</ele><time>2026-04-19T09:45:00Z</time></trkpt><trkpt lat="42.84448306670587" lon="12.751408236620115"><ele>217.0</ele><time>2026-04-19T09:45:01Z</time></trkpt><trkpt lat="42.844233275647724" lon="12.75162844273965"><ele>217.0</ele><time>2026-04-19T09:45:02Z</time></trkpt><trkpt lat="42.84397904555717" lon="12.751838677710403"><ele>217.0</ele><time>2026-04-19T09:45:03Z</time></trkpt><trkpt lat="42.8437272892907" lon="12.752039782953128"><ele>217.0</ele><time>2026-04-19T09:45:04Z</time></trkpt><trkpt lat="42.84346997446787" lon="12.75223928134693"><ele>217.0</ele><time>2026-04-19T09:45:04.999Z</time></trkpt><trkpt lat="42.84320300241764" lon="12.752429142861663"><ele>217.0</ele><time>2026-04-19T09:45:05.999Z</time></trkpt><trkpt lat="42.84293214310141" lon="12.752615594794024"><ele>217.0</ele><time>2026-04-19T09:45:06.999Z</time></trkpt><trkpt lat="42.84265959583244" lon="12.752793713700024"><ele>217.0</ele><time>2026-04-19T09:45:07.999Z</time></trkpt><trkpt lat="42.84237722276031" lon="12.75296260948256"><ele>217.0</ele><time>2026-04-19T09:45:08.999Z</time></trkpt><trkpt lat="42.842089727417296" lon="12.753123381528136"><ele>217.0</ele><time>2026-04-19T09:45:09.999Z</time></trkpt><trkpt lat="42.84179617750519" lon="12.753276841661709"><ele>217.0</ele><time>2026-04-19T09:45:10.999Z</time></trkpt><trkpt lat="42.84149916416188" lon="12.75342117060967"><ele>217.0</ele><time>2026-04-19T09:45:11.999Z</time></trkpt><trkpt lat="42.84119999662163" lon="12.753559426334071"><ele>217.0</ele><time>2026-04-19T09:45:12.999Z</time></trkpt><trkpt lat="42.84089749383134" lon="12.75369383258623"><ele>217.5</ele><time>2026-04-19T09:45:13.999Z</time></trkpt><trkpt lat="42.840594813886064" lon="12.753829010431039"><ele>218.0</ele><time>2026-04-19T09:45:14.999Z</time></trkpt><trkpt lat="42.84028843363901" lon="12.753963708932483"><ele>218.5</ele><time>2026-04-19T09:45:15.999Z</time></trkpt><trkpt lat="42.83998483660287" lon="12.754095501876522"><ele>219.0</ele><time>2026-04-19T09:45:16.999Z</time></trkpt><trkpt lat="42.839685465765015" lon="12.754230133800604"><ele>219.0</ele><time>2026-04-19T09:45:17.999Z</time></trkpt><trkpt lat="42.83938612340024" lon="12.75436956195282"><ele>219.0</ele><time>2026-04-19T09:45:18.999Z</time></trkpt><trkpt lat="42.83909205607784" lon="12.754507376580753"><ele>219.0</ele><time>2026-04-19T09:45:19.999Z</time></trkpt><trkpt lat="42.838800136350514" lon="12.754645480796707"><ele>219.0</ele><time>2026-04-19T09:45:20.999Z</time></trkpt><trkpt lat="42.83851075039699" lon="12.754792019503634"><ele>218.0</ele><time>2026-04-19T09:45:21.999Z</time></trkpt><trkpt lat="42.8382244270926" lon="12.75494202284315"><ele>217.0</ele><time>2026-04-19T09:45:22.999Z</time></trkpt><trkpt lat="42.83793682612516" lon="12.755096887951046"><ele>217.5</ele><time>2026-04-19T09:45:23.999Z</time></trkpt><trkpt lat="42.8376539506115" lon="12.755254884288368"><ele>218.0</ele><time>2026-04-19T09:45:24.999Z</time></trkpt><trkpt lat="42.83737522898084" lon="12.755421196821718"><ele>218.5</ele><time>2026-04-19T09:45:25.999Z</time></trkpt><trkpt lat="42.837099272579465" lon="12.755594554482332"><ele>219.0</ele><time>2026-04-19T09:45:26.999Z</time></trkpt><trkpt lat="42.83682196371334" lon="12.755778318241614"><ele>219.0</ele><time>2026-04-19T09:45:27.999Z</time></trkpt><trkpt lat="42.83654422084085" lon="12.755965244923223"><ele>219.0</ele><time>2026-04-19T09:45:28.999Z</time></trkpt><trkpt lat="42.836266238403304" lon="12.756159508308507"><ele>219.0</ele><time>2026-04-19T09:45:29.999Z</time></trkpt><trkpt lat="42.835985976268866" lon="12.756359865024278"><ele>219.0</ele><time>2026-04-19T09:45:30.999Z</time></trkpt><trkpt lat="42.83570772274982" lon="12.756561473108418"><ele>219.0</ele><time>2026-04-19T09:45:31.999Z</time></trkpt><trkpt lat="42.83542414270841" lon="12.756758171682133"><ele>219.0</ele><time>2026-04-19T09:45:32.999Z</time></trkpt><trkpt lat="42.83514323072096" lon="12.756952111270254"><ele>219.5</ele><time>2026-04-19T09:45:33.999Z</time></trkpt><trkpt lat="42.834858332686785" lon="12.75714822010127"><ele>220.0</ele><time>2026-04-19T09:45:34.999Z</time></trkpt><trkpt lat="42.83457343299956" lon="12.757344990542354"><ele>220.0</ele><time>2026-04-19T09:45:35.999Z</time></trkpt><trkpt lat="42.834288323939674" lon="12.757542124568767"><ele>220.0</ele><time>2026-04-19T09:45:36.999Z</time></trkpt><trkpt lat="42.834005381243514" lon="12.75774256014362"><ele>220.0</ele><time>2026-04-19T09:45:37.999Z</time></trkpt><trkpt lat="42.83372127863318" lon="12.757941117397124"><ele>220.0</ele><time>2026-04-19T09:45:38.999Z</time></trkpt><trkpt lat="42.83343714048718" lon="12.758142595282923"><ele>220.0</ele><time>2026-04-19T09:45:39.999Z</time></trkpt><trkpt lat="42.83315243030479" lon="12.758343076777054"><ele>220.0</ele><time>2026-04-19T09:45:40.999Z</time></trkpt><trkpt lat="42.83286949489317" lon="12.758540482930076"><ele>219.5</ele><time>2026-04-19T09:45:41.999Z</time></trkpt><trkpt lat="42.83258170100758" lon="12.758737842308497"><ele>219.0</ele><time>2026-04-19T09:45:42.999Z</time></trkpt><trkpt lat="42.83230161100847" lon="12.75893189404025"><ele>219.0</ele><time>2026-04-19T09:45:43.999Z</time></trkpt><trkpt lat="42.83201833978865" lon="12.759120833150973"><ele>219.0</ele><time>2026-04-19T09:45:44.999Z</time></trkpt><trkpt lat="42.831735755654464" lon="12.759300906025373"><ele>220.0</ele><time>2026-04-19T09:45:45.999Z</time></trkpt><trkpt lat="42.83144949588646" lon="12.759473257267292"><ele>221.0</ele><time>2026-04-19T09:45:46.999Z</time></trkpt><trkpt lat="42.831162413134784" lon="12.759634072727017"><ele>221.0</ele><time>2026-04-19T09:45:47.999Z</time></trkpt><trkpt lat="42.830872196616234" lon="12.759778820519987"><ele>221.0</ele><time>2026-04-19T09:45:48.999Z</time></trkpt><trkpt lat="42.8305832912228" lon="12.759911350028638"><ele>221.0</ele><time>2026-04-19T09:45:49.999Z</time></trkpt><trkpt lat="42.83029032720706" lon="12.76002080415595"><ele>221.0</ele><time>2026-04-19T09:45:50.999Z</time></trkpt><trkpt lat="42.82999808426994" lon="12.760111730463644"><ele>221.0</ele><time>2026-04-19T09:45:51.999Z</time></trkpt><trkpt lat="42.829708186805924" lon="12.760190818087906"><ele>221.0</ele><time>2026-04-19T09:45:52.999Z</time></trkpt><trkpt lat="42.82942316996525" lon="12.760263302146617"><ele>221.5</ele><time>2026-04-19T09:45:53.999Z</time></trkpt><trkpt lat="42.829138287565705" lon="12.760323160158821"><ele>222.0</ele><time>2026-04-19T09:45:54.999Z</time></trkpt><trkpt lat="42.828851546001054" lon="12.760368443035114"><ele>222.0</ele><time>2026-04-19T09:45:55.999Z</time></trkpt><trkpt lat="42.82856405412279" lon="12.760398875515527"><ele>222.0</ele><time>2026-04-19T09:45:56.999Z</time></trkpt><trkpt lat="42.82828158742654" lon="12.76041269169414"><ele>222.0</ele><time>2026-04-19T09:45:57.999Z</time></trkpt><trkpt lat="42.82798773545446" lon="12.760414860865858"><ele>222.0</ele><time>2026-04-19T09:45:58.999Z</time></trkpt><trkpt lat="42.827705777538185" lon="12.760416795461342"><ele>223.0</ele><time>2026-04-19T09:45:59.999Z</time></trkpt><trkpt lat="42.8274147462941" lon="12.760407184305263"><ele>224.0</ele><time>2026-04-19T09:46:00.999Z</time></trkpt><trkpt lat="42.82712358461751" lon="12.760387287491413"><ele>224.0</ele><time>2026-04-19T09:46:01.999Z</time></trkpt><trkpt lat="42.82684810545735" lon="12.760358222755237"><ele>224.0</ele><time>2026-04-19T09:46:02.999Z</time></trkpt><trkpt lat="42.826572429792115" lon="12.760342193844558"><ele>224.5</ele><time>2026-04-19T09:46:03.999Z</time></trkpt><trkpt lat="42.82624692403202" lon="12.760296593948311"><ele>225.0</ele><time>2026-04-19T09:46:04.999Z</time></trkpt><trkpt lat="42.82595303056596" lon="12.760266212484805"><ele>224.5</ele><time>2026-04-19T09:46:05.999Z</time></trkpt><trkpt lat="42.82565149953423" lon="12.760223507861696"><ele>224.0</ele><time>2026-04-19T09:46:06.999Z</time></trkpt><trkpt lat="42.82537118919046" lon="12.760142604076542"><ele>223.5</ele><time>2026-04-19T09:46:07.999Z</time></trkpt><trkpt lat="42.82510493956426" lon="12.760090893413436"><ele>223.0</ele><time>2026-04-19T09:46:08.999Z</time></trkpt><trkpt lat="42.824813897175204" lon="12.759992724326507"><ele>223.0</ele><time>2026-04-19T09:46:09.999Z</time></trkpt><trkpt lat="42.824518664604696" lon="12.759882134428235"><ele>223.0</ele><time>2026-04-19T09:46:10.999Z</time></trkpt><trkpt lat="42.82424222503884" lon="12.759788025496487"><ele>222.0</ele><time>2026-04-19T09:46:11.999Z</time></trkpt><trkpt lat="42.8239557028811" lon="12.759667761521673"><ele>221.0</ele><time>2026-04-19T09:46:12.999Z</time></trkpt><trkpt lat="42.82367118377827" lon="12.759545442976018"><ele>222.0</ele><time>2026-04-19T09:46:13.999Z</time></trkpt><trkpt lat="42.8233814324327" lon="12.759415430104973"><ele>223.0</ele><time>2026-04-19T09:46:14.999Z</time></trkpt><trkpt lat="42.823098268438684" lon="12.759270415034205"><ele>223.5</ele><time>2026-04-19T09:46:15.999Z</time></trkpt><trkpt lat="42.82281205043942" lon="12.759120047592964"><ele>224.0</ele><time>2026-04-19T09:46:16.999Z</time></trkpt><trkpt lat="42.822539662408985" lon="12.758962636430361"><ele>224.0</ele><time>2026-04-19T09:46:17.999Z</time></trkpt><trkpt lat="42.82226165621365" lon="12.758821855727389"><ele>224.0</ele><time>2026-04-19T09:46:18.999Z</time></trkpt><trkpt lat="42.82199272802137" lon="12.758678096052282"><ele>224.5</ele><time>2026-04-19T09:46:19.999Z</time></trkpt><trkpt lat="42.8217292340541" lon="12.758545066652529"><ele>225.0</ele><time>2026-04-19T09:46:20.999Z</time></trkpt><trkpt lat="42.82146954514925" lon="12.758422506795762"><ele>225.0</ele><time>2026-04-19T09:46:21.999Z</time></trkpt><trkpt lat="42.82121264223183" lon="12.758303517817096"><ele>225.0</ele><time>2026-04-19T09:46:23Z</time></trkpt><trkpt lat="42.820944429635894" lon="12.758190928401294"><ele>225.5</ele><time>2026-04-19T09:46:24Z</time></trkpt><trkpt lat="42.820674943737075" lon="12.758079563359155"><ele>226.0</ele><time>2026-04-19T09:46:25Z</time></trkpt><trkpt lat="42.82039802364849" lon="12.75798183034561"><ele>226.0</ele><time>2026-04-19T09:46:26Z</time></trkpt><trkpt lat="42.82011796348461" lon="12.757893691269855"><ele>226.0</ele><time>2026-04-19T09:46:27Z</time></trkpt><trkpt lat="42.819834064125835" lon="12.757821645753364"><ele>226.0</ele><time>2026-04-19T09:46:27.999Z</time></trkpt><trkpt lat="42.81954421790091" lon="12.757760263263327"><ele>226.0</ele><time>2026-04-19T09:46:29Z</time></trkpt><trkpt lat="42.81925586196247" lon="12.757704477183854"><ele>227.0</ele><time>2026-04-19T09:46:30Z</time></trkpt><trkpt lat="42.81896404806311" lon="12.757655989884537"><ele>228.0</ele><time>2026-04-19T09:46:31Z</time></trkpt><trkpt lat="42.81866913038421" lon="12.757614227422112"><ele>228.0</ele><time>2026-04-19T09:46:31.999Z</time></trkpt><trkpt lat="42.81837648651248" lon="12.757580997137431"><ele>228.0</ele><time>2026-04-19T09:46:32.999Z</time></trkpt><trkpt lat="42.81807856678859" lon="12.757554528898286"><ele>228.0</ele><time>2026-04-19T09:46:33.999Z</time></trkpt><trkpt lat="42.817778967224655" lon="12.757532203409554"><ele>228.0</ele><time>2026-04-19T09:46:34.999Z</time></trkpt><trkpt lat="42.81748040072823" lon="12.757511123729858"><ele>228.0</ele><time>2026-04-19T09:46:35.999Z</time></trkpt><trkpt lat="42.81718163411746" lon="12.757491039716998"><ele>228.0</ele><time>2026-04-19T09:46:36.999Z</time></trkpt><trkpt lat="42.81688183536885" lon="12.75747032477473"><ele>228.5</ele><time>2026-04-19T09:46:38Z</time></trkpt><trkpt lat="42.81658082950328" lon="12.757452850816323"><ele>229.0</ele><time>2026-04-19T09:46:39Z</time></trkpt><trkpt lat="42.81628384451635" lon="12.757440143307203"><ele>229.0</ele><time>2026-04-19T09:46:40Z</time></trkpt><trkpt lat="42.81598859567102" lon="12.757433607370764"><ele>229.0</ele><time>2026-04-19T09:46:41Z</time></trkpt><trkpt lat="42.81569330126614" lon="12.757434708726871"><ele>230.0</ele><time>2026-04-19T09:46:42Z</time></trkpt><trkpt lat="42.81540319466756" lon="12.757434528601307"><ele>231.0</ele><time>2026-04-19T09:46:43Z</time></trkpt><trkpt lat="42.81511809003111" lon="12.757432824461844"><ele>231.0</ele><time>2026-04-19T09:46:44Z</time></trkpt><trkpt lat="42.81482682538593" lon="12.757435047497665"><ele>231.0</ele><time>2026-04-19T09:46:45Z</time></trkpt><trkpt lat="42.81453576695273" lon="12.757444232138937"><ele>231.0</ele><time>2026-04-19T09:46:46Z</time></trkpt><trkpt lat="42.81424188959203" lon="12.757459095131589"><ele>231.0</ele><time>2026-04-19T09:46:47Z</time></trkpt><trkpt lat="42.813946106750144" lon="12.757476059936934"><ele>231.0</ele><time>2026-04-19T09:46:48Z</time></trkpt><trkpt lat="42.813650205277305" lon="12.757496888344457"><ele>231.0</ele><time>2026-04-19T09:46:49Z</time></trkpt><trkpt lat="42.81335629228064" lon="12.757521710191071"><ele>231.0</ele><time>2026-04-19T09:46:50Z</time></trkpt><trkpt lat="42.81306726674748" lon="12.757549013239736"><ele>231.0</ele><time>2026-04-19T09:46:51Z</time></trkpt><trkpt lat="42.81278215195799" lon="12.757583083726708"><ele>232.5</ele><time>2026-04-19T09:46:52Z</time></trkpt><trkpt lat="42.81249905294575" lon="12.75762140182228"><ele>234.0</ele><time>2026-04-19T09:46:53Z</time></trkpt><trkpt lat="42.812219541465076" lon="12.757664447374507"><ele>234.5</ele><time>2026-04-19T09:46:54Z</time></trkpt><trkpt lat="42.81195318241247" lon="12.757713761107553"><ele>235.0</ele><time>2026-04-19T09:46:55Z</time></trkpt><trkpt lat="42.811687664548614" lon="12.757767427935969"><ele>236.0</ele><time>2026-04-19T09:46:56Z</time></trkpt><trkpt lat="42.811429646504" lon="12.75782087588788"><ele>237.0</ele><time>2026-04-19T09:46:57Z</time></trkpt><trkpt lat="42.81116995685989" lon="12.757883670309797"><ele>238.5</ele><time>2026-04-19T09:46:58Z</time></trkpt><trkpt lat="42.81091073101998" lon="12.757950812031055"><ele>240.0</ele><time>2026-04-19T09:46:59Z</time></trkpt><trkpt lat="42.81065565028377" lon="12.758023897020552"><ele>240.0</ele><time>2026-04-19T09:47:00Z</time></trkpt><trkpt lat="42.8103983165525" lon="12.758107079655728"><ele>240.0</ele><time>2026-04-19T09:47:01Z</time></trkpt><trkpt lat="42.810144067653866" lon="12.758195955921375"><ele>241.5</ele><time>2026-04-19T09:47:02Z</time></trkpt><trkpt lat="42.8098859091921" lon="12.758291635030417"><ele>243.0</ele><time>2026-04-19T09:47:03Z</time></trkpt><trkpt lat="42.80963297371046" lon="12.758387407823063"><ele>243.0</ele><time>2026-04-19T09:47:04Z</time></trkpt><trkpt lat="42.809371077701904" lon="12.758490763683186"><ele>243.0</ele><time>2026-04-19T09:47:05Z</time></trkpt><trkpt lat="42.80911872826375" lon="12.758587674635233"><ele>245.0</ele><time>2026-04-19T09:47:06Z</time></trkpt><trkpt lat="42.80886121487466" lon="12.75869515600437"><ele>247.0</ele><time>2026-04-19T09:47:07Z</time></trkpt><trkpt lat="42.80860772540009" lon="12.758808313715218"><ele>247.5</ele><time>2026-04-19T09:47:08Z</time></trkpt><trkpt lat="42.808354481307994" lon="12.758917608907968"><ele>248.0</ele><time>2026-04-19T09:47:09Z</time></trkpt><trkpt lat="42.808096212612355" lon="12.75903583344762"><ele>248.0</ele><time>2026-04-19T09:47:10Z</time></trkpt><trkpt lat="42.80784092160163" lon="12.759154312643966"><ele>248.0</ele><time>2026-04-19T09:47:11Z</time></trkpt><trkpt lat="42.80758604985824" lon="12.759272233719642"><ele>250.0</ele><time>2026-04-19T09:47:12Z</time></trkpt><trkpt lat="42.807329193677695" lon="12.759392034853262"><ele>252.0</ele><time>2026-04-19T09:47:13Z</time></trkpt><trkpt lat="42.80707415819573" lon="12.759514913864455"><ele>253.5</ele><time>2026-04-19T09:47:14Z</time></trkpt><trkpt lat="42.80681651933106" lon="12.759633003695999"><ele>255.0</ele><time>2026-04-19T09:47:15Z</time></trkpt><trkpt lat="42.80655566645842" lon="12.759747461413655"><ele>255.0</ele><time>2026-04-19T09:47:16Z</time></trkpt><trkpt lat="42.8062882618439" lon="12.759853427457976"><ele>255.0</ele><time>2026-04-19T09:47:17Z</time></trkpt><trkpt lat="42.80601308861818" lon="12.759954754408403"><ele>256.0</ele><time>2026-04-19T09:47:18Z</time></trkpt><trkpt lat="42.80573909479124" lon="12.760046533321505"><ele>257.0</ele><time>2026-04-19T09:47:18.999Z</time></trkpt><trkpt lat="42.80545984427797" lon="12.760123460428378"><ele>257.0</ele><time>2026-04-19T09:47:19.999Z</time></trkpt><trkpt lat="42.805176711641906" lon="12.760186774491505"><ele>257.0</ele><time>2026-04-19T09:47:20.999Z</time></trkpt><trkpt lat="42.80489204647119" lon="12.760242144230773"><ele>259.0</ele><time>2026-04-19T09:47:21.999Z</time></trkpt><trkpt lat="42.80460686310066" lon="12.76029581862959"><ele>261.0</ele><time>2026-04-19T09:47:22.999Z</time></trkpt><trkpt lat="42.80431557672621" lon="12.760343873738229"><ele>262.5</ele><time>2026-04-19T09:47:23.999Z</time></trkpt><trkpt lat="42.80402960238787" lon="12.760393612748114"><ele>264.0</ele><time>2026-04-19T09:47:24.999Z</time></trkpt><trkpt lat="42.80373912796658" lon="12.760439656342111"><ele>265.0</ele><time>2026-04-19T09:47:25.999Z</time></trkpt><trkpt lat="42.803453184824306" lon="12.760485741565661"><ele>266.0</ele><time>2026-04-19T09:47:26.999Z</time></trkpt><trkpt lat="42.80316339743939" lon="12.760536214642157"><ele>266.0</ele><time>2026-04-19T09:47:27.999Z</time></trkpt><trkpt lat="42.802875072588" lon="12.760590754918693"><ele>266.0</ele><time>2026-04-19T09:47:28.999Z</time></trkpt><trkpt lat="42.80257826994501" lon="12.760652174994187"><ele>267.0</ele><time>2026-04-19T09:47:29.999Z</time></trkpt><trkpt lat="42.80227492388496" lon="12.76072264803818"><ele>268.0</ele><time>2026-04-19T09:47:30.999Z</time></trkpt><trkpt lat="42.801977650643494" lon="12.760799832327049"><ele>269.0</ele><time>2026-04-19T09:47:31.999Z</time></trkpt><trkpt lat="42.80168612174474" lon="12.760896114049999"><ele>270.0</ele><time>2026-04-19T09:47:32.999Z</time></trkpt><trkpt lat="42.801400709677964" lon="12.76100390644917"><ele>270.5</ele><time>2026-04-19T09:47:33.999Z</time></trkpt><trkpt lat="42.80111180430815" lon="12.761112690480688"><ele>271.0</ele><time>2026-04-19T09:47:34.999Z</time></trkpt><trkpt lat="42.80081831486123" lon="12.761215836175806"><ele>271.5</ele><time>2026-04-19T09:47:35.999Z</time></trkpt><trkpt lat="42.80051791235941" lon="12.761315403896598"><ele>272.0</ele><time>2026-04-19T09:47:36.999Z</time></trkpt><trkpt lat="42.80021193222292" lon="12.76140865392101"><ele>271.0</ele><time>2026-04-19T09:47:37.999Z</time></trkpt><trkpt lat="42.799904719617786" lon="12.761506601959471"><ele>270.0</ele><time>2026-04-19T09:47:38.999Z</time></trkpt><trkpt lat="42.79959563890455" lon="12.761606337146961"><ele>270.0</ele><time>2026-04-19T09:47:39.999Z</time></trkpt><trkpt lat="42.79928711610475" lon="12.761708960110296"><ele>270.0</ele><time>2026-04-19T09:47:40.999Z</time></trkpt><trkpt lat="42.79897795888496" lon="12.761812204727383"><ele>271.5</ele><time>2026-04-19T09:47:41.999Z</time></trkpt><trkpt lat="42.798672871024046" lon="12.7619206449127"><ele>273.0</ele><time>2026-04-19T09:47:42.999Z</time></trkpt><trkpt lat="42.79837432869215" lon="12.762024676458273"><ele>275.0</ele><time>2026-04-19T09:47:43.999Z</time></trkpt><trkpt lat="42.79808170484681" lon="12.762133531333888"><ele>277.0</ele><time>2026-04-19T09:47:44.999Z</time></trkpt><trkpt lat="42.797791813942645" lon="12.762249129304772"><ele>279.0</ele><time>2026-04-19T09:47:45.999Z</time></trkpt><trkpt lat="42.79750845934097" lon="12.762369020385048"><ele>281.0</ele><time>2026-04-19T09:47:46.999Z</time></trkpt><trkpt lat="42.79722842775199" lon="12.762496416444112"><ele>281.0</ele><time>2026-04-19T09:47:47.999Z</time></trkpt><trkpt lat="42.79694699868671" lon="12.762618952607394"><ele>281.0</ele><time>2026-04-19T09:47:48.999Z</time></trkpt><trkpt lat="42.79666796979209" lon="12.762738317923606"><ele>282.0</ele><time>2026-04-19T09:47:49.999Z</time></trkpt><trkpt lat="42.79639405207457" lon="12.762856614425994"><ele>283.0</ele><time>2026-04-19T09:47:50.999Z</time></trkpt><trkpt lat="42.79612476098866" lon="12.76296739412995"><ele>281.5</ele><time>2026-04-19T09:47:51.999Z</time></trkpt><trkpt lat="42.7958500653118" lon="12.763077408041399"><ele>280.0</ele><time>2026-04-19T09:47:52.999Z</time></trkpt><trkpt lat="42.79557577378574" lon="12.763188514901099"><ele>280.0</ele><time>2026-04-19T09:47:53.999Z</time></trkpt><trkpt lat="42.79530252375432" lon="12.763299738186811"><ele>280.0</ele><time>2026-04-19T09:47:54.999Z</time></trkpt><trkpt lat="42.795038982108935" lon="12.763413668686129"><ele>280.5</ele><time>2026-04-19T09:47:55.999Z</time></trkpt><trkpt lat="42.79477386520693" lon="12.763524133939084"><ele>281.0</ele><time>2026-04-19T09:47:56.999Z</time></trkpt><trkpt lat="42.79451267765732" lon="12.763630427471117"><ele>282.5</ele><time>2026-04-19T09:47:57.999Z</time></trkpt><trkpt lat="42.79425406223951" lon="12.763737899639652"><ele>284.0</ele><time>2026-04-19T09:47:58.999Z</time></trkpt><trkpt lat="42.793992439413174" lon="12.763848069757247"><ele>284.0</ele><time>2026-04-19T09:47:59.999Z</time></trkpt><trkpt lat="42.79373198120244" lon="12.763955781692989"><ele>284.0</ele><time>2026-04-19T09:48:00.999Z</time></trkpt><trkpt lat="42.79347374499896" lon="12.764062183509328"><ele>284.0</ele><time>2026-04-19T09:48:01.999Z</time></trkpt><trkpt lat="42.793214977269784" lon="12.76416563496859"><ele>284.0</ele><time>2026-04-19T09:48:02.999Z</time></trkpt><trkpt lat="42.7929541430384" lon="12.764268009188179"><ele>286.0</ele><time>2026-04-19T09:48:03.999Z</time></trkpt><trkpt lat="42.79268928424278" lon="12.764366335329251"><ele>288.0</ele><time>2026-04-19T09:48:04.999Z</time></trkpt><trkpt lat="42.79242028511335" lon="12.764464695801271"><ele>288.5</ele><time>2026-04-19T09:48:05.999Z</time></trkpt><trkpt lat="42.79215621381273" lon="12.76456614238336"><ele>289.0</ele><time>2026-04-19T09:48:06.999Z</time></trkpt><trkpt lat="42.79189005953711" lon="12.7646689533796"><ele>289.5</ele><time>2026-04-19T09:48:07.999Z</time></trkpt><trkpt lat="42.791624075260266" lon="12.764773878361636"><ele>290.0</ele><time>2026-04-19T09:48:08.999Z</time></trkpt><trkpt lat="42.79136435338748" lon="12.764874174591567"><ele>290.0</ele><time>2026-04-19T09:48:09.999Z</time></trkpt><trkpt lat="42.79110329018603" lon="12.7649762588002"><ele>290.0</ele><time>2026-04-19T09:48:10.999Z</time></trkpt><trkpt lat="42.79083994757657" lon="12.765080591039421"><ele>289.5</ele><time>2026-04-19T09:48:11.999Z</time></trkpt><trkpt lat="42.790575194923875" lon="12.76518765339484"><ele>289.0</ele><time>2026-04-19T09:48:12.999Z</time></trkpt><trkpt lat="42.790307785866915" lon="12.765293967198467"><ele>288.5</ele><time>2026-04-19T09:48:13.999Z</time></trkpt><trkpt lat="42.79004189885478" lon="12.765398402003767"><ele>288.0</ele><time>2026-04-19T09:48:14.999Z</time></trkpt><trkpt lat="42.7897758851149" lon="12.765501494203118"><ele>288.0</ele><time>2026-04-19T09:48:15.999Z</time></trkpt><trkpt lat="42.78951126262669" lon="12.765600350740801"><ele>288.0</ele><time>2026-04-19T09:48:16.999Z</time></trkpt><trkpt lat="42.78924362798604" lon="12.765694655742932"><ele>286.5</ele><time>2026-04-19T09:48:17.999Z</time></trkpt><trkpt lat="42.78897527510013" lon="12.765788279903722"><ele>285.0</ele><time>2026-04-19T09:48:18.999Z</time></trkpt><trkpt lat="42.78870141566427" lon="12.765877936683875"><ele>285.0</ele><time>2026-04-19T09:48:19.999Z</time></trkpt><trkpt lat="42.78842743064194" lon="12.765961168095664"><ele>285.0</ele><time>2026-04-19T09:48:20.999Z</time></trkpt><trkpt lat="42.78815254687725" lon="12.766041916113682"><ele>285.0</ele><time>2026-04-19T09:48:21.999Z</time></trkpt><trkpt lat="42.787871679689964" lon="12.766118980864189"><ele>285.0</ele><time>2026-04-19T09:48:22.999Z</time></trkpt><trkpt lat="42.78759104499364" lon="12.76619262907169"><ele>284.5</ele><time>2026-04-19T09:48:23.999Z</time></trkpt><trkpt lat="42.78730910911839" lon="12.766264128508777"><ele>284.0</ele><time>2026-04-19T09:48:24.999Z</time></trkpt><trkpt lat="42.78702780013599" lon="12.766331362144863"><ele>282.0</ele><time>2026-04-19T09:48:25.999Z</time></trkpt><trkpt lat="42.78674647726624" lon="12.766391673259957"><ele>280.0</ele><time>2026-04-19T09:48:26.999Z</time></trkpt><trkpt lat="42.78646856165341" lon="12.766441186736639"><ele>280.0</ele><time>2026-04-19T09:48:27.999Z</time></trkpt><trkpt lat="42.78618732909356" lon="12.766485635151515"><ele>280.0</ele><time>2026-04-19T09:48:29Z</time></trkpt><trkpt lat="42.78590980627316" lon="12.766526552148607"><ele>280.0</ele><time>2026-04-19T09:48:30Z</time></trkpt><trkpt lat="42.785628181479446" lon="12.766566899869838"><ele>280.0</ele><time>2026-04-19T09:48:31Z</time></trkpt><trkpt lat="42.78534698102026" lon="12.766606314854721"><ele>277.5</ele><time>2026-04-19T09:48:32Z</time></trkpt><trkpt lat="42.78506751516062" lon="12.766638438073677"><ele>275.0</ele><time>2026-04-19T09:48:33Z</time></trkpt><trkpt lat="42.78478437753148" lon="12.76666736692762"><ele>275.0</ele><time>2026-04-19T09:48:34Z</time></trkpt><trkpt lat="42.78450149881422" lon="12.766691401726346"><ele>275.0</ele><time>2026-04-19T09:48:35Z</time></trkpt><trkpt lat="42.78422023655203" lon="12.76671527927921"><ele>275.5</ele><time>2026-04-19T09:48:36Z</time></trkpt><trkpt lat="42.78394368406508" lon="12.766736955854565"><ele>276.0</ele><time>2026-04-19T09:48:37Z</time></trkpt><trkpt lat="42.78366609467493" lon="12.766753507584438"><ele>276.5</ele><time>2026-04-19T09:48:38Z</time></trkpt><trkpt lat="42.78339093469633" lon="12.76677063641648"><ele>277.0</ele><time>2026-04-19T09:48:39Z</time></trkpt><trkpt lat="42.78311604687078" lon="12.766789865667535"><ele>277.0</ele><time>2026-04-19T09:48:40Z</time></trkpt><trkpt lat="42.78284098993016" lon="12.76681041732863"><ele>277.0</ele><time>2026-04-19T09:48:41Z</time></trkpt><trkpt lat="42.78256666587042" lon="12.766831411464304"><ele>276.5</ele><time>2026-04-19T09:48:42Z</time></trkpt><trkpt lat="42.782293314938975" lon="12.76685492013352"><ele>276.0</ele><time>2026-04-19T09:48:43Z</time></trkpt><trkpt lat="42.78202297812983" lon="12.76688392798334"><ele>275.0</ele><time>2026-04-19T09:48:44Z</time></trkpt><trkpt lat="42.78175342292684" lon="12.766923246099259"><ele>274.0</ele><time>2026-04-19T09:48:45Z</time></trkpt><trkpt lat="42.78148570899232" lon="12.766971640747272"><ele>274.0</ele><time>2026-04-19T09:48:46Z</time></trkpt><trkpt lat="42.78121913817392" lon="12.767033595757434"><ele>274.0</ele><time>2026-04-19T09:48:47Z</time></trkpt><trkpt lat="42.780954056954876" lon="12.76711065896938"><ele>273.5</ele><time>2026-04-19T09:48:48Z</time></trkpt><trkpt lat="42.780692592017544" lon="12.767199725037832"><ele>273.0</ele><time>2026-04-19T09:48:49Z</time></trkpt><trkpt lat="42.780436857379804" lon="12.767305671348616"><ele>273.0</ele><time>2026-04-19T09:48:50Z</time></trkpt><trkpt lat="42.78018507583963" lon="12.767431242801223"><ele>273.0</ele><time>2026-04-19T09:48:51Z</time></trkpt><trkpt lat="42.779938643965714" lon="12.767567792744405"><ele>274.5</ele><time>2026-04-19T09:48:52Z</time></trkpt><trkpt lat="42.77969813246215" lon="12.767722643147684"><ele>276.0</ele><time>2026-04-19T09:48:53Z</time></trkpt><trkpt lat="42.779462252974945" lon="12.767890995566498"><ele>276.0</ele><time>2026-04-19T09:48:54Z</time></trkpt><trkpt lat="42.779232321720336" lon="12.768068396839778"><ele>276.0</ele><time>2026-04-19T09:48:55Z</time></trkpt><trkpt lat="42.77900470449301" lon="12.768257161667393"><ele>276.0</ele><time>2026-04-19T09:48:56Z</time></trkpt><trkpt lat="42.77878188878865" lon="12.768456759735926"><ele>276.0</ele><time>2026-04-19T09:48:57Z</time></trkpt><trkpt lat="42.77856060790787" lon="12.768658670367135"><ele>275.5</ele><time>2026-04-19T09:48:58Z</time></trkpt><trkpt lat="42.77833821834242" lon="12.768866130563993"><ele>275.0</ele><time>2026-04-19T09:48:59Z</time></trkpt><trkpt lat="42.778119059033585" lon="12.76907291741503"><ele>275.0</ele><time>2026-04-19T09:49:00Z</time></trkpt><trkpt lat="42.77789736932996" lon="12.7692777457291"><ele>275.0</ele><time>2026-04-19T09:49:01Z</time></trkpt><trkpt lat="42.777673668542164" lon="12.76947515119729"><ele>276.5</ele><time>2026-04-19T09:49:02Z</time></trkpt><trkpt lat="42.777452472067196" lon="12.769662140286114"><ele>278.0</ele><time>2026-04-19T09:49:03Z</time></trkpt><trkpt lat="42.777238833963004" lon="12.769828882162606"><ele>278.0</ele><time>2026-04-19T09:49:04Z</time></trkpt><trkpt lat="42.77702819119151" lon="12.769979527757158"><ele>278.0</ele><time>2026-04-19T09:49:05Z</time></trkpt><trkpt lat="42.77681571569653" lon="12.770116890851154"><ele>279.5</ele><time>2026-04-19T09:49:06Z</time></trkpt><trkpt lat="42.77660388068707" lon="12.770242681485982"><ele>281.0</ele><time>2026-04-19T09:49:07Z</time></trkpt><trkpt lat="42.77638862579436" lon="12.770359673460032"><ele>281.0</ele><time>2026-04-19T09:49:08Z</time></trkpt><trkpt lat="42.77617055208755" lon="12.770464950690094"><ele>281.0</ele><time>2026-04-19T09:49:09Z</time></trkpt><trkpt lat="42.77595190609107" lon="12.770554870476483"><ele>281.5</ele><time>2026-04-19T09:49:10Z</time></trkpt><trkpt lat="42.775729195847155" lon="12.770634944587682"><ele>282.0</ele><time>2026-04-19T09:49:11Z</time></trkpt><trkpt lat="42.775504781719626" lon="12.770714063310251"><ele>282.0</ele><time>2026-04-19T09:49:12Z</time></trkpt><trkpt lat="42.77527418958047" lon="12.770785734555776"><ele>282.0</ele><time>2026-04-19T09:49:13Z</time></trkpt><trkpt lat="42.775043319736696" lon="12.770852837091333"><ele>282.0</ele><time>2026-04-19T09:49:14Z</time></trkpt><trkpt lat="42.77481332536296" lon="12.770920675034166"><ele>282.0</ele><time>2026-04-19T09:49:15Z</time></trkpt><trkpt lat="42.774582848668686" lon="12.770990195646876"><ele>282.0</ele><time>2026-04-19T09:49:16Z</time></trkpt><trkpt lat="42.77440327671868" lon="12.7709997553462"><ele>282.0</ele><time>2026-04-19T09:49:17Z</time></trkpt><trkpt lat="42.77418896100081" lon="12.771004844580581"><ele>282.0</ele><time>2026-04-19T09:49:18Z</time></trkpt><trkpt lat="42.77399139422919" lon="12.770995586265526"><ele>280.0</ele><time>2026-04-19T09:49:19Z</time></trkpt><trkpt lat="42.773694792432316" lon="12.77086992351951"><ele>278.0</ele><time>2026-04-19T09:49:20Z</time></trkpt><trkpt lat="42.773473515625504" lon="12.770837277694389"><ele>278.0</ele><time>2026-04-19T09:49:21Z</time></trkpt><trkpt lat="42.77326052509333" lon="12.77079469532214"><ele>278.0</ele><time>2026-04-19T09:49:22Z</time></trkpt><trkpt lat="42.77304939305273" lon="12.770747377262083"><ele>278.0</ele><time>2026-04-19T09:49:23Z</time></trkpt><trkpt lat="42.772840114439866" lon="12.770702037488622"><ele>277.33333333333337</ele><time>2026-04-19T09:49:24Z</time></trkpt><trkpt lat="42.77263273644388" lon="12.770655876139047"><ele>276.6666666666667</ele><time>2026-04-19T09:49:25Z</time></trkpt><trkpt lat="42.77242225818" lon="12.77060878740849"><ele>276.0</ele><time>2026-04-19T09:49:25.999Z</time></trkpt><trkpt lat="42.77221536254641" lon="12.770559504013589"><ele>276.0</ele><time>2026-04-19T09:49:26.999Z</time></trkpt><trkpt lat="42.77200698970898" lon="12.77050720918687"><ele>276.0</ele><time>2026-04-19T09:49:27.999Z</time></trkpt><trkpt lat="42.77180003435156" lon="12.770452399693616"><ele>276.0</ele><time>2026-04-19T09:49:28.999Z</time></trkpt><trkpt lat="42.77159476775031" lon="12.77040360225141"><ele>275.3333333333333</ele><time>2026-04-19T09:49:29.999Z</time></trkpt><trkpt lat="42.771390366259965" lon="12.770348971936398"><ele>274.66666666666663</ele><time>2026-04-19T09:49:30.999Z</time></trkpt><trkpt lat="42.77118675379931" lon="12.770296152684029"><ele>274.0</ele><time>2026-04-19T09:49:31.999Z</time></trkpt><trkpt lat="42.77098836432668" lon="12.770238382380994"><ele>273.66666666666663</ele><time>2026-04-19T09:49:32.999Z</time></trkpt><trkpt lat="42.770788463272524" lon="12.770175720159848"><ele>273.3333333333333</ele><time>2026-04-19T09:49:33.999Z</time></trkpt><trkpt lat="42.77059332694523" lon="12.770112755664702"><ele>273.0</ele><time>2026-04-19T09:49:34.999Z</time></trkpt><trkpt lat="42.770400368701644" lon="12.770053526284746"><ele>273.0</ele><time>2026-04-19T09:49:35.999Z</time></trkpt><trkpt lat="42.77021088153348" lon="12.769995594514675"><ele>273.0</ele><time>2026-04-19T09:49:36.999Z</time></trkpt><trkpt lat="42.77003564785168" lon="12.769938636427193"><ele>273.0</ele><time>2026-04-19T09:49:37.999Z</time></trkpt><trkpt lat="42.76986939779772" lon="12.769882532086102"><ele>272.6666666666667</ele><time>2026-04-19T09:49:38.999Z</time></trkpt><trkpt lat="42.7697094813921" lon="12.769834079945833"><ele>272.33333333333337</ele><time>2026-04-19T09:49:39.999Z</time></trkpt><trkpt lat="42.76955670637064" lon="12.7697851604652"><ele>272.0</ele><time>2026-04-19T09:49:40.999Z</time></trkpt><trkpt lat="42.76940240053183" lon="12.76973604866223"><ele>273.25</ele><time>2026-04-19T09:49:41.999Z</time></trkpt><trkpt lat="42.76925109614102" lon="12.769691793457246"><ele>274.5</ele><time>2026-04-19T09:49:42.999Z</time></trkpt><trkpt lat="42.769108421676606" lon="12.769635251756469"><ele>275.75</ele><time>2026-04-19T09:49:43.999Z</time></trkpt><trkpt lat="42.76896919918811" lon="12.769584134462306"><ele>277.0</ele><time>2026-04-19T09:49:44.999Z</time></trkpt><trkpt lat="42.76882345414432" lon="12.7695299663287"><ele>277.0</ele><time>2026-04-19T09:49:45.999Z</time></trkpt><trkpt lat="42.76868244383466" lon="12.76947687580069"><ele>277.0</ele><time>2026-04-19T09:49:46.999Z</time></trkpt><trkpt lat="42.76854480387204" lon="12.769430104564062"><ele>277.0</ele><time>2026-04-19T09:49:47.999Z</time></trkpt><trkpt lat="42.76841447334803" lon="12.76938622963146"><ele>277.0</ele><time>2026-04-19T09:49:48.999Z</time></trkpt><trkpt lat="42.76828123503147" lon="12.76934036344211"><ele>276.75</ele><time>2026-04-19T09:49:49.999Z</time></trkpt><trkpt lat="42.76815629208778" lon="12.76929429147769"><ele>276.5</ele><time>2026-04-19T09:49:50.999Z</time></trkpt><trkpt lat="42.76803216576041" lon="12.769246131219205"><ele>276.25</ele><time>2026-04-19T09:49:51.999Z</time></trkpt><trkpt lat="42.767908805416496" lon="12.769195581774673"><ele>276.0</ele><time>2026-04-19T09:49:52.999Z</time></trkpt><trkpt lat="42.767789049166865" lon="12.769152335119651"><ele>276.75</ele><time>2026-04-19T09:49:53.999Z</time></trkpt><trkpt lat="42.76767410877349" lon="12.769112214737648"><ele>277.5</ele><time>2026-04-19T09:49:54.999Z</time></trkpt><trkpt lat="42.767563850074126" lon="12.769065058421765"><ele>278.25</ele><time>2026-04-19T09:49:55.999Z</time></trkpt><trkpt lat="42.76745481287028" lon="12.769021414823593"><ele>279.0</ele><time>2026-04-19T09:49:56.999Z</time></trkpt><trkpt lat="42.767346046225406" lon="12.768973757274589"><ele>279.0</ele><time>2026-04-19T09:49:57.999Z</time></trkpt><trkpt lat="42.767232245010526" lon="12.76892104882322"><ele>279.0</ele><time>2026-04-19T09:49:58.999Z</time></trkpt><trkpt lat="42.767114658760626" lon="12.768868804163748"><ele>279.0</ele><time>2026-04-19T09:49:59.999Z</time></trkpt><trkpt lat="42.76699569113922" lon="12.76881770097967"><ele>279.0</ele><time>2026-04-19T09:50:00.999Z</time></trkpt><trkpt lat="42.7668752076291" lon="12.7687622528923"><ele>278.75</ele><time>2026-04-19T09:50:01.999Z</time></trkpt><trkpt lat="42.76675350768598" lon="12.768703748500162"><ele>278.5</ele><time>2026-04-19T09:50:02.999Z</time></trkpt><trkpt lat="42.766630529609166" lon="12.768641394202856"><ele>278.25</ele><time>2026-04-19T09:50:03.999Z</time></trkpt><trkpt lat="42.766508650907554" lon="12.76857536433757"><ele>278.0</ele><time>2026-04-19T09:50:04.999Z</time></trkpt><trkpt lat="42.76638322839483" lon="12.768505616619077"><ele>278.0</ele><time>2026-04-19T09:50:05.999Z</time></trkpt><trkpt lat="42.7662580302326" lon="12.768429294826175"><ele>278.0</ele><time>2026-04-19T09:50:06.999Z</time></trkpt><trkpt lat="42.76613547679432" lon="12.76834633752199"><ele>278.0</ele><time>2026-04-19T09:50:07.999Z</time></trkpt><trkpt lat="42.76601214095595" lon="12.768253869055895"><ele>278.0</ele><time>2026-04-19T09:50:08.999Z</time></trkpt><trkpt lat="42.76588972652923" lon="12.768158383218491"><ele>278.75</ele><time>2026-04-19T09:50:09.999Z</time></trkpt><trkpt lat="42.76577021430813" lon="12.76805974908564"><ele>279.5</ele><time>2026-04-19T09:50:10.999Z</time></trkpt><trkpt lat="42.76565401798442" lon="12.767956074048016"><ele>280.25</ele><time>2026-04-19T09:50:11.999Z</time></trkpt><trkpt lat="42.76554071355756" lon="12.767846866142959"><ele>281.0</ele><time>2026-04-19T09:50:12.999Z</time></trkpt><trkpt lat="42.76542872175379" lon="12.767732367554917"><ele>281.0</ele><time>2026-04-19T09:50:13.999Z</time></trkpt><trkpt lat="42.76531878599553" lon="12.767611921576869"><ele>281.0</ele><time>2026-04-19T09:50:14.999Z</time></trkpt><trkpt lat="42.76521206822157" lon="12.76749024772658"><ele>281.0</ele><time>2026-04-19T09:50:15.999Z</time></trkpt><trkpt lat="42.76510765613023" lon="12.767357555793613"><ele>281.0</ele><time>2026-04-19T09:50:16.999Z</time></trkpt><trkpt lat="42.76501039211598" lon="12.767221076129923"><ele>281.0</ele><time>2026-04-19T09:50:17.999Z</time></trkpt><trkpt lat="42.764914939771" lon="12.767080267559487"><ele>281.0</ele><time>2026-04-19T09:50:18.999Z</time></trkpt><trkpt lat="42.764820318966116" lon="12.766936556113508"><ele>281.0</ele><time>2026-04-19T09:50:19.999Z</time></trkpt><trkpt lat="42.76473262049629" lon="12.766788485875773"><ele>281.0</ele><time>2026-04-19T09:50:20.999Z</time></trkpt><trkpt lat="42.76464747112533" lon="12.766632676434359"><ele>280.75</ele><time>2026-04-19T09:50:21.999Z</time></trkpt><trkpt lat="42.76456293601868" lon="12.766472997777655"><ele>280.5</ele><time>2026-04-19T09:50:22.999Z</time></trkpt><trkpt lat="42.76447953684848" lon="12.7663112470661"><ele>280.25</ele><time>2026-04-19T09:50:23.999Z</time></trkpt><trkpt lat="42.76439705582198" lon="12.766143639299187"><ele>280.0</ele><time>2026-04-19T09:50:24.999Z</time></trkpt><trkpt lat="42.76431964273192" lon="12.765964306977121"><ele>281.0</ele><time>2026-04-19T09:50:25.999Z</time></trkpt><trkpt lat="42.76425000936658" lon="12.765784363802485"><ele>282.0</ele><time>2026-04-19T09:50:26.999Z</time></trkpt><trkpt lat="42.764182590872956" lon="12.765593273148179"><ele>283.0</ele><time>2026-04-19T09:50:27.999Z</time></trkpt><trkpt lat="42.76411781249687" lon="12.76540014444508"><ele>283.0</ele><time>2026-04-19T09:50:28.999Z</time></trkpt><trkpt lat="42.764054657159924" lon="12.765202085229538"><ele>283.0</ele><time>2026-04-19T09:50:29.999Z</time></trkpt><trkpt lat="42.76399767578915" lon="12.764996275744018"><ele>283.0</ele><time>2026-04-19T09:50:30.999Z</time></trkpt><trkpt lat="42.76394281465358" lon="12.764783392378954"><ele>282.0</ele><time>2026-04-19T09:50:31.999Z</time></trkpt><trkpt lat="42.76389167346297" lon="12.764573989495572"><ele>281.0</ele><time>2026-04-19T09:50:32.999Z</time></trkpt><trkpt lat="42.7638411543439" lon="12.764354884192558"><ele>280.0</ele><time>2026-04-19T09:50:34Z</time></trkpt><trkpt lat="42.76378862456" lon="12.76413063220066"><ele>279.3333333333333</ele><time>2026-04-19T09:50:35Z</time></trkpt><trkpt lat="42.763732903906636" lon="12.763906781403701"><ele>278.6666666666667</ele><time>2026-04-19T09:50:36Z</time></trkpt><trkpt lat="42.76368014672828" lon="12.763674608921901"><ele>278.0</ele><time>2026-04-19T09:50:37Z</time></trkpt><trkpt lat="42.7636264328796" lon="12.763431298713515"><ele>277.6666666666667</ele><time>2026-04-19T09:50:38Z</time></trkpt><trkpt lat="42.76357364395792" lon="12.763197315135644"><ele>277.3333333333333</ele><time>2026-04-19T09:50:39Z</time></trkpt><trkpt lat="42.763513403991446" lon="12.76295021219958"><ele>277.0</ele><time>2026-04-19T09:50:40Z</time></trkpt><trkpt lat="42.76345464249808" lon="12.762707085673952"><ele>278.3333333333333</ele><time>2026-04-19T09:50:41Z</time></trkpt><trkpt lat="42.763386648136404" lon="12.762458838521663"><ele>279.6666666666667</ele><time>2026-04-19T09:50:42Z</time></trkpt><trkpt lat="42.76330674976012" lon="12.762221286650892"><ele>281.0</ele><time>2026-04-19T09:50:43Z</time></trkpt><trkpt lat="42.7632234876577" lon="12.761981560329799"><ele>280.0</ele><time>2026-04-19T09:50:44Z</time></trkpt><trkpt lat="42.76313474952062" lon="12.76175245411734"><ele>279.0</ele><time>2026-04-19T09:50:45Z</time></trkpt><trkpt lat="42.76303755264093" lon="12.761526973063184"><ele>278.0</ele><time>2026-04-19T09:50:46Z</time></trkpt><trkpt lat="42.76294064064234" lon="12.761311710862453"><ele>278.0</ele><time>2026-04-19T09:50:47Z</time></trkpt><trkpt lat="42.762846096507396" lon="12.761096311515182"><ele>278.0</ele><time>2026-04-19T09:50:48Z</time></trkpt><trkpt lat="42.76272668535945" lon="12.760909352909652"><ele>278.0</ele><time>2026-04-19T09:50:49Z</time></trkpt><trkpt lat="42.76261009659417" lon="12.760723874403702"><ele>279.0</ele><time>2026-04-19T09:50:50Z</time></trkpt><trkpt lat="42.76249660534327" lon="12.760550961095271"><ele>280.0</ele><time>2026-04-19T09:50:51Z</time></trkpt><trkpt lat="42.76238585608422" lon="12.760386656580211"><ele>281.0</ele><time>2026-04-19T09:50:52Z</time></trkpt><trkpt lat="42.76228535163207" lon="12.760233941932073"><ele>280.75</ele><time>2026-04-19T09:50:53Z</time></trkpt><trkpt lat="42.762189452719376" lon="12.760089207802626"><ele>280.5</ele><time>2026-04-19T09:50:54Z</time></trkpt><trkpt lat="42.76209392890402" lon="12.75994587018568"><ele>280.25</ele><time>2026-04-19T09:50:55Z</time></trkpt><trkpt lat="42.762000976449656" lon="12.759816493761829"><ele>280.0</ele><time>2026-04-19T09:50:56Z</time></trkpt><trkpt lat="42.76190719053897" lon="12.75968057724577"><ele>280.75</ele><time>2026-04-19T09:50:57Z</time></trkpt><trkpt lat="42.76180771678452" lon="12.759537987475436"><ele>281.5</ele><time>2026-04-19T09:50:58Z</time></trkpt><trkpt lat="42.76170896642074" lon="12.759394908818798"><ele>282.25</ele><time>2026-04-19T09:50:59Z</time></trkpt><trkpt lat="42.761611559434996" lon="12.759250530957722"><ele>283.0</ele><time>2026-04-19T09:51:00Z</time></trkpt><trkpt lat="42.76151327844229" lon="12.759107934580516"><ele>283.0</ele><time>2026-04-19T09:51:01Z</time></trkpt><trkpt lat="42.76141415550397" lon="12.758961477734799"><ele>283.0</ele><time>2026-04-19T09:51:02Z</time></trkpt><trkpt lat="42.76130948156616" lon="12.75880844666689"><ele>283.0</ele><time>2026-04-19T09:51:03Z</time></trkpt><trkpt lat="42.76121023005858" lon="12.75866604945446"><ele>283.0</ele><time>2026-04-19T09:51:04Z</time></trkpt><trkpt lat="42.76110591758465" lon="12.75852450690154"><ele>285.0</ele><time>2026-04-19T09:51:05Z</time></trkpt><trkpt lat="42.76099769601167" lon="12.758379142110982"><ele>287.0</ele><time>2026-04-19T09:51:06Z</time></trkpt><trkpt lat="42.76088893691954" lon="12.75824360101559"><ele>289.0</ele><time>2026-04-19T09:51:07Z</time></trkpt><trkpt lat="42.76077309326863" lon="12.758108404631887"><ele>289.0</ele><time>2026-04-19T09:51:08Z</time></trkpt><trkpt lat="42.76065207119476" lon="12.75797269061512"><ele>289.0</ele><time>2026-04-19T09:51:09Z</time></trkpt><trkpt lat="42.760531594913026" lon="12.757836942649638"><ele>289.0</ele><time>2026-04-19T09:51:10Z</time></trkpt><trkpt lat="42.76039987039184" lon="12.757703588524437"><ele>289.0</ele><time>2026-04-19T09:51:11Z</time></trkpt><trkpt lat="42.7602696734543" lon="12.757576340648907"><ele>289.0</ele><time>2026-04-19T09:51:12Z</time></trkpt><trkpt lat="42.760140544053556" lon="12.757456265953053"><ele>289.0</ele><time>2026-04-19T09:51:13Z</time></trkpt><trkpt lat="42.76000928874524" lon="12.75733795241628"><ele>289.0</ele><time>2026-04-19T09:51:14Z</time></trkpt><trkpt lat="42.75987725904566" lon="12.757226958819441"><ele>289.0</ele><time>2026-04-19T09:51:15Z</time></trkpt><trkpt lat="42.75974180844138" lon="12.757116651893169"><ele>289.0</ele><time>2026-04-19T09:51:16Z</time></trkpt><trkpt lat="42.75960464984859" lon="12.757014243788158"><ele>289.0</ele><time>2026-04-19T09:51:17Z</time></trkpt><trkpt lat="42.75946741950953" lon="12.756910709719337"><ele>289.0</ele><time>2026-04-19T09:51:18Z</time></trkpt><trkpt lat="42.75933103254482" lon="12.756803145933324"><ele>289.0</ele><time>2026-04-19T09:51:19Z</time></trkpt><trkpt lat="42.75919633373048" lon="12.756689213224524"><ele>288.3333333333333</ele><time>2026-04-19T09:51:20Z</time></trkpt><trkpt lat="42.75906171058529" lon="12.756577239097577"><ele>287.6666666666667</ele><time>2026-04-19T09:51:21Z</time></trkpt><trkpt lat="42.75892983261058" lon="12.756473301072004"><ele>287.0</ele><time>2026-04-19T09:51:22Z</time></trkpt><trkpt lat="42.75879151132214" lon="12.75636961416745"><ele>287.0</ele><time>2026-04-19T09:51:23Z</time></trkpt><trkpt lat="42.7586564137634" lon="12.756261515887747"><ele>287.0</ele><time>2026-04-19T09:51:24Z</time></trkpt><trkpt lat="42.75851290696301" lon="12.756149899724416"><ele>287.0</ele><time>2026-04-19T09:51:25Z</time></trkpt><trkpt lat="42.758380782725126" lon="12.756040929275944"><ele>286.6666666666667</ele><time>2026-04-19T09:51:26Z</time></trkpt><trkpt lat="42.75824160588684" lon="12.755930223291454"><ele>286.3333333333333</ele><time>2026-04-19T09:51:27Z</time></trkpt><trkpt lat="42.75809966896973" lon="12.755819712391105"><ele>286.0</ele><time>2026-04-19T09:51:27.999Z</time></trkpt><trkpt lat="42.75795226110907" lon="12.755706485795388"><ele>286.0</ele><time>2026-04-19T09:51:28.999Z</time></trkpt><trkpt lat="42.75781109977325" lon="12.75559331718488"><ele>286.0</ele><time>2026-04-19T09:51:29.999Z</time></trkpt><trkpt lat="42.757667372577174" lon="12.755481758305072"><ele>286.0</ele><time>2026-04-19T09:51:30.999Z</time></trkpt><trkpt lat="42.7575273275077" lon="12.755366209232207"><ele>286.0</ele><time>2026-04-19T09:51:31.999Z</time></trkpt><trkpt lat="42.757376572289374" lon="12.755248475206065"><ele>286.0</ele><time>2026-04-19T09:51:32.999Z</time></trkpt><trkpt lat="42.757229964571124" lon="12.755130599712926"><ele>286.0</ele><time>2026-04-19T09:51:33.999Z</time></trkpt><trkpt lat="42.75708377291685" lon="12.755012957702286"><ele>286.0</ele><time>2026-04-19T09:51:34.999Z</time></trkpt><trkpt lat="42.75692931864913" lon="12.754895036081955"><ele>286.0</ele><time>2026-04-19T09:51:35.999Z</time></trkpt><trkpt lat="42.7567816948692" lon="12.754778683285423"><ele>286.0</ele><time>2026-04-19T09:51:36.999Z</time></trkpt><trkpt lat="42.75662897776455" lon="12.75465867665077"><ele>287.0</ele><time>2026-04-19T09:51:37.999Z</time></trkpt><trkpt lat="42.7564778039604" lon="12.754540112456231"><ele>288.0</ele><time>2026-04-19T09:51:38.999Z</time></trkpt><trkpt lat="42.75632410241027" lon="12.754421230185642"><ele>289.0</ele><time>2026-04-19T09:51:39.999Z</time></trkpt><trkpt lat="42.75617543299488" lon="12.754304243660442"><ele>291.0</ele><time>2026-04-19T09:51:40.999Z</time></trkpt><trkpt lat="42.75602069884766" lon="12.754188117883006"><ele>293.0</ele><time>2026-04-19T09:51:41.999Z</time></trkpt><trkpt lat="42.755868982881466" lon="12.754065354830256"><ele>295.0</ele><time>2026-04-19T09:51:42.999Z</time></trkpt><trkpt lat="42.75571652038969" lon="12.753945996715043"><ele>295.0</ele><time>2026-04-19T09:51:43.999Z</time></trkpt><trkpt lat="42.75556475539505" lon="12.753821761822861"><ele>295.0</ele><time>2026-04-19T09:51:44.999Z</time></trkpt><trkpt lat="42.75541315456277" lon="12.753696167518271"><ele>295.0</ele><time>2026-04-19T09:51:45.999Z</time></trkpt><trkpt lat="42.75526031199568" lon="12.753569985677098"><ele>294.3333333333333</ele><time>2026-04-19T09:51:46.999Z</time></trkpt><trkpt lat="42.75510698027564" lon="12.75343618948365"><ele>293.6666666666667</ele><time>2026-04-19T09:51:47.999Z</time></trkpt><trkpt lat="42.75495875510012" lon="12.753302328886813"><ele>293.0</ele><time>2026-04-19T09:51:48.999Z</time></trkpt><trkpt lat="42.75481446603991" lon="12.753161846280223"><ele>293.0</ele><time>2026-04-19T09:51:49.999Z</time></trkpt><trkpt lat="42.75466222431209" lon="12.753019710037208"><ele>293.0</ele><time>2026-04-19T09:51:50.999Z</time></trkpt><trkpt lat="42.7545153038434" lon="12.75287824070859"><ele>293.0</ele><time>2026-04-19T09:51:51.999Z</time></trkpt><trkpt lat="42.75436480927116" lon="12.752732929911781"><ele>293.33333333333337</ele><time>2026-04-19T09:51:52.999Z</time></trkpt><trkpt lat="42.75422155703576" lon="12.752592771358902"><ele>293.6666666666667</ele><time>2026-04-19T09:51:53.999Z</time></trkpt><trkpt lat="42.754066639715745" lon="12.752441820287673"><ele>294.0</ele><time>2026-04-19T09:51:54.999Z</time></trkpt><trkpt lat="42.75392632665918" lon="12.752278851292639"><ele>294.0</ele><time>2026-04-19T09:51:55.999Z</time></trkpt><trkpt lat="42.75377926818564" lon="12.752120276882183"><ele>294.0</ele><time>2026-04-19T09:51:56.999Z</time></trkpt><trkpt lat="42.75363533623654" lon="12.751968159370819"><ele>294.0</ele><time>2026-04-19T09:51:57.999Z</time></trkpt><trkpt lat="42.753480024437074" lon="12.751798289867981"><ele>294.6666666666667</ele><time>2026-04-19T09:51:58.999Z</time></trkpt><trkpt lat="42.75332067267063" lon="12.751643023623421"><ele>295.33333333333337</ele><time>2026-04-19T09:51:59.999Z</time></trkpt><trkpt lat="42.753165002092395" lon="12.751486895572397"><ele>296.0</ele><time>2026-04-19T09:52:00.999Z</time></trkpt><trkpt lat="42.75300636966899" lon="12.751327032566993"><ele>296.0</ele><time>2026-04-19T09:52:01.999Z</time></trkpt><trkpt lat="42.75285044266646" lon="12.751162481893486"><ele>296.0</ele><time>2026-04-19T09:52:02.999Z</time></trkpt><trkpt lat="42.752691701493106" lon="12.750999034674658"><ele>296.0</ele><time>2026-04-19T09:52:03.999Z</time></trkpt><trkpt lat="42.7525332499485" lon="12.750835472253858"><ele>295.6666666666667</ele><time>2026-04-19T09:52:04.999Z</time></trkpt><trkpt lat="42.75237102837032" lon="12.750670619328229"><ele>295.3333333333333</ele><time>2026-04-19T09:52:05.999Z</time></trkpt><trkpt lat="42.752212394956665" lon="12.750505776594952"><ele>295.0</ele><time>2026-04-19T09:52:06.999Z</time></trkpt><trkpt lat="42.752049708708135" lon="12.750341939002546"><ele>295.3333333333333</ele><time>2026-04-19T09:52:07.999Z</time></trkpt><trkpt lat="42.7518933995529" lon="12.750178048307832"><ele>295.6666666666667</ele><time>2026-04-19T09:52:08.999Z</time></trkpt><trkpt lat="42.75174363070124" lon="12.75000909455642"><ele>296.0</ele><time>2026-04-19T09:52:09.999Z</time></trkpt><trkpt lat="42.75159042680048" lon="12.74984276112735"><ele>296.33333333333337</ele><time>2026-04-19T09:52:10.999Z</time></trkpt><trkpt lat="42.75143432216455" lon="12.749674884209805"><ele>296.6666666666667</ele><time>2026-04-19T09:52:11.999Z</time></trkpt><trkpt lat="42.75127927486108" lon="12.749506543978994"><ele>297.0</ele><time>2026-04-19T09:52:12.999Z</time></trkpt><trkpt lat="42.75112390869767" lon="12.749343834237148"><ele>297.6666666666667</ele><time>2026-04-19T09:52:13.999Z</time></trkpt><trkpt lat="42.7509637925264" lon="12.749177782874634"><ele>298.33333333333337</ele><time>2026-04-19T09:52:14.999Z</time></trkpt><trkpt lat="42.75080675527022" lon="12.749012046937505"><ele>299.0</ele><time>2026-04-19T09:52:15.999Z</time></trkpt><trkpt lat="42.750646939588805" lon="12.748849474746718"><ele>299.0</ele><time>2026-04-19T09:52:16.999Z</time></trkpt><trkpt lat="42.7504836847717" lon="12.74868234817806"><ele>299.0</ele><time>2026-04-19T09:52:17.999Z</time></trkpt><trkpt lat="42.7503234669447" lon="12.748520287891859"><ele>299.0</ele><time>2026-04-19T09:52:18.999Z</time></trkpt><trkpt lat="42.75016307350101" lon="12.748355548020504"><ele>301.0</ele><time>2026-04-19T09:52:19.999Z</time></trkpt><trkpt lat="42.75000361735438" lon="12.748193624177011"><ele>303.0</ele><time>2026-04-19T09:52:20.999Z</time></trkpt><trkpt lat="42.74984673404102" lon="12.748029330938905"><ele>305.0</ele><time>2026-04-19T09:52:21.999Z</time></trkpt><trkpt lat="42.74969016411997" lon="12.747861734491218"><ele>306.6666666666667</ele><time>2026-04-19T09:52:22.999Z</time></trkpt><trkpt lat="42.74953241600441" lon="12.747696870752238"><ele>308.3333333333333</ele><time>2026-04-19T09:52:23.999Z</time></trkpt><trkpt lat="42.74937704735411" lon="12.747530819090194"><ele>310.0</ele><time>2026-04-19T09:52:24.999Z</time></trkpt><trkpt lat="42.749219223603454" lon="12.747365361260258"><ele>310.0</ele><time>2026-04-19T09:52:25.999Z</time></trkpt><trkpt lat="42.74906145026011" lon="12.747199616307904"><ele>310.0</ele><time>2026-04-19T09:52:26.999Z</time></trkpt><trkpt lat="42.748901159111185" lon="12.74703364219666"><ele>310.0</ele><time>2026-04-19T09:52:27.999Z</time></trkpt><trkpt lat="42.74873924020217" lon="12.74686670854856"><ele>309.66666666666663</ele><time>2026-04-19T09:52:28.999Z</time></trkpt><trkpt lat="42.74857949481333" lon="12.746695096751598"><ele>309.3333333333333</ele><time>2026-04-19T09:52:29.999Z</time></trkpt><trkpt lat="42.74842027088435" lon="12.746525608854508"><ele>309.0</ele><time>2026-04-19T09:52:30.999Z</time></trkpt><trkpt lat="42.748262755065504" lon="12.746360414550251"><ele>309.6666666666667</ele><time>2026-04-19T09:52:31.999Z</time></trkpt><trkpt lat="42.74810908640131" lon="12.746191883542322"><ele>310.33333333333337</ele><time>2026-04-19T09:52:32.999Z</time></trkpt><trkpt lat="42.74794955125782" lon="12.746026353472526"><ele>311.0</ele><time>2026-04-19T09:52:33.999Z</time></trkpt><trkpt lat="42.74778521968627" lon="12.745860492357622"><ele>312.33333333333337</ele><time>2026-04-19T09:52:34.999Z</time></trkpt><trkpt lat="42.74762148367473" lon="12.745695885344444"><ele>313.6666666666667</ele><time>2026-04-19T09:52:35.999Z</time></trkpt><trkpt lat="42.747456813692985" lon="12.745533591234912"><ele>315.0</ele><time>2026-04-19T09:52:36.999Z</time></trkpt><trkpt lat="42.747293777997534" lon="12.745370487120145"><ele>314.3333333333333</ele><time>2026-04-19T09:52:37.999Z</time></trkpt><trkpt lat="42.747127422878535" lon="12.745210427197312"><ele>313.66666666666663</ele><time>2026-04-19T09:52:38.999Z</time></trkpt><trkpt lat="42.74695743945657" lon="12.745056356378283"><ele>313.0</ele><time>2026-04-19T09:52:40Z</time></trkpt><trkpt lat="42.746783863127" lon="12.74491074319842"><ele>315.0</ele><time>2026-04-19T09:52:41Z</time></trkpt><trkpt lat="42.7466056894515" lon="12.744769713396675"><ele>317.0</ele><time>2026-04-19T09:52:42Z</time></trkpt><trkpt lat="42.74642268358327" lon="12.744639121259688"><ele>319.0</ele><time>2026-04-19T09:52:43Z</time></trkpt><trkpt lat="42.74623985480781" lon="12.74452036019924"><ele>319.0</ele><time>2026-04-19T09:52:44Z</time></trkpt><trkpt lat="42.74606602627566" lon="12.744394205564788"><ele>319.0</ele><time>2026-04-19T09:52:45Z</time></trkpt><trkpt lat="42.74589805909067" lon="12.74426348344618"><ele>319.0</ele><time>2026-04-19T09:52:46Z</time></trkpt><trkpt lat="42.745726191296804" lon="12.744134998403242"><ele>320.66666666666663</ele><time>2026-04-19T09:52:47Z</time></trkpt><trkpt lat="42.74556001414772" lon="12.744012771543105"><ele>322.3333333333333</ele><time>2026-04-19T09:52:48Z</time></trkpt><trkpt lat="42.74539732057672" lon="12.743895176498471"><ele>324.0</ele><time>2026-04-19T09:52:49Z</time></trkpt><trkpt lat="42.74524519604165" lon="12.743782341594475"><ele>325.3333333333333</ele><time>2026-04-19T09:52:50Z</time></trkpt><trkpt lat="42.74508934264922" lon="12.743669425110475"><ele>326.66666666666663</ele><time>2026-04-19T09:52:51Z</time></trkpt><trkpt lat="42.74494628953429" lon="12.743563602048864"><ele>328.0</ele><time>2026-04-19T09:52:52Z</time></trkpt><trkpt lat="42.74480875377407" lon="12.743462538160955"><ele>328.0</ele><time>2026-04-19T09:52:53Z</time></trkpt><trkpt lat="42.74467006929266" lon="12.743362108259078"><ele>328.0</ele><time>2026-04-19T09:52:54Z</time></trkpt><trkpt lat="42.74453554182726" lon="12.743265463314454"><ele>328.0</ele><time>2026-04-19T09:52:55Z</time></trkpt><trkpt lat="42.744402777465865" lon="12.743165945884561"><ele>329.66666666666663</ele><time>2026-04-19T09:52:56Z</time></trkpt><trkpt lat="42.74427259000891" lon="12.74306436964793"><ele>331.3333333333333</ele><time>2026-04-19T09:52:57Z</time></trkpt><trkpt lat="42.7441359679957" lon="12.742963073447587"><ele>333.0</ele><time>2026-04-19T09:52:58Z</time></trkpt><trkpt lat="42.74399770152264" lon="12.742862710247033"><ele>333.0</ele><time>2026-04-19T09:52:59Z</time></trkpt><trkpt lat="42.74385782491793" lon="12.742761696545301"><ele>333.0</ele><time>2026-04-19T09:53:00Z</time></trkpt><trkpt lat="42.743717753038005" lon="12.74265544565953"><ele>333.0</ele><time>2026-04-19T09:53:01Z</time></trkpt><trkpt lat="42.74357581517152" lon="12.742544794203766"><ele>333.3333333333333</ele><time>2026-04-19T09:53:02Z</time></trkpt><trkpt lat="42.743429847013964" lon="12.742434036733586"><ele>333.66666666666663</ele><time>2026-04-19T09:53:03Z</time></trkpt><trkpt lat="42.7432811020024" lon="12.742323087749199"><ele>334.0</ele><time>2026-04-19T09:53:04Z</time></trkpt><trkpt lat="42.74313044934766" lon="12.742212385737467"><ele>334.0</ele><time>2026-04-19T09:53:05Z</time></trkpt><trkpt lat="42.742980132255255" lon="12.742104832382777"><ele>334.0</ele><time>2026-04-19T09:53:06Z</time></trkpt><trkpt lat="42.74283946434537" lon="12.74200436052044"><ele>334.0</ele><time>2026-04-19T09:53:07Z</time></trkpt><trkpt lat="42.74269803239526" lon="12.741899959188459"><ele>334.3333333333333</ele><time>2026-04-19T09:53:08Z</time></trkpt><trkpt lat="42.742563474163994" lon="12.74179921329493"><ele>334.6666666666667</ele><time>2026-04-19T09:53:09Z</time></trkpt><trkpt lat="42.74242482632668" lon="12.741695507850595"><ele>335.0</ele><time>2026-04-19T09:53:10Z</time></trkpt><trkpt lat="42.74228785740724" lon="12.74159160333266"><ele>335.0</ele><time>2026-04-19T09:53:11Z</time></trkpt><trkpt lat="42.74214774309763" lon="12.74149017701587"><ele>335.0</ele><time>2026-04-19T09:53:12Z</time></trkpt><trkpt lat="42.742019310423935" lon="12.741395948952883"><ele>335.0</ele><time>2026-04-19T09:53:13Z</time></trkpt><trkpt lat="42.741888484285894" lon="12.741302326772097"><ele>334.75</ele><time>2026-04-19T09:53:14Z</time></trkpt><trkpt lat="42.741765487845555" lon="12.741220282932396"><ele>334.5</ele><time>2026-04-19T09:53:15Z</time></trkpt><trkpt lat="42.741637603879724" lon="12.741132868586062"><ele>334.25</ele><time>2026-04-19T09:53:16Z</time></trkpt><trkpt lat="42.74150612439252" lon="12.741054087545315"><ele>334.0</ele><time>2026-04-19T09:53:17Z</time></trkpt><trkpt lat="42.74137301024804" lon="12.740979853554492"><ele>334.0</ele><time>2026-04-19T09:53:18Z</time></trkpt><trkpt lat="42.74123153012921" lon="12.740922312050701"><ele>334.0</ele><time>2026-04-19T09:53:19Z</time></trkpt><trkpt lat="42.741086066362435" lon="12.740887040390422"><ele>334.0</ele><time>2026-04-19T09:53:20Z</time></trkpt><trkpt lat="42.740943494438234" lon="12.740860358350734"><ele>334.0</ele><time>2026-04-19T09:53:21Z</time></trkpt><trkpt lat="42.74078684165321" lon="12.740856097090779"><ele>334.3333333333333</ele><time>2026-04-19T09:53:22Z</time></trkpt><trkpt lat="42.740634969583745" lon="12.740840605601468"><ele>334.6666666666667</ele><time>2026-04-19T09:53:23Z</time></trkpt><trkpt lat="42.740484288421214" lon="12.740848945941424"><ele>335.0</ele><time>2026-04-19T09:53:24Z</time></trkpt><trkpt lat="42.74032313636671" lon="12.740872590509209"><ele>335.0</ele><time>2026-04-19T09:53:24.999Z</time></trkpt><trkpt lat="42.740164450051275" lon="12.74090802681258"><ele>335.0</ele><time>2026-04-19T09:53:25.999Z</time></trkpt><trkpt lat="42.74001481561678" lon="12.740966784293574"><ele>335.0</ele><time>2026-04-19T09:53:26.999Z</time></trkpt><trkpt lat="42.73985640843363" lon="12.741028367967754"><ele>339.0</ele><time>2026-04-19T09:53:27.999Z</time></trkpt><trkpt lat="42.73969716350212" lon="12.741089208409067"><ele>343.0</ele><time>2026-04-19T09:53:28.999Z</time></trkpt><trkpt lat="42.73953424893234" lon="12.741148420108344"><ele>347.0</ele><time>2026-04-19T09:53:29.999Z</time></trkpt><trkpt lat="42.73937316226792" lon="12.74120655040066"><ele>347.0</ele><time>2026-04-19T09:53:30.999Z</time></trkpt><trkpt lat="42.73920915951808" lon="12.741268690311609"><ele>347.0</ele><time>2026-04-19T09:53:31.999Z</time></trkpt><trkpt lat="42.739045375954724" lon="12.741332750831079"><ele>347.0</ele><time>2026-04-19T09:53:32.999Z</time></trkpt><trkpt lat="42.73888010115241" lon="12.741396715958311"><ele>347.0</ele><time>2026-04-19T09:53:33.999Z</time></trkpt><trkpt lat="42.73871423169397" lon="12.741458936285323"><ele>347.0</ele><time>2026-04-19T09:53:34.999Z</time></trkpt><trkpt lat="42.73855450701145" lon="12.741521607584312"><ele>347.0</ele><time>2026-04-19T09:53:35.999Z</time></trkpt><trkpt lat="42.7383921046551" lon="12.741567589187488"><ele>343.33333333333337</ele><time>2026-04-19T09:53:36.999Z</time></trkpt><trkpt lat="42.738232100471855" lon="12.741609771454867"><ele>339.6666666666667</ele><time>2026-04-19T09:53:37.999Z</time></trkpt><trkpt lat="42.738061664525155" lon="12.741713632034978"><ele>336.0</ele><time>2026-04-19T09:53:38.999Z</time></trkpt><trkpt lat="42.737906927651274" lon="12.74176766577496"><ele>336.0</ele><time>2026-04-19T09:53:39.999Z</time></trkpt><trkpt lat="42.737733845313805" lon="12.741827969478917"><ele>336.0</ele><time>2026-04-19T09:53:40.999Z</time></trkpt><trkpt lat="42.73757197276666" lon="12.741884147571712"><ele>336.0</ele><time>2026-04-19T09:53:41.999Z</time></trkpt><trkpt lat="42.73741208838464" lon="12.741940526267495"><ele>335.3333333333333</ele><time>2026-04-19T09:53:42.999Z</time></trkpt><trkpt lat="42.73724783390915" lon="12.74198743044093"><ele>334.66666666666663</ele><time>2026-04-19T09:53:43.999Z</time></trkpt><trkpt lat="42.737080318435716" lon="12.742006929525092"><ele>334.0</ele><time>2026-04-19T09:53:44.999Z</time></trkpt><trkpt lat="42.73691401998469" lon="12.742003742077314"><ele>336.0</ele><time>2026-04-19T09:53:45.999Z</time></trkpt><trkpt lat="42.73675309019391" lon="12.741987834755172"><ele>338.0</ele><time>2026-04-19T09:53:46.999Z</time></trkpt><trkpt lat="42.73657179043887" lon="12.741962118032783"><ele>340.0</ele><time>2026-04-19T09:53:47.999Z</time></trkpt><trkpt lat="42.73640209760931" lon="12.74191906922529"><ele>339.3333333333333</ele><time>2026-04-19T09:53:48.999Z</time></trkpt><trkpt lat="42.73623792486196" lon="12.74185958773571"><ele>338.6666666666667</ele><time>2026-04-19T09:53:49.999Z</time></trkpt><trkpt lat="42.73606920717443" lon="12.7417980357899"><ele>338.0</ele><time>2026-04-19T09:53:50.999Z</time></trkpt><trkpt lat="42.73590359177679" lon="12.74174988217121"><ele>351.6666666666667</ele><time>2026-04-19T09:53:51.999Z</time></trkpt><trkpt lat="42.73573965259767" lon="12.74168195929752"><ele>365.3333333333333</ele><time>2026-04-19T09:53:52.999Z</time></trkpt><trkpt lat="42.735574291320994" lon="12.74162767443317"><ele>379.0</ele><time>2026-04-19T09:53:53.999Z</time></trkpt><trkpt lat="42.735410531572064" lon="12.741575104672892"><ele>379.0</ele><time>2026-04-19T09:53:54.999Z</time></trkpt><trkpt lat="42.735254794375535" lon="12.741526206040062"><ele>379.0</ele><time>2026-04-19T09:53:55.999Z</time></trkpt><trkpt lat="42.73509532405787" lon="12.74148855455446"><ele>379.0</ele><time>2026-04-19T09:53:56.999Z</time></trkpt><trkpt lat="42.73492824826368" lon="12.741421967798454"><ele>395.0</ele><time>2026-04-19T09:53:58.062Z</time></trkpt><trkpt lat="42.734768280978855" lon="12.741365945267843"><ele>411.0</ele><time>2026-04-19T09:53:59.059Z</time></trkpt><trkpt lat="42.734591206020056" lon="12.741303834523396"><ele>427.0</ele><time>2026-04-19T09:54:00.061Z</time></trkpt><trkpt lat="42.734426801345556" lon="12.741248411389298"><ele>438.0</ele><time>2026-04-19T09:54:01.059Z</time></trkpt><trkpt lat="42.73424665351449" lon="12.74118751163517"><ele>449.0</ele><time>2026-04-19T09:54:02.05Z</time></trkpt><trkpt lat="42.73408276877583" lon="12.74113624027585"><ele>460.0</ele><time>2026-04-19T09:54:03.037Z</time></trkpt><trkpt lat="42.73391746399351" lon="12.741084523012113"><ele>454.6666666666667</ele><time>2026-04-19T09:54:04.033Z</time></trkpt><trkpt lat="42.73375119735614" lon="12.741032504998554"><ele>449.33333333333337</ele><time>2026-04-19T09:54:05.029Z</time></trkpt><trkpt lat="42.733586917206964" lon="12.740980286272833"><ele>444.0</ele><time>2026-04-19T09:54:06.029Z</time></trkpt><trkpt lat="42.73342202216777" lon="12.740925603985827"><ele>366.0</ele><time>2026-04-19T09:54:07.027Z</time></trkpt><trkpt lat="42.731428082368794" lon="12.740234621393643"><ele>365.0</ele><time>2026-04-19T09:54:14.999Z</time></trkpt><trkpt lat="42.73125014786012" lon="12.740162484088682"><ele>364.0</ele><time>2026-04-19T09:54:15.999Z</time></trkpt><trkpt lat="42.73109557540951" lon="12.740102129288768"><ele>363.0</ele><time>2026-04-19T09:54:16.999Z</time></trkpt><trkpt lat="42.730939391839435" lon="12.740001737536394"><ele>363.0</ele><time>2026-04-19T09:54:17.999Z</time></trkpt><trkpt lat="42.73078484666935" lon="12.739882890828994"><ele>363.0</ele><time>2026-04-19T09:54:18.999Z</time></trkpt><trkpt lat="42.73062929294223" lon="12.739753614689974"><ele>363.0</ele><time>2026-04-19T09:54:19.999Z</time></trkpt><trkpt lat="42.73048548224849" lon="12.739611560843464"><ele>363.0</ele><time>2026-04-19T09:54:20.999Z</time></trkpt><trkpt lat="42.73033985394999" lon="12.73945831193846"><ele>363.0</ele><time>2026-04-19T09:54:21.999Z</time></trkpt><trkpt lat="42.73020792018879" lon="12.739287251479364"><ele>363.0</ele><time>2026-04-19T09:54:22.999Z</time></trkpt><trkpt lat="42.73007292269095" lon="12.739118221299458"><ele>363.0</ele><time>2026-04-19T09:54:23.999Z</time></trkpt><trkpt lat="42.72994357338146" lon="12.738946141817737"><ele>363.0</ele><time>2026-04-19T09:54:24.999Z</time></trkpt><trkpt lat="42.729795918657864" lon="12.738757685446684"><ele>363.0</ele><time>2026-04-19T09:54:25.999Z</time></trkpt><trkpt lat="42.729661105347716" lon="12.738587240508016"><ele>363.3333333333333</ele><time>2026-04-19T09:54:26.999Z</time></trkpt><trkpt lat="42.729521845590114" lon="12.738418734012123"><ele>363.66666666666663</ele><time>2026-04-19T09:54:27.999Z</time></trkpt><trkpt lat="42.72938538905022" lon="12.738251898475845"><ele>364.0</ele><time>2026-04-19T09:54:28.999Z</time></trkpt><trkpt lat="42.72924816323498" lon="12.738082311515637"><ele>364.0</ele><time>2026-04-19T09:54:29.999Z</time></trkpt><trkpt lat="42.7291172847799" lon="12.7379178597534"><ele>364.0</ele><time>2026-04-19T09:54:30.999Z</time></trkpt><trkpt lat="42.728993854870794" lon="12.737764873371049"><ele>364.0</ele><time>2026-04-19T09:54:31.999Z</time></trkpt><trkpt lat="42.72887790412712" lon="12.737617737794277"><ele>363.25</ele><time>2026-04-19T09:54:32.999Z</time></trkpt><trkpt lat="42.72877148781066" lon="12.73748227562326"><ele>362.5</ele><time>2026-04-19T09:54:33.999Z</time></trkpt><trkpt lat="42.7286714664948" lon="12.737354957769444"><ele>361.75</ele><time>2026-04-19T09:54:34.999Z</time></trkpt><trkpt lat="42.728575960085315" lon="12.737232387944449"><ele>361.0</ele><time>2026-04-19T09:54:35.999Z</time></trkpt><trkpt lat="42.728483367125584" lon="12.737111295810202"><ele>362.25</ele><time>2026-04-19T09:54:36.999Z</time></trkpt><trkpt lat="42.72839372715293" lon="12.736994338672414"><ele>363.5</ele><time>2026-04-19T09:54:37.999Z</time></trkpt><trkpt lat="42.728305128073416" lon="12.73688329210125"><ele>364.75</ele><time>2026-04-19T09:54:38.999Z</time></trkpt><trkpt lat="42.72821909658646" lon="12.736777990023654"><ele>366.0</ele><time>2026-04-19T09:54:39.999Z</time></trkpt><trkpt lat="42.728133024495584" lon="12.736674174879305"><ele>366.0</ele><time>2026-04-19T09:54:40.999Z</time></trkpt><trkpt lat="42.72805223014528" lon="12.736569326104114"><ele>366.0</ele><time>2026-04-19T09:54:41.999Z</time></trkpt><trkpt lat="42.72797762954159" lon="12.736472098673348"><ele>366.0</ele><time>2026-04-19T09:54:42.999Z</time></trkpt><trkpt lat="42.72790353328551" lon="12.736375884563937"><ele>366.0</ele><time>2026-04-19T09:54:43.999Z</time></trkpt><trkpt lat="42.72784264607859" lon="12.73629859132829"><ele>366.0</ele><time>2026-04-19T09:54:44.999Z</time></trkpt><trkpt lat="42.72776956997065" lon="12.736186268297551"><ele>366.0</ele><time>2026-04-19T09:54:47Z</time></trkpt><trkpt lat="42.7277369250977" lon="12.736061722576883"><ele>366.0</ele><time>2026-04-19T09:54:49Z</time></trkpt><trkpt lat="42.72767612917554" lon="12.735928166221687"><ele>366.0</ele><time>2026-04-19T09:54:51Z</time></trkpt><trkpt lat="42.727612993162786" lon="12.735887836120654"><ele>366.0</ele><time>2026-04-19T09:54:52Z</time></trkpt><trkpt lat="42.72749148941812" lon="12.73584788612194"><ele>366.0</ele><time>2026-04-19T09:54:54Z</time></trkpt><trkpt lat="42.72742674816368" lon="12.735798093651715"><ele>366.20000000000005</ele><time>2026-04-19T09:54:55Z</time></trkpt><trkpt lat="42.72736980072143" lon="12.735722704952893"><ele>366.40000000000003</ele><time>2026-04-19T09:54:56Z</time></trkpt><trkpt lat="42.72731213684809" lon="12.735629270905495"><ele>366.6</ele><time>2026-04-19T09:54:57Z</time></trkpt><trkpt lat="42.72724526269637" lon="12.735538405277154"><ele>366.8</ele><time>2026-04-19T09:54:58Z</time></trkpt><trkpt lat="42.7271675258742" lon="12.735452088351543"><ele>367.0</ele><time>2026-04-19T09:54:59Z</time></trkpt><trkpt lat="42.72708403272175" lon="12.735358411100503"><ele>367.0</ele><time>2026-04-19T09:55:00Z</time></trkpt><trkpt lat="42.72699880620243" lon="12.735265190578023"><ele>367.0</ele><time>2026-04-19T09:55:01Z</time></trkpt><trkpt lat="42.726899523356444" lon="12.735178938439493"><ele>367.0</ele><time>2026-04-19T09:55:02Z</time></trkpt><trkpt lat="42.72679658962857" lon="12.735109764317226"><ele>367.0</ele><time>2026-04-19T09:55:03Z</time></trkpt><trkpt lat="42.72668776840683" lon="12.735046302340324"><ele>367.5</ele><time>2026-04-19T09:55:04Z</time></trkpt><trkpt lat="42.72658042272041" lon="12.734988711078435"><ele>368.0</ele><time>2026-04-19T09:55:05Z</time></trkpt><trkpt lat="42.726467493534415" lon="12.734939527229457"><ele>368.5</ele><time>2026-04-19T09:55:06Z</time></trkpt><trkpt lat="42.72634884352321" lon="12.734903703573464"><ele>369.0</ele><time>2026-04-19T09:55:07Z</time></trkpt><trkpt lat="42.72622138015357" lon="12.734881685710272"><ele>369.0</ele><time>2026-04-19T09:55:08Z</time></trkpt><trkpt lat="42.726088051770745" lon="12.734864743085815"><ele>369.0</ele><time>2026-04-19T09:55:09Z</time></trkpt><trkpt lat="42.72594704583131" lon="12.734846683008557"><ele>369.0</ele><time>2026-04-19T09:55:10Z</time></trkpt><trkpt lat="42.72580235364286" lon="12.73482674723267"><ele>369.0</ele><time>2026-04-19T09:55:11Z</time></trkpt><trkpt lat="42.72565700566989" lon="12.734810728916214"><ele>370.3333333333333</ele><time>2026-04-19T09:55:12Z</time></trkpt><trkpt lat="42.72550997840441" lon="12.734785351156914"><ele>371.66666666666663</ele><time>2026-04-19T09:55:13Z</time></trkpt><trkpt lat="42.72535643272782" lon="12.734759413287883"><ele>373.0</ele><time>2026-04-19T09:55:14Z</time></trkpt><trkpt lat="42.725199400715304" lon="12.734735736834258"><ele>374.0</ele><time>2026-04-19T09:55:15Z</time></trkpt><trkpt lat="42.72503997213906" lon="12.734711291934163"><ele>375.0</ele><time>2026-04-19T09:55:16Z</time></trkpt><trkpt lat="42.72488045594184" lon="12.734686666819057"><ele>376.0</ele><time>2026-04-19T09:55:17Z</time></trkpt><trkpt lat="42.724723798306236" lon="12.734662916638094"><ele>376.0</ele><time>2026-04-19T09:55:18Z</time></trkpt><trkpt lat="42.72457141938239" lon="12.734639874320651"><ele>376.0</ele><time>2026-04-19T09:55:19Z</time></trkpt><trkpt lat="42.72443051683647" lon="12.73462074529089"><ele>376.0</ele><time>2026-04-19T09:55:20Z</time></trkpt><trkpt lat="42.724287936188475" lon="12.73460083767846"><ele>376.0</ele><time>2026-04-19T09:55:21Z</time></trkpt><trkpt lat="42.72414273330624" lon="12.734576034406683"><ele>376.66666666666663</ele><time>2026-04-19T09:55:22Z</time></trkpt><trkpt lat="42.72399526773831" lon="12.73453110217633"><ele>377.3333333333333</ele><time>2026-04-19T09:55:23Z</time></trkpt><trkpt lat="42.72384696998494" lon="12.734466312192087"><ele>378.0</ele><time>2026-04-19T09:55:24Z</time></trkpt><trkpt lat="42.723696203573375" lon="12.734373942468562"><ele>378.6666666666667</ele><time>2026-04-19T09:55:25Z</time></trkpt><trkpt lat="42.72355125727921" lon="12.73426554651971"><ele>379.33333333333337</ele><time>2026-04-19T09:55:25.999Z</time></trkpt><trkpt lat="42.723416278752794" lon="12.73413803713529"><ele>380.0</ele><time>2026-04-19T09:55:26.999Z</time></trkpt><trkpt lat="42.72328867463172" lon="12.733985266996777"><ele>380.0</ele><time>2026-04-19T09:55:27.999Z</time></trkpt><trkpt lat="42.72317918925152" lon="12.73377740120275"><ele>380.0</ele><time>2026-04-19T09:55:28.999Z</time></trkpt><trkpt lat="42.723052769994965" lon="12.733555685592389"><ele>380.0</ele><time>2026-04-19T09:55:29.999Z</time></trkpt><trkpt lat="42.722903356551825" lon="12.733325130916132"><ele>382.0</ele><time>2026-04-19T09:55:30.999Z</time></trkpt><trkpt lat="42.72276883539292" lon="12.73305984654269"><ele>384.0</ele><time>2026-04-19T09:55:31.999Z</time></trkpt><trkpt lat="42.72263827016011" lon="12.732809045545995"><ele>383.5</ele><time>2026-04-19T09:55:32.999Z</time></trkpt><trkpt lat="42.722505487790286" lon="12.732568808061169"><ele>383.0</ele><time>2026-04-19T09:55:33.999Z</time></trkpt><trkpt lat="42.72235601679597" lon="12.732322382123261"><ele>383.0</ele><time>2026-04-19T09:55:34.999Z</time></trkpt><trkpt lat="42.7222169896447" lon="12.732049969735623"><ele>383.0</ele><time>2026-04-19T09:55:35.999Z</time></trkpt><trkpt lat="42.72206015490804" lon="12.731779438949342"><ele>384.0</ele><time>2026-04-19T09:55:36.999Z</time></trkpt><trkpt lat="42.72189105071902" lon="12.731535639000745"><ele>385.0</ele><time>2026-04-19T09:55:37.999Z</time></trkpt><trkpt lat="42.72173678655641" lon="12.731289804141225"><ele>385.0</ele><time>2026-04-19T09:55:38.999Z</time></trkpt><trkpt lat="42.72157170405192" lon="12.731064316035129"><ele>385.0</ele><time>2026-04-19T09:55:39.999Z</time></trkpt><trkpt lat="42.721399358651865" lon="12.730852707880679"><ele>385.5</ele><time>2026-04-19T09:55:40.999Z</time></trkpt><trkpt lat="42.72123040771136" lon="12.73064811179126"><ele>386.0</ele><time>2026-04-19T09:55:41.999Z</time></trkpt><trkpt lat="42.72105772129507" lon="12.730449230829372"><ele>385.3333333333333</ele><time>2026-04-19T09:55:42.999Z</time></trkpt><trkpt lat="42.72088941480277" lon="12.73024894500179"><ele>384.66666666666663</ele><time>2026-04-19T09:55:43.999Z</time></trkpt><trkpt lat="42.72072203546381" lon="12.730048629975238"><ele>384.0</ele><time>2026-04-19T09:55:44.999Z</time></trkpt><trkpt lat="42.72055712575151" lon="12.729846161001767"><ele>384.0</ele><time>2026-04-19T09:55:45.999Z</time></trkpt><trkpt lat="42.72039184246637" lon="12.729642323949"><ele>384.0</ele><time>2026-04-19T09:55:46.999Z</time></trkpt><trkpt lat="42.72022775982667" lon="12.729444641027708"><ele>384.0</ele><time>2026-04-19T09:55:47.999Z</time></trkpt><trkpt lat="42.72006353955063" lon="12.729247780046217"><ele>384.66666666666663</ele><time>2026-04-19T09:55:48.999Z</time></trkpt><trkpt lat="42.71989633922663" lon="12.729048471407994"><ele>385.3333333333333</ele><time>2026-04-19T09:55:49.999Z</time></trkpt><trkpt lat="42.71973086428184" lon="12.728849357418344"><ele>386.0</ele><time>2026-04-19T09:55:50.999Z</time></trkpt><trkpt lat="42.71956215292634" lon="12.728642309087435"><ele>385.5</ele><time>2026-04-19T09:55:51.999Z</time></trkpt><trkpt lat="42.71939462183656" lon="12.728434240599913"><ele>385.0</ele><time>2026-04-19T09:55:52.999Z</time></trkpt><trkpt lat="42.719225709250544" lon="12.728220870002469"><ele>385.0</ele><time>2026-04-19T09:55:53.999Z</time></trkpt><trkpt lat="42.71905304817222" lon="12.72800777862438"><ele>385.0</ele><time>2026-04-19T09:55:54.999Z</time></trkpt><trkpt lat="42.71888365816031" lon="12.727798484166698"><ele>386.5</ele><time>2026-04-19T09:55:55.999Z</time></trkpt><trkpt lat="42.71871100663907" lon="12.727588125427872"><ele>388.0</ele><time>2026-04-19T09:55:56.999Z</time></trkpt><trkpt lat="42.718539643342616" lon="12.727385172439826"><ele>388.0</ele><time>2026-04-19T09:55:57.999Z</time></trkpt><trkpt lat="42.71836484661526" lon="12.727173575290653"><ele>388.0</ele><time>2026-04-19T09:55:58.999Z</time></trkpt><trkpt lat="42.7181922842618" lon="12.726964311901924"><ele>390.5</ele><time>2026-04-19T09:55:59.999Z</time></trkpt><trkpt lat="42.71801929562163" lon="12.726749281372303"><ele>393.0</ele><time>2026-04-19T09:56:00.999Z</time></trkpt><trkpt lat="42.71784546424441" lon="12.726532232866244"><ele>394.0</ele><time>2026-04-19T09:56:01.999Z</time></trkpt><trkpt lat="42.717671904868" lon="12.726320250629177"><ele>395.0</ele><time>2026-04-19T09:56:02.999Z</time></trkpt><trkpt lat="42.71749861887487" lon="12.726109265799066"><ele>395.0</ele><time>2026-04-19T09:56:03.999Z</time></trkpt><trkpt lat="42.71732277686128" lon="12.725895822053033"><ele>395.0</ele><time>2026-04-19T09:56:04.999Z</time></trkpt><trkpt lat="42.7171472476215" lon="12.725682731812485"><ele>395.0</ele><time>2026-04-19T09:56:05.999Z</time></trkpt><trkpt lat="42.71697471846173" lon="12.725468136686393"><ele>395.0</ele><time>2026-04-19T09:56:06.999Z</time></trkpt><trkpt lat="42.71680089618307" lon="12.72525536741902"><ele>395.0</ele><time>2026-04-19T09:56:07.999Z</time></trkpt><trkpt lat="42.71662524554209" lon="12.72504073880886"><ele>395.0</ele><time>2026-04-19T09:56:08.999Z</time></trkpt><trkpt lat="42.71644765073631" lon="12.724827394917533"><ele>395.0</ele><time>2026-04-19T09:56:09.999Z</time></trkpt><trkpt lat="42.7162732824273" lon="12.72461338731926"><ele>395.0</ele><time>2026-04-19T09:56:10.999Z</time></trkpt><trkpt lat="42.71609661344405" lon="12.724402123994775"><ele>396.5</ele><time>2026-04-19T09:56:11.999Z</time></trkpt><trkpt lat="42.715922137243425" lon="12.724187880034018"><ele>398.0</ele><time>2026-04-19T09:56:12.999Z</time></trkpt><trkpt lat="42.71574852672752" lon="12.723980639247378"><ele>398.0</ele><time>2026-04-19T09:56:13.999Z</time></trkpt><trkpt lat="42.7155730511343" lon="12.723771667521744"><ele>398.0</ele><time>2026-04-19T09:56:14.999Z</time></trkpt><trkpt lat="42.71539884949795" lon="12.723565311503755"><ele>399.0</ele><time>2026-04-19T09:56:15.999Z</time></trkpt><trkpt lat="42.71522465448291" lon="12.723357672779887"><ele>400.0</ele><time>2026-04-19T09:56:16.999Z</time></trkpt><trkpt lat="42.715057915086106" lon="12.723153323208228"><ele>400.0</ele><time>2026-04-19T09:56:17.999Z</time></trkpt><trkpt lat="42.714902610552336" lon="12.722960458373368"><ele>400.0</ele><time>2026-04-19T09:56:18.999Z</time></trkpt><trkpt lat="42.71475087192737" lon="12.722783447623154"><ele>400.0</ele><time>2026-04-19T09:56:19.999Z</time></trkpt><trkpt lat="42.71459891204706" lon="12.722600646542213"><ele>400.6666666666667</ele><time>2026-04-19T09:56:20.999Z</time></trkpt><trkpt lat="42.71445939007499" lon="12.722406690375557"><ele>401.33333333333337</ele><time>2026-04-19T09:56:21.999Z</time></trkpt><trkpt lat="42.71432423414665" lon="12.722239557508136"><ele>402.0</ele><time>2026-04-19T09:56:22.999Z</time></trkpt><trkpt lat="42.714186012465746" lon="12.722081931762041"><ele>402.0</ele><time>2026-04-19T09:56:23.999Z</time></trkpt><trkpt lat="42.714050373141745" lon="12.721921099030153"><ele>402.0</ele><time>2026-04-19T09:56:24.999Z</time></trkpt><trkpt lat="42.713919081434305" lon="12.721749583209498"><ele>402.0</ele><time>2026-04-19T09:56:25.999Z</time></trkpt><trkpt lat="42.71378447289027" lon="12.721586638808692"><ele>402.33333333333337</ele><time>2026-04-19T09:56:26.999Z</time></trkpt><trkpt lat="42.71364803828335" lon="12.721420758334336"><ele>402.6666666666667</ele><time>2026-04-19T09:56:27.999Z</time></trkpt><trkpt lat="42.71350996983355" lon="12.721254348361171"><ele>403.0</ele><time>2026-04-19T09:56:28.999Z</time></trkpt><trkpt lat="42.71337044589656" lon="12.72108882156069"><ele>404.33333333333337</ele><time>2026-04-19T09:56:29.999Z</time></trkpt><trkpt lat="42.71323165200652" lon="12.720922015583074"><ele>405.66666666666663</ele><time>2026-04-19T09:56:30.999Z</time></trkpt><trkpt lat="42.713094645720105" lon="12.720747409116331"><ele>407.0</ele><time>2026-04-19T09:56:31.999Z</time></trkpt><trkpt lat="42.712951160464215" lon="12.72058501876184"><ele>407.0</ele><time>2026-04-19T09:56:32.999Z</time></trkpt><trkpt lat="42.712798190326275" lon="12.720432528286644"><ele>407.0</ele><time>2026-04-19T09:56:33.999Z</time></trkpt><trkpt lat="42.71262807225148" lon="12.720292203349876"><ele>407.0</ele><time>2026-04-19T09:56:34.999Z</time></trkpt><trkpt lat="42.712457154885925" lon="12.72016191292224"><ele>406.66666666666663</ele><time>2026-04-19T09:56:35.999Z</time></trkpt><trkpt lat="42.712270660068285" lon="12.72005060074654"><ele>406.33333333333337</ele><time>2026-04-19T09:56:36.999Z</time></trkpt><trkpt lat="42.712077212384465" lon="12.719942753959835"><ele>406.0</ele><time>2026-04-19T09:56:37.999Z</time></trkpt><trkpt lat="42.71188329799748" lon="12.719841465236554"><ele>406.0</ele><time>2026-04-19T09:56:38.999Z</time></trkpt><trkpt lat="42.71169224494741" lon="12.719759485889321"><ele>406.0</ele><time>2026-04-19T09:56:39.999Z</time></trkpt><trkpt lat="42.71150118666421" lon="12.719692584115872"><ele>406.0</ele><time>2026-04-19T09:56:40.999Z</time></trkpt><trkpt lat="42.71131331775622" lon="12.719653105801818"><ele>406.0</ele><time>2026-04-19T09:56:41.999Z</time></trkpt><trkpt lat="42.711133875243966" lon="12.719620651887716"><ele>406.0</ele><time>2026-04-19T09:56:42.999Z</time></trkpt><trkpt lat="42.710959552458775" lon="12.71958557019951"><ele>406.0</ele><time>2026-04-19T09:56:43.999Z</time></trkpt><trkpt lat="42.71079916651902" lon="12.719548949018101"><ele>406.0</ele><time>2026-04-19T09:56:44.999Z</time></trkpt><trkpt lat="42.71062436147109" lon="12.71951066030881"><ele>406.0</ele><time>2026-04-19T09:56:45.999Z</time></trkpt><trkpt lat="42.71045520741898" lon="12.719470454295552"><ele>406.0</ele><time>2026-04-19T09:56:46.999Z</time></trkpt><trkpt lat="42.71029975790586" lon="12.719435885940541"><ele>406.6666666666667</ele><time>2026-04-19T09:56:47.999Z</time></trkpt><trkpt lat="42.71013843442912" lon="12.719402568864073"><ele>407.33333333333337</ele><time>2026-04-19T09:56:48.999Z</time></trkpt><trkpt lat="42.70998322748447" lon="12.719366989967579"><ele>408.0</ele><time>2026-04-19T09:56:49.999Z</time></trkpt><trkpt lat="42.70982551217945" lon="12.719331098024819"><ele>408.33333333333337</ele><time>2026-04-19T09:56:50.999Z</time></trkpt><trkpt lat="42.7096723512669" lon="12.719300130192265"><ele>408.6666666666667</ele><time>2026-04-19T09:56:52Z</time></trkpt><trkpt lat="42.709521263243474" lon="12.719259846356419"><ele>409.0</ele><time>2026-04-19T09:56:53Z</time></trkpt><trkpt lat="42.7093788444133" lon="12.719224390708899"><ele>409.5</ele><time>2026-04-19T09:56:54Z</time></trkpt><trkpt lat="42.709238051269786" lon="12.719200321644587"><ele>410.0</ele><time>2026-04-19T09:56:55Z</time></trkpt><trkpt lat="42.709113558867806" lon="12.719182011731027"><ele>410.5</ele><time>2026-04-19T09:56:56Z</time></trkpt><trkpt lat="42.70898534288419" lon="12.719164797172638"><ele>411.0</ele><time>2026-04-19T09:56:57Z</time></trkpt><trkpt lat="42.7088502338565" lon="12.719152042998646"><ele>411.0</ele><time>2026-04-19T09:56:58Z</time></trkpt><trkpt lat="42.708716918117766" lon="12.719148128484573"><ele>411.0</ele><time>2026-04-19T09:56:59Z</time></trkpt><trkpt lat="42.708564458608" lon="12.719157507488971"><ele>411.0</ele><time>2026-04-19T09:57:00Z</time></trkpt><trkpt lat="42.70840732656099" lon="12.71917282737243"><ele>411.0</ele><time>2026-04-19T09:57:01Z</time></trkpt><trkpt lat="42.708248481711394" lon="12.71919027329885"><ele>412.0</ele><time>2026-04-19T09:57:02Z</time></trkpt><trkpt lat="42.70807612404861" lon="12.71921861926319"><ele>413.0</ele><time>2026-04-19T09:57:03Z</time></trkpt><trkpt lat="42.70789218309133" lon="12.719267087213957"><ele>414.0</ele><time>2026-04-19T09:57:04Z</time></trkpt><trkpt lat="42.70769825997991" lon="12.719339914182964"><ele>413.33333333333337</ele><time>2026-04-19T09:57:05Z</time></trkpt><trkpt lat="42.707493631827134" lon="12.719430847575348"><ele>412.6666666666667</ele><time>2026-04-19T09:57:06Z</time></trkpt><trkpt lat="42.707285025425314" lon="12.719539055877078"><ele>412.0</ele><time>2026-04-19T09:57:07Z</time></trkpt><trkpt lat="42.70707866254797" lon="12.719647051848638"><ele>413.33333333333337</ele><time>2026-04-19T09:57:08Z</time></trkpt><trkpt lat="42.70686972458139" lon="12.71976680754605"><ele>414.66666666666663</ele><time>2026-04-19T09:57:09Z</time></trkpt><trkpt lat="42.70667038256504" lon="12.719899197725551"><ele>416.0</ele><time>2026-04-19T09:57:10Z</time></trkpt><trkpt lat="42.70647593009429" lon="12.720023479895987"><ele>416.0</ele><time>2026-04-19T09:57:11Z</time></trkpt><trkpt lat="42.706276637911174" lon="12.720149107212041"><ele>416.0</ele><time>2026-04-19T09:57:12Z</time></trkpt><trkpt lat="42.706074541690235" lon="12.720274476930525"><ele>416.0</ele><time>2026-04-19T09:57:13Z</time></trkpt><trkpt lat="42.705870946968496" lon="12.720401567355388"><ele>417.0</ele><time>2026-04-19T09:57:14Z</time></trkpt><trkpt lat="42.70566109791485" lon="12.72053107880195"><ele>418.0</ele><time>2026-04-19T09:57:15Z</time></trkpt><trkpt lat="42.7054404694136" lon="12.720659232528654"><ele>420.0</ele><time>2026-04-19T09:57:16Z</time></trkpt><trkpt lat="42.70521420235632" lon="12.7207784779715"><ele>422.0</ele><time>2026-04-19T09:57:17Z</time></trkpt><trkpt lat="42.70499874415224" lon="12.720895414067336"><ele>422.0</ele><time>2026-04-19T09:57:18Z</time></trkpt><trkpt lat="42.70477424192428" lon="12.721022834739149"><ele>422.0</ele><time>2026-04-19T09:57:19Z</time></trkpt><trkpt lat="42.70455826627499" lon="12.721154508710542"><ele>423.0</ele><time>2026-04-19T09:57:20Z</time></trkpt><trkpt lat="42.70432912988524" lon="12.721296715371622"><ele>424.0</ele><time>2026-04-19T09:57:21Z</time></trkpt><trkpt lat="42.704106161546" lon="12.72143281342109"><ele>424.0</ele><time>2026-04-19T09:57:22Z</time></trkpt><trkpt lat="42.70388178365285" lon="12.72157026220975"><ele>424.0</ele><time>2026-04-19T09:57:23Z</time></trkpt><trkpt lat="42.70365376674681" lon="12.721704999553706"><ele>425.5</ele><time>2026-04-19T09:57:24Z</time></trkpt><trkpt lat="42.703423054710676" lon="12.721841827585651"><ele>427.0</ele><time>2026-04-19T09:57:25Z</time></trkpt><trkpt lat="42.70319964818186" lon="12.721977335015858"><ele>427.0</ele><time>2026-04-19T09:57:26Z</time></trkpt><trkpt lat="42.702982710019086" lon="12.722110039517188"><ele>427.0</ele><time>2026-04-19T09:57:27Z</time></trkpt><trkpt lat="42.702767331345974" lon="12.7222414517207"><ele>432.0</ele><time>2026-04-19T09:57:28Z</time></trkpt><trkpt lat="42.70254824424565" lon="12.722371001204795"><ele>437.0</ele><time>2026-04-19T09:57:29Z</time></trkpt><trkpt lat="42.70233073252103" lon="12.722502586201552"><ele>437.0</ele><time>2026-04-19T09:57:30Z</time></trkpt><trkpt lat="42.702112450042776" lon="12.722637689618448"><ele>437.0</ele><time>2026-04-19T09:57:31Z</time></trkpt><trkpt lat="42.701894425866655" lon="12.722770627803563"><ele>434.66666666666663</ele><time>2026-04-19T09:57:32Z</time></trkpt><trkpt lat="42.701684591708684" lon="12.722900190914165"><ele>432.33333333333337</ele><time>2026-04-19T09:57:33Z</time></trkpt><trkpt lat="42.70148567170403" lon="12.722995496182243"><ele>430.0</ele><time>2026-04-19T09:57:34Z</time></trkpt><trkpt lat="42.70128635886298" lon="12.72308481561599"><ele>430.0</ele><time>2026-04-19T09:57:35Z</time></trkpt><trkpt lat="42.70108373874587" lon="12.723147140903986"><ele>430.0</ele><time>2026-04-19T09:57:35.999Z</time></trkpt><trkpt lat="42.70087078547611" lon="12.723187635181839"><ele>430.0</ele><time>2026-04-19T09:57:36.999Z</time></trkpt><trkpt lat="42.70064868177267" lon="12.723211648411766"><ele>432.6666666666667</ele><time>2026-04-19T09:57:37.999Z</time></trkpt><trkpt lat="42.700427176899275" lon="12.723214484202495"><ele>435.33333333333337</ele><time>2026-04-19T09:57:38.999Z</time></trkpt><trkpt lat="42.70020180666279" lon="12.723184005358682"><ele>438.0</ele><time>2026-04-19T09:57:39.999Z</time></trkpt><trkpt lat="42.699983200532" lon="12.723130737020837"><ele>439.0</ele><time>2026-04-19T09:57:40.999Z</time></trkpt><trkpt lat="42.699761757780564" lon="12.723054970272598"><ele>440.0</ele><time>2026-04-19T09:57:41.999Z</time></trkpt><trkpt lat="42.69953601312222" lon="12.722957556036505"><ele>438.0</ele><time>2026-04-19T09:57:42.999Z</time></trkpt><trkpt lat="42.699305042732476" lon="12.722864529323896"><ele>436.0</ele><time>2026-04-19T09:57:43.999Z</time></trkpt><trkpt lat="42.69906333678293" lon="12.722778800248207"><ele>442.0</ele><time>2026-04-19T09:57:44.999Z</time></trkpt><trkpt lat="42.69882261889209" lon="12.72269290515752"><ele>448.0</ele><time>2026-04-19T09:57:45.999Z</time></trkpt><trkpt lat="42.69858116977079" lon="12.722610420653583"><ele>448.0</ele><time>2026-04-19T09:57:46.999Z</time></trkpt><trkpt lat="42.69833988973354" lon="12.72252502476349"><ele>448.0</ele><time>2026-04-19T09:57:47.999Z</time></trkpt><trkpt lat="42.69809931949279" lon="12.722440666931627"><ele>448.0</ele><time>2026-04-19T09:57:48.999Z</time></trkpt><trkpt lat="42.697864218425856" lon="12.72235863176538"><ele>448.0</ele><time>2026-04-19T09:57:49.999Z</time></trkpt><trkpt lat="42.69762692699064" lon="12.722282276365299"><ele>449.0</ele><time>2026-04-19T09:57:50.999Z</time></trkpt><trkpt lat="42.697380308685204" lon="12.722230319727409"><ele>450.0</ele><time>2026-04-19T09:57:51.999Z</time></trkpt><trkpt lat="42.69713380246486" lon="12.722195908234722"><ele>449.0</ele><time>2026-04-19T09:57:52.999Z</time></trkpt><trkpt lat="42.69688449175556" lon="12.722167025936946"><ele>448.0</ele><time>2026-04-19T09:57:53.999Z</time></trkpt><trkpt lat="42.696632027756" lon="12.722130707071864"><ele>448.0</ele><time>2026-04-19T09:57:54.999Z</time></trkpt><trkpt lat="42.696380088956275" lon="12.722085288414146"><ele>448.0</ele><time>2026-04-19T09:57:55.999Z</time></trkpt><trkpt lat="42.69612095339128" lon="12.722038429998051"><ele>449.0</ele><time>2026-04-19T09:57:56.999Z</time></trkpt><trkpt lat="42.695853893900356" lon="12.721992667378274"><ele>450.0</ele><time>2026-04-19T09:57:57.999Z</time></trkpt><trkpt lat="42.695592672124874" lon="12.721951634798183"><ele>450.0</ele><time>2026-04-19T09:57:58.999Z</time></trkpt><trkpt lat="42.69532545629926" lon="12.721909710566734"><ele>450.0</ele><time>2026-04-19T09:57:59.999Z</time></trkpt><trkpt lat="42.69505602700193" lon="12.721868509458625"><ele>453.5</ele><time>2026-04-19T09:58:00.999Z</time></trkpt><trkpt lat="42.69479510809774" lon="12.721825760793356"><ele>457.0</ele><time>2026-04-19T09:58:01.999Z</time></trkpt><trkpt lat="42.69454564081801" lon="12.721786951304596"><ele>461.5</ele><time>2026-04-19T09:58:02.999Z</time></trkpt><trkpt lat="42.69431466492855" lon="12.721748649748896"><ele>466.0</ele><time>2026-04-19T09:58:03.999Z</time></trkpt><trkpt lat="42.69409921760691" lon="12.721709817368694"><ele>466.0</ele><time>2026-04-19T09:58:04.999Z</time></trkpt><trkpt lat="42.69389462735245" lon="12.721674884693382"><ele>466.0</ele><time>2026-04-19T09:58:05.999Z</time></trkpt><trkpt lat="42.69369630610846" lon="12.721645440006627"><ele>466.0</ele><time>2026-04-19T09:58:06.999Z</time></trkpt><trkpt lat="42.693502933670025" lon="12.72161185218325"><ele>470.0</ele><time>2026-04-19T09:58:07.999Z</time></trkpt><trkpt lat="42.69331530251621" lon="12.721580315062868"><ele>474.0</ele><time>2026-04-19T09:58:08.999Z</time></trkpt><trkpt lat="42.693132621903935" lon="12.72155042622767"><ele>478.0</ele><time>2026-04-19T09:58:09.999Z</time></trkpt><trkpt lat="42.6929493353685" lon="12.721516911497371"><ele>478.0</ele><time>2026-04-19T09:58:10.999Z</time></trkpt><trkpt lat="42.69276430193192" lon="12.721486449367212"><ele>478.0</ele><time>2026-04-19T09:58:11.999Z</time></trkpt><trkpt lat="42.69258091581263" lon="12.721461957410835"><ele>478.0</ele><time>2026-04-19T09:58:12.999Z</time></trkpt><trkpt lat="42.69240234639701" lon="12.721434485828722"><ele>478.0</ele><time>2026-04-19T09:58:13.999Z</time></trkpt><trkpt lat="42.69222075198952" lon="12.721405561924307"><ele>478.0</ele><time>2026-04-19T09:58:14.999Z</time></trkpt><trkpt lat="42.69204104082493" lon="12.7213762594896"><ele>478.0</ele><time>2026-04-19T09:58:15.999Z</time></trkpt><trkpt lat="42.69185959327214" lon="12.721352594281774"><ele>479.6666666666667</ele><time>2026-04-19T09:58:16.999Z</time></trkpt><trkpt lat="42.691669047656305" lon="12.72134318364161"><ele>481.33333333333337</ele><time>2026-04-19T09:58:17.999Z</time></trkpt><trkpt lat="42.691482398050766" lon="12.72136353947597"><ele>483.0</ele><time>2026-04-19T09:58:18.999Z</time></trkpt><trkpt lat="42.69129966001755" lon="12.721410175053572"><ele>483.0</ele><time>2026-04-19T09:58:19.999Z</time></trkpt><trkpt lat="42.691121084695254" lon="12.721472380025299"><ele>483.0</ele><time>2026-04-19T09:58:20.999Z</time></trkpt><trkpt lat="42.69095079375895" lon="12.721535127839148"><ele>483.0</ele><time>2026-04-19T09:58:21.999Z</time></trkpt><trkpt lat="42.690781083522886" lon="12.72160611982077"><ele>486.0</ele><time>2026-04-19T09:58:22.999Z</time></trkpt><trkpt lat="42.690616314468926" lon="12.721671585240356"><ele>489.0</ele><time>2026-04-19T09:58:23.999Z</time></trkpt><trkpt lat="42.690449490548886" lon="12.721732092932049"><ele>492.0</ele><time>2026-04-19T09:58:24.999Z</time></trkpt><trkpt lat="42.69027693952803" lon="12.721791546249145"><ele>486.66666666666663</ele><time>2026-04-19T09:58:25.999Z</time></trkpt><trkpt lat="42.690109445881106" lon="12.721852747943952"><ele>481.3333333333333</ele><time>2026-04-19T09:58:26.999Z</time></trkpt><trkpt lat="42.68994836356419" lon="12.721925328629498"><ele>476.0</ele><time>2026-04-19T09:58:27.999Z</time></trkpt><trkpt lat="42.689797203503794" lon="12.721999965699641"><ele>476.0</ele><time>2026-04-19T09:58:28.999Z</time></trkpt><trkpt lat="42.68966999233735" lon="12.722122002785161"><ele>476.0</ele><time>2026-04-19T09:58:29.999Z</time></trkpt><trkpt lat="42.689541867955036" lon="12.722289481697745"><ele>476.0</ele><time>2026-04-19T09:58:30.999Z</time></trkpt><trkpt lat="42.68938853950611" lon="12.72248616017235"><ele>481.0</ele><time>2026-04-19T09:58:31.999Z</time></trkpt><trkpt lat="42.68924942042873" lon="12.722718847264916"><ele>486.0</ele><time>2026-04-19T09:58:32.999Z</time></trkpt><trkpt lat="42.68910615929358" lon="12.722965618113149"><ele>486.0</ele><time>2026-04-19T09:58:33.999Z</time></trkpt><trkpt lat="42.688947602825884" lon="12.723201652389362"><ele>486.0</ele><time>2026-04-19T09:58:34.999Z</time></trkpt><trkpt lat="42.68878445948502" lon="12.72343757435228"><ele>478.5</ele><time>2026-04-19T09:58:35.999Z</time></trkpt><trkpt lat="42.688628183947316" lon="12.723683323831557"><ele>471.0</ele><time>2026-04-19T09:58:36.999Z</time></trkpt><trkpt lat="42.68848914603324" lon="12.723927606675394"><ele>473.33333333333337</ele><time>2026-04-19T09:58:37.999Z</time></trkpt><trkpt lat="42.68834466099478" lon="12.724157430274788"><ele>475.6666666666667</ele><time>2026-04-19T09:58:38.999Z</time></trkpt><trkpt lat="42.688190901545596" lon="12.724373789678639"><ele>478.0</ele><time>2026-04-19T09:58:39.999Z</time></trkpt><trkpt lat="42.68803279959541" lon="12.724556411240671"><ele>478.0</ele><time>2026-04-19T09:58:40.999Z</time></trkpt><trkpt lat="42.68786865511517" lon="12.724691620830978"><ele>478.0</ele><time>2026-04-19T09:58:41.999Z</time></trkpt><trkpt lat="42.687692512131505" lon="12.72479852690427"><ele>478.0</ele><time>2026-04-19T09:58:42.999Z</time></trkpt><trkpt lat="42.68750433582234" lon="12.724875490845001"><ele>487.33333333333337</ele><time>2026-04-19T09:58:43.999Z</time></trkpt><trkpt lat="42.687300314033656" lon="12.724935999715168"><ele>496.66666666666663</ele><time>2026-04-19T09:58:44.999Z</time></trkpt><trkpt lat="42.68709116007279" lon="12.724993071714717"><ele>506.0</ele><time>2026-04-19T09:58:45.999Z</time></trkpt><trkpt lat="42.68688095783354" lon="12.725056417938555"><ele>510.66666666666663</ele><time>2026-04-19T09:58:46.999Z</time></trkpt><trkpt lat="42.686673363737775" lon="12.725133827679318"><ele>515.3333333333334</ele><time>2026-04-19T09:58:47.999Z</time></trkpt><trkpt lat="42.68645947989916" lon="12.725218444162437"><ele>520.0</ele><time>2026-04-19T09:58:48.999Z</time></trkpt><trkpt lat="42.68624754754846" lon="12.725303835716762"><ele>508.33333333333337</ele><time>2026-04-19T09:58:49.999Z</time></trkpt><trkpt lat="42.68603533188743" lon="12.72538854550626"><ele>496.66666666666663</ele><time>2026-04-19T09:58:50.999Z</time></trkpt><trkpt lat="42.685819649478994" lon="12.725472716279379"><ele>485.0</ele><time>2026-04-19T09:58:51.999Z</time></trkpt><trkpt lat="42.685605790948166" lon="12.725562628773458"><ele>485.0</ele><time>2026-04-19T09:58:52.999Z</time></trkpt><trkpt lat="42.68540044171043" lon="12.72567026503398"><ele>485.0</ele><time>2026-04-19T09:58:53.999Z</time></trkpt><trkpt lat="42.68520138646905" lon="12.725811251198085"><ele>485.0</ele><time>2026-04-19T09:58:54.999Z</time></trkpt><trkpt lat="42.68499843357914" lon="12.725949877146316"><ele>487.0</ele><time>2026-04-19T09:58:55.999Z</time></trkpt><trkpt lat="42.684798915426214" lon="12.726084487328428"><ele>489.0</ele><time>2026-04-19T09:58:56.999Z</time></trkpt><trkpt lat="42.68458908240835" lon="12.726222246291385"><ele>500.0</ele><time>2026-04-19T09:58:58Z</time></trkpt><trkpt lat="42.68437538738568" lon="12.726351549726521"><ele>511.0</ele><time>2026-04-19T09:58:59Z</time></trkpt><trkpt lat="42.68417215064326" lon="12.726494873404317"><ele>511.0</ele><time>2026-04-19T09:59:00Z</time></trkpt><trkpt lat="42.683957390388194" lon="12.726637802135528"><ele>511.0</ele><time>2026-04-19T09:59:01Z</time></trkpt><trkpt lat="42.683739340848646" lon="12.726767117768414"><ele>509.0</ele><time>2026-04-19T09:59:02Z</time></trkpt><trkpt lat="42.68351407720225" lon="12.726867929000981"><ele>507.0</ele><time>2026-04-19T09:59:03Z</time></trkpt><trkpt lat="42.683294137946866" lon="12.726932723310881"><ele>507.0</ele><time>2026-04-19T09:59:04Z</time></trkpt><trkpt lat="42.68308076880443" lon="12.726964911035148"><ele>507.0</ele><time>2026-04-19T09:59:05Z</time></trkpt><trkpt lat="42.68285684675916" lon="12.726980323270487"><ele>507.0</ele><time>2026-04-19T09:59:06Z</time></trkpt><trkpt lat="42.682622620901824" lon="12.726973816699271"><ele>509.33333333333337</ele><time>2026-04-19T09:59:07Z</time></trkpt><trkpt lat="42.68239164552411" lon="12.72696683916042"><ele>511.6666666666667</ele><time>2026-04-19T09:59:08Z</time></trkpt><trkpt lat="42.68217930673542" lon="12.726971439310898"><ele>514.0</ele><time>2026-04-19T09:59:09Z</time></trkpt><trkpt lat="42.681907510055716" lon="12.726969065225827"><ele>515.0</ele><time>2026-04-19T09:59:10Z</time></trkpt><trkpt lat="42.681685321000444" lon="12.72696429210066"><ele>516.0</ele><time>2026-04-19T09:59:11Z</time></trkpt><trkpt lat="42.681478343548655" lon="12.72694780245845"><ele>517.0</ele><time>2026-04-19T09:59:12Z</time></trkpt><trkpt lat="42.681280392471365" lon="12.726904294308548"><ele>524.3333333333334</ele><time>2026-04-19T09:59:13Z</time></trkpt><trkpt lat="42.68108866143722" lon="12.726811267397537"><ele>531.6666666666666</ele><time>2026-04-19T09:59:14Z</time></trkpt><trkpt lat="42.6808865086634" lon="12.72669584988276"><ele>539.0</ele><time>2026-04-19T09:59:15Z</time></trkpt><trkpt lat="42.6806873730688" lon="12.726560491547303"><ele>539.0</ele><time>2026-04-19T09:59:16Z</time></trkpt><trkpt lat="42.680490162215655" lon="12.726580347202644"><ele>539.0</ele><time>2026-04-19T09:59:17Z</time></trkpt><trkpt lat="42.68028380896442" lon="12.726477188467015"><ele>539.0</ele><time>2026-04-19T09:59:18Z</time></trkpt><trkpt lat="42.680076833046016" lon="12.72636025920857"><ele>537.0</ele><time>2026-04-19T09:59:19Z</time></trkpt><trkpt lat="42.67987089029862" lon="12.726244604738211"><ele>535.0</ele><time>2026-04-19T09:59:20Z</time></trkpt><trkpt lat="42.67966900687043" lon="12.726141463226016"><ele>533.0</ele><time>2026-04-19T09:59:21Z</time></trkpt><trkpt lat="42.679465592261536" lon="12.726036456420324"><ele>540.6666666666666</ele><time>2026-04-19T09:59:22Z</time></trkpt><trkpt lat="42.679259906638826" lon="12.725937011091673"><ele>548.3333333333334</ele><time>2026-04-19T09:59:23Z</time></trkpt><trkpt lat="42.6790489276385" lon="12.725859785018038"><ele>556.0</ele><time>2026-04-19T09:59:24Z</time></trkpt><trkpt lat="42.678825521041254" lon="12.72580507989177"><ele>552.5</ele><time>2026-04-19T09:59:25Z</time></trkpt><trkpt lat="42.6785958809575" lon="12.725750841525613"><ele>549.0</ele><time>2026-04-19T09:59:26Z</time></trkpt><trkpt lat="42.67836168795139" lon="12.725706143829221"><ele>549.0</ele><time>2026-04-19T09:59:27Z</time></trkpt><trkpt lat="42.67813885229688" lon="12.725656738119575"><ele>549.0</ele><time>2026-04-19T09:59:28Z</time></trkpt><trkpt lat="42.67790567102612" lon="12.725609674420909"><ele>548.3333333333334</ele><time>2026-04-19T09:59:29Z</time></trkpt><trkpt lat="42.677683321217906" lon="12.725563438980181"><ele>547.6666666666667</ele><time>2026-04-19T09:59:30Z</time></trkpt><trkpt lat="42.67746259648357" lon="12.725516554244294"><ele>547.0</ele><time>2026-04-19T09:59:31Z</time></trkpt><trkpt lat="42.677242161063226" lon="12.725458842519378"><ele>547.0</ele><time>2026-04-19T09:59:32Z</time></trkpt><trkpt lat="42.67701826077584" lon="12.725401971560693"><ele>547.0</ele><time>2026-04-19T09:59:33Z</time></trkpt><trkpt lat="42.67679360255597" lon="12.725363893864301"><ele>546.0</ele><time>2026-04-19T09:59:34Z</time></trkpt><trkpt lat="42.676568951512685" lon="12.725352388544602"><ele>545.0</ele><time>2026-04-19T09:59:35Z</time></trkpt><trkpt lat="42.676345183195465" lon="12.725381822628398"><ele>545.0</ele><time>2026-04-19T09:59:36Z</time></trkpt><trkpt lat="42.67612618708635" lon="12.725443506443796"><ele>545.0</ele><time>2026-04-19T09:59:37Z</time></trkpt><trkpt lat="42.67591569955272" lon="12.725528915198119"><ele>545.0</ele><time>2026-04-19T09:59:38Z</time></trkpt><trkpt lat="42.67570726228063" lon="12.725654852667917"><ele>549.5</ele><time>2026-04-19T09:59:39Z</time></trkpt><trkpt lat="42.67550202296835" lon="12.72578190147445"><ele>554.0</ele><time>2026-04-19T09:59:40Z</time></trkpt><trkpt lat="42.67529039567956" lon="12.72590047474698"><ele>556.0</ele><time>2026-04-19T09:59:41Z</time></trkpt><trkpt lat="42.67507928677378" lon="12.726017494818636"><ele>558.0</ele><time>2026-04-19T09:59:42Z</time></trkpt><trkpt lat="42.67486650535033" lon="12.726130357268495"><ele>564.3333333333334</ele><time>2026-04-19T09:59:43Z</time></trkpt><trkpt lat="42.67465887191628" lon="12.72623555253468"><ele>570.6666666666667</ele><time>2026-04-19T09:59:44Z</time></trkpt><trkpt lat="42.674464146037565" lon="12.726346741847905"><ele>577.0</ele><time>2026-04-19T09:59:45Z</time></trkpt><trkpt lat="42.674263861143174" lon="12.726437789473087"><ele>577.0</ele><time>2026-04-19T09:59:46Z</time></trkpt><trkpt lat="42.67407327750712" lon="12.726546694754427"><ele>577.0</ele><time>2026-04-19T09:59:47Z</time></trkpt><trkpt lat="42.6738903825856" lon="12.7266458724684"><ele>577.0</ele><time>2026-04-19T09:59:48Z</time></trkpt><trkpt lat="42.67371535256569" lon="12.726746485296031"><ele>580.0</ele><time>2026-04-19T09:59:49Z</time></trkpt><trkpt lat="42.67355576495243" lon="12.726844770687654"><ele>583.0</ele><time>2026-04-19T09:59:50Z</time></trkpt><trkpt lat="42.67335742350167" lon="12.726944057326952"><ele>586.0</ele><time>2026-04-19T09:59:51Z</time></trkpt><trkpt lat="42.67318669938935" lon="12.72706129571058"><ele>586.0</ele><time>2026-04-19T09:59:52Z</time></trkpt><trkpt lat="42.67302641244332" lon="12.727198209537217"><ele>586.0</ele><time>2026-04-19T09:59:53Z</time></trkpt><trkpt lat="42.6728754805599" lon="12.727360154627366"><ele>586.0</ele><time>2026-04-19T09:59:54Z</time></trkpt><trkpt lat="42.67273850727019" lon="12.727536901941635"><ele>584.6666666666667</ele><time>2026-04-19T09:59:55Z</time></trkpt><trkpt lat="42.6726115778023" lon="12.727716504281435"><ele>583.3333333333334</ele><time>2026-04-19T09:59:56Z</time></trkpt><trkpt lat="42.67249467996915" lon="12.727890814835488"><ele>582.0</ele><time>2026-04-19T09:59:57Z</time></trkpt><trkpt lat="42.67237969212239" lon="12.728054331350071"><ele>582.0</ele><time>2026-04-19T09:59:58Z</time></trkpt><trkpt lat="42.67226448900654" lon="12.728206053959898"><ele>582.0</ele><time>2026-04-19T09:59:59Z</time></trkpt><trkpt lat="42.6721384466415" lon="12.728341795687948"><ele>582.0</ele><time>2026-04-19T10:00:00Z</time></trkpt><trkpt lat="42.671999808268986" lon="12.72846099412316"><ele>583.3333333333334</ele><time>2026-04-19T10:00:01Z</time></trkpt><trkpt lat="42.67184990740554" lon="12.728550239967486"><ele>584.6666666666667</ele><time>2026-04-19T10:00:01.999Z</time></trkpt><trkpt lat="42.67168955192849" lon="12.72862696765735"><ele>586.0</ele><time>2026-04-19T10:00:02.999Z</time></trkpt><trkpt lat="42.671521557456536" lon="12.728653268886353"><ele>586.0</ele><time>2026-04-19T10:00:03.999Z</time></trkpt><trkpt lat="42.67135935201926" lon="12.728672216123714"><ele>586.0</ele><time>2026-04-19T10:00:04.999Z</time></trkpt><trkpt lat="42.671199805600516" lon="12.728696540408745"><ele>586.0</ele><time>2026-04-19T10:00:05.999Z</time></trkpt><trkpt lat="42.67103285889885" lon="12.72869600109902"><ele>591.3333333333334</ele><time>2026-04-19T10:00:06.999Z</time></trkpt><trkpt lat="42.67086766467326" lon="12.728723782379358"><ele>596.6666666666666</ele><time>2026-04-19T10:00:07.999Z</time></trkpt><trkpt lat="42.67070198360127" lon="12.728779972151962"><ele>602.0</ele><time>2026-04-19T10:00:08.999Z</time></trkpt><trkpt lat="42.67054080822173" lon="12.728866972915894"><ele>602.0</ele><time>2026-04-19T10:00:09.999Z</time></trkpt><trkpt lat="42.67038792851977" lon="12.728986124060212"><ele>602.0</ele><time>2026-04-19T10:00:10.999Z</time></trkpt><trkpt lat="42.67024518249559" lon="12.729130377123305"><ele>602.0</ele><time>2026-04-19T10:00:11.999Z</time></trkpt><trkpt lat="42.67010854355887" lon="12.729294269064583"><ele>603.3333333333333</ele><time>2026-04-19T10:00:12.999Z</time></trkpt><trkpt lat="42.669987406325866" lon="12.729478589051137"><ele>604.6666666666666</ele><time>2026-04-19T10:00:13.999Z</time></trkpt><trkpt lat="42.66988860875074" lon="12.72968153325675"><ele>606.0</ele><time>2026-04-19T10:00:14.999Z</time></trkpt><trkpt lat="42.66981553189199" lon="12.729900897514824"><ele>606.0</ele><time>2026-04-19T10:00:15.999Z</time></trkpt><trkpt lat="42.6697611689724" lon="12.730131737621313"><ele>606.0</ele><time>2026-04-19T10:00:16.999Z</time></trkpt><trkpt lat="42.66970173458225" lon="12.730355529255993"><ele>606.0</ele><time>2026-04-19T10:00:17.999Z</time></trkpt><trkpt lat="42.669636378297916" lon="12.730572908275539"><ele>607.0</ele><time>2026-04-19T10:00:18.999Z</time></trkpt><trkpt lat="42.66957056859877" lon="12.730785263478896"><ele>608.0</ele><time>2026-04-19T10:00:19.999Z</time></trkpt><trkpt lat="42.669504267983775" lon="12.730993330179164"><ele>609.0</ele><time>2026-04-19T10:00:20.999Z</time></trkpt><trkpt lat="42.66943959039845" lon="12.731195908171378"><ele>609.0</ele><time>2026-04-19T10:00:21.999Z</time></trkpt><trkpt lat="42.66937688456748" lon="12.731396034976662"><ele>609.0</ele><time>2026-04-19T10:00:22.999Z</time></trkpt><trkpt lat="42.66931600614388" lon="12.7315944939671"><ele>609.0</ele><time>2026-04-19T10:00:23.999Z</time></trkpt><trkpt lat="42.66925611964985" lon="12.731786596322893"><ele>610.75</ele><time>2026-04-19T10:00:24.999Z</time></trkpt><trkpt lat="42.669196846889726" lon="12.731976930759703"><ele>612.5</ele><time>2026-04-19T10:00:25.999Z</time></trkpt><trkpt lat="42.66914183373783" lon="12.732162287362822"><ele>614.25</ele><time>2026-04-19T10:00:26.999Z</time></trkpt><trkpt lat="42.6690889108718" lon="12.732344383975349"><ele>616.0</ele><time>2026-04-19T10:00:27.999Z</time></trkpt><trkpt lat="42.66903222543612" lon="12.73252431256989"><ele>616.0</ele><time>2026-04-19T10:00:28.999Z</time></trkpt><trkpt lat="42.66896780808859" lon="12.732701491917181"><ele>616.0</ele><time>2026-04-19T10:00:29.999Z</time></trkpt><trkpt lat="42.668895959834984" lon="12.73287049316174"><ele>616.0</ele><time>2026-04-19T10:00:30.999Z</time></trkpt><trkpt lat="42.66881347952154" lon="12.73303659480314"><ele>616.0</ele><time>2026-04-19T10:00:31.999Z</time></trkpt><trkpt lat="42.668720702244485" lon="12.733191645224993"><ele>617.25</ele><time>2026-04-19T10:00:32.999Z</time></trkpt><trkpt lat="42.668617186704594" lon="12.733333904265637"><ele>618.5</ele><time>2026-04-19T10:00:33.999Z</time></trkpt><trkpt lat="42.66851238513566" lon="12.733475722806537"><ele>619.75</ele><time>2026-04-19T10:00:34.999Z</time></trkpt><trkpt lat="42.668410623231" lon="12.733614539025817"><ele>621.0</ele><time>2026-04-19T10:00:35.999Z</time></trkpt><trkpt lat="42.66831535345956" lon="12.733755742934004"><ele>621.5</ele><time>2026-04-19T10:00:36.999Z</time></trkpt><trkpt lat="42.66822697485403" lon="12.733897465745093"><ele>622.0</ele><time>2026-04-19T10:00:37.999Z</time></trkpt><trkpt lat="42.66813371048937" lon="12.734032949061477"><ele>622.5</ele><time>2026-04-19T10:00:38.999Z</time></trkpt><trkpt lat="42.66804193985897" lon="12.734166186827718"><ele>623.0</ele><time>2026-04-19T10:00:39.999Z</time></trkpt><trkpt lat="42.667951629649835" lon="12.73429875221833"><ele>624.5</ele><time>2026-04-19T10:00:40.999Z</time></trkpt><trkpt lat="42.66786110221655" lon="12.734427865985117"><ele>626.0</ele><time>2026-04-19T10:00:41.999Z</time></trkpt><trkpt lat="42.66777446386147" lon="12.734557167286917"><ele>627.5</ele><time>2026-04-19T10:00:42.999Z</time></trkpt><trkpt lat="42.66769163112434" lon="12.734685469653279"><ele>629.0</ele><time>2026-04-19T10:00:43.999Z</time></trkpt><trkpt lat="42.6676052758606" lon="12.734817179058062"><ele>629.0</ele><time>2026-04-19T10:00:44.999Z</time></trkpt><trkpt lat="42.66751176517226" lon="12.73494784387562"><ele>629.0</ele><time>2026-04-19T10:00:45.999Z</time></trkpt><trkpt lat="42.667418436490046" lon="12.73506796573587"><ele>629.0</ele><time>2026-04-19T10:00:46.999Z</time></trkpt><trkpt lat="42.667320936178676" lon="12.735162064360022"><ele>629.0</ele><time>2026-04-19T10:00:47.999Z</time></trkpt><trkpt lat="42.667216335089485" lon="12.735227336032182"><ele>630.0</ele><time>2026-04-19T10:00:48.999Z</time></trkpt><trkpt lat="42.667105219326224" lon="12.73525807593282"><ele>631.0</ele><time>2026-04-19T10:00:49.999Z</time></trkpt><trkpt lat="42.66698255657053" lon="12.735255131488838"><ele>632.0</ele><time>2026-04-19T10:00:50.999Z</time></trkpt><trkpt lat="42.666856281850386" lon="12.7352294596916"><ele>633.0</ele><time>2026-04-19T10:00:51.999Z</time></trkpt><trkpt lat="42.66673595863475" lon="12.735155716142703"><ele>633.0</ele><time>2026-04-19T10:00:52.999Z</time></trkpt><trkpt lat="42.66662450881124" lon="12.735047857024036"><ele>633.0</ele><time>2026-04-19T10:00:53.999Z</time></trkpt><trkpt lat="42.66653348646358" lon="12.73491920349787"><ele>633.0</ele><time>2026-04-19T10:00:54.999Z</time></trkpt><trkpt lat="42.66647079962478" lon="12.734767020158621"><ele>633.0</ele><time>2026-04-19T10:00:55.999Z</time></trkpt><trkpt lat="42.66643691737171" lon="12.734597762054046"><ele>633.0</ele><time>2026-04-19T10:00:56.999Z</time></trkpt><trkpt lat="42.66643032296488" lon="12.734422392378075"><ele>633.0</ele><time>2026-04-19T10:00:57.999Z</time></trkpt><trkpt lat="42.66644509248066" lon="12.734243231015055"><ele>633.0</ele><time>2026-04-19T10:00:58.999Z</time></trkpt><trkpt lat="42.6664836106959" lon="12.734063711042145"><ele>633.0</ele><time>2026-04-19T10:00:59.999Z</time></trkpt><trkpt lat="42.66654677276141" lon="12.733899270098464"><ele>634.0</ele><time>2026-04-19T10:01:00.999Z</time></trkpt><trkpt lat="42.66664348490105" lon="12.733757979132212"><ele>635.0</ele><time>2026-04-19T10:01:01.999Z</time></trkpt><trkpt lat="42.6667558780725" lon="12.73363192005467"><ele>636.0</ele><time>2026-04-19T10:01:02.999Z</time></trkpt><trkpt lat="42.66689409327354" lon="12.733501798720802"><ele>636.3333333333334</ele><time>2026-04-19T10:01:04Z</time></trkpt><trkpt lat="42.667040129515655" lon="12.73335365634771"><ele>636.6666666666667</ele><time>2026-04-19T10:01:05Z</time></trkpt><trkpt lat="42.66719047956432" lon="12.733186031383172"><ele>637.0</ele><time>2026-04-19T10:01:06Z</time></trkpt><trkpt lat="42.66733101419297" lon="12.733028807853648"><ele>637.0</ele><time>2026-04-19T10:01:07Z</time></trkpt><trkpt lat="42.667469506553665" lon="12.732871132002174"><ele>637.0</ele><time>2026-04-19T10:01:08Z</time></trkpt><trkpt lat="42.66759500748438" lon="12.732720474732828"><ele>637.0</ele><time>2026-04-19T10:01:09Z</time></trkpt><trkpt lat="42.667706864988645" lon="12.732558892155499"><ele>633.6666666666667</ele><time>2026-04-19T10:01:10Z</time></trkpt><trkpt lat="42.667794620760205" lon="12.732383262574801"><ele>630.3333333333334</ele><time>2026-04-19T10:01:11Z</time></trkpt><trkpt lat="42.66785902715581" lon="12.732185789116016"><ele>627.0</ele><time>2026-04-19T10:01:12Z</time></trkpt><trkpt lat="42.667909646912356" lon="12.731974656306006"><ele>627.6666666666666</ele><time>2026-04-19T10:01:13Z</time></trkpt><trkpt lat="42.667932213644974" lon="12.73175687241964"><ele>628.3333333333333</ele><time>2026-04-19T10:01:14Z</time></trkpt><trkpt lat="42.66791882489562" lon="12.731530074174094"><ele>629.0</ele><time>2026-04-19T10:01:15Z</time></trkpt><trkpt lat="42.66788351943189" lon="12.731323155484665"><ele>629.0</ele><time>2026-04-19T10:01:16Z</time></trkpt><trkpt lat="42.66783743464901" lon="12.731099823129608"><ele>629.0</ele><time>2026-04-19T10:01:17Z</time></trkpt><trkpt lat="42.66777843797825" lon="12.730867683555836"><ele>629.0</ele><time>2026-04-19T10:01:18Z</time></trkpt><trkpt lat="42.6677342183495" lon="12.730621359245756"><ele>638.0</ele><time>2026-04-19T10:01:19Z</time></trkpt><trkpt lat="42.6676730662265" lon="12.730367447544133"><ele>647.0</ele><time>2026-04-19T10:01:20Z</time></trkpt><trkpt lat="42.66761355590954" lon="12.730101279765773"><ele>656.0</ele><time>2026-04-19T10:01:21Z</time></trkpt><trkpt lat="42.66755655182487" lon="12.729830639077464"><ele>656.0</ele><time>2026-04-19T10:01:22Z</time></trkpt><trkpt lat="42.66749739126281" lon="12.729590239859771"><ele>656.0</ele><time>2026-04-19T10:01:23Z</time></trkpt><trkpt lat="42.66742365611389" lon="12.729362819984548"><ele>656.0</ele><time>2026-04-19T10:01:24Z</time></trkpt><trkpt lat="42.667327206211" lon="12.729161643570986"><ele>653.0</ele><time>2026-04-19T10:01:25Z</time></trkpt><trkpt lat="42.66721344430361" lon="12.728995034440796"><ele>650.0</ele><time>2026-04-19T10:01:26Z</time></trkpt><trkpt lat="42.66708218220587" lon="12.728853541942264"><ele>647.0</ele><time>2026-04-19T10:01:27Z</time></trkpt><trkpt lat="42.666939504768244" lon="12.728733525734308"><ele>654.3333333333333</ele><time>2026-04-19T10:01:28Z</time></trkpt><trkpt lat="42.66678902490593" lon="12.728650231586878"><ele>661.6666666666666</ele><time>2026-04-19T10:01:29Z</time></trkpt><trkpt lat="42.66663031858066" lon="12.728603654998503"><ele>669.0</ele><time>2026-04-19T10:01:30Z</time></trkpt><trkpt lat="42.666492103220264" lon="12.728558035774643"><ele>669.0</ele><time>2026-04-19T10:01:31Z</time></trkpt><trkpt lat="42.66635297334081" lon="12.728498528168352"><ele>669.0</ele><time>2026-04-19T10:01:32Z</time></trkpt><trkpt lat="42.66620784074813" lon="12.728485615796165"><ele>669.0</ele><time>2026-04-19T10:01:33Z</time></trkpt><trkpt lat="42.66606174463454" lon="12.728462853640366"><ele>669.0</ele><time>2026-04-19T10:01:34Z</time></trkpt><trkpt lat="42.66591710872243" lon="12.728438190995469"><ele>667.3333333333334</ele><time>2026-04-19T10:01:35Z</time></trkpt><trkpt lat="42.665771534799184" lon="12.728413368392024"><ele>665.6666666666667</ele><time>2026-04-19T10:01:36Z</time></trkpt><trkpt lat="42.66561668938608" lon="12.728386964859368"><ele>664.0</ele><time>2026-04-19T10:01:37.065Z</time></trkpt><trkpt lat="42.66512704731473" lon="12.728303661551847"><ele>664.0</ele><time>2026-04-19T10:01:39Z</time></trkpt><trkpt lat="42.66490678088735" lon="12.728341876927185"><ele>664.0</ele><time>2026-04-19T10:01:40Z</time></trkpt><trkpt lat="42.664788327575195" lon="12.7283403456812"><ele>664.0</ele><time>2026-04-19T10:01:41Z</time></trkpt><trkpt lat="42.66467853060878" lon="12.728296436940202"><ele>664.0</ele><time>2026-04-19T10:01:43Z</time></trkpt><trkpt lat="42.66458913126635" lon="12.728322268072137"><ele>664.0</ele><time>2026-04-19T10:01:44Z</time></trkpt><trkpt lat="42.66450629053016" lon="12.72831791796528"><ele>664.0</ele><time>2026-04-19T10:01:46Z</time></trkpt><trkpt lat="42.66440483984834" lon="12.728435788895304"><ele>664.0</ele><time>2026-04-19T10:01:50Z</time></trkpt><trkpt lat="42.664574719336" lon="12.72851534818478"><ele>664.0</ele><time>2026-04-19T10:02:04Z</time></trkpt><trkpt lat="42.66464790574187" lon="12.72851515800357"><ele>664.0</ele><time>2026-04-19T10:02:07Z</time></trkpt><trkpt lat="42.664714007618485" lon="12.7285765776357"><ele>664.0</ele><time>2026-04-19T10:02:11Z</time></trkpt><trkpt lat="42.66469695183118" lon="12.728466618923258"><ele>664.0</ele><time>2026-04-19T10:02:14Z</time></trkpt><trkpt lat="42.664623247566325" lon="12.728470056066532"><ele>664.0</ele><time>2026-04-19T10:02:19Z</time></trkpt><trkpt lat="42.664604095101566" lon="12.728333989778267"><ele>664.0</ele><time>2026-04-19T10:02:20Z</time></trkpt><trkpt lat="42.66453857134954" lon="12.728543872722835"><ele>664.0</ele><time>2026-04-19T10:03:42Z</time></trkpt><trkpt lat="42.66453363769227" lon="12.7286581787559"><ele>664.0</ele><time>2026-04-19T10:04:17.999Z</time></trkpt><trkpt lat="42.66455735143837" lon="12.728800635678958"><ele>664.0</ele><time>2026-04-19T10:04:55.999Z</time></trkpt><trkpt lat="42.66452827001525" lon="12.72872383261608"><ele>664.0</ele><time>2026-04-19T10:05:16Z</time></trkpt><trkpt lat="42.664497086417505" lon="12.728648747017258"><ele>664.0</ele><time>2026-04-19T10:05:22Z</time></trkpt><trkpt lat="42.6645516668781" lon="12.728470984201646"><ele>664.0</ele><time>2026-04-19T10:05:38.027Z</time></trkpt><trkpt lat="42.664560347223" lon="12.728670372877337"><ele>664.0</ele><time>2026-04-19T10:07:30.015Z</time></trkpt><trkpt lat="42.66454176838435" lon="12.728565420085442"><ele>664.0</ele><time>2026-04-19T10:07:47.999Z</time></trkpt><trkpt lat="42.664488948936956" lon="12.728627653278586"><ele>664.0</ele><time>2026-04-19T10:36:03.999Z</time></trkpt><trkpt lat="42.664588413847916" lon="12.728573634607427"><ele>664.0</ele><time>2026-04-19T11:11:12Z</time></trkpt><trkpt lat="42.66453018767961" lon="12.728608771290233"><ele>664.0</ele><time>2026-04-19T11:11:40Z</time></trkpt><trkpt lat="42.66458117833994" lon="12.728532829355752"><ele>664.0</ele><time>2026-04-19T11:16:33.999Z</time></trkpt><trkpt lat="42.66466045025459" lon="12.728523619565907"><ele>664.0</ele><time>2026-04-19T11:16:35.999Z</time></trkpt><trkpt lat="42.66474400281386" lon="12.728517632072023"><ele>664.0</ele><time>2026-04-19T11:16:37.999Z</time></trkpt><trkpt lat="42.66482258797576" lon="12.728475170572521"><ele>664.0</ele><time>2026-04-19T11:16:39.999Z</time></trkpt><trkpt lat="42.66493054361486" lon="12.728479659097813"><ele>664.0</ele><time>2026-04-19T11:16:41.999Z</time></trkpt><trkpt lat="42.66499334164466" lon="12.72849077351936"><ele>664.0</ele><time>2026-04-19T11:16:42.999Z</time></trkpt><trkpt lat="42.66506170813707" lon="12.728502647430439"><ele>664.0</ele><time>2026-04-19T11:16:43.999Z</time></trkpt><trkpt lat="42.665130792704645" lon="12.728511767647609"><ele>664.0</ele><time>2026-04-19T11:16:44.999Z</time></trkpt><trkpt lat="42.66520496253579" lon="12.728513287661194"><ele>664.0</ele><time>2026-04-19T11:16:45.999Z</time></trkpt><trkpt lat="42.665280875390216" lon="12.728532206983045"><ele>664.0</ele><time>2026-04-19T11:16:46.999Z</time></trkpt><trkpt lat="42.6653602796047" lon="12.72853328727298"><ele>664.0</ele><time>2026-04-19T11:16:47.999Z</time></trkpt><trkpt lat="42.66545140868748" lon="12.728535584682854"><ele>666.6</ele><time>2026-04-19T11:16:48.999Z</time></trkpt><trkpt lat="42.665548512356075" lon="12.728540252529935"><ele>669.2</ele><time>2026-04-19T11:16:49.999Z</time></trkpt><trkpt lat="42.66564488526084" lon="12.728538894798147"><ele>671.8000000000001</ele><time>2026-04-19T11:16:50.999Z</time></trkpt><trkpt lat="42.665740749406" lon="12.728567314451722"><ele>674.4000000000001</ele><time>2026-04-19T11:16:51.999Z</time></trkpt><trkpt lat="42.665836665828444" lon="12.72858366967889"><ele>677.0</ele><time>2026-04-19T11:16:52.999Z</time></trkpt><trkpt lat="42.66593431082708" lon="12.728600319655468"><ele>676.4000000000001</ele><time>2026-04-19T11:16:53.999Z</time></trkpt><trkpt lat="42.66603283434201" lon="12.728617119424765"><ele>675.8000000000001</ele><time>2026-04-19T11:16:54.999Z</time></trkpt><trkpt lat="42.66613065160204" lon="12.728634509938214"><ele>675.2</ele><time>2026-04-19T11:16:55.999Z</time></trkpt><trkpt lat="42.66622824060844" lon="12.728647004293434"><ele>674.6</ele><time>2026-04-19T11:16:56.999Z</time></trkpt><trkpt lat="42.66632399699049" lon="12.728660371166624"><ele>674.0</ele><time>2026-04-19T11:16:57.999Z</time></trkpt><trkpt lat="42.66565706831199" lon="12.728568887778845"><ele>674.0</ele><time>2026-04-19T11:16:58.999Z</time></trkpt><trkpt lat="42.66665424578378" lon="12.728708627555546"><ele>674.0</ele><time>2026-04-19T11:17:03.999Z</time></trkpt><trkpt lat="42.66675048007393" lon="12.728750190846858"><ele>674.0</ele><time>2026-04-19T11:17:04.999Z</time></trkpt><trkpt lat="42.667055694031774" lon="12.728989070058608"><ele>668.0</ele><time>2026-04-19T11:17:05.999Z</time></trkpt><trkpt lat="42.66721526671901" lon="12.729166930555811"><ele>662.0</ele><time>2026-04-19T11:17:06.999Z</time></trkpt><trkpt lat="42.667311791532356" lon="12.729306072867494"><ele>656.0</ele><time>2026-04-19T11:17:07.999Z</time></trkpt><trkpt lat="42.66738116798792" lon="12.729443496424409"><ele>656.0</ele><time>2026-04-19T11:17:08.999Z</time></trkpt><trkpt lat="42.66743544754955" lon="12.729569731306617"><ele>656.0</ele><time>2026-04-19T11:17:10Z</time></trkpt><trkpt lat="42.66747933377812" lon="12.729713369279308"><ele>656.0</ele><time>2026-04-19T11:17:11Z</time></trkpt><trkpt lat="42.667507211593154" lon="12.729837497816215"><ele>656.0</ele><time>2026-04-19T11:17:12Z</time></trkpt><trkpt lat="42.667538331453514" lon="12.729978530261278"><ele>656.0</ele><time>2026-04-19T11:17:13Z</time></trkpt><trkpt lat="42.66756742746646" lon="12.730111908134617"><ele>656.8</ele><time>2026-04-19T11:17:14Z</time></trkpt><trkpt lat="42.66760147136039" lon="12.73025738162639"><ele>657.5999999999999</ele><time>2026-04-19T11:17:15Z</time></trkpt><trkpt lat="42.667634746732396" lon="12.73039727595222"><ele>658.4</ele><time>2026-04-19T11:17:16Z</time></trkpt><trkpt lat="42.66766776791514" lon="12.73054785393961"><ele>659.2</ele><time>2026-04-19T11:17:17Z</time></trkpt><trkpt lat="42.6676995357682" lon="12.730684799127115"><ele>660.0</ele><time>2026-04-19T11:17:18Z</time></trkpt><trkpt lat="42.667736123143484" lon="12.73083650684055"><ele>660.0</ele><time>2026-04-19T11:17:19Z</time></trkpt><trkpt lat="42.66776958041264" lon="12.73098829793476"><ele>660.0</ele><time>2026-04-19T11:17:20Z</time></trkpt><trkpt lat="42.667801764945615" lon="12.73114532894729"><ele>660.0</ele><time>2026-04-19T11:17:21Z</time></trkpt><trkpt lat="42.66783073841408" lon="12.731300988376422"><ele>660.0</ele><time>2026-04-19T11:17:22Z</time></trkpt><trkpt lat="42.667854672001425" lon="12.731463177057334"><ele>652.25</ele><time>2026-04-19T11:17:23Z</time></trkpt><trkpt lat="42.66786731113979" lon="12.731623648955662"><ele>644.5</ele><time>2026-04-19T11:17:24Z</time></trkpt><trkpt lat="42.667862100672075" lon="12.731782039353888"><ele>636.75</ele><time>2026-04-19T11:17:25Z</time></trkpt><trkpt lat="42.66784318770789" lon="12.73194581028505"><ele>629.0</ele><time>2026-04-19T11:17:26Z</time></trkpt><trkpt lat="42.66781098682881" lon="12.732112937685878"><ele>634.0</ele><time>2026-04-19T11:17:27Z</time></trkpt><trkpt lat="42.667764343740146" lon="12.732266371646602"><ele>639.0</ele><time>2026-04-19T11:17:28Z</time></trkpt><trkpt lat="42.66770299294083" lon="12.732415298152516"><ele>644.0</ele><time>2026-04-19T11:17:29Z</time></trkpt><trkpt lat="42.6676292871478" lon="12.73255060260347"><ele>649.0</ele><time>2026-04-19T11:17:30Z</time></trkpt><trkpt lat="42.66754367463318" lon="12.732674301439683"><ele>646.0</ele><time>2026-04-19T11:17:31Z</time></trkpt><trkpt lat="42.667450370362516" lon="12.732796270228713"><ele>643.0</ele><time>2026-04-19T11:17:32Z</time></trkpt><trkpt lat="42.66735380662098" lon="12.732911512334917"><ele>640.0</ele><time>2026-04-19T11:17:33Z</time></trkpt><trkpt lat="42.6672546151732" lon="12.733024579077949"><ele>637.0</ele><time>2026-04-19T11:17:34Z</time></trkpt><trkpt lat="42.66715448590088" lon="12.73313696000476"><ele>637.0</ele><time>2026-04-19T11:17:35Z</time></trkpt><trkpt lat="42.667052696581905" lon="12.733252452863328"><ele>637.0</ele><time>2026-04-19T11:17:36Z</time></trkpt><trkpt lat="42.666947200926316" lon="12.733367490348098"><ele>637.0</ele><time>2026-04-19T11:17:37Z</time></trkpt><trkpt lat="42.66684441985171" lon="12.733481003371656"><ele>637.0</ele><time>2026-04-19T11:17:38Z</time></trkpt><trkpt lat="42.66674157793154" lon="12.733598664844134"><ele>636.75</ele><time>2026-04-19T11:17:39Z</time></trkpt><trkpt lat="42.666642837952274" lon="12.733714411800221"><ele>636.5</ele><time>2026-04-19T11:17:40Z</time></trkpt><trkpt lat="42.666551589346895" lon="12.733841720026264"><ele>636.25</ele><time>2026-04-19T11:17:41Z</time></trkpt><trkpt lat="42.66647423731165" lon="12.733976417369501"><ele>636.0</ele><time>2026-04-19T11:17:42Z</time></trkpt><trkpt lat="42.66642257784907" lon="12.73413878303986"><ele>636.0</ele><time>2026-04-19T11:17:43Z</time></trkpt><trkpt lat="42.66639997972523" lon="12.734305006171505"><ele>636.0</ele><time>2026-04-19T11:17:44Z</time></trkpt><trkpt lat="42.66640312131572" lon="12.734479162974472"><ele>636.0</ele><time>2026-04-19T11:17:45Z</time></trkpt><trkpt lat="42.666429166616425" lon="12.734646262235549"><ele>636.0</ele><time>2026-04-19T11:17:46Z</time></trkpt><trkpt lat="42.66647320377205" lon="12.734803571362693"><ele>635.25</ele><time>2026-04-19T11:17:47Z</time></trkpt><trkpt lat="42.66653714619576" lon="12.734951185263784"><ele>634.5</ele><time>2026-04-19T11:17:48Z</time></trkpt><trkpt lat="42.66662042985058" lon="12.735081912265581"><ele>633.75</ele><time>2026-04-19T11:17:49Z</time></trkpt><trkpt lat="42.66672514358268" lon="12.735184161700003"><ele>633.0</ele><time>2026-04-19T11:17:50Z</time></trkpt><trkpt lat="42.66684210007763" lon="12.735253482037347"><ele>632.0</ele><time>2026-04-19T11:17:51Z</time></trkpt><trkpt lat="42.666963918420485" lon="12.735284240739642"><ele>631.0</ele><time>2026-04-19T11:17:52Z</time></trkpt><trkpt lat="42.66708764882143" lon="12.735288139054294"><ele>630.0</ele><time>2026-04-19T11:17:53Z</time></trkpt><trkpt lat="42.667210798417706" lon="12.735267747764212"><ele>629.0</ele><time>2026-04-19T11:17:54Z</time></trkpt><trkpt lat="42.667328286595044" lon="12.735218773796515"><ele>629.0</ele><time>2026-04-19T11:17:55Z</time></trkpt><trkpt lat="42.66743390908944" lon="12.735138776462312"><ele>629.0</ele><time>2026-04-19T11:17:56Z</time></trkpt><trkpt lat="42.66752365831758" lon="12.735034339182214"><ele>629.0</ele><time>2026-04-19T11:17:57Z</time></trkpt><trkpt lat="42.66760660890132" lon="12.734910485877549"><ele>629.0</ele><time>2026-04-19T11:17:58Z</time></trkpt><trkpt lat="42.66769140196411" lon="12.734778325216604"><ele>629.25</ele><time>2026-04-19T11:17:59Z</time></trkpt><trkpt lat="42.66777890293286" lon="12.734640272745805"><ele>629.5</ele><time>2026-04-19T11:18:00Z</time></trkpt><trkpt lat="42.667871843268294" lon="12.734497510199343"><ele>629.75</ele><time>2026-04-19T11:18:00.999Z</time></trkpt><trkpt lat="42.667964790142236" lon="12.734359033111366"><ele>630.0</ele><time>2026-04-19T11:18:01.999Z</time></trkpt><trkpt lat="42.668068560099385" lon="12.734221682484394"><ele>628.25</ele><time>2026-04-19T11:18:02.999Z</time></trkpt><trkpt lat="42.66816698504823" lon="12.734084373135492"><ele>626.5</ele><time>2026-04-19T11:18:03.999Z</time></trkpt><trkpt lat="42.6682612788008" lon="12.733933780116402"><ele>624.75</ele><time>2026-04-19T11:18:04.999Z</time></trkpt><trkpt lat="42.66835293638207" lon="12.733792820333312"><ele>623.0</ele><time>2026-04-19T11:18:05.999Z</time></trkpt><trkpt lat="42.668446362220756" lon="12.733653606046605"><ele>623.5</ele><time>2026-04-19T11:18:06.999Z</time></trkpt><trkpt lat="42.66853730743925" lon="12.733514113298815"><ele>624.0</ele><time>2026-04-19T11:18:07.999Z</time></trkpt><trkpt lat="42.66862603359938" lon="12.733373538833389"><ele>624.5</ele><time>2026-04-19T11:18:08.999Z</time></trkpt><trkpt lat="42.66871466105073" lon="12.73323565657174"><ele>625.0</ele><time>2026-04-19T11:18:09.999Z</time></trkpt><trkpt lat="42.668804837341035" lon="12.73309676809667"><ele>624.0</ele><time>2026-04-19T11:18:10.999Z</time></trkpt><trkpt lat="42.66888864388882" lon="12.732951820014366"><ele>623.0</ele><time>2026-04-19T11:18:11.999Z</time></trkpt><trkpt lat="42.66896045417089" lon="12.732791610692196"><ele>622.0</ele><time>2026-04-19T11:18:12.999Z</time></trkpt><trkpt lat="42.669021566552146" lon="12.732626155950443"><ele>621.0</ele><time>2026-04-19T11:18:13.999Z</time></trkpt><trkpt lat="42.66908317497083" lon="12.732460614155972"><ele>619.75</ele><time>2026-04-19T11:18:14.999Z</time></trkpt><trkpt lat="42.66914006897991" lon="12.732293664609953"><ele>618.5</ele><time>2026-04-19T11:18:15.999Z</time></trkpt><trkpt lat="42.66919304802278" lon="12.73212240190997"><ele>617.25</ele><time>2026-04-19T11:18:16.999Z</time></trkpt><trkpt lat="42.66924414601679" lon="12.731948195533306"><ele>616.0</ele><time>2026-04-19T11:18:17.999Z</time></trkpt><trkpt lat="42.66929697108551" lon="12.731776363218378"><ele>614.25</ele><time>2026-04-19T11:18:18.999Z</time></trkpt><trkpt lat="42.66935389113319" lon="12.731603000879463"><ele>612.5</ele><time>2026-04-19T11:18:19.999Z</time></trkpt><trkpt lat="42.66941210924928" lon="12.731432143364879"><ele>610.75</ele><time>2026-04-19T11:18:20.999Z</time></trkpt><trkpt lat="42.66946586191212" lon="12.73126031450178"><ele>609.0</ele><time>2026-04-19T11:18:21.999Z</time></trkpt><trkpt lat="42.66951988712971" lon="12.731086411219678"><ele>612.25</ele><time>2026-04-19T11:18:22.999Z</time></trkpt><trkpt lat="42.66957403767802" lon="12.73091202870058"><ele>615.5</ele><time>2026-04-19T11:18:23.999Z</time></trkpt><trkpt lat="42.66962615915675" lon="12.730737348781826"><ele>618.75</ele><time>2026-04-19T11:18:24.999Z</time></trkpt><trkpt lat="42.66967736635254" lon="12.730557776447815"><ele>622.0</ele><time>2026-04-19T11:18:25.999Z</time></trkpt><trkpt lat="42.66972937634325" lon="12.730379632222974"><ele>618.0</ele><time>2026-04-19T11:18:26.999Z</time></trkpt><trkpt lat="42.66978577229807" lon="12.730204104924104"><ele>614.0</ele><time>2026-04-19T11:18:27.999Z</time></trkpt><trkpt lat="42.669841125127334" lon="12.730026746605484"><ele>610.0</ele><time>2026-04-19T11:18:28.999Z</time></trkpt><trkpt lat="42.669899457802124" lon="12.729852814154576"><ele>606.0</ele><time>2026-04-19T11:18:29.999Z</time></trkpt><trkpt lat="42.66996650738779" lon="12.729685031176206"><ele>606.0</ele><time>2026-04-19T11:18:30.999Z</time></trkpt><trkpt lat="42.67004443155023" lon="12.729525909989498"><ele>606.0</ele><time>2026-04-19T11:18:31.999Z</time></trkpt><trkpt lat="42.67013306576126" lon="12.729376866200315"><ele>606.0</ele><time>2026-04-19T11:18:32.999Z</time></trkpt><trkpt lat="42.67023319858775" lon="12.729236082893916"><ele>606.0</ele><time>2026-04-19T11:18:33.999Z</time></trkpt><trkpt lat="42.670341436283" lon="12.729112975889246"><ele>605.0</ele><time>2026-04-19T11:18:34.999Z</time></trkpt><trkpt lat="42.67046016672491" lon="12.729008194652248"><ele>604.0</ele><time>2026-04-19T11:18:35.999Z</time></trkpt><trkpt lat="42.670587594064166" lon="12.728924031740021"><ele>603.0</ele><time>2026-04-19T11:18:36.999Z</time></trkpt><trkpt lat="42.670715885822155" lon="12.728856430933082"><ele>602.0</ele><time>2026-04-19T11:18:37.999Z</time></trkpt><trkpt lat="42.670851581543616" lon="12.728798307051434"><ele>602.0</ele><time>2026-04-19T11:18:38.999Z</time></trkpt><trkpt lat="42.67099153112343" lon="12.728761360124313"><ele>602.0</ele><time>2026-04-19T11:18:39.999Z</time></trkpt><trkpt lat="42.671130390178554" lon="12.728744790590987"><ele>602.0</ele><time>2026-04-19T11:18:40.999Z</time></trkpt><trkpt lat="42.67127524061584" lon="12.72873191844971"><ele>602.0</ele><time>2026-04-19T11:18:41.999Z</time></trkpt><trkpt lat="42.67141685650868" lon="12.728711042404544"><ele>598.0</ele><time>2026-04-19T11:18:42.999Z</time></trkpt><trkpt lat="42.671553272299604" lon="12.728683470478066"><ele>594.0</ele><time>2026-04-19T11:18:43.999Z</time></trkpt><trkpt lat="42.67169383307088" lon="12.728650889393604"><ele>590.0</ele><time>2026-04-19T11:18:44.999Z</time></trkpt><trkpt lat="42.671831885529926" lon="12.72860089154302"><ele>586.0</ele><time>2026-04-19T11:18:45.999Z</time></trkpt><trkpt lat="42.67196173925632" lon="12.728527665973289"><ele>585.0</ele><time>2026-04-19T11:18:46.999Z</time></trkpt><trkpt lat="42.6720864935546" lon="12.728434563903779"><ele>584.0</ele><time>2026-04-19T11:18:47.999Z</time></trkpt><trkpt lat="42.67219916526286" lon="12.728325464466325"><ele>583.0</ele><time>2026-04-19T11:18:48.999Z</time></trkpt><trkpt lat="42.672309000427354" lon="12.728203943769326"><ele>582.0</ele><time>2026-04-19T11:18:49.999Z</time></trkpt><trkpt lat="42.672414525920225" lon="12.728072319794087"><ele>582.0</ele><time>2026-04-19T11:18:50.999Z</time></trkpt><trkpt lat="42.67252189618335" lon="12.727936346061615"><ele>582.0</ele><time>2026-04-19T11:18:51.999Z</time></trkpt><trkpt lat="42.67262171176681" lon="12.72779870633768"><ele>582.0</ele><time>2026-04-19T11:18:52.999Z</time></trkpt><trkpt lat="42.67272699497029" lon="12.72765611285158"><ele>582.0</ele><time>2026-04-19T11:18:53.999Z</time></trkpt><trkpt lat="42.67283470569672" lon="12.727515965397512"><ele>583.3333333333334</ele><time>2026-04-19T11:18:54.999Z</time></trkpt><trkpt lat="42.67294567956257" lon="12.727384098308166"><ele>584.6666666666667</ele><time>2026-04-19T11:18:55.999Z</time></trkpt><trkpt lat="42.67307044674264" lon="12.72726241031329"><ele>586.0</ele><time>2026-04-19T11:18:56.999Z</time></trkpt><trkpt lat="42.6731981793271" lon="12.727153112829834"><ele>586.0</ele><time>2026-04-19T11:18:57.999Z</time></trkpt><trkpt lat="42.6733312141404" lon="12.727052029067165"><ele>586.0</ele><time>2026-04-19T11:18:58.999Z</time></trkpt><trkpt lat="42.67347072696082" lon="12.726954855764689"><ele>586.0</ele><time>2026-04-19T11:18:59.999Z</time></trkpt><trkpt lat="42.67361248452897" lon="12.72686737357799"><ele>583.0</ele><time>2026-04-19T11:19:00.999Z</time></trkpt><trkpt lat="42.673752956544355" lon="12.726790755008093"><ele>580.0</ele><time>2026-04-19T11:19:01.999Z</time></trkpt><trkpt lat="42.67389584990416" lon="12.726718041537712"><ele>577.0</ele><time>2026-04-19T11:19:02.999Z</time></trkpt><trkpt lat="42.67404108804298" lon="12.726641097437119"><ele>577.0</ele><time>2026-04-19T11:19:03.999Z</time></trkpt><trkpt lat="42.674188983137796" lon="12.726561727908674"><ele>577.0</ele><time>2026-04-19T11:19:04.999Z</time></trkpt><trkpt lat="42.67433765458717" lon="12.72648224542681"><ele>577.0</ele><time>2026-04-19T11:19:05.999Z</time></trkpt><trkpt lat="42.67448580212322" lon="12.726404030291338"><ele>579.0</ele><time>2026-04-19T11:19:06.999Z</time></trkpt><trkpt lat="42.6746339298143" lon="12.726328189513325"><ele>581.0</ele><time>2026-04-19T11:19:07.999Z</time></trkpt><trkpt lat="42.67478391947725" lon="12.726244617562932"><ele>583.0</ele><time>2026-04-19T11:19:08.999Z</time></trkpt><trkpt lat="42.67493018482045" lon="12.72616390586825"><ele>583.0</ele><time>2026-04-19T11:19:09.999Z</time></trkpt><trkpt lat="42.67507862451493" lon="12.726081569641632"><ele>583.0</ele><time>2026-04-19T11:19:10.999Z</time></trkpt><trkpt lat="42.67522522264875" lon="12.725999907699949"><ele>583.0</ele><time>2026-04-19T11:19:11.999Z</time></trkpt><trkpt lat="42.67536885803269" lon="12.725917722701674"><ele>573.3333333333334</ele><time>2026-04-19T11:19:12.999Z</time></trkpt><trkpt lat="42.675515714942726" lon="12.725833373293947"><ele>563.6666666666666</ele><time>2026-04-19T11:19:13.999Z</time></trkpt><trkpt lat="42.67566092095998" lon="12.725753014034893"><ele>554.0</ele><time>2026-04-19T11:19:15Z</time></trkpt><trkpt lat="42.675803464850404" lon="12.725679190001658"><ele>554.0</ele><time>2026-04-19T11:19:16Z</time></trkpt><trkpt lat="42.675949109751585" lon="12.72560934953271"><ele>554.0</ele><time>2026-04-19T11:19:17Z</time></trkpt><trkpt lat="42.676097835339846" lon="12.725548375126658"><ele>554.0</ele><time>2026-04-19T11:19:18Z</time></trkpt><trkpt lat="42.67625046333366" lon="12.725499865217518"><ele>551.0</ele><time>2026-04-19T11:19:19Z</time></trkpt><trkpt lat="42.676405790847845" lon="12.725465301916154"><ele>548.0</ele><time>2026-04-19T11:19:20Z</time></trkpt><trkpt lat="42.676562760584765" lon="12.72544601161517"><ele>545.0</ele><time>2026-04-19T11:19:21Z</time></trkpt><trkpt lat="42.676723303412" lon="12.725443217786347"><ele>545.0</ele><time>2026-04-19T11:19:22Z</time></trkpt><trkpt lat="42.67688004612229" lon="12.725453535901902"><ele>545.0</ele><time>2026-04-19T11:19:23Z</time></trkpt><trkpt lat="42.67704075544046" lon="12.725476256988143"><ele>545.0</ele><time>2026-04-19T11:19:24Z</time></trkpt><trkpt lat="42.67720076794502" lon="12.725513312905596"><ele>545.6666666666666</ele><time>2026-04-19T11:19:25Z</time></trkpt><trkpt lat="42.67735951645564" lon="12.72555295259627"><ele>546.3333333333334</ele><time>2026-04-19T11:19:26Z</time></trkpt><trkpt lat="42.67752318915882" lon="12.725591272466376"><ele>547.0</ele><time>2026-04-19T11:19:27Z</time></trkpt><trkpt lat="42.67768616133142" lon="12.725624620572066"><ele>547.6666666666667</ele><time>2026-04-19T11:19:28Z</time></trkpt><trkpt lat="42.677852801419235" lon="12.72566137548282"><ele>548.3333333333334</ele><time>2026-04-19T11:19:29Z</time></trkpt><trkpt lat="42.67801756226398" lon="12.725702330021951"><ele>549.0</ele><time>2026-04-19T11:19:30Z</time></trkpt><trkpt lat="42.67818218196126" lon="12.725747353163078"><ele>549.0</ele><time>2026-04-19T11:19:31Z</time></trkpt><trkpt lat="42.678350300235735" lon="12.725804658909452"><ele>549.0</ele><time>2026-04-19T11:19:32Z</time></trkpt><trkpt lat="42.67852321458405" lon="12.72586147334548"><ele>549.0</ele><time>2026-04-19T11:19:33Z</time></trkpt><trkpt lat="42.67868636791164" lon="12.72591860154087"><ele>551.3333333333334</ele><time>2026-04-19T11:19:34Z</time></trkpt><trkpt lat="42.67884935075491" lon="12.725979305623536"><ele>553.6666666666667</ele><time>2026-04-19T11:19:35Z</time></trkpt><trkpt lat="42.67901308148097" lon="12.726034073595017"><ele>556.0</ele><time>2026-04-19T11:19:36Z</time></trkpt><trkpt lat="42.67918268838278" lon="12.726088928234796"><ele>556.0</ele><time>2026-04-19T11:19:37Z</time></trkpt><trkpt lat="42.67932452999389" lon="12.726037440104243"><ele>556.0</ele><time>2026-04-19T11:19:38Z</time></trkpt><trkpt lat="42.67948804953563" lon="12.72610037500557"><ele>556.0</ele><time>2026-04-19T11:19:39Z</time></trkpt><trkpt lat="42.679648178005486" lon="12.726185295967294"><ele>548.3333333333334</ele><time>2026-04-19T11:19:40Z</time></trkpt><trkpt lat="42.67980615488489" lon="12.72628166788768"><ele>540.6666666666666</ele><time>2026-04-19T11:19:41Z</time></trkpt><trkpt lat="42.67996650665212" lon="12.726374232941282"><ele>533.0</ele><time>2026-04-19T11:19:42Z</time></trkpt><trkpt lat="42.6801278154684" lon="12.726459341312472"><ele>535.0</ele><time>2026-04-19T11:19:43Z</time></trkpt><trkpt lat="42.680288089614564" lon="12.726544675192907"><ele>537.0</ele><time>2026-04-19T11:19:44Z</time></trkpt><trkpt lat="42.680448780060075" lon="12.726627386389618"><ele>539.0</ele><time>2026-04-19T11:19:45Z</time></trkpt><trkpt lat="42.68060734640774" lon="12.726711461821694"><ele>539.0</ele><time>2026-04-19T11:19:46Z</time></trkpt><trkpt lat="42.680758310144356" lon="12.726800983526955"><ele>539.0</ele><time>2026-04-19T11:19:47Z</time></trkpt><trkpt lat="42.680912252193494" lon="12.7268761389698"><ele>539.0</ele><time>2026-04-19T11:19:48Z</time></trkpt><trkpt lat="42.68106833924218" lon="12.726941083889477"><ele>531.6666666666666</ele><time>2026-04-19T11:19:49Z</time></trkpt><trkpt lat="42.68122606236551" lon="12.726991527499086"><ele>524.3333333333334</ele><time>2026-04-19T11:19:50Z</time></trkpt><trkpt lat="42.6813872975204" lon="12.727025268666075"><ele>517.0</ele><time>2026-04-19T11:19:51Z</time></trkpt><trkpt lat="42.68155253432415" lon="12.727038443276024"><ele>517.0</ele><time>2026-04-19T11:19:51.999Z</time></trkpt><trkpt lat="42.68171796579401" lon="12.72703528569774"><ele>517.0</ele><time>2026-04-19T11:19:52.999Z</time></trkpt><trkpt lat="42.68188849720748" lon="12.727029443798944"><ele>517.0</ele><time>2026-04-19T11:19:53.999Z</time></trkpt><trkpt lat="42.68206346797879" lon="12.727017078870775"><ele>516.0</ele><time>2026-04-19T11:19:54.999Z</time></trkpt><trkpt lat="42.68223621603457" lon="12.727015935452268"><ele>515.0</ele><time>2026-04-19T11:19:55.999Z</time></trkpt><trkpt lat="42.68241485343267" lon="12.727016362936213"><ele>514.0</ele><time>2026-04-19T11:19:56.999Z</time></trkpt><trkpt lat="42.68259877754501" lon="12.727015779662835"><ele>511.6666666666667</ele><time>2026-04-19T11:19:57.999Z</time></trkpt><trkpt lat="42.68278025128523" lon="12.727019030990299"><ele>509.33333333333337</ele><time>2026-04-19T11:19:58.999Z</time></trkpt><trkpt lat="42.68296427854027" lon="12.727015103657065"><ele>507.0</ele><time>2026-04-19T11:19:59.999Z</time></trkpt><trkpt lat="42.683139419276635" lon="12.727004672416127"><ele>507.0</ele><time>2026-04-19T11:20:00.999Z</time></trkpt><trkpt lat="42.6833201440553" lon="12.726968408433763"><ele>507.0</ele><time>2026-04-19T11:20:01.999Z</time></trkpt><trkpt lat="42.68349932896329" lon="12.726913381024026"><ele>507.0</ele><time>2026-04-19T11:20:02.999Z</time></trkpt><trkpt lat="42.683675610297755" lon="12.726837369307352"><ele>508.33333333333337</ele><time>2026-04-19T11:20:03.999Z</time></trkpt><trkpt lat="42.68384170030639" lon="12.726755284067579"><ele>509.6666666666667</ele><time>2026-04-19T11:20:04.999Z</time></trkpt><trkpt lat="42.68400721089349" lon="12.726658640576948"><ele>511.0</ele><time>2026-04-19T11:20:05.999Z</time></trkpt><trkpt lat="42.68417266154487" lon="12.726554738975876"><ele>511.0</ele><time>2026-04-19T11:20:06.999Z</time></trkpt><trkpt lat="42.68433527145029" lon="12.726442334461128"><ele>511.0</ele><time>2026-04-19T11:20:07.999Z</time></trkpt><trkpt lat="42.68450373944612" lon="12.726335402865224"><ele>511.0</ele><time>2026-04-19T11:20:08.999Z</time></trkpt><trkpt lat="42.684664089982" lon="12.726227748260913"><ele>504.33333333333337</ele><time>2026-04-19T11:20:09.999Z</time></trkpt><trkpt lat="42.684830747108045" lon="12.726121369484195"><ele>497.66666666666663</ele><time>2026-04-19T11:20:10.999Z</time></trkpt><trkpt lat="42.68499138389933" lon="12.726006246612883"><ele>491.0</ele><time>2026-04-19T11:20:11.999Z</time></trkpt><trkpt lat="42.685153846165356" lon="12.725902420085081"><ele>489.0</ele><time>2026-04-19T11:20:12.999Z</time></trkpt><trkpt lat="42.68531418255999" lon="12.7257841291524"><ele>487.0</ele><time>2026-04-19T11:20:13.999Z</time></trkpt><trkpt lat="42.68547823504041" lon="12.725689654856291"><ele>485.0</ele><time>2026-04-19T11:20:14.999Z</time></trkpt><trkpt lat="42.685645395292205" lon="12.725604280330973"><ele>485.0</ele><time>2026-04-19T11:20:15.999Z</time></trkpt><trkpt lat="42.68581661930553" lon="12.725521392433636"><ele>485.0</ele><time>2026-04-19T11:20:16.999Z</time></trkpt><trkpt lat="42.68598623324378" lon="12.725454076105326"><ele>485.0</ele><time>2026-04-19T11:20:17.999Z</time></trkpt><trkpt lat="42.68615608094985" lon="12.725405995982877"><ele>484.3333333333333</ele><time>2026-04-19T11:20:18.999Z</time></trkpt><trkpt lat="42.68633258977753" lon="12.725342918588984"><ele>483.66666666666663</ele><time>2026-04-19T11:20:19.999Z</time></trkpt><trkpt lat="42.68651211002125" lon="12.725280945123652"><ele>483.0</ele><time>2026-04-19T11:20:20.999Z</time></trkpt><trkpt lat="42.6866870893606" lon="12.72521084308754"><ele>490.66666666666663</ele><time>2026-04-19T11:20:21.999Z</time></trkpt><trkpt lat="42.686862362526554" lon="12.725143854795856"><ele>498.3333333333333</ele><time>2026-04-19T11:20:22.999Z</time></trkpt><trkpt lat="42.68703533768654" lon="12.725087404218131"><ele>506.0</ele><time>2026-04-19T11:20:23.999Z</time></trkpt><trkpt lat="42.687213374760944" lon="12.72501747630794"><ele>506.0</ele><time>2026-04-19T11:20:24.999Z</time></trkpt><trkpt lat="42.687386364271504" lon="12.724962829748604"><ele>506.0</ele><time>2026-04-19T11:20:25.999Z</time></trkpt><trkpt lat="42.687557383564446" lon="12.724892517395785"><ele>506.0</ele><time>2026-04-19T11:20:26.999Z</time></trkpt><trkpt lat="42.687728839933946" lon="12.724807895310365"><ele>496.66666666666663</ele><time>2026-04-19T11:20:27.999Z</time></trkpt><trkpt lat="42.68789430201793" lon="12.724710108034781"><ele>487.33333333333337</ele><time>2026-04-19T11:20:28.999Z</time></trkpt><trkpt lat="42.6880508285416" lon="12.724590214792235"><ele>478.0</ele><time>2026-04-19T11:20:29.999Z</time></trkpt><trkpt lat="42.68819713626734" lon="12.724436247520787"><ele>486.0</ele><time>2026-04-19T11:20:30.999Z</time></trkpt><trkpt lat="42.6883287820079" lon="12.724268631841978"><ele>494.0</ele><time>2026-04-19T11:20:31.999Z</time></trkpt><trkpt lat="42.68844587611322" lon="12.724122566781304"><ele>502.0</ele><time>2026-04-19T11:20:32.999Z</time></trkpt><trkpt lat="42.68856684436299" lon="12.723905914815383"><ele>496.6666666666667</ele><time>2026-04-19T11:20:33.999Z</time></trkpt><trkpt lat="42.68867979765737" lon="12.723705548708637"><ele>491.33333333333337</ele><time>2026-04-19T11:20:34.999Z</time></trkpt><trkpt lat="42.688792500201274" lon="12.723515887050606"><ele>486.0</ele><time>2026-04-19T11:20:35.999Z</time></trkpt><trkpt lat="42.68891116568598" lon="12.723326721932134"><ele>486.0</ele><time>2026-04-19T11:20:36.999Z</time></trkpt><trkpt lat="42.689022755946546" lon="12.72313788443316"><ele>486.0</ele><time>2026-04-19T11:20:37.999Z</time></trkpt><trkpt lat="42.68914099546146" lon="12.722947816133964"><ele>486.0</ele><time>2026-04-19T11:20:38.999Z</time></trkpt><trkpt lat="42.689256021828754" lon="12.722757470469315"><ele>482.66666666666663</ele><time>2026-04-19T11:20:39.999Z</time></trkpt><trkpt lat="42.68937494092562" lon="12.722568980324134"><ele>479.3333333333333</ele><time>2026-04-19T11:20:40.999Z</time></trkpt><trkpt lat="42.68950098603511" lon="12.722391518654558"><ele>476.0</ele><time>2026-04-19T11:20:41.999Z</time></trkpt><trkpt lat="42.689627419336304" lon="12.722224151484902"><ele>476.0</ele><time>2026-04-19T11:20:42.999Z</time></trkpt><trkpt lat="42.68977969079037" lon="12.722086586753738"><ele>476.0</ele><time>2026-04-19T11:20:43.999Z</time></trkpt><trkpt lat="42.68994538097498" lon="12.721981194682646"><ele>476.0</ele><time>2026-04-19T11:20:44.999Z</time></trkpt><trkpt lat="42.6901216438224" lon="12.721905721908097"><ele>481.3333333333333</ele><time>2026-04-19T11:20:45.999Z</time></trkpt><trkpt lat="42.69030310589304" lon="12.721852000030433"><ele>486.66666666666663</ele><time>2026-04-19T11:20:46.999Z</time></trkpt><trkpt lat="42.69047888127299" lon="12.721797431998032"><ele>492.0</ele><time>2026-04-19T11:20:47.999Z</time></trkpt><trkpt lat="42.69065369408477" lon="12.721727637675327"><ele>492.0</ele><time>2026-04-19T11:20:48.999Z</time></trkpt><trkpt lat="42.69082800801622" lon="12.72165272980885"><ele>492.0</ele><time>2026-04-19T11:20:49.999Z</time></trkpt><trkpt lat="42.69100254915246" lon="12.7215791093298"><ele>492.0</ele><time>2026-04-19T11:20:50.999Z</time></trkpt><trkpt lat="42.69117754489461" lon="12.721513488136601"><ele>489.0</ele><time>2026-04-19T11:20:51.999Z</time></trkpt><trkpt lat="42.69135340236381" lon="12.72145446009593"><ele>486.0</ele><time>2026-04-19T11:20:52.999Z</time></trkpt><trkpt lat="42.691531590118686" lon="12.721411778655106"><ele>483.0</ele><time>2026-04-19T11:20:53.999Z</time></trkpt><trkpt lat="42.69171493023928" lon="12.721398137109581"><ele>483.0</ele><time>2026-04-19T11:20:54.999Z</time></trkpt><trkpt lat="42.69189415545195" lon="12.721395823480249"><ele>483.0</ele><time>2026-04-19T11:20:55.999Z</time></trkpt><trkpt lat="42.69208083665894" lon="12.721435140231602"><ele>483.0</ele><time>2026-04-19T11:20:56.999Z</time></trkpt><trkpt lat="42.69226640950019" lon="12.721474324854594"><ele>481.33333333333337</ele><time>2026-04-19T11:20:57.999Z</time></trkpt><trkpt lat="42.69245485518258" lon="12.72150894254424"><ele>479.6666666666667</ele><time>2026-04-19T11:20:58.999Z</time></trkpt><trkpt lat="42.69264036842786" lon="12.721543243592548"><ele>478.0</ele><time>2026-04-19T11:20:59.999Z</time></trkpt><trkpt lat="42.692822972365185" lon="12.721572741429162"><ele>478.0</ele><time>2026-04-19T11:21:00.999Z</time></trkpt><trkpt lat="42.693005499517824" lon="12.721601446899228"><ele>478.0</ele><time>2026-04-19T11:21:01.999Z</time></trkpt><trkpt lat="42.693191596890685" lon="12.721627011437397"><ele>478.0</ele><time>2026-04-19T11:21:02.999Z</time></trkpt><trkpt lat="42.693376047263044" lon="12.721655804657727"><ele>478.0</ele><time>2026-04-19T11:21:03.999Z</time></trkpt><trkpt lat="42.69356077868319" lon="12.721687980253298"><ele>478.0</ele><time>2026-04-19T11:21:04.999Z</time></trkpt><trkpt lat="42.69374476009429" lon="12.721715743321322"><ele>478.0</ele><time>2026-04-19T11:21:05.999Z</time></trkpt><trkpt lat="42.693935164395995" lon="12.721743524707449"><ele>474.0</ele><time>2026-04-19T11:21:06.999Z</time></trkpt><trkpt lat="42.69412261113325" lon="12.72177237832681"><ele>470.0</ele><time>2026-04-19T11:21:07.999Z</time></trkpt><trkpt lat="42.69430889385011" lon="12.72180100874996"><ele>466.0</ele><time>2026-04-19T11:21:08.999Z</time></trkpt><trkpt lat="42.69449796329582" lon="12.72182984234605"><ele>463.0</ele><time>2026-04-19T11:21:09.999Z</time></trkpt><trkpt lat="42.69468916594411" lon="12.721860140446003"><ele>460.0</ele><time>2026-04-19T11:21:10.999Z</time></trkpt><trkpt lat="42.69487624616734" lon="12.72189644210143"><ele>457.0</ele><time>2026-04-19T11:21:11.999Z</time></trkpt><trkpt lat="42.695067637046925" lon="12.721925270786087"><ele>454.6666666666667</ele><time>2026-04-19T11:21:12.999Z</time></trkpt><trkpt lat="42.695259823210556" lon="12.72195695337391"><ele>452.33333333333337</ele><time>2026-04-19T11:21:13.999Z</time></trkpt><trkpt lat="42.695451572142275" lon="12.721988541675584"><ele>450.0</ele><time>2026-04-19T11:21:14.999Z</time></trkpt><trkpt lat="42.69564474183033" lon="12.72201802870787"><ele>450.0</ele><time>2026-04-19T11:21:15.999Z</time></trkpt><trkpt lat="42.695836529754146" lon="12.722051181734457"><ele>450.0</ele><time>2026-04-19T11:21:16.999Z</time></trkpt><trkpt lat="42.69602963876877" lon="12.72208414310272"><ele>450.0</ele><time>2026-04-19T11:21:17.999Z</time></trkpt><trkpt lat="42.69622331842665" lon="12.722113283271304"><ele>449.33333333333337</ele><time>2026-04-19T11:21:18.999Z</time></trkpt><trkpt lat="42.696414828386345" lon="12.72214051277954"><ele>448.6666666666667</ele><time>2026-04-19T11:21:19.999Z</time></trkpt><trkpt lat="42.69658030132369" lon="12.72216753356784"><ele>448.0</ele><time>2026-04-19T11:21:21Z</time></trkpt><trkpt lat="42.69679908385734" lon="12.72219469669033"><ele>448.6666666666667</ele><time>2026-04-19T11:21:22Z</time></trkpt><trkpt lat="42.696995065317836" lon="12.722228622437193"><ele>449.33333333333337</ele><time>2026-04-19T11:21:23Z</time></trkpt><trkpt lat="42.69718836486692" lon="12.722263369982837"><ele>450.0</ele><time>2026-04-19T11:21:24Z</time></trkpt><trkpt lat="42.697384521198465" lon="12.722298731628625"><ele>450.0</ele><time>2026-04-19T11:21:25Z</time></trkpt><trkpt lat="42.697571159711885" lon="12.722340033055147"><ele>450.0</ele><time>2026-04-19T11:21:26Z</time></trkpt><trkpt lat="42.69776042697241" lon="12.722388665850257"><ele>450.0</ele><time>2026-04-19T11:21:27Z</time></trkpt><trkpt lat="42.69794437746701" lon="12.722448870499772"><ele>449.33333333333337</ele><time>2026-04-19T11:21:28Z</time></trkpt><trkpt lat="42.69812794200053" lon="12.722499231416517"><ele>448.6666666666667</ele><time>2026-04-19T11:21:29Z</time></trkpt><trkpt lat="42.69830558449845" lon="12.722562828710837"><ele>448.0</ele><time>2026-04-19T11:21:30Z</time></trkpt><trkpt lat="42.69848352187759" lon="12.72263144151306"><ele>450.0</ele><time>2026-04-19T11:21:31Z</time></trkpt><trkpt lat="42.69866202047943" lon="12.722698058429629"><ele>452.0</ele><time>2026-04-19T11:21:32Z</time></trkpt><trkpt lat="42.698835729513036" lon="12.722761149283327"><ele>454.0</ele><time>2026-04-19T11:21:33Z</time></trkpt><trkpt lat="42.69900939046033" lon="12.722828395003079"><ele>449.33333333333337</ele><time>2026-04-19T11:21:34Z</time></trkpt><trkpt lat="42.69917947345219" lon="12.722891975091125"><ele>444.66666666666663</ele><time>2026-04-19T11:21:35Z</time></trkpt><trkpt lat="42.699352004476005" lon="12.72295646514057"><ele>440.0</ele><time>2026-04-19T11:21:36Z</time></trkpt><trkpt lat="42.69952883054676" lon="12.723023516272297"><ele>440.0</ele><time>2026-04-19T11:21:37Z</time></trkpt><trkpt lat="42.699702859028726" lon="12.723091282397382"><ele>440.0</ele><time>2026-04-19T11:21:38Z</time></trkpt><trkpt lat="42.69987828787483" lon="12.723150629916152"><ele>440.0</ele><time>2026-04-19T11:21:39Z</time></trkpt><trkpt lat="42.70005995598078" lon="12.72320600796114"><ele>440.0</ele><time>2026-04-19T11:21:40Z</time></trkpt><trkpt lat="42.700236708186225" lon="12.723237512720091"><ele>440.0</ele><time>2026-04-19T11:21:41Z</time></trkpt><trkpt lat="42.700416437168656" lon="12.723253862496392"><ele>440.0</ele><time>2026-04-19T11:21:42Z</time></trkpt><trkpt lat="42.700600555509084" lon="12.72326244433057"><ele>439.3333333333333</ele><time>2026-04-19T11:21:43Z</time></trkpt><trkpt lat="42.7007796030928" lon="12.723254151916457"><ele>438.66666666666663</ele><time>2026-04-19T11:21:44Z</time></trkpt><trkpt lat="42.700963930677126" lon="12.723242650669645"><ele>438.0</ele><time>2026-04-19T11:21:45Z</time></trkpt><trkpt lat="42.70113939490243" lon="12.72320219954443"><ele>435.33333333333337</ele><time>2026-04-19T11:21:46Z</time></trkpt><trkpt lat="42.701322003910754" lon="12.723141501001296"><ele>432.6666666666667</ele><time>2026-04-19T11:21:47Z</time></trkpt><trkpt lat="42.70149136844824" lon="12.723057465478725"><ele>430.0</ele><time>2026-04-19T11:21:48Z</time></trkpt><trkpt lat="42.70166039229373" lon="12.722967754733677"><ele>430.0</ele><time>2026-04-19T11:21:49Z</time></trkpt><trkpt lat="42.70183196313816" lon="12.722873583525553"><ele>430.0</ele><time>2026-04-19T11:21:50Z</time></trkpt><trkpt lat="42.70199514262718" lon="12.72277598537417"><ele>430.0</ele><time>2026-04-19T11:21:51Z</time></trkpt><trkpt lat="42.702161350332766" lon="12.722676321446395"><ele>432.33333333333337</ele><time>2026-04-19T11:21:52Z</time></trkpt><trkpt lat="42.70232795033274" lon="12.72257862277408"><ele>434.66666666666663</ele><time>2026-04-19T11:21:53Z</time></trkpt><trkpt lat="42.702496016495516" lon="12.72247851165684"><ele>437.0</ele><time>2026-04-19T11:21:54Z</time></trkpt><trkpt lat="42.70266032713291" lon="12.722376283928877"><ele>433.66666666666663</ele><time>2026-04-19T11:21:55Z</time></trkpt><trkpt lat="42.70282097976987" lon="12.722273218957094"><ele>430.33333333333337</ele><time>2026-04-19T11:21:56Z</time></trkpt><trkpt lat="42.70298955040083" lon="12.722173956046419"><ele>427.0</ele><time>2026-04-19T11:21:57Z</time></trkpt><trkpt lat="42.70315518688225" lon="12.722076408625082"><ele>427.0</ele><time>2026-04-19T11:21:58Z</time></trkpt><trkpt lat="42.703325813882486" lon="12.721979278445245"><ele>427.0</ele><time>2026-04-19T11:21:59Z</time></trkpt><trkpt lat="42.70350687440046" lon="12.721881465088881"><ele>427.0</ele><time>2026-04-19T11:22:00Z</time></trkpt><trkpt lat="42.703664877737296" lon="12.72177969103933"><ele>426.0</ele><time>2026-04-19T11:22:01Z</time></trkpt><trkpt lat="42.703833478948155" lon="12.721684096071742"><ele>425.0</ele><time>2026-04-19T11:22:02Z</time></trkpt><trkpt lat="42.703997564822856" lon="12.72158598563598"><ele>424.0</ele><time>2026-04-19T11:22:03Z</time></trkpt><trkpt lat="42.70416655704657" lon="12.721485870184996"><ele>424.0</ele><time>2026-04-19T11:22:04Z</time></trkpt><trkpt lat="42.70432656528723" lon="12.72138622248668"><ele>424.0</ele><time>2026-04-19T11:22:05Z</time></trkpt><trkpt lat="42.704491072343714" lon="12.72128411792818"><ele>424.0</ele><time>2026-04-19T11:22:06Z</time></trkpt><trkpt lat="42.70465273692604" lon="12.721183008848104"><ele>423.33333333333337</ele><time>2026-04-19T11:22:07Z</time></trkpt><trkpt lat="42.70482071536516" lon="12.721078962902057"><ele>422.66666666666663</ele><time>2026-04-19T11:22:08Z</time></trkpt><trkpt lat="42.7049883435126" lon="12.720975265893124"><ele>422.0</ele><time>2026-04-19T11:22:09Z</time></trkpt><trkpt lat="42.70515162991473" lon="12.720870845417597"><ele>420.66666666666663</ele><time>2026-04-19T11:22:10Z</time></trkpt><trkpt lat="42.705318591054976" lon="12.72077398680259"><ele>419.33333333333337</ele><time>2026-04-19T11:22:11Z</time></trkpt><trkpt lat="42.70548464551842" lon="12.720679134642115"><ele>418.0</ele><time>2026-04-19T11:22:12Z</time></trkpt><trkpt lat="42.70565290713765" lon="12.720585638209146"><ele>418.0</ele><time>2026-04-19T11:22:12.999Z</time></trkpt><trkpt lat="42.70581908492349" lon="12.720486900656347"><ele>418.0</ele><time>2026-04-19T11:22:13.999Z</time></trkpt><trkpt lat="42.70598073824705" lon="12.720383186279062"><ele>418.0</ele><time>2026-04-19T11:22:14.999Z</time></trkpt><trkpt lat="42.70615113312551" lon="12.720280958089022"><ele>417.33333333333337</ele><time>2026-04-19T11:22:15.999Z</time></trkpt><trkpt lat="42.70631666492385" lon="12.720176506523803"><ele>416.66666666666663</ele><time>2026-04-19T11:22:16.999Z</time></trkpt><trkpt lat="42.706482232076965" lon="12.720075053297414"><ele>416.0</ele><time>2026-04-19T11:22:17.999Z</time></trkpt><trkpt lat="42.706647777385605" lon="12.7199748588359"><ele>416.0</ele><time>2026-04-19T11:22:18.999Z</time></trkpt><trkpt lat="42.70681743604026" lon="12.719878764972913"><ele>416.0</ele><time>2026-04-19T11:22:19.999Z</time></trkpt><trkpt lat="42.70698206894289" lon="12.71978129410989"><ele>416.0</ele><time>2026-04-19T11:22:20.999Z</time></trkpt><trkpt lat="42.70716936807691" lon="12.719680771849388"><ele>414.66666666666663</ele><time>2026-04-19T11:22:21.999Z</time></trkpt><trkpt lat="42.70735503777724" lon="12.719576116641084"><ele>413.33333333333337</ele><time>2026-04-19T11:22:22.999Z</time></trkpt><trkpt lat="42.7074982908473" lon="12.719502085564384"><ele>412.0</ele><time>2026-04-19T11:22:23.999Z</time></trkpt><trkpt lat="42.707670698831144" lon="12.7194317118481"><ele>412.6666666666667</ele><time>2026-04-19T11:22:24.999Z</time></trkpt><trkpt lat="42.707841463165686" lon="12.719363264918158"><ele>413.33333333333337</ele><time>2026-04-19T11:22:25.999Z</time></trkpt><trkpt lat="42.70801922461307" lon="12.719308196069038"><ele>414.0</ele><time>2026-04-19T11:22:26.999Z</time></trkpt><trkpt lat="42.708194895269735" lon="12.719260935636237"><ele>414.0</ele><time>2026-04-19T11:22:27.999Z</time></trkpt><trkpt lat="42.708371347917236" lon="12.719223797463544"><ele>414.0</ele><time>2026-04-19T11:22:28.999Z</time></trkpt><trkpt lat="42.708552228042315" lon="12.719207660706461"><ele>414.0</ele><time>2026-04-19T11:22:29.999Z</time></trkpt><trkpt lat="42.70873353569563" lon="12.71920585386852"><ele>413.0</ele><time>2026-04-19T11:22:30.999Z</time></trkpt><trkpt lat="42.70891370440414" lon="12.719215833608393"><ele>412.0</ele><time>2026-04-19T11:22:31.999Z</time></trkpt><trkpt lat="42.70909332287964" lon="12.719233753319626"><ele>411.0</ele><time>2026-04-19T11:22:32.999Z</time></trkpt><trkpt lat="42.70927491678675" lon="12.719262176783474"><ele>410.33333333333337</ele><time>2026-04-19T11:22:33.999Z</time></trkpt><trkpt lat="42.709453306857384" lon="12.719294795938872"><ele>409.6666666666667</ele><time>2026-04-19T11:22:34.999Z</time></trkpt><trkpt lat="42.70962885536905" lon="12.719328948394162"><ele>409.0</ele><time>2026-04-19T11:22:35.999Z</time></trkpt><trkpt lat="42.70980667663217" lon="12.719373971334736"><ele>408.6666666666667</ele><time>2026-04-19T11:22:36.999Z</time></trkpt><trkpt lat="42.70998435681308" lon="12.71941608401893"><ele>408.33333333333337</ele><time>2026-04-19T11:22:37.999Z</time></trkpt><trkpt lat="42.710162695770414" lon="12.71944414501917"><ele>408.0</ele><time>2026-04-19T11:22:38.999Z</time></trkpt><trkpt lat="42.7103445098208" lon="12.719485882976926"><ele>407.33333333333337</ele><time>2026-04-19T11:22:39.999Z</time></trkpt><trkpt lat="42.71052657462853" lon="12.719518068627313"><ele>406.6666666666667</ele><time>2026-04-19T11:22:40.999Z</time></trkpt><trkpt lat="42.71070764187522" lon="12.719560089869347"><ele>406.0</ele><time>2026-04-19T11:22:41.999Z</time></trkpt><trkpt lat="42.71088725348836" lon="12.71960001196942"><ele>406.0</ele><time>2026-04-19T11:22:42.999Z</time></trkpt><trkpt lat="42.711063854306396" lon="12.719639996988516"><ele>406.0</ele><time>2026-04-19T11:22:43.999Z</time></trkpt><trkpt lat="42.71123883278139" lon="12.719680289097612"><ele>406.0</ele><time>2026-04-19T11:22:44.999Z</time></trkpt><trkpt lat="42.711414144460285" lon="12.719724176328603"><ele>406.0</ele><time>2026-04-19T11:22:45.999Z</time></trkpt><trkpt lat="42.71158973262861" lon="12.719781431167299"><ele>406.0</ele><time>2026-04-19T11:22:46.999Z</time></trkpt><trkpt lat="42.7117659207196" lon="12.719850856394169"><ele>406.0</ele><time>2026-04-19T11:22:47.999Z</time></trkpt><trkpt lat="42.71193932832118" lon="12.719937648663796"><ele>405.6666666666667</ele><time>2026-04-19T11:22:48.999Z</time></trkpt><trkpt lat="42.71210788882017" lon="12.720036442144217"><ele>405.33333333333337</ele><time>2026-04-19T11:22:49.999Z</time></trkpt><trkpt lat="42.712274494197885" lon="12.720133370417752"><ele>405.0</ele><time>2026-04-19T11:22:50.999Z</time></trkpt><trkpt lat="42.712439677859074" lon="12.720242080320624"><ele>405.0</ele><time>2026-04-19T11:22:51.999Z</time></trkpt><trkpt lat="42.71259568530212" lon="12.720361500279251"><ele>405.0</ele><time>2026-04-19T11:22:52.999Z</time></trkpt><trkpt lat="42.71274873591755" lon="12.720504060395935"><ele>405.0</ele><time>2026-04-19T11:22:53.999Z</time></trkpt><trkpt lat="42.71289658558123" lon="12.720641677310981"><ele>405.66666666666663</ele><time>2026-04-19T11:22:54.999Z</time></trkpt><trkpt lat="42.713040405559056" lon="12.72080275342506"><ele>406.3333333333333</ele><time>2026-04-19T11:22:55.999Z</time></trkpt><trkpt lat="42.71318099659984" lon="12.720963418884066"><ele>407.0</ele><time>2026-04-19T11:22:56.999Z</time></trkpt><trkpt lat="42.71331901985943" lon="12.721118624880697"><ele>405.66666666666663</ele><time>2026-04-19T11:22:57.999Z</time></trkpt><trkpt lat="42.71345636424956" lon="12.721280191329377"><ele>404.33333333333337</ele><time>2026-04-19T11:22:58.999Z</time></trkpt><trkpt lat="42.71360047766587" lon="12.721458300448678"><ele>403.0</ele><time>2026-04-19T11:22:59.999Z</time></trkpt><trkpt lat="42.71372676233096" lon="12.721616788807898"><ele>402.6666666666667</ele><time>2026-04-19T11:23:00.999Z</time></trkpt><trkpt lat="42.713860755828925" lon="12.721779850613613"><ele>402.33333333333337</ele><time>2026-04-19T11:23:01.999Z</time></trkpt><trkpt lat="42.71399565869734" lon="12.721942838136863"><ele>402.0</ele><time>2026-04-19T11:23:02.999Z</time></trkpt><trkpt lat="42.714131701417536" lon="12.722107407487385"><ele>402.0</ele><time>2026-04-19T11:23:03.999Z</time></trkpt><trkpt lat="42.71426686284725" lon="12.722270668506425"><ele>402.0</ele><time>2026-04-19T11:23:04.999Z</time></trkpt><trkpt lat="42.71440333521835" lon="12.722434971309431"><ele>402.0</ele><time>2026-04-19T11:23:05.999Z</time></trkpt><trkpt lat="42.71453830973447" lon="12.722601410174294"><ele>401.33333333333337</ele><time>2026-04-19T11:23:06.999Z</time></trkpt><trkpt lat="42.71467334512237" lon="12.722773533287308"><ele>400.6666666666667</ele><time>2026-04-19T11:23:07.999Z</time></trkpt><trkpt lat="42.71480673270396" lon="12.722938584858127"><ele>400.0</ele><time>2026-04-19T11:23:08.999Z</time></trkpt><trkpt lat="42.71494189032745" lon="12.723100646096418"><ele>400.0</ele><time>2026-04-19T11:23:09.999Z</time></trkpt><trkpt lat="42.71507513438388" lon="12.72326512636229"><ele>400.0</ele><time>2026-04-19T11:23:10.999Z</time></trkpt><trkpt lat="42.715208745736064" lon="12.723423159462532"><ele>400.0</ele><time>2026-04-19T11:23:11.999Z</time></trkpt><trkpt lat="42.71534419197207" lon="12.723590551239138"><ele>399.33333333333337</ele><time>2026-04-19T11:23:12.999Z</time></trkpt><trkpt lat="42.71547916027955" lon="12.723756267819045"><ele>398.66666666666663</ele><time>2026-04-19T11:23:13.999Z</time></trkpt><trkpt lat="42.71561564374183" lon="12.72391638957814"><ele>398.0</ele><time>2026-04-19T11:23:14.999Z</time></trkpt><trkpt lat="42.71575082024101" lon="12.724086301102892"><ele>398.0</ele><time>2026-04-19T11:23:15.999Z</time></trkpt><trkpt lat="42.71588587520966" lon="12.724247985666242"><ele>398.0</ele><time>2026-04-19T11:23:16.999Z</time></trkpt><trkpt lat="42.7160187171422" lon="12.724415846696184"><ele>398.0</ele><time>2026-04-19T11:23:17.999Z</time></trkpt><trkpt lat="42.716151264259125" lon="12.724580951114932"><ele>397.0</ele><time>2026-04-19T11:23:18.999Z</time></trkpt><trkpt lat="42.716286349192316" lon="12.724751378347579"><ele>396.0</ele><time>2026-04-19T11:23:19.999Z</time></trkpt><trkpt lat="42.71642002324012" lon="12.724915241135873"><ele>395.0</ele><time>2026-04-19T11:23:20.999Z</time></trkpt><trkpt lat="42.71655525508149" lon="12.725076725599346"><ele>395.0</ele><time>2026-04-19T11:23:21.999Z</time></trkpt><trkpt lat="42.716691151714606" lon="12.725241792577501"><ele>395.0</ele><time>2026-04-19T11:23:22.999Z</time></trkpt><trkpt lat="42.71682604965527" lon="12.725408737161452"><ele>395.0</ele><time>2026-04-19T11:23:23.999Z</time></trkpt><trkpt lat="42.716962591292315" lon="12.725572891413062"><ele>395.0</ele><time>2026-04-19T11:23:24.999Z</time></trkpt><trkpt lat="42.71709926862888" lon="12.725739986528598"><ele>395.0</ele><time>2026-04-19T11:23:25.999Z</time></trkpt><trkpt lat="42.71723754104011" lon="12.725893979034135"><ele>395.0</ele><time>2026-04-19T11:23:27Z</time></trkpt><trkpt lat="42.71736950558175" lon="12.726068492682986"><ele>395.0</ele><time>2026-04-19T11:23:28Z</time></trkpt><trkpt lat="42.71750160006452" lon="12.726239573232814"><ele>395.0</ele><time>2026-04-19T11:23:29Z</time></trkpt><trkpt lat="42.71763727638733" lon="12.72640102640904"><ele>395.0</ele><time>2026-04-19T11:23:30Z</time></trkpt><trkpt lat="42.71777427359874" lon="12.72656223162082"><ele>394.3333333333333</ele><time>2026-04-19T11:23:31Z</time></trkpt><trkpt lat="42.71791013190315" lon="12.726728831656242"><ele>393.66666666666663</ele><time>2026-04-19T11:23:32Z</time></trkpt><trkpt lat="42.71804475191338" lon="12.726886244716509"><ele>393.0</ele><time>2026-04-19T11:23:33Z</time></trkpt><trkpt lat="42.71817862459153" lon="12.72705011084819"><ele>391.33333333333337</ele><time>2026-04-19T11:23:34Z</time></trkpt><trkpt lat="42.7183142130466" lon="12.727219273566048"><ele>389.6666666666667</ele><time>2026-04-19T11:23:35Z</time></trkpt><trkpt lat="42.718449137138464" lon="12.72737907605047"><ele>388.0</ele><time>2026-04-19T11:23:36Z</time></trkpt><trkpt lat="42.71858326110873" lon="12.727544162816583"><ele>388.0</ele><time>2026-04-19T11:23:37Z</time></trkpt><trkpt lat="42.718718530950504" lon="12.72771381031428"><ele>388.0</ele><time>2026-04-19T11:23:38Z</time></trkpt><trkpt lat="42.71885173006443" lon="12.727879039125016"><ele>388.0</ele><time>2026-04-19T11:23:39Z</time></trkpt><trkpt lat="42.71898553359101" lon="12.728051926317747"><ele>387.0</ele><time>2026-04-19T11:23:40Z</time></trkpt><trkpt lat="42.71912080406228" lon="12.728208247103042"><ele>386.0</ele><time>2026-04-19T11:23:41Z</time></trkpt><trkpt lat="42.719258365435174" lon="12.728374140507814"><ele>385.0</ele><time>2026-04-19T11:23:42Z</time></trkpt><trkpt lat="42.719392440825466" lon="12.728532226595254"><ele>385.33333333333337</ele><time>2026-04-19T11:23:43Z</time></trkpt><trkpt lat="42.7195275453792" lon="12.728694016979821"><ele>385.66666666666663</ele><time>2026-04-19T11:23:44Z</time></trkpt><trkpt lat="42.719664142493755" lon="12.72886325385856"><ele>386.0</ele><time>2026-04-19T11:23:45Z</time></trkpt><trkpt lat="42.71979956591215" lon="12.729028610614142"><ele>386.0</ele><time>2026-04-19T11:23:46Z</time></trkpt><trkpt lat="42.71993508758762" lon="12.729191859511882"><ele>386.0</ele><time>2026-04-19T11:23:47Z</time></trkpt><trkpt lat="42.72006967046939" lon="12.729356990218495"><ele>386.0</ele><time>2026-04-19T11:23:48Z</time></trkpt><trkpt lat="42.72020483289509" lon="12.729522954902109"><ele>385.3333333333333</ele><time>2026-04-19T11:23:49Z</time></trkpt><trkpt lat="42.720338927547495" lon="12.729693222857366"><ele>384.66666666666663</ele><time>2026-04-19T11:23:50Z</time></trkpt><trkpt lat="42.72047294879199" lon="12.729854649439455"><ele>384.0</ele><time>2026-04-19T11:23:51Z</time></trkpt><trkpt lat="42.72060842757892" lon="12.73001860155255"><ele>384.0</ele><time>2026-04-19T11:23:52Z</time></trkpt><trkpt lat="42.72074465014939" lon="12.730185311960303"><ele>384.0</ele><time>2026-04-19T11:23:53Z</time></trkpt><trkpt lat="42.720879911838615" lon="12.7303461802531"><ele>384.0</ele><time>2026-04-19T11:23:54Z</time></trkpt><trkpt lat="42.72101622877188" lon="12.73051437903345"><ele>384.66666666666663</ele><time>2026-04-19T11:23:55Z</time></trkpt><trkpt lat="42.721149563641646" lon="12.730673338766925"><ele>385.3333333333333</ele><time>2026-04-19T11:23:56Z</time></trkpt><trkpt lat="42.721285416928716" lon="12.730836996078713"><ele>386.0</ele><time>2026-04-19T11:23:57Z</time></trkpt><trkpt lat="42.721420468135015" lon="12.73099913678543"><ele>385.66666666666663</ele><time>2026-04-19T11:23:58Z</time></trkpt><trkpt lat="42.72155615919275" lon="12.731166089031772"><ele>385.33333333333337</ele><time>2026-04-19T11:23:59Z</time></trkpt><trkpt lat="42.72168804577535" lon="12.73133964507654"><ele>385.0</ele><time>2026-04-19T11:24:00Z</time></trkpt><trkpt lat="42.7218186554994" lon="12.731504710320536"><ele>384.33333333333337</ele><time>2026-04-19T11:24:01Z</time></trkpt><trkpt lat="42.721944206527105" lon="12.73168749861755"><ele>383.6666666666667</ele><time>2026-04-19T11:24:02Z</time></trkpt><trkpt lat="42.72206250983268" lon="12.7318726330106"><ele>383.0</ele><time>2026-04-19T11:24:03Z</time></trkpt><trkpt lat="42.72217428326039" lon="12.732071324799959"><ele>383.0</ele><time>2026-04-19T11:24:04Z</time></trkpt><trkpt lat="42.722277757712185" lon="12.73227281154384"><ele>383.0</ele><time>2026-04-19T11:24:05Z</time></trkpt><trkpt lat="42.72238391749412" lon="12.732468428517722"><ele>383.0</ele><time>2026-04-19T11:24:06Z</time></trkpt><trkpt lat="42.722489986429366" lon="12.732672817203149"><ele>383.33333333333337</ele><time>2026-04-19T11:24:07Z</time></trkpt><trkpt lat="42.72259982963776" lon="12.732862171328435"><ele>383.6666666666667</ele><time>2026-04-19T11:24:08Z</time></trkpt><trkpt lat="42.722712297232306" lon="12.73306333661762"><ele>384.0</ele><time>2026-04-19T11:24:09Z</time></trkpt><trkpt lat="42.72282341681621" lon="12.733257159050025"><ele>382.6666666666667</ele><time>2026-04-19T11:24:10Z</time></trkpt><trkpt lat="42.72293276116243" lon="12.733452705741898"><ele>381.33333333333337</ele><time>2026-04-19T11:24:11Z</time></trkpt><trkpt lat="42.72304279734313" lon="12.733649893964387"><ele>380.0</ele><time>2026-04-19T11:24:12Z</time></trkpt><trkpt lat="42.723155391949184" lon="12.733842928268267"><ele>380.0</ele><time>2026-04-19T11:24:13Z</time></trkpt><trkpt lat="42.72327505994285" lon="12.734030135310997"><ele>380.0</ele><time>2026-04-19T11:24:14Z</time></trkpt><trkpt lat="42.72341078157132" lon="12.73419442102271"><ele>380.0</ele><time>2026-04-19T11:24:15Z</time></trkpt><trkpt lat="42.72356217722948" lon="12.734328781500347"><ele>379.33333333333337</ele><time>2026-04-19T11:24:16Z</time></trkpt><trkpt lat="42.72372433099561" lon="12.734446573673454"><ele>378.6666666666667</ele><time>2026-04-19T11:24:17Z</time></trkpt><trkpt lat="42.72389142584142" lon="12.734546536707816"><ele>378.0</ele><time>2026-04-19T11:24:18Z</time></trkpt><trkpt lat="42.72406543749702" lon="12.734623126841115"><ele>378.0</ele><time>2026-04-19T11:24:19Z</time></trkpt><trkpt lat="42.724235713725946" lon="12.73467139545135"><ele>378.0</ele><time>2026-04-19T11:24:20Z</time></trkpt><trkpt lat="42.7244039868854" lon="12.734700969793687"><ele>378.0</ele><time>2026-04-19T11:24:21Z</time></trkpt><trkpt lat="42.72457211313862" lon="12.734723744710012"><ele>377.3333333333333</ele><time>2026-04-19T11:24:22Z</time></trkpt><trkpt lat="42.72473321968092" lon="12.7347359039781"><ele>376.66666666666663</ele><time>2026-04-19T11:24:23Z</time></trkpt><trkpt lat="42.724887052006956" lon="12.734750504188138"><ele>376.0</ele><time>2026-04-19T11:24:24Z</time></trkpt><trkpt lat="42.72504373596771" lon="12.734772462860679"><ele>376.0</ele><time>2026-04-19T11:24:25Z</time></trkpt><trkpt lat="42.72519950237099" lon="12.734799553011925"><ele>376.0</ele><time>2026-04-19T11:24:26Z</time></trkpt><trkpt lat="42.72535721262337" lon="12.734824199775943"><ele>376.0</ele><time>2026-04-19T11:24:27Z</time></trkpt><trkpt lat="42.72551011697156" lon="12.734846818121992"><ele>375.0</ele><time>2026-04-19T11:24:28Z</time></trkpt><trkpt lat="42.72566454118702" lon="12.734871714618695"><ele>374.0</ele><time>2026-04-19T11:24:29Z</time></trkpt><trkpt lat="42.725820390865884" lon="12.734893448064211"><ele>373.0</ele><time>2026-04-19T11:24:29.999Z</time></trkpt><trkpt lat="42.72597751556464" lon="12.73491602337704"><ele>372.0</ele><time>2026-04-19T11:24:30.999Z</time></trkpt><trkpt lat="42.72612794401301" lon="12.734937498218814"><ele>371.0</ele><time>2026-04-19T11:24:31.999Z</time></trkpt><trkpt lat="42.72627450054782" lon="12.734962414474019"><ele>370.0</ele><time>2026-04-19T11:24:32.999Z</time></trkpt><trkpt lat="42.72641792628531" lon="12.73499261159116"><ele>369.0</ele><time>2026-04-19T11:24:33.999Z</time></trkpt><trkpt lat="42.726554932286916" lon="12.735035512030322"><ele>369.0</ele><time>2026-04-19T11:24:34.999Z</time></trkpt><trkpt lat="42.726681674059414" lon="12.735098861045193"><ele>369.0</ele><time>2026-04-19T11:24:35.999Z</time></trkpt><trkpt lat="42.726800152957445" lon="12.735184646625733"><ele>369.0</ele><time>2026-04-19T11:24:36.999Z</time></trkpt><trkpt lat="42.72691733197591" lon="12.735281497948623"><ele>369.0</ele><time>2026-04-19T11:24:37.999Z</time></trkpt><trkpt lat="42.727025399236936" lon="12.735383884335588"><ele>368.5</ele><time>2026-04-19T11:24:38.999Z</time></trkpt><trkpt lat="42.72713121818028" lon="12.73549468580597"><ele>368.0</ele><time>2026-04-19T11:24:39.999Z</time></trkpt><trkpt lat="42.727224354701214" lon="12.735611271050955"><ele>367.5</ele><time>2026-04-19T11:24:40.999Z</time></trkpt><trkpt lat="42.72731197643735" lon="12.735722034898409"><ele>367.0</ele><time>2026-04-19T11:24:41.999Z</time></trkpt><trkpt lat="42.7273690067383" lon="12.735809020532567"><ele>367.0</ele><time>2026-04-19T11:24:42.999Z</time></trkpt><trkpt lat="42.72741784942287" lon="12.735888499046665"><ele>367.0</ele><time>2026-04-19T11:24:43.999Z</time></trkpt><trkpt lat="42.72745703008825" lon="12.735972020542462"><ele>367.0</ele><time>2026-04-19T11:24:44.999Z</time></trkpt><trkpt lat="42.727479021778755" lon="12.736053573051427"><ele>367.0</ele><time>2026-04-19T11:24:45.999Z</time></trkpt><trkpt lat="42.7275266964754" lon="12.736181541404164"><ele>367.0</ele><time>2026-04-19T11:24:47.999Z</time></trkpt><trkpt lat="42.7276206289852" lon="12.736244529196652"><ele>367.0</ele><time>2026-04-19T11:24:49.999Z</time></trkpt><trkpt lat="42.7277256114463" lon="12.7362855825527"><ele>366.85714285714283</ele><time>2026-04-19T11:24:51.999Z</time></trkpt><trkpt lat="42.7277796383363" lon="12.736336836335964"><ele>366.7142857142857</ele><time>2026-04-19T11:24:52.999Z</time></trkpt><trkpt lat="42.72783369233404" lon="12.736396127439779"><ele>366.57142857142856</ele><time>2026-04-19T11:24:53.999Z</time></trkpt><trkpt lat="42.72789006782432" lon="12.736461996518068"><ele>366.42857142857144</ele><time>2026-04-19T11:24:54.999Z</time></trkpt><trkpt lat="42.72794683972562" lon="12.736532136429274"><ele>366.28571428571433</ele><time>2026-04-19T11:24:55.999Z</time></trkpt><trkpt lat="42.728002976224744" lon="12.736604777909125"><ele>366.14285714285717</ele><time>2026-04-19T11:24:56.999Z</time></trkpt><trkpt lat="42.728062135246596" lon="12.736683739606377"><ele>366.0</ele><time>2026-04-19T11:24:57.999Z</time></trkpt><trkpt lat="42.72812358855829" lon="12.736761243112818"><ele>366.0</ele><time>2026-04-19T11:24:58.999Z</time></trkpt><trkpt lat="42.72818923974512" lon="12.736844145094192"><ele>366.0</ele><time>2026-04-19T11:24:59.999Z</time></trkpt><trkpt lat="42.728256600562965" lon="12.736930527194867"><ele>366.0</ele><time>2026-04-19T11:25:00.999Z</time></trkpt><trkpt lat="42.72832551976702" lon="12.73701645458036"><ele>366.0</ele><time>2026-04-19T11:25:01.999Z</time></trkpt><trkpt lat="42.72839856025256" lon="12.737108216206973"><ele>366.0</ele><time>2026-04-19T11:25:02.999Z</time></trkpt><trkpt lat="42.728470554512064" lon="12.737202481799033"><ele>366.20000000000005</ele><time>2026-04-19T11:25:03.999Z</time></trkpt><trkpt lat="42.72854774905421" lon="12.737295507602061"><ele>366.40000000000003</ele><time>2026-04-19T11:25:04.999Z</time></trkpt><trkpt lat="42.72862537069275" lon="12.737390820949248"><ele>366.6</ele><time>2026-04-19T11:25:05.999Z</time></trkpt><trkpt lat="42.728705418172865" lon="12.737489734091332"><ele>366.8</ele><time>2026-04-19T11:25:06.999Z</time></trkpt><trkpt lat="42.72878481284155" lon="12.73759250638468"><ele>367.0</ele><time>2026-04-19T11:25:07.999Z</time></trkpt><trkpt lat="42.72886621682207" lon="12.737696593608309"><ele>366.25</ele><time>2026-04-19T11:25:08.999Z</time></trkpt><trkpt lat="42.728951084645416" lon="12.737802988928907"><ele>365.5</ele><time>2026-04-19T11:25:09.999Z</time></trkpt><trkpt lat="42.729037894335924" lon="12.737910132747205"><ele>364.75</ele><time>2026-04-19T11:25:10.999Z</time></trkpt><trkpt lat="42.7291226623199" lon="12.738019183373591"><ele>364.0</ele><time>2026-04-19T11:25:11.999Z</time></trkpt><trkpt lat="42.72920957159222" lon="12.738133108323083"><ele>364.0</ele><time>2026-04-19T11:25:12.999Z</time></trkpt><trkpt lat="42.72929860550946" lon="12.738245036692428"><ele>364.0</ele><time>2026-04-19T11:25:13.999Z</time></trkpt><trkpt lat="42.72938753928611" lon="12.738354939904067"><ele>364.0</ele><time>2026-04-19T11:25:14.999Z</time></trkpt><trkpt lat="42.7294807457538" lon="12.738467900444013"><ele>364.0</ele><time>2026-04-19T11:25:15.999Z</time></trkpt><trkpt lat="42.729572062939326" lon="12.738581448756301"><ele>363.75</ele><time>2026-04-19T11:25:16.999Z</time></trkpt><trkpt lat="42.72966167867783" lon="12.738697552525498"><ele>363.5</ele><time>2026-04-19T11:25:17.999Z</time></trkpt><trkpt lat="42.72975266005935" lon="12.738816631118677"><ele>363.25</ele><time>2026-04-19T11:25:18.999Z</time></trkpt><trkpt lat="42.729842153557996" lon="12.738932470617117"><ele>363.0</ele><time>2026-04-19T11:25:19.999Z</time></trkpt><trkpt lat="42.72993373654049" lon="12.739047573266085"><ele>363.0</ele><time>2026-04-19T11:25:20.999Z</time></trkpt><trkpt lat="42.73003016513952" lon="12.739164183309022"><ele>363.0</ele><time>2026-04-19T11:25:21.999Z</time></trkpt><trkpt lat="42.73012485581123" lon="12.739279116273014"><ele>363.0</ele><time>2026-04-19T11:25:22.999Z</time></trkpt><trkpt lat="42.73022196067264" lon="12.739397450751094"><ele>363.0</ele><time>2026-04-19T11:25:23.999Z</time></trkpt><trkpt lat="42.730319496635666" lon="12.739518744517092"><ele>363.0</ele><time>2026-04-19T11:25:24.999Z</time></trkpt><trkpt lat="42.730419048713614" lon="12.739638477063334"><ele>363.0</ele><time>2026-04-19T11:25:25.999Z</time></trkpt><trkpt lat="42.73052876531692" lon="12.739749312877018"><ele>363.0</ele><time>2026-04-19T11:25:26.999Z</time></trkpt><trkpt lat="42.73064309513519" lon="12.739850277550833"><ele>363.0</ele><time>2026-04-19T11:25:27.999Z</time></trkpt><trkpt lat="42.7307591337854" lon="12.739944240565944"><ele>363.0</ele><time>2026-04-19T11:25:28.999Z</time></trkpt><trkpt lat="42.730877389297405" lon="12.740030938587287"><ele>363.0</ele><time>2026-04-19T11:25:29.999Z</time></trkpt><trkpt lat="42.73099796064499" lon="12.740109625648843"><ele>363.0</ele><time>2026-04-19T11:25:30.999Z</time></trkpt><trkpt lat="42.731125843150494" lon="12.7401804631233"><ele>363.0</ele><time>2026-04-19T11:25:31.999Z</time></trkpt><trkpt lat="42.73125546321507" lon="12.740236243862844"><ele>363.75</ele><time>2026-04-19T11:25:33Z</time></trkpt><trkpt lat="42.73138985646345" lon="12.740284358335295"><ele>364.5</ele><time>2026-04-19T11:25:34Z</time></trkpt><trkpt lat="42.73152696708913" lon="12.740328482616155"><ele>365.25</ele><time>2026-04-19T11:25:35Z</time></trkpt><trkpt lat="42.73166630665635" lon="12.74037300016156"><ele>366.0</ele><time>2026-04-19T11:25:36Z</time></trkpt><trkpt lat="42.731802211479796" lon="12.740419462858037"><ele>375.0</ele><time>2026-04-19T11:25:37Z</time></trkpt><trkpt lat="42.73194350876065" lon="12.740468171308956"><ele>384.0</ele><time>2026-04-19T11:25:38Z</time></trkpt><trkpt lat="42.73208155628667" lon="12.74051221031716"><ele>393.0</ele><time>2026-04-19T11:25:39Z</time></trkpt><trkpt lat="42.73222269881883" lon="12.740561027814756"><ele>402.0</ele><time>2026-04-19T11:25:40Z</time></trkpt><trkpt lat="42.732368104528696" lon="12.740608953619297"><ele>402.0</ele><time>2026-04-19T11:25:41Z</time></trkpt><trkpt lat="42.732517865542555" lon="12.740657762015921"><ele>402.0</ele><time>2026-04-19T11:25:42Z</time></trkpt><trkpt lat="42.73267112709075" lon="12.74070929375136"><ele>402.0</ele><time>2026-04-19T11:25:43Z</time></trkpt><trkpt lat="42.732826931755156" lon="12.740761162145212"><ele>411.33333333333337</ele><time>2026-04-19T11:25:44Z</time></trkpt><trkpt lat="42.73298410674342" lon="12.740814953191235"><ele>420.6666666666667</ele><time>2026-04-19T11:25:45Z</time></trkpt><trkpt lat="42.73315520529916" lon="12.740868600814405"><ele>430.0</ele><time>2026-04-19T11:25:46.075Z</time></trkpt><trkpt lat="42.73331394647773" lon="12.740936272087675"><ele>430.0</ele><time>2026-04-19T11:25:47.063Z</time></trkpt><trkpt lat="42.73347610773829" lon="12.740990047749197"><ele>430.0</ele><time>2026-04-19T11:25:48.064Z</time></trkpt><trkpt lat="42.73363827804318" lon="12.741043540804107"><ele>430.0</ele><time>2026-04-19T11:25:49.059Z</time></trkpt><trkpt lat="42.73379259693731" lon="12.7410918208829"><ele>445.0</ele><time>2026-04-19T11:25:50.041Z</time></trkpt><trkpt lat="42.73395228949442" lon="12.741141782155905"><ele>460.0</ele><time>2026-04-19T11:25:51.034Z</time></trkpt><trkpt lat="42.73592430667381" lon="12.741766692384742"><ele>340.0</ele><time>2026-04-19T11:25:54.981Z</time></trkpt><trkpt lat="42.73649715149958" lon="12.741982272771967"><ele>340.0</ele><time>2026-04-19T11:26:08Z</time></trkpt><trkpt lat="42.736618021656724" lon="12.74202625512384"><ele>340.0</ele><time>2026-04-19T11:26:09Z</time></trkpt><trkpt lat="42.73678783162738" lon="12.742052452714134"><ele>340.0</ele><time>2026-04-19T11:26:10Z</time></trkpt><trkpt lat="42.73693185999792" lon="12.742068107100598"><ele>340.0</ele><time>2026-04-19T11:26:11Z</time></trkpt><trkpt lat="42.73707516003255" lon="12.742067233140697"><ele>338.0</ele><time>2026-04-19T11:26:12Z</time></trkpt><trkpt lat="42.7372220710234" lon="12.742055386106953"><ele>336.0</ele><time>2026-04-19T11:26:13Z</time></trkpt><trkpt lat="42.737370845335526" lon="12.742024664565024"><ele>334.0</ele><time>2026-04-19T11:26:14Z</time></trkpt><trkpt lat="42.73752422577007" lon="12.741969854222887"><ele>334.0</ele><time>2026-04-19T11:26:15Z</time></trkpt><trkpt lat="42.737678804411274" lon="12.741903435315079"><ele>334.0</ele><time>2026-04-19T11:26:16Z</time></trkpt><trkpt lat="42.73783767285006" lon="12.741854829257859"><ele>334.0</ele><time>2026-04-19T11:26:17Z</time></trkpt><trkpt lat="42.737961193507836" lon="12.741808970083342"><ele>334.5</ele><time>2026-04-19T11:26:18Z</time></trkpt><trkpt lat="42.73810244738714" lon="12.741755402831581"><ele>335.0</ele><time>2026-04-19T11:26:19Z</time></trkpt><trkpt lat="42.738249967292504" lon="12.741700841378345"><ele>335.5</ele><time>2026-04-19T11:26:20Z</time></trkpt><trkpt lat="42.73839378042954" lon="12.74164658677641"><ele>336.0</ele><time>2026-04-19T11:26:21Z</time></trkpt><trkpt lat="42.738537070597296" lon="12.741589809195991"><ele>339.6666666666667</ele><time>2026-04-19T11:26:22Z</time></trkpt><trkpt lat="42.73868255647337" lon="12.74153173405572"><ele>343.33333333333337</ele><time>2026-04-19T11:26:23Z</time></trkpt><trkpt lat="42.738829493613316" lon="12.741478928968709"><ele>347.0</ele><time>2026-04-19T11:26:24Z</time></trkpt><trkpt lat="42.73897774889498" lon="12.741426581083777"><ele>347.0</ele><time>2026-04-19T11:26:25Z</time></trkpt><trkpt lat="42.73912728814918" lon="12.741373175377209"><ele>347.0</ele><time>2026-04-19T11:26:26Z</time></trkpt><trkpt lat="42.739275151516054" lon="12.741315450361853"><ele>347.0</ele><time>2026-04-19T11:26:27Z</time></trkpt><trkpt lat="42.73941803093798" lon="12.741260807855106"><ele>347.6666666666667</ele><time>2026-04-19T11:26:28Z</time></trkpt><trkpt lat="42.73956351115874" lon="12.741206375794867"><ele>348.3333333333333</ele><time>2026-04-19T11:26:29Z</time></trkpt><trkpt lat="42.73970702476203" lon="12.741148679254524"><ele>349.0</ele><time>2026-04-19T11:26:30Z</time></trkpt><trkpt lat="42.739851199804654" lon="12.741093340910496"><ele>344.3333333333333</ele><time>2026-04-19T11:26:31Z</time></trkpt><trkpt lat="42.739995808212946" lon="12.741038039799996"><ele>339.6666666666667</ele><time>2026-04-19T11:26:32Z</time></trkpt><trkpt lat="42.74014166119722" lon="12.740987607836242"><ele>335.0</ele><time>2026-04-19T11:26:32.999Z</time></trkpt><trkpt lat="42.740291002896534" lon="12.740944716739078"><ele>335.0</ele><time>2026-04-19T11:26:33.999Z</time></trkpt><trkpt lat="42.740437614819555" lon="12.740908831725303"><ele>335.0</ele><time>2026-04-19T11:26:34.999Z</time></trkpt><trkpt lat="42.740583224106985" lon="12.740881739217265"><ele>335.0</ele><time>2026-04-19T11:26:35.999Z</time></trkpt><trkpt lat="42.74074044288842" lon="12.740910535764584"><ele>335.0</ele><time>2026-04-19T11:26:36.999Z</time></trkpt><trkpt lat="42.740893205932586" lon="12.740928737054347"><ele>335.0</ele><time>2026-04-19T11:26:37.999Z</time></trkpt><trkpt lat="42.741039891088704" lon="12.740961571243245"><ele>335.0</ele><time>2026-04-19T11:26:38.999Z</time></trkpt><trkpt lat="42.74118714692134" lon="12.740998798185363"><ele>336.6666666666667</ele><time>2026-04-19T11:26:39.999Z</time></trkpt><trkpt lat="42.74133445083516" lon="12.74105235565757"><ele>338.3333333333333</ele><time>2026-04-19T11:26:40.999Z</time></trkpt><trkpt lat="42.741476623571245" lon="12.741119660895444"><ele>340.0</ele><time>2026-04-19T11:26:41.999Z</time></trkpt><trkpt lat="42.7416135659921" lon="12.74120036139936"><ele>340.0</ele><time>2026-04-19T11:26:42.999Z</time></trkpt><trkpt lat="42.74174453073386" lon="12.741287179678638"><ele>340.0</ele><time>2026-04-19T11:26:43.999Z</time></trkpt><trkpt lat="42.741877341377226" lon="12.741380948639687"><ele>340.0</ele><time>2026-04-19T11:26:44.999Z</time></trkpt><trkpt lat="42.74201369202387" lon="12.741477302702542"><ele>340.0</ele><time>2026-04-19T11:26:45.999Z</time></trkpt><trkpt lat="42.74214714492502" lon="12.741575020932794"><ele>341.0</ele><time>2026-04-19T11:26:46.999Z</time></trkpt><trkpt lat="42.742278041026644" lon="12.74166901827851"><ele>342.0</ele><time>2026-04-19T11:26:47.999Z</time></trkpt><trkpt lat="42.74240978333626" lon="12.741767530864172"><ele>343.0</ele><time>2026-04-19T11:26:48.999Z</time></trkpt><trkpt lat="42.74253793828893" lon="12.741860844792315"><ele>344.0</ele><time>2026-04-19T11:26:49.999Z</time></trkpt><trkpt lat="42.74266547925614" lon="12.741955216585772"><ele>341.5</ele><time>2026-04-19T11:26:50.999Z</time></trkpt><trkpt lat="42.74279182208474" lon="12.742048232757881"><ele>339.0</ele><time>2026-04-19T11:26:51.999Z</time></trkpt><trkpt lat="42.74291768614232" lon="12.742140190908367"><ele>336.5</ele><time>2026-04-19T11:26:52.999Z</time></trkpt><trkpt lat="42.743038925847884" lon="12.74223116363326"><ele>334.0</ele><time>2026-04-19T11:26:53.999Z</time></trkpt><trkpt lat="42.74315654983338" lon="12.742323102918538"><ele>334.0</ele><time>2026-04-19T11:26:54.999Z</time></trkpt><trkpt lat="42.743275236528326" lon="12.742414070664845"><ele>334.0</ele><time>2026-04-19T11:26:55.999Z</time></trkpt><trkpt lat="42.74339364307266" lon="12.742503896426566"><ele>334.0</ele><time>2026-04-19T11:26:56.999Z</time></trkpt><trkpt lat="42.74350931988085" lon="12.742589945349122"><ele>334.0</ele><time>2026-04-19T11:26:57.999Z</time></trkpt><trkpt lat="42.74362642729802" lon="12.742675327461875"><ele>333.75</ele><time>2026-04-19T11:26:58.999Z</time></trkpt><trkpt lat="42.743741388854616" lon="12.74275817393935"><ele>333.5</ele><time>2026-04-19T11:26:59.999Z</time></trkpt><trkpt lat="42.74385624154466" lon="12.742841576960176"><ele>333.25</ele><time>2026-04-19T11:27:00.999Z</time></trkpt><trkpt lat="42.74397359948076" lon="12.742925966595056"><ele>333.0</ele><time>2026-04-19T11:27:01.999Z</time></trkpt><trkpt lat="42.74408759736482" lon="12.743010150417913"><ele>333.0</ele><time>2026-04-19T11:27:02.999Z</time></trkpt><trkpt lat="42.744196945968255" lon="12.74309130241822"><ele>333.0</ele><time>2026-04-19T11:27:03.999Z</time></trkpt><trkpt lat="42.744303519721285" lon="12.743174200502498"><ele>333.0</ele><time>2026-04-19T11:27:04.999Z</time></trkpt><trkpt lat="42.74440914013192" lon="12.74325415834527"><ele>333.0</ele><time>2026-04-19T11:27:05.999Z</time></trkpt><trkpt lat="42.7445140107823" lon="12.743330367509891"><ele>332.25</ele><time>2026-04-19T11:27:06.999Z</time></trkpt><trkpt lat="42.74461969641629" lon="12.743405715787707"><ele>331.5</ele><time>2026-04-19T11:27:07.999Z</time></trkpt><trkpt lat="42.74472457639107" lon="12.743478907310202"><ele>330.75</ele><time>2026-04-19T11:27:08.999Z</time></trkpt><trkpt lat="42.74483188224542" lon="12.743558257943272"><ele>330.0</ele><time>2026-04-19T11:27:09.999Z</time></trkpt><trkpt lat="42.744935118854954" lon="12.743637233868286"><ele>330.0</ele><time>2026-04-19T11:27:10.999Z</time></trkpt><trkpt lat="42.74503899531175" lon="12.743713870675938"><ele>330.0</ele><time>2026-04-19T11:27:11.999Z</time></trkpt><trkpt lat="42.745140966366804" lon="12.743789380456327"><ele>330.0</ele><time>2026-04-19T11:27:12.999Z</time></trkpt><trkpt lat="42.74523935239152" lon="12.743865942783438"><ele>330.0</ele><time>2026-04-19T11:27:13.999Z</time></trkpt><trkpt lat="42.74533846980428" lon="12.743945150994586"><ele>328.5</ele><time>2026-04-19T11:27:14.999Z</time></trkpt><trkpt lat="42.74543526811625" lon="12.744025082418956"><ele>327.0</ele><time>2026-04-19T11:27:15.999Z</time></trkpt><trkpt lat="42.7455338518771" lon="12.744105891962233"><ele>325.5</ele><time>2026-04-19T11:27:16.999Z</time></trkpt><trkpt lat="42.74563101164539" lon="12.744187503487556"><ele>324.0</ele><time>2026-04-19T11:27:17.999Z</time></trkpt><trkpt lat="42.74572975910827" lon="12.744268420388556"><ele>324.0</ele><time>2026-04-19T11:27:18.999Z</time></trkpt><trkpt lat="42.745827383017605" lon="12.744347857545128"><ele>324.0</ele><time>2026-04-19T11:27:19.999Z</time></trkpt><trkpt lat="42.74591711994979" lon="12.744424016060858"><ele>324.0</ele><time>2026-04-19T11:27:20.999Z</time></trkpt><trkpt lat="42.74599507631712" lon="12.744506107650812"><ele>324.0</ele><time>2026-04-19T11:27:21.999Z</time></trkpt><trkpt lat="42.7460594422822" lon="12.744594252833554"><ele>324.0</ele><time>2026-04-19T11:27:22.999Z</time></trkpt><trkpt lat="42.7461077809268" lon="12.744696398984074"><ele>323.1666666666667</ele><time>2026-04-19T11:27:23.999Z</time></trkpt><trkpt lat="42.74613950529236" lon="12.744809539134978"><ele>322.3333333333333</ele><time>2026-04-19T11:27:24.999Z</time></trkpt><trkpt lat="42.74615290676143" lon="12.744931367984954"><ele>321.5</ele><time>2026-04-19T11:27:25.999Z</time></trkpt><trkpt lat="42.74617591984303" lon="12.745047923702161"><ele>320.66666666666663</ele><time>2026-04-19T11:27:26.999Z</time></trkpt><trkpt lat="42.74615313185371" lon="12.745161776800582"><ele>319.8333333333333</ele><time>2026-04-19T11:27:27.999Z</time></trkpt><trkpt lat="42.74611731309094" lon="12.745260450471227"><ele>319.0</ele><time>2026-04-19T11:27:28.999Z</time></trkpt><trkpt lat="42.74608540845775" lon="12.745344790600384"><ele>320.0</ele><time>2026-04-19T11:27:29.999Z</time></trkpt><trkpt lat="42.74596882240975" lon="12.745360384632965"><ele>321.0</ele><time>2026-04-19T11:27:30.999Z</time></trkpt><trkpt lat="42.74589584551177" lon="12.745399212013739"><ele>322.0</ele><time>2026-04-19T11:27:31.999Z</time></trkpt><trkpt lat="42.74581956550388" lon="12.745424409625938"><ele>323.0</ele><time>2026-04-19T11:27:32.999Z</time></trkpt><trkpt lat="42.745739824107126" lon="12.745415521266079"><ele>324.0</ele><time>2026-04-19T11:27:33.999Z</time></trkpt><trkpt lat="42.74566330767486" lon="12.745383966448996"><ele>325.0</ele><time>2026-04-19T11:27:34.999Z</time></trkpt><trkpt lat="42.745589611702876" lon="12.745343932667787"><ele>325.0</ele><time>2026-04-19T11:27:35.999Z</time></trkpt><trkpt lat="42.74551667098134" lon="12.745298271747005"><ele>325.0</ele><time>2026-04-19T11:27:36.999Z</time></trkpt><trkpt lat="42.745444801563174" lon="12.74524588535201"><ele>325.0</ele><time>2026-04-19T11:27:38Z</time></trkpt><trkpt lat="42.745377397544395" lon="12.745188724877917"><ele>325.0</ele><time>2026-04-19T11:27:39Z</time></trkpt><trkpt lat="42.7453116361031" lon="12.745141351956406"><ele>325.0</ele><time>2026-04-19T11:27:40Z</time></trkpt><trkpt lat="42.74526172306738" lon="12.745064763996654"><ele>325.0</ele><time>2026-04-19T11:27:41Z</time></trkpt><trkpt lat="42.74520399219108" lon="12.745003935443254"><ele>325.8333333333333</ele><time>2026-04-19T11:27:42Z</time></trkpt><trkpt lat="42.745162174247994" lon="12.744928230486005"><ele>326.66666666666663</ele><time>2026-04-19T11:27:43Z</time></trkpt><trkpt lat="42.74511554357142" lon="12.744764500543136"><ele>327.5</ele><time>2026-04-19T11:27:45Z</time></trkpt><trkpt lat="42.74511919744567" lon="12.744667225558626"><ele>328.3333333333333</ele><time>2026-04-19T11:27:46Z</time></trkpt><trkpt lat="42.745130508663145" lon="12.744565839680298"><ele>329.1666666666667</ele><time>2026-04-19T11:27:47Z</time></trkpt><trkpt lat="42.74514714434803" lon="12.74446205079472"><ele>330.0</ele><time>2026-04-19T11:27:48Z</time></trkpt><trkpt lat="42.74516876917959" lon="12.744349209745833"><ele>330.0</ele><time>2026-04-19T11:27:49Z</time></trkpt><trkpt lat="42.745194705220904" lon="12.74423261092584"><ele>330.0</ele><time>2026-04-19T11:27:50Z</time></trkpt><trkpt lat="42.74523063452649" lon="12.744112530045669"><ele>330.0</ele><time>2026-04-19T11:27:51Z</time></trkpt><trkpt lat="42.74527545023165" lon="12.743987200921397"><ele>330.0</ele><time>2026-04-19T11:27:52Z</time></trkpt><trkpt lat="42.74532539705399" lon="12.743859504969482"><ele>330.0</ele><time>2026-04-19T11:27:53Z</time></trkpt><trkpt lat="42.7453736631379" lon="12.743730918527387"><ele>328.8</ele><time>2026-04-19T11:27:54Z</time></trkpt><trkpt lat="42.745420847954954" lon="12.743611711742973"><ele>327.6</ele><time>2026-04-19T11:27:55Z</time></trkpt><trkpt lat="42.74549490597202" lon="12.743534529756788"><ele>326.4</ele><time>2026-04-19T11:27:56Z</time></trkpt><trkpt lat="42.74553874770841" lon="12.743450136561195"><ele>325.2</ele><time>2026-04-19T11:27:57Z</time></trkpt><trkpt lat="42.74565071860827" lon="12.743330190486047"><ele>324.0</ele><time>2026-04-19T11:27:59Z</time></trkpt><trkpt lat="42.74572507114263" lon="12.74330221195838"><ele>323.8333333333333</ele><time>2026-04-19T11:28:00Z</time></trkpt><trkpt lat="42.745797619895384" lon="12.743292382991608"><ele>323.6666666666667</ele><time>2026-04-19T11:28:01Z</time></trkpt><trkpt lat="42.74586824283514" lon="12.743283579646524"><ele>323.5</ele><time>2026-04-19T11:28:02Z</time></trkpt><trkpt lat="42.74593503372233" lon="12.74327546883104"><ele>323.33333333333337</ele><time>2026-04-19T11:28:03Z</time></trkpt><trkpt lat="42.7460081849121" lon="12.74322997330993"><ele>323.1666666666667</ele><time>2026-04-19T11:28:04Z</time></trkpt><trkpt lat="42.746059094001524" lon="12.743177095945791"><ele>323.0</ele><time>2026-04-19T11:28:05Z</time></trkpt><trkpt lat="42.74605550962887" lon="12.742928181924997"><ele>323.0</ele><time>2026-04-19T11:28:07Z</time></trkpt><trkpt lat="42.74601095216782" lon="12.742832381511088"><ele>323.0</ele><time>2026-04-19T11:28:08Z</time></trkpt><trkpt lat="42.74592508683839" lon="12.742782766583186"><ele>323.0</ele><time>2026-04-19T11:28:09Z</time></trkpt><trkpt lat="42.74585356874199" lon="12.742763351493567"><ele>323.0</ele><time>2026-04-19T11:28:10Z</time></trkpt><trkpt lat="42.74578700600183" lon="12.742667403465395"><ele>323.0</ele><time>2026-04-19T11:28:11Z</time></trkpt><trkpt lat="42.74570595125696" lon="12.742605542795541"><ele>323.0</ele><time>2026-04-19T11:28:12Z</time></trkpt><trkpt lat="42.74562350667952" lon="12.742532689355986"><ele>322.59999999999997</ele><time>2026-04-19T11:28:13Z</time></trkpt><trkpt lat="42.74554051508491" lon="12.742460151075253"><ele>322.2</ele><time>2026-04-19T11:28:14Z</time></trkpt><trkpt lat="42.74545365654361" lon="12.742386857764625"><ele>321.8</ele><time>2026-04-19T11:28:15Z</time></trkpt><trkpt lat="42.74536773481328" lon="12.742309314907494"><ele>321.4</ele><time>2026-04-19T11:28:16Z</time></trkpt><trkpt lat="42.745277831100466" lon="12.742223687727094"><ele>321.0</ele><time>2026-04-19T11:28:17Z</time></trkpt><trkpt lat="42.74518595620748" lon="12.74213345370848"><ele>321.8</ele><time>2026-04-19T11:28:18Z</time></trkpt><trkpt lat="42.745097972185484" lon="12.742040819464458"><ele>322.6</ele><time>2026-04-19T11:28:19Z</time></trkpt><trkpt lat="42.745016396154384" lon="12.741999560245192"><ele>323.4</ele><time>2026-04-19T11:28:20Z</time></trkpt><trkpt lat="42.744927512444" lon="12.741932041619803"><ele>324.2</ele><time>2026-04-19T11:28:21Z</time></trkpt><trkpt lat="42.74483923894255" lon="12.741864773146466"><ele>325.0</ele><time>2026-04-19T11:28:22Z</time></trkpt><trkpt lat="42.74475653187504" lon="12.741797402183513"><ele>325.0</ele><time>2026-04-19T11:28:23Z</time></trkpt><trkpt lat="42.744677046002124" lon="12.741737128229992"><ele>325.0</ele><time>2026-04-19T11:28:24Z</time></trkpt><trkpt lat="42.74460687118798" lon="12.741655468245213"><ele>325.0</ele><time>2026-04-19T11:28:25Z</time></trkpt><trkpt lat="42.74452425589707" lon="12.741581241290794"><ele>325.0</ele><time>2026-04-19T11:28:26Z</time></trkpt><trkpt lat="42.74444284438071" lon="12.741508095919674"><ele>325.0</ele><time>2026-04-19T11:28:27Z</time></trkpt><trkpt lat="42.744344676045685" lon="12.741461905466531"><ele>325.6</ele><time>2026-04-19T11:28:28Z</time></trkpt><trkpt lat="42.74425981884543" lon="12.741384420971238"><ele>326.2</ele><time>2026-04-19T11:28:29Z</time></trkpt><trkpt lat="42.744176782518274" lon="12.741310701892067"><ele>326.79999999999995</ele><time>2026-04-19T11:28:30Z</time></trkpt><trkpt lat="42.744096382471895" lon="12.741236327641143"><ele>327.4</ele><time>2026-04-19T11:28:31Z</time></trkpt><trkpt lat="42.74401437831226" lon="12.7411684602122"><ele>328.0</ele><time>2026-04-19T11:28:32Z</time></trkpt><trkpt lat="42.74393498212111" lon="12.741089927019491"><ele>327.79999999999995</ele><time>2026-04-19T11:28:33Z</time></trkpt><trkpt lat="42.7438577685602" lon="12.741012227612867"><ele>327.6</ele><time>2026-04-19T11:28:34Z</time></trkpt><trkpt lat="42.7437846109921" lon="12.740934031510742"><ele>327.4</ele><time>2026-04-19T11:28:35Z</time></trkpt><trkpt lat="42.74371440582313" lon="12.740861552292454"><ele>327.20000000000005</ele><time>2026-04-19T11:28:36Z</time></trkpt><trkpt lat="42.74364717459857" lon="12.740783841800704"><ele>327.0</ele><time>2026-04-19T11:28:37Z</time></trkpt><trkpt lat="42.74357440412249" lon="12.74070913837369"><ele>327.6666666666667</ele><time>2026-04-19T11:28:38Z</time></trkpt><trkpt lat="42.74350673009494" lon="12.74063123260445"><ele>328.3333333333333</ele><time>2026-04-19T11:28:39Z</time></trkpt><trkpt lat="42.743435819702846" lon="12.740559848622848"><ele>329.0</ele><time>2026-04-19T11:28:40Z</time></trkpt><trkpt lat="42.74336292625881" lon="12.740485700211224"><ele>329.66666666666663</ele><time>2026-04-19T11:28:40.999Z</time></trkpt><trkpt lat="42.743287396509466" lon="12.740436026584062"><ele>330.3333333333333</ele><time>2026-04-19T11:28:41.999Z</time></trkpt><trkpt lat="42.743210855058166" lon="12.74035727304368"><ele>331.0</ele><time>2026-04-19T11:28:42.999Z</time></trkpt><trkpt lat="42.743150650591296" lon="12.74028483792334"><ele>331.0</ele><time>2026-04-19T11:28:43.999Z</time></trkpt><trkpt lat="42.74307694339292" lon="12.7402176092879"><ele>331.0</ele><time>2026-04-19T11:28:44.999Z</time></trkpt><trkpt lat="42.74300176655103" lon="12.74015186654041"><ele>331.0</ele><time>2026-04-19T11:28:45.999Z</time></trkpt><trkpt lat="42.742927424453306" lon="12.740081710357417"><ele>331.0</ele><time>2026-04-19T11:28:46.999Z</time></trkpt><trkpt lat="42.742847399913536" lon="12.74001548349927"><ele>331.0</ele><time>2026-04-19T11:28:47.999Z</time></trkpt><trkpt lat="42.74277437924358" lon="12.739932783436089"><ele>331.20000000000005</ele><time>2026-04-19T11:28:48.999Z</time></trkpt><trkpt lat="42.74269345803588" lon="12.739862952230403"><ele>331.40000000000003</ele><time>2026-04-19T11:28:49.999Z</time></trkpt><trkpt lat="42.742618212662464" lon="12.73979092622692"><ele>331.6</ele><time>2026-04-19T11:28:50.999Z</time></trkpt><trkpt lat="42.74253855387361" lon="12.739730677149165"><ele>331.8</ele><time>2026-04-19T11:28:51.999Z</time></trkpt><trkpt lat="42.74246270126106" lon="12.739665560862342"><ele>332.0</ele><time>2026-04-19T11:28:52.999Z</time></trkpt><trkpt lat="42.74238980945112" lon="12.739591509058792"><ele>332.0</ele><time>2026-04-19T11:28:53.999Z</time></trkpt><trkpt lat="42.74231570454571" lon="12.739518385652488"><ele>332.0</ele><time>2026-04-19T11:28:54.999Z</time></trkpt><trkpt lat="42.742239789117896" lon="12.739450926998735"><ele>332.0</ele><time>2026-04-19T11:28:55.999Z</time></trkpt><trkpt lat="42.742164530911154" lon="12.739386766651988"><ele>332.0</ele><time>2026-04-19T11:28:56.999Z</time></trkpt><trkpt lat="42.742086682854044" lon="12.739320268535229"><ele>332.0</ele><time>2026-04-19T11:28:57.999Z</time></trkpt><trkpt lat="42.74201111236871" lon="12.739252017207244"><ele>331.40000000000003</ele><time>2026-04-19T11:28:58.999Z</time></trkpt><trkpt lat="42.741933217546666" lon="12.739180659928897"><ele>330.8</ele><time>2026-04-19T11:28:59.999Z</time></trkpt><trkpt lat="42.74185741019046" lon="12.73910818312922"><ele>330.2</ele><time>2026-04-19T11:29:00.999Z</time></trkpt><trkpt lat="42.74178228166939" lon="12.739030554192226"><ele>329.6</ele><time>2026-04-19T11:29:01.999Z</time></trkpt><trkpt lat="42.74170479290409" lon="12.738960960937186"><ele>329.0</ele><time>2026-04-19T11:29:02.999Z</time></trkpt><trkpt lat="42.74162445099476" lon="12.738892434018272"><ele>328.6</ele><time>2026-04-19T11:29:03.999Z</time></trkpt><trkpt lat="42.74155661969222" lon="12.738831079603168"><ele>328.2</ele><time>2026-04-19T11:29:04.999Z</time></trkpt><trkpt lat="42.74149135679674" lon="12.738770060887424"><ele>327.8</ele><time>2026-04-19T11:29:05.999Z</time></trkpt><trkpt lat="42.741423589217085" lon="12.738702428876437"><ele>327.40000000000003</ele><time>2026-04-19T11:29:06.999Z</time></trkpt><trkpt lat="42.741335904770764" lon="12.738629338184511"><ele>327.0</ele><time>2026-04-19T11:29:08.999Z</time></trkpt><trkpt lat="42.74126618879857" lon="12.73849011525352"><ele>326.5</ele><time>2026-04-19T11:29:10.999Z</time></trkpt><trkpt lat="42.741191400453566" lon="12.738392014467728"><ele>326.0</ele><time>2026-04-19T11:29:12.999Z</time></trkpt><trkpt lat="42.74107906130809" lon="12.738371784087818"><ele>325.5</ele><time>2026-04-19T11:29:14.999Z</time></trkpt><trkpt lat="42.741019301018845" lon="12.738343761706762"><ele>325.0</ele><time>2026-04-19T11:29:15.999Z</time></trkpt><trkpt lat="42.740965344495095" lon="12.738295632998504"><ele>324.5</ele><time>2026-04-19T11:29:16.999Z</time></trkpt><trkpt lat="42.74091791014063" lon="12.738223495303602"><ele>324.0</ele><time>2026-04-19T11:29:17.999Z</time></trkpt><trkpt lat="42.74085171959481" lon="12.738186562201324"><ele>324.0</ele><time>2026-04-19T11:29:18.999Z</time></trkpt><trkpt lat="42.7407921554539" lon="12.738130434300224"><ele>324.0</ele><time>2026-04-19T11:29:19.999Z</time></trkpt><trkpt lat="42.740727894964465" lon="12.738075171526452"><ele>324.0</ele><time>2026-04-19T11:29:20.999Z</time></trkpt><trkpt lat="42.740680767976784" lon="12.73800347742752"><ele>324.0</ele><time>2026-04-19T11:29:21.999Z</time></trkpt><trkpt lat="42.74062724706532" lon="12.737951658734788"><ele>324.0</ele><time>2026-04-19T11:29:22.999Z</time></trkpt><trkpt lat="42.74057448448552" lon="12.737900573672851"><ele>324.0</ele><time>2026-04-19T11:29:23.999Z</time></trkpt><trkpt lat="42.74047157495096" lon="12.737822774769985"><ele>323.79999999999995</ele><time>2026-04-19T11:29:25.999Z</time></trkpt><trkpt lat="42.7404184920302" lon="12.737678316896377"><ele>323.59999999999997</ele><time>2026-04-19T11:29:27.999Z</time></trkpt><trkpt lat="42.74030643670364" lon="12.737645765704535"><ele>323.4</ele><time>2026-04-19T11:29:29.999Z</time></trkpt><trkpt lat="42.74020941281243" lon="12.737690449028609"><ele>323.2</ele><time>2026-04-19T11:29:31.999Z</time></trkpt><trkpt lat="42.74010757169722" lon="12.73768272191713"><ele>323.0</ele><time>2026-04-19T11:29:33.999Z</time></trkpt><trkpt lat="42.74001185719233" lon="12.7376094950427"><ele>323.0</ele><time>2026-04-19T11:29:35.999Z</time></trkpt><trkpt lat="42.739930273863955" lon="12.737536745261457"><ele>323.0</ele><time>2026-04-19T11:29:37.999Z</time></trkpt><trkpt lat="42.73988093033826" lon="12.737446726648237"><ele>323.0</ele><time>2026-04-19T11:29:40.999Z</time></trkpt><trkpt lat="42.739928235081564" lon="12.73736284451032"><ele>323.0</ele><time>2026-04-19T11:29:41.999Z</time></trkpt><trkpt lat="42.739977819221174" lon="12.7372814408955"><ele>323.0</ele><time>2026-04-19T11:29:44Z</time></trkpt><trkpt lat="42.74001246289895" lon="12.737196548848662"><ele>323.0</ele><time>2026-04-19T11:29:46Z</time></trkpt><trkpt lat="42.74002955289792" lon="12.737110985493658"><ele>323.0</ele><time>2026-04-19T11:29:49Z</time></trkpt><trkpt lat="42.73992251848844" lon="12.737061590010825"><ele>323.0</ele><time>2026-04-19T11:30:07Z</time></trkpt><trkpt lat="42.739864459487166" lon="12.737116435232515"><ele>323.0</ele><time>2026-04-19T11:30:10Z</time></trkpt><trkpt lat="42.73983794564427" lon="12.73719977462719"><ele>323.0</ele><time>2026-04-19T11:31:02.999Z</time></trkpt><trkpt lat="42.73972156638457" lon="12.737135230201627"><ele>323.0</ele><time>2026-04-19T11:31:25.999Z</time></trkpt><trkpt lat="42.73969516356747" lon="12.737232981703652"><ele>323.0</ele><time>2026-04-19T11:31:32.999Z</time></trkpt><trkpt lat="42.73970733029554" lon="12.737110892471389"><ele>323.0</ele><time>2026-04-19T11:32:46Z</time></trkpt><trkpt lat="42.739703422211576" lon="12.737014581681045"><ele>323.0</ele><time>2026-04-19T11:34:16.023Z</time></trkpt><trkpt lat="42.73981509887781" lon="12.736941230568409"><ele>323.0</ele><time>2026-04-19T11:34:18.022Z</time></trkpt><trkpt lat="42.739862637918236" lon="12.737015808273139"><ele>323.0</ele><time>2026-04-19T11:34:24.014Z</time></trkpt><trkpt lat="42.739700869802654" lon="12.737349977171725"><ele>323.0</ele><time>2026-04-19T11:34:36.017Z</time></trkpt><trkpt lat="42.73974206364687" lon="12.737467296957448"><ele>323.0</ele><time>2026-04-19T11:34:41.018Z</time></trkpt><trkpt lat="42.73978402504539" lon="12.737361119821216"><ele>323.0</ele><time>2026-04-19T11:34:46.998Z</time></trkpt><trkpt lat="42.739795459151786" lon="12.737275367183882"><ele>323.0</ele><time>2026-04-19T11:34:51Z</time></trkpt><trkpt lat="42.73983818122333" lon="12.737207089842553"><ele>323.0</ele><time>2026-04-19T11:35:09Z</time></trkpt><trkpt lat="42.73990313683701" lon="12.737248474731624"><ele>323.0</ele><time>2026-04-19T11:36:53.999Z</time></trkpt><trkpt lat="42.73997152465492" lon="12.737217670201739"><ele>323.00000000000006</ele><time>2026-04-19T11:36:56Z</time></trkpt><trkpt lat="42.740024452289795" lon="12.737163055003702"><ele>323.0</ele><time>2026-04-19T11:36:58Z</time></trkpt><trkpt lat="42.740060018026234" lon="12.737086976575412"><ele>323.0</ele><time>2026-04-19T11:37:00Z</time></trkpt><trkpt lat="42.74009008835873" lon="12.737006776076187"><ele>323.0</ele><time>2026-04-19T11:37:02Z</time></trkpt><trkpt lat="42.740122486630106" lon="12.736924242370495"><ele>323.0</ele><time>2026-04-19T11:37:04Z</time></trkpt><trkpt lat="42.740162827478834" lon="12.736857180848439"><ele>323.00000000000006</ele><time>2026-04-19T11:37:06Z</time></trkpt><trkpt lat="42.74021163573759" lon="12.736799769369247"><ele>323.0</ele><time>2026-04-19T11:37:08Z</time></trkpt><trkpt lat="42.74023406181783" lon="12.73671087089402"><ele>323.0</ele><time>2026-04-19T11:37:11Z</time></trkpt><trkpt lat="42.74040824202724" lon="12.736849077213892"><ele>323.0</ele><time>2026-04-19T11:37:16Z</time></trkpt><trkpt lat="42.74040071558556" lon="12.736974945535376"><ele>323.0</ele><time>2026-04-19T11:37:19Z</time></trkpt><trkpt lat="42.74034989344834" lon="12.737089243449763"><ele>323.0</ele><time>2026-04-19T11:37:21Z</time></trkpt><trkpt lat="42.74030074651384" lon="12.737200970594468"><ele>323.0</ele><time>2026-04-19T11:37:23Z</time></trkpt><trkpt lat="42.74026015737933" lon="12.73731613359256"><ele>323.0</ele><time>2026-04-19T11:37:25Z</time></trkpt><trkpt lat="42.74026165489581" lon="12.73744254299825"><ele>323.0</ele><time>2026-04-19T11:37:27Z</time></trkpt><trkpt lat="42.74026905179922" lon="12.737559713158952"><ele>323.0</ele><time>2026-04-19T11:37:29Z</time></trkpt><trkpt lat="42.74026219469616" lon="12.737679542226621"><ele>323.0</ele><time>2026-04-19T11:37:31Z</time></trkpt><trkpt lat="42.74029110949945" lon="12.737783710866804"><ele>323.0</ele><time>2026-04-19T11:37:33Z</time></trkpt><trkpt lat="42.740358408796105" lon="12.737852431975103"><ele>323.2</ele><time>2026-04-19T11:37:35Z</time></trkpt><trkpt lat="42.740442976008815" lon="12.73788310901231"><ele>323.4</ele><time>2026-04-19T11:37:37Z</time></trkpt><trkpt lat="42.74051827889318" lon="12.737936347840176"><ele>323.59999999999997</ele><time>2026-04-19T11:37:39Z</time></trkpt><trkpt lat="42.74058665199622" lon="12.73800549600296"><ele>323.79999999999995</ele><time>2026-04-19T11:37:41Z</time></trkpt><trkpt lat="42.74067010575422" lon="12.73806513895146"><ele>324.0</ele><time>2026-04-19T11:37:43Z</time></trkpt><trkpt lat="42.74075756287827" lon="12.738134364320382"><ele>324.0</ele><time>2026-04-19T11:37:45Z</time></trkpt><trkpt lat="42.74084842090579" lon="12.73821384436459"><ele>324.0</ele><time>2026-04-19T11:37:47Z</time></trkpt><trkpt lat="42.74093995138735" lon="12.73829994030153"><ele>324.0</ele><time>2026-04-19T11:37:49Z</time></trkpt><trkpt lat="42.741029249462926" lon="12.738399253056249"><ele>324.0</ele><time>2026-04-19T11:37:51Z</time></trkpt><trkpt lat="42.741115525193266" lon="12.73852100671585"><ele>324.42857142857144</ele><time>2026-04-19T11:37:53Z</time></trkpt><trkpt lat="42.741150952778376" lon="12.738599539386145"><ele>324.85714285714283</ele><time>2026-04-19T11:37:54Z</time></trkpt><trkpt lat="42.741184544436685" lon="12.738676699033928"><ele>325.2857142857143</ele><time>2026-04-19T11:37:55Z</time></trkpt><trkpt lat="42.741220681549784" lon="12.738758218777392"><ele>325.7142857142857</ele><time>2026-04-19T11:37:55.999Z</time></trkpt><trkpt lat="42.741256200060754" lon="12.738839637102512"><ele>326.14285714285717</ele><time>2026-04-19T11:37:56.999Z</time></trkpt><trkpt lat="42.74129357640868" lon="12.738922284726987"><ele>326.57142857142856</ele><time>2026-04-19T11:37:57.999Z</time></trkpt><trkpt lat="42.741330982469314" lon="12.739012589011187"><ele>327.0</ele><time>2026-04-19T11:37:58.999Z</time></trkpt><trkpt lat="42.74136489303461" lon="12.739095867287592"><ele>327.0</ele><time>2026-04-19T11:37:59.999Z</time></trkpt><trkpt lat="42.74140176553386" lon="12.739186332820582"><ele>327.0</ele><time>2026-04-19T11:38:00.999Z</time></trkpt><trkpt lat="42.74143809209145" lon="12.739273126054893"><ele>327.0</ele><time>2026-04-19T11:38:01.999Z</time></trkpt><trkpt lat="42.74147254378772" lon="12.73935734251396"><ele>327.0</ele><time>2026-04-19T11:38:02.999Z</time></trkpt><trkpt lat="42.74150594150159" lon="12.739436237328963"><ele>327.0</ele><time>2026-04-19T11:38:03.999Z</time></trkpt><trkpt lat="42.74154226942997" lon="12.739521904605471"><ele>327.0</ele><time>2026-04-19T11:38:04.999Z</time></trkpt><trkpt lat="42.741577969653825" lon="12.739606968438805"><ele>327.0</ele><time>2026-04-19T11:38:05.999Z</time></trkpt><trkpt lat="42.74161389030775" lon="12.739690862899243"><ele>327.2857142857143</ele><time>2026-04-19T11:38:06.999Z</time></trkpt><trkpt lat="42.741650592839825" lon="12.739774308300447"><ele>327.57142857142856</ele><time>2026-04-19T11:38:07.999Z</time></trkpt><trkpt lat="42.74168615961072" lon="12.739857104663475"><ele>327.8571428571429</ele><time>2026-04-19T11:38:08.999Z</time></trkpt><trkpt lat="42.7417255112465" lon="12.739940670694937"><ele>328.1428571428571</ele><time>2026-04-19T11:38:09.999Z</time></trkpt><trkpt lat="42.74176437942739" lon="12.740019052635368"><ele>328.42857142857144</ele><time>2026-04-19T11:38:10.999Z</time></trkpt><trkpt lat="42.741803710139514" lon="12.740107686879885"><ele>328.7142857142857</ele><time>2026-04-19T11:38:11.999Z</time></trkpt><trkpt lat="42.74184501975995" lon="12.740200914741784"><ele>329.0</ele><time>2026-04-19T11:38:12.999Z</time></trkpt><trkpt lat="42.74188675376714" lon="12.740297637412928"><ele>330.0</ele><time>2026-04-19T11:38:13.999Z</time></trkpt><trkpt lat="42.74193260014129" lon="12.74039985563167"><ele>331.0</ele><time>2026-04-19T11:38:14.999Z</time></trkpt><trkpt lat="42.74197545818439" lon="12.740502202104663"><ele>332.0</ele><time>2026-04-19T11:38:15.999Z</time></trkpt><trkpt lat="42.7420165572085" lon="12.740606071605384"><ele>333.0</ele><time>2026-04-19T11:38:16.999Z</time></trkpt><trkpt lat="42.74205492083757" lon="12.740706117843528"><ele>334.0</ele><time>2026-04-19T11:38:17.999Z</time></trkpt><trkpt lat="42.742093917798016" lon="12.740804380797483"><ele>335.0</ele><time>2026-04-19T11:38:18.999Z</time></trkpt><trkpt lat="42.742133314686846" lon="12.740899551081984"><ele>334.99999999999994</ele><time>2026-04-19T11:38:19.999Z</time></trkpt><trkpt lat="42.742171948640014" lon="12.740990494188996"><ele>335.0</ele><time>2026-04-19T11:38:20.999Z</time></trkpt><trkpt lat="42.74221350263784" lon="12.741082096882627"><ele>335.0</ele><time>2026-04-19T11:38:21.999Z</time></trkpt><trkpt lat="42.742259337463196" lon="12.74114947792019"><ele>335.0</ele><time>2026-04-19T11:38:22.999Z</time></trkpt><trkpt lat="42.742311005569746" lon="12.741217214881216"><ele>335.0</ele><time>2026-04-19T11:38:23.999Z</time></trkpt><trkpt lat="42.742373731470316" lon="12.74125934081875"><ele>334.99999999999994</ele><time>2026-04-19T11:38:24.999Z</time></trkpt><trkpt lat="42.74244069609196" lon="12.74129279356516"><ele>335.0</ele><time>2026-04-19T11:38:25.999Z</time></trkpt><trkpt lat="42.74251367245569" lon="12.741328517497386"><ele>335.0</ele><time>2026-04-19T11:38:26.999Z</time></trkpt><trkpt lat="42.74259163097596" lon="12.741368196851356"><ele>335.0</ele><time>2026-04-19T11:38:27.999Z</time></trkpt><trkpt lat="42.742670747694156" lon="12.741409272610552"><ele>335.0</ele><time>2026-04-19T11:38:28.999Z</time></trkpt><trkpt lat="42.742754489755455" lon="12.74144873439738"><ele>335.0</ele><time>2026-04-19T11:38:29.999Z</time></trkpt><trkpt lat="42.74283771724593" lon="12.741485682667728"><ele>335.0</ele><time>2026-04-19T11:38:30.999Z</time></trkpt><trkpt lat="42.74292020128327" lon="12.741522826039061"><ele>335.0</ele><time>2026-04-19T11:38:31.999Z</time></trkpt><trkpt lat="42.74300246698014" lon="12.74156513853217"><ele>334.5</ele><time>2026-04-19T11:38:32.999Z</time></trkpt><trkpt lat="42.74308467167344" lon="12.7416088776288"><ele>334.0</ele><time>2026-04-19T11:38:33.999Z</time></trkpt><trkpt lat="42.74316684938296" lon="12.741646804441743"><ele>333.5</ele><time>2026-04-19T11:38:34.999Z</time></trkpt><trkpt lat="42.74324828720812" lon="12.741677159884624"><ele>333.0</ele><time>2026-04-19T11:38:35.999Z</time></trkpt><trkpt lat="42.74332774323981" lon="12.741705671227496"><ele>332.5</ele><time>2026-04-19T11:38:36.999Z</time></trkpt><trkpt lat="42.74340605786017" lon="12.741737403493214"><ele>332.0</ele><time>2026-04-19T11:38:37.999Z</time></trkpt><trkpt lat="42.74348305744709" lon="12.741769128205563"><ele>331.33333333333337</ele><time>2026-04-19T11:38:38.999Z</time></trkpt><trkpt lat="42.743560230132694" lon="12.74179330651032"><ele>330.6666666666667</ele><time>2026-04-19T11:38:39.999Z</time></trkpt><trkpt lat="42.7436298824212" lon="12.741791858627295"><ele>330.0</ele><time>2026-04-19T11:38:40.999Z</time></trkpt><trkpt lat="42.74374220911842" lon="12.741722521913228"><ele>329.3333333333333</ele><time>2026-04-19T11:38:42.999Z</time></trkpt><trkpt lat="42.74379014063707" lon="12.741662991294733"><ele>328.66666666666663</ele><time>2026-04-19T11:38:43.999Z</time></trkpt><trkpt lat="42.74383189009209" lon="12.741593893079944"><ele>328.0</ele><time>2026-04-19T11:38:44.999Z</time></trkpt><trkpt lat="42.743872833794995" lon="12.74152492156262"><ele>328.0</ele><time>2026-04-19T11:38:45.999Z</time></trkpt><trkpt lat="42.743917525947396" lon="12.741459794102783"><ele>328.0</ele><time>2026-04-19T11:38:46.999Z</time></trkpt><trkpt lat="42.744044173168234" lon="12.74138665960001"><ele>328.0</ele><time>2026-04-19T11:38:48.999Z</time></trkpt><trkpt lat="42.74411460922009" lon="12.74138156416094"><ele>328.0</ele><time>2026-04-19T11:38:49.999Z</time></trkpt><trkpt lat="42.74418209513198" lon="12.741389897639369"><ele>328.0</ele><time>2026-04-19T11:38:50.999Z</time></trkpt><trkpt lat="42.744246424655316" lon="12.74142164444545"><ele>328.0</ele><time>2026-04-19T11:38:51.999Z</time></trkpt><trkpt lat="42.74430798367654" lon="12.741466139979718"><ele>327.5</ele><time>2026-04-19T11:38:52.999Z</time></trkpt><trkpt lat="42.74438088651226" lon="12.74148503293139"><ele>327.0</ele><time>2026-04-19T11:38:53.999Z</time></trkpt><trkpt lat="42.74444043604886" lon="12.741571843977377"><ele>326.5</ele><time>2026-04-19T11:38:54.999Z</time></trkpt><trkpt lat="42.74450956423651" lon="12.741628827058934"><ele>326.0</ele><time>2026-04-19T11:38:55.999Z</time></trkpt><trkpt lat="42.74457968767217" lon="12.74168806991464"><ele>325.5</ele><time>2026-04-19T11:38:56.999Z</time></trkpt><trkpt lat="42.74464617386129" lon="12.741748175519826"><ele>325.0</ele><time>2026-04-19T11:38:57.999Z</time></trkpt><trkpt lat="42.74471319384201" lon="12.741806653663899"><ele>325.0</ele><time>2026-04-19T11:38:58.999Z</time></trkpt><trkpt lat="42.74477728755046" lon="12.741862824759055"><ele>325.0</ele><time>2026-04-19T11:38:59.999Z</time></trkpt><trkpt lat="42.74483929377729" lon="12.741917808171134"><ele>325.0</ele><time>2026-04-19T11:39:00.999Z</time></trkpt><trkpt lat="42.74490316414156" lon="12.741974710051117"><ele>325.0</ele><time>2026-04-19T11:39:02Z</time></trkpt><trkpt lat="42.74497019465123" lon="12.742029921738894"><ele>325.0</ele><time>2026-04-19T11:39:03Z</time></trkpt><trkpt lat="42.745035990001625" lon="12.742074215457816"><ele>325.0</ele><time>2026-04-19T11:39:04Z</time></trkpt><trkpt lat="42.74509976344517" lon="12.742137077393561"><ele>325.3333333333333</ele><time>2026-04-19T11:39:05Z</time></trkpt><trkpt lat="42.74516175378778" lon="12.742208894777797"><ele>325.66666666666663</ele><time>2026-04-19T11:39:06Z</time></trkpt><trkpt lat="42.7452238571871" lon="12.742280306122026"><ele>326.0</ele><time>2026-04-19T11:39:07Z</time></trkpt><trkpt lat="42.74528897234796" lon="12.742350040506524"><ele>326.3333333333333</ele><time>2026-04-19T11:39:08Z</time></trkpt><trkpt lat="42.74535955478403" lon="12.742421717839337"><ele>326.6666666666667</ele><time>2026-04-19T11:39:09Z</time></trkpt><trkpt lat="42.74542628241993" lon="12.742486662393224"><ele>327.0</ele><time>2026-04-19T11:39:10Z</time></trkpt><trkpt lat="42.745492093161005" lon="12.742549247884998"><ele>326.3333333333333</ele><time>2026-04-19T11:39:11Z</time></trkpt><trkpt lat="42.74555199063145" lon="12.742616463229524"><ele>325.6666666666667</ele><time>2026-04-19T11:39:12Z</time></trkpt><trkpt lat="42.74558599445199" lon="12.742698688384552"><ele>325.0</ele><time>2026-04-19T11:39:13Z</time></trkpt><trkpt lat="42.745595909461414" lon="12.742783479264032"><ele>324.33333333333337</ele><time>2026-04-19T11:39:14Z</time></trkpt><trkpt lat="42.74554484276735" lon="12.74291818158801"><ele>323.6666666666667</ele><time>2026-04-19T11:39:16Z</time></trkpt><trkpt lat="42.74543624601842" lon="12.742958829386438"><ele>323.0</ele><time>2026-04-19T11:39:18Z</time></trkpt><trkpt lat="42.74532424025403" lon="12.74291027272994"><ele>323.00000000000006</ele><time>2026-04-19T11:39:20Z</time></trkpt><trkpt lat="42.745294441177016" lon="12.74280688854863"><ele>323.0</ele><time>2026-04-19T11:39:21Z</time></trkpt><trkpt lat="42.745261846949944" lon="12.742722167436376"><ele>323.0</ele><time>2026-04-19T11:39:22Z</time></trkpt><trkpt lat="42.745223295615745" lon="12.742636929349265"><ele>323.0</ele><time>2026-04-19T11:39:23Z</time></trkpt><trkpt lat="42.74518089397834" lon="12.742561356869928"><ele>323.0</ele><time>2026-04-19T11:39:24Z</time></trkpt><trkpt lat="42.74513671230217" lon="12.742483667091854"><ele>323.00000000000006</ele><time>2026-04-19T11:39:25Z</time></trkpt><trkpt lat="42.745084586665" lon="12.74241556891668"><ele>323.0</ele><time>2026-04-19T11:39:26Z</time></trkpt><trkpt lat="42.745030398755375" lon="12.742350186605051"><ele>323.5714285714286</ele><time>2026-04-19T11:39:27Z</time></trkpt><trkpt lat="42.74496397035474" lon="12.742303459338737"><ele>324.14285714285717</ele><time>2026-04-19T11:39:28Z</time></trkpt><trkpt lat="42.74489196624871" lon="12.742279711952355"><ele>324.7142857142857</ele><time>2026-04-19T11:39:29Z</time></trkpt><trkpt lat="42.74481979886698" lon="12.742273638926227"><ele>325.28571428571433</ele><time>2026-04-19T11:39:30Z</time></trkpt><trkpt lat="42.74474860207235" lon="12.742284633717285"><ele>325.8571428571429</ele><time>2026-04-19T11:39:31Z</time></trkpt><trkpt lat="42.74467904650568" lon="12.74231728258185"><ele>326.42857142857144</ele><time>2026-04-19T11:39:32Z</time></trkpt><trkpt lat="42.74461505125815" lon="12.742368874211975"><ele>327.0</ele><time>2026-04-19T11:39:33Z</time></trkpt><trkpt lat="42.74455418098688" lon="12.742417379232615"><ele>327.0</ele><time>2026-04-19T11:39:34Z</time></trkpt><trkpt lat="42.7444921398593" lon="12.74247092416701"><ele>327.0</ele><time>2026-04-19T11:39:35Z</time></trkpt><trkpt lat="42.744429924143645" lon="12.742525669451227"><ele>327.0</ele><time>2026-04-19T11:39:36Z</time></trkpt><trkpt lat="42.74436838056231" lon="12.742580910147979"><ele>327.0</ele><time>2026-04-19T11:39:37Z</time></trkpt><trkpt lat="42.7442991227469" lon="12.742636203435154"><ele>327.0</ele><time>2026-04-19T11:39:38Z</time></trkpt><trkpt lat="42.744227554427596" lon="12.742685796678705"><ele>327.0</ele><time>2026-04-19T11:39:39Z</time></trkpt><trkpt lat="42.74414871192797" lon="12.742712564021923"><ele>327.3333333333333</ele><time>2026-04-19T11:39:40Z</time></trkpt><trkpt lat="42.74407026443113" lon="12.742729351802154"><ele>327.6666666666667</ele><time>2026-04-19T11:39:41Z</time></trkpt><trkpt lat="42.74398931160613" lon="12.742732227642417"><ele>328.0</ele><time>2026-04-19T11:39:42Z</time></trkpt><trkpt lat="42.74390538437217" lon="12.74271396085977"><ele>328.33333333333337</ele><time>2026-04-19T11:39:43Z</time></trkpt><trkpt lat="42.74382027387546" lon="12.742705256163012"><ele>328.6666666666667</ele><time>2026-04-19T11:39:44Z</time></trkpt><trkpt lat="42.743728266674566" lon="12.742692678849872"><ele>329.0</ele><time>2026-04-19T11:39:45Z</time></trkpt><trkpt lat="42.74364696304614" lon="12.742554560993858"><ele>329.0</ele><time>2026-04-19T11:39:46Z</time></trkpt><trkpt lat="42.743554148525014" lon="12.742491982154476"><ele>329.0</ele><time>2026-04-19T11:39:47Z</time></trkpt><trkpt lat="42.74345860551648" lon="12.742425306802394"><ele>329.0</ele><time>2026-04-19T11:39:48Z</time></trkpt><trkpt lat="42.74336104302353" lon="12.74235262786796"><ele>329.0</ele><time>2026-04-19T11:39:49Z</time></trkpt><trkpt lat="42.74325774032188" lon="12.742279889495121"><ele>329.0</ele><time>2026-04-19T11:39:50Z</time></trkpt><trkpt lat="42.743151677274824" lon="12.742210839084262"><ele>330.25</ele><time>2026-04-19T11:39:50.999Z</time></trkpt><trkpt lat="42.743040291834525" lon="12.742142347654736"><ele>331.5</ele><time>2026-04-19T11:39:51.999Z</time></trkpt><trkpt lat="42.742927143975905" lon="12.742069941303672"><ele>332.75</ele><time>2026-04-19T11:39:52.999Z</time></trkpt><trkpt lat="42.74281231680607" lon="12.74198968711349"><ele>334.0</ele><time>2026-04-19T11:39:53.999Z</time></trkpt><trkpt lat="42.74269926766104" lon="12.741905777674633"><ele>334.25</ele><time>2026-04-19T11:39:54.999Z</time></trkpt><trkpt lat="42.74258456953144" lon="12.741815659646322"><ele>334.5</ele><time>2026-04-19T11:39:55.999Z</time></trkpt><trkpt lat="42.74247324655759" lon="12.741732185672976"><ele>334.75</ele><time>2026-04-19T11:39:56.999Z</time></trkpt><trkpt lat="42.74236073710475" lon="12.74164697200495"><ele>335.0</ele><time>2026-04-19T11:39:57.999Z</time></trkpt><trkpt lat="42.74224840891177" lon="12.741559108243338"><ele>335.0</ele><time>2026-04-19T11:39:58.999Z</time></trkpt><trkpt lat="42.74213140341074" lon="12.741471077002862"><ele>335.0</ele><time>2026-04-19T11:39:59.999Z</time></trkpt><trkpt lat="42.74201271257017" lon="12.741382533408995"><ele>335.0</ele><time>2026-04-19T11:40:00.999Z</time></trkpt><trkpt lat="42.74189262032931" lon="12.741297680737246"><ele>335.0</ele><time>2026-04-19T11:40:01.999Z</time></trkpt><trkpt lat="42.74177207486611" lon="12.74121190812974"><ele>334.75</ele><time>2026-04-19T11:40:02.999Z</time></trkpt><trkpt lat="42.74164770988414" lon="12.7411313360792"><ele>334.5</ele><time>2026-04-19T11:40:03.999Z</time></trkpt><trkpt lat="42.74152816786419" lon="12.741065381284898"><ele>334.25</ele><time>2026-04-19T11:40:04.999Z</time></trkpt><trkpt lat="42.74140104414441" lon="12.741003604624495"><ele>334.0</ele><time>2026-04-19T11:40:05.999Z</time></trkpt><trkpt lat="42.74127085204464" lon="12.74095231249854"><ele>334.0</ele><time>2026-04-19T11:40:06.999Z</time></trkpt><trkpt lat="42.74114171367349" lon="12.740911625834396"><ele>334.0</ele><time>2026-04-19T11:40:07.999Z</time></trkpt><trkpt lat="42.74100706253787" lon="12.740878620866546"><ele>334.0</ele><time>2026-04-19T11:40:08.999Z</time></trkpt><trkpt lat="42.74087332928666" lon="12.74085543742098"><ele>334.0</ele><time>2026-04-19T11:40:09.999Z</time></trkpt><trkpt lat="42.74073378265723" lon="12.740842761089047"><ele>334.25</ele><time>2026-04-19T11:40:10.999Z</time></trkpt><trkpt lat="42.74059707221961" lon="12.740840811876327"><ele>334.5</ele><time>2026-04-19T11:40:11.999Z</time></trkpt><trkpt lat="42.74045646050799" lon="12.740852527215777"><ele>334.75</ele><time>2026-04-19T11:40:12.999Z</time></trkpt><trkpt lat="42.7403219812835" lon="12.740874191129665"><ele>335.0</ele><time>2026-04-19T11:40:13.999Z</time></trkpt><trkpt lat="42.74018396693227" lon="12.740914463676424"><ele>335.0</ele><time>2026-04-19T11:40:14.999Z</time></trkpt><trkpt lat="42.740044052088315" lon="12.740962866777513"><ele>335.0</ele><time>2026-04-19T11:40:15.999Z</time></trkpt><trkpt lat="42.73990352290615" lon="12.741016527216322"><ele>335.0</ele><time>2026-04-19T11:40:16.999Z</time></trkpt><trkpt lat="42.73976483400942" lon="12.741071756307207"><ele>335.0</ele><time>2026-04-19T11:40:17.999Z</time></trkpt><trkpt lat="42.73961545590514" lon="12.741131058387653"><ele>339.0</ele><time>2026-04-19T11:40:18.999Z</time></trkpt><trkpt lat="42.739470430285145" lon="12.741174085451322"><ele>343.0</ele><time>2026-04-19T11:40:19.999Z</time></trkpt><trkpt lat="42.73932273403177" lon="12.741229740272553"><ele>347.0</ele><time>2026-04-19T11:40:20.999Z</time></trkpt><trkpt lat="42.73917767612321" lon="12.741286235037503"><ele>347.0</ele><time>2026-04-19T11:40:21.999Z</time></trkpt><trkpt lat="42.73903142616887" lon="12.741345062238894"><ele>347.0</ele><time>2026-04-19T11:40:22.999Z</time></trkpt><trkpt lat="42.73887896953559" lon="12.741395898433613"><ele>347.0</ele><time>2026-04-19T11:40:23.999Z</time></trkpt><trkpt lat="42.738736439995506" lon="12.74145702769286"><ele>347.0</ele><time>2026-04-19T11:40:24.999Z</time></trkpt><trkpt lat="42.73859481871812" lon="12.741515095271343"><ele>347.0</ele><time>2026-04-19T11:40:25.999Z</time></trkpt><trkpt lat="42.738450278812245" lon="12.7415719726251"><ele>347.0</ele><time>2026-04-19T11:40:26.999Z</time></trkpt><trkpt lat="42.73830898918412" lon="12.741621405283812"><ele>347.0</ele><time>2026-04-19T11:40:27.999Z</time></trkpt><trkpt lat="42.73815954005144" lon="12.741675069855013"><ele>344.25</ele><time>2026-04-19T11:40:28.999Z</time></trkpt><trkpt lat="42.73801407225483" lon="12.741731632423528"><ele>341.5</ele><time>2026-04-19T11:40:29.999Z</time></trkpt><trkpt lat="42.737872347501" lon="12.741784404678912"><ele>338.75</ele><time>2026-04-19T11:40:30.999Z</time></trkpt><trkpt lat="42.73773587577714" lon="12.74183711298746"><ele>336.0</ele><time>2026-04-19T11:40:31.999Z</time></trkpt><trkpt lat="42.737594426814" lon="12.74189044202254"><ele>335.5</ele><time>2026-04-19T11:40:32.999Z</time></trkpt><trkpt lat="42.73745597593741" lon="12.741939075002968"><ele>335.0</ele><time>2026-04-19T11:40:33.999Z</time></trkpt><trkpt lat="42.7373177556961" lon="12.741978597585172"><ele>334.5</ele><time>2026-04-19T11:40:34.999Z</time></trkpt><trkpt lat="42.7371769197102" lon="12.742006338546519"><ele>334.0</ele><time>2026-04-19T11:40:35.999Z</time></trkpt><trkpt lat="42.7370395553943" lon="12.742014913004166"><ele>334.0</ele><time>2026-04-19T11:40:36.999Z</time></trkpt><trkpt lat="42.73690376295607" lon="12.742012080581041"><ele>334.0</ele><time>2026-04-19T11:40:37.999Z</time></trkpt><trkpt lat="42.73676816944923" lon="12.741999981279818"><ele>334.0</ele><time>2026-04-19T11:40:38.999Z</time></trkpt><trkpt lat="42.73663371350527" lon="12.741977251660144"><ele>334.0</ele><time>2026-04-19T11:40:39.999Z</time></trkpt><trkpt lat="42.73650336939348" lon="12.741943681648761"><ele>335.0</ele><time>2026-04-19T11:40:40.999Z</time></trkpt><trkpt lat="42.73637529040971" lon="12.741901577997538"><ele>336.0</ele><time>2026-04-19T11:40:41.999Z</time></trkpt><trkpt lat="42.73624198088551" lon="12.741854264747298"><ele>337.0</ele><time>2026-04-19T11:40:42.999Z</time></trkpt><trkpt lat="42.73610548422029" lon="12.741806024853647"><ele>338.0</ele><time>2026-04-19T11:40:43.999Z</time></trkpt><trkpt lat="42.735962917336884" lon="12.741758079182095"><ele>351.6666666666667</ele><time>2026-04-19T11:40:44.999Z</time></trkpt><trkpt lat="42.73581598449753" lon="12.741710143712206"><ele>365.3333333333333</ele><time>2026-04-19T11:40:45.999Z</time></trkpt><trkpt lat="42.73566527119756" lon="12.741660538147872"><ele>379.0</ele><time>2026-04-19T11:40:46.999Z</time></trkpt><trkpt lat="42.73551359753496" lon="12.741605032859605"><ele>379.0</ele><time>2026-04-19T11:40:47.999Z</time></trkpt><trkpt lat="42.73535912096856" lon="12.741552958284851"><ele>379.0</ele><time>2026-04-19T11:40:48.999Z</time></trkpt><trkpt lat="42.73520010230314" lon="12.741516865974173"><ele>379.0</ele><time>2026-04-19T11:40:49.999Z</time></trkpt><trkpt lat="42.735034393951516" lon="12.741465527102173"><ele>395.0</ele><time>2026-04-19T11:40:51.064Z</time></trkpt><trkpt lat="42.73488396776099" lon="12.741405990589023"><ele>411.0</ele><time>2026-04-19T11:40:52.06Z</time></trkpt><trkpt lat="42.734734908519556" lon="12.741343739053104"><ele>427.0</ele><time>2026-04-19T11:40:53.058Z</time></trkpt><trkpt lat="42.734580664260115" lon="12.741309501178979"><ele>427.0</ele><time>2026-04-19T11:40:54.055Z</time></trkpt><trkpt lat="42.73443382741822" lon="12.741250780579207"><ele>427.0</ele><time>2026-04-19T11:40:55.051Z</time></trkpt><trkpt lat="42.73428964286678" lon="12.741202173453221"><ele>427.0</ele><time>2026-04-19T11:40:56.029Z</time></trkpt><trkpt lat="42.73414556962404" lon="12.741155886898836"><ele>443.5</ele><time>2026-04-19T11:40:57.027Z</time></trkpt><trkpt lat="42.73400096073523" lon="12.741110644576633"><ele>460.0</ele><time>2026-04-19T11:40:58.025Z</time></trkpt><trkpt lat="42.731642757083364" lon="12.740297842793517"><ele>428.6666666666667</ele><time>2026-04-19T11:41:12.999Z</time></trkpt><trkpt lat="42.73150490161248" lon="12.740271872053794"><ele>397.33333333333337</ele><time>2026-04-19T11:41:13.998Z</time></trkpt><trkpt lat="42.731355983689106" lon="12.740204153056808"><ele>366.0</ele><time>2026-04-19T11:41:14.998Z</time></trkpt><trkpt lat="42.73120528904655" lon="12.740143882278126"><ele>365.0</ele><time>2026-04-19T11:41:15.998Z</time></trkpt><trkpt lat="42.73106727261284" lon="12.740071995920848"><ele>364.0</ele><time>2026-04-19T11:41:16.998Z</time></trkpt><trkpt lat="42.7309291477609" lon="12.739991111098142"><ele>363.0</ele><time>2026-04-19T11:41:17.998Z</time></trkpt><trkpt lat="42.73079069050698" lon="12.73989846072711"><ele>363.0</ele><time>2026-04-19T11:41:19Z</time></trkpt><trkpt lat="42.73066102349478" lon="12.739788258458951"><ele>363.0</ele><time>2026-04-19T11:41:20Z</time></trkpt><trkpt lat="42.73052837042864" lon="12.739670351580465"><ele>363.0</ele><time>2026-04-19T11:41:21Z</time></trkpt><trkpt lat="42.730403282184106" lon="12.739541793793803"><ele>363.0</ele><time>2026-04-19T11:41:22Z</time></trkpt><trkpt lat="42.73028123074393" lon="12.739405004404926"><ele>363.0</ele><time>2026-04-19T11:41:23Z</time></trkpt><trkpt lat="42.7301663546048" lon="12.739254624637429"><ele>363.0</ele><time>2026-04-19T11:41:24Z</time></trkpt><trkpt lat="42.730050201149005" lon="12.739100007405058"><ele>363.0</ele><time>2026-04-19T11:41:25Z</time></trkpt><trkpt lat="42.72993447237563" lon="12.738950048662657"><ele>363.0</ele><time>2026-04-19T11:41:26Z</time></trkpt><trkpt lat="42.72981920608262" lon="12.738804808391151"><ele>363.0</ele><time>2026-04-19T11:41:27Z</time></trkpt><trkpt lat="42.729700581492" lon="12.738658380410964"><ele>363.3333333333333</ele><time>2026-04-19T11:41:28Z</time></trkpt><trkpt lat="42.72957954243407" lon="12.738509726086999"><ele>363.66666666666663</ele><time>2026-04-19T11:41:29Z</time></trkpt><trkpt lat="42.729463868163045" lon="12.738362492124661"><ele>364.0</ele><time>2026-04-19T11:41:30Z</time></trkpt><trkpt lat="42.72934888263159" lon="12.738219525653577"><ele>364.0</ele><time>2026-04-19T11:41:31Z</time></trkpt><trkpt lat="42.729230936850094" lon="12.738074464056357"><ele>364.0</ele><time>2026-04-19T11:41:32Z</time></trkpt><trkpt lat="42.72911319531964" lon="12.73792730712111"><ele>364.0</ele><time>2026-04-19T11:41:33Z</time></trkpt><trkpt lat="42.72899655602597" lon="12.737780730055462"><ele>363.0</ele><time>2026-04-19T11:41:34Z</time></trkpt><trkpt lat="42.72888246732543" lon="12.737636975879354"><ele>362.0</ele><time>2026-04-19T11:41:35Z</time></trkpt><trkpt lat="42.72876929019523" lon="12.73749205894106"><ele>361.0</ele><time>2026-04-19T11:41:36Z</time></trkpt><trkpt lat="42.72865811655416" lon="12.737348645745042"><ele>362.25</ele><time>2026-04-19T11:41:37Z</time></trkpt><trkpt lat="42.728543771696636" lon="12.737208831185635"><ele>363.5</ele><time>2026-04-19T11:41:38Z</time></trkpt><trkpt lat="42.7284352520685" lon="12.737073649459498"><ele>364.75</ele><time>2026-04-19T11:41:39Z</time></trkpt><trkpt lat="42.72833112766943" lon="12.736941171026439"><ele>366.0</ele><time>2026-04-19T11:41:40Z</time></trkpt><trkpt lat="42.72822533853622" lon="12.736804597521465"><ele>366.0</ele><time>2026-04-19T11:41:41Z</time></trkpt><trkpt lat="42.728123400977786" lon="12.736671842523563"><ele>366.0</ele><time>2026-04-19T11:41:42Z</time></trkpt><trkpt lat="42.72802352053171" lon="12.736544883272757"><ele>366.0</ele><time>2026-04-19T11:41:43Z</time></trkpt><trkpt lat="42.72793240152846" lon="12.736428410467717"><ele>366.0</ele><time>2026-04-19T11:41:44Z</time></trkpt><trkpt lat="42.727854069474084" lon="12.736331585959224"><ele>366.0</ele><time>2026-04-19T11:41:45Z</time></trkpt><trkpt lat="42.727798308642605" lon="12.736253538955205"><ele>366.0</ele><time>2026-04-19T11:41:46Z</time></trkpt><trkpt lat="42.72775690259007" lon="12.73618177846609"><ele>366.0</ele><time>2026-04-19T11:41:47Z</time></trkpt><trkpt lat="42.72772902076547" lon="12.736102165141176"><ele>366.0</ele><time>2026-04-19T11:41:48Z</time></trkpt><trkpt lat="42.72770771931048" lon="12.736019418645707"><ele>366.0</ele><time>2026-04-19T11:41:49Z</time></trkpt><trkpt lat="42.7276270669164" lon="12.73592138474267"><ele>366.0</ele><time>2026-04-19T11:41:51Z</time></trkpt><trkpt lat="42.72752808218311" lon="12.73594875261287"><ele>367.0</ele><time>2026-04-19T11:41:53Z</time></trkpt><trkpt lat="42.72748174641847" lon="12.73608752654092"><ele>368.0</ele><time>2026-04-19T11:41:55Z</time></trkpt><trkpt lat="42.7274898539065" lon="12.736251865527887"><ele>369.0</ele><time>2026-04-19T11:41:57Z</time></trkpt><trkpt lat="42.72749818668226" lon="12.736342737004625"><ele>370.0</ele><time>2026-04-19T11:41:58Z</time></trkpt><trkpt lat="42.72745198527714" lon="12.736445482024502"><ele>371.0</ele><time>2026-04-19T11:41:59Z</time></trkpt><trkpt lat="42.72741999456253" lon="12.736540859446261"><ele>371.0</ele><time>2026-04-19T11:41:59.999Z</time></trkpt><trkpt lat="42.72738052857728" lon="12.736637264660757"><ele>371.0</ele><time>2026-04-19T11:42:00.999Z</time></trkpt><trkpt lat="42.72734023368573" lon="12.736729427314618"><ele>371.0</ele><time>2026-04-19T11:42:01.999Z</time></trkpt><trkpt lat="42.727302440396166" lon="12.736822621032431"><ele>371.0</ele><time>2026-04-19T11:42:02.999Z</time></trkpt><trkpt lat="42.72727101116936" lon="12.736917014247743"><ele>371.0</ele><time>2026-04-19T11:42:03.999Z</time></trkpt><trkpt lat="42.72725352884269" lon="12.737020870009284"><ele>371.0</ele><time>2026-04-19T11:42:04.999Z</time></trkpt><trkpt lat="42.7272524900218" lon="12.737131794876676"><ele>372.6</ele><time>2026-04-19T11:42:05.999Z</time></trkpt><trkpt lat="42.72726677377916" lon="12.737246477566918"><ele>374.20000000000005</ele><time>2026-04-19T11:42:06.999Z</time></trkpt><trkpt lat="42.727287579689204" lon="12.737365054203131"><ele>375.79999999999995</ele><time>2026-04-19T11:42:07.999Z</time></trkpt><trkpt lat="42.727312949067645" lon="12.737485944288071"><ele>377.4</ele><time>2026-04-19T11:42:08.999Z</time></trkpt><trkpt lat="42.7273416842407" lon="12.737608367955335"><ele>379.0</ele><time>2026-04-19T11:42:09.999Z</time></trkpt><trkpt lat="42.72738939174061" lon="12.737721463786622"><ele>380.2</ele><time>2026-04-19T11:42:10.999Z</time></trkpt><trkpt lat="42.727424994524924" lon="12.737840041397941"><ele>381.4</ele><time>2026-04-19T11:42:11.999Z</time></trkpt><trkpt lat="42.727454331744234" lon="12.737964228413114"><ele>382.6</ele><time>2026-04-19T11:42:12.999Z</time></trkpt><trkpt lat="42.72748251933026" lon="12.738092395238787"><ele>383.8</ele><time>2026-04-19T11:42:13.999Z</time></trkpt><trkpt lat="42.727504295625536" lon="12.738221581540232"><ele>385.0</ele><time>2026-04-19T11:42:14.999Z</time></trkpt><trkpt lat="42.727512665864744" lon="12.738354577535981"><ele>385.0</ele><time>2026-04-19T11:42:15.999Z</time></trkpt><trkpt lat="42.727511402841955" lon="12.738486031144712"><ele>385.0</ele><time>2026-04-19T11:42:16.999Z</time></trkpt><trkpt lat="42.72750612383059" lon="12.738618865688757"><ele>385.0</ele><time>2026-04-19T11:42:17.999Z</time></trkpt><trkpt lat="42.727500314201464" lon="12.738751329664192"><ele>385.0</ele><time>2026-04-19T11:42:18.999Z</time></trkpt><trkpt lat="42.72749655004561" lon="12.73888525510639"><ele>385.0</ele><time>2026-04-19T11:42:19.999Z</time></trkpt><trkpt lat="42.727496799240114" lon="12.739015226154553"><ele>387.0</ele><time>2026-04-19T11:42:20.999Z</time></trkpt><trkpt lat="42.72750431732576" lon="12.73914790647965"><ele>389.0</ele><time>2026-04-19T11:42:21.999Z</time></trkpt><trkpt lat="42.72751821785082" lon="12.7392762442025"><ele>391.0</ele><time>2026-04-19T11:42:22.999Z</time></trkpt><trkpt lat="42.727541088417645" lon="12.739400454599751"><ele>393.0</ele><time>2026-04-19T11:42:23.999Z</time></trkpt><trkpt lat="42.7275665915832" lon="12.73952727305709"><ele>395.0</ele><time>2026-04-19T11:42:24.999Z</time></trkpt><trkpt lat="42.7275963936518" lon="12.739649213612443"><ele>393.8</ele><time>2026-04-19T11:42:25.999Z</time></trkpt><trkpt lat="42.727629966855844" lon="12.7397653407312"><ele>392.6</ele><time>2026-04-19T11:42:26.999Z</time></trkpt><trkpt lat="42.72766821587255" lon="12.739876044916311"><ele>391.4</ele><time>2026-04-19T11:42:27.999Z</time></trkpt><trkpt lat="42.72771284403202" lon="12.739982496749814"><ele>390.2</ele><time>2026-04-19T11:42:28.999Z</time></trkpt><trkpt lat="42.727766017944305" lon="12.740083756132549"><ele>389.0</ele><time>2026-04-19T11:42:29.999Z</time></trkpt><trkpt lat="42.72782589514306" lon="12.740183446009016"><ele>391.79999999999995</ele><time>2026-04-19T11:42:30.999Z</time></trkpt><trkpt lat="42.72788636115097" lon="12.740275573672475"><ele>394.59999999999997</ele><time>2026-04-19T11:42:31.999Z</time></trkpt><trkpt lat="42.7279493615939" lon="12.74036984619691"><ele>397.4</ele><time>2026-04-19T11:42:32.999Z</time></trkpt><trkpt lat="42.728006888581376" lon="12.740469250160498"><ele>400.2</ele><time>2026-04-19T11:42:33.999Z</time></trkpt><trkpt lat="42.728065277837295" lon="12.740569217430481"><ele>403.0</ele><time>2026-04-19T11:42:34.999Z</time></trkpt><trkpt lat="42.728121884147335" lon="12.740664724189838"><ele>403.00000000000006</ele><time>2026-04-19T11:42:35.999Z</time></trkpt><trkpt lat="42.72817708375944" lon="12.740757089180951"><ele>403.0</ele><time>2026-04-19T11:42:36.999Z</time></trkpt><trkpt lat="42.728227691865555" lon="12.7408434352279"><ele>403.0</ele><time>2026-04-19T11:42:37.999Z</time></trkpt><trkpt lat="42.72827621461924" lon="12.740924898206808"><ele>403.0</ele><time>2026-04-19T11:42:38.999Z</time></trkpt><trkpt lat="42.728321864442506" lon="12.741008041612245"><ele>403.00000000000006</ele><time>2026-04-19T11:42:39.999Z</time></trkpt><trkpt lat="42.72836646273788" lon="12.741089546343991"><ele>403.0</ele><time>2026-04-19T11:42:40.999Z</time></trkpt><trkpt lat="42.728415668155485" lon="12.741172331266798"><ele>405.2857142857143</ele><time>2026-04-19T11:42:41.999Z</time></trkpt><trkpt lat="42.72846112107357" lon="12.741250681211172"><ele>407.57142857142856</ele><time>2026-04-19T11:42:42.999Z</time></trkpt><trkpt lat="42.72849340361926" lon="12.74133794797722"><ele>409.85714285714283</ele><time>2026-04-19T11:42:43.999Z</time></trkpt><trkpt lat="42.72851597304764" lon="12.741434797192367"><ele>412.1428571428571</ele><time>2026-04-19T11:42:44.999Z</time></trkpt><trkpt lat="42.72852843204887" lon="12.741540778982124"><ele>414.42857142857144</ele><time>2026-04-19T11:42:45.999Z</time></trkpt><trkpt lat="42.72851837967017" lon="12.741645743851102"><ele>416.71428571428567</ele><time>2026-04-19T11:42:46.999Z</time></trkpt><trkpt lat="42.728503686264474" lon="12.741736398043354"><ele>419.0</ele><time>2026-04-19T11:42:47.999Z</time></trkpt><trkpt lat="42.72847614790815" lon="12.74187053719465"><ele>422.0</ele><time>2026-04-19T11:42:49.999Z</time></trkpt><trkpt lat="42.72850795307477" lon="12.741974674905975"><ele>425.0</ele><time>2026-04-19T11:42:51.999Z</time></trkpt><trkpt lat="42.72860817476427" lon="12.742026022321353"><ele>428.0</ele><time>2026-04-19T11:42:53.999Z</time></trkpt><trkpt lat="42.72872278224259" lon="12.742000154590908"><ele>431.0</ele><time>2026-04-19T11:42:55.999Z</time></trkpt><trkpt lat="42.728788138838496" lon="12.741966784348232"><ele>434.0</ele><time>2026-04-19T11:42:56.999Z</time></trkpt><trkpt lat="42.728858029440936" lon="12.741918680578241"><ele>430.66666666666663</ele><time>2026-04-19T11:42:57.999Z</time></trkpt><trkpt lat="42.72892123465825" lon="12.741856234305727"><ele>427.3333333333333</ele><time>2026-04-19T11:42:58.999Z</time></trkpt><trkpt lat="42.72898778147315" lon="12.741797719912176"><ele>424.0</ele><time>2026-04-19T11:42:59.999Z</time></trkpt><trkpt lat="42.729052704376244" lon="12.741740633417264"><ele>420.66666666666663</ele><time>2026-04-19T11:43:00.999Z</time></trkpt><trkpt lat="42.72911620906845" lon="12.74168917975826"><ele>417.3333333333333</ele><time>2026-04-19T11:43:01.999Z</time></trkpt><trkpt lat="42.72918457472749" lon="12.7416421041737"><ele>414.0</ele><time>2026-04-19T11:43:02.999Z</time></trkpt><trkpt lat="42.72925560822082" lon="12.741591319779351"><ele>414.00000000000006</ele><time>2026-04-19T11:43:03.999Z</time></trkpt><trkpt lat="42.72933460560949" lon="12.741569173883287"><ele>414.0</ele><time>2026-04-19T11:43:04.999Z</time></trkpt><trkpt lat="42.729411482218104" lon="12.741569353884676"><ele>414.0</ele><time>2026-04-19T11:43:05.999Z</time></trkpt><trkpt lat="42.72947633752107" lon="12.741605871472682"><ele>414.0</ele><time>2026-04-19T11:43:06.999Z</time></trkpt><trkpt lat="42.72952627200456" lon="12.741664496658332"><ele>414.0</ele><time>2026-04-19T11:43:07.999Z</time></trkpt><trkpt lat="42.72957518999092" lon="12.74174474443584"><ele>414.00000000000006</ele><time>2026-04-19T11:43:08.999Z</time></trkpt><trkpt lat="42.72962576451228" lon="12.741817683978466"><ele>414.0</ele><time>2026-04-19T11:43:09.999Z</time></trkpt><trkpt lat="42.72969002123998" lon="12.741901667780292"><ele>416.3333333333333</ele><time>2026-04-19T11:43:10.999Z</time></trkpt><trkpt lat="42.7297617783272" lon="12.741969805749568"><ele>418.66666666666663</ele><time>2026-04-19T11:43:11.999Z</time></trkpt><trkpt lat="42.72982989405472" lon="12.74203532640858"><ele>421.0</ele><time>2026-04-19T11:43:12.999Z</time></trkpt><trkpt lat="42.729897267685324" lon="12.742098098465535"><ele>423.3333333333333</ele><time>2026-04-19T11:43:13.999Z</time></trkpt><trkpt lat="42.72997123180043" lon="12.742154538303005"><ele>425.66666666666663</ele><time>2026-04-19T11:43:14.999Z</time></trkpt><trkpt lat="42.730042988196665" lon="12.74221341924798"><ele>428.0</ele><time>2026-04-19T11:43:15.999Z</time></trkpt><trkpt lat="42.73011389433685" lon="12.742278788290879"><ele>427.99999999999994</ele><time>2026-04-19T11:43:16.999Z</time></trkpt><trkpt lat="42.73017944720005" lon="12.742340394858509"><ele>428.0</ele><time>2026-04-19T11:43:17.999Z</time></trkpt><trkpt lat="42.73023832851977" lon="12.74241583536741"><ele>428.0</ele><time>2026-04-19T11:43:18.999Z</time></trkpt><trkpt lat="42.73029740383514" lon="12.742491678230309"><ele>428.0</ele><time>2026-04-19T11:43:19.999Z</time></trkpt><trkpt lat="42.73036258599301" lon="12.74257924888133"><ele>427.99999999999994</ele><time>2026-04-19T11:43:20.999Z</time></trkpt><trkpt lat="42.73042081116356" lon="12.742667194251535"><ele>428.0</ele><time>2026-04-19T11:43:21.999Z</time></trkpt><trkpt lat="42.73047678375104" lon="12.742760106534956"><ele>428.16666666666663</ele><time>2026-04-19T11:43:22.999Z</time></trkpt><trkpt lat="42.73053299740699" lon="12.742850715165595"><ele>428.3333333333333</ele><time>2026-04-19T11:43:23.999Z</time></trkpt><trkpt lat="42.730590826416055" lon="12.74294018475417"><ele>428.5</ele><time>2026-04-19T11:43:25Z</time></trkpt><trkpt lat="42.73064961645991" lon="12.743026514889092"><ele>428.66666666666663</ele><time>2026-04-19T11:43:26Z</time></trkpt><trkpt lat="42.73070847145266" lon="12.743113268814232"><ele>428.8333333333333</ele><time>2026-04-19T11:43:27Z</time></trkpt><trkpt lat="42.73077209150218" lon="12.74319270916877"><ele>429.0</ele><time>2026-04-19T11:43:28Z</time></trkpt><trkpt lat="42.73084107112548" lon="12.74326429065842"><ele>429.0</ele><time>2026-04-19T11:43:29Z</time></trkpt><trkpt lat="42.730911474337425" lon="12.743334920000267"><ele>429.0</ele><time>2026-04-19T11:43:30Z</time></trkpt><trkpt lat="42.730985287435345" lon="12.743401079451221"><ele>429.0</ele><time>2026-04-19T11:43:31Z</time></trkpt><trkpt lat="42.73105956987457" lon="12.743468790064663"><ele>429.0</ele><time>2026-04-19T11:43:32Z</time></trkpt><trkpt lat="42.73113349347189" lon="12.743535760230646"><ele>429.0</ele><time>2026-04-19T11:43:33Z</time></trkpt><trkpt lat="42.73121194906927" lon="12.743594345680402"><ele>429.0</ele><time>2026-04-19T11:43:34Z</time></trkpt><trkpt lat="42.731280572921804" lon="12.74367853472903"><ele>427.6666666666667</ele><time>2026-04-19T11:43:35Z</time></trkpt><trkpt lat="42.73136122875218" lon="12.743726463131086"><ele>426.33333333333337</ele><time>2026-04-19T11:43:36Z</time></trkpt><trkpt lat="42.73142677159706" lon="12.743802055456605"><ele>425.0</ele><time>2026-04-19T11:43:37Z</time></trkpt><trkpt lat="42.731486496062736" lon="12.743883425506672"><ele>423.6666666666667</ele><time>2026-04-19T11:43:38Z</time></trkpt><trkpt lat="42.731541184444595" lon="12.743961679671157"><ele>422.33333333333337</ele><time>2026-04-19T11:43:39Z</time></trkpt><trkpt lat="42.73158973204078" lon="12.744038228376724"><ele>421.0</ele><time>2026-04-19T11:43:40Z</time></trkpt><trkpt lat="42.73163168881744" lon="12.744106793155275"><ele>421.0</ele><time>2026-04-19T11:43:41Z</time></trkpt><trkpt lat="42.73171338299145" lon="12.744221561520096"><ele>421.0</ele><time>2026-04-19T11:43:43Z</time></trkpt><trkpt lat="42.7317521442027" lon="12.744316991269654"><ele>421.0</ele><time>2026-04-19T11:43:45Z</time></trkpt><trkpt lat="42.731738608624646" lon="12.744412417533091"><ele>421.0</ele><time>2026-04-19T11:43:47Z</time></trkpt><trkpt lat="42.73164865211768" lon="12.74435421127117"><ele>421.0</ele><time>2026-04-19T11:43:49Z</time></trkpt><trkpt lat="42.73161870605522" lon="12.744238931211903"><ele>421.0</ele><time>2026-04-19T11:43:51Z</time></trkpt><trkpt lat="42.73156584523999" lon="12.744113948364122"><ele>421.0</ele><time>2026-04-19T11:43:53Z</time></trkpt><trkpt lat="42.731497500390276" lon="12.743995493333939"><ele>421.0</ele><time>2026-04-19T11:43:55Z</time></trkpt><trkpt lat="42.7314124942246" lon="12.743892320750728"><ele>421.0</ele><time>2026-04-19T11:43:57Z</time></trkpt><trkpt lat="42.73130898631504" lon="12.743808958568314"><ele>421.00000000000006</ele><time>2026-04-19T11:43:59Z</time></trkpt><trkpt lat="42.73118645437182" lon="12.743745868380083"><ele>421.0</ele><time>2026-04-19T11:44:01Z</time></trkpt><trkpt lat="42.73111763716339" lon="12.743707607998749"><ele>421.0</ele><time>2026-04-19T11:44:02Z</time></trkpt><trkpt lat="42.731055056205406" lon="12.743667375189705"><ele>421.0</ele><time>2026-04-19T11:44:03Z</time></trkpt><trkpt lat="42.73099408296235" lon="12.743608179649964"><ele>421.00000000000006</ele><time>2026-04-19T11:44:04Z</time></trkpt><trkpt lat="42.73092726715767" lon="12.743539644085363"><ele>421.0</ele><time>2026-04-19T11:44:05Z</time></trkpt><trkpt lat="42.730858660976345" lon="12.743476901490068"><ele>422.33333333333337</ele><time>2026-04-19T11:44:06Z</time></trkpt><trkpt lat="42.73078245726672" lon="12.74342306985007"><ele>423.6666666666667</ele><time>2026-04-19T11:44:07Z</time></trkpt><trkpt lat="42.730706101144236" lon="12.74336737871189"><ele>425.0</ele><time>2026-04-19T11:44:08Z</time></trkpt><trkpt lat="42.73062913693464" lon="12.743303852308852"><ele>426.33333333333337</ele><time>2026-04-19T11:44:09Z</time></trkpt><trkpt lat="42.73055248768231" lon="12.743236758570896"><ele>427.6666666666667</ele><time>2026-04-19T11:44:10Z</time></trkpt><trkpt lat="42.730478816162744" lon="12.743162984344352"><ele>429.0</ele><time>2026-04-19T11:44:11Z</time></trkpt><trkpt lat="42.73040741630978" lon="12.743079123936369"><ele>429.0</ele><time>2026-04-19T11:44:12Z</time></trkpt><trkpt lat="42.73033762121078" lon="12.742986986840773"><ele>429.0</ele><time>2026-04-19T11:44:13Z</time></trkpt><trkpt lat="42.73026773227902" lon="12.742892632617231"><ele>429.0</ele><time>2026-04-19T11:44:14Z</time></trkpt><trkpt lat="42.73019375051171" lon="12.742806644145983"><ele>429.0</ele><time>2026-04-19T11:44:15Z</time></trkpt><trkpt lat="42.73011482465929" lon="12.742728100708643"><ele>429.0</ele><time>2026-04-19T11:44:16Z</time></trkpt><trkpt lat="42.73002626921758" lon="12.742668652226367"><ele>428.8333333333333</ele><time>2026-04-19T11:44:17Z</time></trkpt><trkpt lat="42.72994160016315" lon="12.742619015792027"><ele>428.66666666666663</ele><time>2026-04-19T11:44:18Z</time></trkpt><trkpt lat="42.72986564971889" lon="12.742571622103643"><ele>428.5</ele><time>2026-04-19T11:44:19Z</time></trkpt><trkpt lat="42.72978839041569" lon="12.742528217475659"><ele>428.3333333333333</ele><time>2026-04-19T11:44:19.999Z</time></trkpt><trkpt lat="42.72971013124573" lon="12.742488137890126"><ele>428.16666666666663</ele><time>2026-04-19T11:44:20.999Z</time></trkpt><trkpt lat="42.729629902600855" lon="12.74245292974004"><ele>428.0</ele><time>2026-04-19T11:44:21.999Z</time></trkpt><trkpt lat="42.72954653762269" lon="12.742467403729705"><ele>427.99999999999994</ele><time>2026-04-19T11:44:22.999Z</time></trkpt><trkpt lat="42.729467282985524" lon="12.74248980555058"><ele>428.0</ele><time>2026-04-19T11:44:23.999Z</time></trkpt><trkpt lat="42.72939362486004" lon="12.742510971078254"><ele>428.0</ele><time>2026-04-19T11:44:24.999Z</time></trkpt><trkpt lat="42.729318249623844" lon="12.742526036935997"><ele>428.0</ele><time>2026-04-19T11:44:25.999Z</time></trkpt><trkpt lat="42.72924341386898" lon="12.742558651782037"><ele>427.99999999999994</ele><time>2026-04-19T11:44:26.999Z</time></trkpt><trkpt lat="42.72916595231446" lon="12.742571497958087"><ele>428.0</ele><time>2026-04-19T11:44:27.999Z</time></trkpt><trkpt lat="42.72908725185905" lon="12.74260131838154"><ele>429.16666666666663</ele><time>2026-04-19T11:44:28.999Z</time></trkpt><trkpt lat="42.72900694596211" lon="12.742641142001592"><ele>430.3333333333333</ele><time>2026-04-19T11:44:29.999Z</time></trkpt><trkpt lat="42.72892738852677" lon="12.742689504735994"><ele>431.5</ele><time>2026-04-19T11:44:30.999Z</time></trkpt><trkpt lat="42.72884879917617" lon="12.742744268928126"><ele>432.66666666666663</ele><time>2026-04-19T11:44:31.999Z</time></trkpt><trkpt lat="42.72876513648311" lon="12.742800297763981"><ele>433.8333333333333</ele><time>2026-04-19T11:44:32.999Z</time></trkpt><trkpt lat="42.728680801196475" lon="12.742856850600576"><ele>435.0</ele><time>2026-04-19T11:44:33.999Z</time></trkpt><trkpt lat="42.72859396496003" lon="12.742904960733739"><ele>439.8</ele><time>2026-04-19T11:44:34.999Z</time></trkpt><trkpt lat="42.72850193242675" lon="12.742945138600042"><ele>444.6</ele><time>2026-04-19T11:44:35.999Z</time></trkpt><trkpt lat="42.72840577961151" lon="12.742985116041703"><ele>449.4</ele><time>2026-04-19T11:44:36.999Z</time></trkpt><trkpt lat="42.728303589656484" lon="12.743014568373976"><ele>454.2</ele><time>2026-04-19T11:44:37.999Z</time></trkpt><trkpt lat="42.72820444700616" lon="12.743037944508972"><ele>459.0</ele><time>2026-04-19T11:44:38.999Z</time></trkpt><trkpt lat="42.72810427036969" lon="12.743056381328843"><ele>459.0</ele><time>2026-04-19T11:44:39.999Z</time></trkpt><trkpt lat="42.728007300363636" lon="12.743072435644"><ele>459.0</ele><time>2026-04-19T11:44:40.999Z</time></trkpt><trkpt lat="42.72790751287068" lon="12.743086236374271"><ele>459.0</ele><time>2026-04-19T11:44:41.999Z</time></trkpt><trkpt lat="42.72780936474205" lon="12.743099797226831"><ele>459.0</ele><time>2026-04-19T11:44:42.999Z</time></trkpt><trkpt lat="42.727712624217325" lon="12.743115888113568"><ele>459.0</ele><time>2026-04-19T11:44:43.999Z</time></trkpt><trkpt lat="42.72761780140191" lon="12.743138580302281"><ele>458.6666666666667</ele><time>2026-04-19T11:44:44.999Z</time></trkpt><trkpt lat="42.727525787037074" lon="12.74315995627883"><ele>458.33333333333337</ele><time>2026-04-19T11:44:45.999Z</time></trkpt><trkpt lat="42.72743722356023" lon="12.743182652263966"><ele>458.0</ele><time>2026-04-19T11:44:46.999Z</time></trkpt><trkpt lat="42.72735164076879" lon="12.743202865696926"><ele>457.6666666666667</ele><time>2026-04-19T11:44:47.999Z</time></trkpt><trkpt lat="42.72727224172753" lon="12.743223503989396"><ele>457.33333333333337</ele><time>2026-04-19T11:44:48.999Z</time></trkpt><trkpt lat="42.727195676928446" lon="12.743247052869979"><ele>457.0</ele><time>2026-04-19T11:44:49.999Z</time></trkpt><trkpt lat="42.72714997108374" lon="12.74332975201685"><ele>457.0</ele><time>2026-04-19T11:44:50.999Z</time></trkpt><trkpt lat="42.72709786190934" lon="12.743381382739186"><ele>457.00000000000006</ele><time>2026-04-19T11:44:51.999Z</time></trkpt><trkpt lat="42.72700000187774" lon="12.74343022772888"><ele>457.00000000000006</ele><time>2026-04-19T11:44:53.999Z</time></trkpt><trkpt lat="42.72691201217671" lon="12.743360020509243"><ele>457.0</ele><time>2026-04-19T11:44:55.999Z</time></trkpt><trkpt lat="42.726910647303505" lon="12.743203747447936"><ele>457.0</ele><time>2026-04-19T11:44:57.999Z</time></trkpt><trkpt lat="42.726957274629456" lon="12.743142956537865"><ele>457.0</ele><time>2026-04-19T11:44:58.999Z</time></trkpt><trkpt lat="42.727009318959944" lon="12.742997958999133"><ele>457.00000000000006</ele><time>2026-04-19T11:45:00.999Z</time></trkpt><trkpt lat="42.727087632670326" lon="12.742877140495557"><ele>457.00000000000006</ele><time>2026-04-19T11:45:02.999Z</time></trkpt><trkpt lat="42.727163271033625" lon="12.742746171136886"><ele>457.0</ele><time>2026-04-19T11:45:04.999Z</time></trkpt><trkpt lat="42.7271923520869" lon="12.742666583678334"><ele>457.0</ele><time>2026-04-19T11:45:05.999Z</time></trkpt><trkpt lat="42.72723736262202" lon="12.742603160131088"><ele>455.83333333333337</ele><time>2026-04-19T11:45:06.999Z</time></trkpt><trkpt lat="42.72728532251233" lon="12.742533473298904"><ele>454.6666666666667</ele><time>2026-04-19T11:45:07.999Z</time></trkpt><trkpt lat="42.727328866339015" lon="12.742459930275668"><ele>453.5</ele><time>2026-04-19T11:45:08.999Z</time></trkpt><trkpt lat="42.72737558992347" lon="12.74238194810134"><ele>452.33333333333337</ele><time>2026-04-19T11:45:09.999Z</time></trkpt><trkpt lat="42.7274215168079" lon="12.742302405097574"><ele>451.1666666666667</ele><time>2026-04-19T11:45:10.999Z</time></trkpt><trkpt lat="42.72745653432937" lon="12.742218670630455"><ele>450.0</ele><time>2026-04-19T11:45:11.999Z</time></trkpt><trkpt lat="42.72746416560648" lon="12.74206294514761"><ele>450.00000000000006</ele><time>2026-04-19T11:45:13.999Z</time></trkpt><trkpt lat="42.72742159878617" lon="12.741985868139269"><ele>450.0</ele><time>2026-04-19T11:45:14.999Z</time></trkpt><trkpt lat="42.72735123438122" lon="12.741936309488597"><ele>450.00000000000006</ele><time>2026-04-19T11:45:15.999Z</time></trkpt><trkpt lat="42.7272843686334" lon="12.741893832232343"><ele>450.00000000000006</ele><time>2026-04-19T11:45:16.999Z</time></trkpt><trkpt lat="42.72721659746371" lon="12.741853936306434"><ele>450.0</ele><time>2026-04-19T11:45:17.999Z</time></trkpt><trkpt lat="42.72714684980621" lon="12.741821457576393"><ele>450.00000000000006</ele><time>2026-04-19T11:45:18.999Z</time></trkpt><trkpt lat="42.72707623288611" lon="12.741789648155502"><ele>450.00000000000006</ele><time>2026-04-19T11:45:19.999Z</time></trkpt><trkpt lat="42.72700606802011" lon="12.741759719301104"><ele>448.7142857142858</ele><time>2026-04-19T11:45:20.999Z</time></trkpt><trkpt lat="42.7269373547791" lon="12.741731295118639"><ele>447.42857142857144</ele><time>2026-04-19T11:45:21.999Z</time></trkpt><trkpt lat="42.72687028838475" lon="12.741703552177912"><ele>446.14285714285717</ele><time>2026-04-19T11:45:22.999Z</time></trkpt><trkpt lat="42.72680435263391" lon="12.741676276942048"><ele>444.8571428571429</ele><time>2026-04-19T11:45:23.999Z</time></trkpt><trkpt lat="42.72673332815566" lon="12.741646896681734"><ele>443.57142857142856</ele><time>2026-04-19T11:45:24.999Z</time></trkpt><trkpt lat="42.72666429925604" lon="12.741615299291631"><ele>442.2857142857143</ele><time>2026-04-19T11:45:25.999Z</time></trkpt><trkpt lat="42.72660045877421" lon="12.741570287278469"><ele>441.0</ele><time>2026-04-19T11:45:26.999Z</time></trkpt><trkpt lat="42.72654863209425" lon="12.741504653308112"><ele>445.3333333333333</ele><time>2026-04-19T11:45:27.999Z</time></trkpt><trkpt lat="42.72648790964685" lon="12.741436141377404"><ele>449.66666666666663</ele><time>2026-04-19T11:45:28.999Z</time></trkpt><trkpt lat="42.72642880652763" lon="12.741372703382256"><ele>454.0</ele><time>2026-04-19T11:45:29.999Z</time></trkpt><trkpt lat="42.72636783622102" lon="12.741308703892832"><ele>458.3333333333333</ele><time>2026-04-19T11:45:31Z</time></trkpt><trkpt lat="42.72630157388892" lon="12.741247434508947"><ele>462.66666666666663</ele><time>2026-04-19T11:45:32Z</time></trkpt><trkpt lat="42.72623090897025" lon="12.74120230038563"><ele>467.0</ele><time>2026-04-19T11:45:33Z</time></trkpt><trkpt lat="42.72617769442482" lon="12.741117539621499"><ele>467.66666666666663</ele><time>2026-04-19T11:45:34Z</time></trkpt><trkpt lat="42.72615521511796" lon="12.741010136291411"><ele>468.3333333333333</ele><time>2026-04-19T11:45:35Z</time></trkpt><trkpt lat="42.7261087014596" lon="12.740928263654663"><ele>469.0</ele><time>2026-04-19T11:45:36Z</time></trkpt><trkpt lat="42.72607638052951" lon="12.740843049847465"><ele>469.66666666666663</ele><time>2026-04-19T11:45:37Z</time></trkpt><trkpt lat="42.72604285937327" lon="12.740756635719329"><ele>470.3333333333333</ele><time>2026-04-19T11:45:38Z</time></trkpt><trkpt lat="42.72597070450631" lon="12.740709705798215"><ele>471.0</ele><time>2026-04-19T11:45:39Z</time></trkpt><trkpt lat="42.72588899876905" lon="12.74070395513185"><ele>471.0</ele><time>2026-04-19T11:45:40Z</time></trkpt><trkpt lat="42.72581193073945" lon="12.740732434883126"><ele>471.0</ele><time>2026-04-19T11:45:41Z</time></trkpt><trkpt lat="42.7257419689675" lon="12.74075841839771"><ele>471.0</ele><time>2026-04-19T11:45:42Z</time></trkpt><trkpt lat="42.725673367219244" lon="12.740787504465766"><ele>471.0</ele><time>2026-04-19T11:45:43Z</time></trkpt><trkpt lat="42.72560261944567" lon="12.740817523158189"><ele>471.0</ele><time>2026-04-19T11:45:44Z</time></trkpt><trkpt lat="42.72553218113186" lon="12.740849435715363"><ele>471.0</ele><time>2026-04-19T11:45:45Z</time></trkpt><trkpt lat="42.72546478876046" lon="12.740904028377898"><ele>471.0</ele><time>2026-04-19T11:45:46Z</time></trkpt><trkpt lat="42.72539510889805" lon="12.74093138822544"><ele>471.0</ele><time>2026-04-19T11:45:47Z</time></trkpt><trkpt lat="42.72532445495735" lon="12.740968159151196"><ele>471.0</ele><time>2026-04-19T11:45:48Z</time></trkpt><trkpt lat="42.72525219709737" lon="12.741007149296639"><ele>471.0</ele><time>2026-04-19T11:45:49Z</time></trkpt><trkpt lat="42.725179017451666" lon="12.741046983878025"><ele>471.0</ele><time>2026-04-19T11:45:50Z</time></trkpt><trkpt lat="42.725103800602696" lon="12.741078605535161"><ele>471.0</ele><time>2026-04-19T11:45:51Z</time></trkpt><trkpt lat="42.725031090292845" lon="12.741113656925174"><ele>475.3333333333333</ele><time>2026-04-19T11:45:52Z</time></trkpt><trkpt lat="42.72495409339122" lon="12.74114169632122"><ele>479.66666666666663</ele><time>2026-04-19T11:45:53Z</time></trkpt><trkpt lat="42.724875822756196" lon="12.741166282039739"><ele>484.0</ele><time>2026-04-19T11:45:54Z</time></trkpt><trkpt lat="42.72479392236258" lon="12.741181446127463"><ele>488.3333333333333</ele><time>2026-04-19T11:45:55Z</time></trkpt><trkpt lat="42.72472189904382" lon="12.741192980386394"><ele>492.66666666666663</ele><time>2026-04-19T11:45:56Z</time></trkpt><trkpt lat="42.72466007473242" lon="12.741222015662414"><ele>497.0</ele><time>2026-04-19T11:45:57Z</time></trkpt><trkpt lat="42.724587464699376" lon="12.741340849978068"><ele>497.0</ele><time>2026-04-19T11:45:59Z</time></trkpt><trkpt lat="42.724621549094486" lon="12.741475766219374"><ele>497.0</ele><time>2026-04-19T11:46:01Z</time></trkpt><trkpt lat="42.724678844112425" lon="12.741514147168843"><ele>497.0</ele><time>2026-04-19T11:46:02Z</time></trkpt><trkpt lat="42.72474925285311" lon="12.74151350383072"><ele>497.0</ele><time>2026-04-19T11:46:03Z</time></trkpt><trkpt lat="42.72481467927918" lon="12.74147705369577"><ele>497.0</ele><time>2026-04-19T11:46:04Z</time></trkpt><trkpt lat="42.72487289899564" lon="12.741419888587656"><ele>497.0</ele><time>2026-04-19T11:46:05Z</time></trkpt><trkpt lat="42.7249306229771" lon="12.741371161850553"><ele>497.0</ele><time>2026-04-19T11:46:06Z</time></trkpt><trkpt lat="42.724996732571014" lon="12.74133416595129"><ele>496.99999999999994</ele><time>2026-04-19T11:46:07Z</time></trkpt><trkpt lat="42.725067221137635" lon="12.741306297458092"><ele>497.0</ele><time>2026-04-19T11:46:08Z</time></trkpt><trkpt lat="42.725139806758904" lon="12.74128297182854"><ele>497.0</ele><time>2026-04-19T11:46:09Z</time></trkpt><trkpt lat="42.72521174182358" lon="12.741255328216662"><ele>497.0</ele><time>2026-04-19T11:46:10Z</time></trkpt><trkpt lat="42.72528319593781" lon="12.741224455304417"><ele>496.99999999999994</ele><time>2026-04-19T11:46:11Z</time></trkpt><trkpt lat="42.72535751937648" lon="12.741193523056106"><ele>497.0</ele><time>2026-04-19T11:46:12Z</time></trkpt><trkpt lat="42.725431808046544" lon="12.741166107303135"><ele>496.7142857142857</ele><time>2026-04-19T11:46:13Z</time></trkpt><trkpt lat="42.725504364409026" lon="12.741144652768586"><ele>496.42857142857144</ele><time>2026-04-19T11:46:14Z</time></trkpt><trkpt lat="42.725580393377946" lon="12.741134081622873"><ele>496.1428571428571</ele><time>2026-04-19T11:46:15Z</time></trkpt><trkpt lat="42.725656178313365" lon="12.741138391762858"><ele>495.85714285714283</ele><time>2026-04-19T11:46:16Z</time></trkpt><trkpt lat="42.72572480929994" lon="12.741165610215903"><ele>495.57142857142856</ele><time>2026-04-19T11:46:17Z</time></trkpt><trkpt lat="42.725782209163036" lon="12.741217286805158"><ele>495.2857142857142</ele><time>2026-04-19T11:46:18Z</time></trkpt><trkpt lat="42.72582840157899" lon="12.741289650529271"><ele>494.99999999999994</ele><time>2026-04-19T11:46:19Z</time></trkpt><trkpt lat="42.72587081300989" lon="12.741365379854294"><ele>495.0</ele><time>2026-04-19T11:46:20Z</time></trkpt><trkpt lat="42.725921959127966" lon="12.741447728923479"><ele>495.0</ele><time>2026-04-19T11:46:21Z</time></trkpt><trkpt lat="42.725977669122486" lon="12.741528429852751"><ele>495.0</ele><time>2026-04-19T11:46:22Z</time></trkpt><trkpt lat="42.72603299797161" lon="12.74161902215437"><ele>495.0</ele><time>2026-04-19T11:46:23Z</time></trkpt><trkpt lat="42.72608431431135" lon="12.741710909665365"><ele>495.0</ele><time>2026-04-19T11:46:23.999Z</time></trkpt><trkpt lat="42.72613541973491" lon="12.741798864678781"><ele>495.0</ele><time>2026-04-19T11:46:24.999Z</time></trkpt><trkpt lat="42.72618672464611" lon="12.741884296685654"><ele>492.3333333333333</ele><time>2026-04-19T11:46:25.999Z</time></trkpt><trkpt lat="42.72623816461233" lon="12.741964871508817"><ele>489.66666666666663</ele><time>2026-04-19T11:46:26.999Z</time></trkpt><trkpt lat="42.726291875497765" lon="12.742044189615214"><ele>487.0</ele><time>2026-04-19T11:46:27.999Z</time></trkpt><trkpt lat="42.726342950211944" lon="12.742117725451502"><ele>484.3333333333333</ele><time>2026-04-19T11:46:28.999Z</time></trkpt><trkpt lat="42.72638748667262" lon="12.742182907914602"><ele>481.66666666666663</ele><time>2026-04-19T11:46:29.999Z</time></trkpt><trkpt lat="42.726462489680365" lon="12.742294919792599"><ele>479.0</ele><time>2026-04-19T11:46:31.999Z</time></trkpt><trkpt lat="42.7265036646934" lon="12.742399718962567"><ele>479.0</ele><time>2026-04-19T11:46:33.999Z</time></trkpt><trkpt lat="42.72648906646168" lon="12.742506866804748"><ele>479.0</ele><time>2026-04-19T11:46:35.999Z</time></trkpt><trkpt lat="42.72642224678405" lon="12.742563934879081"><ele>479.0</ele><time>2026-04-19T11:46:37.999Z</time></trkpt><trkpt lat="42.726376155203276" lon="12.742478775464017"><ele>479.0</ele><time>2026-04-19T11:46:39.999Z</time></trkpt><trkpt lat="42.72634936717435" lon="12.742368485751092"><ele>479.0</ele><time>2026-04-19T11:46:41.999Z</time></trkpt><trkpt lat="42.72632162321178" lon="12.742189353854473"><ele>479.0</ele><time>2026-04-19T11:46:43.999Z</time></trkpt><trkpt lat="42.72628245838222" lon="12.74210319865677"><ele>479.0</ele><time>2026-04-19T11:46:44.999Z</time></trkpt><trkpt lat="42.72621986492998" lon="12.742033571336158"><ele>479.0</ele><time>2026-04-19T11:46:45.999Z</time></trkpt><trkpt lat="42.72616706584933" lon="12.741974186321078"><ele>479.0</ele><time>2026-04-19T11:46:46.999Z</time></trkpt><trkpt lat="42.726110953316116" lon="12.741911074552847"><ele>479.0</ele><time>2026-04-19T11:46:47.999Z</time></trkpt><trkpt lat="42.72604343738496" lon="12.741861805479731"><ele>479.0</ele><time>2026-04-19T11:46:48.999Z</time></trkpt><trkpt lat="42.72598625724992" lon="12.741800725241708"><ele>479.0</ele><time>2026-04-19T11:46:49.999Z</time></trkpt><trkpt lat="42.725922704473334" lon="12.74174763298387"><ele>481.66666666666663</ele><time>2026-04-19T11:46:50.999Z</time></trkpt><trkpt lat="42.72585607526672" lon="12.741693396148616"><ele>484.3333333333333</ele><time>2026-04-19T11:46:51.999Z</time></trkpt><trkpt lat="42.72578892866636" lon="12.74164362113745"><ele>487.0</ele><time>2026-04-19T11:46:52.999Z</time></trkpt><trkpt lat="42.725714025802546" lon="12.74162106529042"><ele>489.66666666666663</ele><time>2026-04-19T11:46:53.999Z</time></trkpt><trkpt lat="42.72563774082409" lon="12.741614475771971"><ele>492.3333333333333</ele><time>2026-04-19T11:46:54.999Z</time></trkpt><trkpt lat="42.72556071779915" lon="12.741618915237819"><ele>495.0</ele><time>2026-04-19T11:46:55.999Z</time></trkpt><trkpt lat="42.72548269731202" lon="12.741640133345088"><ele>495.0</ele><time>2026-04-19T11:46:56.999Z</time></trkpt><trkpt lat="42.725406892961836" lon="12.741673462544117"><ele>495.0</ele><time>2026-04-19T11:46:57.999Z</time></trkpt><trkpt lat="42.72533444272603" lon="12.741710232703683"><ele>495.0</ele><time>2026-04-19T11:46:58.999Z</time></trkpt><trkpt lat="42.72526132195207" lon="12.74175528906974"><ele>495.0</ele><time>2026-04-19T11:46:59.999Z</time></trkpt><trkpt lat="42.725191860250014" lon="12.741806990261873"><ele>495.0</ele><time>2026-04-19T11:47:00.999Z</time></trkpt><trkpt lat="42.72512992656251" lon="12.741868846918491"><ele>495.0</ele><time>2026-04-19T11:47:01.999Z</time></trkpt><trkpt lat="42.72507034061763" lon="12.741931818088013"><ele>499.5</ele><time>2026-04-19T11:47:02.999Z</time></trkpt><trkpt lat="42.725016608402875" lon="12.742004570518251"><ele>504.0</ele><time>2026-04-19T11:47:03.999Z</time></trkpt><trkpt lat="42.724961678666595" lon="12.742077580676185"><ele>508.5</ele><time>2026-04-19T11:47:04.999Z</time></trkpt><trkpt lat="42.724900749610306" lon="12.742145749003237"><ele>513.0</ele><time>2026-04-19T11:47:05.999Z</time></trkpt><trkpt lat="42.7248277692917" lon="12.742188166289287"><ele>517.5</ele><time>2026-04-19T11:47:06.999Z</time></trkpt><trkpt lat="42.72474817795905" lon="12.742200531096298"><ele>522.0</ele><time>2026-04-19T11:47:07.999Z</time></trkpt><trkpt lat="42.72467318761632" lon="12.742191839313865"><ele>522.0</ele><time>2026-04-19T11:47:08.999Z</time></trkpt><trkpt lat="42.72459812599717" lon="12.742174951778354"><ele>522.0</ele><time>2026-04-19T11:47:09.999Z</time></trkpt><trkpt lat="42.72452077408645" lon="12.742150524205787"><ele>522.0</ele><time>2026-04-19T11:47:10.999Z</time></trkpt><trkpt lat="42.724441921880825" lon="12.742126023608925"><ele>522.0</ele><time>2026-04-19T11:47:11.999Z</time></trkpt><trkpt lat="42.724364191142676" lon="12.742104996657641"><ele>522.0</ele><time>2026-04-19T11:47:12.999Z</time></trkpt><trkpt lat="42.72428652366276" lon="12.742082969304755"><ele>522.0</ele><time>2026-04-19T11:47:13.999Z</time></trkpt><trkpt lat="42.72421553552059" lon="12.74205931643551"><ele>523.0</ele><time>2026-04-19T11:47:14.999Z</time></trkpt><trkpt lat="42.724141742435606" lon="12.742049817832594"><ele>524.0</ele><time>2026-04-19T11:47:15.999Z</time></trkpt><trkpt lat="42.7240657175155" lon="12.74205372121534"><ele>525.0</ele><time>2026-04-19T11:47:16.999Z</time></trkpt><trkpt lat="42.723989755221226" lon="12.742062969542244"><ele>526.0</ele><time>2026-04-19T11:47:17.999Z</time></trkpt><trkpt lat="42.72391611092138" lon="12.742076724291493"><ele>527.0</ele><time>2026-04-19T11:47:18.999Z</time></trkpt><trkpt lat="42.723842614651694" lon="12.742094916232611"><ele>528.0</ele><time>2026-04-19T11:47:19.999Z</time></trkpt><trkpt lat="42.72376498072415" lon="12.742111723757649"><ele>528.0</ele><time>2026-04-19T11:47:20.999Z</time></trkpt><trkpt lat="42.723691067060095" lon="12.742121920093822"><ele>528.0</ele><time>2026-04-19T11:47:21.999Z</time></trkpt><trkpt lat="42.72361533797238" lon="12.742136008277031"><ele>528.0</ele><time>2026-04-19T11:47:22.999Z</time></trkpt><trkpt lat="42.72353795812835" lon="12.742124593296783"><ele>528.0</ele><time>2026-04-19T11:47:23.999Z</time></trkpt><trkpt lat="42.723463070947574" lon="12.742146529529286"><ele>528.0</ele><time>2026-04-19T11:47:24.999Z</time></trkpt><trkpt lat="42.72338884882907" lon="12.742128963860223"><ele>528.0</ele><time>2026-04-19T11:47:25.999Z</time></trkpt><trkpt lat="42.723316735775605" lon="12.7421030930255"><ele>528.7142857142857</ele><time>2026-04-19T11:47:26.999Z</time></trkpt><trkpt lat="42.723243424926046" lon="12.742077462108231"><ele>529.4285714285714</ele><time>2026-04-19T11:47:27.999Z</time></trkpt><trkpt lat="42.72317131938649" lon="12.74207253896596"><ele>530.1428571428571</ele><time>2026-04-19T11:47:28.999Z</time></trkpt><trkpt lat="42.72310185224293" lon="12.742100300171998"><ele>530.8571428571429</ele><time>2026-04-19T11:47:29.999Z</time></trkpt><trkpt lat="42.72303592873022" lon="12.742137361412203"><ele>531.5714285714286</ele><time>2026-04-19T11:47:30.999Z</time></trkpt><trkpt lat="42.72297299197856" lon="12.742178118628681"><ele>532.2857142857142</ele><time>2026-04-19T11:47:31.999Z</time></trkpt><trkpt lat="42.722904845505724" lon="12.742221061342581"><ele>533.0</ele><time>2026-04-19T11:47:32.999Z</time></trkpt><trkpt lat="42.72283594254844" lon="12.742258186775498"><ele>533.0</ele><time>2026-04-19T11:47:33.999Z</time></trkpt><trkpt lat="42.722759283773215" lon="12.742259625481577"><ele>533.0</ele><time>2026-04-19T11:47:34.999Z</time></trkpt><trkpt lat="42.72269181247846" lon="12.74227627759432"><ele>533.0</ele><time>2026-04-19T11:47:35.999Z</time></trkpt><trkpt lat="42.7226267318143" lon="12.742236436275894"><ele>533.0</ele><time>2026-04-19T11:47:37Z</time></trkpt><trkpt lat="42.72256076235874" lon="12.74223948571135"><ele>533.0</ele><time>2026-04-19T11:47:38Z</time></trkpt><trkpt lat="42.722440898573325" lon="12.742211371743235"><ele>533.0</ele><time>2026-04-19T11:47:40Z</time></trkpt><trkpt lat="42.72238543548889" lon="12.742326860637343"><ele>533.0</ele><time>2026-04-19T11:47:42Z</time></trkpt><trkpt lat="42.72244029735153" lon="12.74243777441887"><ele>533.0</ele><time>2026-04-19T11:47:44Z</time></trkpt><trkpt lat="42.72251532710535" lon="12.742449502214178"><ele>533.0</ele><time>2026-04-19T11:47:45Z</time></trkpt><trkpt lat="42.72258169277059" lon="12.742436316350895"><ele>533.0</ele><time>2026-04-19T11:47:46Z</time></trkpt><trkpt lat="42.72264741010189" lon="12.742430089771663"><ele>533.0</ele><time>2026-04-19T11:47:47Z</time></trkpt><trkpt lat="42.72271800434777" lon="12.742420574184319"><ele>533.0</ele><time>2026-04-19T11:47:48Z</time></trkpt><trkpt lat="42.72279072246317" lon="12.74241021748531"><ele>533.0</ele><time>2026-04-19T11:47:49Z</time></trkpt><trkpt lat="42.72285859507464" lon="12.742396754770363"><ele>533.0</ele><time>2026-04-19T11:47:50Z</time></trkpt><trkpt lat="42.72292959429782" lon="12.742377929503835"><ele>533.0</ele><time>2026-04-19T11:47:51Z</time></trkpt><trkpt lat="42.723002528203686" lon="12.742362324740146"><ele>533.0</ele><time>2026-04-19T11:47:52Z</time></trkpt><trkpt lat="42.72307231654967" lon="12.742358035823017"><ele>533.0</ele><time>2026-04-19T11:47:53Z</time></trkpt><trkpt lat="42.72314648708133" lon="12.742365381722152"><ele>533.0</ele><time>2026-04-19T11:47:54Z</time></trkpt><trkpt lat="42.72322093447144" lon="12.742395700004788"><ele>533.0</ele><time>2026-04-19T11:47:55Z</time></trkpt><trkpt lat="42.72329490079856" lon="12.742426942748008"><ele>533.0</ele><time>2026-04-19T11:47:56Z</time></trkpt><trkpt lat="42.723372374159574" lon="12.742450781828415"><ele>533.0</ele><time>2026-04-19T11:47:57Z</time></trkpt><trkpt lat="42.723443891448" lon="12.742496647612102"><ele>533.0</ele><time>2026-04-19T11:47:58Z</time></trkpt><trkpt lat="42.72352350472717" lon="12.742515106911013"><ele>533.0</ele><time>2026-04-19T11:47:59Z</time></trkpt><trkpt lat="42.72360170204704" lon="12.742526513252537"><ele>533.0</ele><time>2026-04-19T11:48:00Z</time></trkpt><trkpt lat="42.723681093611695" lon="12.742537432140011"><ele>533.0</ele><time>2026-04-19T11:48:01Z</time></trkpt><trkpt lat="42.72376303716949" lon="12.74254935697517"><ele>532.1666666666666</ele><time>2026-04-19T11:48:02Z</time></trkpt><trkpt lat="42.72384347081822" lon="12.742577425128223"><ele>531.3333333333333</ele><time>2026-04-19T11:48:03Z</time></trkpt><trkpt lat="42.72393149799519" lon="12.7425940453676"><ele>530.5</ele><time>2026-04-19T11:48:04Z</time></trkpt><trkpt lat="42.72401382631024" lon="12.742636322144818"><ele>529.6666666666666</ele><time>2026-04-19T11:48:05Z</time></trkpt><trkpt lat="42.72409579462779" lon="12.742685367347919"><ele>528.8333333333334</ele><time>2026-04-19T11:48:06Z</time></trkpt><trkpt lat="42.72417777340801" lon="12.742737934235572"><ele>528.0</ele><time>2026-04-19T11:48:07Z</time></trkpt><trkpt lat="42.724261147658616" lon="12.74279326244256"><ele>531.0</ele><time>2026-04-19T11:48:08Z</time></trkpt><trkpt lat="42.72434387191026" lon="12.742853066674227"><ele>534.0</ele><time>2026-04-19T11:48:09Z</time></trkpt><trkpt lat="42.72442553302321" lon="12.742910489845741"><ele>537.0</ele><time>2026-04-19T11:48:10Z</time></trkpt><trkpt lat="42.72450942851914" lon="12.742960238695003"><ele>540.0</ele><time>2026-04-19T11:48:11Z</time></trkpt><trkpt lat="42.724592303035344" lon="12.742998573092128"><ele>543.0</ele><time>2026-04-19T11:48:12Z</time></trkpt><trkpt lat="42.72467666240872" lon="12.7430291612433"><ele>543.0</ele><time>2026-04-19T11:48:13Z</time></trkpt><trkpt lat="42.72476189504471" lon="12.74304915680746"><ele>543.0</ele><time>2026-04-19T11:48:14Z</time></trkpt><trkpt lat="42.724837903581964" lon="12.743054765807521"><ele>543.0</ele><time>2026-04-19T11:48:15Z</time></trkpt><trkpt lat="42.72490380754106" lon="12.743091346372482"><ele>543.0</ele><time>2026-04-19T11:48:16Z</time></trkpt><trkpt lat="42.72500806885404" lon="12.743164193473694"><ele>543.0</ele><time>2026-04-19T11:48:18Z</time></trkpt><trkpt lat="42.72503373983825" lon="12.743323622598373"><ele>543.0</ele><time>2026-04-19T11:48:20Z</time></trkpt><trkpt lat="42.72503177876299" lon="12.74341189576962"><ele>543.0</ele><time>2026-04-19T11:48:21Z</time></trkpt><trkpt lat="42.72502964098943" lon="12.743503867652084"><ele>543.0</ele><time>2026-04-19T11:48:22Z</time></trkpt><trkpt lat="42.725003116369" lon="12.743598131334073"><ele>543.0</ele><time>2026-04-19T11:48:23Z</time></trkpt><trkpt lat="42.724962815043604" lon="12.743687453020902"><ele>543.0</ele><time>2026-04-19T11:48:24Z</time></trkpt><trkpt lat="42.72491366465169" lon="12.743767914520197"><ele>543.0</ele><time>2026-04-19T11:48:25Z</time></trkpt><trkpt lat="42.7248631726961" lon="12.743849106994315"><ele>543.0</ele><time>2026-04-19T11:48:26Z</time></trkpt><trkpt lat="42.72482079569303" lon="12.743928136904259"><ele>543.0</ele><time>2026-04-19T11:48:27Z</time></trkpt><trkpt lat="42.72479186016344" lon="12.744022137535831"><ele>543.0</ele><time>2026-04-19T11:48:28Z</time></trkpt><trkpt lat="42.724776946227884" lon="12.744127729531018"><ele>543.0</ele><time>2026-04-19T11:48:29Z</time></trkpt><trkpt lat="42.724763180354635" lon="12.744223898231851"><ele>543.0</ele><time>2026-04-19T11:48:30Z</time></trkpt><trkpt lat="42.72474797246334" lon="12.74432441754838"><ele>543.0</ele><time>2026-04-19T11:48:31Z</time></trkpt><trkpt lat="42.72472452471995" lon="12.744421416914015"><ele>543.0</ele><time>2026-04-19T11:48:32Z</time></trkpt><trkpt lat="42.72468629032733" lon="12.744505485670405"><ele>543.0</ele><time>2026-04-19T11:48:33Z</time></trkpt><trkpt lat="42.72463486213038" lon="12.744586596416724"><ele>542.5714285714286</ele><time>2026-04-19T11:48:34Z</time></trkpt><trkpt lat="42.7245731636236" lon="12.744646741691076"><ele>542.1428571428571</ele><time>2026-04-19T11:48:35Z</time></trkpt><trkpt lat="42.7245064419329" lon="12.744684304079094"><ele>541.7142857142857</ele><time>2026-04-19T11:48:36Z</time></trkpt><trkpt lat="42.72443552284518" lon="12.744709187381533"><ele>541.2857142857142</ele><time>2026-04-19T11:48:37Z</time></trkpt><trkpt lat="42.724360082372435" lon="12.744737077590537"><ele>540.8571428571428</ele><time>2026-04-19T11:48:37.999Z</time></trkpt><trkpt lat="42.724296490126484" lon="12.744784514688671"><ele>540.4285714285714</ele><time>2026-04-19T11:48:38.999Z</time></trkpt><trkpt lat="42.72423425676226" lon="12.744844594449214"><ele>540.0</ele><time>2026-04-19T11:48:39.999Z</time></trkpt><trkpt lat="42.72416945308667" lon="12.744909501168578"><ele>545.0</ele><time>2026-04-19T11:48:40.999Z</time></trkpt><trkpt lat="42.72410830667699" lon="12.744975481967039"><ele>550.0</ele><time>2026-04-19T11:48:41.999Z</time></trkpt><trkpt lat="42.72404747611988" lon="12.745042501568621"><ele>555.0</ele><time>2026-04-19T11:48:42.999Z</time></trkpt><trkpt lat="42.72398795389619" lon="12.74511234508334"><ele>560.0</ele><time>2026-04-19T11:48:43.999Z</time></trkpt><trkpt lat="42.72393501557083" lon="12.745191039793523"><ele>565.0</ele><time>2026-04-19T11:48:44.999Z</time></trkpt><trkpt lat="42.72389043000175" lon="12.745275074377297"><ele>570.0</ele><time>2026-04-19T11:48:45.999Z</time></trkpt><trkpt lat="42.723854761672435" lon="12.745367169857243"><ele>571.8333333333334</ele><time>2026-04-19T11:48:46.999Z</time></trkpt><trkpt lat="42.72383282357753" lon="12.7454640183018"><ele>573.6666666666666</ele><time>2026-04-19T11:48:47.999Z</time></trkpt><trkpt lat="42.723825775157565" lon="12.745564446607526"><ele>575.5</ele><time>2026-04-19T11:48:48.999Z</time></trkpt><trkpt lat="42.723831784338735" lon="12.745660502371807"><ele>577.3333333333333</ele><time>2026-04-19T11:48:49.999Z</time></trkpt><trkpt lat="42.72385337342056" lon="12.745751830047332"><ele>579.1666666666666</ele><time>2026-04-19T11:48:50.999Z</time></trkpt><trkpt lat="42.72391918146433" lon="12.74586917775933"><ele>581.0</ele><time>2026-04-19T11:48:52.999Z</time></trkpt><trkpt lat="42.723989987883066" lon="12.74592650368866"><ele>581.0</ele><time>2026-04-19T11:48:54.999Z</time></trkpt><trkpt lat="42.72402499536857" lon="12.746007976288373"><ele>581.0</ele><time>2026-04-19T11:48:56.999Z</time></trkpt><trkpt lat="42.72396905325216" lon="12.746089318580443"><ele>581.0</ele><time>2026-04-19T11:48:58.999Z</time></trkpt><trkpt lat="42.72389742375286" lon="12.746035658310813"><ele>581.0</ele><time>2026-04-19T11:49:00.999Z</time></trkpt><trkpt lat="42.72385303430512" lon="12.745921371515516"><ele>581.0</ele><time>2026-04-19T11:49:02.999Z</time></trkpt><trkpt lat="42.7238022519534" lon="12.74580190127037"><ele>581.0</ele><time>2026-04-19T11:49:04.999Z</time></trkpt><trkpt lat="42.7237728715746" lon="12.745654999322676"><ele>581.0</ele><time>2026-04-19T11:49:06.999Z</time></trkpt><trkpt lat="42.723759384592604" lon="12.745498721248218"><ele>581.0</ele><time>2026-04-19T11:49:08.999Z</time></trkpt><trkpt lat="42.723782277208784" lon="12.745348929734853"><ele>581.0</ele><time>2026-04-19T11:49:10.999Z</time></trkpt><trkpt lat="42.72380512392891" lon="12.745209925210233"><ele>581.0</ele><time>2026-04-19T11:49:12.999Z</time></trkpt><trkpt lat="42.723841182662625" lon="12.745061766664941"><ele>581.0</ele><time>2026-04-19T11:49:14.999Z</time></trkpt><trkpt lat="42.72392860285412" lon="12.744959772537237"><ele>579.1666666666666</ele><time>2026-04-19T11:49:16.999Z</time></trkpt><trkpt lat="42.72401321769804" lon="12.744859583788019"><ele>577.3333333333333</ele><time>2026-04-19T11:49:18.999Z</time></trkpt><trkpt lat="42.72410540240041" lon="12.74475281217659"><ele>575.5</ele><time>2026-04-19T11:49:20.999Z</time></trkpt><trkpt lat="42.72415504559978" lon="12.744691208011579"><ele>573.6666666666666</ele><time>2026-04-19T11:49:21.999Z</time></trkpt><trkpt lat="42.72420153086627" lon="12.744626102222853"><ele>571.8333333333334</ele><time>2026-04-19T11:49:22.999Z</time></trkpt><trkpt lat="42.72424751388114" lon="12.744558890048868"><ele>570.0</ele><time>2026-04-19T11:49:23.999Z</time></trkpt><trkpt lat="42.72428847762788" lon="12.744492167601125"><ele>570.0</ele><time>2026-04-19T11:49:24.999Z</time></trkpt><trkpt lat="42.72432581816153" lon="12.744417948765241"><ele>570.0</ele><time>2026-04-19T11:49:25.999Z</time></trkpt><trkpt lat="42.724344151951755" lon="12.74432651596149"><ele>570.0</ele><time>2026-04-19T11:49:26.999Z</time></trkpt><trkpt lat="42.72437737764346" lon="12.744244307846559"><ele>570.0</ele><time>2026-04-19T11:49:27.999Z</time></trkpt><trkpt lat="42.72438534421142" lon="12.744146601309989"><ele>570.0</ele><time>2026-04-19T11:49:28.999Z</time></trkpt><trkpt lat="42.72437282136265" lon="12.74405726291739"><ele>570.0</ele><time>2026-04-19T11:49:29.999Z</time></trkpt><trkpt lat="42.72431216257338" lon="12.743984847799547"><ele>570.0</ele><time>2026-04-19T11:49:30.999Z</time></trkpt><trkpt lat="42.72423365089023" lon="12.743967972036845"><ele>571.6666666666666</ele><time>2026-04-19T11:49:31.999Z</time></trkpt><trkpt lat="42.72417106457297" lon="12.743918648026309"><ele>573.3333333333334</ele><time>2026-04-19T11:49:32.999Z</time></trkpt><trkpt lat="42.72409141742615" lon="12.743895882178004"><ele>575.0</ele><time>2026-04-19T11:49:33.999Z</time></trkpt><trkpt lat="42.72400291252835" lon="12.74387935777224"><ele>576.6666666666667</ele><time>2026-04-19T11:49:34.999Z</time></trkpt><trkpt lat="42.723916297244294" lon="12.74387025498605"><ele>578.3333333333334</ele><time>2026-04-19T11:49:35.999Z</time></trkpt><trkpt lat="42.72384936260317" lon="12.743876688085606"><ele>580.0</ele><time>2026-04-19T11:49:36.999Z</time></trkpt><trkpt lat="42.7237690273781" lon="12.743866518557311"><ele>580.0</ele><time>2026-04-19T11:49:37.999Z</time></trkpt><trkpt lat="42.72369608817779" lon="12.743865776912763"><ele>580.0</ele><time>2026-04-19T11:49:38.999Z</time></trkpt><trkpt lat="42.72362427663169" lon="12.74386921973919"><ele>580.0</ele><time>2026-04-19T11:49:39.999Z</time></trkpt><trkpt lat="42.723550634804354" lon="12.743888768892838"><ele>580.0</ele><time>2026-04-19T11:49:40.999Z</time></trkpt><trkpt lat="42.72347291857356" lon="12.743885403675618"><ele>580.0</ele><time>2026-04-19T11:49:41.999Z</time></trkpt><trkpt lat="42.72339758069331" lon="12.743881122408297"><ele>580.0</ele><time>2026-04-19T11:49:43Z</time></trkpt><trkpt lat="42.723314021252364" lon="12.74387374275832"><ele>584.0</ele><time>2026-04-19T11:49:44Z</time></trkpt><trkpt lat="42.72322477466207" lon="12.743859714623431"><ele>588.0</ele><time>2026-04-19T11:49:45Z</time></trkpt><trkpt lat="42.723139542683064" lon="12.74379820227184"><ele>592.0</ele><time>2026-04-19T11:49:46Z</time></trkpt><trkpt lat="42.723046169027626" lon="12.7437777089584"><ele>596.0</ele><time>2026-04-19T11:49:47Z</time></trkpt><trkpt lat="42.7229601393106" lon="12.743729217914007"><ele>600.0</ele><time>2026-04-19T11:49:48Z</time></trkpt><trkpt lat="42.72287200627014" lon="12.743701730325492"><ele>600.0</ele><time>2026-04-19T11:49:49Z</time></trkpt><trkpt lat="42.72277764986471" lon="12.743700115083946"><ele>600.0</ele><time>2026-04-19T11:49:50Z</time></trkpt><trkpt lat="42.72268279933734" lon="12.743716639449543"><ele>600.0</ele><time>2026-04-19T11:49:51Z</time></trkpt><trkpt lat="42.72258912414034" lon="12.743729547366936"><ele>600.0</ele><time>2026-04-19T11:49:52Z</time></trkpt><trkpt lat="42.72249834465765" lon="12.743739031428735"><ele>600.0</ele><time>2026-04-19T11:49:53Z</time></trkpt><trkpt lat="42.72240593229296" lon="12.743743959096797"><ele>602.6</ele><time>2026-04-19T11:49:54Z</time></trkpt><trkpt lat="42.7223120866999" lon="12.7437480396243"><ele>605.2</ele><time>2026-04-19T11:49:55Z</time></trkpt><trkpt lat="42.722215328952096" lon="12.743753852990242"><ele>607.8</ele><time>2026-04-19T11:49:56Z</time></trkpt><trkpt lat="42.722120031770395" lon="12.743730580581145"><ele>610.4</ele><time>2026-04-19T11:49:57Z</time></trkpt><trkpt lat="42.72202660236719" lon="12.743715386115236"><ele>613.0</ele><time>2026-04-19T11:49:58Z</time></trkpt><trkpt lat="42.72192387160736" lon="12.743704304069393"><ele>615.1999999999999</ele><time>2026-04-19T11:49:59Z</time></trkpt><trkpt lat="42.72183238470031" lon="12.743666106516851"><ele>617.4</ele><time>2026-04-19T11:50:00Z</time></trkpt><trkpt lat="42.72174286129359" lon="12.743609334377139"><ele>619.5999999999999</ele><time>2026-04-19T11:50:01Z</time></trkpt><trkpt lat="42.72164694845969" lon="12.743569672523423"><ele>621.8</ele><time>2026-04-19T11:50:02Z</time></trkpt><trkpt lat="42.721549296032826" lon="12.743531836587321"><ele>624.0</ele><time>2026-04-19T11:50:03Z</time></trkpt><trkpt lat="42.721462081443605" lon="12.743498539662339"><ele>621.8</ele><time>2026-04-19T11:50:04Z</time></trkpt><trkpt lat="42.721363972272584" lon="12.743461083387364"><ele>619.5999999999999</ele><time>2026-04-19T11:50:05Z</time></trkpt><trkpt lat="42.721271104513484" lon="12.743425909322548"><ele>617.4</ele><time>2026-04-19T11:50:06Z</time></trkpt><trkpt lat="42.72117818797158" lon="12.743390936123175"><ele>615.1999999999999</ele><time>2026-04-19T11:50:07Z</time></trkpt><trkpt lat="42.7210871303968" lon="12.743356662629646"><ele>613.0</ele><time>2026-04-19T11:50:08Z</time></trkpt><trkpt lat="42.72099574915908" lon="12.743321989934632"><ele>613.0</ele><time>2026-04-19T11:50:09Z</time></trkpt><trkpt lat="42.72090383592786" lon="12.743287016280542"><ele>613.0</ele><time>2026-04-19T11:50:10Z</time></trkpt><trkpt lat="42.7208142245401" lon="12.7432529184985"><ele>613.0</ele><time>2026-04-19T11:50:11Z</time></trkpt><trkpt lat="42.720729879914245" lon="12.743234442821016"><ele>613.0</ele><time>2026-04-19T11:50:12Z</time></trkpt><trkpt lat="42.72064798878194" lon="12.743201537934713"><ele>613.0</ele><time>2026-04-19T11:50:13Z</time></trkpt><trkpt lat="42.720584980735595" lon="12.743139216074143"><ele>613.0</ele><time>2026-04-19T11:50:14Z</time></trkpt><trkpt lat="42.720501754787776" lon="12.743018937023098"><ele>613.0</ele><time>2026-04-19T11:50:16Z</time></trkpt><trkpt lat="42.72042519423324" lon="12.742911164454549"><ele>613.0</ele><time>2026-04-19T11:50:18Z</time></trkpt><trkpt lat="42.720327931039755" lon="12.74285908106091"><ele>613.0</ele><time>2026-04-19T11:50:20Z</time></trkpt><trkpt lat="42.72026800472038" lon="12.742918420831858"><ele>613.0</ele><time>2026-04-19T11:50:21Z</time></trkpt><trkpt lat="42.720261487157686" lon="12.74300811700852"><ele>613.0</ele><time>2026-04-19T11:50:22Z</time></trkpt><trkpt lat="42.72030448377208" lon="12.743140605242111"><ele>613.0</ele><time>2026-04-19T11:50:24Z</time></trkpt><trkpt lat="42.72036933818213" lon="12.7432040314823"><ele>613.0</ele><time>2026-04-19T11:50:25Z</time></trkpt><trkpt lat="42.720446120685075" lon="12.743253818676811"><ele>613.0</ele><time>2026-04-19T11:50:26Z</time></trkpt><trkpt lat="42.720521711162206" lon="12.74330048763201"><ele>613.0</ele><time>2026-04-19T11:50:27Z</time></trkpt><trkpt lat="42.72059212004155" lon="12.743355110139321"><ele>613.0</ele><time>2026-04-19T11:50:28Z</time></trkpt><trkpt lat="42.720658811772545" lon="12.74341587712699"><ele>613.0</ele><time>2026-04-19T11:50:29Z</time></trkpt><trkpt lat="42.720723413088095" lon="12.743487537928296"><ele>613.0</ele><time>2026-04-19T11:50:30Z</time></trkpt><trkpt lat="42.72080343656942" lon="12.74352860800546"><ele>613.0</ele><time>2026-04-19T11:50:31Z</time></trkpt><trkpt lat="42.720874856062906" lon="12.743584860387418"><ele>613.0</ele><time>2026-04-19T11:50:32Z</time></trkpt><trkpt lat="42.72095212915839" lon="12.743642065872532"><ele>613.0</ele><time>2026-04-19T11:50:33Z</time></trkpt><trkpt lat="42.72102935684055" lon="12.743707336956218"><ele>613.0</ele><time>2026-04-19T11:50:34Z</time></trkpt><trkpt lat="42.7211085599544" lon="12.743756180049962"><ele>613.0</ele><time>2026-04-19T11:50:35Z</time></trkpt><trkpt lat="42.72118986002986" lon="12.743807866636"><ele>614.8333333333334</ele><time>2026-04-19T11:50:36Z</time></trkpt><trkpt lat="42.72124486873454" lon="12.743858898683104"><ele>616.6666666666667</ele><time>2026-04-19T11:50:37Z</time></trkpt><trkpt lat="42.721341174941905" lon="12.743919805392716"><ele>618.5</ele><time>2026-04-19T11:50:38Z</time></trkpt><trkpt lat="42.72141835262209" lon="12.743968614689026"><ele>620.3333333333334</ele><time>2026-04-19T11:50:39Z</time></trkpt><trkpt lat="42.721497393975746" lon="12.74400556772319"><ele>622.1666666666666</ele><time>2026-04-19T11:50:40Z</time></trkpt><trkpt lat="42.72158157081751" lon="12.744053086145149"><ele>624.0</ele><time>2026-04-19T11:50:41Z</time></trkpt><trkpt lat="42.721657611346004" lon="12.74410053904363"><ele>624.0</ele><time>2026-04-19T11:50:42Z</time></trkpt><trkpt lat="42.72173452204684" lon="12.74415571286134"><ele>624.0</ele><time>2026-04-19T11:50:42.999Z</time></trkpt><trkpt lat="42.72180976960108" lon="12.74421376705311"><ele>624.0</ele><time>2026-04-19T11:50:43.999Z</time></trkpt><trkpt lat="42.72188778258926" lon="12.7442609605012"><ele>624.0</ele><time>2026-04-19T11:50:44.999Z</time></trkpt><trkpt lat="42.721966648240006" lon="12.74430779860082"><ele>624.0</ele><time>2026-04-19T11:50:45.999Z</time></trkpt><trkpt lat="42.72204900124036" lon="12.744349221129346"><ele>624.0</ele><time>2026-04-19T11:50:46.999Z</time></trkpt><trkpt lat="42.72213630039467" lon="12.74438474830683"><ele>628.4</ele><time>2026-04-19T11:50:47.999Z</time></trkpt><trkpt lat="42.72222891704516" lon="12.744392913931051"><ele>632.8</ele><time>2026-04-19T11:50:48.999Z</time></trkpt><trkpt lat="42.7223185005803" lon="12.744420015290277"><ele>637.1999999999999</ele><time>2026-04-19T11:50:49.999Z</time></trkpt><trkpt lat="42.72241001288581" lon="12.74444916456032"><ele>641.5999999999999</ele><time>2026-04-19T11:50:50.999Z</time></trkpt><trkpt lat="42.72250034163619" lon="12.74447897284143"><ele>646.0</ele><time>2026-04-19T11:50:51.999Z</time></trkpt><trkpt lat="42.72258791850713" lon="12.744515291222667"><ele>646.0</ele><time>2026-04-19T11:50:52.999Z</time></trkpt><trkpt lat="42.72267148127153" lon="12.744555960941064"><ele>646.0</ele><time>2026-04-19T11:50:53.999Z</time></trkpt><trkpt lat="42.72275641983417" lon="12.744597607144462"><ele>646.0</ele><time>2026-04-19T11:50:54.999Z</time></trkpt><trkpt lat="42.72283556893435" lon="12.744637982514023"><ele>646.0</ele><time>2026-04-19T11:50:55.999Z</time></trkpt><trkpt lat="42.72290558084964" lon="12.744675535837994"><ele>646.0</ele><time>2026-04-19T11:50:56.999Z</time></trkpt><trkpt lat="42.722965259566095" lon="12.744726377344861"><ele>646.0</ele><time>2026-04-19T11:50:57.999Z</time></trkpt><trkpt lat="42.72302092334105" lon="12.744792853423322"><ele>640.3333333333334</ele><time>2026-04-19T11:50:58.999Z</time></trkpt><trkpt lat="42.72305197417616" lon="12.744872170046962"><ele>634.6666666666667</ele><time>2026-04-19T11:50:59.999Z</time></trkpt><trkpt lat="42.723043592764235" lon="12.745019290525184"><ele>629.0</ele><time>2026-04-19T11:51:01.999Z</time></trkpt><trkpt lat="42.72301930795755" lon="12.745112203354024"><ele>623.3333333333334</ele><time>2026-04-19T11:51:02.999Z</time></trkpt><trkpt lat="42.722990737082114" lon="12.745211369474966"><ele>617.6666666666666</ele><time>2026-04-19T11:51:03.999Z</time></trkpt><trkpt lat="42.72296238479381" lon="12.745311399008866"><ele>612.0</ele><time>2026-04-19T11:51:04.999Z</time></trkpt><trkpt lat="42.72293780819892" lon="12.745407975255473"><ele>611.4</ele><time>2026-04-19T11:51:05.999Z</time></trkpt><trkpt lat="42.72290349305517" lon="12.745514211109136"><ele>610.8000000000001</ele><time>2026-04-19T11:51:06.999Z</time></trkpt><trkpt lat="42.7228540923238" lon="12.745616140191578"><ele>610.2</ele><time>2026-04-19T11:51:07.999Z</time></trkpt><trkpt lat="42.722787511787786" lon="12.745724077540432"><ele>609.6</ele><time>2026-04-19T11:51:08.999Z</time></trkpt><trkpt lat="42.72271708347988" lon="12.745844334473505"><ele>609.0</ele><time>2026-04-19T11:51:09.999Z</time></trkpt><trkpt lat="42.72263518073883" lon="12.74597698440607"><ele>616.0</ele><time>2026-04-19T11:51:10.999Z</time></trkpt><trkpt lat="42.722530433909036" lon="12.746105504771515"><ele>623.0</ele><time>2026-04-19T11:51:11.999Z</time></trkpt><trkpt lat="42.72242971751442" lon="12.74624381336937"><ele>630.0</ele><time>2026-04-19T11:51:12.999Z</time></trkpt><trkpt lat="42.722334927547884" lon="12.746380040605626"><ele>637.0</ele><time>2026-04-19T11:51:13.999Z</time></trkpt><trkpt lat="42.7222475399036" lon="12.746520613990574"><ele>637.0</ele><time>2026-04-19T11:51:14.999Z</time></trkpt><trkpt lat="42.7221732946687" lon="12.746665140775256"><ele>637.0</ele><time>2026-04-19T11:51:15.999Z</time></trkpt><trkpt lat="42.7220830387096" lon="12.746793280487793"><ele>637.0</ele><time>2026-04-19T11:51:16.999Z</time></trkpt><trkpt lat="42.72199516982333" lon="12.746925691899659"><ele>637.0</ele><time>2026-04-19T11:51:17.999Z</time></trkpt><trkpt lat="42.72190677382853" lon="12.747052344291363"><ele>642.5</ele><time>2026-04-19T11:51:18.999Z</time></trkpt><trkpt lat="42.72181279396977" lon="12.747166068730563"><ele>648.0</ele><time>2026-04-19T11:51:19.999Z</time></trkpt><trkpt lat="42.721720427166616" lon="12.747277235244555"><ele>653.5</ele><time>2026-04-19T11:51:20.999Z</time></trkpt><trkpt lat="42.721636433692346" lon="12.747386624369609"><ele>659.0</ele><time>2026-04-19T11:51:21.999Z</time></trkpt><trkpt lat="42.721566232014816" lon="12.747492730051338"><ele>659.0</ele><time>2026-04-19T11:51:22.999Z</time></trkpt><trkpt lat="42.721506017170356" lon="12.747588235240547"><ele>659.0</ele><time>2026-04-19T11:51:23.999Z</time></trkpt><trkpt lat="42.7214502449004" lon="12.747673926754471"><ele>659.0</ele><time>2026-04-19T11:51:24.999Z</time></trkpt><trkpt lat="42.72141507845414" lon="12.747763850311877"><ele>659.0</ele><time>2026-04-19T11:51:25.999Z</time></trkpt><trkpt lat="42.721407817870016" lon="12.747868837704452"><ele>659.0</ele><time>2026-04-19T11:51:26.999Z</time></trkpt><trkpt lat="42.721426518131985" lon="12.747973772981947"><ele>659.0</ele><time>2026-04-19T11:51:27.999Z</time></trkpt><trkpt lat="42.721467220924666" lon="12.748069794192375"><ele>660.8333333333333</ele><time>2026-04-19T11:51:28.999Z</time></trkpt><trkpt lat="42.72152642891303" lon="12.748152058969575"><ele>662.6666666666666</ele><time>2026-04-19T11:51:29.999Z</time></trkpt><trkpt lat="42.72160536221482" lon="12.74820051503826"><ele>664.5</ele><time>2026-04-19T11:51:30.999Z</time></trkpt><trkpt lat="42.72167731759953" lon="12.748194870535837"><ele>666.3333333333334</ele><time>2026-04-19T11:51:31.999Z</time></trkpt><trkpt lat="42.721756130991636" lon="12.748153158800143"><ele>668.1666666666667</ele><time>2026-04-19T11:51:32.999Z</time></trkpt><trkpt lat="42.721833398126684" lon="12.748088180907303"><ele>670.0</ele><time>2026-04-19T11:51:33.999Z</time></trkpt><trkpt lat="42.7219154486023" lon="12.748034602315549"><ele>672.2</ele><time>2026-04-19T11:51:34.999Z</time></trkpt><trkpt lat="42.7219998247885" lon="12.747996112808075"><ele>674.4</ele><time>2026-04-19T11:51:35.999Z</time></trkpt><trkpt lat="42.72208566622672" lon="12.74796729165852"><ele>676.5999999999999</ele><time>2026-04-19T11:51:36.999Z</time></trkpt><trkpt lat="42.72217716881214" lon="12.747950635696151"><ele>678.8</ele><time>2026-04-19T11:51:37.999Z</time></trkpt><trkpt lat="42.722271892132916" lon="12.747980718906234"><ele>681.0</ele><time>2026-04-19T11:51:38.999Z</time></trkpt><trkpt lat="42.72236752564168" lon="12.747965325973343"><ele>681.0</ele><time>2026-04-19T11:51:39.999Z</time></trkpt><trkpt lat="42.72246751928549" lon="12.747968397228034"><ele>681.0</ele><time>2026-04-19T11:51:40.999Z</time></trkpt><trkpt lat="42.722567102344364" lon="12.747954979989876"><ele>681.0</ele><time>2026-04-19T11:51:41.999Z</time></trkpt><trkpt lat="42.72266617884206" lon="12.747928669756568"><ele>681.0</ele><time>2026-04-19T11:51:42.999Z</time></trkpt><trkpt lat="42.72276097777159" lon="12.747912257661445"><ele>681.0</ele><time>2026-04-19T11:51:43.999Z</time></trkpt><trkpt lat="42.72283252215767" lon="12.747826632769753"><ele>684.0</ele><time>2026-04-19T11:51:44.999Z</time></trkpt><trkpt lat="42.722916639682296" lon="12.747813966320512"><ele>687.0</ele><time>2026-04-19T11:51:45.999Z</time></trkpt><trkpt lat="42.72299391717575" lon="12.747775749416475"><ele>690.0</ele><time>2026-04-19T11:51:46.999Z</time></trkpt><trkpt lat="42.7230762680348" lon="12.74777999227088"><ele>693.0</ele><time>2026-04-19T11:51:47.999Z</time></trkpt><trkpt lat="42.7231607624263" lon="12.747781760933155"><ele>696.0</ele><time>2026-04-19T11:51:49Z</time></trkpt><trkpt lat="42.723237873043956" lon="12.747786355146562"><ele>699.0</ele><time>2026-04-19T11:51:50Z</time></trkpt><trkpt lat="42.723318357883045" lon="12.747779686156282"><ele>699.0</ele><time>2026-04-19T11:51:51Z</time></trkpt><trkpt lat="42.72340061788837" lon="12.74778233596267"><ele>699.0</ele><time>2026-04-19T11:51:52Z</time></trkpt><trkpt lat="42.72348477139491" lon="12.747786660796482"><ele>699.0</ele><time>2026-04-19T11:51:53Z</time></trkpt><trkpt lat="42.72357254083119" lon="12.747792410375904"><ele>699.0</ele><time>2026-04-19T11:51:54Z</time></trkpt><trkpt lat="42.723659353479334" lon="12.74780467407132"><ele>699.0</ele><time>2026-04-19T11:51:55Z</time></trkpt><trkpt lat="42.723742879324284" lon="12.747827755446474"><ele>699.0</ele><time>2026-04-19T11:51:56Z</time></trkpt><trkpt lat="42.72382660031489" lon="12.747858373316564"><ele>699.6666666666666</ele><time>2026-04-19T11:51:57Z</time></trkpt><trkpt lat="42.72391276501772" lon="12.747876402683882"><ele>700.3333333333334</ele><time>2026-04-19T11:51:58Z</time></trkpt><trkpt lat="42.723995109082175" lon="12.74788982606124"><ele>701.0</ele><time>2026-04-19T11:51:59Z</time></trkpt><trkpt lat="42.724082786544955" lon="12.747892845339713"><ele>701.6666666666667</ele><time>2026-04-19T11:52:00Z</time></trkpt><trkpt lat="42.724168536125816" lon="12.747885979669913"><ele>702.3333333333334</ele><time>2026-04-19T11:52:01Z</time></trkpt><trkpt lat="42.724254307297024" lon="12.747872441127964"><ele>703.0</ele><time>2026-04-19T11:52:02Z</time></trkpt><trkpt lat="42.72434120969727" lon="12.74785630335705"><ele>703.0</ele><time>2026-04-19T11:52:03Z</time></trkpt><trkpt lat="42.72442642034823" lon="12.747853104294132"><ele>703.0</ele><time>2026-04-19T11:52:04Z</time></trkpt><trkpt lat="42.72451109017869" lon="12.747858800868658"><ele>703.0</ele><time>2026-04-19T11:52:05Z</time></trkpt><trkpt lat="42.724595650823474" lon="12.747880685558554"><ele>703.0</ele><time>2026-04-19T11:52:06Z</time></trkpt><trkpt lat="42.724678860697686" lon="12.747910980659517"><ele>703.0</ele><time>2026-04-19T11:52:07Z</time></trkpt><trkpt lat="42.72476235537397" lon="12.747935457121935"><ele>703.0</ele><time>2026-04-19T11:52:08Z</time></trkpt><trkpt lat="42.72484342684425" lon="12.747955382459713"><ele>703.0</ele><time>2026-04-19T11:52:09Z</time></trkpt><trkpt lat="42.72492733805925" lon="12.74797025188101"><ele>703.0</ele><time>2026-04-19T11:52:10Z</time></trkpt><trkpt lat="42.72500206177703" lon="12.74799227133499"><ele>703.0</ele><time>2026-04-19T11:52:11Z</time></trkpt><trkpt lat="42.72508117799349" lon="12.748008996699074"><ele>703.0</ele><time>2026-04-19T11:52:12Z</time></trkpt><trkpt lat="42.725152920319374" lon="12.748020826892665"><ele>703.0</ele><time>2026-04-19T11:52:13Z</time></trkpt><trkpt lat="42.725219236811455" lon="12.74804308630487"><ele>703.0</ele><time>2026-04-19T11:52:14Z</time></trkpt><trkpt lat="42.72528869195601" lon="12.748049109882565"><ele>702.2857142857142</ele><time>2026-04-19T11:52:15Z</time></trkpt><trkpt lat="42.725356794368146" lon="12.748055618442912"><ele>701.5714285714286</ele><time>2026-04-19T11:52:16Z</time></trkpt><trkpt lat="42.72542505057767" lon="12.748063310873814"><ele>700.8571428571429</ele><time>2026-04-19T11:52:17Z</time></trkpt><trkpt lat="42.72549151938827" lon="12.748075798961386"><ele>700.1428571428571</ele><time>2026-04-19T11:52:18Z</time></trkpt><trkpt lat="42.72555510210078" lon="12.748094861042425"><ele>699.4285714285714</ele><time>2026-04-19T11:52:19Z</time></trkpt><trkpt lat="42.72562212344043" lon="12.748118417831341"><ele>698.7142857142857</ele><time>2026-04-19T11:52:20Z</time></trkpt><trkpt lat="42.72568529086795" lon="12.748136314188889"><ele>698.0</ele><time>2026-04-19T11:52:21Z</time></trkpt><trkpt lat="42.72575066519562" lon="12.748152945414347"><ele>697.9999999999999</ele><time>2026-04-19T11:52:22Z</time></trkpt><trkpt lat="42.72581516271147" lon="12.748167476873318"><ele>698.0</ele><time>2026-04-19T11:52:23Z</time></trkpt><trkpt lat="42.72588112242909" lon="12.748197784522253"><ele>698.0</ele><time>2026-04-19T11:52:24Z</time></trkpt><trkpt lat="42.72595101417945" lon="12.748192156492573"><ele>698.0</ele><time>2026-04-19T11:52:25Z</time></trkpt><trkpt lat="42.72602367525006" lon="12.748164259164495"><ele>698.0</ele><time>2026-04-19T11:52:26Z</time></trkpt><trkpt lat="42.72608568221654" lon="12.748128543036099"><ele>697.9999999999999</ele><time>2026-04-19T11:52:27Z</time></trkpt><trkpt lat="42.726145834059295" lon="12.748097245007683"><ele>698.0</ele><time>2026-04-19T11:52:28Z</time></trkpt><trkpt lat="42.72626759936637" lon="12.748116631650403"><ele>698.1666666666666</ele><time>2026-04-19T11:52:30Z</time></trkpt><trkpt lat="42.72632407673009" lon="12.748162439353106"><ele>698.3333333333333</ele><time>2026-04-19T11:52:31Z</time></trkpt><trkpt lat="42.726379807657175" lon="12.748213379296384"><ele>698.5</ele><time>2026-04-19T11:52:32Z</time></trkpt><trkpt lat="42.72648910957114" lon="12.748295155937475"><ele>698.6666666666666</ele><time>2026-04-19T11:52:34Z</time></trkpt><trkpt lat="42.726552165527245" lon="12.748337092546706"><ele>698.8333333333334</ele><time>2026-04-19T11:52:35Z</time></trkpt><trkpt lat="42.72662263768331" lon="12.748373974959271"><ele>699.0</ele><time>2026-04-19T11:52:36Z</time></trkpt><trkpt lat="42.72669697688938" lon="12.748402856834515"><ele>699.0</ele><time>2026-04-19T11:52:37Z</time></trkpt><trkpt lat="42.72677709025145" lon="12.74842842604189"><ele>699.0</ele><time>2026-04-19T11:52:38Z</time></trkpt><trkpt lat="42.7268498062494" lon="12.748455229607355"><ele>699.0</ele><time>2026-04-19T11:52:39Z</time></trkpt><trkpt lat="42.72692718311348" lon="12.748482667144874"><ele>699.0</ele><time>2026-04-19T11:52:40Z</time></trkpt><trkpt lat="42.727004156589615" lon="12.748510050957202"><ele>699.0</ele><time>2026-04-19T11:52:41Z</time></trkpt><trkpt lat="42.727080064550485" lon="12.748536865102334"><ele>699.0</ele><time>2026-04-19T11:52:42Z</time></trkpt><trkpt lat="42.72715722823033" lon="12.748562234771809"><ele>699.1666666666666</ele><time>2026-04-19T11:52:43Z</time></trkpt><trkpt lat="42.72723440070998" lon="12.748581525390893"><ele>699.3333333333334</ele><time>2026-04-19T11:52:43.999Z</time></trkpt><trkpt lat="42.727309884414225" lon="12.748582316943947"><ele>699.5</ele><time>2026-04-19T11:52:44.999Z</time></trkpt><trkpt lat="42.727382443880714" lon="12.748592485476198"><ele>699.6666666666667</ele><time>2026-04-19T11:52:45.999Z</time></trkpt><trkpt lat="42.72746390186405" lon="12.74857836943997"><ele>699.8333333333334</ele><time>2026-04-19T11:52:46.999Z</time></trkpt><trkpt lat="42.727535796605295" lon="12.748518668450075"><ele>700.0</ele><time>2026-04-19T11:52:47.999Z</time></trkpt><trkpt lat="42.72757070435962" lon="12.748400966857652"><ele>700.0</ele><time>2026-04-19T11:52:48.999Z</time></trkpt><trkpt lat="42.72761462561654" lon="12.748261599572006"><ele>700.0</ele><time>2026-04-19T11:52:50.999Z</time></trkpt><trkpt lat="42.72767589985319" lon="12.748190669841653"><ele>700.0</ele><time>2026-04-19T11:52:52.999Z</time></trkpt><trkpt lat="42.72778647824815" lon="12.748188959852598"><ele>700.0</ele><time>2026-04-19T11:52:54.999Z</time></trkpt><trkpt lat="42.72789622934395" lon="12.748167114916432"><ele>700.0</ele><time>2026-04-19T11:52:56.999Z</time></trkpt><trkpt lat="42.72800076592491" lon="12.748140393932834"><ele>701.8333333333334</ele><time>2026-04-19T11:52:58.999Z</time></trkpt><trkpt lat="42.72810663186168" lon="12.748117840889057"><ele>703.6666666666667</ele><time>2026-04-19T11:53:00.999Z</time></trkpt><trkpt lat="42.72817340781799" lon="12.7480500347528"><ele>705.5</ele><time>2026-04-19T11:53:02.999Z</time></trkpt><trkpt lat="42.728223731809834" lon="12.747989280991726"><ele>707.3333333333334</ele><time>2026-04-19T11:53:04.999Z</time></trkpt><trkpt lat="42.72828801578905" lon="12.747943018958788"><ele>709.1666666666666</ele><time>2026-04-19T11:53:06.999Z</time></trkpt><trkpt lat="42.7283684713666" lon="12.74801061902026"><ele>711.0</ele><time>2026-04-19T11:53:08.999Z</time></trkpt><trkpt lat="42.728431915066835" lon="12.748099912509472"><ele>711.0</ele><time>2026-04-19T11:53:10.999Z</time></trkpt><trkpt lat="42.72850463719557" lon="12.748196577915742"><ele>711.0</ele><time>2026-04-19T11:53:12.999Z</time></trkpt><trkpt lat="42.72859139106677" lon="12.748280877326803"><ele>711.0</ele><time>2026-04-19T11:53:14.999Z</time></trkpt><trkpt lat="42.728677940007586" lon="12.748373519922977"><ele>711.0</ele><time>2026-04-19T11:53:16.999Z</time></trkpt><trkpt lat="42.72874732003517" lon="12.74845128827503"><ele>711.0</ele><time>2026-04-19T11:53:18.999Z</time></trkpt><trkpt lat="42.728752698008286" lon="12.748563542612594"><ele>711.0</ele><time>2026-04-19T11:53:20.999Z</time></trkpt><trkpt lat="42.72869648182889" lon="12.748649063952683"><ele>711.0</ele><time>2026-04-19T11:53:22.999Z</time></trkpt><trkpt lat="42.7285964122527" lon="12.748691885288471"><ele>711.0</ele><time>2026-04-19T11:53:24.999Z</time></trkpt><trkpt lat="42.728496461376025" lon="12.748729079404695"><ele>711.0</ele><time>2026-04-19T11:53:26.999Z</time></trkpt><trkpt lat="42.72839665531587" lon="12.748790322036259"><ele>711.0</ele><time>2026-04-19T11:53:28.999Z</time></trkpt><trkpt lat="42.728329292424206" lon="12.74882707211551"><ele>713.0</ele><time>2026-04-19T11:53:29.999Z</time></trkpt><trkpt lat="42.72826806450515" lon="12.748858471052813"><ele>715.0</ele><time>2026-04-19T11:53:30.999Z</time></trkpt><trkpt lat="42.72820740260183" lon="12.748885283756442"><ele>717.0</ele><time>2026-04-19T11:53:31.999Z</time></trkpt><trkpt lat="42.72813042031632" lon="12.748995456362959"><ele>719.0</ele><time>2026-04-19T11:53:33.999Z</time></trkpt><trkpt lat="42.72810073075218" lon="12.749156453819381"><ele>721.0</ele><time>2026-04-19T11:53:35.999Z</time></trkpt><trkpt lat="42.728108140372676" lon="12.749243346258176"><ele>723.0</ele><time>2026-04-19T11:53:36.999Z</time></trkpt><trkpt lat="42.72813474985399" lon="12.749322185842392"><ele>724.5714285714287</ele><time>2026-04-19T11:53:37.999Z</time></trkpt><trkpt lat="42.728176426972645" lon="12.749395501021633"><ele>726.1428571428571</ele><time>2026-04-19T11:53:38.999Z</time></trkpt><trkpt lat="42.72822589658708" lon="12.74946327144142"><ele>727.7142857142858</ele><time>2026-04-19T11:53:39.999Z</time></trkpt><trkpt lat="42.728277062992376" lon="12.749535345762784"><ele>729.2857142857143</ele><time>2026-04-19T11:53:40.999Z</time></trkpt><trkpt lat="42.728327124721005" lon="12.74960382790655"><ele>730.8571428571429</ele><time>2026-04-19T11:53:41.999Z</time></trkpt><trkpt lat="42.72837478106303" lon="12.749671630962942"><ele>732.4285714285714</ele><time>2026-04-19T11:53:42.999Z</time></trkpt><trkpt lat="42.728427856513655" lon="12.749739351697295"><ele>734.0</ele><time>2026-04-19T11:53:43.999Z</time></trkpt><trkpt lat="42.728490506583846" lon="12.749796999532704"><ele>734.0</ele><time>2026-04-19T11:53:44.999Z</time></trkpt><trkpt lat="42.72855034224361" lon="12.749853999300342"><ele>734.0</ele><time>2026-04-19T11:53:45.999Z</time></trkpt><trkpt lat="42.728605622403755" lon="12.749914005388009"><ele>734.0</ele><time>2026-04-19T11:53:46.999Z</time></trkpt><trkpt lat="42.728651013345484" lon="12.749988645299366"><ele>734.0</ele><time>2026-04-19T11:53:47.999Z</time></trkpt><trkpt lat="42.72870198539414" lon="12.750052101251008"><ele>734.0</ele><time>2026-04-19T11:53:48.999Z</time></trkpt><trkpt lat="42.72876088816027" lon="12.75009592947071"><ele>734.0</ele><time>2026-04-19T11:53:49.999Z</time></trkpt><trkpt lat="42.72882246980102" lon="12.750147766526943"><ele>734.0</ele><time>2026-04-19T11:53:50.999Z</time></trkpt><trkpt lat="42.72889260423494" lon="12.750179823497435"><ele>734.4285714285714</ele><time>2026-04-19T11:53:51.999Z</time></trkpt><trkpt lat="42.728965888453956" lon="12.750193507505587"><ele>734.8571428571429</ele><time>2026-04-19T11:53:52.999Z</time></trkpt><trkpt lat="42.72903551480063" lon="12.750240032231085"><ele>735.2857142857143</ele><time>2026-04-19T11:53:53.999Z</time></trkpt><trkpt lat="42.72909989207573" lon="12.75029788726487"><ele>735.7142857142858</ele><time>2026-04-19T11:53:55Z</time></trkpt><trkpt lat="42.72915607763897" lon="12.750358858542393"><ele>736.1428571428571</ele><time>2026-04-19T11:53:56Z</time></trkpt><trkpt lat="42.729210652932224" lon="12.750426554523287"><ele>736.5714285714287</ele><time>2026-04-19T11:53:57Z</time></trkpt><trkpt lat="42.72926237894409" lon="12.750492943818305"><ele>737.0</ele><time>2026-04-19T11:53:58Z</time></trkpt><trkpt lat="42.729309907834654" lon="12.750562833782217"><ele>737.0000000000001</ele><time>2026-04-19T11:53:59Z</time></trkpt><trkpt lat="42.729340622375325" lon="12.750653684059781"><ele>737.0</ele><time>2026-04-19T11:54:00Z</time></trkpt><trkpt lat="42.72936055415212" lon="12.750744900736672"><ele>737.0</ele><time>2026-04-19T11:54:01Z</time></trkpt><trkpt lat="42.729365771947705" lon="12.750839815338518"><ele>737.0</ele><time>2026-04-19T11:54:02Z</time></trkpt><trkpt lat="42.729362111887546" lon="12.750940170430532"><ele>737.0</ele><time>2026-04-19T11:54:03Z</time></trkpt><trkpt lat="42.72935170068892" lon="12.751039156236057"><ele>737.0000000000001</ele><time>2026-04-19T11:54:04Z</time></trkpt><trkpt lat="42.729338397809336" lon="12.751136917869454"><ele>737.0</ele><time>2026-04-19T11:54:05Z</time></trkpt><trkpt lat="42.729328010199474" lon="12.751236661456248"><ele>737.1428571428572</ele><time>2026-04-19T11:54:06Z</time></trkpt><trkpt lat="42.72932253234633" lon="12.751333789267408"><ele>737.2857142857143</ele><time>2026-04-19T11:54:07Z</time></trkpt><trkpt lat="42.72932226726161" lon="12.751431509869851"><ele>737.4285714285714</ele><time>2026-04-19T11:54:08Z</time></trkpt><trkpt lat="42.729319277522485" lon="12.751531692068099"><ele>737.5714285714287</ele><time>2026-04-19T11:54:09Z</time></trkpt><trkpt lat="42.729307763237074" lon="12.751631600584927"><ele>737.7142857142857</ele><time>2026-04-19T11:54:10Z</time></trkpt><trkpt lat="42.72928136390793" lon="12.751728240068871"><ele>737.8571428571429</ele><time>2026-04-19T11:54:11Z</time></trkpt><trkpt lat="42.729245953346" lon="12.751820403299977"><ele>738.0</ele><time>2026-04-19T11:54:12Z</time></trkpt><trkpt lat="42.7292005753403" lon="12.751903667196952"><ele>738.0</ele><time>2026-04-19T11:54:13Z</time></trkpt><trkpt lat="42.72914563256226" lon="12.751982957950599"><ele>738.0</ele><time>2026-04-19T11:54:14Z</time></trkpt><trkpt lat="42.72908926427789" lon="12.752059725557363"><ele>738.0</ele><time>2026-04-19T11:54:15Z</time></trkpt><trkpt lat="42.72903017358637" lon="12.752137366580499"><ele>738.0</ele><time>2026-04-19T11:54:16Z</time></trkpt><trkpt lat="42.72897820720575" lon="12.75221761330247"><ele>738.0</ele><time>2026-04-19T11:54:17Z</time></trkpt><trkpt lat="42.728931583967906" lon="12.75230332450734"><ele>738.0</ele><time>2026-04-19T11:54:18Z</time></trkpt><trkpt lat="42.72889078143258" lon="12.752399008998491"><ele>738.0</ele><time>2026-04-19T11:54:19Z</time></trkpt><trkpt lat="42.72885335281932" lon="12.752502440114357"><ele>738.0</ele><time>2026-04-19T11:54:20Z</time></trkpt><trkpt lat="42.72882500819723" lon="12.752610043062825"><ele>738.0</ele><time>2026-04-19T11:54:21Z</time></trkpt><trkpt lat="42.72880315815201" lon="12.752717349516098"><ele>738.0</ele><time>2026-04-19T11:54:22Z</time></trkpt><trkpt lat="42.72878627422891" lon="12.752823913141079"><ele>738.0</ele><time>2026-04-19T11:54:23Z</time></trkpt><trkpt lat="42.728767988279095" lon="12.752928819821964"><ele>738.0</ele><time>2026-04-19T11:54:24Z</time></trkpt><trkpt lat="42.72873524799512" lon="12.75302837530094"><ele>739.6666666666666</ele><time>2026-04-19T11:54:25Z</time></trkpt><trkpt lat="42.72869765600555" lon="12.75312372490413"><ele>741.3333333333334</ele><time>2026-04-19T11:54:26Z</time></trkpt><trkpt lat="42.72865347653538" lon="12.753213866080925"><ele>743.0</ele><time>2026-04-19T11:54:27Z</time></trkpt><trkpt lat="42.728603739721294" lon="12.753295568732248"><ele>744.6666666666667</ele><time>2026-04-19T11:54:28Z</time></trkpt><trkpt lat="42.728554779743554" lon="12.75337343390041"><ele>746.3333333333334</ele><time>2026-04-19T11:54:29Z</time></trkpt><trkpt lat="42.72850250779547" lon="12.753454161965484"><ele>748.0</ele><time>2026-04-19T11:54:30Z</time></trkpt><trkpt lat="42.72845813944907" lon="12.753540408971528"><ele>748.0</ele><time>2026-04-19T11:54:31Z</time></trkpt><trkpt lat="42.72842045027507" lon="12.753634185827504"><ele>748.0</ele><time>2026-04-19T11:54:32Z</time></trkpt><trkpt lat="42.7283902178101" lon="12.753733544920886"><ele>748.0</ele><time>2026-04-19T11:54:33Z</time></trkpt><trkpt lat="42.72835933492137" lon="12.753834503678974"><ele>748.0</ele><time>2026-04-19T11:54:34Z</time></trkpt><trkpt lat="42.728319052197335" lon="12.753927115516685"><ele>748.0</ele><time>2026-04-19T11:54:35Z</time></trkpt><trkpt lat="42.72826185903893" lon="12.754004425142682"><ele>748.0</ele><time>2026-04-19T11:54:36Z</time></trkpt><trkpt lat="42.72819608325863" lon="12.754060363813043"><ele>748.0</ele><time>2026-04-19T11:54:37Z</time></trkpt><trkpt lat="42.72812200134205" lon="12.754101473161425"><ele>748.0</ele><time>2026-04-19T11:54:38Z</time></trkpt><trkpt lat="42.728042849178806" lon="12.754139962297948"><ele>748.0</ele><time>2026-04-19T11:54:39Z</time></trkpt><trkpt lat="42.72796569645628" lon="12.754175172986061"><ele>748.0</ele><time>2026-04-19T11:54:40Z</time></trkpt><trkpt lat="42.72789153023176" lon="12.75421523796649"><ele>748.0</ele><time>2026-04-19T11:54:41Z</time></trkpt><trkpt lat="42.727824150314966" lon="12.75427538494745"><ele>748.0</ele><time>2026-04-19T11:54:42Z</time></trkpt><trkpt lat="42.72776099267642" lon="12.754353268185865"><ele>749.3333333333334</ele><time>2026-04-19T11:54:43Z</time></trkpt><trkpt lat="42.727702913277305" lon="12.754442050673877"><ele>750.6666666666667</ele><time>2026-04-19T11:54:44Z</time></trkpt><trkpt lat="42.72765035498143" lon="12.754533725963194"><ele>752.0</ele><time>2026-04-19T11:54:45Z</time></trkpt><trkpt lat="42.72759999335003" lon="12.754624279722297"><ele>753.3333333333334</ele><time>2026-04-19T11:54:45.999Z</time></trkpt><trkpt lat="42.72754985257854" lon="12.754715322368888"><ele>754.6666666666666</ele><time>2026-04-19T11:54:46.999Z</time></trkpt><trkpt lat="42.72748019467456" lon="12.754776002437788"><ele>756.0</ele><time>2026-04-19T11:54:47.999Z</time></trkpt><trkpt lat="42.72742888402878" lon="12.754865058806605"><ele>756.0</ele><time>2026-04-19T11:54:48.999Z</time></trkpt><trkpt lat="42.72736473025008" lon="12.754929340533428"><ele>756.0</ele><time>2026-04-19T11:54:49.999Z</time></trkpt><trkpt lat="42.727301100961085" lon="12.754992589800374"><ele>756.0</ele><time>2026-04-19T11:54:50.999Z</time></trkpt><trkpt lat="42.72724184894221" lon="12.755050484022995"><ele>756.0</ele><time>2026-04-19T11:54:51.999Z</time></trkpt><trkpt lat="42.72718339556335" lon="12.755096410551323"><ele>756.0</ele><time>2026-04-19T11:54:52.999Z</time></trkpt><trkpt lat="42.727117200303184" lon="12.755118607931365"><ele>756.0</ele><time>2026-04-19T11:54:53.999Z</time></trkpt><trkpt lat="42.72704947669949" lon="12.755115485410906"><ele>756.0</ele><time>2026-04-19T11:54:54.999Z</time></trkpt><trkpt lat="42.72697793667669" lon="12.755089717276801"><ele>756.0</ele><time>2026-04-19T11:54:55.999Z</time></trkpt><trkpt lat="42.72690380929973" lon="12.755058289074833"><ele>756.0</ele><time>2026-04-19T11:54:56.999Z</time></trkpt><trkpt lat="42.726832141834386" lon="12.755029185977316"><ele>756.0</ele><time>2026-04-19T11:54:57.999Z</time></trkpt><trkpt lat="42.72675531006324" lon="12.754999835311127"><ele>756.0</ele><time>2026-04-19T11:54:58.999Z</time></trkpt><trkpt lat="42.72667912414355" lon="12.754968160482738"><ele>756.0</ele><time>2026-04-19T11:54:59.999Z</time></trkpt><trkpt lat="42.72660103300488" lon="12.754940847270719"><ele>756.0</ele><time>2026-04-19T11:55:00.999Z</time></trkpt><trkpt lat="42.72652562911275" lon="12.754911843393458"><ele>758.6666666666666</ele><time>2026-04-19T11:55:01.999Z</time></trkpt><trkpt lat="42.72645070998959" lon="12.754880636791043"><ele>761.3333333333333</ele><time>2026-04-19T11:55:02.999Z</time></trkpt><trkpt lat="42.7263746594212" lon="12.754850956464008"><ele>764.0</ele><time>2026-04-19T11:55:03.999Z</time></trkpt><trkpt lat="42.7263057965553" lon="12.75482058390526"><ele>766.6666666666666</ele><time>2026-04-19T11:55:04.999Z</time></trkpt><trkpt lat="42.72623240112199" lon="12.754791905279543"><ele>769.3333333333333</ele><time>2026-04-19T11:55:05.999Z</time></trkpt><trkpt lat="42.726168926395374" lon="12.754736380658118"><ele>772.0</ele><time>2026-04-19T11:55:06.999Z</time></trkpt><trkpt lat="42.726084557834945" lon="12.754631011090039"><ele>773.9999999999999</ele><time>2026-04-19T11:55:08.999Z</time></trkpt><trkpt lat="42.726022658231464" lon="12.754492895033026"><ele>776.0</ele><time>2026-04-19T11:55:10.999Z</time></trkpt><trkpt lat="42.72599117643319" lon="12.754416320327152"><ele>778.0</ele><time>2026-04-19T11:55:11.999Z</time></trkpt><trkpt lat="42.72595416205625" lon="12.754337871901637"><ele>780.0</ele><time>2026-04-19T11:55:12.999Z</time></trkpt><trkpt lat="42.725899964780325" lon="12.754270273252263"><ele>781.9999999999999</ele><time>2026-04-19T11:55:13.999Z</time></trkpt><trkpt lat="42.72586030574894" lon="12.754194199062972"><ele>784.0</ele><time>2026-04-19T11:55:14.999Z</time></trkpt><trkpt lat="42.725818942246136" lon="12.754121192386506"><ele>783.9999999999999</ele><time>2026-04-19T11:55:15.999Z</time></trkpt><trkpt lat="42.725773921051555" lon="12.754054514698245"><ele>784.0</ele><time>2026-04-19T11:55:16.999Z</time></trkpt><trkpt lat="42.72574078182271" lon="12.753974642276479"><ele>784.0</ele><time>2026-04-19T11:55:17.999Z</time></trkpt><trkpt lat="42.72569378380965" lon="12.753915798152132"><ele>784.0</ele><time>2026-04-19T11:55:18.999Z</time></trkpt><trkpt lat="42.72559646128412" lon="12.753834961122083"><ele>783.9999999999999</ele><time>2026-04-19T11:55:20.999Z</time></trkpt><trkpt lat="42.72552823311832" lon="12.753761730176826"><ele>784.0</ele><time>2026-04-19T11:55:22.999Z</time></trkpt><trkpt lat="42.72546168194296" lon="12.753709075080046"><ele>784.0</ele><time>2026-04-19T11:56:24Z</time></trkpt><trkpt lat="42.72539421372667" lon="12.753657543369766"><ele>784.0</ele><time>2026-04-19T11:56:26Z</time></trkpt><trkpt lat="42.72533079602121" lon="12.753586886944728"><ele>784.0</ele><time>2026-04-19T11:56:28Z</time></trkpt><trkpt lat="42.72528141184511" lon="12.753513418121457"><ele>784.0</ele><time>2026-04-19T11:56:30Z</time></trkpt><trkpt lat="42.725237071510605" lon="12.753441463651875"><ele>784.0</ele><time>2026-04-19T11:56:32Z</time></trkpt><trkpt lat="42.7251988559985" lon="12.753367623171542"><ele>784.0</ele><time>2026-04-19T11:56:34Z</time></trkpt><trkpt lat="42.725157942589426" lon="12.753283565642947"><ele>784.0</ele><time>2026-04-19T11:56:36Z</time></trkpt><trkpt lat="42.725119382404266" lon="12.753199782369524"><ele>783.4999999999999</ele><time>2026-04-19T11:56:38Z</time></trkpt><trkpt lat="42.725100363252025" lon="12.75311341938626"><ele>783.0</ele><time>2026-04-19T11:56:40Z</time></trkpt><trkpt lat="42.72507530527113" lon="12.752994081776398"><ele>782.5</ele><time>2026-04-19T11:56:43Z</time></trkpt><trkpt lat="42.72506489042035" lon="12.752863615298553"><ele>782.0</ele><time>2026-04-19T11:56:45.999Z</time></trkpt><trkpt lat="42.72504926736038" lon="12.752764508781558"><ele>781.4999999999999</ele><time>2026-04-19T11:56:47.999Z</time></trkpt><trkpt lat="42.72504447424225" lon="12.752652112032182"><ele>781.0</ele><time>2026-04-19T11:56:49.999Z</time></trkpt><trkpt lat="42.725034614065876" lon="12.752539077417612"><ele>780.9999999999999</ele><time>2026-04-19T11:56:51.999Z</time></trkpt><trkpt lat="42.725004836980055" lon="12.752435962771775"><ele>781.0</ele><time>2026-04-19T11:56:53.999Z</time></trkpt><trkpt lat="42.72498492059779" lon="12.752295079169338"><ele>781.0</ele><time>2026-04-19T11:56:55.999Z</time></trkpt><trkpt lat="42.7250130479548" lon="12.75221583310167"><ele>781.0</ele><time>2026-04-19T11:56:56.999Z</time></trkpt><trkpt lat="42.72498665817044" lon="12.752090289696067"><ele>780.9999999999999</ele><time>2026-04-19T11:56:58.999Z</time></trkpt><trkpt lat="42.7249625997393" lon="12.751974438359445"><ele>781.0</ele><time>2026-04-19T11:57:00.999Z</time></trkpt><trkpt lat="42.72493825128692" lon="12.751857190201285"><ele>781.1428571428571</ele><time>2026-04-19T11:57:02.999Z</time></trkpt><trkpt lat="42.7249211978128" lon="12.75174680843587"><ele>781.2857142857143</ele><time>2026-04-19T11:57:04.999Z</time></trkpt><trkpt lat="42.72490689161477" lon="12.751654430018894"><ele>781.4285714285713</ele><time>2026-04-19T11:57:06.999Z</time></trkpt><trkpt lat="42.72489311311809" lon="12.751560526225347"><ele>781.5714285714286</ele><time>2026-04-19T11:57:08.999Z</time></trkpt><trkpt lat="42.72487975492429" lon="12.751469486903165"><ele>781.7142857142857</ele><time>2026-04-19T11:57:10.999Z</time></trkpt><trkpt lat="42.72486241936202" lon="12.751351340651196"><ele>781.8571428571428</ele><time>2026-04-19T11:57:13.999Z</time></trkpt><trkpt lat="42.724848690464476" lon="12.751257774490972"><ele>782.0</ele><time>2026-04-19T11:57:15.999Z</time></trkpt><trkpt lat="42.72483256816496" lon="12.75114789663738"><ele>781.9999999999999</ele><time>2026-04-19T11:57:18.999Z</time></trkpt><trkpt lat="42.72487602575076" lon="12.75105321546845"><ele>782.0</ele><time>2026-04-19T11:57:20.999Z</time></trkpt><trkpt lat="42.724806180473756" lon="12.751023512410832"><ele>782.0</ele><time>2026-04-19T11:57:23.999Z</time></trkpt><trkpt lat="42.72479770221656" lon="12.751124984861505"><ele>782.0</ele><time>2026-04-19T11:57:27.999Z</time></trkpt><trkpt lat="42.72484436205671" lon="12.751204719938267"><ele>782.0</ele><time>2026-04-19T11:57:30.999Z</time></trkpt><trkpt lat="42.72483210931962" lon="12.75130250986124"><ele>781.9999999999999</ele><time>2026-04-19T11:57:32.999Z</time></trkpt><trkpt lat="42.72482206732654" lon="12.751390615429699"><ele>782.0</ele><time>2026-04-19T11:57:34.999Z</time></trkpt><trkpt lat="42.724839297106335" lon="12.751501188041011"><ele>781.9999999999999</ele><time>2026-04-19T11:57:37.999Z</time></trkpt><trkpt lat="42.72486234723226" lon="12.751603501151916"><ele>782.0</ele><time>2026-04-19T11:57:40.999Z</time></trkpt><trkpt lat="42.72487089955924" lon="12.751689927091418"><ele>782.0</ele><time>2026-04-19T11:57:42.999Z</time></trkpt><trkpt lat="42.724877941584026" lon="12.751781505338633"><ele>782.0</ele><time>2026-04-19T11:57:44.999Z</time></trkpt><trkpt lat="42.72489685649226" lon="12.751875733769788"><ele>782.0</ele><time>2026-04-19T11:57:46.999Z</time></trkpt><trkpt lat="42.7249122541266" lon="12.751963717670877"><ele>781.9999999999999</ele><time>2026-04-19T11:57:48.999Z</time></trkpt><trkpt lat="42.72493647240619" lon="12.752053679933299"><ele>782.0</ele><time>2026-04-19T11:57:50.999Z</time></trkpt><trkpt lat="42.72495157354009" lon="12.752137635311989"><ele>781.8571428571428</ele><time>2026-04-19T11:57:52.999Z</time></trkpt><trkpt lat="42.724974160925136" lon="12.752229702157145"><ele>781.7142857142857</ele><time>2026-04-19T11:57:54.999Z</time></trkpt><trkpt lat="42.725002350744504" lon="12.75231593632745"><ele>781.5714285714286</ele><time>2026-04-19T11:57:56.999Z</time></trkpt><trkpt lat="42.725006283013705" lon="12.752419729885673"><ele>781.4285714285713</ele><time>2026-04-19T11:57:58.999Z</time></trkpt><trkpt lat="42.72501625145334" lon="12.752519552033553"><ele>781.2857142857143</ele><time>2026-04-19T11:58:00.998Z</time></trkpt><trkpt lat="42.7250289302754" lon="12.75261495130139"><ele>781.1428571428571</ele><time>2026-04-19T11:58:02.998Z</time></trkpt><trkpt lat="42.72503697073242" lon="12.752710410389824"><ele>781.0</ele><time>2026-04-19T11:58:04.998Z</time></trkpt><trkpt lat="42.7250526268436" lon="12.75282161900195"><ele>780.8</ele><time>2026-04-19T11:58:07Z</time></trkpt><trkpt lat="42.72507374655946" lon="12.752949423000844"><ele>780.5999999999999</ele><time>2026-04-19T11:58:09Z</time></trkpt><trkpt lat="42.72510855769385" lon="12.75306488303194"><ele>780.4</ele><time>2026-04-19T11:58:11Z</time></trkpt><trkpt lat="42.72515851003731" lon="12.753173480882547"><ele>780.2</ele><time>2026-04-19T11:58:13Z</time></trkpt><trkpt lat="42.72521958110376" lon="12.753281013118984"><ele>780.0</ele><time>2026-04-19T11:58:15Z</time></trkpt><trkpt lat="42.72527357577792" lon="12.753397975716743"><ele>780.8</ele><time>2026-04-19T11:58:17Z</time></trkpt><trkpt lat="42.72534157866206" lon="12.753489459050044"><ele>781.6</ele><time>2026-04-19T11:58:19Z</time></trkpt><trkpt lat="42.72534434856411" lon="12.753701318378338"><ele>782.4000000000001</ele><time>2026-04-19T11:58:21Z</time></trkpt><trkpt lat="42.725397915888415" lon="12.753753613081132"><ele>783.2</ele><time>2026-04-19T11:58:23Z</time></trkpt><trkpt lat="42.72534784413199" lon="12.753667264673005"><ele>784.0</ele><time>2026-04-19T11:58:29Z</time></trkpt><trkpt lat="42.725298358459874" lon="12.753597779756792"><ele>783.3333333333333</ele><time>2026-04-19T11:58:31Z</time></trkpt><trkpt lat="42.72523845297308" lon="12.753521756385107"><ele>782.6666666666666</ele><time>2026-04-19T11:58:33Z</time></trkpt><trkpt lat="42.725175185797966" lon="12.75343226940847"><ele>782.0</ele><time>2026-04-19T11:58:35Z</time></trkpt><trkpt lat="42.72510669674234" lon="12.753346036672824"><ele>781.3333333333333</ele><time>2026-04-19T11:58:37Z</time></trkpt><trkpt lat="42.72504683962533" lon="12.753251177826721"><ele>780.6666666666666</ele><time>2026-04-19T11:58:39Z</time></trkpt><trkpt lat="42.72501350971991" lon="12.75313570633315"><ele>780.0</ele><time>2026-04-19T11:58:41Z</time></trkpt><trkpt lat="42.72495804733301" lon="12.753013928789574"><ele>780.0</ele><time>2026-04-19T11:58:43Z</time></trkpt><trkpt lat="42.72492337549058" lon="12.75288102024534"><ele>780.0</ele><time>2026-04-19T11:58:45Z</time></trkpt><trkpt lat="42.72489131679827" lon="12.752747487396961"><ele>780.0</ele><time>2026-04-19T11:58:47Z</time></trkpt><trkpt lat="42.724850579198474" lon="12.752617714603897"><ele>780.0</ele><time>2026-04-19T11:58:49Z</time></trkpt><trkpt lat="42.724813032166864" lon="12.752480646911673"><ele>780.0</ele><time>2026-04-19T11:58:51Z</time></trkpt><trkpt lat="42.724775310791436" lon="12.752342411367302"><ele>780.2</ele><time>2026-04-19T11:58:52.999Z</time></trkpt><trkpt lat="42.72474836350869" lon="12.752198708200638"><ele>780.4</ele><time>2026-04-19T11:58:54.999Z</time></trkpt><trkpt lat="42.72471002127529" lon="12.752062260853863"><ele>780.5999999999999</ele><time>2026-04-19T11:58:56.999Z</time></trkpt><trkpt lat="42.72467282598412" lon="12.751929895121517"><ele>780.8</ele><time>2026-04-19T11:58:58.999Z</time></trkpt><trkpt lat="42.72463505354102" lon="12.751803300118372"><ele>781.0</ele><time>2026-04-19T11:59:00.999Z</time></trkpt><trkpt lat="42.72456603405507" lon="12.751684340772641"><ele>781.1999999999999</ele><time>2026-04-19T11:59:02.999Z</time></trkpt><trkpt lat="42.72447728202542" lon="12.751601990924259"><ele>781.4</ele><time>2026-04-19T11:59:04.999Z</time></trkpt><trkpt lat="42.724395628069274" lon="12.751532190638649"><ele>781.6</ele><time>2026-04-19T11:59:06.999Z</time></trkpt><trkpt lat="42.724296037779" lon="12.751504792230744"><ele>781.8</ele><time>2026-04-19T11:59:08.999Z</time></trkpt><trkpt lat="42.72422544863179" lon="12.751567022267507"><ele>782.0</ele><time>2026-04-19T11:59:10.999Z</time></trkpt><trkpt lat="42.72419013100482" lon="12.751659353598852"><ele>781.1666666666667</ele><time>2026-04-19T11:59:12.999Z</time></trkpt><trkpt lat="42.72416876154883" lon="12.751773842443265"><ele>780.3333333333334</ele><time>2026-04-19T11:59:14.999Z</time></trkpt><trkpt lat="42.724128213579576" lon="12.75188574560308"><ele>779.5</ele><time>2026-04-19T11:59:16.999Z</time></trkpt><trkpt lat="42.72408511336081" lon="12.751993264363572"><ele>778.6666666666667</ele><time>2026-04-19T11:59:18.999Z</time></trkpt><trkpt lat="42.72404913511085" lon="12.752107466792658"><ele>777.8333333333334</ele><time>2026-04-19T11:59:20.999Z</time></trkpt><trkpt lat="42.72400953814576" lon="12.75221163260885"><ele>777.0</ele><time>2026-04-19T11:59:22.999Z</time></trkpt><trkpt lat="42.723975705577836" lon="12.752320338615597"><ele>777.0</ele><time>2026-04-19T11:59:24.999Z</time></trkpt><trkpt lat="42.72394984357954" lon="12.752446500248556"><ele>777.0</ele><time>2026-04-19T11:59:26.999Z</time></trkpt><trkpt lat="42.72392859058955" lon="12.752577188443722"><ele>777.0</ele><time>2026-04-19T11:59:28.999Z</time></trkpt><trkpt lat="42.72390987223698" lon="12.752703602649024"><ele>777.0</ele><time>2026-04-19T11:59:30.999Z</time></trkpt><trkpt lat="42.72388575576262" lon="12.752839362616172"><ele>777.0</ele><time>2026-04-19T11:59:32.999Z</time></trkpt><trkpt lat="42.72388220265906" lon="12.752980888194502"><ele>777.2</ele><time>2026-04-19T11:59:34.999Z</time></trkpt><trkpt lat="42.72386833579215" lon="12.753123230365471"><ele>777.4000000000001</ele><time>2026-04-19T11:59:36.999Z</time></trkpt><trkpt lat="42.72384282350371" lon="12.753252368632097"><ele>777.5999999999999</ele><time>2026-04-19T11:59:38.999Z</time></trkpt><trkpt lat="42.7238204475072" lon="12.75337695671801"><ele>777.8</ele><time>2026-04-19T11:59:40.999Z</time></trkpt><trkpt lat="42.723810032984204" lon="12.75346620981981"><ele>778.0</ele><time>2026-04-19T11:59:43.999Z</time></trkpt><trkpt lat="42.72380625340945" lon="12.753598356550443"><ele>778.9999999999999</ele><time>2026-04-19T12:00:15Z</time></trkpt><trkpt lat="42.723816422531534" lon="12.753713965977182"><ele>780.0</ele><time>2026-04-19T12:00:17Z</time></trkpt><trkpt lat="42.723835551623964" lon="12.753814031556047"><ele>781.0</ele><time>2026-04-19T12:00:19Z</time></trkpt><trkpt lat="42.72386314425415" lon="12.753909112201336"><ele>782.0</ele><time>2026-04-19T12:00:21Z</time></trkpt><trkpt lat="42.723895948922646" lon="12.753996956937828"><ele>782.9999999999999</ele><time>2026-04-19T12:00:23Z</time></trkpt><trkpt lat="42.72394393527736" lon="12.754071508477889"><ele>784.0</ele><time>2026-04-19T12:00:25Z</time></trkpt><trkpt lat="42.72400514477921" lon="12.754118057908588"><ele>783.9999999999999</ele><time>2026-04-19T12:00:27Z</time></trkpt><trkpt lat="42.72407030248989" lon="12.754155316865035"><ele>784.0</ele><time>2026-04-19T12:00:29Z</time></trkpt><trkpt lat="42.7241508322569" lon="12.754163008771073"><ele>784.0</ele><time>2026-04-19T12:00:31Z</time></trkpt><trkpt lat="42.724234566046164" lon="12.754145603756461"><ele>784.0</ele><time>2026-04-19T12:00:33Z</time></trkpt><trkpt lat="42.724306006565534" lon="12.754096170209456"><ele>783.9999999999999</ele><time>2026-04-19T12:00:35Z</time></trkpt><trkpt lat="42.72436523598041" lon="12.754060145131033"><ele>784.0</ele><time>2026-04-19T12:00:37Z</time></trkpt><trkpt lat="42.72443688373652" lon="12.753976885445606"><ele>784.9999999999999</ele><time>2026-04-19T12:00:40Z</time></trkpt><trkpt lat="42.72447463990477" lon="12.753905590412222"><ele>786.0</ele><time>2026-04-19T12:00:42Z</time></trkpt><trkpt lat="42.72452274379951" lon="12.753831507860323"><ele>787.0</ele><time>2026-04-19T12:00:44Z</time></trkpt><trkpt lat="42.72456879165599" lon="12.753759178820616"><ele>788.0</ele><time>2026-04-19T12:00:46Z</time></trkpt><trkpt lat="42.72463697003498" lon="12.753708971127109"><ele>788.9999999999999</ele><time>2026-04-19T12:00:48Z</time></trkpt><trkpt lat="42.72471715378173" lon="12.753680146551401"><ele>790.0</ele><time>2026-04-19T12:00:50Z</time></trkpt><trkpt lat="42.724794359197396" lon="12.753638989091794"><ele>789.9999999999999</ele><time>2026-04-19T12:00:52Z</time></trkpt><trkpt lat="42.72487561187848" lon="12.753647489314705"><ele>790.0</ele><time>2026-04-19T12:00:54Z</time></trkpt><trkpt lat="42.724951367893254" lon="12.753652684531257"><ele>790.0</ele><time>2026-04-19T12:00:56Z</time></trkpt><trkpt lat="42.72501697154948" lon="12.753653837157138"><ele>790.0</ele><time>2026-04-19T12:00:57.999Z</time></trkpt><trkpt lat="42.725093799658886" lon="12.75364734679603"><ele>789.9999999999999</ele><time>2026-04-19T12:00:59.999Z</time></trkpt><trkpt lat="42.725171081385305" lon="12.753655313826007"><ele>790.0</ele><time>2026-04-19T12:01:01.999Z</time></trkpt><trkpt lat="42.72524829168723" lon="12.753675956977924"><ele>788.8</ele><time>2026-04-19T12:01:03.999Z</time></trkpt><trkpt lat="42.72533824555184" lon="12.753681112912131"><ele>787.6</ele><time>2026-04-19T12:01:05.999Z</time></trkpt><trkpt lat="42.72542866900084" lon="12.753769427181137"><ele>786.4000000000001</ele><time>2026-04-19T12:01:07.999Z</time></trkpt><trkpt lat="42.72552818803619" lon="12.753848574861658"><ele>785.2</ele><time>2026-04-19T12:01:09.999Z</time></trkpt><trkpt lat="42.72562655916557" lon="12.75394902886478"><ele>784.0</ele><time>2026-04-19T12:01:11.999Z</time></trkpt><trkpt lat="42.72572607590823" lon="12.754052162762882"><ele>783.9999999999999</ele><time>2026-04-19T12:01:13.999Z</time></trkpt><trkpt lat="42.72580867989823" lon="12.754187959582888"><ele>784.0</ele><time>2026-04-19T12:01:15.999Z</time></trkpt><trkpt lat="42.72584410504737" lon="12.754262374463154"><ele>784.0</ele><time>2026-04-19T12:01:16.999Z</time></trkpt><trkpt lat="42.72588247885099" lon="12.7543410617735"><ele>784.0</ele><time>2026-04-19T12:01:17.999Z</time></trkpt><trkpt lat="42.72592043897443" lon="12.754420074373506"><ele>783.9999999999999</ele><time>2026-04-19T12:01:18.999Z</time></trkpt><trkpt lat="42.72595788945446" lon="12.754509612494633"><ele>784.0</ele><time>2026-04-19T12:01:19.999Z</time></trkpt><trkpt lat="42.72599756877884" lon="12.754596797066464"><ele>784.3333333333333</ele><time>2026-04-19T12:01:20.999Z</time></trkpt><trkpt lat="42.72604140543991" lon="12.754672092574086"><ele>784.6666666666666</ele><time>2026-04-19T12:01:21.999Z</time></trkpt><trkpt lat="42.7260898463609" lon="12.754729829130575"><ele>785.0</ele><time>2026-04-19T12:01:22.999Z</time></trkpt><trkpt lat="42.72620439376216" lon="12.754803495885053"><ele>785.3333333333333</ele><time>2026-04-19T12:01:24.999Z</time></trkpt><trkpt lat="42.72626649960947" lon="12.75483061130822"><ele>785.6666666666666</ele><time>2026-04-19T12:01:25.999Z</time></trkpt><trkpt lat="42.72633098214284" lon="12.754856888498198"><ele>786.0</ele><time>2026-04-19T12:01:26.999Z</time></trkpt><trkpt lat="42.72639499555296" lon="12.754887434373472"><ele>784.0000000000001</ele><time>2026-04-19T12:01:27.999Z</time></trkpt><trkpt lat="42.726458006022646" lon="12.754910835111371"><ele>782.0</ele><time>2026-04-19T12:01:28.999Z</time></trkpt><trkpt lat="42.72652678818468" lon="12.754935716865134"><ele>780.0</ele><time>2026-04-19T12:01:29.999Z</time></trkpt><trkpt lat="42.72659537784329" lon="12.754961966784574"><ele>778.0</ele><time>2026-04-19T12:01:30.999Z</time></trkpt><trkpt lat="42.726663109283386" lon="12.754989031329442"><ele>776.0</ele><time>2026-04-19T12:01:31.999Z</time></trkpt><trkpt lat="42.726730296271526" lon="12.755018091531541"><ele>774.0000000000001</ele><time>2026-04-19T12:01:32.999Z</time></trkpt><trkpt lat="42.72679825925377" lon="12.755046675609881"><ele>772.0</ele><time>2026-04-19T12:01:33.999Z</time></trkpt><trkpt lat="42.72686506363005" lon="12.755078038775395"><ele>768.8</ele><time>2026-04-19T12:01:34.999Z</time></trkpt><trkpt lat="42.726928987488556" lon="12.755106852395608"><ele>765.6</ele><time>2026-04-19T12:01:35.999Z</time></trkpt><trkpt lat="42.72704193613196" lon="12.75515008003502"><ele>762.4</ele><time>2026-04-19T12:01:37.999Z</time></trkpt><trkpt lat="42.727153955651204" lon="12.755136754733554"><ele>759.1999999999999</ele><time>2026-04-19T12:01:39.999Z</time></trkpt><trkpt lat="42.727256423693554" lon="12.755072476564242"><ele>756.0</ele><time>2026-04-19T12:01:41.999Z</time></trkpt><trkpt lat="42.727354796275584" lon="12.754972740281877"><ele>756.0</ele><time>2026-04-19T12:01:43.999Z</time></trkpt><trkpt lat="42.72740550306895" lon="12.754921330358924"><ele>756.0</ele><time>2026-04-19T12:01:44.999Z</time></trkpt><trkpt lat="42.72745515858985" lon="12.754866450643618"><ele>756.0</ele><time>2026-04-19T12:01:45.999Z</time></trkpt><trkpt lat="42.727504984152375" lon="12.754806333440154"><ele>756.0</ele><time>2026-04-19T12:01:46.999Z</time></trkpt><trkpt lat="42.72755157902015" lon="12.754745473687587"><ele>756.0</ele><time>2026-04-19T12:01:47.999Z</time></trkpt><trkpt lat="42.72760006869295" lon="12.754676867311353"><ele>756.0</ele><time>2026-04-19T12:01:48.999Z</time></trkpt><trkpt lat="42.72764546894783" lon="12.754608606256776"><ele>756.0</ele><time>2026-04-19T12:01:49.999Z</time></trkpt><trkpt lat="42.72768776311338" lon="12.754535640440395"><ele>754.8571428571429</ele><time>2026-04-19T12:01:50.999Z</time></trkpt><trkpt lat="42.72772760691221" lon="12.754461975272038"><ele>753.7142857142858</ele><time>2026-04-19T12:01:51.999Z</time></trkpt><trkpt lat="42.72776804879434" lon="12.754389805182967"><ele>752.5714285714286</ele><time>2026-04-19T12:01:52.999Z</time></trkpt><trkpt lat="42.72781091029771" lon="12.754325850505282"><ele>751.4285714285714</ele><time>2026-04-19T12:01:53.999Z</time></trkpt><trkpt lat="42.72785739349899" lon="12.754255240505158"><ele>750.2857142857143</ele><time>2026-04-19T12:01:54.999Z</time></trkpt><trkpt lat="42.72792287839234" lon="12.754216267355602"><ele>749.1428571428571</ele><time>2026-04-19T12:01:55.999Z</time></trkpt><trkpt lat="42.72799235533039" lon="12.754181820024467"><ele>748.0</ele><time>2026-04-19T12:01:56.999Z</time></trkpt><trkpt lat="42.728063356935" lon="12.754152406326323"><ele>748.0</ele><time>2026-04-19T12:01:57.999Z</time></trkpt><trkpt lat="42.7281335082085" lon="12.754124830033666"><ele>748.0</ele><time>2026-04-19T12:01:58.999Z</time></trkpt><trkpt lat="42.72820223254135" lon="12.754090313953176"><ele>748.0</ele><time>2026-04-19T12:01:59.999Z</time></trkpt><trkpt lat="42.72826153459791" lon="12.75403576405766"><ele>748.0</ele><time>2026-04-19T12:02:00.999Z</time></trkpt><trkpt lat="42.728325004756606" lon="12.753984165670106"><ele>748.0</ele><time>2026-04-19T12:02:01.999Z</time></trkpt><trkpt lat="42.72836521006253" lon="12.753899312423767"><ele>748.0</ele><time>2026-04-19T12:02:02.999Z</time></trkpt><trkpt lat="42.728400127419015" lon="12.75381012279076"><ele>748.0</ele><time>2026-04-19T12:02:03.999Z</time></trkpt><trkpt lat="42.72843199911097" lon="12.753715715398668"><ele>748.0</ele><time>2026-04-19T12:02:04.999Z</time></trkpt><trkpt lat="42.72846366763648" lon="12.753619946798054"><ele>748.0</ele><time>2026-04-19T12:02:05.999Z</time></trkpt><trkpt lat="42.72850132431803" lon="12.753530041590077"><ele>748.0</ele><time>2026-04-19T12:02:06.999Z</time></trkpt><trkpt lat="42.728546333828874" lon="12.753447993994781"><ele>748.0</ele><time>2026-04-19T12:02:07.999Z</time></trkpt><trkpt lat="42.728594550747545" lon="12.753366414617815"><ele>748.0</ele><time>2026-04-19T12:02:08.999Z</time></trkpt><trkpt lat="42.72863365949365" lon="12.7532754693842"><ele>748.0</ele><time>2026-04-19T12:02:09.999Z</time></trkpt><trkpt lat="42.728702479657606" lon="12.753205016000603"><ele>746.3333333333334</ele><time>2026-04-19T12:02:10.999Z</time></trkpt><trkpt lat="42.7287468223829" lon="12.753105943061792"><ele>744.6666666666667</ele><time>2026-04-19T12:02:11.999Z</time></trkpt><trkpt lat="42.72878184819444" lon="12.753002131768284"><ele>743.0</ele><time>2026-04-19T12:02:12.998Z</time></trkpt><trkpt lat="42.72880946073008" lon="12.752894351521638"><ele>741.3333333333334</ele><time>2026-04-19T12:02:13.998Z</time></trkpt><trkpt lat="42.72882934204482" lon="12.752782776597186"><ele>739.6666666666666</ele><time>2026-04-19T12:02:14.998Z</time></trkpt><trkpt lat="42.728845780668266" lon="12.752675308195982"><ele>738.0</ele><time>2026-04-19T12:02:16Z</time></trkpt><trkpt lat="42.728868066617274" lon="12.752574002446499"><ele>738.0</ele><time>2026-04-19T12:02:17Z</time></trkpt><trkpt lat="42.728896892210805" lon="12.752475992910504"><ele>738.0</ele><time>2026-04-19T12:02:18Z</time></trkpt><trkpt lat="42.728931646607435" lon="12.752382618341823"><ele>738.0</ele><time>2026-04-19T12:02:19Z</time></trkpt><trkpt lat="42.72897535567572" lon="12.75229901307211"><ele>738.0</ele><time>2026-04-19T12:02:20Z</time></trkpt><trkpt lat="42.72902360334046" lon="12.752218870236526"><ele>738.0</ele><time>2026-04-19T12:02:21Z</time></trkpt><trkpt lat="42.72906170657948" lon="12.752125954257131"><ele>738.0</ele><time>2026-04-19T12:02:22Z</time></trkpt><trkpt lat="42.729114925723216" lon="12.752052753453404"><ele>738.0</ele><time>2026-04-19T12:02:23Z</time></trkpt><trkpt lat="42.72916690308337" lon="12.751981428385374"><ele>738.0</ele><time>2026-04-19T12:02:24Z</time></trkpt><trkpt lat="42.729215099873514" lon="12.751908621480506"><ele>738.0</ele><time>2026-04-19T12:02:25Z</time></trkpt><trkpt lat="42.72927357149665" lon="12.75184461572097"><ele>738.0</ele><time>2026-04-19T12:02:26Z</time></trkpt><trkpt lat="42.72931555901787" lon="12.751756036237696"><ele>738.0</ele><time>2026-04-19T12:02:27Z</time></trkpt><trkpt lat="42.72933935524861" lon="12.75164892924249"><ele>738.0</ele><time>2026-04-19T12:02:28Z</time></trkpt><trkpt lat="42.729348331101846" lon="12.75153858303066"><ele>737.8571428571429</ele><time>2026-04-19T12:02:29Z</time></trkpt><trkpt lat="42.72935616746546" lon="12.751435410298617"><ele>737.7142857142857</ele><time>2026-04-19T12:02:30Z</time></trkpt><trkpt lat="42.72936401401644" lon="12.751332103429188"><ele>737.5714285714287</ele><time>2026-04-19T12:02:31Z</time></trkpt><trkpt lat="42.729371385036444" lon="12.751232079919928"><ele>737.4285714285714</ele><time>2026-04-19T12:02:32Z</time></trkpt><trkpt lat="42.72937824475317" lon="12.751130912042846"><ele>737.2857142857143</ele><time>2026-04-19T12:02:33Z</time></trkpt><trkpt lat="42.72938475236257" lon="12.751032026935514"><ele>737.1428571428572</ele><time>2026-04-19T12:02:34Z</time></trkpt><trkpt lat="42.72939537513553" lon="12.750937173910645"><ele>737.0</ele><time>2026-04-19T12:02:35Z</time></trkpt><trkpt lat="42.72940742109848" lon="12.750840753520896"><ele>737.0</ele><time>2026-04-19T12:02:36Z</time></trkpt><trkpt lat="42.72940665468061" lon="12.75073884322576"><ele>737.0</ele><time>2026-04-19T12:02:37Z</time></trkpt><trkpt lat="42.72938087897944" lon="12.750638425325697"><ele>737.0</ele><time>2026-04-19T12:02:38Z</time></trkpt><trkpt lat="42.729341476454636" lon="12.750547525713923"><ele>737.0</ele><time>2026-04-19T12:02:39Z</time></trkpt><trkpt lat="42.729294352041734" lon="12.750466582962476"><ele>737.0</ele><time>2026-04-19T12:02:40Z</time></trkpt><trkpt lat="42.729240128723205" lon="12.750396674896676"><ele>737.0</ele><time>2026-04-19T12:02:41Z</time></trkpt><trkpt lat="42.72918410398796" lon="12.750330603944944"><ele>737.0</ele><time>2026-04-19T12:02:42Z</time></trkpt><trkpt lat="42.729122518082704" lon="12.750263690760706"><ele>737.0</ele><time>2026-04-19T12:02:43Z</time></trkpt><trkpt lat="42.72905461948172" lon="12.75020391514161"><ele>737.0</ele><time>2026-04-19T12:02:44Z</time></trkpt><trkpt lat="42.728980419272666" lon="12.750157917542461"><ele>737.0</ele><time>2026-04-19T12:02:45Z</time></trkpt><trkpt lat="42.72890352345486" lon="12.750137088816384"><ele>737.0</ele><time>2026-04-19T12:02:46Z</time></trkpt><trkpt lat="42.72883402014719" lon="12.750105385726783"><ele>737.0</ele><time>2026-04-19T12:02:47Z</time></trkpt><trkpt lat="42.72876703275799" lon="12.75006542984897"><ele>736.5</ele><time>2026-04-19T12:02:48Z</time></trkpt><trkpt lat="42.7287135574616" lon="12.750000737806715"><ele>736.0</ele><time>2026-04-19T12:02:49Z</time></trkpt><trkpt lat="42.72865461815074" lon="12.749928417721177"><ele>735.5</ele><time>2026-04-19T12:02:50Z</time></trkpt><trkpt lat="42.72859460960041" lon="12.749851421258583"><ele>735.0</ele><time>2026-04-19T12:02:51Z</time></trkpt><trkpt lat="42.72853114617384" lon="12.749774872727638"><ele>734.5</ele><time>2026-04-19T12:02:52Z</time></trkpt><trkpt lat="42.72846676033235" lon="12.749705541844468"><ele>734.0</ele><time>2026-04-19T12:02:53Z</time></trkpt><trkpt lat="42.72840586026658" lon="12.7496380065036"><ele>734.0</ele><time>2026-04-19T12:02:54Z</time></trkpt><trkpt lat="42.728345380442036" lon="12.749560220411487"><ele>734.0</ele><time>2026-04-19T12:02:55Z</time></trkpt><trkpt lat="42.72828711454891" lon="12.74948528185731"><ele>734.0</ele><time>2026-04-19T12:02:56Z</time></trkpt><trkpt lat="42.72823294188878" lon="12.749415607691526"><ele>734.0</ele><time>2026-04-19T12:02:57Z</time></trkpt><trkpt lat="42.72817570845922" lon="12.74935824698578"><ele>734.0</ele><time>2026-04-19T12:02:58Z</time></trkpt><trkpt lat="42.72815096322233" lon="12.749265011867525"><ele>734.0</ele><time>2026-04-19T12:02:59Z</time></trkpt><trkpt lat="42.72814692898853" lon="12.749172449699982"><ele>731.8000000000001</ele><time>2026-04-19T12:03:00Z</time></trkpt><trkpt lat="42.728180817705635" lon="12.749015264248"><ele>729.6</ele><time>2026-04-19T12:03:01.999Z</time></trkpt><trkpt lat="42.728221963407464" lon="12.748945201119417"><ele>727.4</ele><time>2026-04-19T12:03:02.999Z</time></trkpt><trkpt lat="42.728328099854835" lon="12.748871769101441"><ele>725.2</ele><time>2026-04-19T12:03:04.999Z</time></trkpt><trkpt lat="42.72844722645556" lon="12.74880403859555"><ele>723.0</ele><time>2026-04-19T12:03:06.999Z</time></trkpt><trkpt lat="42.72850699664947" lon="12.748771887543649"><ele>721.0</ele><time>2026-04-19T12:03:07.999Z</time></trkpt><trkpt lat="42.728568823112724" lon="12.748741214315373"><ele>719.0</ele><time>2026-04-19T12:03:08.999Z</time></trkpt><trkpt lat="42.72863064989063" lon="12.748711566796446"><ele>717.0</ele><time>2026-04-19T12:03:09.999Z</time></trkpt><trkpt lat="42.728689998349076" lon="12.74868272023713"><ele>715.0</ele><time>2026-04-19T12:03:10.999Z</time></trkpt><trkpt lat="42.72877485240986" lon="12.74859271760269"><ele>713.0</ele><time>2026-04-19T12:03:12.999Z</time></trkpt><trkpt lat="42.72881305167644" lon="12.748464997789625"><ele>711.0</ele><time>2026-04-19T12:03:14.999Z</time></trkpt><trkpt lat="42.72876233059835" lon="12.74838959101495"><ele>711.0</ele><time>2026-04-19T12:03:15.999Z</time></trkpt><trkpt lat="42.72867145066052" lon="12.748301187968092"><ele>711.0</ele><time>2026-04-19T12:03:17.999Z</time></trkpt><trkpt lat="42.72857854474293" lon="12.748212364813153"><ele>711.0</ele><time>2026-04-19T12:03:19.999Z</time></trkpt><trkpt lat="42.728492752735974" lon="12.7481094531801"><ele>711.0</ele><time>2026-04-19T12:03:21.999Z</time></trkpt><trkpt lat="42.72842110431261" lon="12.747999913274413"><ele>711.0</ele><time>2026-04-19T12:03:23.999Z</time></trkpt><trkpt lat="42.72834150099951" lon="12.747922896748644"><ele>711.0</ele><time>2026-04-19T12:03:25.999Z</time></trkpt><trkpt lat="42.72826975694414" lon="12.747924699751566"><ele>711.0</ele><time>2026-04-19T12:03:27.999Z</time></trkpt><trkpt lat="42.72820008007076" lon="12.747947365998764"><ele>711.0</ele><time>2026-04-19T12:03:56.999Z</time></trkpt><trkpt lat="42.72815576761994" lon="12.748010868384107"><ele>711.0</ele><time>2026-04-19T12:03:59.999Z</time></trkpt><trkpt lat="42.728095268687554" lon="12.748082560869308"><ele>711.0</ele><time>2026-04-19T12:04:02.999Z</time></trkpt><trkpt lat="42.72803524224818" lon="12.74811847305119"><ele>711.0</ele><time>2026-04-19T12:04:04.999Z</time></trkpt><trkpt lat="42.727965683289405" lon="12.74814218254923"><ele>711.0</ele><time>2026-04-19T12:04:06.999Z</time></trkpt><trkpt lat="42.727894002064346" lon="12.74816336614911"><ele>711.0</ele><time>2026-04-19T12:04:08.999Z</time></trkpt><trkpt lat="42.72781492168668" lon="12.748149165167638"><ele>711.0</ele><time>2026-04-19T12:04:10.999Z</time></trkpt><trkpt lat="42.72773178357153" lon="12.748153033977356"><ele>711.0</ele><time>2026-04-19T12:04:12.999Z</time></trkpt><trkpt lat="42.7276637352432" lon="12.74817763079352"><ele>711.0</ele><time>2026-04-19T12:04:14.998Z</time></trkpt><trkpt lat="42.727599058183465" lon="12.748205612479595"><ele>711.0</ele><time>2026-04-19T12:04:16.998Z</time></trkpt><trkpt lat="42.727558525785966" lon="12.748289358493793"><ele>711.0</ele><time>2026-04-19T12:04:18.998Z</time></trkpt><trkpt lat="42.72753925160512" lon="12.748393454692085"><ele>708.8</ele><time>2026-04-19T12:04:21Z</time></trkpt><trkpt lat="42.72749905177301" lon="12.748493010161923"><ele>706.5999999999999</ele><time>2026-04-19T12:04:23Z</time></trkpt><trkpt lat="42.727416837223124" lon="12.748562119984971"><ele>704.4</ele><time>2026-04-19T12:04:25Z</time></trkpt><trkpt lat="42.72730920663899" lon="12.748550475528539"><ele>702.2</ele><time>2026-04-19T12:04:27Z</time></trkpt><trkpt lat="42.727194588567414" lon="12.74853389559659"><ele>700.0</ele><time>2026-04-19T12:04:29Z</time></trkpt><trkpt lat="42.727129391374675" lon="12.748519157054611"><ele>700.0</ele><time>2026-04-19T12:04:30Z</time></trkpt><trkpt lat="42.72706357513509" lon="12.748498540882531"><ele>700.0</ele><time>2026-04-19T12:04:31Z</time></trkpt><trkpt lat="42.72699550193594" lon="12.748472347147441"><ele>700.0</ele><time>2026-04-19T12:04:32Z</time></trkpt><trkpt lat="42.72692471549167" lon="12.748444387842381"><ele>700.0</ele><time>2026-04-19T12:04:33Z</time></trkpt><trkpt lat="42.726854442692854" lon="12.748417606426834"><ele>700.0</ele><time>2026-04-19T12:04:34Z</time></trkpt><trkpt lat="42.726785450934635" lon="12.748394539269817"><ele>700.0</ele><time>2026-04-19T12:04:35Z</time></trkpt><trkpt lat="42.72671459030989" lon="12.748370847255632"><ele>700.0</ele><time>2026-04-19T12:04:36Z</time></trkpt><trkpt lat="42.72664494546378" lon="12.748345194096782"><ele>699.8333333333334</ele><time>2026-04-19T12:04:37Z</time></trkpt><trkpt lat="42.72657666820925" lon="12.748315305735709"><ele>699.6666666666667</ele><time>2026-04-19T12:04:38Z</time></trkpt><trkpt lat="42.726513394369306" lon="12.748273223735913"><ele>699.5</ele><time>2026-04-19T12:04:39Z</time></trkpt><trkpt lat="42.72645938207754" lon="12.748215896210755"><ele>699.3333333333334</ele><time>2026-04-19T12:04:40Z</time></trkpt><trkpt lat="42.726404003179525" lon="12.748169237184703"><ele>699.1666666666666</ele><time>2026-04-19T12:04:41Z</time></trkpt><trkpt lat="42.72629594499406" lon="12.748108196830938"><ele>699.0</ele><time>2026-04-19T12:04:43Z</time></trkpt><trkpt lat="42.726233343306255" lon="12.74804223295766"><ele>699.0</ele><time>2026-04-19T12:04:45Z</time></trkpt><trkpt lat="42.72615913847461" lon="12.748058310399971"><ele>699.0</ele><time>2026-04-19T12:04:47Z</time></trkpt><trkpt lat="42.72609500654431" lon="12.748072773514908"><ele>699.0</ele><time>2026-04-19T12:04:52Z</time></trkpt><trkpt lat="42.726022292449535" lon="12.748114372559082"><ele>699.0</ele><time>2026-04-19T12:05:44.999Z</time></trkpt><trkpt lat="42.72594934256083" lon="12.748148276169124"><ele>699.0</ele><time>2026-04-19T12:05:46.999Z</time></trkpt><trkpt lat="42.725855986514524" lon="12.748152613455238"><ele>699.0</ele><time>2026-04-19T12:05:48.999Z</time></trkpt><trkpt lat="42.72575889828829" lon="12.748123236595166"><ele>698.8000000000001</ele><time>2026-04-19T12:05:50.999Z</time></trkpt><trkpt lat="42.725646376954145" lon="12.748115575111395"><ele>698.6</ele><time>2026-04-19T12:05:52.999Z</time></trkpt><trkpt lat="42.72553902300152" lon="12.748078497870628"><ele>698.4</ele><time>2026-04-19T12:05:54.999Z</time></trkpt><trkpt lat="42.7254284690741" lon="12.748055414582476"><ele>698.2</ele><time>2026-04-19T12:05:56.999Z</time></trkpt><trkpt lat="42.72531860121036" lon="12.748017501359351"><ele>698.0</ele><time>2026-04-19T12:05:58.999Z</time></trkpt><trkpt lat="42.725205956143625" lon="12.748026473821024"><ele>699.25</ele><time>2026-04-19T12:06:00.999Z</time></trkpt><trkpt lat="42.725091544718126" lon="12.747998336657435"><ele>700.5</ele><time>2026-04-19T12:06:02.999Z</time></trkpt><trkpt lat="42.724975085080665" lon="12.747972975423119"><ele>701.75</ele><time>2026-04-19T12:06:04.999Z</time></trkpt><trkpt lat="42.724859407435346" lon="12.74794126307187"><ele>703.0</ele><time>2026-04-19T12:06:06.999Z</time></trkpt><trkpt lat="42.724741311919104" lon="12.747909193869052"><ele>703.0</ele><time>2026-04-19T12:06:08.999Z</time></trkpt><trkpt lat="42.724627535651706" lon="12.747870513058366"><ele>703.0</ele><time>2026-04-19T12:06:10.999Z</time></trkpt><trkpt lat="42.724524805458934" lon="12.747837016642979"><ele>703.0</ele><time>2026-04-19T12:06:12.999Z</time></trkpt><trkpt lat="42.7244306553214" lon="12.747822054041075"><ele>703.0</ele><time>2026-04-19T12:06:14.999Z</time></trkpt><trkpt lat="42.72433305143293" lon="12.74784321979357"><ele>703.0</ele><time>2026-04-19T12:06:16.999Z</time></trkpt><trkpt lat="42.72421704066732" lon="12.747844391030618"><ele>703.0</ele><time>2026-04-19T12:06:18.999Z</time></trkpt><trkpt lat="42.72415497226965" lon="12.747873854240048"><ele>703.0</ele><time>2026-04-19T12:06:19.998Z</time></trkpt><trkpt lat="42.72408845030025" lon="12.747872359083743"><ele>703.0</ele><time>2026-04-19T12:06:20.998Z</time></trkpt><trkpt lat="42.724018931849365" lon="12.747868997783964"><ele>703.0</ele><time>2026-04-19T12:06:21.998Z</time></trkpt><trkpt lat="42.72395144982942" lon="12.747865808369614"><ele>703.0</ele><time>2026-04-19T12:06:22.998Z</time></trkpt><trkpt lat="42.723888151609096" lon="12.747832275675451"><ele>703.0</ele><time>2026-04-19T12:06:23.998Z</time></trkpt><trkpt lat="42.72382115994835" lon="12.747834798214953"><ele>703.0</ele><time>2026-04-19T12:06:24.998Z</time></trkpt><trkpt lat="42.72375602514012" lon="12.74782014201823"><ele>703.0</ele><time>2026-04-19T12:06:26Z</time></trkpt><trkpt lat="42.72368812149019" lon="12.74780506642449"><ele>703.0</ele><time>2026-04-19T12:06:27Z</time></trkpt><trkpt lat="42.723624129406545" lon="12.747768993264563"><ele>703.0</ele><time>2026-04-19T12:06:28Z</time></trkpt><trkpt lat="42.72355589111243" lon="12.747756941074432"><ele>703.0</ele><time>2026-04-19T12:06:29Z</time></trkpt><trkpt lat="42.72348857736908" lon="12.747768604823019"><ele>703.0</ele><time>2026-04-19T12:06:30Z</time></trkpt><trkpt lat="42.72342053033678" lon="12.747768199503133"><ele>703.0</ele><time>2026-04-19T12:06:31Z</time></trkpt><trkpt lat="42.72335498008365" lon="12.747772837905304"><ele>703.0</ele><time>2026-04-19T12:06:32Z</time></trkpt><trkpt lat="42.7232881938031" lon="12.74777126888241"><ele>702.4285714285714</ele><time>2026-04-19T12:06:33Z</time></trkpt><trkpt lat="42.72322068583434" lon="12.747770365994564"><ele>701.8571428571429</ele><time>2026-04-19T12:06:34Z</time></trkpt><trkpt lat="42.72315175118812" lon="12.74777104943147"><ele>701.2857142857142</ele><time>2026-04-19T12:06:35Z</time></trkpt><trkpt lat="42.723080595905344" lon="12.74777112967146"><ele>700.7142857142858</ele><time>2026-04-19T12:06:36Z</time></trkpt><trkpt lat="42.72301221204706" lon="12.747747515118"><ele>700.1428571428572</ele><time>2026-04-19T12:06:37Z</time></trkpt><trkpt lat="42.72294287004135" lon="12.747776846538581"><ele>699.5714285714286</ele><time>2026-04-19T12:06:38Z</time></trkpt><trkpt lat="42.72287270291579" lon="12.747796269350076"><ele>699.0</ele><time>2026-04-19T12:06:39Z</time></trkpt><trkpt lat="42.72280460731947" lon="12.747829718712879"><ele>699.0</ele><time>2026-04-19T12:06:40Z</time></trkpt><trkpt lat="42.72273714214851" lon="12.747875409289877"><ele>699.0</ele><time>2026-04-19T12:06:41Z</time></trkpt><trkpt lat="42.722670177721746" lon="12.747918584750808"><ele>699.0</ele><time>2026-04-19T12:06:42Z</time></trkpt><trkpt lat="42.72259152601445" lon="12.747915203771838"><ele>699.0</ele><time>2026-04-19T12:06:43Z</time></trkpt><trkpt lat="42.72251179058308" lon="12.747925321491257"><ele>699.0</ele><time>2026-04-19T12:06:44Z</time></trkpt><trkpt lat="42.72242904174688" lon="12.747932563928275"><ele>699.0</ele><time>2026-04-19T12:06:45Z</time></trkpt><trkpt lat="42.722344567756515" lon="12.747957175201723"><ele>696.0</ele><time>2026-04-19T12:06:46Z</time></trkpt><trkpt lat="42.72226089172552" lon="12.74793477975062"><ele>693.0</ele><time>2026-04-19T12:06:47Z</time></trkpt><trkpt lat="42.72217983148822" lon="12.74792309672952"><ele>690.0</ele><time>2026-04-19T12:06:48Z</time></trkpt><trkpt lat="42.72209145970407" lon="12.747921712294856"><ele>687.0</ele><time>2026-04-19T12:06:49Z</time></trkpt><trkpt lat="42.722004509778905" lon="12.74797814483701"><ele>684.0</ele><time>2026-04-19T12:06:50Z</time></trkpt><trkpt lat="42.721919987748244" lon="12.748018858754772"><ele>681.0</ele><time>2026-04-19T12:06:51Z</time></trkpt><trkpt lat="42.72183981093697" lon="12.748066568056545"><ele>679.1666666666666</ele><time>2026-04-19T12:06:52Z</time></trkpt><trkpt lat="42.72175967959646" lon="12.7481102050113"><ele>677.3333333333334</ele><time>2026-04-19T12:06:53Z</time></trkpt><trkpt lat="42.721683000526326" lon="12.74814333045981"><ele>675.5</ele><time>2026-04-19T12:06:54Z</time></trkpt><trkpt lat="42.721609712192155" lon="12.748146118175615"><ele>673.6666666666667</ele><time>2026-04-19T12:06:55Z</time></trkpt><trkpt lat="42.72154607945919" lon="12.748128300899742"><ele>671.8333333333334</ele><time>2026-04-19T12:06:56Z</time></trkpt><trkpt lat="42.721510878556195" lon="12.748052210852043"><ele>670.0</ele><time>2026-04-19T12:06:57Z</time></trkpt><trkpt lat="42.72145506202241" lon="12.747919112433694"><ele>670.0</ele><time>2026-04-19T12:06:59Z</time></trkpt><trkpt lat="42.721442741407216" lon="12.74775933705455"><ele>670.0</ele><time>2026-04-19T12:07:01Z</time></trkpt><trkpt lat="42.721490413055655" lon="12.747694367153033"><ele>670.0</ele><time>2026-04-19T12:07:02Z</time></trkpt><trkpt lat="42.72153127362101" lon="12.747623111172635"><ele>670.0</ele><time>2026-04-19T12:07:03Z</time></trkpt><trkpt lat="42.72157444997379" lon="12.747550409376517"><ele>670.0</ele><time>2026-04-19T12:07:04Z</time></trkpt><trkpt lat="42.72161596499802" lon="12.74746093298301"><ele>670.0</ele><time>2026-04-19T12:07:05Z</time></trkpt><trkpt lat="42.72167370310888" lon="12.747381531657725"><ele>667.8</ele><time>2026-04-19T12:07:06Z</time></trkpt><trkpt lat="42.72173356707503" lon="12.747296241792602"><ele>665.6</ele><time>2026-04-19T12:07:07Z</time></trkpt><trkpt lat="42.72180162632269" lon="12.747210828681274"><ele>663.4000000000001</ele><time>2026-04-19T12:07:08Z</time></trkpt><trkpt lat="42.72187132084226" lon="12.747127406811813"><ele>661.2</ele><time>2026-04-19T12:07:09Z</time></trkpt><trkpt lat="42.72194038444491" lon="12.747036841020982"><ele>659.0</ele><time>2026-04-19T12:07:10Z</time></trkpt><trkpt lat="42.7220072898628" lon="12.746938506108098"><ele>654.6</ele><time>2026-04-19T12:07:11Z</time></trkpt><trkpt lat="42.72208583044626" lon="12.746849083826527"><ele>650.2</ele><time>2026-04-19T12:07:12Z</time></trkpt><trkpt lat="42.722149311595736" lon="12.746744362701742"><ele>645.8000000000001</ele><time>2026-04-19T12:07:12.999Z</time></trkpt><trkpt lat="42.72220909553626" lon="12.746645217461104"><ele>641.4000000000001</ele><time>2026-04-19T12:07:13.999Z</time></trkpt><trkpt lat="42.72226646877909" lon="12.746548715805549"><ele>637.0</ele><time>2026-04-19T12:07:14.999Z</time></trkpt><trkpt lat="42.72232305611209" lon="12.746461117354565"><ele>637.0</ele><time>2026-04-19T12:07:15.999Z</time></trkpt><trkpt lat="42.72238090726967" lon="12.74638347016849"><ele>637.0</ele><time>2026-04-19T12:07:16.999Z</time></trkpt><trkpt lat="42.72243559436486" lon="12.746302606225036"><ele>637.0</ele><time>2026-04-19T12:07:17.999Z</time></trkpt><trkpt lat="42.72249004905693" lon="12.746221336829304"><ele>637.0</ele><time>2026-04-19T12:07:18.999Z</time></trkpt><trkpt lat="42.72254274249414" lon="12.74614487770522"><ele>637.0</ele><time>2026-04-19T12:07:19.999Z</time></trkpt><trkpt lat="42.722594973338545" lon="12.74607363302148"><ele>637.0</ele><time>2026-04-19T12:07:20.999Z</time></trkpt><trkpt lat="42.72264623243439" lon="12.746002066156336"><ele>639.3333333333334</ele><time>2026-04-19T12:07:21.999Z</time></trkpt><trkpt lat="42.7226941852744" lon="12.745933080981418"><ele>641.6666666666667</ele><time>2026-04-19T12:07:22.999Z</time></trkpt><trkpt lat="42.72273862737746" lon="12.74586438438863"><ele>644.0</ele><time>2026-04-19T12:07:23.999Z</time></trkpt><trkpt lat="42.72278036290176" lon="12.745796028834006"><ele>646.3333333333334</ele><time>2026-04-19T12:07:24.999Z</time></trkpt><trkpt lat="42.72286049581026" lon="12.745664280925672"><ele>648.6666666666666</ele><time>2026-04-19T12:07:26.999Z</time></trkpt><trkpt lat="42.722898897578396" lon="12.745593482404454"><ele>651.0</ele><time>2026-04-19T12:07:27.999Z</time></trkpt><trkpt lat="42.72292820280859" lon="12.745517345638758"><ele>641.25</ele><time>2026-04-19T12:07:28.999Z</time></trkpt><trkpt lat="42.72297250960112" lon="12.745369320199845"><ele>631.5</ele><time>2026-04-19T12:07:30.999Z</time></trkpt><trkpt lat="42.72303145017496" lon="12.745231860336716"><ele>621.75</ele><time>2026-04-19T12:07:32.999Z</time></trkpt><trkpt lat="42.72305516851195" lon="12.745083304096463"><ele>612.0</ele><time>2026-04-19T12:07:34.999Z</time></trkpt><trkpt lat="42.72309581044107" lon="12.744936876095585"><ele>612.0</ele><time>2026-04-19T12:07:36.999Z</time></trkpt><trkpt lat="42.72308899775148" lon="12.744843737789754"><ele>612.0</ele><time>2026-04-19T12:07:37.999Z</time></trkpt><trkpt lat="42.72305495086158" lon="12.744767213736703"><ele>612.0</ele><time>2026-04-19T12:07:38.999Z</time></trkpt><trkpt lat="42.722997579925746" lon="12.744709462951942"><ele>612.0</ele><time>2026-04-19T12:07:39.999Z</time></trkpt><trkpt lat="42.722942888178075" lon="12.744666025611677"><ele>612.0</ele><time>2026-04-19T12:07:40.999Z</time></trkpt><trkpt lat="42.72282579374537" lon="12.744596253324241"><ele>612.0</ele><time>2026-04-19T12:07:42.999Z</time></trkpt><trkpt lat="42.72276036059726" lon="12.744562621382196"><ele>617.6666666666666</ele><time>2026-04-19T12:07:43.999Z</time></trkpt><trkpt lat="42.72268723419291" lon="12.744550747130614"><ele>623.3333333333334</ele><time>2026-04-19T12:07:44.999Z</time></trkpt><trkpt lat="42.722614429069004" lon="12.744519665998382"><ele>629.0</ele><time>2026-04-19T12:07:45.999Z</time></trkpt><trkpt lat="42.72254023989186" lon="12.744490112968831"><ele>634.6666666666667</ele><time>2026-04-19T12:07:46.999Z</time></trkpt><trkpt lat="42.72246308917655" lon="12.744460812664608"><ele>640.3333333333334</ele><time>2026-04-19T12:07:47.999Z</time></trkpt><trkpt lat="42.72237932763304" lon="12.744430919405755"><ele>646.0</ele><time>2026-04-19T12:07:48.999Z</time></trkpt><trkpt lat="42.7222960238111" lon="12.744403307775949"><ele>641.5999999999999</ele><time>2026-04-19T12:07:49.999Z</time></trkpt><trkpt lat="42.722213820676" lon="12.744378225566955"><ele>637.1999999999999</ele><time>2026-04-19T12:07:50.999Z</time></trkpt><trkpt lat="42.7221273299328" lon="12.744346601465038"><ele>632.8</ele><time>2026-04-19T12:07:51.999Z</time></trkpt><trkpt lat="42.72203652757304" lon="12.744306882778119"><ele>628.4</ele><time>2026-04-19T12:07:52.999Z</time></trkpt><trkpt lat="42.72194755308554" lon="12.744263226845657"><ele>624.0</ele><time>2026-04-19T12:07:53.999Z</time></trkpt><trkpt lat="42.72186030771442" lon="12.744214900672059"><ele>624.0</ele><time>2026-04-19T12:07:54.999Z</time></trkpt><trkpt lat="42.721775864409416" lon="12.744164498836504"><ele>624.0</ele><time>2026-04-19T12:07:55.999Z</time></trkpt><trkpt lat="42.72168654954949" lon="12.744107729027032"><ele>624.0</ele><time>2026-04-19T12:07:56.999Z</time></trkpt><trkpt lat="42.7215983550847" lon="12.744052078899712"><ele>624.0</ele><time>2026-04-19T12:07:57.999Z</time></trkpt><trkpt lat="42.72151093565903" lon="12.743998679764845"><ele>624.0</ele><time>2026-04-19T12:07:58.999Z</time></trkpt><trkpt lat="42.72142083663357" lon="12.743944401106399"><ele>624.0</ele><time>2026-04-19T12:07:59.999Z</time></trkpt><trkpt lat="42.721341260957125" lon="12.743870020794189"><ele>624.0</ele><time>2026-04-19T12:08:00.999Z</time></trkpt><trkpt lat="42.721247983880716" lon="12.743834727960943"><ele>624.0</ele><time>2026-04-19T12:08:01.999Z</time></trkpt><trkpt lat="42.721165139029175" lon="12.743780016731476"><ele>624.0</ele><time>2026-04-19T12:08:02.999Z</time></trkpt><trkpt lat="42.721081321912635" lon="12.743723806913264"><ele>624.0</ele><time>2026-04-19T12:08:03.999Z</time></trkpt><trkpt lat="42.72099765955144" lon="12.743664911519904"><ele>622.1666666666666</ele><time>2026-04-19T12:08:04.999Z</time></trkpt><trkpt lat="42.720919287521326" lon="12.74360397469743"><ele>620.3333333333334</ele><time>2026-04-19T12:08:05.999Z</time></trkpt><trkpt lat="42.72084140882099" lon="12.743540500855861"><ele>618.5</ele><time>2026-04-19T12:08:06.999Z</time></trkpt><trkpt lat="42.72076561337927" lon="12.743479608648881"><ele>616.6666666666667</ele><time>2026-04-19T12:08:07.999Z</time></trkpt><trkpt lat="42.72069051974346" lon="12.743423308145472"><ele>614.8333333333334</ele><time>2026-04-19T12:08:08.999Z</time></trkpt><trkpt lat="42.72061551519626" lon="12.743365101527296"><ele>613.0</ele><time>2026-04-19T12:08:09.999Z</time></trkpt><trkpt lat="42.720546149620034" lon="12.743311214558373"><ele>613.0</ele><time>2026-04-19T12:08:10.999Z</time></trkpt><trkpt lat="42.72048292557495" lon="12.743235798033078"><ele>613.0</ele><time>2026-04-19T12:08:11.999Z</time></trkpt><trkpt lat="42.72042274499171" lon="12.743187537927863"><ele>613.0</ele><time>2026-04-19T12:08:12.999Z</time></trkpt><trkpt lat="42.720322369630814" lon="12.743128485570924"><ele>613.0</ele><time>2026-04-19T12:08:14.999Z</time></trkpt><trkpt lat="42.720289161236664" lon="12.743027558011445"><ele>613.0</ele><time>2026-04-19T12:08:16.999Z</time></trkpt><trkpt lat="42.72034786790461" lon="12.742946246801953"><ele>613.0</ele><time>2026-04-19T12:08:19.999Z</time></trkpt><trkpt lat="42.72041319752856" lon="12.742979858487141"><ele>613.0</ele><time>2026-04-19T12:08:21.999Z</time></trkpt><trkpt lat="42.72047460824799" lon="12.743057715911768"><ele>613.0</ele><time>2026-04-19T12:08:23.999Z</time></trkpt><trkpt lat="42.72054442707253" lon="12.743139039272656"><ele>613.0</ele><time>2026-04-19T12:08:25.999Z</time></trkpt><trkpt lat="42.720638199450285" lon="12.743207074631918"><ele>613.0</ele><time>2026-04-19T12:08:27.999Z</time></trkpt><trkpt lat="42.720698860864516" lon="12.743239858506964"><ele>613.0</ele><time>2026-04-19T12:08:28.998Z</time></trkpt><trkpt lat="42.720813024161444" lon="12.743298815023316"><ele>613.0</ele><time>2026-04-19T12:08:30.998Z</time></trkpt><trkpt lat="42.72087839988128" lon="12.743325948266145"><ele>613.0</ele><time>2026-04-19T12:08:32Z</time></trkpt><trkpt lat="42.720947506966375" lon="12.743358698633559"><ele>613.0</ele><time>2026-04-19T12:08:33Z</time></trkpt><trkpt lat="42.721017796113834" lon="12.743387433481963"><ele>613.0</ele><time>2026-04-19T12:08:34Z</time></trkpt><trkpt lat="42.7210975555526" lon="12.743411811897982"><ele>613.0</ele><time>2026-04-19T12:08:35Z</time></trkpt><trkpt lat="42.72117510667426" lon="12.743437872040587"><ele>613.0</ele><time>2026-04-19T12:08:36Z</time></trkpt><trkpt lat="42.72126126963504" lon="12.743471556328217"><ele>615.1999999999999</ele><time>2026-04-19T12:08:37Z</time></trkpt><trkpt lat="42.72134579362864" lon="12.74350496097819"><ele>617.4</ele><time>2026-04-19T12:08:38Z</time></trkpt><trkpt lat="42.72143245461007" lon="12.743538786656844"><ele>619.5999999999999</ele><time>2026-04-19T12:08:39Z</time></trkpt><trkpt lat="42.72152175863127" lon="12.743572747937769"><ele>621.8</ele><time>2026-04-19T12:08:40Z</time></trkpt><trkpt lat="42.72160896117806" lon="12.743603584029685"><ele>624.0</ele><time>2026-04-19T12:08:41Z</time></trkpt><trkpt lat="42.72169631639821" lon="12.743635375760757"><ele>624.0</ele><time>2026-04-19T12:08:42Z</time></trkpt><trkpt lat="42.721780306265806" lon="12.743667555974866"><ele>624.0</ele><time>2026-04-19T12:08:43Z</time></trkpt><trkpt lat="42.72186092444619" lon="12.743698917201886"><ele>624.0</ele><time>2026-04-19T12:08:44Z</time></trkpt><trkpt lat="42.72194457399608" lon="12.743729761028149"><ele>624.0</ele><time>2026-04-19T12:08:45Z</time></trkpt><trkpt lat="42.722022634796716" lon="12.743754559057207"><ele>624.0</ele><time>2026-04-19T12:08:46Z</time></trkpt><trkpt lat="42.72210511447706" lon="12.743768200117167"><ele>624.0</ele><time>2026-04-19T12:08:47Z</time></trkpt><trkpt lat="42.722192261519474" lon="12.743775558639582"><ele>622.1666666666666</ele><time>2026-04-19T12:08:48Z</time></trkpt><trkpt lat="42.722279892195914" lon="12.74377500991135"><ele>620.3333333333334</ele><time>2026-04-19T12:08:49Z</time></trkpt><trkpt lat="42.72236768049577" lon="12.743772016964984"><ele>618.5</ele><time>2026-04-19T12:08:50Z</time></trkpt><trkpt lat="42.72245346526449" lon="12.743764306593535"><ele>616.6666666666667</ele><time>2026-04-19T12:08:51Z</time></trkpt><trkpt lat="42.722544100285525" lon="12.743757608969554"><ele>614.8333333333334</ele><time>2026-04-19T12:08:52Z</time></trkpt><trkpt lat="42.72263438970422" lon="12.743752683694911"><ele>613.0</ele><time>2026-04-19T12:08:53Z</time></trkpt><trkpt lat="42.722719804479965" lon="12.743748234328821"><ele>610.8333333333334</ele><time>2026-04-19T12:08:54Z</time></trkpt><trkpt lat="42.72281130701182" lon="12.743748035028965"><ele>608.6666666666667</ele><time>2026-04-19T12:08:55Z</time></trkpt><trkpt lat="42.7228973398692" lon="12.743760096781969"><ele>606.5</ele><time>2026-04-19T12:08:56Z</time></trkpt><trkpt lat="42.72298429860655" lon="12.743786242986424"><ele>604.3333333333334</ele><time>2026-04-19T12:08:57Z</time></trkpt><trkpt lat="42.723071442431056" lon="12.743820360196993"><ele>602.1666666666666</ele><time>2026-04-19T12:08:58Z</time></trkpt><trkpt lat="42.72315716652866" lon="12.743858094215252"><ele>600.0</ele><time>2026-04-19T12:08:59Z</time></trkpt><trkpt lat="42.72324107531497" lon="12.743879902791276"><ele>600.0</ele><time>2026-04-19T12:09:00Z</time></trkpt><trkpt lat="42.723330630349416" lon="12.743895166886103"><ele>600.0</ele><time>2026-04-19T12:09:01Z</time></trkpt><trkpt lat="42.723418833640345" lon="12.743906431991405"><ele>600.0</ele><time>2026-04-19T12:09:02Z</time></trkpt><trkpt lat="42.723505752034136" lon="12.743909695295432"><ele>600.0</ele><time>2026-04-19T12:09:03Z</time></trkpt><trkpt lat="42.72359492972884" lon="12.743908919418155"><ele>600.0</ele><time>2026-04-19T12:09:04Z</time></trkpt><trkpt lat="42.723687140302616" lon="12.743907934534455"><ele>600.0</ele><time>2026-04-19T12:09:05Z</time></trkpt><trkpt lat="42.723774919333835" lon="12.743908733601971"><ele>596.6666666666666</ele><time>2026-04-19T12:09:06Z</time></trkpt><trkpt lat="42.723865161105586" lon="12.743910438405818"><ele>593.3333333333334</ele><time>2026-04-19T12:09:07Z</time></trkpt><trkpt lat="42.72395433052434" lon="12.743917774427725"><ele>590.0</ele><time>2026-04-19T12:09:08Z</time></trkpt><trkpt lat="42.72404030725228" lon="12.743933357545306"><ele>586.6666666666667</ele><time>2026-04-19T12:09:09Z</time></trkpt><trkpt lat="42.724119586259434" lon="12.743955292111723"><ele>583.3333333333334</ele><time>2026-04-19T12:09:10Z</time></trkpt><trkpt lat="42.72418638001573" lon="12.743980807023298"><ele>580.0</ele><time>2026-04-19T12:09:11Z</time></trkpt><trkpt lat="42.724278011724785" lon="12.744055459898057"><ele>580.0</ele><time>2026-04-19T12:09:13Z</time></trkpt><trkpt lat="42.724337490443276" lon="12.74416029138256"><ele>580.0</ele><time>2026-04-19T12:09:15Z</time></trkpt><trkpt lat="42.72431050437423" lon="12.744307727981495"><ele>580.0</ele><time>2026-04-19T12:09:17Z</time></trkpt><trkpt lat="42.72425748002714" lon="12.744436234278922"><ele>580.0</ele><time>2026-04-19T12:09:19Z</time></trkpt><trkpt lat="42.724185101276866" lon="12.744558045740725"><ele>580.0</ele><time>2026-04-19T12:09:21Z</time></trkpt><trkpt lat="42.72414385363974" lon="12.744626148307551"><ele>578.5714285714286</ele><time>2026-04-19T12:09:21.999Z</time></trkpt><trkpt lat="42.724101295435716" lon="12.744690486856673"><ele>577.1428571428572</ele><time>2026-04-19T12:09:22.999Z</time></trkpt><trkpt lat="42.72405045426877" lon="12.744751157556136"><ele>575.7142857142858</ele><time>2026-04-19T12:09:23.999Z</time></trkpt><trkpt lat="42.72400025655143" lon="12.744811840712066"><ele>574.2857142857143</ele><time>2026-04-19T12:09:24.999Z</time></trkpt><trkpt lat="42.72394884058245" lon="12.744875445908551"><ele>572.8571428571429</ele><time>2026-04-19T12:09:25.999Z</time></trkpt><trkpt lat="42.72389741137658" lon="12.744942063540424"><ele>571.4285714285714</ele><time>2026-04-19T12:09:26.999Z</time></trkpt><trkpt lat="42.723843462681955" lon="12.74501997478151"><ele>570.0</ele><time>2026-04-19T12:09:27.999Z</time></trkpt><trkpt lat="42.72380395301301" lon="12.74510143604341"><ele>570.0</ele><time>2026-04-19T12:09:28.999Z</time></trkpt><trkpt lat="42.72376986587614" lon="12.745186217960754"><ele>570.0</ele><time>2026-04-19T12:09:29.999Z</time></trkpt><trkpt lat="42.72374735060161" lon="12.745273227290868"><ele>570.0</ele><time>2026-04-19T12:09:30.999Z</time></trkpt><trkpt lat="42.723735131345464" lon="12.74536934068459"><ele>570.0</ele><time>2026-04-19T12:09:31.999Z</time></trkpt><trkpt lat="42.72373023194387" lon="12.745457922842146"><ele>570.0</ele><time>2026-04-19T12:09:32.999Z</time></trkpt><trkpt lat="42.72373375208757" lon="12.745623271348938"><ele>570.0</ele><time>2026-04-19T12:09:34.999Z</time></trkpt><trkpt lat="42.72375886072038" lon="12.74577473110788"><ele>572.2</ele><time>2026-04-19T12:09:36.999Z</time></trkpt><trkpt lat="42.72379880410301" lon="12.745897014644108"><ele>574.4</ele><time>2026-04-19T12:09:38.999Z</time></trkpt><trkpt lat="42.7238425274386" lon="12.746010868502125"><ele>576.6</ele><time>2026-04-19T12:09:40.999Z</time></trkpt><trkpt lat="42.72390704728167" lon="12.746091751845329"><ele>578.8</ele><time>2026-04-19T12:09:42.999Z</time></trkpt><trkpt lat="42.72398594777218" lon="12.746133949522775"><ele>581.0</ele><time>2026-04-19T12:09:44.999Z</time></trkpt><trkpt lat="42.72406097373269" lon="12.746033921755755"><ele>581.0</ele><time>2026-04-19T12:09:46.999Z</time></trkpt><trkpt lat="42.724063934022745" lon="12.745948288677825"><ele>581.0</ele><time>2026-04-19T12:09:47.999Z</time></trkpt><trkpt lat="42.7239878658379" lon="12.745849303738888"><ele>581.0</ele><time>2026-04-19T12:09:49.999Z</time></trkpt><trkpt lat="42.723902448977896" lon="12.745825070434783"><ele>581.0</ele><time>2026-04-19T12:09:51.999Z</time></trkpt><trkpt lat="42.723871691081584" lon="12.745717289153678"><ele>581.0</ele><time>2026-04-19T12:09:53.999Z</time></trkpt><trkpt lat="42.72386385207893" lon="12.745584716508594"><ele>581.0</ele><time>2026-04-19T12:09:55.999Z</time></trkpt><trkpt lat="42.72387931924523" lon="12.745423134453269"><ele>581.0</ele><time>2026-04-19T12:09:57.999Z</time></trkpt><trkpt lat="42.723902216651055" lon="12.745342382137515"><ele>581.0</ele><time>2026-04-19T12:09:58.999Z</time></trkpt><trkpt lat="42.72393633595653" lon="12.745257280668321"><ele>581.0</ele><time>2026-04-19T12:09:59.999Z</time></trkpt><trkpt lat="42.72398030703767" lon="12.745180045691264"><ele>581.0</ele><time>2026-04-19T12:10:00.999Z</time></trkpt><trkpt lat="42.72402308422865" lon="12.74509132498554"><ele>581.0</ele><time>2026-04-19T12:10:01.999Z</time></trkpt><trkpt lat="42.72408331152736" lon="12.745026603630754"><ele>581.0</ele><time>2026-04-19T12:10:02.999Z</time></trkpt><trkpt lat="42.72414147542685" lon="12.744969189347733"><ele>581.0</ele><time>2026-04-19T12:10:03.999Z</time></trkpt><trkpt lat="42.72420016653707" lon="12.744913547971958"><ele>579.4285714285714</ele><time>2026-04-19T12:10:04.999Z</time></trkpt><trkpt lat="42.72425615350055" lon="12.744860210290613"><ele>577.8571428571429</ele><time>2026-04-19T12:10:05.999Z</time></trkpt><trkpt lat="42.72431072916407" lon="12.744810667436575"><ele>576.2857142857142</ele><time>2026-04-19T12:10:06.999Z</time></trkpt><trkpt lat="42.72436993013493" lon="12.744772984112677"><ele>574.7142857142858</ele><time>2026-04-19T12:10:07.999Z</time></trkpt><trkpt lat="42.72443565732381" lon="12.744748666272539"><ele>573.1428571428571</ele><time>2026-04-19T12:10:08.999Z</time></trkpt><trkpt lat="42.72450199111103" lon="12.744726598629738"><ele>571.5714285714286</ele><time>2026-04-19T12:10:09.999Z</time></trkpt><trkpt lat="42.724567777786895" lon="12.74469314948689"><ele>570.0</ele><time>2026-04-19T12:10:10.999Z</time></trkpt><trkpt lat="42.72462735787553" lon="12.744637509698398"><ele>565.5</ele><time>2026-04-19T12:10:11.999Z</time></trkpt><trkpt lat="42.72467746093052" lon="12.74456610486752"><ele>561.0</ele><time>2026-04-19T12:10:12.999Z</time></trkpt><trkpt lat="42.72471880634778" lon="12.744483498546325"><ele>556.5</ele><time>2026-04-19T12:10:13.999Z</time></trkpt><trkpt lat="42.724771891391526" lon="12.744408392662594"><ele>552.0</ele><time>2026-04-19T12:10:14.999Z</time></trkpt><trkpt lat="42.724802524270366" lon="12.74431162468424"><ele>547.5</ele><time>2026-04-19T12:10:15.999Z</time></trkpt><trkpt lat="42.72479041673379" lon="12.744201097577852"><ele>543.0</ele><time>2026-04-19T12:10:16.999Z</time></trkpt><trkpt lat="42.72479924309017" lon="12.744101810386494"><ele>543.0</ele><time>2026-04-19T12:10:17.999Z</time></trkpt><trkpt lat="42.724833344067655" lon="12.744008122115295"><ele>543.0</ele><time>2026-04-19T12:10:18.999Z</time></trkpt><trkpt lat="42.72485030645214" lon="12.74390834987267"><ele>543.0</ele><time>2026-04-19T12:10:19.999Z</time></trkpt><trkpt lat="42.72489458251701" lon="12.743825522903094"><ele>543.0</ele><time>2026-04-19T12:10:20.999Z</time></trkpt><trkpt lat="42.72494379342589" lon="12.743749576523879"><ele>543.0</ele><time>2026-04-19T12:10:21.999Z</time></trkpt><trkpt lat="42.72499397875231" lon="12.74367600775777"><ele>543.0</ele><time>2026-04-19T12:10:22.999Z</time></trkpt><trkpt lat="42.72503080040901" lon="12.743597173431999"><ele>543.0</ele><time>2026-04-19T12:10:23.999Z</time></trkpt><trkpt lat="42.72505214145901" lon="12.74351604406151"><ele>543.0</ele><time>2026-04-19T12:10:24.999Z</time></trkpt><trkpt lat="42.725065947882776" lon="12.743353247243855"><ele>543.0</ele><time>2026-04-19T12:10:26.999Z</time></trkpt><trkpt lat="42.72505680478567" lon="12.74322275920743"><ele>543.0</ele><time>2026-04-19T12:10:28.999Z</time></trkpt><trkpt lat="42.72504023409724" lon="12.743122079999887"><ele>543.0</ele><time>2026-04-19T12:10:30.999Z</time></trkpt><trkpt lat="42.724979390170944" lon="12.743083025669952"><ele>543.0</ele><time>2026-04-19T12:10:33.999Z</time></trkpt><trkpt lat="42.72489752189693" lon="12.743044223948454"><ele>543.0</ele><time>2026-04-19T12:10:49Z</time></trkpt><trkpt lat="42.72482839968116" lon="12.743029143190205"><ele>543.0</ele><time>2026-04-19T12:10:51Z</time></trkpt><trkpt lat="42.72474461425844" lon="12.74301086326649"><ele>543.0</ele><time>2026-04-19T12:10:53Z</time></trkpt><trkpt lat="42.7246494449721" lon="12.742988490895266"><ele>543.0</ele><time>2026-04-19T12:10:55Z</time></trkpt><trkpt lat="42.724546257101785" lon="12.742942393631935"><ele>543.0</ele><time>2026-04-19T12:10:57Z</time></trkpt><trkpt lat="42.72443487218232" lon="12.742873560966967"><ele>543.0</ele><time>2026-04-19T12:10:59Z</time></trkpt><trkpt lat="42.72437479466903" lon="12.742835091393765"><ele>540.5</ele><time>2026-04-19T12:11:00Z</time></trkpt><trkpt lat="42.72431340337808" lon="12.74279578047314"><ele>538.0</ele><time>2026-04-19T12:11:01Z</time></trkpt><trkpt lat="42.72424839524885" lon="12.74275415356466"><ele>535.5</ele><time>2026-04-19T12:11:02Z</time></trkpt><trkpt lat="42.72418035878072" lon="12.742710587487446"><ele>533.0</ele><time>2026-04-19T12:11:03Z</time></trkpt><trkpt lat="42.724111388121706" lon="12.74266642322896"><ele>530.5</ele><time>2026-04-19T12:11:04Z</time></trkpt><trkpt lat="42.72403923127472" lon="12.742620535351682"><ele>528.0</ele><time>2026-04-19T12:11:05Z</time></trkpt><trkpt lat="42.72396162035217" lon="12.742577674198731"><ele>528.0</ele><time>2026-04-19T12:11:06Z</time></trkpt><trkpt lat="42.72387499225752" lon="12.742565024296871"><ele>528.0</ele><time>2026-04-19T12:11:07Z</time></trkpt><trkpt lat="42.72379244953471" lon="12.742535446520126"><ele>528.0</ele><time>2026-04-19T12:11:08Z</time></trkpt><trkpt lat="42.72371045460956" lon="12.742496436816216"><ele>528.0</ele><time>2026-04-19T12:11:09Z</time></trkpt><trkpt lat="42.72362613952776" lon="12.742484472152384"><ele>528.0</ele><time>2026-04-19T12:11:10Z</time></trkpt><trkpt lat="42.72353871782302" lon="12.742472448834278"><ele>528.0</ele><time>2026-04-19T12:11:11Z</time></trkpt><trkpt lat="42.72345332432654" lon="12.742453216122424"><ele>528.8333333333334</ele><time>2026-04-19T12:11:12Z</time></trkpt><trkpt lat="42.72336665844456" lon="12.742424854385613"><ele>529.6666666666666</ele><time>2026-04-19T12:11:13Z</time></trkpt><trkpt lat="42.72327873789066" lon="12.742392724972522"><ele>530.5</ele><time>2026-04-19T12:11:14Z</time></trkpt><trkpt lat="42.723196378864266" lon="12.742354563809196"><ele>531.3333333333333</ele><time>2026-04-19T12:11:15Z</time></trkpt><trkpt lat="42.723109832205566" lon="12.742323497057129"><ele>532.1666666666666</ele><time>2026-04-19T12:11:16Z</time></trkpt><trkpt lat="42.72301733023503" lon="12.742325986849899"><ele>533.0</ele><time>2026-04-19T12:11:17Z</time></trkpt><trkpt lat="42.72292924985691" lon="12.742342591784984"><ele>533.0</ele><time>2026-04-19T12:11:18Z</time></trkpt><trkpt lat="42.72283835013536" lon="12.742360621481568"><ele>533.0</ele><time>2026-04-19T12:11:19Z</time></trkpt><trkpt lat="42.72275072208967" lon="12.74237872225695"><ele>533.0</ele><time>2026-04-19T12:11:20Z</time></trkpt><trkpt lat="42.722665430564724" lon="12.74239680661361"><ele>533.0</ele><time>2026-04-19T12:11:21Z</time></trkpt><trkpt lat="42.72259098066028" lon="12.742407450889855"><ele>533.0</ele><time>2026-04-19T12:11:22Z</time></trkpt><trkpt lat="42.72252721700127" lon="12.742409872692447"><ele>533.0</ele><time>2026-04-19T12:11:23Z</time></trkpt><trkpt lat="42.72244526602316" lon="12.742376904027015"><ele>533.0</ele><time>2026-04-19T12:11:24.999Z</time></trkpt><trkpt lat="42.722422060429565" lon="12.742295720762277"><ele>533.0</ele><time>2026-04-19T12:11:26.999Z</time></trkpt><trkpt lat="42.72251025868306" lon="12.742235411677576"><ele>533.0</ele><time>2026-04-19T12:11:28.999Z</time></trkpt><trkpt lat="42.72261287431847" lon="12.742278099908663"><ele>533.0</ele><time>2026-04-19T12:11:30.999Z</time></trkpt><trkpt lat="42.72272680126523" lon="12.742302705789298"><ele>533.0</ele><time>2026-04-19T12:11:32.999Z</time></trkpt><trkpt lat="42.72279177448161" lon="12.74228930107401"><ele>533.0</ele><time>2026-04-19T12:11:33.999Z</time></trkpt><trkpt lat="42.72285451097574" lon="12.742261631984366"><ele>533.0</ele><time>2026-04-19T12:11:34.999Z</time></trkpt><trkpt lat="42.722926107552674" lon="12.742249074432104"><ele>533.0</ele><time>2026-04-19T12:11:35.999Z</time></trkpt><trkpt lat="42.72299655195863" lon="12.742204114409212"><ele>533.0</ele><time>2026-04-19T12:11:36.999Z</time></trkpt><trkpt lat="42.723060032835114" lon="12.742141710506477"><ele>533.0</ele><time>2026-04-19T12:11:37.999Z</time></trkpt><trkpt lat="42.72313520393466" lon="12.742109592579473"><ele>533.0</ele><time>2026-04-19T12:11:38.999Z</time></trkpt><trkpt lat="42.72322013799854" lon="12.742098991126392"><ele>533.0</ele><time>2026-04-19T12:11:39.999Z</time></trkpt><trkpt lat="42.72330416103155" lon="12.742119770641427"><ele>533.0</ele><time>2026-04-19T12:11:40.999Z</time></trkpt><trkpt lat="42.723387582257544" lon="12.74214930136751"><ele>533.0</ele><time>2026-04-19T12:11:41.999Z</time></trkpt><trkpt lat="42.723478859221956" lon="12.74216085089192"><ele>533.0</ele><time>2026-04-19T12:11:42.999Z</time></trkpt><trkpt lat="42.7235675239498" lon="12.74215529119289"><ele>533.0</ele><time>2026-04-19T12:11:43.999Z</time></trkpt><trkpt lat="42.7236581337099" lon="12.742135890654769"><ele>533.0</ele><time>2026-04-19T12:11:44.999Z</time></trkpt><trkpt lat="42.72375399174837" lon="12.742139999345671"><ele>532.0</ele><time>2026-04-19T12:11:45.999Z</time></trkpt><trkpt lat="42.72385029621809" lon="12.742123633884207"><ele>531.0</ele><time>2026-04-19T12:11:46.999Z</time></trkpt><trkpt lat="42.72394819066024" lon="12.742087741363216"><ele>530.0</ele><time>2026-04-19T12:11:47.999Z</time></trkpt><trkpt lat="42.72404997603014" lon="12.742076699506743"><ele>529.0</ele><time>2026-04-19T12:11:48.999Z</time></trkpt><trkpt lat="42.72414996117933" lon="12.742076673815042"><ele>528.0</ele><time>2026-04-19T12:11:49.999Z</time></trkpt><trkpt lat="42.724248387825945" lon="12.742094237096957"><ele>528.0</ele><time>2026-04-19T12:11:50.999Z</time></trkpt><trkpt lat="42.724345385388084" lon="12.742123675192051"><ele>528.0</ele><time>2026-04-19T12:11:51.999Z</time></trkpt><trkpt lat="42.72444402642598" lon="12.742152316122842"><ele>528.0</ele><time>2026-04-19T12:11:52.999Z</time></trkpt><trkpt lat="42.72454306801991" lon="12.742183300882491"><ele>528.0</ele><time>2026-04-19T12:11:53.999Z</time></trkpt><trkpt lat="42.724640994357394" lon="12.74221311299179"><ele>528.0</ele><time>2026-04-19T12:11:54.999Z</time></trkpt><trkpt lat="42.724733232767775" lon="12.74223075435462"><ele>526.8</ele><time>2026-04-19T12:11:55.999Z</time></trkpt><trkpt lat="42.72482049274253" lon="12.742214947088845"><ele>525.5999999999999</ele><time>2026-04-19T12:11:56.999Z</time></trkpt><trkpt lat="42.724902148151074" lon="12.742163156381572"><ele>524.4000000000001</ele><time>2026-04-19T12:11:57.999Z</time></trkpt><trkpt lat="42.72497396805274" lon="12.742075604333746"><ele>523.2</ele><time>2026-04-19T12:11:58.999Z</time></trkpt><trkpt lat="42.72505888056732" lon="12.742005474549686"><ele>522.0</ele><time>2026-04-19T12:11:59.999Z</time></trkpt><trkpt lat="42.725131748575464" lon="12.741920294784626"><ele>517.0</ele><time>2026-04-19T12:12:00.999Z</time></trkpt><trkpt lat="42.72521064174739" lon="12.741841846607096"><ele>512.0</ele><time>2026-04-19T12:12:01.999Z</time></trkpt><trkpt lat="42.72528866249457" lon="12.741752450426908"><ele>507.00000000000006</ele><time>2026-04-19T12:12:02.999Z</time></trkpt><trkpt lat="42.72538437532415" lon="12.741702013864927"><ele>502.0</ele><time>2026-04-19T12:12:03.999Z</time></trkpt><trkpt lat="42.725478364604506" lon="12.741662703177868"><ele>497.0</ele><time>2026-04-19T12:12:04.999Z</time></trkpt><trkpt lat="42.725572486359916" lon="12.741635068872176"><ele>496.6</ele><time>2026-04-19T12:12:05.999Z</time></trkpt><trkpt lat="42.72566743897707" lon="12.741633527967911"><ele>496.20000000000005</ele><time>2026-04-19T12:12:06.999Z</time></trkpt><trkpt lat="42.72575941716154" lon="12.741654409446296"><ele>495.8</ele><time>2026-04-19T12:12:07.999Z</time></trkpt><trkpt lat="42.72584595681597" lon="12.741707955950504"><ele>495.4</ele><time>2026-04-19T12:12:08.999Z</time></trkpt><trkpt lat="42.72592536186826" lon="12.741782570951846"><ele>495.0</ele><time>2026-04-19T12:12:09.999Z</time></trkpt><trkpt lat="42.72600381969907" lon="12.741864035251515"><ele>492.3333333333333</ele><time>2026-04-19T12:12:10.999Z</time></trkpt><trkpt lat="42.72608148548264" lon="12.741948819124557"><ele>489.66666666666663</ele><time>2026-04-19T12:12:11.999Z</time></trkpt><trkpt lat="42.72614544851722" lon="12.742031848113978"><ele>487.0</ele><time>2026-04-19T12:12:12.999Z</time></trkpt><trkpt lat="42.72620159360761" lon="12.7421167319691"><ele>484.3333333333333</ele><time>2026-04-19T12:12:13.999Z</time></trkpt><trkpt lat="42.726255332261495" lon="12.742195018629413"><ele>481.66666666666663</ele><time>2026-04-19T12:12:14.999Z</time></trkpt><trkpt lat="42.726291598908894" lon="12.74227878044808"><ele>479.0</ele><time>2026-04-19T12:12:15.999Z</time></trkpt><trkpt lat="42.72630704031325" lon="12.742370507557482"><ele>479.0</ele><time>2026-04-19T12:12:16.999Z</time></trkpt><trkpt lat="42.72633241216562" lon="12.742507489434841"><ele>479.0</ele><time>2026-04-19T12:12:18.999Z</time></trkpt><trkpt lat="42.72642096995046" lon="12.742569980187092"><ele>479.0</ele><time>2026-04-19T12:12:20.999Z</time></trkpt><trkpt lat="42.72650398207733" lon="12.742517203349376"><ele>479.0</ele><time>2026-04-19T12:12:22.999Z</time></trkpt><trkpt lat="42.72655597357214" lon="12.742392292163709"><ele>479.0</ele><time>2026-04-19T12:12:24.999Z</time></trkpt><trkpt lat="42.726521027125436" lon="12.742305692880004"><ele>479.0</ele><time>2026-04-19T12:12:25.999Z</time></trkpt><trkpt lat="42.7264452630294" lon="12.742186370432686"><ele>479.0</ele><time>2026-04-19T12:12:27.999Z</time></trkpt><trkpt lat="42.72636870275128" lon="12.742072329519432"><ele>479.0</ele><time>2026-04-19T12:12:29.999Z</time></trkpt><trkpt lat="42.72628157846329" lon="12.741947286725638"><ele>479.0</ele><time>2026-04-19T12:12:31.999Z</time></trkpt><trkpt lat="42.726232697971966" lon="12.741877152081585"><ele>479.0</ele><time>2026-04-19T12:12:32.999Z</time></trkpt><trkpt lat="42.72618827049448" lon="12.741802238862583"><ele>476.99999999999994</ele><time>2026-04-19T12:12:33.999Z</time></trkpt><trkpt lat="42.72614049344005" lon="12.741721678063442"><ele>475.0</ele><time>2026-04-19T12:12:34.999Z</time></trkpt><trkpt lat="42.726089998843634" lon="12.741636738468282"><ele>473.0</ele><time>2026-04-19T12:12:35.999Z</time></trkpt><trkpt lat="42.72604066473865" lon="12.741555276333054"><ele>471.0</ele><time>2026-04-19T12:12:36.999Z</time></trkpt><trkpt lat="42.72598724027165" lon="12.741467197011342"><ele>468.99999999999994</ele><time>2026-04-19T12:12:37.999Z</time></trkpt><trkpt lat="42.72593192074817" lon="12.741376932235239"><ele>467.0</ele><time>2026-04-19T12:12:38.998Z</time></trkpt><trkpt lat="42.72587324378425" lon="12.741282370555716"><ele>471.66666666666663</ele><time>2026-04-19T12:12:39.998Z</time></trkpt><trkpt lat="42.725818807943234" lon="12.741195602508155"><ele>476.3333333333333</ele><time>2026-04-19T12:12:40.998Z</time></trkpt><trkpt lat="42.725752134469566" lon="12.741120863696802"><ele>481.0</ele><time>2026-04-19T12:12:41.998Z</time></trkpt><trkpt lat="42.72566945669435" lon="12.741088828834188"><ele>485.66666666666663</ele><time>2026-04-19T12:12:42.998Z</time></trkpt><trkpt lat="42.72558286729998" lon="12.741115706870598"><ele>490.3333333333333</ele><time>2026-04-19T12:12:44Z</time></trkpt><trkpt lat="42.72550071567765" lon="12.741129034473051"><ele>495.0</ele><time>2026-04-19T12:12:45Z</time></trkpt><trkpt lat="42.72541507860573" lon="12.741134449069746"><ele>495.0</ele><time>2026-04-19T12:12:46Z</time></trkpt><trkpt lat="42.72533223410847" lon="12.741163329255285"><ele>495.0</ele><time>2026-04-19T12:12:47Z</time></trkpt><trkpt lat="42.72524711608118" lon="12.741196947318862"><ele>495.0</ele><time>2026-04-19T12:12:48Z</time></trkpt><trkpt lat="42.725161689632365" lon="12.741247319363682"><ele>495.0</ele><time>2026-04-19T12:12:49Z</time></trkpt><trkpt lat="42.72507373263689" lon="12.741281271253278"><ele>495.0</ele><time>2026-04-19T12:12:50Z</time></trkpt><trkpt lat="42.72498321130091" lon="12.741296163882415"><ele>495.4</ele><time>2026-04-19T12:12:51Z</time></trkpt><trkpt lat="42.724903276381404" lon="12.741343116192219"><ele>495.8</ele><time>2026-04-19T12:12:52Z</time></trkpt><trkpt lat="42.724849654702815" lon="12.741413285992746"><ele>496.20000000000005</ele><time>2026-04-19T12:12:53Z</time></trkpt><trkpt lat="42.724738336729466" lon="12.741475429396996"><ele>496.6</ele><time>2026-04-19T12:12:55Z</time></trkpt><trkpt lat="42.72464278862275" lon="12.741423034029152"><ele>497.0</ele><time>2026-04-19T12:12:57Z</time></trkpt><trkpt lat="42.724628217917115" lon="12.741280083697454"><ele>496.99999999999994</ele><time>2026-04-19T12:13:00Z</time></trkpt><trkpt lat="42.72469740846066" lon="12.741219470709707"><ele>497.0</ele><time>2026-04-19T12:13:02Z</time></trkpt><trkpt lat="42.72480702455503" lon="12.74119270138414"><ele>497.0</ele><time>2026-04-19T12:13:04Z</time></trkpt><trkpt lat="42.72492094600159" lon="12.741161228429112"><ele>497.0</ele><time>2026-04-19T12:13:06Z</time></trkpt><trkpt lat="42.724981967688684" lon="12.741137897610606"><ele>496.99999999999994</ele><time>2026-04-19T12:13:07Z</time></trkpt><trkpt lat="42.72504548128297" lon="12.74111640722741"><ele>497.0</ele><time>2026-04-19T12:13:08Z</time></trkpt><trkpt lat="42.725108004070805" lon="12.741090048776696"><ele>496.99999999999994</ele><time>2026-04-19T12:13:09Z</time></trkpt><trkpt lat="42.72517358078484" lon="12.741059900454148"><ele>497.0</ele><time>2026-04-19T12:13:10Z</time></trkpt><trkpt lat="42.72524193492097" lon="12.741024728107481"><ele>497.0</ele><time>2026-04-19T12:13:11Z</time></trkpt><trkpt lat="42.725310634667544" lon="12.740989858723989"><ele>497.0</ele><time>2026-04-19T12:13:12Z</time></trkpt><trkpt lat="42.7253833827925" lon="12.740951843058742"><ele>496.99999999999994</ele><time>2026-04-19T12:13:13Z</time></trkpt><trkpt lat="42.72545588376349" lon="12.740916868826814"><ele>497.0</ele><time>2026-04-19T12:13:14Z</time></trkpt><trkpt lat="42.725536480879654" lon="12.740886005883318"><ele>492.66666666666663</ele><time>2026-04-19T12:13:15Z</time></trkpt><trkpt lat="42.72561847779312" lon="12.740850321368004"><ele>488.3333333333333</ele><time>2026-04-19T12:13:16Z</time></trkpt><trkpt lat="42.72570242409307" lon="12.740818670994214"><ele>484.0</ele><time>2026-04-19T12:13:17Z</time></trkpt><trkpt lat="42.725790713846095" lon="12.740787190007516"><ele>479.66666666666663</ele><time>2026-04-19T12:13:18Z</time></trkpt><trkpt lat="42.725874254459974" lon="12.740762831375415"><ele>475.3333333333333</ele><time>2026-04-19T12:13:19Z</time></trkpt><trkpt lat="42.72594812078311" lon="12.740766742319883"><ele>471.0</ele><time>2026-04-19T12:13:20Z</time></trkpt><trkpt lat="42.72601391505004" lon="12.740812472731315"><ele>471.0</ele><time>2026-04-19T12:13:21Z</time></trkpt><trkpt lat="42.726061321746535" lon="12.740896995897861"><ele>471.0</ele><time>2026-04-19T12:13:22Z</time></trkpt><trkpt lat="42.72609419741602" lon="12.740997496119352"><ele>471.0</ele><time>2026-04-19T12:13:23Z</time></trkpt><trkpt lat="42.72612922506173" lon="12.74109484129818"><ele>471.0</ele><time>2026-04-19T12:13:24Z</time></trkpt><trkpt lat="42.726182288205855" lon="12.741180030858473"><ele>471.0</ele><time>2026-04-19T12:13:25Z</time></trkpt><trkpt lat="42.72625018450618" lon="12.74125931241554"><ele>471.0</ele><time>2026-04-19T12:13:26Z</time></trkpt><trkpt lat="42.726321497381335" lon="12.74133222621085"><ele>470.20000000000005</ele><time>2026-04-19T12:13:27Z</time></trkpt><trkpt lat="42.726389710472816" lon="12.741406641562248"><ele>469.40000000000003</ele><time>2026-04-19T12:13:28Z</time></trkpt><trkpt lat="42.726463543799795" lon="12.741485354694625"><ele>468.6</ele><time>2026-04-19T12:13:29Z</time></trkpt><trkpt lat="42.72653360167112" lon="12.74156509185773"><ele>467.8</ele><time>2026-04-19T12:13:30Z</time></trkpt><trkpt lat="42.726611671262496" lon="12.741633639204338"><ele>467.0</ele><time>2026-04-19T12:13:30.999Z</time></trkpt><trkpt lat="42.72670060603891" lon="12.741681760934203"><ele>467.0</ele><time>2026-04-19T12:13:31.999Z</time></trkpt><trkpt lat="42.72679426779162" lon="12.741721746387135"><ele>467.00000000000006</ele><time>2026-04-19T12:13:32.999Z</time></trkpt><trkpt lat="42.72689032711742" lon="12.741760133809015"><ele>467.00000000000006</ele><time>2026-04-19T12:13:33.999Z</time></trkpt><trkpt lat="42.72698830650728" lon="12.741798960772835"><ele>467.0</ele><time>2026-04-19T12:13:34.999Z</time></trkpt><trkpt lat="42.72708059985941" lon="12.741840198995567"><ele>467.0</ele><time>2026-04-19T12:13:35.999Z</time></trkpt><trkpt lat="42.72716522028574" lon="12.741881233827517"><ele>464.16666666666663</ele><time>2026-04-19T12:13:36.999Z</time></trkpt><trkpt lat="42.72724038345545" lon="12.741921909913799"><ele>461.3333333333333</ele><time>2026-04-19T12:13:37.999Z</time></trkpt><trkpt lat="42.72730752193661" lon="12.741960552872696"><ele>458.5</ele><time>2026-04-19T12:13:38.999Z</time></trkpt><trkpt lat="42.72736241689672" lon="12.742008893020492"><ele>455.66666666666663</ele><time>2026-04-19T12:13:39.999Z</time></trkpt><trkpt lat="42.72740330663518" lon="12.74207798639242"><ele>452.8333333333333</ele><time>2026-04-19T12:13:40.999Z</time></trkpt><trkpt lat="42.727416159746795" lon="12.74223128782807"><ele>450.0</ele><time>2026-04-19T12:13:42.999Z</time></trkpt><trkpt lat="42.72734479974195" lon="12.74236900356984"><ele>450.00000000000006</ele><time>2026-04-19T12:13:44.999Z</time></trkpt><trkpt lat="42.72729990208691" lon="12.74243942530917"><ele>450.0</ele><time>2026-04-19T12:13:45.999Z</time></trkpt><trkpt lat="42.727257351623535" lon="12.742513539317885"><ele>450.00000000000006</ele><time>2026-04-19T12:13:46.999Z</time></trkpt><trkpt lat="42.72720892881784" lon="12.74259072123165"><ele>450.00000000000006</ele><time>2026-04-19T12:13:47.999Z</time></trkpt><trkpt lat="42.72715773989508" lon="12.742670332940179"><ele>450.0</ele><time>2026-04-19T12:13:48.999Z</time></trkpt><trkpt lat="42.72710880421891" lon="12.74274874356576"><ele>450.00000000000006</ele><time>2026-04-19T12:13:49.999Z</time></trkpt><trkpt lat="42.72706159387473" lon="12.74283079550553"><ele>450.00000000000006</ele><time>2026-04-19T12:13:50.999Z</time></trkpt><trkpt lat="42.7270190110653" lon="12.742914387468034"><ele>451.1666666666667</ele><time>2026-04-19T12:13:51.999Z</time></trkpt><trkpt lat="42.72697911755834" lon="12.74299240108388"><ele>452.33333333333337</ele><time>2026-04-19T12:13:52.999Z</time></trkpt><trkpt lat="42.72694568087581" lon="12.743066794349334"><ele>453.5</ele><time>2026-04-19T12:13:53.999Z</time></trkpt><trkpt lat="42.72689288035875" lon="12.7432076950308"><ele>454.6666666666667</ele><time>2026-04-19T12:13:55.999Z</time></trkpt><trkpt lat="42.726890645585954" lon="12.743339081135339"><ele>455.83333333333337</ele><time>2026-04-19T12:13:57.999Z</time></trkpt><trkpt lat="42.72693321086912" lon="12.743430207990611"><ele>457.0</ele><time>2026-04-19T12:13:59.999Z</time></trkpt><trkpt lat="42.727023438048334" lon="12.743458229909105"><ele>457.0</ele><time>2026-04-19T12:14:02.999Z</time></trkpt><trkpt lat="42.727084391248944" lon="12.743425121948938"><ele>457.00000000000006</ele><time>2026-04-19T12:14:04.999Z</time></trkpt><trkpt lat="42.72713981873823" lon="12.743351087514194"><ele>457.00000000000006</ele><time>2026-04-19T12:14:06.999Z</time></trkpt><trkpt lat="42.72720888177376" lon="12.743275216794475"><ele>457.0</ele><time>2026-04-19T12:14:08.999Z</time></trkpt><trkpt lat="42.72731449428773" lon="12.743232131187328"><ele>457.0</ele><time>2026-04-19T12:14:10.999Z</time></trkpt><trkpt lat="42.72743041711314" lon="12.743203249156373"><ele>457.00000000000006</ele><time>2026-04-19T12:14:12.999Z</time></trkpt><trkpt lat="42.72749423191031" lon="12.743184563049503"><ele>457.0</ele><time>2026-04-19T12:14:13.999Z</time></trkpt><trkpt lat="42.72756379136872" lon="12.743172058160507"><ele>457.00000000000006</ele><time>2026-04-19T12:14:14.999Z</time></trkpt><trkpt lat="42.72763197833841" lon="12.743156849852225"><ele>457.00000000000006</ele><time>2026-04-19T12:14:15.999Z</time></trkpt><trkpt lat="42.72770031911342" lon="12.743142050427029"><ele>457.0</ele><time>2026-04-19T12:14:16.999Z</time></trkpt><trkpt lat="42.72777528938492" lon="12.743134346698307"><ele>457.00000000000006</ele><time>2026-04-19T12:14:17.999Z</time></trkpt><trkpt lat="42.72784863518809" lon="12.743121582023685"><ele>457.00000000000006</ele><time>2026-04-19T12:14:18.999Z</time></trkpt><trkpt lat="42.7279270298733" lon="12.743109799456413"><ele>457.33333333333337</ele><time>2026-04-19T12:14:19.999Z</time></trkpt><trkpt lat="42.728005138082246" lon="12.743098223799613"><ele>457.6666666666667</ele><time>2026-04-19T12:14:20.999Z</time></trkpt><trkpt lat="42.72808308768937" lon="12.743087342213906"><ele>458.0</ele><time>2026-04-19T12:14:21.999Z</time></trkpt><trkpt lat="42.728161083477396" lon="12.74307223099901"><ele>458.33333333333337</ele><time>2026-04-19T12:14:22.999Z</time></trkpt><trkpt lat="42.7282394967964" lon="12.743054542754397"><ele>458.6666666666667</ele><time>2026-04-19T12:14:23.999Z</time></trkpt><trkpt lat="42.72832125499861" lon="12.743033612930377"><ele>459.0</ele><time>2026-04-19T12:14:24.999Z</time></trkpt><trkpt lat="42.72840105519483" lon="12.74302914636281"><ele>459.0</ele><time>2026-04-19T12:14:25.999Z</time></trkpt><trkpt lat="42.72847767027534" lon="12.742997082368452"><ele>459.0</ele><time>2026-04-19T12:14:26.999Z</time></trkpt><trkpt lat="42.728548467146624" lon="12.742941913560065"><ele>459.0</ele><time>2026-04-19T12:14:27.999Z</time></trkpt><trkpt lat="42.72862182954692" lon="12.742903561458228"><ele>459.0</ele><time>2026-04-19T12:14:28.999Z</time></trkpt><trkpt lat="42.72869722422236" lon="12.742863766073933"><ele>459.0</ele><time>2026-04-19T12:14:29.999Z</time></trkpt><trkpt lat="42.72876839686672" lon="12.742814605763082"><ele>459.0</ele><time>2026-04-19T12:14:30.999Z</time></trkpt><trkpt lat="42.72883943635583" lon="12.742770961685144"><ele>460.5</ele><time>2026-04-19T12:14:31.999Z</time></trkpt><trkpt lat="42.728908852038664" lon="12.742728338547908"><ele>462.0</ele><time>2026-04-19T12:14:32.999Z</time></trkpt><trkpt lat="42.728981071213035" lon="12.742685692866036"><ele>463.5</ele><time>2026-04-19T12:14:33.999Z</time></trkpt><trkpt lat="42.72905465254747" lon="12.742642383163904"><ele>465.0</ele><time>2026-04-19T12:14:34.999Z</time></trkpt><trkpt lat="42.72913125676072" lon="12.742603734105842"><ele>466.5</ele><time>2026-04-19T12:14:35.999Z</time></trkpt><trkpt lat="42.72920998423301" lon="12.742588702857534"><ele>468.0</ele><time>2026-04-19T12:14:36.999Z</time></trkpt><trkpt lat="42.729300452942404" lon="12.742578605112964"><ele>463.28571428571433</ele><time>2026-04-19T12:14:37.999Z</time></trkpt><trkpt lat="42.729380844489064" lon="12.742560673365055"><ele>458.5714285714286</ele><time>2026-04-19T12:14:38.999Z</time></trkpt><trkpt lat="42.729457216388404" lon="12.74253572532909"><ele>453.8571428571429</ele><time>2026-04-19T12:14:39.999Z</time></trkpt><trkpt lat="42.72953183441461" lon="12.742512373550761"><ele>449.14285714285717</ele><time>2026-04-19T12:14:40.999Z</time></trkpt><trkpt lat="42.729602422267924" lon="12.742496107959818"><ele>444.42857142857144</ele><time>2026-04-19T12:14:41.999Z</time></trkpt><trkpt lat="42.72967013549954" lon="12.742506812248672"><ele>439.7142857142858</ele><time>2026-04-19T12:14:42.999Z</time></trkpt><trkpt lat="42.729735931779835" lon="12.742533757112515"><ele>435.0</ele><time>2026-04-19T12:14:43.999Z</time></trkpt><trkpt lat="42.72980196549213" lon="12.742571243803663"><ele>433.8333333333333</ele><time>2026-04-19T12:14:44.999Z</time></trkpt><trkpt lat="42.72986872424499" lon="12.742611729022395"><ele>432.66666666666663</ele><time>2026-04-19T12:14:45.998Z</time></trkpt><trkpt lat="42.72993437751269" lon="12.742651049745039"><ele>431.5</ele><time>2026-04-19T12:14:46.998Z</time></trkpt><trkpt lat="42.73000234632697" lon="12.742683459949527"><ele>430.3333333333333</ele><time>2026-04-19T12:14:47.998Z</time></trkpt><trkpt lat="42.73007007892376" lon="12.742724850153905"><ele>429.16666666666663</ele><time>2026-04-19T12:14:48.998Z</time></trkpt><trkpt lat="42.73014721354945" lon="12.742796002800397"><ele>428.0</ele><time>2026-04-19T12:14:50Z</time></trkpt><trkpt lat="42.730224741383545" lon="12.74286897640744"><ele>428.16666666666663</ele><time>2026-04-19T12:14:51Z</time></trkpt><trkpt lat="42.73028962933929" lon="12.742952726102358"><ele>428.3333333333333</ele><time>2026-04-19T12:14:52Z</time></trkpt><trkpt lat="42.7303518765417" lon="12.743037587805931"><ele>428.5</ele><time>2026-04-19T12:14:53Z</time></trkpt><trkpt lat="42.73041960254679" lon="12.743119209694878"><ele>428.66666666666663</ele><time>2026-04-19T12:14:54Z</time></trkpt><trkpt lat="42.7304854269768" lon="12.743202111336695"><ele>428.8333333333333</ele><time>2026-04-19T12:14:55Z</time></trkpt><trkpt lat="42.73055724486479" lon="12.7432769006492"><ele>429.0</ele><time>2026-04-19T12:14:56Z</time></trkpt><trkpt lat="42.73063501287055" lon="12.743343625805672"><ele>429.0</ele><time>2026-04-19T12:14:57Z</time></trkpt><trkpt lat="42.73071268435286" lon="12.743407698422848"><ele>429.0</ele><time>2026-04-19T12:14:58Z</time></trkpt><trkpt lat="42.73078903315967" lon="12.743474227472003"><ele>429.0</ele><time>2026-04-19T12:14:59Z</time></trkpt><trkpt lat="42.73086713165773" lon="12.743541471651975"><ele>429.0</ele><time>2026-04-19T12:15:00Z</time></trkpt><trkpt lat="42.730942419660245" lon="12.743605473906962"><ele>429.0</ele><time>2026-04-19T12:15:01Z</time></trkpt><trkpt lat="42.73102252020275" lon="12.74366290365864"><ele>427.6666666666667</ele><time>2026-04-19T12:15:02Z</time></trkpt><trkpt lat="42.73110526160253" lon="12.743712689009609"><ele>426.33333333333337</ele><time>2026-04-19T12:15:03Z</time></trkpt><trkpt lat="42.7311883630103" lon="12.743771126554947"><ele>425.0</ele><time>2026-04-19T12:15:04Z</time></trkpt><trkpt lat="42.73127427613301" lon="12.743818908236282"><ele>423.6666666666667</ele><time>2026-04-19T12:15:05Z</time></trkpt><trkpt lat="42.73135175842658" lon="12.743870840589572"><ele>422.33333333333337</ele><time>2026-04-19T12:15:06Z</time></trkpt><trkpt lat="42.73141662147761" lon="12.743935619962384"><ele>421.0</ele><time>2026-04-19T12:15:07Z</time></trkpt><trkpt lat="42.73147285075526" lon="12.744007703321822"><ele>421.00000000000006</ele><time>2026-04-19T12:15:08Z</time></trkpt><trkpt lat="42.73151930659679" lon="12.744086005281321"><ele>421.0</ele><time>2026-04-19T12:15:09Z</time></trkpt><trkpt lat="42.731552904546476" lon="12.744165569721346"><ele>421.0</ele><time>2026-04-19T12:15:10Z</time></trkpt><trkpt lat="42.73159130478703" lon="12.744302920922191"><ele>421.0</ele><time>2026-04-19T12:15:12Z</time></trkpt><trkpt lat="42.731635271581325" lon="12.744394985106329"><ele>421.00000000000006</ele><time>2026-04-19T12:15:14Z</time></trkpt><trkpt lat="42.731709062603365" lon="12.74445338314321"><ele>421.0</ele><time>2026-04-19T12:15:16Z</time></trkpt><trkpt lat="42.731798286132054" lon="12.744417023650412"><ele>421.0</ele><time>2026-04-19T12:15:18Z</time></trkpt><trkpt lat="42.73177705154511" lon="12.74424155270872"><ele>421.0</ele><time>2026-04-19T12:15:20Z</time></trkpt><trkpt lat="42.73170459263345" lon="12.744167292930006"><ele>421.0</ele><time>2026-04-19T12:15:22Z</time></trkpt><trkpt lat="42.73164156734654" lon="12.744106241690833"><ele>421.0</ele><time>2026-04-19T12:15:24Z</time></trkpt><trkpt lat="42.73161250163322" lon="12.744005930484764"><ele>421.0</ele><time>2026-04-19T12:15:26Z</time></trkpt><trkpt lat="42.731560720570634" lon="12.74392856440572"><ele>421.0</ele><time>2026-04-19T12:15:28Z</time></trkpt><trkpt lat="42.731507445500654" lon="12.74385814345756"><ele>421.0</ele><time>2026-04-19T12:15:29.999Z</time></trkpt><trkpt lat="42.73142908792515" lon="12.743790304858699"><ele>421.0</ele><time>2026-04-19T12:15:31.999Z</time></trkpt><trkpt lat="42.731353573600316" lon="12.743689620090262"><ele>421.0</ele><time>2026-04-19T12:15:33.999Z</time></trkpt><trkpt lat="42.73125123203577" lon="12.743622910255615"><ele>421.0</ele><time>2026-04-19T12:15:35.999Z</time></trkpt><trkpt lat="42.73119443533472" lon="12.743569120004196"><ele>422.33333333333337</ele><time>2026-04-19T12:15:36.999Z</time></trkpt><trkpt lat="42.731141086091384" lon="12.743499878520991"><ele>423.6666666666667</ele><time>2026-04-19T12:15:37.999Z</time></trkpt><trkpt lat="42.731077253242375" lon="12.743442175433461"><ele>425.0</ele><time>2026-04-19T12:15:38.999Z</time></trkpt><trkpt lat="42.731004883472046" lon="12.74339603165974"><ele>426.33333333333337</ele><time>2026-04-19T12:15:39.999Z</time></trkpt><trkpt lat="42.730939309592614" lon="12.743334753075612"><ele>427.6666666666667</ele><time>2026-04-19T12:15:40.999Z</time></trkpt><trkpt lat="42.73087774315853" lon="12.743266127175309"><ele>429.0</ele><time>2026-04-19T12:15:41.999Z</time></trkpt><trkpt lat="42.730815743167405" lon="12.743196051712713"><ele>429.0</ele><time>2026-04-19T12:15:42.999Z</time></trkpt><trkpt lat="42.73076298601928" lon="12.743123191029598"><ele>429.0</ele><time>2026-04-19T12:15:43.999Z</time></trkpt><trkpt lat="42.73070798643793" lon="12.743053166573265"><ele>429.0</ele><time>2026-04-19T12:15:44.999Z</time></trkpt><trkpt lat="42.73065475436529" lon="12.742978113383417"><ele>429.0</ele><time>2026-04-19T12:15:45.999Z</time></trkpt><trkpt lat="42.73060605344985" lon="12.74289684436345"><ele>429.0</ele><time>2026-04-19T12:15:46.999Z</time></trkpt><trkpt lat="42.730552823989306" lon="12.742813280323869"><ele>429.0</ele><time>2026-04-19T12:15:47.999Z</time></trkpt><trkpt lat="42.730499445286355" lon="12.742735796245164"><ele>428.8333333333333</ele><time>2026-04-19T12:15:48.999Z</time></trkpt><trkpt lat="42.730435425643456" lon="12.742651994173881"><ele>428.66666666666663</ele><time>2026-04-19T12:15:49.999Z</time></trkpt><trkpt lat="42.73037559755426" lon="12.742568993248865"><ele>428.5</ele><time>2026-04-19T12:15:50.999Z</time></trkpt><trkpt lat="42.73032053342723" lon="12.742487271744455"><ele>428.3333333333333</ele><time>2026-04-19T12:15:51.999Z</time></trkpt><trkpt lat="42.7302569470591" lon="12.742390879238668"><ele>428.16666666666663</ele><time>2026-04-19T12:15:52.999Z</time></trkpt><trkpt lat="42.73018149881498" lon="12.74230551527934"><ele>428.0</ele><time>2026-04-19T12:15:53.999Z</time></trkpt><trkpt lat="42.730100013205586" lon="12.742228100238265"><ele>428.0</ele><time>2026-04-19T12:15:54.999Z</time></trkpt><trkpt lat="42.73000950419769" lon="12.742173498527738"><ele>427.99999999999994</ele><time>2026-04-19T12:15:55.999Z</time></trkpt><trkpt lat="42.729937507296206" lon="12.742080569786907"><ele>427.99999999999994</ele><time>2026-04-19T12:15:56.999Z</time></trkpt><trkpt lat="42.72986011527986" lon="12.742002783878686"><ele>428.0</ele><time>2026-04-19T12:15:57.999Z</time></trkpt><trkpt lat="42.729787161089185" lon="12.741917708419553"><ele>428.0</ele><time>2026-04-19T12:15:58.999Z</time></trkpt><trkpt lat="42.72971972223547" lon="12.74183325815171"><ele>425.66666666666663</ele><time>2026-04-19T12:15:59.999Z</time></trkpt><trkpt lat="42.729662817501016" lon="12.741749219264673"><ele>423.3333333333333</ele><time>2026-04-19T12:16:00.999Z</time></trkpt><trkpt lat="42.72961024868436" lon="12.741669027393563"><ele>421.0</ele><time>2026-04-19T12:16:01.999Z</time></trkpt><trkpt lat="42.729548348432715" lon="12.741607364813031"><ele>418.66666666666663</ele><time>2026-04-19T12:16:02.999Z</time></trkpt><trkpt lat="42.72947608085266" lon="12.74156095620622"><ele>416.3333333333333</ele><time>2026-04-19T12:16:03.999Z</time></trkpt><trkpt lat="42.72939918276997" lon="12.741538426797643"><ele>414.0</ele><time>2026-04-19T12:16:04.999Z</time></trkpt><trkpt lat="42.72931434123535" lon="12.741550912961719"><ele>414.0</ele><time>2026-04-19T12:16:05.999Z</time></trkpt><trkpt lat="42.72923184243096" lon="12.741583903949648"><ele>414.0</ele><time>2026-04-19T12:16:06.999Z</time></trkpt><trkpt lat="42.72915512029319" lon="12.741627951240508"><ele>414.0</ele><time>2026-04-19T12:16:07.999Z</time></trkpt><trkpt lat="42.7290818310247" lon="12.741684204384352"><ele>414.0</ele><time>2026-04-19T12:16:08.999Z</time></trkpt><trkpt lat="42.72901178304807" lon="12.741732715631038"><ele>414.0</ele><time>2026-04-19T12:16:09.999Z</time></trkpt><trkpt lat="42.72894847489667" lon="12.741786174041142"><ele>414.0</ele><time>2026-04-19T12:16:10.999Z</time></trkpt><trkpt lat="42.72888071961042" lon="12.741837009093226"><ele>414.7142857142857</ele><time>2026-04-19T12:16:11.999Z</time></trkpt><trkpt lat="42.72881721415334" lon="12.741884115852411"><ele>415.42857142857144</ele><time>2026-04-19T12:16:12.999Z</time></trkpt><trkpt lat="42.728750146225615" lon="12.741933303230025"><ele>416.1428571428571</ele><time>2026-04-19T12:16:13.999Z</time></trkpt><trkpt lat="42.72868490420762" lon="12.741956409799005"><ele>416.8571428571429</ele><time>2026-04-19T12:16:14.999Z</time></trkpt><trkpt lat="42.72862065915607" lon="12.741970404614259"><ele>417.57142857142856</ele><time>2026-04-19T12:16:15.999Z</time></trkpt><trkpt lat="42.728532742504576" lon="12.741922392800836"><ele>418.2857142857143</ele><time>2026-04-19T12:16:17.999Z</time></trkpt><trkpt lat="42.72851896161163" lon="12.741831230785321"><ele>419.0</ele><time>2026-04-19T12:16:19.999Z</time></trkpt><trkpt lat="42.728545339647305" lon="12.741706282748542"><ele>419.0</ele><time>2026-04-19T12:16:21.999Z</time></trkpt><trkpt lat="42.72855588179822" lon="12.74153995479603"><ele>419.0</ele><time>2026-04-19T12:16:23.999Z</time></trkpt><trkpt lat="42.728543173371655" lon="12.741449477633452"><ele>419.0</ele><time>2026-04-19T12:16:24.999Z</time></trkpt><trkpt lat="42.728533938715366" lon="12.741338216319656"><ele>419.0</ele><time>2026-04-19T12:16:25.999Z</time></trkpt><trkpt lat="42.728490565400016" lon="12.74123306327084"><ele>419.0</ele><time>2026-04-19T12:16:26.999Z</time></trkpt><trkpt lat="42.72843426219183" lon="12.741133287598299"><ele>415.79999999999995</ele><time>2026-04-19T12:16:27.999Z</time></trkpt><trkpt lat="42.728370741699045" lon="12.741029605938948"><ele>412.59999999999997</ele><time>2026-04-19T12:16:28.999Z</time></trkpt><trkpt lat="42.728304937440754" lon="12.740919656103454"><ele>409.4</ele><time>2026-04-19T12:16:29.999Z</time></trkpt><trkpt lat="42.728238905252816" lon="12.740809325267302"><ele>406.2</ele><time>2026-04-19T12:16:30.999Z</time></trkpt><trkpt lat="42.72817166749299" lon="12.740696980252702"><ele>403.0</ele><time>2026-04-19T12:16:31.999Z</time></trkpt><trkpt lat="42.72810175770061" lon="12.740580170578164"><ele>403.0</ele><time>2026-04-19T12:16:32.999Z</time></trkpt><trkpt lat="42.728031487875896" lon="12.740462759419566"><ele>403.0</ele><time>2026-04-19T12:16:33.999Z</time></trkpt><trkpt lat="42.72796061728665" lon="12.740343059834881"><ele>403.0</ele><time>2026-04-19T12:16:34.999Z</time></trkpt><trkpt lat="42.72788977890073" lon="12.740221852620888"><ele>403.0</ele><time>2026-04-19T12:16:35.999Z</time></trkpt><trkpt lat="42.72782001221888" lon="12.740106193358375"><ele>403.0</ele><time>2026-04-19T12:16:36.999Z</time></trkpt><trkpt lat="42.72774611397137" lon="12.739994550506877"><ele>403.0</ele><time>2026-04-19T12:16:37.999Z</time></trkpt><trkpt lat="42.72769360545255" lon="12.739862889454319"><ele>403.0</ele><time>2026-04-19T12:16:38.999Z</time></trkpt><trkpt lat="42.7276480647058" lon="12.739724249306777"><ele>403.0</ele><time>2026-04-19T12:16:39.999Z</time></trkpt><trkpt lat="42.727609524031244" lon="12.739580185071004"><ele>403.0</ele><time>2026-04-19T12:16:40.999Z</time></trkpt><trkpt lat="42.72757420481109" lon="12.739430967033073"><ele>403.0</ele><time>2026-04-19T12:16:41.999Z</time></trkpt><trkpt lat="42.727546396735384" lon="12.739271911013073"><ele>401.0</ele><time>2026-04-19T12:16:42.999Z</time></trkpt><trkpt lat="42.72753494752249" lon="12.739111497412372"><ele>399.0</ele><time>2026-04-19T12:16:43.999Z</time></trkpt><trkpt lat="42.72753360614548" lon="12.738950760175381"><ele>397.0</ele><time>2026-04-19T12:16:44.999Z</time></trkpt><trkpt lat="42.727540497605396" lon="12.738788189386268"><ele>395.0</ele><time>2026-04-19T12:16:45.999Z</time></trkpt><trkpt lat="42.727545160918204" lon="12.738627721364617"><ele>392.5</ele><time>2026-04-19T12:16:46.999Z</time></trkpt><trkpt lat="42.727544959020506" lon="12.738468595376792"><ele>390.0</ele><time>2026-04-19T12:16:47.999Z</time></trkpt><trkpt lat="42.7275369843239" lon="12.738320574895361"><ele>387.5</ele><time>2026-04-19T12:16:48.999Z</time></trkpt><trkpt lat="42.72754020464687" lon="12.738169165975423"><ele>385.0</ele><time>2026-04-19T12:16:49.998Z</time></trkpt><trkpt lat="42.72749312710124" lon="12.738025362524684"><ele>385.0</ele><time>2026-04-19T12:16:50.998Z</time></trkpt><trkpt lat="42.72746005676951" lon="12.737884611501649"><ele>385.0</ele><time>2026-04-19T12:16:51.998Z</time></trkpt><trkpt lat="42.727423870969" lon="12.737748405233205"><ele>385.0</ele><time>2026-04-19T12:16:52.998Z</time></trkpt><trkpt lat="42.72738575788941" lon="12.737614488097018"><ele>385.0</ele><time>2026-04-19T12:16:53.998Z</time></trkpt><trkpt lat="42.727372637776455" lon="12.737474971313413"><ele>385.0</ele><time>2026-04-19T12:16:54.998Z</time></trkpt><trkpt lat="42.72734379314512" lon="12.73735736908661"><ele>384.00000000000006</ele><time>2026-04-19T12:16:56Z</time></trkpt><trkpt lat="42.72731927947798" lon="12.737249089861416"><ele>383.0</ele><time>2026-04-19T12:16:57Z</time></trkpt><trkpt lat="42.727286917523486" lon="12.73714669954371"><ele>382.0</ele><time>2026-04-19T12:16:58Z</time></trkpt><trkpt lat="42.72728801903709" lon="12.73703480408234"><ele>381.0</ele><time>2026-04-19T12:16:59Z</time></trkpt><trkpt lat="42.72731883482293" lon="12.736935552379308"><ele>380.0</ele><time>2026-04-19T12:17:00Z</time></trkpt><trkpt lat="42.72734690337788" lon="12.736834198654464"><ele>379.0</ele><time>2026-04-19T12:17:01Z</time></trkpt><trkpt lat="42.727379461846915" lon="12.736736389690021"><ele>377.66666666666663</ele><time>2026-04-19T12:17:02Z</time></trkpt><trkpt lat="42.72741543675569" lon="12.736639021209506"><ele>376.3333333333333</ele><time>2026-04-19T12:17:03Z</time></trkpt><trkpt lat="42.727450838806384" lon="12.736547457323843"><ele>375.0</ele><time>2026-04-19T12:17:04Z</time></trkpt><trkpt lat="42.72748333556193" lon="12.73646947335959"><ele>373.6666666666667</ele><time>2026-04-19T12:17:05Z</time></trkpt><trkpt lat="42.72754031516586" lon="12.736326355924115"><ele>372.33333333333337</ele><time>2026-04-19T12:17:07Z</time></trkpt><trkpt lat="42.727638471474314" lon="12.736273919134474"><ele>371.0</ele><time>2026-04-19T12:17:09Z</time></trkpt><trkpt lat="42.72775381255751" lon="12.736307664276035"><ele>370.2857142857143</ele><time>2026-04-19T12:17:11Z</time></trkpt><trkpt lat="42.72780812200002" lon="12.736363658119656"><ele>369.57142857142856</ele><time>2026-04-19T12:17:12Z</time></trkpt><trkpt lat="42.72785899033699" lon="12.736430238554894"><ele>368.8571428571429</ele><time>2026-04-19T12:17:13Z</time></trkpt><trkpt lat="42.72791124047346" lon="12.736504588338999"><ele>368.1428571428571</ele><time>2026-04-19T12:17:14Z</time></trkpt><trkpt lat="42.727966448976474" lon="12.736574452737518"><ele>367.42857142857144</ele><time>2026-04-19T12:17:15Z</time></trkpt><trkpt lat="42.728027170453856" lon="12.736641608206419"><ele>366.7142857142857</ele><time>2026-04-19T12:17:16Z</time></trkpt><trkpt lat="42.72808444595401" lon="12.73671941126276"><ele>366.0</ele><time>2026-04-19T12:17:17Z</time></trkpt><trkpt lat="42.72813959947425" lon="12.736800473577901"><ele>366.0</ele><time>2026-04-19T12:17:18Z</time></trkpt><trkpt lat="42.728198524572726" lon="12.736883022485246"><ele>366.0</ele><time>2026-04-19T12:17:19Z</time></trkpt><trkpt lat="42.72826158088729" lon="12.736964823400745"><ele>366.0</ele><time>2026-04-19T12:17:20Z</time></trkpt><trkpt lat="42.728327234686596" lon="12.73705129693691"><ele>366.0</ele><time>2026-04-19T12:17:21Z</time></trkpt><trkpt lat="42.7283966266057" lon="12.737138044100094"><ele>366.0</ele><time>2026-04-19T12:17:22Z</time></trkpt><trkpt lat="42.72847014147677" lon="12.73722813621543"><ele>366.20000000000005</ele><time>2026-04-19T12:17:23Z</time></trkpt><trkpt lat="42.728545493475494" lon="12.737324253213709"><ele>366.40000000000003</ele><time>2026-04-19T12:17:24Z</time></trkpt><trkpt lat="42.728623696031384" lon="12.7374246570114"><ele>366.6</ele><time>2026-04-19T12:17:25Z</time></trkpt><trkpt lat="42.72870361924248" lon="12.737526279863067"><ele>366.8</ele><time>2026-04-19T12:17:26Z</time></trkpt><trkpt lat="42.72878874375696" lon="12.737625505043887"><ele>367.0</ele><time>2026-04-19T12:17:27Z</time></trkpt><trkpt lat="42.72887486781444" lon="12.737730399063407"><ele>366.25</ele><time>2026-04-19T12:17:28Z</time></trkpt><trkpt lat="42.72896077641673" lon="12.737838476105841"><ele>365.5</ele><time>2026-04-19T12:17:29Z</time></trkpt><trkpt lat="42.72904624358708" lon="12.737948155206611"><ele>364.75</ele><time>2026-04-19T12:17:30Z</time></trkpt><trkpt lat="42.729133906922044" lon="12.738057386099987"><ele>364.0</ele><time>2026-04-19T12:17:31Z</time></trkpt><trkpt lat="42.72922360796831" lon="12.73816890343923"><ele>364.0</ele><time>2026-04-19T12:17:32Z</time></trkpt><trkpt lat="42.72931472725084" lon="12.738285624540206"><ele>364.0</ele><time>2026-04-19T12:17:33Z</time></trkpt><trkpt lat="42.72940484626884" lon="12.738397746675137"><ele>364.0</ele><time>2026-04-19T12:17:34Z</time></trkpt><trkpt lat="42.72949439944829" lon="12.738510318875239"><ele>364.0</ele><time>2026-04-19T12:17:35Z</time></trkpt><trkpt lat="42.72958553223427" lon="12.738618180530612"><ele>363.75</ele><time>2026-04-19T12:17:36Z</time></trkpt><trkpt lat="42.729673774955835" lon="12.738730831009335"><ele>363.5</ele><time>2026-04-19T12:17:36.999Z</time></trkpt><trkpt lat="42.729761625434826" lon="12.738843958248415"><ele>363.25</ele><time>2026-04-19T12:17:37.999Z</time></trkpt><trkpt lat="42.72985195416605" lon="12.738961873514"><ele>363.0</ele><time>2026-04-19T12:17:38.999Z</time></trkpt><trkpt lat="42.72994657399834" lon="12.739078274811126"><ele>363.0</ele><time>2026-04-19T12:17:39.999Z</time></trkpt><trkpt lat="42.73004211179737" lon="12.739191155265456"><ele>363.0</ele><time>2026-04-19T12:17:40.999Z</time></trkpt><trkpt lat="42.730136333030956" lon="12.739308812749384"><ele>363.0</ele><time>2026-04-19T12:17:41.999Z</time></trkpt><trkpt lat="42.730230708809586" lon="12.739427157638108"><ele>363.0</ele><time>2026-04-19T12:17:42.999Z</time></trkpt><trkpt lat="42.7303304111787" lon="12.739548542387773"><ele>363.0</ele><time>2026-04-19T12:17:43.999Z</time></trkpt><trkpt lat="42.73043344218667" lon="12.739664910388443"><ele>363.0</ele><time>2026-04-19T12:17:44.999Z</time></trkpt><trkpt lat="42.730541667419395" lon="12.739775725332875"><ele>363.0</ele><time>2026-04-19T12:17:45.999Z</time></trkpt><trkpt lat="42.730655503753" lon="12.739869767878947"><ele>363.0</ele><time>2026-04-19T12:17:46.999Z</time></trkpt><trkpt lat="42.7307737851247" lon="12.739963202300512"><ele>363.0</ele><time>2026-04-19T12:17:47.999Z</time></trkpt><trkpt lat="42.73089533181153" lon="12.740050447159874"><ele>363.0</ele><time>2026-04-19T12:17:48.999Z</time></trkpt><trkpt lat="42.73102224422107" lon="12.740133645051353"><ele>363.0</ele><time>2026-04-19T12:17:49.999Z</time></trkpt><trkpt lat="42.731154963387844" lon="12.740208945905874"><ele>363.0</ele><time>2026-04-19T12:17:50.999Z</time></trkpt><trkpt lat="42.731292108792545" lon="12.740267534125936"><ele>363.75</ele><time>2026-04-19T12:17:51.999Z</time></trkpt><trkpt lat="42.73142761043915" lon="12.740308890781996"><ele>364.5</ele><time>2026-04-19T12:17:52.999Z</time></trkpt><trkpt lat="42.7315637998086" lon="12.740347889026596"><ele>365.25</ele><time>2026-04-19T12:17:53.999Z</time></trkpt><trkpt lat="42.73169752309838" lon="12.740393881751707"><ele>366.0</ele><time>2026-04-19T12:17:54.999Z</time></trkpt><trkpt lat="42.731833538199304" lon="12.74044629675143"><ele>375.0</ele><time>2026-04-19T12:17:55.999Z</time></trkpt><trkpt lat="42.731972707373366" lon="12.740495842467242"><ele>384.0</ele><time>2026-04-19T12:17:56.999Z</time></trkpt><trkpt lat="42.73211714864736" lon="12.740543630686648"><ele>393.0</ele><time>2026-04-19T12:17:57.999Z</time></trkpt><trkpt lat="42.73226076640399" lon="12.740592744194783"><ele>402.0</ele><time>2026-04-19T12:17:58.999Z</time></trkpt><trkpt lat="42.732408841523586" lon="12.740637480961855"><ele>402.0</ele><time>2026-04-19T12:17:59.999Z</time></trkpt><trkpt lat="42.7325595929585" lon="12.740685579558654"><ele>402.0</ele><time>2026-04-19T12:18:00.999Z</time></trkpt><trkpt lat="42.73271217721382" lon="12.740733566694594"><ele>402.0</ele><time>2026-04-19T12:18:01.999Z</time></trkpt><trkpt lat="42.7328659795038" lon="12.740781824478002"><ele>411.33333333333337</ele><time>2026-04-19T12:18:02.999Z</time></trkpt><trkpt lat="42.73302306284699" lon="12.740824877661574"><ele>420.6666666666667</ele><time>2026-04-19T12:18:03.999Z</time></trkpt><trkpt lat="42.73318076911194" lon="12.74087189667765"><ele>430.0</ele><time>2026-04-19T12:18:04.999Z</time></trkpt><trkpt lat="42.733336086617356" lon="12.74094361395821"><ele>430.0</ele><time>2026-04-19T12:18:05.999Z</time></trkpt><trkpt lat="42.73349645247475" lon="12.74099679415667"><ele>430.0</ele><time>2026-04-19T12:18:06.999Z</time></trkpt><trkpt lat="42.733660233983436" lon="12.741029037772687"><ele>430.0</ele><time>2026-04-19T12:18:07.999Z</time></trkpt><trkpt lat="42.733830990771445" lon="12.741092455291904"><ele>440.0</ele><time>2026-04-19T12:18:09.065Z</time></trkpt><trkpt lat="42.73398400968599" lon="12.741148989998528"><ele>450.0</ele><time>2026-04-19T12:18:10.034Z</time></trkpt><trkpt lat="42.734136046805595" lon="12.741197512319824"><ele>460.0</ele><time>2026-04-19T12:18:11.035Z</time></trkpt><trkpt lat="42.73429299195541" lon="12.741251071410163"><ele>449.0</ele><time>2026-04-19T12:18:12.03Z</time></trkpt><trkpt lat="42.7344430407071" lon="12.741303804028545"><ele>438.0</ele><time>2026-04-19T12:18:13.025Z</time></trkpt><trkpt lat="42.73459450063791" lon="12.741365129729909"><ele>427.0</ele><time>2026-04-19T12:18:14.026Z</time></trkpt><trkpt lat="42.73474168482227" lon="12.741416805960478"><ele>427.0</ele><time>2026-04-19T12:18:15.026Z</time></trkpt><trkpt lat="42.734892813279295" lon="12.741470771955665"><ele>427.0</ele><time>2026-04-19T12:18:16.026Z</time></trkpt><trkpt lat="42.73638989622442" lon="12.741973770142062"><ele>398.0</ele><time>2026-04-19T12:18:25.999Z</time></trkpt><trkpt lat="42.73653829333545" lon="12.742015909980289"><ele>369.0</ele><time>2026-04-19T12:18:26.999Z</time></trkpt><trkpt lat="42.73671069121991" lon="12.742055766526633"><ele>340.0</ele><time>2026-04-19T12:18:27.999Z</time></trkpt><trkpt lat="42.73686381279075" lon="12.742078442956394"><ele>338.0</ele><time>2026-04-19T12:18:28.999Z</time></trkpt><trkpt lat="42.73698911026827" lon="12.742083709114794"><ele>336.0</ele><time>2026-04-19T12:18:29.999Z</time></trkpt><trkpt lat="42.73725823790603" lon="12.742041994481662"><ele>334.0</ele><time>2026-04-19T12:18:31.999Z</time></trkpt><trkpt lat="42.737390489173464" lon="12.742013149818588"><ele>334.0</ele><time>2026-04-19T12:18:32.999Z</time></trkpt><trkpt lat="42.737522565034766" lon="12.7419762515137"><ele>334.0</ele><time>2026-04-19T12:18:33.999Z</time></trkpt><trkpt lat="42.73765266788804" lon="12.741933706664872"><ele>334.0</ele><time>2026-04-19T12:18:34.999Z</time></trkpt><trkpt lat="42.73778490102275" lon="12.74188365923991"><ele>334.0</ele><time>2026-04-19T12:18:35.999Z</time></trkpt><trkpt lat="42.73791663457789" lon="12.741835489781261"><ele>334.5</ele><time>2026-04-19T12:18:36.999Z</time></trkpt><trkpt lat="42.73805311556357" lon="12.741786424786225"><ele>335.0</ele><time>2026-04-19T12:18:37.999Z</time></trkpt><trkpt lat="42.73819027070525" lon="12.741739081397958"><ele>335.5</ele><time>2026-04-19T12:18:38.999Z</time></trkpt><trkpt lat="42.73832773317446" lon="12.741683208859552"><ele>336.0</ele><time>2026-04-19T12:18:39.999Z</time></trkpt><trkpt lat="42.7384666005873" lon="12.741623182264028"><ele>338.75</ele><time>2026-04-19T12:18:40.999Z</time></trkpt><trkpt lat="42.73860435274538" lon="12.741571704501222"><ele>341.5</ele><time>2026-04-19T12:18:41.999Z</time></trkpt><trkpt lat="42.73874552586568" lon="12.741522475915803"><ele>344.25</ele><time>2026-04-19T12:18:42.999Z</time></trkpt><trkpt lat="42.738882410563534" lon="12.741470735235747"><ele>347.0</ele><time>2026-04-19T12:18:43.999Z</time></trkpt><trkpt lat="42.73902298675971" lon="12.74142015301991"><ele>347.0</ele><time>2026-04-19T12:18:44.999Z</time></trkpt><trkpt lat="42.73915904438164" lon="12.741366244570836"><ele>347.0</ele><time>2026-04-19T12:18:45.999Z</time></trkpt><trkpt lat="42.73929874336782" lon="12.741311726598804"><ele>347.0</ele><time>2026-04-19T12:18:46.999Z</time></trkpt><trkpt lat="42.73943599193385" lon="12.74126463604988"><ele>347.0</ele><time>2026-04-19T12:18:47.999Z</time></trkpt><trkpt lat="42.73957080423795" lon="12.741217565564753"><ele>347.5</ele><time>2026-04-19T12:18:48.999Z</time></trkpt><trkpt lat="42.73970014006938" lon="12.741167462743483"><ele>348.0</ele><time>2026-04-19T12:18:49.999Z</time></trkpt><trkpt lat="42.739830024443236" lon="12.741116786167375"><ele>348.5</ele><time>2026-04-19T12:18:50.999Z</time></trkpt><trkpt lat="42.739965415259874" lon="12.741062110036438"><ele>349.0</ele><time>2026-04-19T12:18:51.999Z</time></trkpt><trkpt lat="42.740104326924204" lon="12.741018203437916"><ele>345.5</ele><time>2026-04-19T12:18:52.999Z</time></trkpt><trkpt lat="42.74024572399995" lon="12.74098722282273"><ele>342.0</ele><time>2026-04-19T12:18:53.999Z</time></trkpt><trkpt lat="42.74038984864559" lon="12.740958140001581"><ele>338.5</ele><time>2026-04-19T12:18:54.999Z</time></trkpt><trkpt lat="42.7405370372317" lon="12.740943819148317"><ele>335.0</ele><time>2026-04-19T12:18:55.998Z</time></trkpt><trkpt lat="42.74068365689416" lon="12.740941611328003"><ele>335.0</ele><time>2026-04-19T12:18:56.998Z</time></trkpt><trkpt lat="42.740831590955324" lon="12.740952577348237"><ele>335.0</ele><time>2026-04-19T12:18:57.998Z</time></trkpt><trkpt lat="42.740978379079046" lon="12.740977237764724"><ele>335.0</ele><time>2026-04-19T12:18:58.998Z</time></trkpt><trkpt lat="42.741130912183635" lon="12.741016714791293"><ele>336.6666666666667</ele><time>2026-04-19T12:18:59.998Z</time></trkpt><trkpt lat="42.741276593325246" lon="12.741071312668897"><ele>338.3333333333333</ele><time>2026-04-19T12:19:01Z</time></trkpt><trkpt lat="42.741424111655405" lon="12.74113763438541"><ele>340.0</ele><time>2026-04-19T12:19:02Z</time></trkpt><trkpt lat="42.741559745136655" lon="12.741212078594835"><ele>340.0</ele><time>2026-04-19T12:19:03Z</time></trkpt><trkpt lat="42.7416987123176" lon="12.741298327664358"><ele>340.0</ele><time>2026-04-19T12:19:04Z</time></trkpt><trkpt lat="42.74183086965091" lon="12.741385639525538"><ele>340.0</ele><time>2026-04-19T12:19:05Z</time></trkpt><trkpt lat="42.74195677819741" lon="12.741479384213509"><ele>340.0</ele><time>2026-04-19T12:19:06Z</time></trkpt><trkpt lat="42.74207518251016" lon="12.741559147994943"><ele>341.0</ele><time>2026-04-19T12:19:07Z</time></trkpt><trkpt lat="42.74218920650813" lon="12.74163994990533"><ele>342.0</ele><time>2026-04-19T12:19:08Z</time></trkpt><trkpt lat="42.74230371250201" lon="12.741724733150177"><ele>343.0</ele><time>2026-04-19T12:19:09Z</time></trkpt><trkpt lat="42.74241772240107" lon="12.741805629609102"><ele>344.0</ele><time>2026-04-19T12:19:10Z</time></trkpt><trkpt lat="42.7425266064138" lon="12.741884782657701"><ele>344.0</ele><time>2026-04-19T12:19:11Z</time></trkpt><trkpt lat="42.742644556572344" lon="12.741969354220814"><ele>344.0</ele><time>2026-04-19T12:19:12Z</time></trkpt><trkpt lat="42.742757558660145" lon="12.742048330983327"><ele>344.0</ele><time>2026-04-19T12:19:13Z</time></trkpt><trkpt lat="42.74286535676446" lon="12.742129085909834"><ele>344.0</ele><time>2026-04-19T12:19:14Z</time></trkpt><trkpt lat="42.742973058026806" lon="12.742205571403233"><ele>341.5</ele><time>2026-04-19T12:19:15Z</time></trkpt><trkpt lat="42.74307731455512" lon="12.742285025757871"><ele>339.0</ele><time>2026-04-19T12:19:16Z</time></trkpt><trkpt lat="42.74317966996016" lon="12.742363980037688"><ele>336.5</ele><time>2026-04-19T12:19:17Z</time></trkpt><trkpt lat="42.743283848115084" lon="12.74244654009078"><ele>334.0</ele><time>2026-04-19T12:19:18Z</time></trkpt><trkpt lat="42.74339005494046" lon="12.742527714734663"><ele>334.0</ele><time>2026-04-19T12:19:19Z</time></trkpt><trkpt lat="42.743502536290045" lon="12.742608995589485"><ele>334.0</ele><time>2026-04-19T12:19:20Z</time></trkpt><trkpt lat="42.74361583336934" lon="12.742694189623858"><ele>334.0</ele><time>2026-04-19T12:19:21Z</time></trkpt><trkpt lat="42.74372932331863" lon="12.742774768389266"><ele>334.0</ele><time>2026-04-19T12:19:22Z</time></trkpt><trkpt lat="42.74383895261513" lon="12.742855345582614"><ele>333.75</ele><time>2026-04-19T12:19:23Z</time></trkpt><trkpt lat="42.74395402933105" lon="12.742940644408293"><ele>333.5</ele><time>2026-04-19T12:19:24Z</time></trkpt><trkpt lat="42.74405737091345" lon="12.74301613188485"><ele>333.25</ele><time>2026-04-19T12:19:25Z</time></trkpt><trkpt lat="42.74416271176195" lon="12.74309316851601"><ele>333.0</ele><time>2026-04-19T12:19:26Z</time></trkpt><trkpt lat="42.7442671357477" lon="12.743170538720673"><ele>333.0</ele><time>2026-04-19T12:19:27Z</time></trkpt><trkpt lat="42.74436581250815" lon="12.743243183137572"><ele>333.0</ele><time>2026-04-19T12:19:28Z</time></trkpt><trkpt lat="42.744461207638594" lon="12.743313569865105"><ele>333.0</ele><time>2026-04-19T12:19:29Z</time></trkpt><trkpt lat="42.74455705094151" lon="12.743384031230674"><ele>333.0</ele><time>2026-04-19T12:19:30Z</time></trkpt><trkpt lat="42.744651014910445" lon="12.743453198828128"><ele>333.0</ele><time>2026-04-19T12:19:31Z</time></trkpt><trkpt lat="42.74474455400008" lon="12.743520453770605"><ele>332.4</ele><time>2026-04-19T12:19:32Z</time></trkpt><trkpt lat="42.74483551647509" lon="12.743587043711141"><ele>331.79999999999995</ele><time>2026-04-19T12:19:33Z</time></trkpt><trkpt lat="42.744926979067365" lon="12.743659638792423"><ele>331.2</ele><time>2026-04-19T12:19:34Z</time></trkpt><trkpt lat="42.74501799970485" lon="12.743728629466567"><ele>330.6</ele><time>2026-04-19T12:19:35Z</time></trkpt><trkpt lat="42.745120020253474" lon="12.74380633829811"><ele>330.0</ele><time>2026-04-19T12:19:36Z</time></trkpt><trkpt lat="42.745217488759735" lon="12.743875490024179"><ele>328.5</ele><time>2026-04-19T12:19:37Z</time></trkpt><trkpt lat="42.74531513465267" lon="12.743949860456246"><ele>327.0</ele><time>2026-04-19T12:19:38Z</time></trkpt><trkpt lat="42.745415079271766" lon="12.74402856989023"><ele>325.5</ele><time>2026-04-19T12:19:39Z</time></trkpt><trkpt lat="42.745510709779595" lon="12.744102849784584"><ele>324.0</ele><time>2026-04-19T12:19:40Z</time></trkpt><trkpt lat="42.745613157567604" lon="12.744180504009115"><ele>324.0</ele><time>2026-04-19T12:19:41Z</time></trkpt><trkpt lat="42.745715316507415" lon="12.74425342316436"><ele>324.0</ele><time>2026-04-19T12:19:42Z</time></trkpt><trkpt lat="42.74582062952945" lon="12.744324002413117"><ele>324.0</ele><time>2026-04-19T12:19:42.999Z</time></trkpt><trkpt lat="42.74592046497853" lon="12.744396157878558"><ele>324.0</ele><time>2026-04-19T12:19:43.999Z</time></trkpt><trkpt lat="42.746023574556304" lon="12.744472790977671"><ele>322.75</ele><time>2026-04-19T12:19:44.999Z</time></trkpt><trkpt lat="42.746123351587805" lon="12.744544900179656"><ele>321.5</ele><time>2026-04-19T12:19:45.999Z</time></trkpt><trkpt lat="42.74622443698296" lon="12.744616003137137"><ele>320.25</ele><time>2026-04-19T12:19:46.999Z</time></trkpt><trkpt lat="42.746326566106355" lon="12.744690227855438"><ele>319.0</ele><time>2026-04-19T12:19:47.999Z</time></trkpt><trkpt lat="42.746434265021115" lon="12.74476776883933"><ele>319.0</ele><time>2026-04-19T12:19:48.999Z</time></trkpt><trkpt lat="42.74653952889636" lon="12.744844764903748"><ele>319.0</ele><time>2026-04-19T12:19:49.999Z</time></trkpt><trkpt lat="42.74665011880922" lon="12.744931417828749"><ele>319.0</ele><time>2026-04-19T12:19:50.999Z</time></trkpt><trkpt lat="42.746762367142864" lon="12.745020157472144"><ele>319.0</ele><time>2026-04-19T12:19:51.999Z</time></trkpt><trkpt lat="42.7468765900565" lon="12.74511398788936"><ele>318.0</ele><time>2026-04-19T12:19:52.999Z</time></trkpt><trkpt lat="42.74699264995094" lon="12.745213834313269"><ele>317.0</ele><time>2026-04-19T12:19:53.999Z</time></trkpt><trkpt lat="42.74710269480854" lon="12.745308198435177"><ele>316.0</ele><time>2026-04-19T12:19:54.999Z</time></trkpt><trkpt lat="42.747222298175224" lon="12.745419291514121"><ele>315.0</ele><time>2026-04-19T12:19:55.999Z</time></trkpt><trkpt lat="42.7473337855658" lon="12.745528133523234"><ele>315.0</ele><time>2026-04-19T12:19:56.999Z</time></trkpt><trkpt lat="42.74745162624711" lon="12.745645260676023"><ele>315.0</ele><time>2026-04-19T12:19:57.999Z</time></trkpt><trkpt lat="42.74756843391784" lon="12.745763853588008"><ele>315.0</ele><time>2026-04-19T12:19:58.999Z</time></trkpt><trkpt lat="42.74768559573991" lon="12.745884886782239"><ele>315.0</ele><time>2026-04-19T12:19:59.999Z</time></trkpt><trkpt lat="42.747805128037285" lon="12.746006901333166"><ele>314.0</ele><time>2026-04-19T12:20:00.999Z</time></trkpt><trkpt lat="42.7479262426748" lon="12.746131105606402"><ele>313.0</ele><time>2026-04-19T12:20:01.999Z</time></trkpt><trkpt lat="42.74804337084541" lon="12.746253244964594"><ele>312.0</ele><time>2026-04-19T12:20:02.999Z</time></trkpt><trkpt lat="42.74816246116448" lon="12.746377655679725"><ele>311.0</ele><time>2026-04-19T12:20:03.999Z</time></trkpt><trkpt lat="42.74828566026474" lon="12.74651569943617"><ele>311.0</ele><time>2026-04-19T12:20:04.999Z</time></trkpt><trkpt lat="42.748394328407635" lon="12.74665010389931"><ele>311.0</ele><time>2026-04-19T12:20:05.999Z</time></trkpt><trkpt lat="42.74852236069689" lon="12.746764182882625"><ele>311.0</ele><time>2026-04-19T12:20:06.999Z</time></trkpt><trkpt lat="42.748655745301086" lon="12.746895125237744"><ele>310.6666666666667</ele><time>2026-04-19T12:20:07.999Z</time></trkpt><trkpt lat="42.74878430625196" lon="12.747029161723978"><ele>310.3333333333333</ele><time>2026-04-19T12:20:08.999Z</time></trkpt><trkpt lat="42.74891198347717" lon="12.74716290990391"><ele>310.0</ele><time>2026-04-19T12:20:09.999Z</time></trkpt><trkpt lat="42.74904226092744" lon="12.747297843690749"><ele>310.0</ele><time>2026-04-19T12:20:10.999Z</time></trkpt><trkpt lat="42.74917687641984" lon="12.747436571182972"><ele>310.0</ele><time>2026-04-19T12:20:11.999Z</time></trkpt><trkpt lat="42.74931486906606" lon="12.74758175697721"><ele>310.0</ele><time>2026-04-19T12:20:12.999Z</time></trkpt><trkpt lat="42.74945037628429" lon="12.747726678527249"><ele>308.3333333333333</ele><time>2026-04-19T12:20:13.999Z</time></trkpt><trkpt lat="42.74958554801208" lon="12.74786626298863"><ele>306.6666666666667</ele><time>2026-04-19T12:20:14.999Z</time></trkpt><trkpt lat="42.74972058133171" lon="12.74800585438726"><ele>305.0</ele><time>2026-04-19T12:20:15.999Z</time></trkpt><trkpt lat="42.74985376874483" lon="12.748142896765351"><ele>305.0</ele><time>2026-04-19T12:20:16.999Z</time></trkpt><trkpt lat="42.74998810651132" lon="12.748287619368575"><ele>305.0</ele><time>2026-04-19T12:20:17.999Z</time></trkpt><trkpt lat="42.75012505704525" lon="12.748429193624387"><ele>305.0</ele><time>2026-04-19T12:20:18.999Z</time></trkpt><trkpt lat="42.75026197624491" lon="12.748566768043915"><ele>303.0</ele><time>2026-04-19T12:20:19.999Z</time></trkpt><trkpt lat="42.75039813716627" lon="12.748709870019463"><ele>301.0</ele><time>2026-04-19T12:20:20.999Z</time></trkpt><trkpt lat="42.750532965252035" lon="12.74885766365552"><ele>299.0</ele><time>2026-04-19T12:20:21.999Z</time></trkpt><trkpt lat="42.75066814102399" lon="12.74900594351499"><ele>299.0</ele><time>2026-04-19T12:20:22.999Z</time></trkpt><trkpt lat="42.750803598746266" lon="12.749156139819574"><ele>299.0</ele><time>2026-04-19T12:20:23.999Z</time></trkpt><trkpt lat="42.750941222052475" lon="12.749292424239401"><ele>299.0</ele><time>2026-04-19T12:20:24.999Z</time></trkpt><trkpt lat="42.751077820524266" lon="12.749432616828726"><ele>298.33333333333337</ele><time>2026-04-19T12:20:25.999Z</time></trkpt><trkpt lat="42.751216007542" lon="12.749581257623667"><ele>297.6666666666667</ele><time>2026-04-19T12:20:26.999Z</time></trkpt><trkpt lat="42.75135832754356" lon="12.74972477204596"><ele>297.0</ele><time>2026-04-19T12:20:27.999Z</time></trkpt><trkpt lat="42.75150002857516" lon="12.749868542483446"><ele>297.0</ele><time>2026-04-19T12:20:28.999Z</time></trkpt><trkpt lat="42.7516401229871" lon="12.750012831264325"><ele>297.0</ele><time>2026-04-19T12:20:29.999Z</time></trkpt><trkpt lat="42.75177388011653" lon="12.750155740213815"><ele>297.0</ele><time>2026-04-19T12:20:30.999Z</time></trkpt><trkpt lat="42.75191467194043" lon="12.750305342514368"><ele>296.3333333333333</ele><time>2026-04-19T12:20:31.999Z</time></trkpt><trkpt lat="42.752054550705815" lon="12.750445926357962"><ele>295.66666666666663</ele><time>2026-04-19T12:20:32.999Z</time></trkpt><trkpt lat="42.752193534255426" lon="12.750592870001675"><ele>295.0</ele><time>2026-04-19T12:20:33.999Z</time></trkpt><trkpt lat="42.752328824019806" lon="12.750737641892607"><ele>295.0</ele><time>2026-04-19T12:20:34.999Z</time></trkpt><trkpt lat="42.752466467269706" lon="12.750885875473633"><ele>295.0</ele><time>2026-04-19T12:20:35.999Z</time></trkpt><trkpt lat="42.75260650214698" lon="12.751032840700216"><ele>295.0</ele><time>2026-04-19T12:20:36.999Z</time></trkpt><trkpt lat="42.7527426251742" lon="12.75117315694401"><ele>295.3333333333333</ele><time>2026-04-19T12:20:37.999Z</time></trkpt><trkpt lat="42.752879762249" lon="12.75131612387888"><ele>295.6666666666667</ele><time>2026-04-19T12:20:38.999Z</time></trkpt><trkpt lat="42.75301701405237" lon="12.751460390578472"><ele>296.0</ele><time>2026-04-19T12:20:39.999Z</time></trkpt><trkpt lat="42.75315480373991" lon="12.751602613939575"><ele>296.0</ele><time>2026-04-19T12:20:40.999Z</time></trkpt><trkpt lat="42.7532944085328" lon="12.7517457418589"><ele>296.0</ele><time>2026-04-19T12:20:41.999Z</time></trkpt><trkpt lat="42.753430975871105" lon="12.751887167514598"><ele>296.0</ele><time>2026-04-19T12:20:42.999Z</time></trkpt><trkpt lat="42.75357005549308" lon="12.752031791877025"><ele>295.33333333333337</ele><time>2026-04-19T12:20:43.999Z</time></trkpt><trkpt lat="42.75370716983266" lon="12.75217578494255"><ele>294.6666666666667</ele><time>2026-04-19T12:20:44.999Z</time></trkpt><trkpt lat="42.75384553189001" lon="12.752323539514569"><ele>294.0</ele><time>2026-04-19T12:20:45.999Z</time></trkpt><trkpt lat="42.7539826281237" lon="12.752468694763897"><ele>294.0</ele><time>2026-04-19T12:20:46.999Z</time></trkpt><trkpt lat="42.75412000135708" lon="12.752611164426575"><ele>294.0</ele><time>2026-04-19T12:20:47.999Z</time></trkpt><trkpt lat="42.75425768433339" lon="12.752754297652862"><ele>294.0</ele><time>2026-04-19T12:20:48.999Z</time></trkpt><trkpt lat="42.754397909595234" lon="12.752894481579169"><ele>293.6666666666667</ele><time>2026-04-19T12:20:49.999Z</time></trkpt><trkpt lat="42.75454230882661" lon="12.753033011153262"><ele>293.33333333333337</ele><time>2026-04-19T12:20:50.999Z</time></trkpt><trkpt lat="42.75468722698647" lon="12.753169498030866"><ele>293.0</ele><time>2026-04-19T12:20:51.999Z</time></trkpt><trkpt lat="42.75483222026257" lon="12.753302115158288"><ele>293.0</ele><time>2026-04-19T12:20:52.999Z</time></trkpt><trkpt lat="42.75497758386047" lon="12.753434093360694"><ele>293.0</ele><time>2026-04-19T12:20:53.999Z</time></trkpt><trkpt lat="42.75512595590244" lon="12.753562061818027"><ele>293.0</ele><time>2026-04-19T12:20:54.999Z</time></trkpt><trkpt lat="42.755273314395005" lon="12.753689994193028"><ele>293.6666666666667</ele><time>2026-04-19T12:20:55.999Z</time></trkpt><trkpt lat="42.75542163387585" lon="12.753810953052875"><ele>294.3333333333333</ele><time>2026-04-19T12:20:56.999Z</time></trkpt><trkpt lat="42.755573826583536" lon="12.753929323006174"><ele>295.0</ele><time>2026-04-19T12:20:57.999Z</time></trkpt><trkpt lat="42.75572679052659" lon="12.754044401313188"><ele>295.0</ele><time>2026-04-19T12:20:58.999Z</time></trkpt><trkpt lat="42.755876577670264" lon="12.7541562089254"><ele>295.0</ele><time>2026-04-19T12:20:59.999Z</time></trkpt><trkpt lat="42.75602554121736" lon="12.75427592838839"><ele>295.0</ele><time>2026-04-19T12:21:00.999Z</time></trkpt><trkpt lat="42.75617317083343" lon="12.754395778006032"><ele>293.66666666666663</ele><time>2026-04-19T12:21:01.999Z</time></trkpt><trkpt lat="42.756325870543606" lon="12.754518201403993"><ele>292.3333333333333</ele><time>2026-04-19T12:21:02.998Z</time></trkpt><trkpt lat="42.75647488290872" lon="12.75463827901894"><ele>291.0</ele><time>2026-04-19T12:21:03.998Z</time></trkpt><trkpt lat="42.75662706273804" lon="12.754759067021482"><ele>291.0</ele><time>2026-04-19T12:21:04.998Z</time></trkpt><trkpt lat="42.7567760092799" lon="12.754878403805147"><ele>291.0</ele><time>2026-04-19T12:21:05.998Z</time></trkpt><trkpt lat="42.756929055291984" lon="12.754997163341281"><ele>291.0</ele><time>2026-04-19T12:21:07Z</time></trkpt><trkpt lat="42.75708031766849" lon="12.755111782860443"><ele>290.6666666666667</ele><time>2026-04-19T12:21:08Z</time></trkpt><trkpt lat="42.75723037925731" lon="12.755229946445883"><ele>290.33333333333337</ele><time>2026-04-19T12:21:09Z</time></trkpt><trkpt lat="42.75738104347264" lon="12.755346691566496"><ele>290.0</ele><time>2026-04-19T12:21:10Z</time></trkpt><trkpt lat="42.757530308944865" lon="12.755465872914076"><ele>290.0</ele><time>2026-04-19T12:21:11Z</time></trkpt><trkpt lat="42.757683193238734" lon="12.755586214831082"><ele>290.0</ele><time>2026-04-19T12:21:12Z</time></trkpt><trkpt lat="42.757835105941005" lon="12.755705979906146"><ele>290.0</ele><time>2026-04-19T12:21:13Z</time></trkpt><trkpt lat="42.75798978349657" lon="12.75582659116331"><ele>288.6666666666667</ele><time>2026-04-19T12:21:14Z</time></trkpt><trkpt lat="42.75814113003908" lon="12.755948733638565"><ele>287.3333333333333</ele><time>2026-04-19T12:21:15Z</time></trkpt><trkpt lat="42.75829401610667" lon="12.756068276104045"><ele>286.0</ele><time>2026-04-19T12:21:16Z</time></trkpt><trkpt lat="42.75844238962874" lon="12.756188319492587"><ele>286.3333333333333</ele><time>2026-04-19T12:21:17Z</time></trkpt><trkpt lat="42.75859065683172" lon="12.756307058172412"><ele>286.6666666666667</ele><time>2026-04-19T12:21:18Z</time></trkpt><trkpt lat="42.758741230205096" lon="12.756427395626135"><ele>287.0</ele><time>2026-04-19T12:21:19Z</time></trkpt><trkpt lat="42.758892741926" lon="12.756548791686486"><ele>287.0</ele><time>2026-04-19T12:21:20Z</time></trkpt><trkpt lat="42.759044650954344" lon="12.756668592027161"><ele>287.0</ele><time>2026-04-19T12:21:21Z</time></trkpt><trkpt lat="42.75919817868513" lon="12.756787820224368"><ele>287.0</ele><time>2026-04-19T12:21:22Z</time></trkpt><trkpt lat="42.75935130057826" lon="12.756905040216985"><ele>287.6666666666667</ele><time>2026-04-19T12:21:23Z</time></trkpt><trkpt lat="42.75949910015657" lon="12.757026933108584"><ele>288.3333333333333</ele><time>2026-04-19T12:21:24Z</time></trkpt><trkpt lat="42.759646009244655" lon="12.757148828788917"><ele>289.0</ele><time>2026-04-19T12:21:25Z</time></trkpt><trkpt lat="42.75979392237854" lon="12.757271498778215"><ele>289.0</ele><time>2026-04-19T12:21:26Z</time></trkpt><trkpt lat="42.759941857818404" lon="12.75739639894631"><ele>289.0</ele><time>2026-04-19T12:21:27Z</time></trkpt><trkpt lat="42.76008824538298" lon="12.757525483948386"><ele>289.0</ele><time>2026-04-19T12:21:28Z</time></trkpt><trkpt lat="42.760231255127664" lon="12.757658533477326"><ele>289.0</ele><time>2026-04-19T12:21:29Z</time></trkpt><trkpt lat="42.760372384467864" lon="12.75779913165569"><ele>289.0</ele><time>2026-04-19T12:21:30Z</time></trkpt><trkpt lat="42.760509745293454" lon="12.757942882107216"><ele>289.0</ele><time>2026-04-19T12:21:31Z</time></trkpt><trkpt lat="42.76064506899019" lon="12.758090212780232"><ele>289.0</ele><time>2026-04-19T12:21:32Z</time></trkpt><trkpt lat="42.76078042575582" lon="12.75824087494113"><ele>289.0</ele><time>2026-04-19T12:21:33Z</time></trkpt><trkpt lat="42.76091197213488" lon="12.758399516919168"><ele>289.0</ele><time>2026-04-19T12:21:34Z</time></trkpt><trkpt lat="42.761040670076746" lon="12.75856514128431"><ele>287.0</ele><time>2026-04-19T12:21:35Z</time></trkpt><trkpt lat="42.761163149821876" lon="12.758731583853875"><ele>285.0</ele><time>2026-04-19T12:21:36Z</time></trkpt><trkpt lat="42.761286015002305" lon="12.758903314451034"><ele>283.0</ele><time>2026-04-19T12:21:37Z</time></trkpt><trkpt lat="42.76140439905286" lon="12.759076249566032"><ele>283.0</ele><time>2026-04-19T12:21:38Z</time></trkpt><trkpt lat="42.76152364763274" lon="12.759249915555175"><ele>283.0</ele><time>2026-04-19T12:21:39Z</time></trkpt><trkpt lat="42.761641171802005" lon="12.759423631470192"><ele>283.0</ele><time>2026-04-19T12:21:40Z</time></trkpt><trkpt lat="42.76176012671376" lon="12.759598200029346"><ele>282.0</ele><time>2026-04-19T12:21:41Z</time></trkpt><trkpt lat="42.76188030801619" lon="12.759774544118466"><ele>281.0</ele><time>2026-04-19T12:21:42Z</time></trkpt><trkpt lat="42.761999287407086" lon="12.759952540327049"><ele>280.0</ele><time>2026-04-19T12:21:43Z</time></trkpt><trkpt lat="42.76211359938998" lon="12.760130605414346"><ele>280.3333333333333</ele><time>2026-04-19T12:21:44Z</time></trkpt><trkpt lat="42.76222915655599" lon="12.760307956873728"><ele>280.6666666666667</ele><time>2026-04-19T12:21:45Z</time></trkpt><trkpt lat="42.762344907959" lon="12.760482345920147"><ele>281.0</ele><time>2026-04-19T12:21:46Z</time></trkpt><trkpt lat="42.76245652828457" lon="12.760665220779256"><ele>281.0</ele><time>2026-04-19T12:21:47Z</time></trkpt><trkpt lat="42.762564977076096" lon="12.760848637479429"><ele>281.0</ele><time>2026-04-19T12:21:47.999Z</time></trkpt><trkpt lat="42.762669056928424" lon="12.761034707155083"><ele>281.0</ele><time>2026-04-19T12:21:48.999Z</time></trkpt><trkpt lat="42.76277427804508" lon="12.761224322011092"><ele>280.0</ele><time>2026-04-19T12:21:49.999Z</time></trkpt><trkpt lat="42.762879385132536" lon="12.761416832323428"><ele>279.0</ele><time>2026-04-19T12:21:50.999Z</time></trkpt><trkpt lat="42.762980410370275" lon="12.761613048659031"><ele>278.0</ele><time>2026-04-19T12:21:51.999Z</time></trkpt><trkpt lat="42.76307138446292" lon="12.761816298459344"><ele>279.0</ele><time>2026-04-19T12:21:52.999Z</time></trkpt><trkpt lat="42.76315300406354" lon="12.762024308327817"><ele>280.0</ele><time>2026-04-19T12:21:53.999Z</time></trkpt><trkpt lat="42.76322674159151" lon="12.762233499233604"><ele>281.0</ele><time>2026-04-19T12:21:54.999Z</time></trkpt><trkpt lat="42.76329540243254" lon="12.762449046191044"><ele>281.0</ele><time>2026-04-19T12:21:55.999Z</time></trkpt><trkpt lat="42.76335942636306" lon="12.762667633954537"><ele>281.0</ele><time>2026-04-19T12:21:56.999Z</time></trkpt><trkpt lat="42.76341788707286" lon="12.762887836726513"><ele>281.0</ele><time>2026-04-19T12:21:57.999Z</time></trkpt><trkpt lat="42.76347089747512" lon="12.763109416572698"><ele>280.33333333333337</ele><time>2026-04-19T12:21:58.999Z</time></trkpt><trkpt lat="42.763520885700224" lon="12.763335785418883"><ele>279.6666666666667</ele><time>2026-04-19T12:21:59.999Z</time></trkpt><trkpt lat="42.763565751739996" lon="12.763567640810278"><ele>279.0</ele><time>2026-04-19T12:22:00.999Z</time></trkpt><trkpt lat="42.763608773109816" lon="12.763803846125487"><ele>278.6666666666667</ele><time>2026-04-19T12:22:01.999Z</time></trkpt><trkpt lat="42.763650136438955" lon="12.764035257514216"><ele>278.33333333333337</ele><time>2026-04-19T12:22:02.999Z</time></trkpt><trkpt lat="42.76369216915309" lon="12.764267640230836"><ele>278.0</ele><time>2026-04-19T12:22:03.999Z</time></trkpt><trkpt lat="42.76373714600867" lon="12.764491082045666"><ele>278.6666666666667</ele><time>2026-04-19T12:22:04.999Z</time></trkpt><trkpt lat="42.763786475249134" lon="12.764715867854228"><ele>279.3333333333333</ele><time>2026-04-19T12:22:05.999Z</time></trkpt><trkpt lat="42.763839654089004" lon="12.764939196528331"><ele>280.0</ele><time>2026-04-19T12:22:06.999Z</time></trkpt><trkpt lat="42.76389897531306" lon="12.765165576890542"><ele>281.0</ele><time>2026-04-19T12:22:07.999Z</time></trkpt><trkpt lat="42.76396446689518" lon="12.765387749282587"><ele>282.0</ele><time>2026-04-19T12:22:08.999Z</time></trkpt><trkpt lat="42.764037177130504" lon="12.765609307912205"><ele>283.0</ele><time>2026-04-19T12:22:09.999Z</time></trkpt><trkpt lat="42.76411179847833" lon="12.765822203924888"><ele>284.0</ele><time>2026-04-19T12:22:10.999Z</time></trkpt><trkpt lat="42.764191447539346" lon="12.766033019828004"><ele>285.0</ele><time>2026-04-19T12:22:11.999Z</time></trkpt><trkpt lat="42.76427560475353" lon="12.766238580718257"><ele>286.0</ele><time>2026-04-19T12:22:12.999Z</time></trkpt><trkpt lat="42.76436823801311" lon="12.766439410031436"><ele>284.3333333333333</ele><time>2026-04-19T12:22:13.999Z</time></trkpt><trkpt lat="42.76446685634151" lon="12.766632646890475"><ele>282.6666666666667</ele><time>2026-04-19T12:22:14.999Z</time></trkpt><trkpt lat="42.7645711923949" lon="12.766821061903196"><ele>281.0</ele><time>2026-04-19T12:22:15.999Z</time></trkpt><trkpt lat="42.76468106570297" lon="12.76700848329368"><ele>281.0</ele><time>2026-04-19T12:22:16.999Z</time></trkpt><trkpt lat="42.76480027440497" lon="12.767194573901186"><ele>281.0</ele><time>2026-04-19T12:22:17.999Z</time></trkpt><trkpt lat="42.7649254923803" lon="12.767375697026356"><ele>281.0</ele><time>2026-04-19T12:22:18.999Z</time></trkpt><trkpt lat="42.76505808001093" lon="12.767547928396468"><ele>281.0</ele><time>2026-04-19T12:22:19.999Z</time></trkpt><trkpt lat="42.76519845298921" lon="12.767718183079172"><ele>281.0</ele><time>2026-04-19T12:22:20.999Z</time></trkpt><trkpt lat="42.76534254430338" lon="12.767880286091136"><ele>281.0</ele><time>2026-04-19T12:22:21.999Z</time></trkpt><trkpt lat="42.76549110931151" lon="12.768033724555478"><ele>281.0</ele><time>2026-04-19T12:22:22.999Z</time></trkpt><trkpt lat="42.765647749186606" lon="12.76817790226043"><ele>281.0</ele><time>2026-04-19T12:22:23.999Z</time></trkpt><trkpt lat="42.765811920042054" lon="12.768314577621133"><ele>281.0</ele><time>2026-04-19T12:22:24.999Z</time></trkpt><trkpt lat="42.76598243168235" lon="12.768443690537584"><ele>281.0</ele><time>2026-04-19T12:22:25.999Z</time></trkpt><trkpt lat="42.76615606905312" lon="12.768563529696685"><ele>281.0</ele><time>2026-04-19T12:22:26.999Z</time></trkpt><trkpt lat="42.76633165399489" lon="12.768674432807831"><ele>281.0</ele><time>2026-04-19T12:22:27.999Z</time></trkpt><trkpt lat="42.76651078885322" lon="12.768775168065421"><ele>281.0</ele><time>2026-04-19T12:22:28.999Z</time></trkpt><trkpt lat="42.76670043837586" lon="12.768874951240297"><ele>281.0</ele><time>2026-04-19T12:22:29.999Z</time></trkpt><trkpt lat="42.766892613708244" lon="12.76897307407613"><ele>281.0</ele><time>2026-04-19T12:22:30.999Z</time></trkpt><trkpt lat="42.76704050358132" lon="12.769074847940812"><ele>280.33333333333337</ele><time>2026-04-19T12:22:31.999Z</time></trkpt><trkpt lat="42.767228427404184" lon="12.769155568283512"><ele>279.6666666666667</ele><time>2026-04-19T12:22:32.999Z</time></trkpt><trkpt lat="42.7674170926615" lon="12.769228910405964"><ele>279.0</ele><time>2026-04-19T12:22:33.999Z</time></trkpt><trkpt lat="42.76760979272321" lon="12.769297671288314"><ele>279.0</ele><time>2026-04-19T12:22:34.999Z</time></trkpt><trkpt lat="42.76780214281671" lon="12.769368077012894"><ele>279.0</ele><time>2026-04-19T12:22:35.999Z</time></trkpt><trkpt lat="42.767994901320726" lon="12.76944161051861"><ele>279.0</ele><time>2026-04-19T12:22:36.999Z</time></trkpt><trkpt lat="42.768183751437384" lon="12.76951086283516"><ele>279.0</ele><time>2026-04-19T12:22:37.999Z</time></trkpt><trkpt lat="42.76837702756093" lon="12.769582760403374"><ele>279.0</ele><time>2026-04-19T12:22:38.999Z</time></trkpt><trkpt lat="42.76856711779585" lon="12.76965202369256"><ele>279.0</ele><time>2026-04-19T12:22:39.999Z</time></trkpt><trkpt lat="42.768737407663956" lon="12.769720930198167"><ele>278.3333333333333</ele><time>2026-04-19T12:22:40.999Z</time></trkpt><trkpt lat="42.768950723362046" lon="12.769791043492562"><ele>277.66666666666663</ele><time>2026-04-19T12:22:41.999Z</time></trkpt><trkpt lat="42.76915325226784" lon="12.769859827654146"><ele>277.0</ele><time>2026-04-19T12:22:42.999Z</time></trkpt><trkpt lat="42.76935567861962" lon="12.769931809165799"><ele>275.3333333333333</ele><time>2026-04-19T12:22:43.999Z</time></trkpt><trkpt lat="42.769560430080865" lon="12.769999492701208"><ele>273.6666666666667</ele><time>2026-04-19T12:22:44.999Z</time></trkpt><trkpt lat="42.769763264231784" lon="12.770069908551648"><ele>272.0</ele><time>2026-04-19T12:22:45.999Z</time></trkpt><trkpt lat="42.76996815566725" lon="12.770138167213387"><ele>272.33333333333337</ele><time>2026-04-19T12:22:46.999Z</time></trkpt><trkpt lat="42.770174470127394" lon="12.77019827651362"><ele>272.6666666666667</ele><time>2026-04-19T12:22:47.999Z</time></trkpt><trkpt lat="42.770383145162526" lon="12.77025724460834"><ele>273.0</ele><time>2026-04-19T12:22:48.999Z</time></trkpt><trkpt lat="42.770594995816616" lon="12.770316947876054"><ele>273.3333333333333</ele><time>2026-04-19T12:22:49.999Z</time></trkpt><trkpt lat="42.77080178141121" lon="12.770376294828333"><ele>273.66666666666663</ele><time>2026-04-19T12:22:50.999Z</time></trkpt><trkpt lat="42.77101083996111" lon="12.770438423017014"><ele>274.0</ele><time>2026-04-19T12:22:51.999Z</time></trkpt><trkpt lat="42.77122204871772" lon="12.770504181396241"><ele>274.0</ele><time>2026-04-19T12:22:52.999Z</time></trkpt><trkpt lat="42.77143549382087" lon="12.770560688250681"><ele>274.0</ele><time>2026-04-19T12:22:53.999Z</time></trkpt><trkpt lat="42.77165083421635" lon="12.770608828209557"><ele>274.0</ele><time>2026-04-19T12:22:54.999Z</time></trkpt><trkpt lat="42.771861087450255" lon="12.770659029671041"><ele>274.66666666666663</ele><time>2026-04-19T12:22:55.999Z</time></trkpt><trkpt lat="42.77207592834447" lon="12.770709131280888"><ele>275.3333333333333</ele><time>2026-04-19T12:22:56.999Z</time></trkpt><trkpt lat="42.77229203306368" lon="12.770761680466583"><ele>276.0</ele><time>2026-04-19T12:22:57.999Z</time></trkpt><trkpt lat="42.77250257884359" lon="12.770814693166203"><ele>276.6666666666667</ele><time>2026-04-19T12:22:58.999Z</time></trkpt><trkpt lat="42.77271360971936" lon="12.770865228714982"><ele>277.33333333333337</ele><time>2026-04-19T12:22:59.999Z</time></trkpt><trkpt lat="42.77292436009611" lon="12.770912884050187"><ele>278.0</ele><time>2026-04-19T12:23:00.999Z</time></trkpt><trkpt lat="42.77313572926816" lon="12.770956690598734"><ele>278.0</ele><time>2026-04-19T12:23:01.999Z</time></trkpt><trkpt lat="42.77334245717508" lon="12.770992577445318"><ele>278.0</ele><time>2026-04-19T12:23:02.999Z</time></trkpt><trkpt lat="42.773552527370676" lon="12.771018242870113"><ele>278.0</ele><time>2026-04-19T12:23:03.999Z</time></trkpt><trkpt lat="42.77376125536376" lon="12.771042716196574"><ele>279.33333333333337</ele><time>2026-04-19T12:23:04.999Z</time></trkpt><trkpt lat="42.77397243674925" lon="12.771053432520956"><ele>280.6666666666667</ele><time>2026-04-19T12:23:05.999Z</time></trkpt><trkpt lat="42.774182359704945" lon="12.771059597224857"><ele>282.0</ele><time>2026-04-19T12:23:06.999Z</time></trkpt><trkpt lat="42.77439427058622" lon="12.771064944434588"><ele>282.0</ele><time>2026-04-19T12:23:07.999Z</time></trkpt><trkpt lat="42.77460626980309" lon="12.771052702159434"><ele>282.0</ele><time>2026-04-19T12:23:08.999Z</time></trkpt><trkpt lat="42.77481662344869" lon="12.77102443138369"><ele>282.0</ele><time>2026-04-19T12:23:09.999Z</time></trkpt><trkpt lat="42.775026920694195" lon="12.771005639047697"><ele>282.0</ele><time>2026-04-19T12:23:10.999Z</time></trkpt><trkpt lat="42.775223237010906" lon="12.77097532364283"><ele>282.0</ele><time>2026-04-19T12:23:11.998Z</time></trkpt><trkpt lat="42.77543405311398" lon="12.77094651523853"><ele>282.0</ele><time>2026-04-19T12:23:13Z</time></trkpt><trkpt lat="42.77562023610339" lon="12.770914210460319"><ele>282.0</ele><time>2026-04-19T12:23:14Z</time></trkpt><trkpt lat="42.775821680453994" lon="12.770847874346106"><ele>282.0</ele><time>2026-04-19T12:23:15Z</time></trkpt><trkpt lat="42.776015415479286" lon="12.77077572593757"><ele>282.0</ele><time>2026-04-19T12:23:16Z</time></trkpt><trkpt lat="42.77620858496262" lon="12.77069502993897"><ele>281.6666666666667</ele><time>2026-04-19T12:23:17Z</time></trkpt><trkpt lat="42.77643143872547" lon="12.770592521633342"><ele>281.33333333333337</ele><time>2026-04-19T12:23:18Z</time></trkpt><trkpt lat="42.776618524164235" lon="12.770492599309705"><ele>281.0</ele><time>2026-04-19T12:23:19Z</time></trkpt><trkpt lat="42.7768016758058" lon="12.770389835819845"><ele>279.5</ele><time>2026-04-19T12:23:20Z</time></trkpt><trkpt lat="42.77702027132933" lon="12.77016195164432"><ele>278.0</ele><time>2026-04-19T12:23:21Z</time></trkpt><trkpt lat="42.77721003548323" lon="12.770038237025902"><ele>278.0</ele><time>2026-04-19T12:23:22Z</time></trkpt><trkpt lat="42.77739081524887" lon="12.769904625559075"><ele>278.0</ele><time>2026-04-19T12:23:23Z</time></trkpt><trkpt lat="42.77757160835096" lon="12.7697615475953"><ele>278.0</ele><time>2026-04-19T12:23:24Z</time></trkpt><trkpt lat="42.77774667055756" lon="12.769606770660088"><ele>278.0</ele><time>2026-04-19T12:23:25Z</time></trkpt><trkpt lat="42.777919175089146" lon="12.76945532479754"><ele>278.0</ele><time>2026-04-19T12:23:26Z</time></trkpt><trkpt lat="42.778090670885355" lon="12.769305483584523"><ele>278.0</ele><time>2026-04-19T12:23:27Z</time></trkpt><trkpt lat="42.77826181226187" lon="12.769140560739162"><ele>277.6666666666667</ele><time>2026-04-19T12:23:28Z</time></trkpt><trkpt lat="42.77842249449325" lon="12.768978272650081"><ele>277.3333333333333</ele><time>2026-04-19T12:23:29Z</time></trkpt><trkpt lat="42.77858739651518" lon="12.76881622985582"><ele>277.0</ele><time>2026-04-19T12:23:30Z</time></trkpt><trkpt lat="42.7787568793003" lon="12.768660662114181"><ele>276.66666666666663</ele><time>2026-04-19T12:23:31Z</time></trkpt><trkpt lat="42.77892387557659" lon="12.768511984712735"><ele>276.3333333333333</ele><time>2026-04-19T12:23:32Z</time></trkpt><trkpt lat="42.77909731472025" lon="12.768368965858935"><ele>276.0</ele><time>2026-04-19T12:23:33Z</time></trkpt><trkpt lat="42.77926852887444" lon="12.768231437019073"><ele>276.0</ele><time>2026-04-19T12:23:34Z</time></trkpt><trkpt lat="42.77944159841932" lon="12.768096358671622"><ele>276.0</ele><time>2026-04-19T12:23:35Z</time></trkpt><trkpt lat="42.77961059362134" lon="12.767973023441451"><ele>276.0</ele><time>2026-04-19T12:23:36Z</time></trkpt><trkpt lat="42.77978207279498" lon="12.767850462586047"><ele>276.0</ele><time>2026-04-19T12:23:37Z</time></trkpt><trkpt lat="42.77995501757576" lon="12.767727093473818"><ele>276.0</ele><time>2026-04-19T12:23:38Z</time></trkpt><trkpt lat="42.78013328385798" lon="12.767613751738113"><ele>276.0</ele><time>2026-04-19T12:23:39Z</time></trkpt><trkpt lat="42.780322343909695" lon="12.767535069511354"><ele>275.0</ele><time>2026-04-19T12:23:40Z</time></trkpt><trkpt lat="42.780510056269655" lon="12.767453009224043"><ele>274.0</ele><time>2026-04-19T12:23:41Z</time></trkpt><trkpt lat="42.780694878553916" lon="12.767378969647972"><ele>273.0</ele><time>2026-04-19T12:23:42Z</time></trkpt><trkpt lat="42.780890804216305" lon="12.76732168083287"><ele>273.3333333333333</ele><time>2026-04-19T12:23:43Z</time></trkpt><trkpt lat="42.78107709008496" lon="12.76725734195234"><ele>273.66666666666663</ele><time>2026-04-19T12:23:44Z</time></trkpt><trkpt lat="42.781266407752206" lon="12.76719943476019"><ele>274.0</ele><time>2026-04-19T12:23:45Z</time></trkpt><trkpt lat="42.78145839123338" lon="12.767152477386377"><ele>274.0</ele><time>2026-04-19T12:23:46Z</time></trkpt><trkpt lat="42.78164911599091" lon="12.767123347166981"><ele>274.0</ele><time>2026-04-19T12:23:47Z</time></trkpt><trkpt lat="42.78184041109624" lon="12.76709887617055"><ele>274.0</ele><time>2026-04-19T12:23:48Z</time></trkpt><trkpt lat="42.782029109835776" lon="12.767074158837776"><ele>274.66666666666663</ele><time>2026-04-19T12:23:49Z</time></trkpt><trkpt lat="42.78221816333971" lon="12.767048852236533"><ele>275.3333333333333</ele><time>2026-04-19T12:23:50Z</time></trkpt><trkpt lat="42.78240989943575" lon="12.76702614693522"><ele>276.0</ele><time>2026-04-19T12:23:51Z</time></trkpt><trkpt lat="42.78259982364686" lon="12.767009279275022"><ele>276.6666666666667</ele><time>2026-04-19T12:23:51.999Z</time></trkpt><trkpt lat="42.78279170306654" lon="12.766997397615164"><ele>277.33333333333337</ele><time>2026-04-19T12:23:52.999Z</time></trkpt><trkpt lat="42.78298260878371" lon="12.7669805978532"><ele>278.0</ele><time>2026-04-19T12:23:53.999Z</time></trkpt><trkpt lat="42.78316714912535" lon="12.766972238768195"><ele>278.0</ele><time>2026-04-19T12:23:54.999Z</time></trkpt><trkpt lat="42.783356586534985" lon="12.766962742113463"><ele>278.0</ele><time>2026-04-19T12:23:55.999Z</time></trkpt><trkpt lat="42.78353828321144" lon="12.766946004947773"><ele>278.0</ele><time>2026-04-19T12:23:56.999Z</time></trkpt><trkpt lat="42.78370955657671" lon="12.766917476940218"><ele>278.33333333333337</ele><time>2026-04-19T12:23:57.999Z</time></trkpt><trkpt lat="42.78388738558551" lon="12.766899711319374"><ele>278.6666666666667</ele><time>2026-04-19T12:23:58.999Z</time></trkpt><trkpt lat="42.78407413379931" lon="12.766892751520752"><ele>279.0</ele><time>2026-04-19T12:23:59.999Z</time></trkpt><trkpt lat="42.784257795790474" lon="12.76689353425794"><ele>279.6666666666667</ele><time>2026-04-19T12:24:00.999Z</time></trkpt><trkpt lat="42.7844360645042" lon="12.766868711468865"><ele>280.33333333333337</ele><time>2026-04-19T12:24:01.999Z</time></trkpt><trkpt lat="42.78461891914875" lon="12.766843938563579"><ele>281.0</ele><time>2026-04-19T12:24:02.999Z</time></trkpt><trkpt lat="42.7848037978792" lon="12.766839775825849"><ele>280.6666666666667</ele><time>2026-04-19T12:24:03.999Z</time></trkpt><trkpt lat="42.78498920189717" lon="12.766817525178068"><ele>280.3333333333333</ele><time>2026-04-19T12:24:04.999Z</time></trkpt><trkpt lat="42.78516173670448" lon="12.766788576684995"><ele>280.0</ele><time>2026-04-19T12:24:05.999Z</time></trkpt><trkpt lat="42.785345511325296" lon="12.766782203433007"><ele>280.0</ele><time>2026-04-19T12:24:06.999Z</time></trkpt><trkpt lat="42.785523730463204" lon="12.766760234914356"><ele>280.0</ele><time>2026-04-19T12:24:07.999Z</time></trkpt><trkpt lat="42.78570212998684" lon="12.766739363980168"><ele>280.0</ele><time>2026-04-19T12:24:08.999Z</time></trkpt><trkpt lat="42.785884562318486" lon="12.766701539593694"><ele>280.0</ele><time>2026-04-19T12:24:09.999Z</time></trkpt><trkpt lat="42.78606518248633" lon="12.766679295217525"><ele>280.0</ele><time>2026-04-19T12:24:10.999Z</time></trkpt><trkpt lat="42.78625078563658" lon="12.766652677851255"><ele>280.0</ele><time>2026-04-19T12:24:11.999Z</time></trkpt><trkpt lat="42.78643232608874" lon="12.766620241027358"><ele>280.0</ele><time>2026-04-19T12:24:12.999Z</time></trkpt><trkpt lat="42.78661312407928" lon="12.766590032091571"><ele>280.0</ele><time>2026-04-19T12:24:13.999Z</time></trkpt><trkpt lat="42.78680647329805" lon="12.766554244698932"><ele>280.0</ele><time>2026-04-19T12:24:14.999Z</time></trkpt><trkpt lat="42.78700203603092" lon="12.76650711713575"><ele>281.3333333333333</ele><time>2026-04-19T12:24:15.999Z</time></trkpt><trkpt lat="42.787197183833044" lon="12.766466279426345"><ele>282.6666666666667</ele><time>2026-04-19T12:24:16.999Z</time></trkpt><trkpt lat="42.78738712037576" lon="12.766410061565391"><ele>284.0</ele><time>2026-04-19T12:24:17.999Z</time></trkpt><trkpt lat="42.787581108241454" lon="12.76636013784662"><ele>284.33333333333337</ele><time>2026-04-19T12:24:18.999Z</time></trkpt><trkpt lat="42.787767341016526" lon="12.766312396733817"><ele>284.6666666666667</ele><time>2026-04-19T12:24:19.999Z</time></trkpt><trkpt lat="42.78795811495366" lon="12.766266499971692"><ele>285.0</ele><time>2026-04-19T12:24:20.999Z</time></trkpt><trkpt lat="42.7881457999162" lon="12.766219155517943"><ele>285.0</ele><time>2026-04-19T12:24:21.999Z</time></trkpt><trkpt lat="42.788338242431024" lon="12.766167264834895"><ele>285.0</ele><time>2026-04-19T12:24:22.999Z</time></trkpt><trkpt lat="42.78853160819507" lon="12.766110759941348"><ele>285.0</ele><time>2026-04-19T12:24:23.999Z</time></trkpt><trkpt lat="42.78872084702706" lon="12.766044933969109"><ele>285.0</ele><time>2026-04-19T12:24:24.999Z</time></trkpt><trkpt lat="42.78890493446006" lon="12.76596914898252"><ele>285.0</ele><time>2026-04-19T12:24:25.999Z</time></trkpt><trkpt lat="42.78909628290562" lon="12.765902961023693"><ele>285.0</ele><time>2026-04-19T12:24:26.999Z</time></trkpt><trkpt lat="42.78928947951309" lon="12.765837909371713"><ele>286.0</ele><time>2026-04-19T12:24:27.999Z</time></trkpt><trkpt lat="42.789476543916074" lon="12.765771968994933"><ele>287.0</ele><time>2026-04-19T12:24:28.999Z</time></trkpt><trkpt lat="42.78967045743182" lon="12.765712066361045"><ele>288.0</ele><time>2026-04-19T12:24:29.999Z</time></trkpt><trkpt lat="42.78985502462885" lon="12.765642112353357"><ele>288.0</ele><time>2026-04-19T12:24:30.999Z</time></trkpt><trkpt lat="42.79004349373934" lon="12.765573427328931"><ele>288.0</ele><time>2026-04-19T12:24:31.999Z</time></trkpt><trkpt lat="42.790231385436975" lon="12.765498050173974"><ele>288.0</ele><time>2026-04-19T12:24:32.999Z</time></trkpt><trkpt lat="42.79041782666643" lon="12.765422756748183"><ele>288.3333333333333</ele><time>2026-04-19T12:24:33.999Z</time></trkpt><trkpt lat="42.79060764591557" lon="12.765348188763811"><ele>288.66666666666663</ele><time>2026-04-19T12:24:34.999Z</time></trkpt><trkpt lat="42.79079489026161" lon="12.76527232072582"><ele>289.0</ele><time>2026-04-19T12:24:35.999Z</time></trkpt><trkpt lat="42.79098999891209" lon="12.765199900112119"><ele>289.3333333333333</ele><time>2026-04-19T12:24:36.999Z</time></trkpt><trkpt lat="42.79117768769165" lon="12.765128902233636"><ele>289.6666666666667</ele><time>2026-04-19T12:24:37.999Z</time></trkpt><trkpt lat="42.79136602163237" lon="12.76505760161044"><ele>290.0</ele><time>2026-04-19T12:24:38.999Z</time></trkpt><trkpt lat="42.79155668561943" lon="12.764987187524348"><ele>290.0</ele><time>2026-04-19T12:24:39.999Z</time></trkpt><trkpt lat="42.79174281932336" lon="12.764914012363189"><ele>290.0</ele><time>2026-04-19T12:24:40.999Z</time></trkpt><trkpt lat="42.791926529756886" lon="12.764840400468177"><ele>290.0</ele><time>2026-04-19T12:24:41.999Z</time></trkpt><trkpt lat="42.79211928333996" lon="12.764763432127129"><ele>289.6666666666667</ele><time>2026-04-19T12:24:42.999Z</time></trkpt><trkpt lat="42.79230500799313" lon="12.764689120424306"><ele>289.3333333333333</ele><time>2026-04-19T12:24:43.999Z</time></trkpt><trkpt lat="42.79249695508965" lon="12.76461819775284"><ele>289.0</ele><time>2026-04-19T12:24:44.999Z</time></trkpt><trkpt lat="42.79267551397776" lon="12.764549818585671"><ele>288.66666666666663</ele><time>2026-04-19T12:24:45.999Z</time></trkpt><trkpt lat="42.792855510590485" lon="12.764494040156068"><ele>288.3333333333333</ele><time>2026-04-19T12:24:46.999Z</time></trkpt><trkpt lat="42.793012499264364" lon="12.764438406312724"><ele>288.0</ele><time>2026-04-19T12:24:47.999Z</time></trkpt><trkpt lat="42.79315439199088" lon="12.76439488841666"><ele>287.0</ele><time>2026-04-19T12:24:48.999Z</time></trkpt><trkpt lat="42.79328191025729" lon="12.764347384239791"><ele>286.0</ele><time>2026-04-19T12:24:49.999Z</time></trkpt><trkpt lat="42.79340031251358" lon="12.764303602015207"><ele>285.0</ele><time>2026-04-19T12:24:50.999Z</time></trkpt><trkpt lat="42.793510568557366" lon="12.764262518420066"><ele>284.0</ele><time>2026-04-19T12:24:51.999Z</time></trkpt><trkpt lat="42.79360891066221" lon="12.764227914954315"><ele>284.0</ele><time>2026-04-19T12:24:52.999Z</time></trkpt><trkpt lat="42.79369342985744" lon="12.76419632809206"><ele>284.0</ele><time>2026-04-19T12:24:53.999Z</time></trkpt><trkpt lat="42.79376246109295" lon="12.764172506880893"><ele>284.0</ele><time>2026-04-19T12:24:54.999Z</time></trkpt><trkpt lat="42.793867570118145" lon="12.764198141885778"><ele>284.0</ele><time>2026-04-19T12:24:56.999Z</time></trkpt><trkpt lat="42.793941770965525" lon="12.764198327366014"><ele>284.0</ele><time>2026-04-19T12:24:58.999Z</time></trkpt><trkpt lat="42.79409802938017" lon="12.764287709743904"><ele>284.59999999999997</ele><time>2026-04-19T12:24:59.999Z</time></trkpt><trkpt lat="42.79412457399734" lon="12.7644128160138"><ele>285.2</ele><time>2026-04-19T12:25:01.999Z</time></trkpt><trkpt lat="42.794149235611904" lon="12.764525900522003"><ele>285.79999999999995</ele><time>2026-04-19T12:25:03.999Z</time></trkpt><trkpt lat="42.79416964948283" lon="12.764618714457955"><ele>286.4</ele><time>2026-04-19T12:25:05.999Z</time></trkpt><trkpt lat="42.79418680351249" lon="12.764705154088533"><ele>287.0</ele><time>2026-04-19T12:25:08.999Z</time></trkpt><trkpt lat="42.79403601011215" lon="12.7647733474515"><ele>287.0</ele><time>2026-04-19T12:30:54.999Z</time></trkpt><trkpt lat="42.79394945142298" lon="12.764803068945177"><ele>287.0</ele><time>2026-04-19T12:57:01.999Z</time></trkpt><trkpt lat="42.79388934982213" lon="12.764750247743823"><ele>287.0</ele><time>2026-04-19T12:57:03.999Z</time></trkpt><trkpt lat="42.79385302671492" lon="12.764665926467645"><ele>287.0</ele><time>2026-04-19T12:57:05.999Z</time></trkpt><trkpt lat="42.79381289148922" lon="12.764595795394866"><ele>287.0</ele><time>2026-04-19T12:57:07.999Z</time></trkpt><trkpt lat="42.79375121079335" lon="12.764554751860624"><ele>287.0</ele><time>2026-04-19T12:57:09.999Z</time></trkpt><trkpt lat="42.79367795640465" lon="12.764563454994079"><ele>287.0</ele><time>2026-04-19T12:57:11.999Z</time></trkpt><trkpt lat="42.793628824719555" lon="12.764642771288713"><ele>287.0</ele><time>2026-04-19T12:57:13.999Z</time></trkpt><trkpt lat="42.79360319696519" lon="12.764740344134188"><ele>287.0</ele><time>2026-04-19T12:57:15.999Z</time></trkpt><trkpt lat="42.79358763359835" lon="12.764829997392251"><ele>287.0</ele><time>2026-04-19T12:57:17.999Z</time></trkpt><trkpt lat="42.793620350440925" lon="12.764904457684906"><ele>287.0</ele><time>2026-04-19T12:57:19.999Z</time></trkpt><trkpt lat="42.79369195736493" lon="12.76491501157578"><ele>287.0</ele><time>2026-04-19T12:57:21.999Z</time></trkpt><trkpt lat="42.79375893306976" lon="12.764874000410849"><ele>287.0</ele><time>2026-04-19T12:57:23.999Z</time></trkpt><trkpt lat="42.79382169578418" lon="12.764828296705058"><ele>287.0</ele><time>2026-04-19T12:57:25.999Z</time></trkpt><trkpt lat="42.79388763245489" lon="12.76480021399495"><ele>287.0</ele><time>2026-04-19T12:57:27.999Z</time></trkpt><trkpt lat="42.793953139306694" lon="12.764792226292819"><ele>287.0</ele><time>2026-04-19T12:57:29.999Z</time></trkpt><trkpt lat="42.79401654129742" lon="12.764762333919686"><ele>287.0</ele><time>2026-04-19T12:57:31.999Z</time></trkpt><trkpt lat="42.79406246356473" lon="12.764692190115333"><ele>287.0</ele><time>2026-04-19T12:57:33.999Z</time></trkpt><trkpt lat="42.79408613413745" lon="12.764600609768282"><ele>287.0</ele><time>2026-04-19T12:57:35.999Z</time></trkpt><trkpt lat="42.794068326801145" lon="12.76450271993132"><ele>287.0</ele><time>2026-04-19T12:57:37.999Z</time></trkpt><trkpt lat="42.794005344901066" lon="12.764459210838941"><ele>287.0</ele><time>2026-04-19T12:57:39.999Z</time></trkpt><trkpt lat="42.7939363626794" lon="12.764485712073256"><ele>287.0</ele><time>2026-04-19T12:57:41.999Z</time></trkpt><trkpt lat="42.79388678982418" lon="12.764560804120954"><ele>287.0</ele><time>2026-04-19T12:57:43.999Z</time></trkpt><trkpt lat="42.79386726500202" lon="12.764654809275257"><ele>287.0</ele><time>2026-04-19T12:57:45.999Z</time></trkpt><trkpt lat="42.79385435207058" lon="12.76475080988554"><ele>287.0</ele><time>2026-04-19T12:57:47.999Z</time></trkpt><trkpt lat="42.79381193548251" lon="12.764837205048197"><ele>287.0</ele><time>2026-04-19T12:57:49.999Z</time></trkpt><trkpt lat="42.79374512842198" lon="12.764899390527697"><ele>287.0</ele><time>2026-04-19T12:57:51.999Z</time></trkpt><trkpt lat="42.79366985195793" lon="12.76492266368701"><ele>287.0</ele><time>2026-04-19T12:57:53.999Z</time></trkpt><trkpt lat="42.7935960019999" lon="12.76489718047768"><ele>287.0</ele><time>2026-04-19T12:57:55.999Z</time></trkpt><trkpt lat="42.79352421933026" lon="12.764852044313105"><ele>287.0</ele><time>2026-04-19T12:57:57.999Z</time></trkpt><trkpt lat="42.79346111657913" lon="12.7647821053463"><ele>287.0</ele><time>2026-04-19T12:57:59.999Z</time></trkpt><trkpt lat="42.79343762985091" lon="12.764685722438411"><ele>287.0</ele><time>2026-04-19T12:58:01.999Z</time></trkpt><trkpt lat="42.79346855066373" lon="12.764598749695057"><ele>287.0</ele><time>2026-04-19T12:58:03.999Z</time></trkpt><trkpt lat="42.79352349865213" lon="12.764531064274111"><ele>287.0</ele><time>2026-04-19T12:58:05.999Z</time></trkpt><trkpt lat="42.79359597183237" lon="12.764507739214821"><ele>287.0</ele><time>2026-04-19T12:58:07.999Z</time></trkpt><trkpt lat="42.793667965713496" lon="12.764500522405825"><ele>287.0</ele><time>2026-04-19T12:58:09.999Z</time></trkpt><trkpt lat="42.79373358173346" lon="12.76451344355066"><ele>287.0</ele><time>2026-04-19T12:58:11.999Z</time></trkpt><trkpt lat="42.79379022820848" lon="12.764558715757442"><ele>287.0</ele><time>2026-04-19T12:58:13.999Z</time></trkpt><trkpt lat="42.7938197233771" lon="12.764639540926208"><ele>287.0</ele><time>2026-04-19T12:58:15.999Z</time></trkpt><trkpt lat="42.79381588376332" lon="12.764731603072704"><ele>287.0</ele><time>2026-04-19T12:58:17.999Z</time></trkpt><trkpt lat="42.793793326846405" lon="12.764820801154574"><ele>287.0</ele><time>2026-04-19T12:58:19.999Z</time></trkpt><trkpt lat="42.79374961082594" lon="12.764894174804153"><ele>287.0</ele><time>2026-04-19T12:58:21.999Z</time></trkpt><trkpt lat="42.793681072495374" lon="12.764931140035843"><ele>287.0</ele><time>2026-04-19T12:58:23.999Z</time></trkpt><trkpt lat="42.793604340749475" lon="12.764928571675936"><ele>287.0</ele><time>2026-04-19T12:58:25.999Z</time></trkpt><trkpt lat="42.79353159911069" lon="12.764884811170063"><ele>287.0</ele><time>2026-04-19T12:58:27.999Z</time></trkpt><trkpt lat="42.79347145451635" lon="12.764802809935311"><ele>287.0</ele><time>2026-04-19T12:58:29.999Z</time></trkpt><trkpt lat="42.793450633205026" lon="12.764685713175881"><ele>287.0</ele><time>2026-04-19T12:58:31.999Z</time></trkpt><trkpt lat="42.7934894909529" lon="12.764579148301285"><ele>287.0</ele><time>2026-04-19T12:58:33.999Z</time></trkpt><trkpt lat="42.79356261728029" lon="12.764516143179739"><ele>287.0</ele><time>2026-04-19T12:58:35.999Z</time></trkpt><trkpt lat="42.79364328207157" lon="12.764483268396356"><ele>287.0</ele><time>2026-04-19T12:58:37.999Z</time></trkpt><trkpt lat="42.79372143351379" lon="12.764487298542976"><ele>287.0</ele><time>2026-04-19T12:58:39.999Z</time></trkpt><trkpt lat="42.79379155875074" lon="12.764509178604223"><ele>287.0</ele><time>2026-04-19T12:58:41.999Z</time></trkpt><trkpt lat="42.79384495909095" lon="12.764571524058494"><ele>287.0</ele><time>2026-04-19T12:58:43.998Z</time></trkpt><trkpt lat="42.79386067400476" lon="12.764661468856085"><ele>287.0</ele><time>2026-04-19T12:58:45.998Z</time></trkpt><trkpt lat="42.79386953031322" lon="12.764752923212319"><ele>287.0</ele><time>2026-04-19T12:58:47.998Z</time></trkpt><trkpt lat="42.793943252125565" lon="12.764827215646102"><ele>287.0</ele><time>2026-04-19T12:58:50.998Z</time></trkpt><trkpt lat="42.794006136479574" lon="12.764807860261238"><ele>287.0</ele><time>2026-04-19T12:58:52.999Z</time></trkpt><trkpt lat="42.794045600309914" lon="12.764728720760809"><ele>287.0</ele><time>2026-04-19T12:59:49.999Z</time></trkpt><trkpt lat="42.794056824062366" lon="12.764644034331425"><ele>287.0</ele><time>2026-04-19T12:59:51.999Z</time></trkpt><trkpt lat="42.794071329393375" lon="12.76454703008842"><ele>287.0</ele><time>2026-04-19T12:59:53.999Z</time></trkpt><trkpt lat="42.79408565827263" lon="12.764437654280679"><ele>287.0</ele><time>2026-04-19T12:59:55.999Z</time></trkpt><trkpt lat="42.79414175985617" lon="12.7643247775669"><ele>287.0</ele><time>2026-04-19T12:59:57.999Z</time></trkpt><trkpt lat="42.794199882870664" lon="12.764227490350711"><ele>287.0</ele><time>2026-04-19T12:59:59.999Z</time></trkpt><trkpt lat="42.794268663996675" lon="12.76414133240084"><ele>287.0</ele><time>2026-04-19T13:00:01.999Z</time></trkpt><trkpt lat="42.79434326966674" lon="12.76406060741279"><ele>286.33333333333337</ele><time>2026-04-19T13:00:03.999Z</time></trkpt><trkpt lat="42.79442450146666" lon="12.763974455814465"><ele>285.6666666666667</ele><time>2026-04-19T13:00:05.999Z</time></trkpt><trkpt lat="42.79447987538403" lon="12.763931533239118"><ele>285.0</ele><time>2026-04-19T13:00:06.999Z</time></trkpt><trkpt lat="42.794537219521196" lon="12.763885803620528"><ele>284.3333333333333</ele><time>2026-04-19T13:00:07.999Z</time></trkpt><trkpt lat="42.79459900446926" lon="12.76383743883959"><ele>283.66666666666663</ele><time>2026-04-19T13:00:08.999Z</time></trkpt><trkpt lat="42.79467057353575" lon="12.763790483973352"><ele>283.0</ele><time>2026-04-19T13:00:09.999Z</time></trkpt><trkpt lat="42.79475068691447" lon="12.763744258980852"><ele>283.0</ele><time>2026-04-19T13:00:10.999Z</time></trkpt><trkpt lat="42.79483669427998" lon="12.763707302969776"><ele>283.0</ele><time>2026-04-19T13:00:11.999Z</time></trkpt><trkpt lat="42.794932040668236" lon="12.763669224461665"><ele>283.0</ele><time>2026-04-19T13:00:12.999Z</time></trkpt><trkpt lat="42.79502709883667" lon="12.763626188299604"><ele>283.0</ele><time>2026-04-19T13:00:13.999Z</time></trkpt><trkpt lat="42.79512469611588" lon="12.763575172120799"><ele>283.0</ele><time>2026-04-19T13:00:14.999Z</time></trkpt><trkpt lat="42.7952289309046" lon="12.763522836307105"><ele>282.25</ele><time>2026-04-19T13:00:15.999Z</time></trkpt><trkpt lat="42.79533986092047" lon="12.763465109202766"><ele>281.5</ele><time>2026-04-19T13:00:16.999Z</time></trkpt><trkpt lat="42.79545757294783" lon="12.763410359907745"><ele>280.75</ele><time>2026-04-19T13:00:17.999Z</time></trkpt><trkpt lat="42.795579138405" lon="12.763361600419211"><ele>280.0</ele><time>2026-04-19T13:00:18.999Z</time></trkpt><trkpt lat="42.795704517535704" lon="12.763310440165254"><ele>280.0</ele><time>2026-04-19T13:00:19.999Z</time></trkpt><trkpt lat="42.79582558156332" lon="12.763259534508094"><ele>280.0</ele><time>2026-04-19T13:00:20.999Z</time></trkpt><trkpt lat="42.79595592546758" lon="12.763207540433694"><ele>280.0</ele><time>2026-04-19T13:00:21.999Z</time></trkpt><trkpt lat="42.7960912370826" lon="12.763150956368134"><ele>280.0</ele><time>2026-04-19T13:00:22.999Z</time></trkpt><trkpt lat="42.796227768341446" lon="12.763093426083945"><ele>281.0</ele><time>2026-04-19T13:00:23.999Z</time></trkpt><trkpt lat="42.79636849731995" lon="12.763032611029839"><ele>282.0</ele><time>2026-04-19T13:00:24.999Z</time></trkpt><trkpt lat="42.79651460093407" lon="12.762971125950655"><ele>283.0</ele><time>2026-04-19T13:00:25.999Z</time></trkpt><trkpt lat="42.796663788585626" lon="12.762910654779565"><ele>283.0</ele><time>2026-04-19T13:00:26.999Z</time></trkpt><trkpt lat="42.79681872100461" lon="12.762847082549188"><ele>283.0</ele><time>2026-04-19T13:00:27.999Z</time></trkpt><trkpt lat="42.796975751152274" lon="12.762780069324785"><ele>283.0</ele><time>2026-04-19T13:00:28.999Z</time></trkpt><trkpt lat="42.797137163750065" lon="12.762713006723871"><ele>282.3333333333333</ele><time>2026-04-19T13:00:29.999Z</time></trkpt><trkpt lat="42.797298881302815" lon="12.762647263057358"><ele>281.6666666666667</ele><time>2026-04-19T13:00:30.999Z</time></trkpt><trkpt lat="42.797464664219405" lon="12.762582044427091"><ele>281.0</ele><time>2026-04-19T13:00:31.999Z</time></trkpt><trkpt lat="42.79763529969109" lon="12.762512351794108"><ele>279.6666666666667</ele><time>2026-04-19T13:00:32.999Z</time></trkpt><trkpt lat="42.79780853129491" lon="12.762438826563141"><ele>278.3333333333333</ele><time>2026-04-19T13:00:33.999Z</time></trkpt><trkpt lat="42.79799007734517" lon="12.762365660724225"><ele>277.0</ele><time>2026-04-19T13:00:34.999Z</time></trkpt><trkpt lat="42.798169287197474" lon="12.76228901314911"><ele>277.0</ele><time>2026-04-19T13:00:35.999Z</time></trkpt><trkpt lat="42.79835135729407" lon="12.762223109510526"><ele>277.0</ele><time>2026-04-19T13:00:36.999Z</time></trkpt><trkpt lat="42.798536327913126" lon="12.7621571231237"><ele>277.0</ele><time>2026-04-19T13:00:37.999Z</time></trkpt><trkpt lat="42.7987246628115" lon="12.762096642310437"><ele>275.66666666666663</ele><time>2026-04-19T13:00:38.999Z</time></trkpt><trkpt lat="42.79891596201034" lon="12.762038104112348"><ele>274.3333333333333</ele><time>2026-04-19T13:00:39.999Z</time></trkpt><trkpt lat="42.799091310204155" lon="12.76194938603711"><ele>273.0</ele><time>2026-04-19T13:00:40.999Z</time></trkpt><trkpt lat="42.799276301390876" lon="12.761883614517881"><ele>272.0</ele><time>2026-04-19T13:00:41.999Z</time></trkpt><trkpt lat="42.799460703502916" lon="12.761819051071464"><ele>271.0</ele><time>2026-04-19T13:00:42.999Z</time></trkpt><trkpt lat="42.799643709567945" lon="12.761753001291252"><ele>270.0</ele><time>2026-04-19T13:00:43.999Z</time></trkpt><trkpt lat="42.799828949762265" lon="12.761692837854065"><ele>270.0</ele><time>2026-04-19T13:00:44.999Z</time></trkpt><trkpt lat="42.80001280703529" lon="12.761632578359638"><ele>270.0</ele><time>2026-04-19T13:00:45.999Z</time></trkpt><trkpt lat="42.800199933038954" lon="12.76156922662741"><ele>270.0</ele><time>2026-04-19T13:00:46.999Z</time></trkpt><trkpt lat="42.8003898903834" lon="12.761506855531021"><ele>270.6666666666667</ele><time>2026-04-19T13:00:47.999Z</time></trkpt><trkpt lat="42.80057735456076" lon="12.761441504723974"><ele>271.33333333333337</ele><time>2026-04-19T13:00:48.999Z</time></trkpt><trkpt lat="42.80076390840042" lon="12.761377186541488"><ele>272.0</ele><time>2026-04-19T13:00:49.999Z</time></trkpt><trkpt lat="42.80095054978584" lon="12.761309561414153"><ele>271.6666666666667</ele><time>2026-04-19T13:00:50.999Z</time></trkpt><trkpt lat="42.80113632629687" lon="12.761246878530176"><ele>271.3333333333333</ele><time>2026-04-19T13:00:51.999Z</time></trkpt><trkpt lat="42.80131372697182" lon="12.761189109023688"><ele>271.0</ele><time>2026-04-19T13:00:52.999Z</time></trkpt><trkpt lat="42.801499442289035" lon="12.761124436007433"><ele>271.0</ele><time>2026-04-19T13:00:53.999Z</time></trkpt><trkpt lat="42.80168066777715" lon="12.761061200057853"><ele>271.0</ele><time>2026-04-19T13:00:54.999Z</time></trkpt><trkpt lat="42.80186437071756" lon="12.761000126828883"><ele>271.0</ele><time>2026-04-19T13:00:55.999Z</time></trkpt><trkpt lat="42.80206169975323" lon="12.76093714382173"><ele>270.0</ele><time>2026-04-19T13:00:56.999Z</time></trkpt><trkpt lat="42.802251320089475" lon="12.760878883251566"><ele>269.0</ele><time>2026-04-19T13:00:57.999Z</time></trkpt><trkpt lat="42.802439856595015" lon="12.760831740737661"><ele>268.0</ele><time>2026-04-19T13:00:58.999Z</time></trkpt><trkpt lat="42.802637927973684" lon="12.760788116661107"><ele>267.3333333333333</ele><time>2026-04-19T13:00:59.999Z</time></trkpt><trkpt lat="42.80284375661398" lon="12.76074638940763"><ele>266.6666666666667</ele><time>2026-04-19T13:01:00.999Z</time></trkpt><trkpt lat="42.803055616539986" lon="12.76070882982955"><ele>266.0</ele><time>2026-04-19T13:01:01.999Z</time></trkpt><trkpt lat="42.8031965849589" lon="12.760687936155149"><ele>266.0</ele><time>2026-04-19T13:01:02.999Z</time></trkpt><trkpt lat="42.80338304300752" lon="12.760652750483812"><ele>266.0</ele><time>2026-04-19T13:01:03.999Z</time></trkpt><trkpt lat="42.80357109639169" lon="12.760619932270446"><ele>266.0</ele><time>2026-04-19T13:01:04.999Z</time></trkpt><trkpt lat="42.80376320637871" lon="12.760588115351496"><ele>265.33333333333337</ele><time>2026-04-19T13:01:05.999Z</time></trkpt><trkpt lat="42.803956151691786" lon="12.76055683469119"><ele>264.6666666666667</ele><time>2026-04-19T13:01:06.999Z</time></trkpt><trkpt lat="42.8041546497364" lon="12.760524777481878"><ele>264.0</ele><time>2026-04-19T13:01:07.999Z</time></trkpt><trkpt lat="42.80432819244202" lon="12.760501978145513"><ele>263.0</ele><time>2026-04-19T13:01:08.999Z</time></trkpt><trkpt lat="42.80451878524057" lon="12.760462998113736"><ele>262.0</ele><time>2026-04-19T13:01:09.999Z</time></trkpt><trkpt lat="42.804708439112346" lon="12.76042557455701"><ele>261.0</ele><time>2026-04-19T13:01:10.999Z</time></trkpt><trkpt lat="42.80489716760681" lon="12.760390293423733"><ele>261.0</ele><time>2026-04-19T13:01:11.999Z</time></trkpt><trkpt lat="42.80508513241848" lon="12.76035155294391"><ele>261.0</ele><time>2026-04-19T13:01:12.999Z</time></trkpt><trkpt lat="42.80527519302016" lon="12.760304824681809"><ele>261.0</ele><time>2026-04-19T13:01:13.999Z</time></trkpt><trkpt lat="42.805462211545475" lon="12.760263984446622"><ele>260.0</ele><time>2026-04-19T13:01:14.999Z</time></trkpt><trkpt lat="42.80565074058615" lon="12.760215366236858"><ele>259.0</ele><time>2026-04-19T13:01:15.999Z</time></trkpt><trkpt lat="42.805835881087454" lon="12.76015306196106"><ele>258.0</ele><time>2026-04-19T13:01:16.999Z</time></trkpt><trkpt lat="42.806018086468306" lon="12.760094575869465"><ele>257.0</ele><time>2026-04-19T13:01:17.999Z</time></trkpt><trkpt lat="42.80620000676607" lon="12.760034676512959"><ele>256.0</ele><time>2026-04-19T13:01:18.999Z</time></trkpt><trkpt lat="42.80637583885403" lon="12.759965160755021"><ele>255.0</ele><time>2026-04-19T13:01:19.999Z</time></trkpt><trkpt lat="42.80656969585507" lon="12.759883114850016"><ele>255.0</ele><time>2026-04-19T13:01:20.999Z</time></trkpt><trkpt lat="42.80674986641291" lon="12.759816602533354"><ele>255.0</ele><time>2026-04-19T13:01:21.999Z</time></trkpt><trkpt lat="42.80693539460419" lon="12.759738285668524"><ele>255.0</ele><time>2026-04-19T13:01:22.999Z</time></trkpt><trkpt lat="42.80711992164598" lon="12.759673293699093"><ele>254.0</ele><time>2026-04-19T13:01:23.999Z</time></trkpt><trkpt lat="42.807306036148965" lon="12.759586921034495"><ele>253.0</ele><time>2026-04-19T13:01:24.999Z</time></trkpt><trkpt lat="42.80748609997183" lon="12.759496086479949"><ele>252.0</ele><time>2026-04-19T13:01:25.999Z</time></trkpt><trkpt lat="42.80766103372424" lon="12.759405579679681"><ele>250.66666666666669</ele><time>2026-04-19T13:01:26.999Z</time></trkpt><trkpt lat="42.80783692099912" lon="12.75932376725434"><ele>249.33333333333334</ele><time>2026-04-19T13:01:27.999Z</time></trkpt><trkpt lat="42.80802384591084" lon="12.75924603066411"><ele>248.0</ele><time>2026-04-19T13:01:28.999Z</time></trkpt><trkpt lat="42.808205187956695" lon="12.75916406518442"><ele>248.0</ele><time>2026-04-19T13:01:29.999Z</time></trkpt><trkpt lat="42.80838623586032" lon="12.759076028210899"><ele>248.0</ele><time>2026-04-19T13:01:30.999Z</time></trkpt><trkpt lat="42.80856507420627" lon="12.758993886655917"><ele>248.0</ele><time>2026-04-19T13:01:31.999Z</time></trkpt><trkpt lat="42.80874804833683" lon="12.75891779453945"><ele>247.66666666666669</ele><time>2026-04-19T13:01:32.999Z</time></trkpt><trkpt lat="42.80892942568408" lon="12.758842093463233"><ele>247.33333333333331</ele><time>2026-04-19T13:01:33.999Z</time></trkpt><trkpt lat="42.80911274126305" lon="12.7587598642112"><ele>247.0</ele><time>2026-04-19T13:01:34.999Z</time></trkpt><trkpt lat="42.80929885066102" lon="12.75868191052843"><ele>246.0</ele><time>2026-04-19T13:01:35.999Z</time></trkpt><trkpt lat="42.80948126969758" lon="12.758609656580955"><ele>245.0</ele><time>2026-04-19T13:01:36.999Z</time></trkpt><trkpt lat="42.80966325161451" lon="12.758540009023212"><ele>244.0</ele><time>2026-04-19T13:01:37.999Z</time></trkpt><trkpt lat="42.80984716779426" lon="12.758472404504008"><ele>243.66666666666666</ele><time>2026-04-19T13:01:38.999Z</time></trkpt><trkpt lat="42.81003355072413" lon="12.758406455000497"><ele>243.33333333333331</ele><time>2026-04-19T13:01:39.999Z</time></trkpt><trkpt lat="42.81021816016683" lon="12.758337534829625"><ele>243.0</ele><time>2026-04-19T13:01:40.999Z</time></trkpt><trkpt lat="42.8104045634594" lon="12.758274151880714"><ele>242.0</ele><time>2026-04-19T13:01:41.999Z</time></trkpt><trkpt lat="42.81059123642232" lon="12.758208914093183"><ele>241.0</ele><time>2026-04-19T13:01:42.999Z</time></trkpt><trkpt lat="42.810775722834904" lon="12.758154858574846"><ele>240.0</ele><time>2026-04-19T13:01:43.999Z</time></trkpt><trkpt lat="42.81096618347529" lon="12.758102956073285"><ele>239.0</ele><time>2026-04-19T13:01:44.999Z</time></trkpt><trkpt lat="42.81114942778261" lon="12.75805452822195"><ele>238.0</ele><time>2026-04-19T13:01:45.999Z</time></trkpt><trkpt lat="42.811336811462695" lon="12.758009892753574"><ele>237.0</ele><time>2026-04-19T13:01:46.999Z</time></trkpt><trkpt lat="42.8115291743938" lon="12.757967097232903"><ele>237.0</ele><time>2026-04-19T13:01:47.999Z</time></trkpt><trkpt lat="42.81171695625746" lon="12.757927074618777"><ele>237.0</ele><time>2026-04-19T13:01:48.999Z</time></trkpt><trkpt lat="42.81190965281524" lon="12.757888225596272"><ele>237.0</ele><time>2026-04-19T13:01:49.999Z</time></trkpt><trkpt lat="42.81209875796697" lon="12.757856051888147"><ele>236.33333333333331</ele><time>2026-04-19T13:01:50.999Z</time></trkpt><trkpt lat="42.81228815827223" lon="12.75783502525019"><ele>235.66666666666666</ele><time>2026-04-19T13:01:51.999Z</time></trkpt><trkpt lat="42.81248030746486" lon="12.757797784153917"><ele>235.0</ele><time>2026-04-19T13:01:52.999Z</time></trkpt><trkpt lat="42.812665674275266" lon="12.757777802057067"><ele>233.66666666666666</ele><time>2026-04-19T13:01:53.999Z</time></trkpt><trkpt lat="42.812855758198644" lon="12.757747244617544"><ele>232.33333333333331</ele><time>2026-04-19T13:01:54.999Z</time></trkpt><trkpt lat="42.813049091824425" lon="12.757723883575341"><ele>231.0</ele><time>2026-04-19T13:01:55.999Z</time></trkpt><trkpt lat="42.81324651805605" lon="12.75770104360646"><ele>231.0</ele><time>2026-04-19T13:01:56.999Z</time></trkpt><trkpt lat="42.81343711124945" lon="12.75768158244221"><ele>231.0</ele><time>2026-04-19T13:01:57.999Z</time></trkpt><trkpt lat="42.813633551871874" lon="12.757665158641505"><ele>231.0</ele><time>2026-04-19T13:01:58.999Z</time></trkpt><trkpt lat="42.81383543064507" lon="12.757649786776591"><ele>231.0</ele><time>2026-04-19T13:01:59.999Z</time></trkpt><trkpt lat="42.81403928510854" lon="12.757633094563761"><ele>231.0</ele><time>2026-04-19T13:02:00.999Z</time></trkpt><trkpt lat="42.8142461782552" lon="12.757624449657715"><ele>231.0</ele><time>2026-04-19T13:02:01.999Z</time></trkpt><trkpt lat="42.814446934165886" lon="12.757616196669275"><ele>231.0</ele><time>2026-04-19T13:02:02.999Z</time></trkpt><trkpt lat="42.814651715613074" lon="12.757608121504596"><ele>231.0</ele><time>2026-04-19T13:02:03.999Z</time></trkpt><trkpt lat="42.8148603952067" lon="12.757598112340869"><ele>231.0</ele><time>2026-04-19T13:02:04.999Z</time></trkpt><trkpt lat="42.81507035867832" lon="12.757591434352419"><ele>231.0</ele><time>2026-04-19T13:02:05.999Z</time></trkpt><trkpt lat="42.815284457357464" lon="12.757590767005613"><ele>231.0</ele><time>2026-04-19T13:02:06.999Z</time></trkpt><trkpt lat="42.81549446541986" lon="12.757590972569501"><ele>231.0</ele><time>2026-04-19T13:02:07.999Z</time></trkpt><trkpt lat="42.81570369537055" lon="12.757592996241373"><ele>231.0</ele><time>2026-04-19T13:02:08.999Z</time></trkpt><trkpt lat="42.81591604975859" lon="12.757596669926652"><ele>231.0</ele><time>2026-04-19T13:02:09.999Z</time></trkpt><trkpt lat="42.81613286638276" lon="12.757600001705988"><ele>231.0</ele><time>2026-04-19T13:02:10.999Z</time></trkpt><trkpt lat="42.816352076647576" lon="12.757602034638428"><ele>230.0</ele><time>2026-04-19T13:02:11.999Z</time></trkpt><trkpt lat="42.81657979395072" lon="12.75761244706638"><ele>229.0</ele><time>2026-04-19T13:02:12.999Z</time></trkpt><trkpt lat="42.816805366987644" lon="12.757620090177209"><ele>228.66666666666666</ele><time>2026-04-19T13:02:13.999Z</time></trkpt><trkpt lat="42.81702867910742" lon="12.757632046492711"><ele>228.33333333333331</ele><time>2026-04-19T13:02:14.999Z</time></trkpt><trkpt lat="42.81724630129309" lon="12.757639304988228"><ele>228.0</ele><time>2026-04-19T13:02:15.999Z</time></trkpt><trkpt lat="42.8174691195972" lon="12.75765297729788"><ele>228.0</ele><time>2026-04-19T13:02:16.999Z</time></trkpt><trkpt lat="42.81769021342728" lon="12.75767189075909"><ele>228.0</ele><time>2026-04-19T13:02:17.999Z</time></trkpt><trkpt lat="42.817905955911044" lon="12.75769132761601"><ele>228.0</ele><time>2026-04-19T13:02:18.999Z</time></trkpt><trkpt lat="42.81812781192822" lon="12.757713576669095"><ele>227.33333333333331</ele><time>2026-04-19T13:02:19.999Z</time></trkpt><trkpt lat="42.818346151529816" lon="12.757733938570444"><ele>226.66666666666666</ele><time>2026-04-19T13:02:20.999Z</time></trkpt><trkpt lat="42.81856655790122" lon="12.757759131215813"><ele>226.0</ele><time>2026-04-19T13:02:21.999Z</time></trkpt><trkpt lat="42.8187874594897" lon="12.757788742105474"><ele>226.0</ele><time>2026-04-19T13:02:22.999Z</time></trkpt><trkpt lat="42.819009396976" lon="12.757825625358931"><ele>226.0</ele><time>2026-04-19T13:02:23.999Z</time></trkpt><trkpt lat="42.81922899229871" lon="12.757867748078636"><ele>226.0</ele><time>2026-04-19T13:02:24.999Z</time></trkpt><trkpt lat="42.81944966709944" lon="12.757915613313452"><ele>226.0</ele><time>2026-04-19T13:02:25.999Z</time></trkpt><trkpt lat="42.81966969156325" lon="12.757963763864819"><ele>226.0</ele><time>2026-04-19T13:02:26.999Z</time></trkpt><trkpt lat="42.819887239826116" lon="12.758011366697502"><ele>226.0</ele><time>2026-04-19T13:02:27.999Z</time></trkpt><trkpt lat="42.820102004818786" lon="12.758067035619842"><ele>226.0</ele><time>2026-04-19T13:02:28.999Z</time></trkpt><trkpt lat="42.820318367002436" lon="12.758129788350933"><ele>226.0</ele><time>2026-04-19T13:02:29.999Z</time></trkpt><trkpt lat="42.82053449314359" lon="12.75820461222541"><ele>226.0</ele><time>2026-04-19T13:02:30.999Z</time></trkpt><trkpt lat="42.8207475409598" lon="12.758282932110525"><ele>226.0</ele><time>2026-04-19T13:02:31.999Z</time></trkpt><trkpt lat="42.82096065503012" lon="12.758365129481762"><ele>226.0</ele><time>2026-04-19T13:02:32.999Z</time></trkpt><trkpt lat="42.821171855478426" lon="12.758451671164904"><ele>226.0</ele><time>2026-04-19T13:02:33.999Z</time></trkpt><trkpt lat="42.82138073219221" lon="12.758538864938135"><ele>225.66666666666666</ele><time>2026-04-19T13:02:34.999Z</time></trkpt><trkpt lat="42.821589308986766" lon="12.758641055993774"><ele>225.33333333333331</ele><time>2026-04-19T13:02:35.999Z</time></trkpt><trkpt lat="42.82179719635032" lon="12.758749842289104"><ele>225.0</ele><time>2026-04-19T13:02:36.999Z</time></trkpt><trkpt lat="42.82200231559281" lon="12.758858433829095"><ele>224.66666666666669</ele><time>2026-04-19T13:02:37.999Z</time></trkpt><trkpt lat="42.822209591240345" lon="12.758971696377673"><ele>224.33333333333334</ele><time>2026-04-19T13:02:38.999Z</time></trkpt><trkpt lat="42.822416045656425" lon="12.75908271152749"><ele>224.0</ele><time>2026-04-19T13:02:39.999Z</time></trkpt><trkpt lat="42.822621941364716" lon="12.759184398529195"><ele>224.0</ele><time>2026-04-19T13:02:40.999Z</time></trkpt><trkpt lat="42.82282589907217" lon="12.759292098996491"><ele>224.0</ele><time>2026-04-19T13:02:41.999Z</time></trkpt><trkpt lat="42.8230358964341" lon="12.759400973974078"><ele>224.0</ele><time>2026-04-19T13:02:42.999Z</time></trkpt><trkpt lat="42.82324438014432" lon="12.759495713826178"><ele>223.66666666666669</ele><time>2026-04-19T13:02:43.999Z</time></trkpt><trkpt lat="42.823452763651595" lon="12.75959875452366"><ele>223.33333333333331</ele><time>2026-04-19T13:02:44.999Z</time></trkpt><trkpt lat="42.8236622325314" lon="12.75969600437017"><ele>223.0</ele><time>2026-04-19T13:02:45.999Z</time></trkpt><trkpt lat="42.82387459982105" lon="12.759791081364362"><ele>223.0</ele><time>2026-04-19T13:02:46.999Z</time></trkpt><trkpt lat="42.82408294872647" lon="12.759877900758402"><ele>223.0</ele><time>2026-04-19T13:02:47.999Z</time></trkpt><trkpt lat="42.82429653423613" lon="12.759958933828294"><ele>223.0</ele><time>2026-04-19T13:02:48.999Z</time></trkpt><trkpt lat="42.82451209450297" lon="12.76004370882382"><ele>223.0</ele><time>2026-04-19T13:02:49.999Z</time></trkpt><trkpt lat="42.824725624971144" lon="12.760111108490257"><ele>223.0</ele><time>2026-04-19T13:02:50.999Z</time></trkpt><trkpt lat="42.824945491300724" lon="12.760185892192133"><ele>223.0</ele><time>2026-04-19T13:02:51.999Z</time></trkpt><trkpt lat="42.825158015050796" lon="12.760236994618802"><ele>223.0</ele><time>2026-04-19T13:02:52.999Z</time></trkpt><trkpt lat="42.825376526548794" lon="12.76029403594321"><ele>223.0</ele><time>2026-04-19T13:02:53.999Z</time></trkpt><trkpt lat="42.82559310652088" lon="12.76034106778247"><ele>223.0</ele><time>2026-04-19T13:02:54.999Z</time></trkpt><trkpt lat="42.825812935732166" lon="12.76038362010839"><ele>223.66666666666666</ele><time>2026-04-19T13:02:55.999Z</time></trkpt><trkpt lat="42.82603668070399" lon="12.760430876929878"><ele>224.33333333333331</ele><time>2026-04-19T13:02:56.999Z</time></trkpt><trkpt lat="42.82625659993415" lon="12.760469450579214"><ele>225.0</ele><time>2026-04-19T13:02:57.999Z</time></trkpt><trkpt lat="42.82647994569781" lon="12.760504233926932"><ele>225.0</ele><time>2026-04-19T13:02:58.999Z</time></trkpt><trkpt lat="42.82668325722108" lon="12.760509247856303"><ele>225.0</ele><time>2026-04-19T13:02:59.999Z</time></trkpt><trkpt lat="42.826893616762824" lon="12.76053676612629"><ele>225.0</ele><time>2026-04-19T13:03:00.999Z</time></trkpt><trkpt lat="42.827116252968594" lon="12.760546433498906"><ele>224.66666666666669</ele><time>2026-04-19T13:03:01.999Z</time></trkpt><trkpt lat="42.82733049611612" lon="12.760566347753691"><ele>224.33333333333334</ele><time>2026-04-19T13:03:02.999Z</time></trkpt><trkpt lat="42.82756302861238" lon="12.760543990740068"><ele>224.0</ele><time>2026-04-19T13:03:03.999Z</time></trkpt><trkpt lat="42.827815786681555" lon="12.760579615426025"><ele>223.33333333333334</ele><time>2026-04-19T13:03:04.999Z</time></trkpt><trkpt lat="42.82801895560782" lon="12.760590425228028"><ele>222.66666666666669</ele><time>2026-04-19T13:03:05.999Z</time></trkpt><trkpt lat="42.828237244384745" lon="12.760581722414283"><ele>222.0</ele><time>2026-04-19T13:03:06.999Z</time></trkpt><trkpt lat="42.82846130506854" lon="12.760569376130825"><ele>222.0</ele><time>2026-04-19T13:03:07.999Z</time></trkpt><trkpt lat="42.82868176839338" lon="12.760544735411548"><ele>222.0</ele><time>2026-04-19T13:03:08.999Z</time></trkpt><trkpt lat="42.82890005661446" lon="12.76051566867409"><ele>222.0</ele><time>2026-04-19T13:03:09.999Z</time></trkpt><trkpt lat="42.82913050024662" lon="12.76046320571664"><ele>221.66666666666669</ele><time>2026-04-19T13:03:10.999Z</time></trkpt><trkpt lat="42.829342878500704" lon="12.760436006805163"><ele>221.33333333333334</ele><time>2026-04-19T13:03:11.999Z</time></trkpt><trkpt lat="42.829558904876166" lon="12.760388376884068"><ele>221.0</ele><time>2026-04-19T13:03:12.999Z</time></trkpt><trkpt lat="42.82978473549502" lon="12.760338201525721"><ele>221.0</ele><time>2026-04-19T13:03:13.999Z</time></trkpt><trkpt lat="42.82999627296259" lon="12.760276545322643"><ele>221.0</ele><time>2026-04-19T13:03:14.999Z</time></trkpt><trkpt lat="42.8302096619851" lon="12.7602084844913"><ele>221.0</ele><time>2026-04-19T13:03:15.999Z</time></trkpt><trkpt lat="42.83042208265959" lon="12.760123768211598"><ele>221.0</ele><time>2026-04-19T13:03:16.999Z</time></trkpt><trkpt lat="42.83063416150712" lon="12.760036646758433"><ele>221.0</ele><time>2026-04-19T13:03:17.999Z</time></trkpt><trkpt lat="42.83084567817902" lon="12.759946911471715"><ele>221.0</ele><time>2026-04-19T13:03:18.999Z</time></trkpt><trkpt lat="42.83105791907035" lon="12.759847549960556"><ele>221.0</ele><time>2026-04-19T13:03:19.999Z</time></trkpt><trkpt lat="42.831262340538956" lon="12.759742188438498"><ele>221.0</ele><time>2026-04-19T13:03:20.999Z</time></trkpt><trkpt lat="42.83146723535782" lon="12.759633013390355"><ele>221.0</ele><time>2026-04-19T13:03:21.999Z</time></trkpt><trkpt lat="42.831674620658944" lon="12.7595174755756"><ele>220.33333333333334</ele><time>2026-04-19T13:03:22.999Z</time></trkpt><trkpt lat="42.831876082598185" lon="12.759396324426932"><ele>219.66666666666669</ele><time>2026-04-19T13:03:23.999Z</time></trkpt><trkpt lat="42.83207300376722" lon="12.759270846614069"><ele>219.0</ele><time>2026-04-19T13:03:24.999Z</time></trkpt><trkpt lat="42.83227631220688" lon="12.759136572409473"><ele>219.0</ele><time>2026-04-19T13:03:25.999Z</time></trkpt><trkpt lat="42.832473378695546" lon="12.759001095616023"><ele>219.0</ele><time>2026-04-19T13:03:26.999Z</time></trkpt><trkpt lat="42.832670160234706" lon="12.758864808538783"><ele>219.0</ele><time>2026-04-19T13:03:27.999Z</time></trkpt><trkpt lat="42.832867322106615" lon="12.758725595135205"><ele>219.33333333333331</ele><time>2026-04-19T13:03:28.999Z</time></trkpt><trkpt lat="42.83306262469271" lon="12.758584155685226"><ele>219.66666666666666</ele><time>2026-04-19T13:03:29.999Z</time></trkpt><trkpt lat="42.833263399723286" lon="12.758450980257454"><ele>220.0</ele><time>2026-04-19T13:03:30.999Z</time></trkpt><trkpt lat="42.83345954326757" lon="12.758312216412946"><ele>220.33333333333331</ele><time>2026-04-19T13:03:31.999Z</time></trkpt><trkpt lat="42.83365296587139" lon="12.758172946779471"><ele>220.66666666666669</ele><time>2026-04-19T13:03:32.999Z</time></trkpt><trkpt lat="42.833850242548266" lon="12.75803903508233"><ele>221.0</ele><time>2026-04-19T13:03:33.999Z</time></trkpt><trkpt lat="42.83404979418859" lon="12.757907986553802"><ele>221.0</ele><time>2026-04-19T13:03:34.999Z</time></trkpt><trkpt lat="42.834247924649695" lon="12.757778359514019"><ele>221.0</ele><time>2026-04-19T13:03:35.999Z</time></trkpt><trkpt lat="42.83444393170047" lon="12.757638293354564"><ele>221.0</ele><time>2026-04-19T13:03:36.999Z</time></trkpt><trkpt lat="42.83463788808924" lon="12.75749319708557"><ele>220.66666666666669</ele><time>2026-04-19T13:03:37.999Z</time></trkpt><trkpt lat="42.83483155528991" lon="12.757348233532378"><ele>220.33333333333331</ele><time>2026-04-19T13:03:38.999Z</time></trkpt><trkpt lat="42.835024864800964" lon="12.757205841348418"><ele>220.0</ele><time>2026-04-19T13:03:39.999Z</time></trkpt><trkpt lat="42.83521869690788" lon="12.757064947613511"><ele>220.0</ele><time>2026-04-19T13:03:40.999Z</time></trkpt><trkpt lat="42.83541683994546" lon="12.756927114647423"><ele>220.0</ele><time>2026-04-19T13:03:41.999Z</time></trkpt><trkpt lat="42.8356126868413" lon="12.756790807758081"><ele>220.0</ele><time>2026-04-19T13:03:42.999Z</time></trkpt><trkpt lat="42.835810901336984" lon="12.75665425745846"><ele>219.66666666666666</ele><time>2026-04-19T13:03:43.999Z</time></trkpt><trkpt lat="42.836008365562435" lon="12.756515648673673"><ele>219.33333333333331</ele><time>2026-04-19T13:03:44.999Z</time></trkpt><trkpt lat="42.83620472668521" lon="12.756377654447142"><ele>219.0</ele><time>2026-04-19T13:03:45.999Z</time></trkpt><trkpt lat="42.836402061924" lon="12.756239445389346"><ele>219.0</ele><time>2026-04-19T13:03:46.999Z</time></trkpt><trkpt lat="42.83660085796561" lon="12.756102808426856"><ele>219.0</ele><time>2026-04-19T13:03:47.999Z</time></trkpt><trkpt lat="42.83679803229116" lon="12.755967614159465"><ele>219.0</ele><time>2026-04-19T13:03:48.999Z</time></trkpt><trkpt lat="42.83699694530828" lon="12.755833616952645"><ele>219.0</ele><time>2026-04-19T13:03:49.999Z</time></trkpt><trkpt lat="42.837193595700136" lon="12.755700958568777"><ele>219.0</ele><time>2026-04-19T13:03:50.999Z</time></trkpt><trkpt lat="42.837392157768534" lon="12.7555747212859"><ele>219.0</ele><time>2026-04-19T13:03:51.999Z</time></trkpt><trkpt lat="42.83759276239415" lon="12.755452627687264"><ele>218.66666666666669</ele><time>2026-04-19T13:03:52.999Z</time></trkpt><trkpt lat="42.83779797454255" lon="12.755333507285965"><ele>218.33333333333334</ele><time>2026-04-19T13:03:53.999Z</time></trkpt><trkpt lat="42.837998218247925" lon="12.755211612598892"><ele>218.0</ele><time>2026-04-19T13:03:54.999Z</time></trkpt><trkpt lat="42.83820328061363" lon="12.75509529574503"><ele>217.66666666666669</ele><time>2026-04-19T13:03:55.999Z</time></trkpt><trkpt lat="42.83840964917157" lon="12.754984020610282"><ele>217.33333333333331</ele><time>2026-04-19T13:03:56.999Z</time></trkpt><trkpt lat="42.83861806840604" lon="12.754880675510199"><ele>217.0</ele><time>2026-04-19T13:03:57.999Z</time></trkpt><trkpt lat="42.83882524788192" lon="12.754777519895216"><ele>217.33333333333331</ele><time>2026-04-19T13:03:58.999Z</time></trkpt><trkpt lat="42.83903409422829" lon="12.754679243288857"><ele>217.66666666666669</ele><time>2026-04-19T13:03:59.999Z</time></trkpt><trkpt lat="42.839245273028425" lon="12.754586433996336"><ele>218.0</ele><time>2026-04-19T13:04:00.999Z</time></trkpt><trkpt lat="42.839453538625705" lon="12.754494218100373"><ele>218.0</ele><time>2026-04-19T13:04:01.999Z</time></trkpt><trkpt lat="42.839666786389905" lon="12.754402905937818"><ele>218.0</ele><time>2026-04-19T13:04:02.999Z</time></trkpt><trkpt lat="42.839876571758026" lon="12.754310142196523"><ele>218.0</ele><time>2026-04-19T13:04:03.999Z</time></trkpt><trkpt lat="42.84008422690412" lon="12.754217450447298"><ele>218.0</ele><time>2026-04-19T13:04:04.999Z</time></trkpt><trkpt lat="42.84029538852286" lon="12.754126940955736"><ele>218.0</ele><time>2026-04-19T13:04:05.999Z</time></trkpt><trkpt lat="42.84050597788713" lon="12.754030343993255"><ele>218.0</ele><time>2026-04-19T13:04:06.999Z</time></trkpt><trkpt lat="42.84071767108939" lon="12.75394036785032"><ele>218.0</ele><time>2026-04-19T13:04:07.999Z</time></trkpt><trkpt lat="42.840930516736584" lon="12.753849787583615"><ele>218.0</ele><time>2026-04-19T13:04:08.999Z</time></trkpt><trkpt lat="42.841145930775426" lon="12.753753372325646"><ele>217.66666666666669</ele><time>2026-04-19T13:04:09.999Z</time></trkpt><trkpt lat="42.84135345033794" lon="12.753663374667983"><ele>217.33333333333331</ele><time>2026-04-19T13:04:10.999Z</time></trkpt><trkpt lat="42.84156220276163" lon="12.753564600226682"><ele>217.0</ele><time>2026-04-19T13:04:11.999Z</time></trkpt><trkpt lat="42.841769288308065" lon="12.753464391029434"><ele>217.0</ele><time>2026-04-19T13:04:12.999Z</time></trkpt><trkpt lat="42.841977372904864" lon="12.75335787439765"><ele>217.0</ele><time>2026-04-19T13:04:13.999Z</time></trkpt><trkpt lat="42.84218153026232" lon="12.753250523007102"><ele>217.0</ele><time>2026-04-19T13:04:14.999Z</time></trkpt><trkpt lat="42.84238662977509" lon="12.753138098310018"><ele>217.0</ele><time>2026-04-19T13:04:15.999Z</time></trkpt><trkpt lat="42.84258943706877" lon="12.75302338328565"><ele>217.0</ele><time>2026-04-19T13:04:16.999Z</time></trkpt><trkpt lat="42.842792408347094" lon="12.752898138508426"><ele>217.0</ele><time>2026-04-19T13:04:17.999Z</time></trkpt><trkpt lat="42.84299182027953" lon="12.752764574306868"><ele>217.0</ele><time>2026-04-19T13:04:18.999Z</time></trkpt><trkpt lat="42.843188561281636" lon="12.752629337666693"><ele>217.0</ele><time>2026-04-19T13:04:19.999Z</time></trkpt><trkpt lat="42.84338440047833" lon="12.752484901140075"><ele>217.0</ele><time>2026-04-19T13:04:20.999Z</time></trkpt><trkpt lat="42.84357639701524" lon="12.752341971040975"><ele>217.0</ele><time>2026-04-19T13:04:21.999Z</time></trkpt><trkpt lat="42.84376676276234" lon="12.752193740728009"><ele>217.0</ele><time>2026-04-19T13:04:22.999Z</time></trkpt><trkpt lat="42.84395820725094" lon="12.752039130617714"><ele>217.0</ele><time>2026-04-19T13:04:23.999Z</time></trkpt><trkpt lat="42.84414937448953" lon="12.751883164466102"><ele>217.0</ele><time>2026-04-19T13:04:24.999Z</time></trkpt><trkpt lat="42.84434017190632" lon="12.751722660592971"><ele>217.0</ele><time>2026-04-19T13:04:25.999Z</time></trkpt><trkpt lat="42.844525430870554" lon="12.751559199123083"><ele>217.0</ele><time>2026-04-19T13:04:26.999Z</time></trkpt><trkpt lat="42.8447110049714" lon="12.751389430634703"><ele>217.0</ele><time>2026-04-19T13:04:27.999Z</time></trkpt><trkpt lat="42.844893059067175" lon="12.75121085309763"><ele>217.0</ele><time>2026-04-19T13:04:28.999Z</time></trkpt><trkpt lat="42.84507168425865" lon="12.75103840783695"><ele>217.0</ele><time>2026-04-19T13:04:29.999Z</time></trkpt><trkpt lat="42.84525411705239" lon="12.750865429736658"><ele>216.5</ele><time>2026-04-19T13:04:30.999Z</time></trkpt><trkpt lat="42.84543663670677" lon="12.75067931186601"><ele>216.0</ele><time>2026-04-19T13:04:31.999Z</time></trkpt><trkpt lat="42.8456176743881" lon="12.750485955354344"><ele>216.0</ele><time>2026-04-19T13:04:32.999Z</time></trkpt><trkpt lat="42.845797374252804" lon="12.750287593995715"><ele>216.0</ele><time>2026-04-19T13:04:33.999Z</time></trkpt><trkpt lat="42.84597927152617" lon="12.750191437906306"><ele>216.0</ele><time>2026-04-19T13:04:34.999Z</time></trkpt><trkpt lat="42.846159285546996" lon="12.750020420954431"><ele>215.66666666666669</ele><time>2026-04-19T13:04:35.999Z</time></trkpt><trkpt lat="42.84634001034375" lon="12.749848908410796"><ele>215.33333333333334</ele><time>2026-04-19T13:04:36.999Z</time></trkpt><trkpt lat="42.846523353290266" lon="12.749675474077131"><ele>215.0</ele><time>2026-04-19T13:04:37.999Z</time></trkpt><trkpt lat="42.84670299917649" lon="12.749499606779551"><ele>215.33333333333334</ele><time>2026-04-19T13:04:38.999Z</time></trkpt><trkpt lat="42.84688548556258" lon="12.749326612509122"><ele>215.66666666666669</ele><time>2026-04-19T13:04:39.999Z</time></trkpt><trkpt lat="42.847064410895754" lon="12.749150616639396"><ele>216.0</ele><time>2026-04-19T13:04:40.999Z</time></trkpt><trkpt lat="42.84724744815789" lon="12.748970926749767"><ele>216.0</ele><time>2026-04-19T13:04:41.999Z</time></trkpt><trkpt lat="42.847428856645216" lon="12.748792219406521"><ele>216.0</ele><time>2026-04-19T13:04:42.999Z</time></trkpt><trkpt lat="42.847610443471055" lon="12.748621160049298"><ele>216.0</ele><time>2026-04-19T13:04:43.999Z</time></trkpt><trkpt lat="42.84779189107852" lon="12.748450500228753"><ele>216.0</ele><time>2026-04-19T13:04:44.999Z</time></trkpt><trkpt lat="42.84797673152866" lon="12.74828864399531"><ele>216.0</ele><time>2026-04-19T13:04:45.999Z</time></trkpt><trkpt lat="42.84816376764184" lon="12.748130416077169"><ele>216.0</ele><time>2026-04-19T13:04:46.999Z</time></trkpt><trkpt lat="42.848349821336" lon="12.747975169888395"><ele>216.33333333333331</ele><time>2026-04-19T13:04:47.999Z</time></trkpt><trkpt lat="42.84853978082572" lon="12.747828112212021"><ele>216.66666666666666</ele><time>2026-04-19T13:04:48.999Z</time></trkpt><trkpt lat="42.84873726529572" lon="12.747683900822281"><ele>217.0</ele><time>2026-04-19T13:04:49.999Z</time></trkpt><trkpt lat="42.84893931332896" lon="12.747543052392809"><ele>216.66666666666666</ele><time>2026-04-19T13:04:50.999Z</time></trkpt><trkpt lat="42.84913079652183" lon="12.74741877651146"><ele>216.33333333333331</ele><time>2026-04-19T13:04:51.999Z</time></trkpt><trkpt lat="42.849328333828524" lon="12.747283051164432"><ele>216.0</ele><time>2026-04-19T13:04:52.999Z</time></trkpt><trkpt lat="42.84952668130045" lon="12.747152399537446"><ele>216.0</ele><time>2026-04-19T13:04:53.999Z</time></trkpt><trkpt lat="42.849727867202695" lon="12.747027350551253"><ele>216.0</ele><time>2026-04-19T13:04:54.999Z</time></trkpt><trkpt lat="42.84992787714569" lon="12.746893650442548"><ele>216.0</ele><time>2026-04-19T13:04:55.999Z</time></trkpt><trkpt lat="42.850125643920606" lon="12.746754222702853"><ele>216.33333333333331</ele><time>2026-04-19T13:04:56.999Z</time></trkpt><trkpt lat="42.85031949784758" lon="12.746612819339019"><ele>216.66666666666666</ele><time>2026-04-19T13:04:57.999Z</time></trkpt><trkpt lat="42.850511090900255" lon="12.746459228893938"><ele>217.0</ele><time>2026-04-19T13:04:58.999Z</time></trkpt><trkpt lat="42.85070166546907" lon="12.746298358785552"><ele>217.0</ele><time>2026-04-19T13:04:59.999Z</time></trkpt><trkpt lat="42.85088572677757" lon="12.74613777529522"><ele>217.0</ele><time>2026-04-19T13:05:00.999Z</time></trkpt><trkpt lat="42.85106782729633" lon="12.74596999971548"><ele>217.0</ele><time>2026-04-19T13:05:01.999Z</time></trkpt><trkpt lat="42.85124850824784" lon="12.74579788246606"><ele>216.66666666666666</ele><time>2026-04-19T13:05:02.999Z</time></trkpt><trkpt lat="42.851424593193045" lon="12.745612123924817"><ele>216.33333333333331</ele><time>2026-04-19T13:05:03.999Z</time></trkpt><trkpt lat="42.85159825779064" lon="12.74542222050243"><ele>216.0</ele><time>2026-04-19T13:05:04.999Z</time></trkpt><trkpt lat="42.8517668655582" lon="12.745229635505137"><ele>216.0</ele><time>2026-04-19T13:05:05.999Z</time></trkpt><trkpt lat="42.851940816752375" lon="12.745039851707343"><ele>216.0</ele><time>2026-04-19T13:05:06.999Z</time></trkpt><trkpt lat="42.852113742426894" lon="12.744854998944787"><ele>216.0</ele><time>2026-04-19T13:05:07.999Z</time></trkpt><trkpt lat="42.85228417323343" lon="12.744670349840533"><ele>216.0</ele><time>2026-04-19T13:05:08.999Z</time></trkpt><trkpt lat="42.85245747901158" lon="12.74448732588412"><ele>216.0</ele><time>2026-04-19T13:05:09.999Z</time></trkpt><trkpt lat="42.8526312556433" lon="12.744298291561554"><ele>216.0</ele><time>2026-04-19T13:05:11Z</time></trkpt><trkpt lat="42.852801652877524" lon="12.744099921210807"><ele>216.0</ele><time>2026-04-19T13:05:12Z</time></trkpt><trkpt lat="42.85297254049833" lon="12.743909780958475"><ele>216.0</ele><time>2026-04-19T13:05:13Z</time></trkpt><trkpt lat="42.85314294185542" lon="12.743725671171061"><ele>216.0</ele><time>2026-04-19T13:05:14Z</time></trkpt><trkpt lat="42.853315798797176" lon="12.743542826249438"><ele>216.33333333333331</ele><time>2026-04-19T13:05:15Z</time></trkpt><trkpt lat="42.853488881386916" lon="12.743346988529645"><ele>216.66666666666666</ele><time>2026-04-19T13:05:15.999Z</time></trkpt><trkpt lat="42.85366416813111" lon="12.743157521140464"><ele>217.0</ele><time>2026-04-19T13:05:17Z</time></trkpt><trkpt lat="42.85383819079084" lon="12.742973472888353"><ele>217.0</ele><time>2026-04-19T13:05:18Z</time></trkpt><trkpt lat="42.85401109340127" lon="12.742790649118017"><ele>217.0</ele><time>2026-04-19T13:05:19Z</time></trkpt><trkpt lat="42.85419276448501" lon="12.742612251506554"><ele>217.0</ele><time>2026-04-19T13:05:20Z</time></trkpt><trkpt lat="42.85437295656215" lon="12.742440236116293"><ele>217.0</ele><time>2026-04-19T13:05:21Z</time></trkpt><trkpt lat="42.854550696878015" lon="12.74225976919985"><ele>217.0</ele><time>2026-04-19T13:05:22Z</time></trkpt><trkpt lat="42.854733177619906" lon="12.74208793036332"><ele>217.0</ele><time>2026-04-19T13:05:23Z</time></trkpt><trkpt lat="42.854916069499154" lon="12.74191791613191"><ele>217.33333333333331</ele><time>2026-04-19T13:05:24Z</time></trkpt><trkpt lat="42.855093613392526" lon="12.74174857274274"><ele>217.66666666666669</ele><time>2026-04-19T13:05:25Z</time></trkpt><trkpt lat="42.85528287949442" lon="12.741589336182905"><ele>218.0</ele><time>2026-04-19T13:05:26Z</time></trkpt><trkpt lat="42.85546896949216" lon="12.741418534975798"><ele>218.0</ele><time>2026-04-19T13:05:27Z</time></trkpt><trkpt lat="42.855654923116205" lon="12.741257431718621"><ele>218.0</ele><time>2026-04-19T13:05:28Z</time></trkpt><trkpt lat="42.85583853150882" lon="12.741092400645234"><ele>218.0</ele><time>2026-04-19T13:05:29Z</time></trkpt><trkpt lat="42.85602643312005" lon="12.740931331939223"><ele>217.0</ele><time>2026-04-19T13:05:30Z</time></trkpt><trkpt lat="42.8562159737444" lon="12.740773269706166"><ele>216.0</ele><time>2026-04-19T13:05:31Z</time></trkpt><trkpt lat="42.85640499897437" lon="12.740619570243407"><ele>215.0</ele><time>2026-04-19T13:05:32Z</time></trkpt><trkpt lat="42.856594996050084" lon="12.740464472125092"><ele>215.0</ele><time>2026-04-19T13:05:33Z</time></trkpt><trkpt lat="42.856786910209614" lon="12.74031169935305"><ele>215.0</ele><time>2026-04-19T13:05:34Z</time></trkpt><trkpt lat="42.856979107809906" lon="12.740164420481069"><ele>215.0</ele><time>2026-04-19T13:05:35Z</time></trkpt><trkpt lat="42.85717533588383" lon="12.740023402640412"><ele>215.33333333333334</ele><time>2026-04-19T13:05:36Z</time></trkpt><trkpt lat="42.85736801211973" lon="12.73987672233594"><ele>215.66666666666669</ele><time>2026-04-19T13:05:37Z</time></trkpt><trkpt lat="42.85756427104226" lon="12.739733891382748"><ele>216.0</ele><time>2026-04-19T13:05:38Z</time></trkpt><trkpt lat="42.85776290962051" lon="12.739597209428076"><ele>216.0</ele><time>2026-04-19T13:05:39Z</time></trkpt><trkpt lat="42.857958378816754" lon="12.739459162399864"><ele>216.0</ele><time>2026-04-19T13:05:40Z</time></trkpt><trkpt lat="42.858155857477875" lon="12.739327648765526"><ele>216.0</ele><time>2026-04-19T13:05:41Z</time></trkpt><trkpt lat="42.858353416391196" lon="12.739190771476277"><ele>216.0</ele><time>2026-04-19T13:05:42Z</time></trkpt><trkpt lat="42.858552376072474" lon="12.739049280610578"><ele>216.0</ele><time>2026-04-19T13:05:43Z</time></trkpt><trkpt lat="42.8587501028288" lon="12.738923091349713"><ele>216.0</ele><time>2026-04-19T13:05:44Z</time></trkpt><trkpt lat="42.85894843206555" lon="12.738791877951353"><ele>216.0</ele><time>2026-04-19T13:05:45Z</time></trkpt><trkpt lat="42.85915177827648" lon="12.7386623717935"><ele>216.0</ele><time>2026-04-19T13:05:46Z</time></trkpt><trkpt lat="42.85935215618961" lon="12.738542278453258"><ele>216.0</ele><time>2026-04-19T13:05:47Z</time></trkpt><trkpt lat="42.859551587965" lon="12.738409005175965"><ele>216.0</ele><time>2026-04-19T13:05:47.999Z</time></trkpt><trkpt lat="42.859752764072205" lon="12.738286278534689"><ele>216.0</ele><time>2026-04-19T13:05:48.999Z</time></trkpt><trkpt lat="42.85995241258326" lon="12.738158711122162"><ele>216.0</ele><time>2026-04-19T13:05:49.999Z</time></trkpt><trkpt lat="42.86015196056466" lon="12.738032005078841"><ele>216.0</ele><time>2026-04-19T13:05:50.999Z</time></trkpt><trkpt lat="42.860352522025394" lon="12.737896265958755"><ele>216.0</ele><time>2026-04-19T13:05:51.999Z</time></trkpt><trkpt lat="42.86055083861463" lon="12.737768021072688"><ele>216.0</ele><time>2026-04-19T13:05:52.999Z</time></trkpt><trkpt lat="42.86074820420597" lon="12.737629369589296"><ele>215.66666666666669</ele><time>2026-04-19T13:05:53.999Z</time></trkpt><trkpt lat="42.860948368125946" lon="12.737500306592104"><ele>215.33333333333334</ele><time>2026-04-19T13:05:54.999Z</time></trkpt><trkpt lat="42.86114476359886" lon="12.737366027802702"><ele>215.0</ele><time>2026-04-19T13:05:55.999Z</time></trkpt><trkpt lat="42.861337743080114" lon="12.737227589327619"><ele>215.0</ele><time>2026-04-19T13:05:56.999Z</time></trkpt><trkpt lat="42.86154199031094" lon="12.737097412267612"><ele>215.0</ele><time>2026-04-19T13:05:57.999Z</time></trkpt><trkpt lat="42.861737852826174" lon="12.736960824525854"><ele>215.0</ele><time>2026-04-19T13:05:58.999Z</time></trkpt><trkpt lat="42.861937131382" lon="12.73682043959666"><ele>215.33333333333334</ele><time>2026-04-19T13:05:59.999Z</time></trkpt><trkpt lat="42.862128661013756" lon="12.736672842798335"><ele>215.66666666666669</ele><time>2026-04-19T13:06:00.999Z</time></trkpt><trkpt lat="42.86231780458117" lon="12.73652147123041"><ele>216.0</ele><time>2026-04-19T13:06:01.999Z</time></trkpt><trkpt lat="42.86251050565896" lon="12.73637154970655"><ele>215.66666666666669</ele><time>2026-04-19T13:06:02.999Z</time></trkpt><trkpt lat="42.86269834300447" lon="12.736208564169054"><ele>215.33333333333334</ele><time>2026-04-19T13:06:03.999Z</time></trkpt><trkpt lat="42.86288193305536" lon="12.73604793223977"><ele>215.0</ele><time>2026-04-19T13:06:04.999Z</time></trkpt><trkpt lat="42.86306392919955" lon="12.73587613535845"><ele>215.0</ele><time>2026-04-19T13:06:05.999Z</time></trkpt><trkpt lat="42.86325008699378" lon="12.735680661245663"><ele>215.0</ele><time>2026-04-19T13:06:06.999Z</time></trkpt><trkpt lat="42.86342272445422" lon="12.735520236993702"><ele>215.0</ele><time>2026-04-19T13:06:07.999Z</time></trkpt><trkpt lat="42.86360010491288" lon="12.735341617646016"><ele>214.33333333333334</ele><time>2026-04-19T13:06:08.999Z</time></trkpt><trkpt lat="42.863777216004266" lon="12.735153487551209"><ele>213.66666666666669</ele><time>2026-04-19T13:06:09.999Z</time></trkpt><trkpt lat="42.863949809509364" lon="12.734967473828029"><ele>213.0</ele><time>2026-04-19T13:06:10.999Z</time></trkpt><trkpt lat="42.86411055961909" lon="12.734772294184529"><ele>213.0</ele><time>2026-04-19T13:06:11.999Z</time></trkpt><trkpt lat="42.86428081858361" lon="12.734576802839808"><ele>213.0</ele><time>2026-04-19T13:06:12.999Z</time></trkpt><trkpt lat="42.86444389782742" lon="12.734372345761313"><ele>213.0</ele><time>2026-04-19T13:06:13.999Z</time></trkpt><trkpt lat="42.86460661797412" lon="12.73416636693459"><ele>213.0</ele><time>2026-04-19T13:06:14.999Z</time></trkpt><trkpt lat="42.8647680816167" lon="12.733967717823917"><ele>213.0</ele><time>2026-04-19T13:06:15.999Z</time></trkpt><trkpt lat="42.86493524114819" lon="12.733762366507696"><ele>213.0</ele><time>2026-04-19T13:06:16.999Z</time></trkpt><trkpt lat="42.865102183780245" lon="12.733557098532543"><ele>213.33333333333331</ele><time>2026-04-19T13:06:17.999Z</time></trkpt><trkpt lat="42.8652652805755" lon="12.733362058494807"><ele>213.66666666666666</ele><time>2026-04-19T13:06:18.999Z</time></trkpt><trkpt lat="42.86543181104277" lon="12.73316195350196"><ele>214.0</ele><time>2026-04-19T13:06:19.999Z</time></trkpt><trkpt lat="42.86559917044586" lon="12.732967295279757"><ele>214.0</ele><time>2026-04-19T13:06:20.999Z</time></trkpt><trkpt lat="42.865765897932846" lon="12.73277947585817"><ele>214.0</ele><time>2026-04-19T13:06:21.999Z</time></trkpt><trkpt lat="42.86594443729031" lon="12.732595759763276"><ele>214.0</ele><time>2026-04-19T13:06:22.999Z</time></trkpt><trkpt lat="42.86612387823615" lon="12.732419374116708"><ele>213.33333333333331</ele><time>2026-04-19T13:06:23.999Z</time></trkpt><trkpt lat="42.866304935870296" lon="12.732251706076347"><ele>212.66666666666669</ele><time>2026-04-19T13:06:24.999Z</time></trkpt><trkpt lat="42.86649774770754" lon="12.732091883213347"><ele>212.0</ele><time>2026-04-19T13:06:25.999Z</time></trkpt><trkpt lat="42.86668861228896" lon="12.73193701611902"><ele>212.0</ele><time>2026-04-19T13:06:26.999Z</time></trkpt><trkpt lat="42.86687949073283" lon="12.731785340417106"><ele>212.0</ele><time>2026-04-19T13:06:27.999Z</time></trkpt><trkpt lat="42.86706444966287" lon="12.73162575312114"><ele>212.0</ele><time>2026-04-19T13:06:28.999Z</time></trkpt><trkpt lat="42.86725847176813" lon="12.731474012567784"><ele>212.0</ele><time>2026-04-19T13:06:29.999Z</time></trkpt><trkpt lat="42.86744462884646" lon="12.731318532744265"><ele>212.0</ele><time>2026-04-19T13:06:30.999Z</time></trkpt><trkpt lat="42.867634870386546" lon="12.731161514308386"><ele>212.0</ele><time>2026-04-19T13:06:31.999Z</time></trkpt><trkpt lat="42.867823612571854" lon="12.731007301393113"><ele>212.33333333333334</ele><time>2026-04-19T13:06:32.999Z</time></trkpt><trkpt lat="42.8680155845638" lon="12.730850869251077"><ele>212.66666666666669</ele><time>2026-04-19T13:06:33.999Z</time></trkpt><trkpt lat="42.86820425565848" lon="12.730698459785174"><ele>213.0</ele><time>2026-04-19T13:06:34.999Z</time></trkpt><trkpt lat="42.86839530314414" lon="12.730546348826524"><ele>212.66666666666669</ele><time>2026-04-19T13:06:35.999Z</time></trkpt><trkpt lat="42.86859081537173" lon="12.73039580487164"><ele>212.33333333333334</ele><time>2026-04-19T13:06:36.999Z</time></trkpt><trkpt lat="42.86878356067551" lon="12.730251520511365"><ele>212.0</ele><time>2026-04-19T13:06:37.999Z</time></trkpt><trkpt lat="42.8689819138151" lon="12.730112083887551"><ele>212.0</ele><time>2026-04-19T13:06:38.999Z</time></trkpt><trkpt lat="42.8691800546833" lon="12.729985249542212"><ele>212.0</ele><time>2026-04-19T13:06:39.999Z</time></trkpt><trkpt lat="42.86938156927117" lon="12.729865108369767"><ele>212.0</ele><time>2026-04-19T13:06:40.999Z</time></trkpt><trkpt lat="42.86959166192511" lon="12.729751891548458"><ele>211.33333333333334</ele><time>2026-04-19T13:06:41.999Z</time></trkpt><trkpt lat="42.86979765245799" lon="12.729655791870359"><ele>210.66666666666669</ele><time>2026-04-19T13:06:42.999Z</time></trkpt><trkpt lat="42.87001692128446" lon="12.729563789386173"><ele>210.0</ele><time>2026-04-19T13:06:43.999Z</time></trkpt><trkpt lat="42.87022721179814" lon="12.729483422646096"><ele>210.0</ele><time>2026-04-19T13:06:44.999Z</time></trkpt><trkpt lat="42.870444384504026" lon="12.729409831314172"><ele>210.0</ele><time>2026-04-19T13:06:45.999Z</time></trkpt><trkpt lat="42.87065852299461" lon="12.729344020464465"><ele>210.0</ele><time>2026-04-19T13:06:46.999Z</time></trkpt><trkpt lat="42.87087373159345" lon="12.72929379970214"><ele>210.33333333333331</ele><time>2026-04-19T13:06:47.999Z</time></trkpt><trkpt lat="42.871089922304584" lon="12.72925502877392"><ele>210.66666666666666</ele><time>2026-04-19T13:06:48.999Z</time></trkpt><trkpt lat="42.87130642169602" lon="12.729222513975081"><ele>211.0</ele><time>2026-04-19T13:06:49.999Z</time></trkpt><trkpt lat="42.871536831707054" lon="12.729209751153501"><ele>211.0</ele><time>2026-04-19T13:06:50.999Z</time></trkpt><trkpt lat="42.871748647643166" lon="12.729203168767"><ele>211.0</ele><time>2026-04-19T13:06:51.999Z</time></trkpt><trkpt lat="42.87197158381387" lon="12.729200858092462"><ele>211.0</ele><time>2026-04-19T13:06:52.999Z</time></trkpt><trkpt lat="42.872194321627774" lon="12.729213996832057"><ele>211.33333333333331</ele><time>2026-04-19T13:06:53.999Z</time></trkpt><trkpt lat="42.872413274375006" lon="12.729237363686831"><ele>211.66666666666669</ele><time>2026-04-19T13:06:54.999Z</time></trkpt><trkpt lat="42.87263420464445" lon="12.729272694369635"><ele>212.0</ele><time>2026-04-19T13:06:55.999Z</time></trkpt><trkpt lat="42.872849987742065" lon="12.729316448574"><ele>212.0</ele><time>2026-04-19T13:06:56.999Z</time></trkpt><trkpt lat="42.873068548630776" lon="12.729369305136608"><ele>212.0</ele><time>2026-04-19T13:06:57.999Z</time></trkpt><trkpt lat="42.87328412425711" lon="12.729431328260672"><ele>212.0</ele><time>2026-04-19T13:06:58.999Z</time></trkpt><trkpt lat="42.873504937671335" lon="12.729502778572684"><ele>212.0</ele><time>2026-04-19T13:06:59.999Z</time></trkpt><trkpt lat="42.87371642549681" lon="12.729589669438212"><ele>212.0</ele><time>2026-04-19T13:07:00.999Z</time></trkpt><trkpt lat="42.873926287095095" lon="12.729681422887245"><ele>212.0</ele><time>2026-04-19T13:07:01.999Z</time></trkpt><trkpt lat="42.874135086005886" lon="12.729776981931007"><ele>211.33333333333334</ele><time>2026-04-19T13:07:02.999Z</time></trkpt><trkpt lat="42.874346750560804" lon="12.729872765934742"><ele>210.66666666666669</ele><time>2026-04-19T13:07:03.999Z</time></trkpt><trkpt lat="42.874556460140624" lon="12.72997200783675"><ele>210.0</ele><time>2026-04-19T13:07:04.999Z</time></trkpt><trkpt lat="42.87476440234458" lon="12.730065242487084"><ele>210.0</ele><time>2026-04-19T13:07:05.999Z</time></trkpt><trkpt lat="42.87497395408696" lon="12.730153910901318"><ele>210.0</ele><time>2026-04-19T13:07:06.999Z</time></trkpt><trkpt lat="42.87518479427227" lon="12.730243328575542"><ele>210.0</ele><time>2026-04-19T13:07:07.999Z</time></trkpt><trkpt lat="42.875403029496134" lon="12.730324451149103"><ele>209.66666666666669</ele><time>2026-04-19T13:07:08.999Z</time></trkpt><trkpt lat="42.87562052390612" lon="12.73039992880444"><ele>209.33333333333334</ele><time>2026-04-19T13:07:09.999Z</time></trkpt><trkpt lat="42.875838323388535" lon="12.730466309558029"><ele>209.0</ele><time>2026-04-19T13:07:10.999Z</time></trkpt><trkpt lat="42.87605128736586" lon="12.73051975706245"><ele>208.66666666666669</ele><time>2026-04-19T13:07:11.999Z</time></trkpt><trkpt lat="42.87627480812743" lon="12.730560051254157"><ele>208.33333333333331</ele><time>2026-04-19T13:07:12.999Z</time></trkpt><trkpt lat="42.87649726873121" lon="12.730590802899604"><ele>208.0</ele><time>2026-04-19T13:07:13.999Z</time></trkpt><trkpt lat="42.876719289827285" lon="12.730610872859797"><ele>208.0</ele><time>2026-04-19T13:07:14.999Z</time></trkpt><trkpt lat="42.87693914069601" lon="12.730624344898704"><ele>208.0</ele><time>2026-04-19T13:07:15.999Z</time></trkpt><trkpt lat="42.87716226728365" lon="12.730624037903645"><ele>208.0</ele><time>2026-04-19T13:07:17Z</time></trkpt><trkpt lat="42.87738082381541" lon="12.730613877854335"><ele>208.0</ele><time>2026-04-19T13:07:18Z</time></trkpt><trkpt lat="42.877600118198075" lon="12.730594960126174"><ele>208.0</ele><time>2026-04-19T13:07:19Z</time></trkpt><trkpt lat="42.87782133503726" lon="12.73056443281128"><ele>208.0</ele><time>2026-04-19T13:07:20Z</time></trkpt><trkpt lat="42.87804065534191" lon="12.730523596709522"><ele>208.0</ele><time>2026-04-19T13:07:21Z</time></trkpt><trkpt lat="42.87825944388739" lon="12.730470333046924"><ele>208.0</ele><time>2026-04-19T13:07:22Z</time></trkpt><trkpt lat="42.87847440822321" lon="12.730408105708182"><ele>208.0</ele><time>2026-04-19T13:07:23Z</time></trkpt><trkpt lat="42.87868887615725" lon="12.73033289089047"><ele>208.0</ele><time>2026-04-19T13:07:24Z</time></trkpt><trkpt lat="42.87890215967884" lon="12.73025080893621"><ele>208.0</ele><time>2026-04-19T13:07:25Z</time></trkpt><trkpt lat="42.879112004109196" lon="12.730158702988291"><ele>208.0</ele><time>2026-04-19T13:07:26Z</time></trkpt><trkpt lat="42.87931895759238" lon="12.730056446711506"><ele>208.0</ele><time>2026-04-19T13:07:27Z</time></trkpt><trkpt lat="42.879525218177" lon="12.729946654380937"><ele>208.0</ele><time>2026-04-19T13:07:28Z</time></trkpt><trkpt lat="42.87973093592864" lon="12.729842995380068"><ele>208.0</ele><time>2026-04-19T13:07:29Z</time></trkpt><trkpt lat="42.8799350435618" lon="12.729722782759119"><ele>208.33333333333331</ele><time>2026-04-19T13:07:30Z</time></trkpt><trkpt lat="42.88013787810545" lon="12.729603787344418"><ele>208.66666666666669</ele><time>2026-04-19T13:07:31Z</time></trkpt><trkpt lat="42.880339388297855" lon="12.729487235411602"><ele>209.0</ele><time>2026-04-19T13:07:32Z</time></trkpt><trkpt lat="42.88054375004876" lon="12.729368126123902"><ele>209.0</ele><time>2026-04-19T13:07:33Z</time></trkpt><trkpt lat="42.88074190867015" lon="12.729250020992541"><ele>209.0</ele><time>2026-04-19T13:07:34Z</time></trkpt><trkpt lat="42.88094072863085" lon="12.729126480024798"><ele>209.0</ele><time>2026-04-19T13:07:35Z</time></trkpt><trkpt lat="42.88114515417685" lon="12.72899860111182"><ele>209.0</ele><time>2026-04-19T13:07:36Z</time></trkpt><trkpt lat="42.8813469641358" lon="12.72887319324547"><ele>209.0</ele><time>2026-04-19T13:07:37Z</time></trkpt><trkpt lat="42.881549529135825" lon="12.72874919906696"><ele>209.0</ele><time>2026-04-19T13:07:38Z</time></trkpt><trkpt lat="42.88175530924731" lon="12.728632145958843"><ele>209.33333333333334</ele><time>2026-04-19T13:07:39Z</time></trkpt><trkpt lat="42.881958437330496" lon="12.728512901399741"><ele>209.66666666666669</ele><time>2026-04-19T13:07:40Z</time></trkpt><trkpt lat="42.882159839976" lon="12.728396626703974"><ele>210.0</ele><time>2026-04-19T13:07:41Z</time></trkpt><trkpt lat="42.88236325388167" lon="12.728276741694797"><ele>210.0</ele><time>2026-04-19T13:07:42Z</time></trkpt><trkpt lat="42.88256443950244" lon="12.728160025255026"><ele>210.0</ele><time>2026-04-19T13:07:43Z</time></trkpt><trkpt lat="42.882766075910666" lon="12.728036630111742"><ele>210.0</ele><time>2026-04-19T13:07:44Z</time></trkpt><trkpt lat="42.88296638057864" lon="12.727909803708389"><ele>209.66666666666669</ele><time>2026-04-19T13:07:45Z</time></trkpt><trkpt lat="42.88317027704727" lon="12.727787630798076"><ele>209.33333333333334</ele><time>2026-04-19T13:07:46Z</time></trkpt><trkpt lat="42.88337356463588" lon="12.727670603557506"><ele>209.0</ele><time>2026-04-19T13:07:47Z</time></trkpt><trkpt lat="42.88357741933711" lon="12.727546614708714"><ele>209.0</ele><time>2026-04-19T13:07:48Z</time></trkpt><trkpt lat="42.883778358124985" lon="12.727423374123967"><ele>209.0</ele><time>2026-04-19T13:07:49Z</time></trkpt><trkpt lat="42.88398086917136" lon="12.727300289908255"><ele>209.0</ele><time>2026-04-19T13:07:50Z</time></trkpt><trkpt lat="42.88418526603845" lon="12.727173884539594"><ele>209.33333333333334</ele><time>2026-04-19T13:07:51Z</time></trkpt><trkpt lat="42.88438648313374" lon="12.727059511274863"><ele>209.66666666666669</ele><time>2026-04-19T13:07:52Z</time></trkpt><trkpt lat="42.884590074507045" lon="12.726941456730762"><ele>210.0</ele><time>2026-04-19T13:07:53Z</time></trkpt><trkpt lat="42.8847981233903" lon="12.726822343010163"><ele>209.0</ele><time>2026-04-19T13:07:54Z</time></trkpt><trkpt lat="42.88500049009048" lon="12.72670410992358"><ele>208.0</ele><time>2026-04-19T13:07:55Z</time></trkpt><trkpt lat="42.885199879954875" lon="12.72658076659107"><ele>207.0</ele><time>2026-04-19T13:07:56Z</time></trkpt><trkpt lat="42.885401924909345" lon="12.726453742033879"><ele>207.0</ele><time>2026-04-19T13:07:57Z</time></trkpt><trkpt lat="42.88560736684153" lon="12.726334462293263"><ele>207.0</ele><time>2026-04-19T13:07:58Z</time></trkpt><trkpt lat="42.88580909219453" lon="12.726215599901334"><ele>207.0</ele><time>2026-04-19T13:07:59Z</time></trkpt><trkpt lat="42.886012913638666" lon="12.726095842317163"><ele>207.0</ele><time>2026-04-19T13:08:00Z</time></trkpt><trkpt lat="42.88621302062728" lon="12.725974559546918"><ele>207.0</ele><time>2026-04-19T13:08:01Z</time></trkpt><trkpt lat="42.886416458568675" lon="12.725850079136881"><ele>207.0</ele><time>2026-04-19T13:08:02Z</time></trkpt><trkpt lat="42.886615405678604" lon="12.725724365886174"><ele>207.66666666666669</ele><time>2026-04-19T13:08:03Z</time></trkpt><trkpt lat="42.886817672489684" lon="12.725603140093506"><ele>208.33333333333334</ele><time>2026-04-19T13:08:04Z</time></trkpt><trkpt lat="42.88702227892379" lon="12.725482713129422"><ele>209.0</ele><time>2026-04-19T13:08:05Z</time></trkpt><trkpt lat="42.887225915219965" lon="12.725363846282788"><ele>209.0</ele><time>2026-04-19T13:08:06Z</time></trkpt><trkpt lat="42.887427584889956" lon="12.725241934920724"><ele>209.0</ele><time>2026-04-19T13:08:07Z</time></trkpt><trkpt lat="42.88763092013511" lon="12.725119451278351"><ele>209.0</ele><time>2026-04-19T13:08:08Z</time></trkpt><trkpt lat="42.8878337682616" lon="12.724998744006301"><ele>208.33333333333334</ele><time>2026-04-19T13:08:09Z</time></trkpt><trkpt lat="42.888031746468315" lon="12.724878436892391"><ele>207.66666666666669</ele><time>2026-04-19T13:08:10Z</time></trkpt><trkpt lat="42.88823603580327" lon="12.724756768750929"><ele>207.0</ele><time>2026-04-19T13:08:11Z</time></trkpt><trkpt lat="42.888437975566376" lon="12.724635759233193"><ele>207.0</ele><time>2026-04-19T13:08:12Z</time></trkpt><trkpt lat="42.888641430037396" lon="12.724517068709277"><ele>207.0</ele><time>2026-04-19T13:08:13Z</time></trkpt><trkpt lat="42.88884617749901" lon="12.724399292018989"><ele>207.0</ele><time>2026-04-19T13:08:14Z</time></trkpt><trkpt lat="42.88905135247669" lon="12.724281316059765"><ele>207.0</ele><time>2026-04-19T13:08:15Z</time></trkpt><trkpt lat="42.88925184396669" lon="12.724163065553906"><ele>207.0</ele><time>2026-04-19T13:08:16Z</time></trkpt><trkpt lat="42.88945572131324" lon="12.7240437946426"><ele>207.0</ele><time>2026-04-19T13:08:17Z</time></trkpt><trkpt lat="42.889662085710114" lon="12.723923933069763"><ele>207.0</ele><time>2026-04-19T13:08:18Z</time></trkpt><trkpt lat="42.88986427015035" lon="12.723805771672035"><ele>207.0</ele><time>2026-04-19T13:08:19Z</time></trkpt><trkpt lat="42.89006838589497" lon="12.72368989016718"><ele>207.0</ele><time>2026-04-19T13:08:20Z</time></trkpt><trkpt lat="42.89027520937543" lon="12.723577374852255"><ele>206.0</ele><time>2026-04-19T13:08:21Z</time></trkpt><trkpt lat="42.890481666974615" lon="12.723467762498695"><ele>205.0</ele><time>2026-04-19T13:08:22Z</time></trkpt><trkpt lat="42.89068844988704" lon="12.723361256699933"><ele>204.0</ele><time>2026-04-19T13:08:23Z</time></trkpt><trkpt lat="42.89089343461922" lon="12.72325320828878"><ele>204.66666666666669</ele><time>2026-04-19T13:08:24Z</time></trkpt><trkpt lat="42.89110432285212" lon="12.723145798923307"><ele>205.33333333333334</ele><time>2026-04-19T13:08:25Z</time></trkpt><trkpt lat="42.89131216772146" lon="12.723039266588895"><ele>206.0</ele><time>2026-04-19T13:08:26Z</time></trkpt><trkpt lat="42.89152188648487" lon="12.722938749397878"><ele>206.0</ele><time>2026-04-19T13:08:27Z</time></trkpt><trkpt lat="42.89173058068934" lon="12.722842350023548"><ele>206.0</ele><time>2026-04-19T13:08:28Z</time></trkpt><trkpt lat="42.891940421206534" lon="12.72274378214015"><ele>206.0</ele><time>2026-04-19T13:08:29Z</time></trkpt><trkpt lat="42.892149270392494" lon="12.722654932905149"><ele>205.66666666666669</ele><time>2026-04-19T13:08:30Z</time></trkpt><trkpt lat="42.89236411029135" lon="12.722566684324086"><ele>205.33333333333331</ele><time>2026-04-19T13:08:31Z</time></trkpt><trkpt lat="42.892572773285245" lon="12.722477873349202"><ele>205.0</ele><time>2026-04-19T13:08:32Z</time></trkpt><trkpt lat="42.89278284530298" lon="12.722386277171676"><ele>206.33333333333331</ele><time>2026-04-19T13:08:33Z</time></trkpt><trkpt lat="42.89299077956862" lon="12.722300480177305"><ele>207.66666666666669</ele><time>2026-04-19T13:08:34Z</time></trkpt><trkpt lat="42.89320575863639" lon="12.722183045067089"><ele>209.0</ele><time>2026-04-19T13:08:35Z</time></trkpt><trkpt lat="42.89341230560366" lon="12.722105819268393"><ele>208.33333333333334</ele><time>2026-04-19T13:08:36Z</time></trkpt><trkpt lat="42.893635704590096" lon="12.722049421755175"><ele>207.66666666666669</ele><time>2026-04-19T13:08:36.999Z</time></trkpt><trkpt lat="42.89384733705146" lon="12.72196632579391"><ele>207.0</ele><time>2026-04-19T13:08:37.999Z</time></trkpt><trkpt lat="42.89406231957872" lon="12.721893081399724"><ele>207.0</ele><time>2026-04-19T13:08:38.999Z</time></trkpt><trkpt lat="42.89427600487305" lon="12.721821170047619"><ele>207.0</ele><time>2026-04-19T13:08:39.999Z</time></trkpt><trkpt lat="42.89449475744605" lon="12.721755419908039"><ele>207.0</ele><time>2026-04-19T13:08:40.999Z</time></trkpt><trkpt lat="42.89471048256308" lon="12.721691489693159"><ele>207.0</ele><time>2026-04-19T13:08:41.999Z</time></trkpt><trkpt lat="42.89492418559271" lon="12.721627535105979"><ele>207.0</ele><time>2026-04-19T13:08:42.999Z</time></trkpt><trkpt lat="42.895145461100626" lon="12.721570484878088"><ele>207.0</ele><time>2026-04-19T13:08:43.999Z</time></trkpt><trkpt lat="42.89535712771858" lon="12.721506129798923"><ele>207.0</ele><time>2026-04-19T13:08:44.999Z</time></trkpt><trkpt lat="42.895576227918205" lon="12.721450838809403"><ele>207.0</ele><time>2026-04-19T13:08:45.999Z</time></trkpt><trkpt lat="42.89579475138401" lon="12.72139763760866"><ele>207.0</ele><time>2026-04-19T13:08:46.999Z</time></trkpt><trkpt lat="42.896013145916875" lon="12.721343673688708"><ele>206.66666666666669</ele><time>2026-04-19T13:08:47.999Z</time></trkpt><trkpt lat="42.8962277614172" lon="12.721288077151506"><ele>206.33333333333334</ele><time>2026-04-19T13:08:48.999Z</time></trkpt><trkpt lat="42.8964470825927" lon="12.721239272007773"><ele>206.0</ele><time>2026-04-19T13:08:49.999Z</time></trkpt><trkpt lat="42.896665023035276" lon="12.721191017431837"><ele>206.33333333333334</ele><time>2026-04-19T13:08:50.999Z</time></trkpt><trkpt lat="42.8968817688515" lon="12.721148173830821"><ele>206.66666666666669</ele><time>2026-04-19T13:08:51.999Z</time></trkpt><trkpt lat="42.89710447805588" lon="12.72110930446713"><ele>207.0</ele><time>2026-04-19T13:08:52.999Z</time></trkpt><trkpt lat="42.89732572965117" lon="12.721071984000675"><ele>207.0</ele><time>2026-04-19T13:08:53.999Z</time></trkpt><trkpt lat="42.897542810308195" lon="12.721032338538937"><ele>207.0</ele><time>2026-04-19T13:08:54.999Z</time></trkpt><trkpt lat="42.8977650071628" lon="12.721000250157651"><ele>207.0</ele><time>2026-04-19T13:08:55.999Z</time></trkpt><trkpt lat="42.8979826446777" lon="12.720968688991487"><ele>206.66666666666669</ele><time>2026-04-19T13:08:56.999Z</time></trkpt><trkpt lat="42.89820404432502" lon="12.720938700082906"><ele>206.33333333333334</ele><time>2026-04-19T13:08:57.999Z</time></trkpt><trkpt lat="42.89842374191873" lon="12.720907823931704"><ele>206.0</ele><time>2026-04-19T13:08:58.999Z</time></trkpt><trkpt lat="42.898644419679655" lon="12.720882235713997"><ele>206.0</ele><time>2026-04-19T13:08:59.999Z</time></trkpt><trkpt lat="42.89886591642936" lon="12.720857258279784"><ele>206.0</ele><time>2026-04-19T13:09:00.999Z</time></trkpt><trkpt lat="42.89908722293912" lon="12.720836672418187"><ele>206.0</ele><time>2026-04-19T13:09:01.999Z</time></trkpt><trkpt lat="42.89930565154338" lon="12.720821692200927"><ele>206.33333333333334</ele><time>2026-04-19T13:09:02.999Z</time></trkpt><trkpt lat="42.89952953278621" lon="12.720810014584792"><ele>206.66666666666669</ele><time>2026-04-19T13:09:03.999Z</time></trkpt><trkpt lat="42.89975269167541" lon="12.720799069135671"><ele>207.0</ele><time>2026-04-19T13:09:04.999Z</time></trkpt><trkpt lat="42.89997193796212" lon="12.720785920656303"><ele>207.0</ele><time>2026-04-19T13:09:05.999Z</time></trkpt><trkpt lat="42.90019482218369" lon="12.720774343216162"><ele>207.0</ele><time>2026-04-19T13:09:06.999Z</time></trkpt><trkpt lat="42.90042243349153" lon="12.720765390569527"><ele>207.0</ele><time>2026-04-19T13:09:07.999Z</time></trkpt><trkpt lat="42.900635778879646" lon="12.720758135055414"><ele>207.0</ele><time>2026-04-19T13:09:08.999Z</time></trkpt><trkpt lat="42.900857325389254" lon="12.720756852125731"><ele>207.0</ele><time>2026-04-19T13:09:09.999Z</time></trkpt><trkpt lat="42.901080166230315" lon="12.720757915657117"><ele>207.33333333333331</ele><time>2026-04-19T13:09:10.999Z</time></trkpt><trkpt lat="42.90130288097001" lon="12.720767129675263"><ele>207.66666666666666</ele><time>2026-04-19T13:09:11.999Z</time></trkpt><trkpt lat="42.90152367063489" lon="12.720774624657995"><ele>208.0</ele><time>2026-04-19T13:09:12.999Z</time></trkpt><trkpt lat="42.90174148885853" lon="12.720777808952635"><ele>207.66666666666666</ele><time>2026-04-19T13:09:13.999Z</time></trkpt><trkpt lat="42.9019628817444" lon="12.720790828651365"><ele>207.33333333333331</ele><time>2026-04-19T13:09:14.999Z</time></trkpt><trkpt lat="42.90218561695711" lon="12.720807007038305"><ele>207.0</ele><time>2026-04-19T13:09:15.999Z</time></trkpt><trkpt lat="42.90240329320014" lon="12.720823124351563"><ele>206.66666666666669</ele><time>2026-04-19T13:09:16.999Z</time></trkpt><trkpt lat="42.90262331077528" lon="12.720841900989418"><ele>206.33333333333334</ele><time>2026-04-19T13:09:17.999Z</time></trkpt><trkpt lat="42.902842435022926" lon="12.720864312058836"><ele>206.0</ele><time>2026-04-19T13:09:18.999Z</time></trkpt><trkpt lat="42.90306313685218" lon="12.720891749942432"><ele>206.0</ele><time>2026-04-19T13:09:19.999Z</time></trkpt><trkpt lat="42.903281508259276" lon="12.720925194398626"><ele>206.0</ele><time>2026-04-19T13:09:20.999Z</time></trkpt><trkpt lat="42.90350141463277" lon="12.720969340221961"><ele>206.0</ele><time>2026-04-19T13:09:21.999Z</time></trkpt><trkpt lat="42.90372123952472" lon="12.721020344969071"><ele>206.66666666666669</ele><time>2026-04-19T13:09:23Z</time></trkpt><trkpt lat="42.90394133237555" lon="12.721074466902373"><ele>207.33333333333331</ele><time>2026-04-19T13:09:24Z</time></trkpt><trkpt lat="42.90415722823716" lon="12.721131918143998"><ele>208.0</ele><time>2026-04-19T13:09:25Z</time></trkpt><trkpt lat="42.904371593382336" lon="12.72120440189697"><ele>208.0</ele><time>2026-04-19T13:09:26Z</time></trkpt><trkpt lat="42.90458729072022" lon="12.721284703062564"><ele>208.0</ele><time>2026-04-19T13:09:27Z</time></trkpt><trkpt lat="42.90479749783438" lon="12.721373419966161"><ele>208.0</ele><time>2026-04-19T13:09:28Z</time></trkpt><trkpt lat="42.90500830175914" lon="12.721467305002605"><ele>208.0</ele><time>2026-04-19T13:09:29Z</time></trkpt><trkpt lat="42.905215005476464" lon="12.721570648752849"><ele>208.0</ele><time>2026-04-19T13:09:30Z</time></trkpt><trkpt lat="42.90542357087365" lon="12.721680841425774"><ele>208.0</ele><time>2026-04-19T13:09:31Z</time></trkpt><trkpt lat="42.905625533990275" lon="12.721798798925542"><ele>207.66666666666666</ele><time>2026-04-19T13:09:32Z</time></trkpt><trkpt lat="42.90582618479898" lon="12.721920779141486"><ele>207.33333333333331</ele><time>2026-04-19T13:09:33Z</time></trkpt><trkpt lat="42.9060270285925" lon="12.72205378244127"><ele>207.0</ele><time>2026-04-19T13:09:34Z</time></trkpt><trkpt lat="42.90622384870449" lon="12.722190723959645"><ele>207.0</ele><time>2026-04-19T13:09:35Z</time></trkpt><trkpt lat="42.9064175293572" lon="12.722334109462295"><ele>207.0</ele><time>2026-04-19T13:09:36Z</time></trkpt><trkpt lat="42.906614712035626" lon="12.722484447931159"><ele>207.0</ele><time>2026-04-19T13:09:37Z</time></trkpt><trkpt lat="42.906801220224935" lon="12.722637852951678"><ele>207.0</ele><time>2026-04-19T13:09:38Z</time></trkpt><trkpt lat="42.9069860449455" lon="12.722805858752338"><ele>207.0</ele><time>2026-04-19T13:09:39Z</time></trkpt><trkpt lat="42.90716743220094" lon="12.722973844211628"><ele>207.0</ele><time>2026-04-19T13:09:40Z</time></trkpt><trkpt lat="42.90735012735624" lon="12.723141969589026"><ele>207.0</ele><time>2026-04-19T13:09:41Z</time></trkpt><trkpt lat="42.90753283115586" lon="12.723308375948024"><ele>207.0</ele><time>2026-04-19T13:09:42Z</time></trkpt><trkpt lat="42.90771451270503" lon="12.723480978601414"><ele>207.0</ele><time>2026-04-19T13:09:43Z</time></trkpt><trkpt lat="42.907895367781435" lon="12.723656969488442"><ele>208.0</ele><time>2026-04-19T13:09:44Z</time></trkpt><trkpt lat="42.908074295947316" lon="12.723833218076795"><ele>209.0</ele><time>2026-04-19T13:09:45Z</time></trkpt><trkpt lat="42.90825490922642" lon="12.72400819303779"><ele>210.0</ele><time>2026-04-19T13:09:46Z</time></trkpt><trkpt lat="42.90843621750962" lon="12.724185978082334"><ele>210.66666666666669</ele><time>2026-04-19T13:09:47Z</time></trkpt><trkpt lat="42.90861537133388" lon="12.724358454501354"><ele>211.33333333333334</ele><time>2026-04-19T13:09:48Z</time></trkpt><trkpt lat="42.90879608170259" lon="12.724535288762745"><ele>212.0</ele><time>2026-04-19T13:09:49Z</time></trkpt><trkpt lat="42.908976401985306" lon="12.724708306738101"><ele>212.33333333333334</ele><time>2026-04-19T13:09:50Z</time></trkpt><trkpt lat="42.909156914716945" lon="12.724879769875876"><ele>212.66666666666669</ele><time>2026-04-19T13:09:51Z</time></trkpt><trkpt lat="42.90933702613985" lon="12.725054455061432"><ele>213.0</ele><time>2026-04-19T13:09:52Z</time></trkpt><trkpt lat="42.90951800765395" lon="12.725229336080078"><ele>214.33333333333331</ele><time>2026-04-19T13:09:53Z</time></trkpt><trkpt lat="42.90969809802796" lon="12.725397293123834"><ele>215.66666666666666</ele><time>2026-04-19T13:09:54Z</time></trkpt><trkpt lat="42.909879752918094" lon="12.725566388327696"><ele>217.0</ele><time>2026-04-19T13:09:55Z</time></trkpt><trkpt lat="42.91005972469393" lon="12.725740122447277"><ele>216.33333333333331</ele><time>2026-04-19T13:09:56Z</time></trkpt><trkpt lat="42.9102422384075" lon="12.72591946975187"><ele>215.66666666666669</ele><time>2026-04-19T13:09:57Z</time></trkpt><trkpt lat="42.91041609832163" lon="12.726093463332015"><ele>215.0</ele><time>2026-04-19T13:09:58Z</time></trkpt><trkpt lat="42.91059675382959" lon="12.726273416338252"><ele>215.0</ele><time>2026-04-19T13:09:59Z</time></trkpt><trkpt lat="42.91077708349605" lon="12.726450227593647"><ele>215.0</ele><time>2026-04-19T13:10:00Z</time></trkpt><trkpt lat="42.91095504657192" lon="12.72662788271261"><ele>215.0</ele><time>2026-04-19T13:10:01Z</time></trkpt><trkpt lat="42.9111339506151" lon="12.726801247076546"><ele>215.33333333333334</ele><time>2026-04-19T13:10:02Z</time></trkpt><trkpt lat="42.91132085054732" lon="12.726974121717596"><ele>215.66666666666669</ele><time>2026-04-19T13:10:03Z</time></trkpt><trkpt lat="42.91150124094394" lon="12.727136460001903"><ele>216.0</ele><time>2026-04-19T13:10:04Z</time></trkpt><trkpt lat="42.91168843771896" lon="12.727307490044371"><ele>216.33333333333331</ele><time>2026-04-19T13:10:05Z</time></trkpt><trkpt lat="42.911877194483154" lon="12.72747157761949"><ele>216.66666666666666</ele><time>2026-04-19T13:10:06Z</time></trkpt><trkpt lat="42.91206710340574" lon="12.727625338501065"><ele>217.0</ele><time>2026-04-19T13:10:07Z</time></trkpt><trkpt lat="42.91226297994138" lon="12.72776562755483"><ele>218.33333333333331</ele><time>2026-04-19T13:10:08Z</time></trkpt><trkpt lat="42.912462798111996" lon="12.727897482175349"><ele>219.66666666666669</ele><time>2026-04-19T13:10:09Z</time></trkpt><trkpt lat="42.91266207162651" lon="12.72801809252069"><ele>221.0</ele><time>2026-04-19T13:10:10Z</time></trkpt><trkpt lat="42.912867194637045" lon="12.728126187886446"><ele>221.0</ele><time>2026-04-19T13:10:11Z</time></trkpt><trkpt lat="42.9130790302853" lon="12.72822354379257"><ele>221.0</ele><time>2026-04-19T13:10:12Z</time></trkpt><trkpt lat="42.91328968308525" lon="12.728311849853338"><ele>221.0</ele><time>2026-04-19T13:10:13Z</time></trkpt><trkpt lat="42.91350045176122" lon="12.728392303151765"><ele>221.0</ele><time>2026-04-19T13:10:14Z</time></trkpt><trkpt lat="42.91371293809989" lon="12.72846073953361"><ele>221.0</ele><time>2026-04-19T13:10:15Z</time></trkpt><trkpt lat="42.91392849006863" lon="12.728521152924909"><ele>221.0</ele><time>2026-04-19T13:10:16Z</time></trkpt><trkpt lat="42.9141496525034" lon="12.728569465136"><ele>222.0</ele><time>2026-04-19T13:10:17Z</time></trkpt><trkpt lat="42.91436918233027" lon="12.728602043507442"><ele>223.0</ele><time>2026-04-19T13:10:18Z</time></trkpt><trkpt lat="42.914590817026976" lon="12.728622774294486"><ele>224.0</ele><time>2026-04-19T13:10:19Z</time></trkpt><trkpt lat="42.91481369502275" lon="12.728633616821371"><ele>224.0</ele><time>2026-04-19T13:10:20Z</time></trkpt><trkpt lat="42.91503688963131" lon="12.728632390798465"><ele>224.0</ele><time>2026-04-19T13:10:21Z</time></trkpt><trkpt lat="42.91525632455703" lon="12.728616169393339"><ele>224.0</ele><time>2026-04-19T13:10:22Z</time></trkpt><trkpt lat="42.91547446825512" lon="12.728595015840723"><ele>224.33333333333334</ele><time>2026-04-19T13:10:23Z</time></trkpt><trkpt lat="42.91569676546292" lon="12.728567290041054"><ele>224.66666666666669</ele><time>2026-04-19T13:10:24Z</time></trkpt><trkpt lat="42.91591723783355" lon="12.728527844125585"><ele>225.0</ele><time>2026-04-19T13:10:25Z</time></trkpt><trkpt lat="42.91613780771867" lon="12.728481949419004"><ele>224.33333333333331</ele><time>2026-04-19T13:10:26Z</time></trkpt><trkpt lat="42.91635312366738" lon="12.728431892502114"><ele>223.66666666666666</ele><time>2026-04-19T13:10:27Z</time></trkpt><trkpt lat="42.91657023800583" lon="12.728389519072257"><ele>223.0</ele><time>2026-04-19T13:10:28Z</time></trkpt><trkpt lat="42.916792026476955" lon="12.728350403422898"><ele>222.66666666666666</ele><time>2026-04-19T13:10:29Z</time></trkpt><trkpt lat="42.917013652370876" lon="12.728310119472194"><ele>222.33333333333331</ele><time>2026-04-19T13:10:30Z</time></trkpt><trkpt lat="42.917236661623996" lon="12.728269475548807"><ele>222.0</ele><time>2026-04-19T13:10:31Z</time></trkpt><trkpt lat="42.917454442290484" lon="12.728225628314643"><ele>222.66666666666669</ele><time>2026-04-19T13:10:32Z</time></trkpt><trkpt lat="42.91767010776078" lon="12.72817890131981"><ele>223.33333333333334</ele><time>2026-04-19T13:10:33Z</time></trkpt><trkpt lat="42.91788845103842" lon="12.728137392909742"><ele>224.0</ele><time>2026-04-19T13:10:34Z</time></trkpt><trkpt lat="42.91810888140683" lon="12.728094971555237"><ele>224.0</ele><time>2026-04-19T13:10:35Z</time></trkpt><trkpt lat="42.918329542975094" lon="12.728049377337534"><ele>224.0</ele><time>2026-04-19T13:10:36Z</time></trkpt><trkpt lat="42.91854789288842" lon="12.72800329455855"><ele>224.0</ele><time>2026-04-19T13:10:37Z</time></trkpt><trkpt lat="42.91876536550635" lon="12.727959482352095"><ele>224.0</ele><time>2026-04-19T13:10:38Z</time></trkpt><trkpt lat="42.91898321389316" lon="12.727915808616512"><ele>224.0</ele><time>2026-04-19T13:10:39Z</time></trkpt><trkpt lat="42.9192040933131" lon="12.727873796148508"><ele>224.0</ele><time>2026-04-19T13:10:40Z</time></trkpt><trkpt lat="42.91942326085229" lon="12.727827741967417"><ele>224.0</ele><time>2026-04-19T13:10:41Z</time></trkpt><trkpt lat="42.91964208369891" lon="12.727782089869262"><ele>224.0</ele><time>2026-04-19T13:10:42Z</time></trkpt><trkpt lat="42.91986094399578" lon="12.727737439117307"><ele>224.0</ele><time>2026-04-19T13:10:43Z</time></trkpt><trkpt lat="42.92007760529818" lon="12.727694403437717"><ele>224.0</ele><time>2026-04-19T13:10:44Z</time></trkpt><trkpt lat="42.92029820400694" lon="12.727660485046941"><ele>224.0</ele><time>2026-04-19T13:10:45Z</time></trkpt><trkpt lat="42.92051696390538" lon="12.72762693099018"><ele>224.0</ele><time>2026-04-19T13:10:46Z</time></trkpt><trkpt lat="42.9207339363744" lon="12.727597588640922"><ele>224.0</ele><time>2026-04-19T13:10:47Z</time></trkpt><trkpt lat="42.9209528786179" lon="12.727578727764353"><ele>224.0</ele><time>2026-04-19T13:10:48Z</time></trkpt><trkpt lat="42.92117723910227" lon="12.72756980351652"><ele>224.0</ele><time>2026-04-19T13:10:48.999Z</time></trkpt><trkpt lat="42.92139926735739" lon="12.727564199735676"><ele>224.0</ele><time>2026-04-19T13:10:49.999Z</time></trkpt><trkpt lat="42.92161911821424" lon="12.727564903600971"><ele>224.0</ele><time>2026-04-19T13:10:50.999Z</time></trkpt><trkpt lat="42.92184193638411" lon="12.727576423722143"><ele>224.0</ele><time>2026-04-19T13:10:51.999Z</time></trkpt><trkpt lat="42.922064435411286" lon="12.727592369506096"><ele>224.66666666666669</ele><time>2026-04-19T13:10:52.999Z</time></trkpt><trkpt lat="42.92228452864571" lon="12.727611174556996"><ele>225.33333333333331</ele><time>2026-04-19T13:10:53.999Z</time></trkpt><trkpt lat="42.92250472804815" lon="12.727639476539364"><ele>226.0</ele><time>2026-04-19T13:10:54.999Z</time></trkpt><trkpt lat="42.92272422856833" lon="12.727670054088527"><ele>226.33333333333331</ele><time>2026-04-19T13:10:55.999Z</time></trkpt><trkpt lat="42.92294305273329" lon="12.727708243941766"><ele>226.66666666666669</ele><time>2026-04-19T13:10:56.999Z</time></trkpt><trkpt lat="42.92316247455417" lon="12.727747668065623"><ele>227.0</ele><time>2026-04-19T13:10:57.999Z</time></trkpt><trkpt lat="42.92338176377084" lon="12.72778434521012"><ele>227.66666666666669</ele><time>2026-04-19T13:10:58.999Z</time></trkpt><trkpt lat="42.92360158330896" lon="12.72781839771828"><ele>228.33333333333331</ele><time>2026-04-19T13:10:59.999Z</time></trkpt><trkpt lat="42.92381920347356" lon="12.727848736322441"><ele>229.0</ele><time>2026-04-19T13:11:00.999Z</time></trkpt><trkpt lat="42.9240372968521" lon="12.727885039999274"><ele>229.33333333333331</ele><time>2026-04-19T13:11:01.999Z</time></trkpt><trkpt lat="42.924256310621914" lon="12.727925473102932"><ele>229.66666666666669</ele><time>2026-04-19T13:11:02.999Z</time></trkpt><trkpt lat="42.92447614444838" lon="12.727968174871789"><ele>230.0</ele><time>2026-04-19T13:11:03.999Z</time></trkpt><trkpt lat="42.92469731441335" lon="12.728007999625607"><ele>230.0</ele><time>2026-04-19T13:11:04.999Z</time></trkpt><trkpt lat="42.92491745208045" lon="12.728044122578188"><ele>230.0</ele><time>2026-04-19T13:11:05.999Z</time></trkpt><trkpt lat="42.92513679609853" lon="12.728080488825123"><ele>230.0</ele><time>2026-04-19T13:11:06.999Z</time></trkpt><trkpt lat="42.92535519309014" lon="12.728118577462483"><ele>230.0</ele><time>2026-04-19T13:11:07.999Z</time></trkpt><trkpt lat="42.92557543248415" lon="12.72815712226293"><ele>230.0</ele><time>2026-04-19T13:11:08.999Z</time></trkpt><trkpt lat="42.925795963788204" lon="12.728192945292836"><ele>230.0</ele><time>2026-04-19T13:11:09.999Z</time></trkpt><trkpt lat="42.926015032895464" lon="12.728228037936004"><ele>230.66666666666669</ele><time>2026-04-19T13:11:10.999Z</time></trkpt><trkpt lat="42.92623333594778" lon="12.728262845707853"><ele>231.33333333333331</ele><time>2026-04-19T13:11:11.999Z</time></trkpt><trkpt lat="42.92645200730358" lon="12.72829931243261"><ele>232.0</ele><time>2026-04-19T13:11:12.999Z</time></trkpt><trkpt lat="42.926668408142504" lon="12.728334643996224"><ele>232.0</ele><time>2026-04-19T13:11:13.999Z</time></trkpt><trkpt lat="42.926887458466915" lon="12.728373860828805"><ele>232.0</ele><time>2026-04-19T13:11:14.999Z</time></trkpt><trkpt lat="42.92710673359029" lon="12.728412809077756"><ele>232.0</ele><time>2026-04-19T13:11:15.999Z</time></trkpt><trkpt lat="42.92732517629473" lon="12.728446576644624"><ele>232.0</ele><time>2026-04-19T13:11:16.999Z</time></trkpt><trkpt lat="42.927547104104214" lon="12.728486961053958"><ele>232.0</ele><time>2026-04-19T13:11:17.999Z</time></trkpt><trkpt lat="42.927765874943354" lon="12.728522873896258"><ele>232.0</ele><time>2026-04-19T13:11:18.999Z</time></trkpt><trkpt lat="42.92798805049865" lon="12.728559375920401"><ele>234.33333333333331</ele><time>2026-04-19T13:11:19.999Z</time></trkpt><trkpt lat="42.92820934334862" lon="12.728590909472361"><ele>236.66666666666669</ele><time>2026-04-19T13:11:20.999Z</time></trkpt><trkpt lat="42.92843283162596" lon="12.72861850139342"><ele>239.0</ele><time>2026-04-19T13:11:21.999Z</time></trkpt><trkpt lat="42.92865632844285" lon="12.728636407574456"><ele>239.0</ele><time>2026-04-19T13:11:22.999Z</time></trkpt><trkpt lat="42.9288772233739" lon="12.728642842897646"><ele>239.0</ele><time>2026-04-19T13:11:23.999Z</time></trkpt><trkpt lat="42.92909789655034" lon="12.728636058311926"><ele>239.0</ele><time>2026-04-19T13:11:24.999Z</time></trkpt><trkpt lat="42.92931607286188" lon="12.728618523397708"><ele>239.66666666666669</ele><time>2026-04-19T13:11:25.999Z</time></trkpt><trkpt lat="42.92953333378079" lon="12.728590598542935"><ele>240.33333333333331</ele><time>2026-04-19T13:11:26.999Z</time></trkpt><trkpt lat="42.92975101886976" lon="12.728551698648708"><ele>241.0</ele><time>2026-04-19T13:11:27.999Z</time></trkpt><trkpt lat="42.92996860667404" lon="12.728503167011036"><ele>240.66666666666666</ele><time>2026-04-19T13:11:29Z</time></trkpt><trkpt lat="42.93018627019854" lon="12.728445849663796"><ele>240.33333333333331</ele><time>2026-04-19T13:11:30Z</time></trkpt><trkpt lat="42.93040308044536" lon="12.728383392312885"><ele>240.0</ele><time>2026-04-19T13:11:31Z</time></trkpt><trkpt lat="42.93061972110056" lon="12.728315291563396"><ele>240.0</ele><time>2026-04-19T13:11:32Z</time></trkpt><trkpt lat="42.93083597394408" lon="12.728236567953621"><ele>240.0</ele><time>2026-04-19T13:11:33Z</time></trkpt><trkpt lat="42.931048560325976" lon="12.728144191181418"><ele>240.0</ele><time>2026-04-19T13:11:34Z</time></trkpt><trkpt lat="42.93125326784261" lon="12.728042219880546"><ele>240.33333333333331</ele><time>2026-04-19T13:11:35Z</time></trkpt><trkpt lat="42.93145656694804" lon="12.727929592471247"><ele>240.66666666666666</ele><time>2026-04-19T13:11:36Z</time></trkpt><trkpt lat="42.93165930134349" lon="12.72781109282763"><ele>241.0</ele><time>2026-04-19T13:11:37Z</time></trkpt><trkpt lat="42.93185871931407" lon="12.727683136836689"><ele>241.0</ele><time>2026-04-19T13:11:38Z</time></trkpt><trkpt lat="42.93205502763432" lon="12.727544164302234"><ele>241.0</ele><time>2026-04-19T13:11:39Z</time></trkpt><trkpt lat="42.93224934278419" lon="12.727399221146806"><ele>241.0</ele><time>2026-04-19T13:11:40Z</time></trkpt><trkpt lat="42.93244062423468" lon="12.727249093155462"><ele>240.66666666666666</ele><time>2026-04-19T13:11:41Z</time></trkpt><trkpt lat="42.93263260791278" lon="12.727091916289615"><ele>240.33333333333331</ele><time>2026-04-19T13:11:42Z</time></trkpt><trkpt lat="42.932821534618654" lon="12.726935498143177"><ele>240.0</ele><time>2026-04-19T13:11:43Z</time></trkpt><trkpt lat="42.93301041870112" lon="12.726780996234018"><ele>240.0</ele><time>2026-04-19T13:11:44Z</time></trkpt><trkpt lat="42.93319831591031" lon="12.726626191936777"><ele>240.0</ele><time>2026-04-19T13:11:45Z</time></trkpt><trkpt lat="42.93338723216952" lon="12.726471748178845"><ele>240.0</ele><time>2026-04-19T13:11:46Z</time></trkpt><trkpt lat="42.93357716177608" lon="12.726316163189614"><ele>242.0</ele><time>2026-04-19T13:11:47Z</time></trkpt><trkpt lat="42.933763136564316" lon="12.726162187146551"><ele>244.0</ele><time>2026-04-19T13:11:48Z</time></trkpt><trkpt lat="42.93395096680111" lon="12.72600795109811"><ele>246.0</ele><time>2026-04-19T13:11:49Z</time></trkpt><trkpt lat="42.93414049848305" lon="12.725851512547354"><ele>251.33333333333331</ele><time>2026-04-19T13:11:50Z</time></trkpt><trkpt lat="42.934329938235614" lon="12.725695299805368"><ele>256.66666666666663</ele><time>2026-04-19T13:11:51Z</time></trkpt><trkpt lat="42.93451821138775" lon="12.72553851505824"><ele>262.0</ele><time>2026-04-19T13:11:52Z</time></trkpt><trkpt lat="42.93470968184863" lon="12.725383301667858"><ele>262.0</ele><time>2026-04-19T13:11:53Z</time></trkpt><trkpt lat="42.93490166945072" lon="12.725229717473935"><ele>262.0</ele><time>2026-04-19T13:11:54Z</time></trkpt><trkpt lat="42.935090584577395" lon="12.725078032242935"><ele>262.0</ele><time>2026-04-19T13:11:55Z</time></trkpt><trkpt lat="42.93528049111202" lon="12.724922413659897"><ele>260.66666666666663</ele><time>2026-04-19T13:11:56Z</time></trkpt><trkpt lat="42.93547192662394" lon="12.724764707747617"><ele>259.3333333333333</ele><time>2026-04-19T13:11:57Z</time></trkpt><trkpt lat="42.935662270297435" lon="12.724606492861213"><ele>258.0</ele><time>2026-04-19T13:11:58Z</time></trkpt><trkpt lat="42.935851384720664" lon="12.724448543979186"><ele>256.3333333333333</ele><time>2026-04-19T13:11:59Z</time></trkpt><trkpt lat="42.93604054395209" lon="12.724290187362925"><ele>254.66666666666666</ele><time>2026-04-19T13:12:00Z</time></trkpt><trkpt lat="42.936230097731816" lon="12.724134852799754"><ele>253.0</ele><time>2026-04-19T13:12:01Z</time></trkpt><trkpt lat="42.936420952635125" lon="12.72398183905957"><ele>253.0</ele><time>2026-04-19T13:12:02Z</time></trkpt><trkpt lat="42.9366136799751" lon="12.723833024055976"><ele>253.0</ele><time>2026-04-19T13:12:03Z</time></trkpt><trkpt lat="42.936808614813984" lon="12.723689169595918"><ele>253.0</ele><time>2026-04-19T13:12:04Z</time></trkpt><trkpt lat="42.9370074305952" lon="12.72355598636769"><ele>252.33333333333331</ele><time>2026-04-19T13:12:05Z</time></trkpt><trkpt lat="42.93721007237341" lon="12.723432951490055"><ele>251.66666666666669</ele><time>2026-04-19T13:12:06Z</time></trkpt><trkpt lat="42.93741545721216" lon="12.72331564706301"><ele>251.0</ele><time>2026-04-19T13:12:07Z</time></trkpt><trkpt lat="42.937625194099304" lon="12.723205742058155"><ele>250.0</ele><time>2026-04-19T13:12:08Z</time></trkpt><trkpt lat="42.93783274301423" lon="12.723105673114995"><ele>249.0</ele><time>2026-04-19T13:12:09Z</time></trkpt><trkpt lat="42.93803878973533" lon="12.72301368371305"><ele>248.0</ele><time>2026-04-19T13:12:10Z</time></trkpt><trkpt lat="42.93824980088885" lon="12.722930716331536"><ele>249.0</ele><time>2026-04-19T13:12:11Z</time></trkpt><trkpt lat="42.938466444308695" lon="12.722856721908832"><ele>250.0</ele><time>2026-04-19T13:12:12Z</time></trkpt><trkpt lat="42.938682241705735" lon="12.722791649199753"><ele>251.0</ele><time>2026-04-19T13:12:13Z</time></trkpt><trkpt lat="42.938899348350745" lon="12.72273498287532"><ele>250.66666666666669</ele><time>2026-04-19T13:12:14Z</time></trkpt><trkpt lat="42.939116790689226" lon="12.72268978972215"><ele>250.33333333333331</ele><time>2026-04-19T13:12:15Z</time></trkpt><trkpt lat="42.93933812174525" lon="12.722656026597182"><ele>250.0</ele><time>2026-04-19T13:12:16Z</time></trkpt><trkpt lat="42.939558031010556" lon="12.722632322630346"><ele>250.0</ele><time>2026-04-19T13:12:17Z</time></trkpt><trkpt lat="42.939779908628985" lon="12.722620109452814"><ele>250.0</ele><time>2026-04-19T13:12:18Z</time></trkpt><trkpt lat="42.93999866593787" lon="12.722613740780885"><ele>250.0</ele><time>2026-04-19T13:12:19Z</time></trkpt><trkpt lat="42.940220402973516" lon="12.722613182443368"><ele>250.66666666666666</ele><time>2026-04-19T13:12:20Z</time></trkpt><trkpt lat="42.94044194606965" lon="12.722616122984377"><ele>251.33333333333331</ele><time>2026-04-19T13:12:21Z</time></trkpt><trkpt lat="42.94066186257587" lon="12.722619718700011"><ele>252.0</ele><time>2026-04-19T13:12:22Z</time></trkpt><trkpt lat="42.94087941540574" lon="12.722623513708601"><ele>253.33333333333331</ele><time>2026-04-19T13:12:23Z</time></trkpt><trkpt lat="42.94109816992867" lon="12.722626994725953"><ele>254.66666666666666</ele><time>2026-04-19T13:12:24Z</time></trkpt><trkpt lat="42.941320457280035" lon="12.722630790126232"><ele>256.0</ele><time>2026-04-19T13:12:25Z</time></trkpt><trkpt lat="42.94154385723782" lon="12.722632548504548"><ele>255.66666666666666</ele><time>2026-04-19T13:12:26Z</time></trkpt><trkpt lat="42.9417653533475" lon="12.722636244878347"><ele>255.33333333333331</ele><time>2026-04-19T13:12:27Z</time></trkpt><trkpt lat="42.94198675613062" lon="12.7226405299733"><ele>255.0</ele><time>2026-04-19T13:12:28Z</time></trkpt><trkpt lat="42.94220943493829" lon="12.72264615854907"><ele>255.0</ele><time>2026-04-19T13:12:29Z</time></trkpt><trkpt lat="42.94243091561764" lon="12.72264855872749"><ele>255.0</ele><time>2026-04-19T13:12:30Z</time></trkpt><trkpt lat="42.942654422295554" lon="12.722647834440993"><ele>255.0</ele><time>2026-04-19T13:12:31Z</time></trkpt><trkpt lat="42.942873129902104" lon="12.722645903164514"><ele>255.66666666666669</ele><time>2026-04-19T13:12:32Z</time></trkpt><trkpt lat="42.94309213017114" lon="12.72264263987874"><ele>256.33333333333337</ele><time>2026-04-19T13:12:33Z</time></trkpt><trkpt lat="42.943312833941896" lon="12.722639101571978"><ele>257.0</ele><time>2026-04-19T13:12:34Z</time></trkpt><trkpt lat="42.943532874687534" lon="12.72263504125369"><ele>257.6666666666667</ele><time>2026-04-19T13:12:35Z</time></trkpt><trkpt lat="42.943753838541106" lon="12.722629198082814"><ele>258.3333333333333</ele><time>2026-04-19T13:12:36Z</time></trkpt><trkpt lat="42.9439745676913" lon="12.722621442969047"><ele>259.0</ele><time>2026-04-19T13:12:37Z</time></trkpt><trkpt lat="42.944197272095025" lon="12.722610890507537"><ele>259.3333333333333</ele><time>2026-04-19T13:12:38Z</time></trkpt><trkpt lat="42.94441579420115" lon="12.722595834614797"><ele>259.6666666666667</ele><time>2026-04-19T13:12:39Z</time></trkpt><trkpt lat="42.94463781512579" lon="12.722579920566071"><ele>260.0</ele><time>2026-04-19T13:12:40Z</time></trkpt><trkpt lat="42.94485954130294" lon="12.722565877888616"><ele>259.6666666666667</ele><time>2026-04-19T13:12:41Z</time></trkpt><trkpt lat="42.945080885859426" lon="12.722552241205353"><ele>259.3333333333333</ele><time>2026-04-19T13:12:42Z</time></trkpt><trkpt lat="42.945303757638506" lon="12.722538413079281"><ele>259.0</ele><time>2026-04-19T13:12:43Z</time></trkpt><trkpt lat="42.945524894662924" lon="12.72252306342007"><ele>259.0</ele><time>2026-04-19T13:12:44Z</time></trkpt><trkpt lat="42.94574503119964" lon="12.722508648191416"><ele>259.0</ele><time>2026-04-19T13:12:45Z</time></trkpt><trkpt lat="42.94596468716787" lon="12.722494895811481"><ele>259.0</ele><time>2026-04-19T13:12:46Z</time></trkpt><trkpt lat="42.946184861226364" lon="12.722481354671366"><ele>260.66666666666663</ele><time>2026-04-19T13:12:47Z</time></trkpt><trkpt lat="42.946405806768006" lon="12.722467125676463"><ele>262.3333333333333</ele><time>2026-04-19T13:12:48Z</time></trkpt><trkpt lat="42.94662943892464" lon="12.722448386658666"><ele>264.0</ele><time>2026-04-19T13:12:49Z</time></trkpt><trkpt lat="42.946851691627735" lon="12.72242911687179"><ele>264.6666666666667</ele><time>2026-04-19T13:12:49.999Z</time></trkpt><trkpt lat="42.947070107556215" lon="12.722411986561982"><ele>265.33333333333337</ele><time>2026-04-19T13:12:50.999Z</time></trkpt><trkpt lat="42.94728942336564" lon="12.722399686358484"><ele>266.0</ele><time>2026-04-19T13:12:51.999Z</time></trkpt><trkpt lat="42.947509405735396" lon="12.722386509237674"><ele>266.33333333333337</ele><time>2026-04-19T13:12:52.999Z</time></trkpt><trkpt lat="42.947729905341156" lon="12.72237205210518"><ele>266.6666666666667</ele><time>2026-04-19T13:12:53.999Z</time></trkpt><trkpt lat="42.94795383557899" lon="12.722359505582185"><ele>267.0</ele><time>2026-04-19T13:12:54.999Z</time></trkpt><trkpt lat="42.9481758612715" lon="12.722349773374779"><ele>267.3333333333333</ele><time>2026-04-19T13:12:55.999Z</time></trkpt><trkpt lat="42.94839709959363" lon="12.722339186832073"><ele>267.66666666666663</ele><time>2026-04-19T13:12:56.999Z</time></trkpt><trkpt lat="42.9486199322978" lon="12.722331044570888"><ele>268.0</ele><time>2026-04-19T13:12:57.999Z</time></trkpt><trkpt lat="42.948842974586846" lon="12.722328945226272"><ele>268.0</ele><time>2026-04-19T13:12:58.999Z</time></trkpt><trkpt lat="42.949065016697" lon="12.722329127562174"><ele>268.0</ele><time>2026-04-19T13:12:59.999Z</time></trkpt><trkpt lat="42.949284400873545" lon="12.722329822859194"><ele>268.0</ele><time>2026-04-19T13:13:00.999Z</time></trkpt><trkpt lat="42.94950417630299" lon="12.722328986652803"><ele>268.3333333333333</ele><time>2026-04-19T13:13:01.999Z</time></trkpt><trkpt lat="42.94972768864156" lon="12.722336991499665"><ele>268.6666666666667</ele><time>2026-04-19T13:13:02.999Z</time></trkpt><trkpt lat="42.94994890791506" lon="12.722344195665304"><ele>269.0</ele><time>2026-04-19T13:13:03.999Z</time></trkpt><trkpt lat="42.950170203189394" lon="12.722350864899369"><ele>269.33333333333337</ele><time>2026-04-19T13:13:04.999Z</time></trkpt><trkpt lat="42.95039200436549" lon="12.72236367311293"><ele>269.6666666666667</ele><time>2026-04-19T13:13:05.999Z</time></trkpt><trkpt lat="42.95060956475309" lon="12.722382816479788"><ele>270.0</ele><time>2026-04-19T13:13:06.999Z</time></trkpt><trkpt lat="42.95082736337508" lon="12.722397840522598"><ele>272.6666666666667</ele><time>2026-04-19T13:13:07.999Z</time></trkpt><trkpt lat="42.95104622208424" lon="12.722409737267595"><ele>275.33333333333337</ele><time>2026-04-19T13:13:08.999Z</time></trkpt><trkpt lat="42.95126635914595" lon="12.72242217643464"><ele>278.0</ele><time>2026-04-19T13:13:09.999Z</time></trkpt><trkpt lat="42.95148692874779" lon="12.722433446636165"><ele>278.0</ele><time>2026-04-19T13:13:10.999Z</time></trkpt><trkpt lat="42.95170624979677" lon="12.722445069867986"><ele>278.0</ele><time>2026-04-19T13:13:11.999Z</time></trkpt><trkpt lat="42.95192922332977" lon="12.72245694351212"><ele>278.0</ele><time>2026-04-19T13:13:12.999Z</time></trkpt><trkpt lat="42.95214951074412" lon="12.722469980060529"><ele>277.0</ele><time>2026-04-19T13:13:13.999Z</time></trkpt><trkpt lat="42.95237109840079" lon="12.722481920585933"><ele>276.0</ele><time>2026-04-19T13:13:14.999Z</time></trkpt><trkpt lat="42.952595347648725" lon="12.72249066242372"><ele>275.0</ele><time>2026-04-19T13:13:15.999Z</time></trkpt><trkpt lat="42.95281776918302" lon="12.722496365799628"><ele>275.0</ele><time>2026-04-19T13:13:16.999Z</time></trkpt><trkpt lat="42.9530380911656" lon="12.722496507952604"><ele>275.0</ele><time>2026-04-19T13:13:17.999Z</time></trkpt><trkpt lat="42.95325873410008" lon="12.722492325129709"><ele>275.0</ele><time>2026-04-19T13:13:18.999Z</time></trkpt><trkpt lat="42.95348134822534" lon="12.722487014955508"><ele>275.0</ele><time>2026-04-19T13:13:19.999Z</time></trkpt><trkpt lat="42.953700888075105" lon="12.722477202152227"><ele>275.0</ele><time>2026-04-19T13:13:20.999Z</time></trkpt><trkpt lat="42.95391724199477" lon="12.722458925764117"><ele>275.0</ele><time>2026-04-19T13:13:21.999Z</time></trkpt><trkpt lat="42.9541357694515" lon="12.72244324036505"><ele>275.0</ele><time>2026-04-19T13:13:22.999Z</time></trkpt><trkpt lat="42.95436202943119" lon="12.72242520154666"><ele>275.0</ele><time>2026-04-19T13:13:23.999Z</time></trkpt><trkpt lat="42.95458466959738" lon="12.722406497942767"><ele>275.0</ele><time>2026-04-19T13:13:24.999Z</time></trkpt><trkpt lat="42.95480556876626" lon="12.722386430918268"><ele>275.0</ele><time>2026-04-19T13:13:25.999Z</time></trkpt><trkpt lat="42.95502858527206" lon="12.722365113356073"><ele>275.0</ele><time>2026-04-19T13:13:26.999Z</time></trkpt><trkpt lat="42.955248608880424" lon="12.722338489706162"><ele>274.33333333333337</ele><time>2026-04-19T13:13:27.999Z</time></trkpt><trkpt lat="42.955470428756236" lon="12.722309432832606"><ele>273.6666666666667</ele><time>2026-04-19T13:13:28.999Z</time></trkpt><trkpt lat="42.95569133905564" lon="12.72227725300133"><ele>273.0</ele><time>2026-04-19T13:13:29.999Z</time></trkpt><trkpt lat="42.95591165872108" lon="12.722242000178834"><ele>272.3333333333333</ele><time>2026-04-19T13:13:30.999Z</time></trkpt><trkpt lat="42.95613366114997" lon="12.722198625244962"><ele>271.66666666666663</ele><time>2026-04-19T13:13:31.999Z</time></trkpt><trkpt lat="42.95635498236913" lon="12.722162971160246"><ele>271.0</ele><time>2026-04-19T13:13:32.999Z</time></trkpt><trkpt lat="42.95657500073925" lon="12.722122353242778"><ele>270.66666666666663</ele><time>2026-04-19T13:13:34Z</time></trkpt><trkpt lat="42.95679590031588" lon="12.722082576730893"><ele>270.3333333333333</ele><time>2026-04-19T13:13:35Z</time></trkpt><trkpt lat="42.95701338051969" lon="12.722041342225463"><ele>270.0</ele><time>2026-04-19T13:13:36Z</time></trkpt><trkpt lat="42.95723206020863" lon="12.721998695458108"><ele>270.0</ele><time>2026-04-19T13:13:37Z</time></trkpt><trkpt lat="42.95745263304202" lon="12.721962089252937"><ele>270.0</ele><time>2026-04-19T13:13:38Z</time></trkpt><trkpt lat="42.95767124471049" lon="12.721921019165077"><ele>270.0</ele><time>2026-04-19T13:13:39Z</time></trkpt><trkpt lat="42.95789254114162" lon="12.721876952968074"><ele>269.0</ele><time>2026-04-19T13:13:40Z</time></trkpt><trkpt lat="42.9581131320186" lon="12.721837992619214"><ele>268.0</ele><time>2026-04-19T13:13:41Z</time></trkpt><trkpt lat="42.9583345147538" lon="12.72179689551948"><ele>267.0</ele><time>2026-04-19T13:13:42Z</time></trkpt><trkpt lat="42.95855633293876" lon="12.72175329062763"><ele>266.3333333333333</ele><time>2026-04-19T13:13:43Z</time></trkpt><trkpt lat="42.958780703972" lon="12.721715611096489"><ele>265.66666666666663</ele><time>2026-04-19T13:13:44Z</time></trkpt><trkpt lat="42.95899488672921" lon="12.721675179614342"><ele>265.0</ele><time>2026-04-19T13:13:45Z</time></trkpt><trkpt lat="42.95920980468353" lon="12.721632923143655"><ele>264.66666666666663</ele><time>2026-04-19T13:13:46Z</time></trkpt><trkpt lat="42.95942568722942" lon="12.72158794675872"><ele>264.3333333333333</ele><time>2026-04-19T13:13:47Z</time></trkpt><trkpt lat="42.95964565963348" lon="12.721547139704615"><ele>264.0</ele><time>2026-04-19T13:13:48Z</time></trkpt><trkpt lat="42.959863881891344" lon="12.721502035419798"><ele>262.3333333333333</ele><time>2026-04-19T13:13:49Z</time></trkpt><trkpt lat="42.96008534495023" lon="12.721457833946877"><ele>260.66666666666663</ele><time>2026-04-19T13:13:50Z</time></trkpt><trkpt lat="42.960308029223654" lon="12.721408325275169"><ele>259.0</ele><time>2026-04-19T13:13:51Z</time></trkpt><trkpt lat="42.96052446118418" lon="12.721370030544271"><ele>259.0</ele><time>2026-04-19T13:13:52Z</time></trkpt><trkpt lat="42.960742923305446" lon="12.721324053707002"><ele>259.0</ele><time>2026-04-19T13:13:53Z</time></trkpt><trkpt lat="42.960960405292035" lon="12.721277575271928"><ele>259.0</ele><time>2026-04-19T13:13:54Z</time></trkpt><trkpt lat="42.961179945832924" lon="12.721230692761498"><ele>256.66666666666663</ele><time>2026-04-19T13:13:55Z</time></trkpt><trkpt lat="42.96139965453451" lon="12.72118005627894"><ele>254.33333333333331</ele><time>2026-04-19T13:13:56Z</time></trkpt><trkpt lat="42.961614131740646" lon="12.721118306703211"><ele>252.0</ele><time>2026-04-19T13:13:57Z</time></trkpt><trkpt lat="42.961830361000416" lon="12.7210533495675"><ele>250.66666666666669</ele><time>2026-04-19T13:13:58Z</time></trkpt><trkpt lat="42.96204618516057" lon="12.720989298273174"><ele>249.33333333333334</ele><time>2026-04-19T13:13:59Z</time></trkpt><trkpt lat="42.96226098274441" lon="12.720923556050753"><ele>248.0</ele><time>2026-04-19T13:14:00Z</time></trkpt><trkpt lat="42.96247584873218" lon="12.720851131149498"><ele>248.0</ele><time>2026-04-19T13:14:01Z</time></trkpt><trkpt lat="42.96268911520565" lon="12.720773570813305"><ele>248.0</ele><time>2026-04-19T13:14:02Z</time></trkpt><trkpt lat="42.96290347895638" lon="12.720694106613083"><ele>248.0</ele><time>2026-04-19T13:14:03Z</time></trkpt><trkpt lat="42.96312173939212" lon="12.720608193651868"><ele>248.0</ele><time>2026-04-19T13:14:04Z</time></trkpt><trkpt lat="42.96333051692961" lon="12.720510286239968"><ele>248.0</ele><time>2026-04-19T13:14:05Z</time></trkpt><trkpt lat="42.96354165179225" lon="12.72041833674069"><ele>248.0</ele><time>2026-04-19T13:14:06Z</time></trkpt><trkpt lat="42.96375343694245" lon="12.720319891893269"><ele>248.0</ele><time>2026-04-19T13:14:07Z</time></trkpt><trkpt lat="42.963968054693105" lon="12.720212303118071"><ele>248.0</ele><time>2026-04-19T13:14:08Z</time></trkpt><trkpt lat="42.96416832332106" lon="12.720126574225743"><ele>248.0</ele><time>2026-04-19T13:14:09Z</time></trkpt><trkpt lat="42.96437896033038" lon="12.720026118979487"><ele>247.66666666666669</ele><time>2026-04-19T13:14:10Z</time></trkpt><trkpt lat="42.96458993839262" lon="12.719926851525914"><ele>247.33333333333331</ele><time>2026-04-19T13:14:11Z</time></trkpt><trkpt lat="42.964797926104985" lon="12.719835378873697"><ele>247.0</ele><time>2026-04-19T13:14:12Z</time></trkpt><trkpt lat="42.965008013695574" lon="12.719737587374295"><ele>246.33333333333331</ele><time>2026-04-19T13:14:13Z</time></trkpt><trkpt lat="42.96521732191376" lon="12.7196422511982"><ele>245.66666666666669</ele><time>2026-04-19T13:14:14Z</time></trkpt><trkpt lat="42.965427717692144" lon="12.719546662045898"><ele>245.0</ele><time>2026-04-19T13:14:15Z</time></trkpt><trkpt lat="42.96563379608129" lon="12.719443710559297"><ele>245.0</ele><time>2026-04-19T13:14:16Z</time></trkpt><trkpt lat="42.9658317723571" lon="12.719332225674334"><ele>245.0</ele><time>2026-04-19T13:14:17Z</time></trkpt><trkpt lat="42.96602070725958" lon="12.719237055216352"><ele>245.0</ele><time>2026-04-19T13:14:18Z</time></trkpt><trkpt lat="42.96620791624639" lon="12.719155775515464"><ele>245.0</ele><time>2026-04-19T13:14:19Z</time></trkpt><trkpt lat="42.96638908434507" lon="12.719075815397021"><ele>245.0</ele><time>2026-04-19T13:14:20Z</time></trkpt><trkpt lat="42.96657014010136" lon="12.71898381129842"><ele>245.0</ele><time>2026-04-19T13:14:21Z</time></trkpt><trkpt lat="42.96675490898102" lon="12.718897793533925"><ele>245.0</ele><time>2026-04-19T13:14:22Z</time></trkpt><trkpt lat="42.966938783834344" lon="12.7188143250899"><ele>245.0</ele><time>2026-04-19T13:14:23Z</time></trkpt><trkpt lat="42.96711558652787" lon="12.718722467529812"><ele>245.0</ele><time>2026-04-19T13:14:24Z</time></trkpt><trkpt lat="42.96728175931879" lon="12.718636264684013"><ele>244.66666666666669</ele><time>2026-04-19T13:14:25Z</time></trkpt><trkpt lat="42.96744300098709" lon="12.7185561773897"><ele>244.33333333333331</ele><time>2026-04-19T13:14:26Z</time></trkpt><trkpt lat="42.967609658742354" lon="12.718473835055597"><ele>244.0</ele><time>2026-04-19T13:14:27Z</time></trkpt><trkpt lat="42.96778531762808" lon="12.718388534233851"><ele>244.0</ele><time>2026-04-19T13:14:28Z</time></trkpt><trkpt lat="42.96796089692116" lon="12.718303474871817"><ele>244.0</ele><time>2026-04-19T13:14:29Z</time></trkpt><trkpt lat="42.96814689512236" lon="12.718212309793524"><ele>244.0</ele><time>2026-04-19T13:14:30Z</time></trkpt><trkpt lat="42.96833558977418" lon="12.718125258258889"><ele>243.66666666666666</ele><time>2026-04-19T13:14:31Z</time></trkpt><trkpt lat="42.968519420202476" lon="12.718041460796744"><ele>243.33333333333331</ele><time>2026-04-19T13:14:32Z</time></trkpt><trkpt lat="42.96869704105144" lon="12.717960809818267"><ele>243.0</ele><time>2026-04-19T13:14:33Z</time></trkpt><trkpt lat="42.968875304093125" lon="12.717876699439612"><ele>243.0</ele><time>2026-04-19T13:14:34Z</time></trkpt><trkpt lat="42.96905415036531" lon="12.717790342130904"><ele>243.0</ele><time>2026-04-19T13:14:35Z</time></trkpt><trkpt lat="42.96922634272608" lon="12.717695605945606"><ele>243.0</ele><time>2026-04-19T13:14:36Z</time></trkpt><trkpt lat="42.96940840522648" lon="12.717602577842792"><ele>244.0</ele><time>2026-04-19T13:14:37Z</time></trkpt><trkpt lat="42.96958994008971" lon="12.717505240369526"><ele>245.0</ele><time>2026-04-19T13:14:38Z</time></trkpt><trkpt lat="42.96976990169842" lon="12.717422075712307"><ele>246.0</ele><time>2026-04-19T13:14:39Z</time></trkpt><trkpt lat="42.96995035970023" lon="12.7173441153379"><ele>245.33333333333331</ele><time>2026-04-19T13:14:40Z</time></trkpt><trkpt lat="42.970120816353145" lon="12.717269295761605"><ele>244.66666666666666</ele><time>2026-04-19T13:14:41Z</time></trkpt><trkpt lat="42.97028874569594" lon="12.71720778161795"><ele>244.0</ele><time>2026-04-19T13:14:42Z</time></trkpt><trkpt lat="42.97055283708656" lon="12.717060137692778"><ele>244.0</ele><time>2026-04-19T13:14:43Z</time></trkpt><trkpt lat="42.970743648706645" lon="12.716978961909847"><ele>244.0</ele><time>2026-04-19T13:14:44Z</time></trkpt><trkpt lat="42.9709312428161" lon="12.716894926775224"><ele>244.0</ele><time>2026-04-19T13:14:45Z</time></trkpt><trkpt lat="42.97111446580595" lon="12.716808166919876"><ele>244.0</ele><time>2026-04-19T13:14:46Z</time></trkpt><trkpt lat="42.97129821451137" lon="12.716718027087476"><ele>244.0</ele><time>2026-04-19T13:14:47Z</time></trkpt><trkpt lat="42.97148360452226" lon="12.71662397695917"><ele>244.0</ele><time>2026-04-19T13:14:48Z</time></trkpt><trkpt lat="42.97166651642098" lon="12.716531984226537"><ele>244.0</ele><time>2026-04-19T13:14:49Z</time></trkpt><trkpt lat="42.971850564412485" lon="12.716441309756744"><ele>244.0</ele><time>2026-04-19T13:14:50Z</time></trkpt><trkpt lat="42.97203541024513" lon="12.716350479035201"><ele>244.0</ele><time>2026-04-19T13:14:51Z</time></trkpt><trkpt lat="42.972223312929565" lon="12.716259665391691"><ele>244.0</ele><time>2026-04-19T13:14:52Z</time></trkpt><trkpt lat="42.97241236896758" lon="12.716170343267992"><ele>244.0</ele><time>2026-04-19T13:14:53Z</time></trkpt><trkpt lat="42.97260393975437" lon="12.716080966628697"><ele>244.0</ele><time>2026-04-19T13:14:54Z</time></trkpt><trkpt lat="42.97279541971395" lon="12.71599344087737"><ele>245.0</ele><time>2026-04-19T13:14:55Z</time></trkpt><trkpt lat="42.97298485220047" lon="12.71590716144577"><ele>246.0</ele><time>2026-04-19T13:14:56Z</time></trkpt><trkpt lat="42.973173760331164" lon="12.715824601901117"><ele>247.0</ele><time>2026-04-19T13:14:57Z</time></trkpt><trkpt lat="42.973360172019" lon="12.715745958405389"><ele>247.0</ele><time>2026-04-19T13:14:58Z</time></trkpt><trkpt lat="42.973547514840334" lon="12.715686224284605"><ele>247.0</ele><time>2026-04-19T13:14:59Z</time></trkpt><trkpt lat="42.97373891424251" lon="12.715660599721877"><ele>247.0</ele><time>2026-04-19T13:15:00Z</time></trkpt><trkpt lat="42.973936282828866" lon="12.71566011586279"><ele>247.0</ele><time>2026-04-19T13:15:00.999Z</time></trkpt><trkpt lat="42.9741352510678" lon="12.715676419543934"><ele>247.0</ele><time>2026-04-19T13:15:01.999Z</time></trkpt><trkpt lat="42.97433461493813" lon="12.715721421299449"><ele>247.0</ele><time>2026-04-19T13:15:02.999Z</time></trkpt><trkpt lat="42.974533561994036" lon="12.715790463353496"><ele>247.0</ele><time>2026-04-19T13:15:03.999Z</time></trkpt><trkpt lat="42.97472879593086" lon="12.715879981931094"><ele>247.0</ele><time>2026-04-19T13:15:04.999Z</time></trkpt><trkpt lat="42.97490197566344" lon="12.716009098897633"><ele>247.0</ele><time>2026-04-19T13:15:05.999Z</time></trkpt><trkpt lat="42.975074669779836" lon="12.716139559607996"><ele>248.33333333333331</ele><time>2026-04-19T13:15:06.999Z</time></trkpt><trkpt lat="42.97523974046321" lon="12.71628258664795"><ele>249.66666666666669</ele><time>2026-04-19T13:15:07.999Z</time></trkpt><trkpt lat="42.975404580775866" lon="12.716431255622469"><ele>251.0</ele><time>2026-04-19T13:15:08.999Z</time></trkpt><trkpt lat="42.97556929368866" lon="12.716580891432239"><ele>251.0</ele><time>2026-04-19T13:15:09.999Z</time></trkpt><trkpt lat="42.97573907053905" lon="12.716724108391473"><ele>251.0</ele><time>2026-04-19T13:15:10.999Z</time></trkpt><trkpt lat="42.97591374651203" lon="12.716861291587158"><ele>251.0</ele><time>2026-04-19T13:15:11.999Z</time></trkpt><trkpt lat="42.9760826311224" lon="12.716999495830834"><ele>250.33333333333334</ele><time>2026-04-19T13:15:12.999Z</time></trkpt><trkpt lat="42.97625003292091" lon="12.717142630064389"><ele>249.66666666666669</ele><time>2026-04-19T13:15:13.999Z</time></trkpt><trkpt lat="42.97642220236541" lon="12.717278872882611"><ele>249.0</ele><time>2026-04-19T13:15:14.999Z</time></trkpt><trkpt lat="42.97659515865606" lon="12.71741314140131"><ele>248.66666666666669</ele><time>2026-04-19T13:15:15.999Z</time></trkpt><trkpt lat="42.976767688886355" lon="12.71754724364428"><ele>248.33333333333334</ele><time>2026-04-19T13:15:16.999Z</time></trkpt><trkpt lat="42.97693525344556" lon="12.717682631169883"><ele>248.0</ele><time>2026-04-19T13:15:17.999Z</time></trkpt><trkpt lat="42.97710659955145" lon="12.71781733021022"><ele>248.0</ele><time>2026-04-19T13:15:18.999Z</time></trkpt><trkpt lat="42.977278397526334" lon="12.717952180671405"><ele>248.0</ele><time>2026-04-19T13:15:19.999Z</time></trkpt><trkpt lat="42.977448603889826" lon="12.71808899370331"><ele>248.0</ele><time>2026-04-19T13:15:20.999Z</time></trkpt><trkpt lat="42.977619652434086" lon="12.71822398187234"><ele>248.66666666666669</ele><time>2026-04-19T13:15:21.999Z</time></trkpt><trkpt lat="42.977792433407934" lon="12.718356453410353"><ele>249.33333333333331</ele><time>2026-04-19T13:15:22.999Z</time></trkpt><trkpt lat="42.97796404971187" lon="12.71849044420493"><ele>250.0</ele><time>2026-04-19T13:15:23.999Z</time></trkpt><trkpt lat="42.978135621300396" lon="12.7186261997593"><ele>250.0</ele><time>2026-04-19T13:15:24.999Z</time></trkpt><trkpt lat="42.97830331716358" lon="12.718763893421784"><ele>250.0</ele><time>2026-04-19T13:15:25.999Z</time></trkpt><trkpt lat="42.978475796075074" lon="12.718901474622303"><ele>250.0</ele><time>2026-04-19T13:15:26.999Z</time></trkpt><trkpt lat="42.97864718113346" lon="12.719037927624441"><ele>251.33333333333331</ele><time>2026-04-19T13:15:27.999Z</time></trkpt><trkpt lat="42.97881519763283" lon="12.719173949125222"><ele>252.66666666666669</ele><time>2026-04-19T13:15:28.999Z</time></trkpt><trkpt lat="42.97898260250454" lon="12.719311872918674"><ele>254.0</ele><time>2026-04-19T13:15:29.999Z</time></trkpt><trkpt lat="42.979155366051934" lon="12.719447834490245"><ele>255.0</ele><time>2026-04-19T13:15:30.999Z</time></trkpt><trkpt lat="42.979326597011735" lon="12.719579735016374"><ele>256.0</ele><time>2026-04-19T13:15:31.999Z</time></trkpt><trkpt lat="42.97949696967477" lon="12.719712043261817"><ele>257.0</ele><time>2026-04-19T13:15:32.999Z</time></trkpt><trkpt lat="42.97966826755391" lon="12.719843826400133"><ele>257.0</ele><time>2026-04-19T13:15:33.999Z</time></trkpt><trkpt lat="42.97983912886804" lon="12.719976096001815"><ele>257.0</ele><time>2026-04-19T13:15:34.999Z</time></trkpt><trkpt lat="42.980012837046374" lon="12.720111816965412"><ele>257.0</ele><time>2026-04-19T13:15:35.999Z</time></trkpt><trkpt lat="42.980184231515175" lon="12.72024789192199"><ele>257.6666666666667</ele><time>2026-04-19T13:15:36.999Z</time></trkpt><trkpt lat="42.98035034962044" lon="12.720385872281714"><ele>258.3333333333333</ele><time>2026-04-19T13:15:37.999Z</time></trkpt><trkpt lat="42.980526499197886" lon="12.720521216984308"><ele>259.0</ele><time>2026-04-19T13:15:39Z</time></trkpt><trkpt lat="42.98069417032976" lon="12.720655941574858"><ele>261.66666666666663</ele><time>2026-04-19T13:15:40Z</time></trkpt><trkpt lat="42.980863268376375" lon="12.720792741636208"><ele>264.3333333333333</ele><time>2026-04-19T13:15:41Z</time></trkpt><trkpt lat="42.98103845494948" lon="12.720930379531472"><ele>267.0</ele><time>2026-04-19T13:15:42Z</time></trkpt><trkpt lat="42.981202905147526" lon="12.721061614394626"><ele>268.3333333333333</ele><time>2026-04-19T13:15:43Z</time></trkpt><trkpt lat="42.98137676853503" lon="12.721200388046377"><ele>269.66666666666663</ele><time>2026-04-19T13:15:44Z</time></trkpt><trkpt lat="42.981550574001126" lon="12.721334583255672"><ele>271.0</ele><time>2026-04-19T13:15:45Z</time></trkpt><trkpt lat="42.98171787570394" lon="12.72146724200766"><ele>271.0</ele><time>2026-04-19T13:15:46Z</time></trkpt><trkpt lat="42.981892356039914" lon="12.721607304592059"><ele>271.0</ele><time>2026-04-19T13:15:47Z</time></trkpt><trkpt lat="42.98205798149137" lon="12.721741968781132"><ele>271.0</ele><time>2026-04-19T13:15:48Z</time></trkpt><trkpt lat="42.9822285164766" lon="12.72188384756689"><ele>272.66666666666663</ele><time>2026-04-19T13:15:49Z</time></trkpt><trkpt lat="42.9823992670187" lon="12.722033115691227"><ele>274.3333333333333</ele><time>2026-04-19T13:15:50Z</time></trkpt><trkpt lat="42.98255621934431" lon="12.722187335965767"><ele>276.0</ele><time>2026-04-19T13:15:51Z</time></trkpt><trkpt lat="42.98271066545715" lon="12.722348026158928"><ele>276.0</ele><time>2026-04-19T13:15:52Z</time></trkpt><trkpt lat="42.98286343085552" lon="12.722524182547666"><ele>276.0</ele><time>2026-04-19T13:15:53Z</time></trkpt><trkpt lat="42.98301202961023" lon="12.722704658423297"><ele>276.0</ele><time>2026-04-19T13:15:54Z</time></trkpt><trkpt lat="42.983155859949385" lon="12.722887570186735"><ele>277.3333333333333</ele><time>2026-04-19T13:15:55Z</time></trkpt><trkpt lat="42.98329604504142" lon="12.723079779674343"><ele>278.66666666666663</ele><time>2026-04-19T13:15:56Z</time></trkpt><trkpt lat="42.98343041745076" lon="12.723282111375374"><ele>280.0</ele><time>2026-04-19T13:15:57Z</time></trkpt><trkpt lat="42.98355574118204" lon="12.723486358888852"><ele>278.66666666666663</ele><time>2026-04-19T13:15:58Z</time></trkpt><trkpt lat="42.98368438467244" lon="12.723691914741677"><ele>277.3333333333333</ele><time>2026-04-19T13:15:59Z</time></trkpt><trkpt lat="42.9838085708144" lon="12.723895275571836"><ele>276.0</ele><time>2026-04-19T13:16:00Z</time></trkpt><trkpt lat="42.98393301363278" lon="12.724106881192604"><ele>276.0</ele><time>2026-04-19T13:16:01Z</time></trkpt><trkpt lat="42.98405710747932" lon="12.72431393761546"><ele>276.0</ele><time>2026-04-19T13:16:02Z</time></trkpt><trkpt lat="42.98418498767222" lon="12.724523625022059"><ele>276.0</ele><time>2026-04-19T13:16:03Z</time></trkpt><trkpt lat="42.984310556660446" lon="12.72473306315894"><ele>275.6666666666667</ele><time>2026-04-19T13:16:04Z</time></trkpt><trkpt lat="42.9844343535411" lon="12.724941683414329"><ele>275.33333333333337</ele><time>2026-04-19T13:16:05Z</time></trkpt><trkpt lat="42.984557338837" lon="12.725149971355622"><ele>275.0</ele><time>2026-04-19T13:16:06Z</time></trkpt><trkpt lat="42.98468031301658" lon="12.725361433362126"><ele>275.0</ele><time>2026-04-19T13:16:07Z</time></trkpt><trkpt lat="42.98480483603325" lon="12.725575391865739"><ele>275.0</ele><time>2026-04-19T13:16:08Z</time></trkpt><trkpt lat="42.98492991850082" lon="12.725780808328029"><ele>275.0</ele><time>2026-04-19T13:16:09Z</time></trkpt><trkpt lat="42.985054776961476" lon="12.72598696326575"><ele>277.33333333333337</ele><time>2026-04-19T13:16:10Z</time></trkpt><trkpt lat="42.98518160465546" lon="12.726199101986833"><ele>279.6666666666667</ele><time>2026-04-19T13:16:11Z</time></trkpt><trkpt lat="42.98530575619055" lon="12.726409078458648"><ele>282.0</ele><time>2026-04-19T13:16:12Z</time></trkpt><trkpt lat="42.98542894431826" lon="12.72661864879905"><ele>282.0</ele><time>2026-04-19T13:16:13Z</time></trkpt><trkpt lat="42.9855527374758" lon="12.726828061282257"><ele>282.0</ele><time>2026-04-19T13:16:14Z</time></trkpt><trkpt lat="42.98567771663888" lon="12.727037992586387"><ele>282.0</ele><time>2026-04-19T13:16:15Z</time></trkpt><trkpt lat="42.98580155545054" lon="12.727247145508253"><ele>284.3333333333333</ele><time>2026-04-19T13:16:16Z</time></trkpt><trkpt lat="42.98592789996398" lon="12.727456038288024"><ele>286.66666666666663</ele><time>2026-04-19T13:16:17Z</time></trkpt><trkpt lat="42.98605744004919" lon="12.727667486454392"><ele>289.0</ele><time>2026-04-19T13:16:18Z</time></trkpt><trkpt lat="42.986188624316526" lon="12.727872912409927"><ele>289.0</ele><time>2026-04-19T13:16:19Z</time></trkpt><trkpt lat="42.986324145228146" lon="12.728076375410614"><ele>289.0</ele><time>2026-04-19T13:16:20Z</time></trkpt><trkpt lat="42.986464967876174" lon="12.728273860769711"><ele>289.0</ele><time>2026-04-19T13:16:21Z</time></trkpt><trkpt lat="42.98661119144901" lon="12.728460699929432"><ele>286.0</ele><time>2026-04-19T13:16:22Z</time></trkpt><trkpt lat="42.986761451306116" lon="12.728639896908163"><ele>283.0</ele><time>2026-04-19T13:16:23Z</time></trkpt><trkpt lat="42.98691436603605" lon="12.728814576148556"><ele>280.0</ele><time>2026-04-19T13:16:24Z</time></trkpt><trkpt lat="42.98706801739098" lon="12.728975996545843"><ele>280.0</ele><time>2026-04-19T13:16:25Z</time></trkpt><trkpt lat="42.98721861512374" lon="12.729127605280008"><ele>280.0</ele><time>2026-04-19T13:16:26Z</time></trkpt><trkpt lat="42.987367735396354" lon="12.729271031328254"><ele>280.0</ele><time>2026-04-19T13:16:27Z</time></trkpt><trkpt lat="42.987515539716966" lon="12.729393729759195"><ele>279.66666666666663</ele><time>2026-04-19T13:16:28Z</time></trkpt><trkpt lat="42.987668487037396" lon="12.729514099193338"><ele>279.3333333333333</ele><time>2026-04-19T13:16:29Z</time></trkpt><trkpt lat="42.98781451559901" lon="12.729629550290008"><ele>279.0</ele><time>2026-04-19T13:16:30Z</time></trkpt><trkpt lat="42.98796331841893" lon="12.729742985890601"><ele>279.0</ele><time>2026-04-19T13:16:31Z</time></trkpt><trkpt lat="42.988113322763766" lon="12.729850037665564"><ele>279.0</ele><time>2026-04-19T13:16:32Z</time></trkpt><trkpt lat="42.988255323180006" lon="12.729951873589327"><ele>279.0</ele><time>2026-04-19T13:16:33Z</time></trkpt><trkpt lat="42.98840232071815" lon="12.730051038290078"><ele>278.6666666666667</ele><time>2026-04-19T13:16:34Z</time></trkpt><trkpt lat="42.98854263358019" lon="12.730151113649516"><ele>278.33333333333337</ele><time>2026-04-19T13:16:35Z</time></trkpt><trkpt lat="42.98868472270352" lon="12.730250856597152"><ele>278.0</ele><time>2026-04-19T13:16:36Z</time></trkpt><trkpt lat="42.98882787237908" lon="12.730350282886091"><ele>278.0</ele><time>2026-04-19T13:16:37Z</time></trkpt><trkpt lat="42.98897964069758" lon="12.730461804419773"><ele>278.0</ele><time>2026-04-19T13:16:38Z</time></trkpt><trkpt lat="42.98913006889101" lon="12.730568980305982"><ele>278.0</ele><time>2026-04-19T13:16:39Z</time></trkpt><trkpt lat="42.98928227023297" lon="12.730672083550784"><ele>280.33333333333337</ele><time>2026-04-19T13:16:40Z</time></trkpt><trkpt lat="42.98943983767926" lon="12.730781863374506"><ele>282.6666666666667</ele><time>2026-04-19T13:16:41Z</time></trkpt><trkpt lat="42.98959675749873" lon="12.730889993403697"><ele>285.0</ele><time>2026-04-19T13:16:42Z</time></trkpt><trkpt lat="42.989756756333904" lon="12.731006657104375"><ele>281.6666666666667</ele><time>2026-04-19T13:16:43Z</time></trkpt><trkpt lat="42.989915936789366" lon="12.731120812389568"><ele>278.33333333333337</ele><time>2026-04-19T13:16:44Z</time></trkpt><trkpt lat="42.99007938991011" lon="12.731238061681902"><ele>275.0</ele><time>2026-04-19T13:16:45Z</time></trkpt><trkpt lat="42.99023320127713" lon="12.731344566508168"><ele>275.0</ele><time>2026-04-19T13:16:46Z</time></trkpt><trkpt lat="42.990399957866956" lon="12.731461221806564"><ele>275.0</ele><time>2026-04-19T13:16:47Z</time></trkpt><trkpt lat="42.99055885931266" lon="12.731569602505578"><ele>275.0</ele><time>2026-04-19T13:16:48Z</time></trkpt><trkpt lat="42.990718138244354" lon="12.731680269939504"><ele>275.33333333333337</ele><time>2026-04-19T13:16:49Z</time></trkpt><trkpt lat="42.990885900063674" lon="12.731801272554556"><ele>275.6666666666667</ele><time>2026-04-19T13:16:50Z</time></trkpt><trkpt lat="42.99103943606248" lon="12.731913344731343"><ele>276.0</ele><time>2026-04-19T13:16:51Z</time></trkpt><trkpt lat="42.9912020468194" lon="12.732033652322785"><ele>276.0</ele><time>2026-04-19T13:16:52Z</time></trkpt><trkpt lat="42.99136235361309" lon="12.732158430853389"><ele>276.0</ele><time>2026-04-19T13:16:53Z</time></trkpt><trkpt lat="42.99152154016975" lon="12.73228492008173"><ele>276.0</ele><time>2026-04-19T13:16:54Z</time></trkpt><trkpt lat="42.991683263621475" lon="12.732413916320946"><ele>276.3333333333333</ele><time>2026-04-19T13:16:55Z</time></trkpt><trkpt lat="42.991842607214664" lon="12.732546322324808"><ele>276.66666666666663</ele><time>2026-04-19T13:16:56Z</time></trkpt><trkpt lat="42.99199139154224" lon="12.732672036391202"><ele>277.0</ele><time>2026-04-19T13:16:57Z</time></trkpt><trkpt lat="42.99213662153273" lon="12.73280167963961"><ele>277.0</ele><time>2026-04-19T13:16:58Z</time></trkpt><trkpt lat="42.992286906632096" lon="12.732930993245871"><ele>277.0</ele><time>2026-04-19T13:16:59Z</time></trkpt><trkpt lat="42.992436887738535" lon="12.73306041762815"><ele>277.0</ele><time>2026-04-19T13:17:00Z</time></trkpt><trkpt lat="42.992585005475455" lon="12.733192396255696"><ele>276.66666666666663</ele><time>2026-04-19T13:17:00.999Z</time></trkpt><trkpt lat="42.99272694558294" lon="12.733318635773385"><ele>276.3333333333333</ele><time>2026-04-19T13:17:01.999Z</time></trkpt><trkpt lat="42.99287692791732" lon="12.733458136293851"><ele>276.0</ele><time>2026-04-19T13:17:02.999Z</time></trkpt><trkpt lat="42.993021018125674" lon="12.733588285058447"><ele>276.0</ele><time>2026-04-19T13:17:03.999Z</time></trkpt><trkpt lat="42.99316710819512" lon="12.73371952045695"><ele>276.0</ele><time>2026-04-19T13:17:04.999Z</time></trkpt><trkpt lat="42.993317509383864" lon="12.733854336724175"><ele>276.0</ele><time>2026-04-19T13:17:05.999Z</time></trkpt><trkpt lat="42.9934639918485" lon="12.733982160382936"><ele>279.3333333333333</ele><time>2026-04-19T13:17:06.999Z</time></trkpt><trkpt lat="42.993613620378255" lon="12.734114335688183"><ele>282.66666666666663</ele><time>2026-04-19T13:17:07.999Z</time></trkpt><trkpt lat="42.993756917820086" lon="12.734241601298157"><ele>286.0</ele><time>2026-04-19T13:17:08.999Z</time></trkpt><trkpt lat="42.993899165784" lon="12.734370846390451"><ele>285.3333333333333</ele><time>2026-04-19T13:17:09.999Z</time></trkpt><trkpt lat="42.99403198254021" lon="12.734493379628791"><ele>284.6666666666667</ele><time>2026-04-19T13:17:10.999Z</time></trkpt><trkpt lat="42.994157219193845" lon="12.734612658001188"><ele>284.0</ele><time>2026-04-19T13:17:11.999Z</time></trkpt><trkpt lat="42.99428401469323" lon="12.734729979409869"><ele>284.0</ele><time>2026-04-19T13:17:12.999Z</time></trkpt><trkpt lat="42.99440852188809" lon="12.734841192756788"><ele>284.0</ele><time>2026-04-19T13:17:13.999Z</time></trkpt><trkpt lat="42.99452830886578" lon="12.734946378230985"><ele>284.0</ele><time>2026-04-19T13:17:14.999Z</time></trkpt><trkpt lat="42.994652617699266" lon="12.73505645016374"><ele>284.0</ele><time>2026-04-19T13:17:15.999Z</time></trkpt><trkpt lat="42.994769005805374" lon="12.735161669872467"><ele>283.25</ele><time>2026-04-19T13:17:16.999Z</time></trkpt><trkpt lat="42.99488852796505" lon="12.735268962322358"><ele>282.5</ele><time>2026-04-19T13:17:17.999Z</time></trkpt><trkpt lat="42.995009648712575" lon="12.735373855150765"><ele>281.75</ele><time>2026-04-19T13:17:18.999Z</time></trkpt><trkpt lat="42.99512807985925" lon="12.735477009756016"><ele>281.0</ele><time>2026-04-19T13:17:19.999Z</time></trkpt><trkpt lat="42.99524686500256" lon="12.735580497547886"><ele>281.0</ele><time>2026-04-19T13:17:20.999Z</time></trkpt><trkpt lat="42.995367930428316" lon="12.73568300321987"><ele>281.0</ele><time>2026-04-19T13:17:21.999Z</time></trkpt><trkpt lat="42.995487908027755" lon="12.735782185788066"><ele>281.0</ele><time>2026-04-19T13:17:22.999Z</time></trkpt><trkpt lat="42.99560821997427" lon="12.735885119880773"><ele>281.0</ele><time>2026-04-19T13:17:23.999Z</time></trkpt><trkpt lat="42.99572937794007" lon="12.735989822810716"><ele>280.25</ele><time>2026-04-19T13:17:24.999Z</time></trkpt><trkpt lat="42.99585436435095" lon="12.736093718787462"><ele>279.5</ele><time>2026-04-19T13:17:25.999Z</time></trkpt><trkpt lat="42.99597904981145" lon="12.736194911197193"><ele>278.75</ele><time>2026-04-19T13:17:26.999Z</time></trkpt><trkpt lat="42.99610767642076" lon="12.73629623063194"><ele>278.0</ele><time>2026-04-19T13:17:27.999Z</time></trkpt><trkpt lat="42.99623856874991" lon="12.73639510803795"><ele>278.0</ele><time>2026-04-19T13:17:28.999Z</time></trkpt><trkpt lat="42.99637304506229" lon="12.736494981469066"><ele>278.0</ele><time>2026-04-19T13:17:29.999Z</time></trkpt><trkpt lat="42.99650695270505" lon="12.736596661431966"><ele>278.0</ele><time>2026-04-19T13:17:30.999Z</time></trkpt><trkpt lat="42.99663986910629" lon="12.736704964310608"><ele>278.33333333333337</ele><time>2026-04-19T13:17:31.999Z</time></trkpt><trkpt lat="42.996776941788674" lon="12.736813577146906"><ele>278.6666666666667</ele><time>2026-04-19T13:17:32.999Z</time></trkpt><trkpt lat="42.9969150641999" lon="12.7369227170139"><ele>279.0</ele><time>2026-04-19T13:17:33.999Z</time></trkpt><trkpt lat="42.9970541297971" lon="12.737030693626593"><ele>279.0</ele><time>2026-04-19T13:17:34.999Z</time></trkpt><trkpt lat="42.99719396479826" lon="12.737139292035609"><ele>279.0</ele><time>2026-04-19T13:17:35.999Z</time></trkpt><trkpt lat="42.99733546741949" lon="12.737248924688753"><ele>279.0</ele><time>2026-04-19T13:17:36.999Z</time></trkpt><trkpt lat="42.9974815372617" lon="12.737362373560565"><ele>281.3333333333333</ele><time>2026-04-19T13:17:37.999Z</time></trkpt><trkpt lat="42.99762791361625" lon="12.73747568745301"><ele>283.66666666666663</ele><time>2026-04-19T13:17:38.999Z</time></trkpt><trkpt lat="42.997778924102285" lon="12.737592662288064"><ele>286.0</ele><time>2026-04-19T13:17:39.999Z</time></trkpt><trkpt lat="42.997931124219654" lon="12.737708962604016"><ele>284.66666666666663</ele><time>2026-04-19T13:17:40.999Z</time></trkpt><trkpt lat="42.998087750803066" lon="12.737824770908581"><ele>283.3333333333333</ele><time>2026-04-19T13:17:41.999Z</time></trkpt><trkpt lat="42.998248315897655" lon="12.737940918605494"><ele>282.0</ele><time>2026-04-19T13:17:42.999Z</time></trkpt><trkpt lat="42.99841282805489" lon="12.738051874408598"><ele>282.0</ele><time>2026-04-19T13:17:43.999Z</time></trkpt><trkpt lat="42.99858108568886" lon="12.738157296670048"><ele>282.0</ele><time>2026-04-19T13:17:45Z</time></trkpt><trkpt lat="42.99874856950903" lon="12.738257820113366"><ele>282.0</ele><time>2026-04-19T13:17:46Z</time></trkpt><trkpt lat="42.99892397195386" lon="12.73835827767961"><ele>282.0</ele><time>2026-04-19T13:17:47Z</time></trkpt><trkpt lat="42.999096289971135" lon="12.738451901654518"><ele>282.0</ele><time>2026-04-19T13:17:48Z</time></trkpt><trkpt lat="42.9992682073934" lon="12.738545311907764"><ele>282.0</ele><time>2026-04-19T13:17:49Z</time></trkpt><trkpt lat="42.99944987909533" lon="12.738633324074573"><ele>280.3333333333333</ele><time>2026-04-19T13:17:50Z</time></trkpt><trkpt lat="42.99963078358146" lon="12.738715699005029"><ele>278.66666666666663</ele><time>2026-04-19T13:17:51Z</time></trkpt><trkpt lat="42.999806787872" lon="12.738790150377966"><ele>277.0</ele><time>2026-04-19T13:17:52Z</time></trkpt><trkpt lat="42.999987628407474" lon="12.73886041818058"><ele>277.0</ele><time>2026-04-19T13:17:53Z</time></trkpt><trkpt lat="43.00017621833147" lon="12.738927285874366"><ele>277.0</ele><time>2026-04-19T13:17:54Z</time></trkpt><trkpt lat="43.00036590815619" lon="12.738988505278915"><ele>277.0</ele><time>2026-04-19T13:17:55Z</time></trkpt><trkpt lat="43.00055169223458" lon="12.739042370691081"><ele>277.0</ele><time>2026-04-19T13:17:56Z</time></trkpt><trkpt lat="43.00073973186665" lon="12.739090249567244"><ele>277.0</ele><time>2026-04-19T13:17:57Z</time></trkpt><trkpt lat="43.000927703040404" lon="12.739136466843236"><ele>277.0</ele><time>2026-04-19T13:17:58Z</time></trkpt><trkpt lat="43.00112015363051" lon="12.739177614825088"><ele>278.3333333333333</ele><time>2026-04-19T13:17:59Z</time></trkpt><trkpt lat="43.00131885501671" lon="12.739210481728717"><ele>279.6666666666667</ele><time>2026-04-19T13:18:00Z</time></trkpt><trkpt lat="43.00152086154563" lon="12.73923728396269"><ele>281.0</ele><time>2026-04-19T13:18:01Z</time></trkpt><trkpt lat="43.00172115123119" lon="12.739265063210523"><ele>281.0</ele><time>2026-04-19T13:18:02Z</time></trkpt><trkpt lat="43.00192388077635" lon="12.73929207828201"><ele>281.0</ele><time>2026-04-19T13:18:03Z</time></trkpt><trkpt lat="43.00213025713738" lon="12.73931514821156"><ele>281.0</ele><time>2026-04-19T13:18:04Z</time></trkpt><trkpt lat="43.00233600575015" lon="12.739333540546562"><ele>282.33333333333337</ele><time>2026-04-19T13:18:05Z</time></trkpt><trkpt lat="43.002549024956615" lon="12.739354531507383"><ele>283.6666666666667</ele><time>2026-04-19T13:18:06Z</time></trkpt><trkpt lat="43.002762545196994" lon="12.739366944197672"><ele>285.0</ele><time>2026-04-19T13:18:07Z</time></trkpt><trkpt lat="43.00298179170415" lon="12.739375285805018"><ele>284.6666666666667</ele><time>2026-04-19T13:18:08Z</time></trkpt><trkpt lat="43.00318188065154" lon="12.739410333663473"><ele>284.33333333333337</ele><time>2026-04-19T13:18:09Z</time></trkpt><trkpt lat="43.00339591942898" lon="12.73942264914775"><ele>284.0</ele><time>2026-04-19T13:18:10Z</time></trkpt><trkpt lat="43.003609375502215" lon="12.73943949951244"><ele>284.0</ele><time>2026-04-19T13:18:11Z</time></trkpt><trkpt lat="43.003819865340304" lon="12.739457765068407"><ele>284.0</ele><time>2026-04-19T13:18:12Z</time></trkpt><trkpt lat="43.00402960107173" lon="12.739470624648224"><ele>284.0</ele><time>2026-04-19T13:18:13Z</time></trkpt><trkpt lat="43.00424002982052" lon="12.739484274914705"><ele>284.0</ele><time>2026-04-19T13:18:14Z</time></trkpt><trkpt lat="43.00444998157439" lon="12.739505515616022"><ele>284.0</ele><time>2026-04-19T13:18:15Z</time></trkpt><trkpt lat="43.00466109855752" lon="12.73952615361031"><ele>284.0</ele><time>2026-04-19T13:18:16Z</time></trkpt><trkpt lat="43.004873259815795" lon="12.73954466258305"><ele>284.0</ele><time>2026-04-19T13:18:17Z</time></trkpt><trkpt lat="43.00508646761613" lon="12.739561873041568"><ele>284.0</ele><time>2026-04-19T13:18:18Z</time></trkpt><trkpt lat="43.00529913995782" lon="12.739579221691969"><ele>284.0</ele><time>2026-04-19T13:18:19Z</time></trkpt><trkpt lat="43.00551323352155" lon="12.739599165515882"><ele>284.0</ele><time>2026-04-19T13:18:20Z</time></trkpt><trkpt lat="43.005724556995695" lon="12.739622208983565"><ele>284.0</ele><time>2026-04-19T13:18:21Z</time></trkpt><trkpt lat="43.00593648771389" lon="12.739646258224901"><ele>284.0</ele><time>2026-04-19T13:18:22Z</time></trkpt><trkpt lat="43.00615235588971" lon="12.739679784606464"><ele>284.33333333333337</ele><time>2026-04-19T13:18:23Z</time></trkpt><trkpt lat="43.00637222507965" lon="12.739717430108925"><ele>284.6666666666667</ele><time>2026-04-19T13:18:24Z</time></trkpt><trkpt lat="43.00657069672804" lon="12.739698373901025"><ele>285.0</ele><time>2026-04-19T13:18:25Z</time></trkpt><trkpt lat="43.006780252236034" lon="12.739714672967573"><ele>285.0</ele><time>2026-04-19T13:18:26Z</time></trkpt><trkpt lat="43.00698893515316" lon="12.739730580707885"><ele>285.0</ele><time>2026-04-19T13:18:27Z</time></trkpt><trkpt lat="43.00719871478286" lon="12.739747894981992"><ele>285.0</ele><time>2026-04-19T13:18:28Z</time></trkpt><trkpt lat="43.007408568470915" lon="12.739767017865608"><ele>285.6666666666667</ele><time>2026-04-19T13:18:29Z</time></trkpt><trkpt lat="43.00761871589165" lon="12.739783915453364"><ele>286.33333333333337</ele><time>2026-04-19T13:18:30Z</time></trkpt><trkpt lat="43.00783077572236" lon="12.739796519990927"><ele>287.0</ele><time>2026-04-19T13:18:31Z</time></trkpt><trkpt lat="43.00804270625861" lon="12.739815328830662"><ele>287.0</ele><time>2026-04-19T13:18:32Z</time></trkpt><trkpt lat="43.00825568187473" lon="12.739836506894246"><ele>287.0</ele><time>2026-04-19T13:18:33Z</time></trkpt><trkpt lat="43.00846973760584" lon="12.739863587941443"><ele>287.0</ele><time>2026-04-19T13:18:34Z</time></trkpt><trkpt lat="43.00868232137809" lon="12.73989226491697"><ele>288.33333333333337</ele><time>2026-04-19T13:18:35Z</time></trkpt><trkpt lat="43.00889087375515" lon="12.73993830057244"><ele>289.6666666666667</ele><time>2026-04-19T13:18:36Z</time></trkpt><trkpt lat="43.00909512811597" lon="12.739996397652707"><ele>291.0</ele><time>2026-04-19T13:18:37Z</time></trkpt><trkpt lat="43.00929705018532" lon="12.740075730123255"><ele>291.6666666666667</ele><time>2026-04-19T13:18:38Z</time></trkpt><trkpt lat="43.00949578702172" lon="12.740174157754863"><ele>292.33333333333337</ele><time>2026-04-19T13:18:39Z</time></trkpt><trkpt lat="43.00969269683677" lon="12.74028594199854"><ele>293.0</ele><time>2026-04-19T13:18:40Z</time></trkpt><trkpt lat="43.00988212442957" lon="12.740405770209255"><ele>294.6666666666667</ele><time>2026-04-19T13:18:41Z</time></trkpt><trkpt lat="43.01006957849914" lon="12.740546558792467"><ele>296.3333333333333</ele><time>2026-04-19T13:18:42Z</time></trkpt><trkpt lat="43.01024866349484" lon="12.74070139745464"><ele>298.0</ele><time>2026-04-19T13:18:43Z</time></trkpt><trkpt lat="43.010424616918016" lon="12.740856462964567"><ele>298.0</ele><time>2026-04-19T13:18:44Z</time></trkpt><trkpt lat="43.01060594070953" lon="12.741009904840242"><ele>298.0</ele><time>2026-04-19T13:18:45Z</time></trkpt><trkpt lat="43.010785451798746" lon="12.741163029824687"><ele>298.0</ele><time>2026-04-19T13:18:46Z</time></trkpt><trkpt lat="43.01096038746001" lon="12.741331190010685"><ele>298.0</ele><time>2026-04-19T13:18:47Z</time></trkpt><trkpt lat="43.01111557133032" lon="12.741528744192724"><ele>298.0</ele><time>2026-04-19T13:18:48Z</time></trkpt><trkpt lat="43.01125066626186" lon="12.74175665872211"><ele>298.0</ele><time>2026-04-19T13:18:49Z</time></trkpt><trkpt lat="43.01136453028393" lon="12.741995190810679"><ele>298.0</ele><time>2026-04-19T13:18:50Z</time></trkpt><trkpt lat="43.011458278064374" lon="12.742255258484478"><ele>298.0</ele><time>2026-04-19T13:18:51Z</time></trkpt><trkpt lat="43.011537453885055" lon="12.742526509178333"><ele>298.0</ele><time>2026-04-19T13:18:52Z</time></trkpt><trkpt lat="43.011607841572605" lon="12.742802885614031"><ele>299.0</ele><time>2026-04-19T13:18:53Z</time></trkpt><trkpt lat="43.01167500812295" lon="12.74307807430436"><ele>300.0</ele><time>2026-04-19T13:18:54Z</time></trkpt><trkpt lat="43.01174758156075" lon="12.74335215596671"><ele>301.0</ele><time>2026-04-19T13:18:55Z</time></trkpt><trkpt lat="43.01199631138097" lon="12.743551626741505"><ele>301.0</ele><time>2026-04-19T13:18:55.999Z</time></trkpt><trkpt lat="43.01206415262097" lon="12.743813641360283"><ele>301.0</ele><time>2026-04-19T13:18:56.999Z</time></trkpt><trkpt lat="43.0121374348872" lon="12.744078836184551"><ele>301.0</ele><time>2026-04-19T13:18:57.999Z</time></trkpt><trkpt lat="43.012213820501024" lon="12.744350079402988"><ele>301.66666666666663</ele><time>2026-04-19T13:18:58.999Z</time></trkpt><trkpt lat="43.01228983876145" lon="12.744620017720733"><ele>302.3333333333333</ele><time>2026-04-19T13:18:59.999Z</time></trkpt><trkpt lat="43.012366202734334" lon="12.744891183656286"><ele>303.0</ele><time>2026-04-19T13:19:00.999Z</time></trkpt><trkpt lat="43.01243433257733" lon="12.745166396091651"><ele>308.0</ele><time>2026-04-19T13:19:01.999Z</time></trkpt><trkpt lat="43.01237705325496" lon="12.745504852406482"><ele>313.0</ele><time>2026-04-19T13:19:02.999Z</time></trkpt><trkpt lat="43.012483979880294" lon="12.745758790145688"><ele>310.3333333333333</ele><time>2026-04-19T13:19:03.999Z</time></trkpt><trkpt lat="43.01259805696407" lon="12.746000246944632"><ele>307.6666666666667</ele><time>2026-04-19T13:19:04.999Z</time></trkpt><trkpt lat="43.01271161079409" lon="12.74624484191379"><ele>305.0</ele><time>2026-04-19T13:19:05.999Z</time></trkpt><trkpt lat="43.01283315294883" lon="12.7464801234593"><ele>305.0</ele><time>2026-04-19T13:19:06.999Z</time></trkpt><trkpt lat="43.01296410836533" lon="12.746712263437612"><ele>305.0</ele><time>2026-04-19T13:19:07.999Z</time></trkpt><trkpt lat="43.01310184371724" lon="12.74693286345395"><ele>305.0</ele><time>2026-04-19T13:19:08.999Z</time></trkpt><trkpt lat="43.01324802290503" lon="12.747143566418098"><ele>304.6666666666667</ele><time>2026-04-19T13:19:09.999Z</time></trkpt><trkpt lat="43.01339894887843" lon="12.747343428626403"><ele>304.3333333333333</ele><time>2026-04-19T13:19:10.999Z</time></trkpt><trkpt lat="43.01355711369147" lon="12.747537540248407"><ele>304.0</ele><time>2026-04-19T13:19:11.999Z</time></trkpt><trkpt lat="43.013721070559654" lon="12.747722868225933"><ele>304.0</ele><time>2026-04-19T13:19:12.999Z</time></trkpt><trkpt lat="43.01389068993489" lon="12.747895630855728"><ele>304.0</ele><time>2026-04-19T13:19:13.999Z</time></trkpt><trkpt lat="43.01406602705431" lon="12.748057183569397"><ele>304.0</ele><time>2026-04-19T13:19:14.999Z</time></trkpt><trkpt lat="43.01423406278664" lon="12.748197694422966"><ele>304.0</ele><time>2026-04-19T13:19:15.999Z</time></trkpt><trkpt lat="43.01442415895643" lon="12.748341898800149"><ele>304.0</ele><time>2026-04-19T13:19:16.999Z</time></trkpt><trkpt lat="43.01461279379412" lon="12.748477388023908"><ele>304.0</ele><time>2026-04-19T13:19:17.999Z</time></trkpt><trkpt lat="43.014804731309574" lon="12.748591552760592"><ele>303.66666666666663</ele><time>2026-04-19T13:19:18.999Z</time></trkpt><trkpt lat="43.01500260280375" lon="12.748698502538675"><ele>303.3333333333333</ele><time>2026-04-19T13:19:19.999Z</time></trkpt><trkpt lat="43.015201066813724" lon="12.74879300172595"><ele>303.0</ele><time>2026-04-19T13:19:20.999Z</time></trkpt><trkpt lat="43.015402455543125" lon="12.748886351961644"><ele>303.0</ele><time>2026-04-19T13:19:21.999Z</time></trkpt><trkpt lat="43.01560285117327" lon="12.748984012358207"><ele>303.0</ele><time>2026-04-19T13:19:22.999Z</time></trkpt><trkpt lat="43.015802809720505" lon="12.749077661571972"><ele>303.0</ele><time>2026-04-19T13:19:23.999Z</time></trkpt><trkpt lat="43.01600770103048" lon="12.749173708444783"><ele>303.3333333333333</ele><time>2026-04-19T13:19:24.999Z</time></trkpt><trkpt lat="43.01620244451562" lon="12.749266277163455"><ele>303.66666666666663</ele><time>2026-04-19T13:19:25.999Z</time></trkpt><trkpt lat="43.0164032679982" lon="12.749359812582526"><ele>304.0</ele><time>2026-04-19T13:19:26.999Z</time></trkpt><trkpt lat="43.01660181103448" lon="12.74945522865569"><ele>306.66666666666663</ele><time>2026-04-19T13:19:27.999Z</time></trkpt><trkpt lat="43.01680270244785" lon="12.749554952290177"><ele>309.3333333333333</ele><time>2026-04-19T13:19:28.999Z</time></trkpt><trkpt lat="43.01700038168544" lon="12.74966083293475"><ele>312.0</ele><time>2026-04-19T13:19:29.999Z</time></trkpt><trkpt lat="43.01719582697326" lon="12.7497754450604"><ele>312.0</ele><time>2026-04-19T13:19:30.999Z</time></trkpt><trkpt lat="43.01738813265888" lon="12.749900458612126"><ele>312.0</ele><time>2026-04-19T13:19:31.999Z</time></trkpt><trkpt lat="43.01757283188862" lon="12.75003502290797"><ele>312.0</ele><time>2026-04-19T13:19:32.999Z</time></trkpt><trkpt lat="43.01775538340724" lon="12.750180929010897"><ele>314.3333333333333</ele><time>2026-04-19T13:19:33.999Z</time></trkpt><trkpt lat="43.01793648768097" lon="12.750335174172404"><ele>316.66666666666663</ele><time>2026-04-19T13:19:34.999Z</time></trkpt><trkpt lat="43.01811267469708" lon="12.750496777839645"><ele>319.0</ele><time>2026-04-19T13:19:35.999Z</time></trkpt><trkpt lat="43.01827919866563" lon="12.750657755448973"><ele>317.0</ele><time>2026-04-19T13:19:36.999Z</time></trkpt><trkpt lat="43.018451459460714" lon="12.750825798364756"><ele>315.0</ele><time>2026-04-19T13:19:37.999Z</time></trkpt><trkpt lat="43.01862645961785" lon="12.75099541744887"><ele>313.0</ele><time>2026-04-19T13:19:38.999Z</time></trkpt><trkpt lat="43.01879607083426" lon="12.751165407904326"><ele>313.0</ele><time>2026-04-19T13:19:39.999Z</time></trkpt><trkpt lat="43.018969707321375" lon="12.751336556963917"><ele>313.0</ele><time>2026-04-19T13:19:40.999Z</time></trkpt><trkpt lat="43.019140980816005" lon="12.751505819768157"><ele>313.0</ele><time>2026-04-19T13:19:41.999Z</time></trkpt><trkpt lat="43.019316823593556" lon="12.75167379043682"><ele>312.0</ele><time>2026-04-19T13:19:42.999Z</time></trkpt><trkpt lat="43.019495315448054" lon="12.751834619719702"><ele>311.0</ele><time>2026-04-19T13:19:43.999Z</time></trkpt><trkpt lat="43.01967252619883" lon="12.75198747031302"><ele>310.0</ele><time>2026-04-19T13:19:44.999Z</time></trkpt><trkpt lat="43.01985462896787" lon="12.752130954289948"><ele>310.3333333333333</ele><time>2026-04-19T13:19:45.999Z</time></trkpt><trkpt lat="43.02004215271568" lon="12.752260394410895"><ele>310.6666666666667</ele><time>2026-04-19T13:19:46.999Z</time></trkpt><trkpt lat="43.02023635988842" lon="12.752379517057582"><ele>311.0</ele><time>2026-04-19T13:19:47.999Z</time></trkpt><trkpt lat="43.02043237039279" lon="12.75248802529786"><ele>311.0</ele><time>2026-04-19T13:19:48.999Z</time></trkpt><trkpt lat="43.0206314480139" lon="12.7525798124723"><ele>311.0</ele><time>2026-04-19T13:19:49.999Z</time></trkpt><trkpt lat="43.02083828808896" lon="12.752653637025965"><ele>311.0</ele><time>2026-04-19T13:19:51Z</time></trkpt><trkpt lat="43.021041272669756" lon="12.752715405293193"><ele>311.6666666666667</ele><time>2026-04-19T13:19:52Z</time></trkpt><trkpt lat="43.02125195261075" lon="12.752762195992428"><ele>312.3333333333333</ele><time>2026-04-19T13:19:53Z</time></trkpt><trkpt lat="43.02146200024" lon="12.752795346371688"><ele>313.0</ele><time>2026-04-19T13:19:54Z</time></trkpt><trkpt lat="43.02167116299476" lon="12.752814656567423"><ele>314.3333333333333</ele><time>2026-04-19T13:19:55Z</time></trkpt><trkpt lat="43.02188517037646" lon="12.752817451673026"><ele>315.6666666666667</ele><time>2026-04-19T13:19:56Z</time></trkpt><trkpt lat="43.02209470863154" lon="12.752807925867192"><ele>317.0</ele><time>2026-04-19T13:19:57Z</time></trkpt><trkpt lat="43.022309422871196" lon="12.752779486990253"><ele>316.6666666666667</ele><time>2026-04-19T13:19:58Z</time></trkpt><trkpt lat="43.02251664944944" lon="12.75274317121557"><ele>316.3333333333333</ele><time>2026-04-19T13:19:59Z</time></trkpt><trkpt lat="43.022729102039186" lon="12.752699089625603"><ele>316.0</ele><time>2026-04-19T13:20:00Z</time></trkpt><trkpt lat="43.022937532526505" lon="12.752650235990833"><ele>316.0</ele><time>2026-04-19T13:20:01Z</time></trkpt><trkpt lat="43.02314811767976" lon="12.752598512969655"><ele>316.0</ele><time>2026-04-19T13:20:02Z</time></trkpt><trkpt lat="43.02335695987526" lon="12.75255153781701"><ele>316.0</ele><time>2026-04-19T13:20:03Z</time></trkpt><trkpt lat="43.0235653296292" lon="12.75250279726027"><ele>316.66666666666663</ele><time>2026-04-19T13:20:04Z</time></trkpt><trkpt lat="43.023778005529316" lon="12.752453070037514"><ele>317.3333333333333</ele><time>2026-04-19T13:20:05Z</time></trkpt><trkpt lat="43.023988000197754" lon="12.752413245481488"><ele>318.0</ele><time>2026-04-19T13:20:06Z</time></trkpt><trkpt lat="43.02420284172998" lon="12.75238367101811"><ele>318.0</ele><time>2026-04-19T13:20:07Z</time></trkpt><trkpt lat="43.02441461879784" lon="12.752369584309386"><ele>318.0</ele><time>2026-04-19T13:20:08Z</time></trkpt><trkpt lat="43.0246262509447" lon="12.75236813357832"><ele>318.0</ele><time>2026-04-19T13:20:09Z</time></trkpt><trkpt lat="43.024835726670155" lon="12.752379072948466"><ele>318.0</ele><time>2026-04-19T13:20:10Z</time></trkpt><trkpt lat="43.02504646159473" lon="12.752409187864535"><ele>318.0</ele><time>2026-04-19T13:20:11Z</time></trkpt><trkpt lat="43.0252557559626" lon="12.752456546838784"><ele>318.0</ele><time>2026-04-19T13:20:12Z</time></trkpt><trkpt lat="43.025462926603474" lon="12.752516293205483"><ele>318.0</ele><time>2026-04-19T13:20:13Z</time></trkpt><trkpt lat="43.02566858917075" lon="12.75258739679819"><ele>318.0</ele><time>2026-04-19T13:20:14Z</time></trkpt><trkpt lat="43.02587025747024" lon="12.752675369130857"><ele>318.0</ele><time>2026-04-19T13:20:15Z</time></trkpt><trkpt lat="43.02606857908418" lon="12.752779179615713"><ele>320.3333333333333</ele><time>2026-04-19T13:20:16Z</time></trkpt><trkpt lat="43.02626333393884" lon="12.752898271890773"><ele>322.66666666666663</ele><time>2026-04-19T13:20:17Z</time></trkpt><trkpt lat="43.026454246655696" lon="12.753027199109312"><ele>325.0</ele><time>2026-04-19T13:20:18Z</time></trkpt><trkpt lat="43.02664138900588" lon="12.753167419556044"><ele>324.66666666666663</ele><time>2026-04-19T13:20:19Z</time></trkpt><trkpt lat="43.026817617110915" lon="12.75332339515729"><ele>324.3333333333333</ele><time>2026-04-19T13:20:20Z</time></trkpt><trkpt lat="43.02699009123622" lon="12.75349343001609"><ele>324.0</ele><time>2026-04-19T13:20:21Z</time></trkpt><trkpt lat="43.02715318275901" lon="12.753678108096233"><ele>324.0</ele><time>2026-04-19T13:20:22Z</time></trkpt><trkpt lat="43.02730856221703" lon="12.753873188208797"><ele>324.0</ele><time>2026-04-19T13:20:23Z</time></trkpt><trkpt lat="43.02745939679831" lon="12.754075200391181"><ele>324.0</ele><time>2026-04-19T13:20:24Z</time></trkpt><trkpt lat="43.02760037677802" lon="12.754293167228376"><ele>324.0</ele><time>2026-04-19T13:20:25Z</time></trkpt><trkpt lat="43.02773216307298" lon="12.75451549368001"><ele>324.0</ele><time>2026-04-19T13:20:26Z</time></trkpt><trkpt lat="43.027859624354036" lon="12.754750995889447"><ele>324.0</ele><time>2026-04-19T13:20:27Z</time></trkpt><trkpt lat="43.02797647439415" lon="12.754995673742577"><ele>324.3333333333333</ele><time>2026-04-19T13:20:28Z</time></trkpt><trkpt lat="43.02808596965304" lon="12.755248483931398"><ele>324.66666666666663</ele><time>2026-04-19T13:20:29Z</time></trkpt><trkpt lat="43.02818907068412" lon="12.755502998133702"><ele>325.0</ele><time>2026-04-19T13:20:30Z</time></trkpt><trkpt lat="43.02828908190945" lon="12.755758819421535"><ele>325.0</ele><time>2026-04-19T13:20:31Z</time></trkpt><trkpt lat="43.02838819347555" lon="12.756015205647257"><ele>325.0</ele><time>2026-04-19T13:20:32Z</time></trkpt><trkpt lat="43.0284810877803" lon="12.756267712991303"><ele>325.0</ele><time>2026-04-19T13:20:33Z</time></trkpt><trkpt lat="43.02857924936382" lon="12.756525950561889"><ele>324.3333333333333</ele><time>2026-04-19T13:20:34Z</time></trkpt><trkpt lat="43.028678704203614" lon="12.756782293568971"><ele>323.6666666666667</ele><time>2026-04-19T13:20:35Z</time></trkpt><trkpt lat="43.028782592053226" lon="12.757032174398068"><ele>323.0</ele><time>2026-04-19T13:20:36Z</time></trkpt><trkpt lat="43.02889492499431" lon="12.757277264051654"><ele>323.0</ele><time>2026-04-19T13:20:37Z</time></trkpt><trkpt lat="43.02901425822164" lon="12.757520379525237"><ele>323.0</ele><time>2026-04-19T13:20:38Z</time></trkpt><trkpt lat="43.02913655509861" lon="12.75775897947953"><ele>323.0</ele><time>2026-04-19T13:20:39Z</time></trkpt><trkpt lat="43.02926400360676" lon="12.757981207941622"><ele>323.0</ele><time>2026-04-19T13:20:40Z</time></trkpt><trkpt lat="43.02941000780154" lon="12.758195746972827"><ele>323.0</ele><time>2026-04-19T13:20:41Z</time></trkpt><trkpt lat="43.02956338356663" lon="12.75839634841619"><ele>323.0</ele><time>2026-04-19T13:20:42Z</time></trkpt><trkpt lat="43.0297236531415" lon="12.758580181440031"><ele>323.0</ele><time>2026-04-19T13:20:43Z</time></trkpt><trkpt lat="43.0298947744378" lon="12.758757533026001"><ele>323.0</ele><time>2026-04-19T13:20:44Z</time></trkpt><trkpt lat="43.03007474064826" lon="12.758921336728731"><ele>323.0</ele><time>2026-04-19T13:20:45Z</time></trkpt><trkpt lat="43.03025594547297" lon="12.759066818948039"><ele>323.6666666666667</ele><time>2026-04-19T13:20:46Z</time></trkpt><trkpt lat="43.03044552821429" lon="12.75919955726794"><ele>324.3333333333333</ele><time>2026-04-19T13:20:47Z</time></trkpt><trkpt lat="43.030635423545355" lon="12.759315869206324"><ele>325.0</ele><time>2026-04-19T13:20:48Z</time></trkpt><trkpt lat="43.03083240841292" lon="12.759416378807357"><ele>325.0</ele><time>2026-04-19T13:20:49Z</time></trkpt><trkpt lat="43.03103032717334" lon="12.759496808390134"><ele>325.0</ele><time>2026-04-19T13:20:50Z</time></trkpt><trkpt lat="43.031237896890424" lon="12.759570389118622"><ele>325.0</ele><time>2026-04-19T13:20:51Z</time></trkpt><trkpt lat="43.03144128545685" lon="12.759653174388403"><ele>326.66666666666663</ele><time>2026-04-19T13:20:52Z</time></trkpt><trkpt lat="43.03164307302714" lon="12.759730490814325"><ele>328.3333333333333</ele><time>2026-04-19T13:20:53Z</time></trkpt><trkpt lat="43.03187008864364" lon="12.759676673332033"><ele>330.0</ele><time>2026-04-19T13:20:54Z</time></trkpt><trkpt lat="43.03207997807802" lon="12.759676621284742"><ele>330.0</ele><time>2026-04-19T13:20:55Z</time></trkpt><trkpt lat="43.032289727412994" lon="12.759658499549598"><ele>330.0</ele><time>2026-04-19T13:20:56Z</time></trkpt><trkpt lat="43.0325012634179" lon="12.75962835343144"><ele>330.0</ele><time>2026-04-19T13:20:57Z</time></trkpt><trkpt lat="43.03270843396155" lon="12.759573694484347"><ele>329.6666666666667</ele><time>2026-04-19T13:20:58Z</time></trkpt><trkpt lat="43.03291101011755" lon="12.759502633913511"><ele>329.33333333333337</ele><time>2026-04-19T13:20:59Z</time></trkpt><trkpt lat="43.03311822754243" lon="12.759421285908218"><ele>329.0</ele><time>2026-04-19T13:21:00Z</time></trkpt><trkpt lat="43.03331966585782" lon="12.75932519142185"><ele>330.33333333333337</ele><time>2026-04-19T13:21:01Z</time></trkpt><trkpt lat="43.03351195648641" lon="12.759211286282858"><ele>331.6666666666667</ele><time>2026-04-19T13:21:02Z</time></trkpt><trkpt lat="43.03370235683228" lon="12.759081950660743"><ele>333.0</ele><time>2026-04-19T13:21:03Z</time></trkpt><trkpt lat="43.03388070320597" lon="12.758934028178961"><ele>333.0</ele><time>2026-04-19T13:21:03.999Z</time></trkpt><trkpt lat="43.034058885459324" lon="12.758781993967554"><ele>333.0</ele><time>2026-04-19T13:21:04.999Z</time></trkpt><trkpt lat="43.034237080933174" lon="12.75862065268357"><ele>333.0</ele><time>2026-04-19T13:21:05.999Z</time></trkpt><trkpt lat="43.03441160432454" lon="12.758453560125359"><ele>336.6666666666667</ele><time>2026-04-19T13:21:06.999Z</time></trkpt><trkpt lat="43.034581074419016" lon="12.758287559501541"><ele>340.33333333333337</ele><time>2026-04-19T13:21:07.999Z</time></trkpt><trkpt lat="43.03475140750633" lon="12.75811950776604"><ele>344.0</ele><time>2026-04-19T13:21:08.999Z</time></trkpt><trkpt lat="43.03492022730921" lon="12.757950144715018"><ele>346.33333333333337</ele><time>2026-04-19T13:21:09.999Z</time></trkpt><trkpt lat="43.03509074154845" lon="12.757784708052467"><ele>348.6666666666667</ele><time>2026-04-19T13:21:10.999Z</time></trkpt><trkpt lat="43.035259896861966" lon="12.757632406699997"><ele>351.0</ele><time>2026-04-19T13:21:11.999Z</time></trkpt><trkpt lat="43.03543671248279" lon="12.757459683748644"><ele>351.0</ele><time>2026-04-19T13:21:12.999Z</time></trkpt><trkpt lat="43.03561697147439" lon="12.757311194262224"><ele>351.0</ele><time>2026-04-19T13:21:13.999Z</time></trkpt><trkpt lat="43.03580702812734" lon="12.757173223186172"><ele>351.0</ele><time>2026-04-19T13:21:14.999Z</time></trkpt><trkpt lat="43.03600607567329" lon="12.757053390915633"><ele>350.3333333333333</ele><time>2026-04-19T13:21:15.999Z</time></trkpt><trkpt lat="43.036206379050086" lon="12.756948963670931"><ele>349.66666666666663</ele><time>2026-04-19T13:21:16.999Z</time></trkpt><trkpt lat="43.03641898287149" lon="12.756859201503868"><ele>349.0</ele><time>2026-04-19T13:21:17.999Z</time></trkpt><trkpt lat="43.036640760659175" lon="12.756786391430884"><ele>348.3333333333333</ele><time>2026-04-19T13:21:18.999Z</time></trkpt><trkpt lat="43.03686889506943" lon="12.756722341494845"><ele>347.6666666666667</ele><time>2026-04-19T13:21:19.999Z</time></trkpt><trkpt lat="43.03703992415482" lon="12.756718557203714"><ele>347.0</ele><time>2026-04-19T13:21:20.999Z</time></trkpt><trkpt lat="43.037249387489965" lon="12.756681176074679"><ele>347.0</ele><time>2026-04-19T13:21:21.999Z</time></trkpt><trkpt lat="43.03745729402197" lon="12.756650027382214"><ele>347.0</ele><time>2026-04-19T13:21:22.999Z</time></trkpt><trkpt lat="43.03766407108539" lon="12.756614301727103"><ele>347.0</ele><time>2026-04-19T13:21:23.999Z</time></trkpt><trkpt lat="43.037877667619235" lon="12.756580410583398"><ele>346.6666666666667</ele><time>2026-04-19T13:21:24.999Z</time></trkpt><trkpt lat="43.03808590374369" lon="12.756548695526277"><ele>346.3333333333333</ele><time>2026-04-19T13:21:25.999Z</time></trkpt><trkpt lat="43.03829598764905" lon="12.75651799525447"><ele>346.0</ele><time>2026-04-19T13:21:26.999Z</time></trkpt><trkpt lat="43.03850229926034" lon="12.756483926221916"><ele>344.0</ele><time>2026-04-19T13:21:27.999Z</time></trkpt><trkpt lat="43.03870909350459" lon="12.756457179326727"><ele>342.0</ele><time>2026-04-19T13:21:28.999Z</time></trkpt><trkpt lat="43.03891736753611" lon="12.756428765096924"><ele>340.0</ele><time>2026-04-19T13:21:29.999Z</time></trkpt><trkpt lat="43.03913028800598" lon="12.756400896928428"><ele>340.0</ele><time>2026-04-19T13:21:30.999Z</time></trkpt><trkpt lat="43.03934165338847" lon="12.75637678051643"><ele>340.0</ele><time>2026-04-19T13:21:31.999Z</time></trkpt><trkpt lat="43.039551431289745" lon="12.7563497463594"><ele>340.0</ele><time>2026-04-19T13:21:32.999Z</time></trkpt><trkpt lat="43.03976420685879" lon="12.756321483304479"><ele>345.3333333333333</ele><time>2026-04-19T13:21:33.999Z</time></trkpt><trkpt lat="43.0399739472255" lon="12.756292862045907"><ele>350.6666666666667</ele><time>2026-04-19T13:21:34.999Z</time></trkpt><trkpt lat="43.04018334841533" lon="12.756265561204478"><ele>356.0</ele><time>2026-04-19T13:21:35.999Z</time></trkpt><trkpt lat="43.04038754469351" lon="12.756244671344861"><ele>356.0</ele><time>2026-04-19T13:21:36.999Z</time></trkpt><trkpt lat="43.04058716787566" lon="12.756229416430122"><ele>356.0</ele><time>2026-04-19T13:21:37.999Z</time></trkpt><trkpt lat="43.040792013486836" lon="12.756216105801496"><ele>356.0</ele><time>2026-04-19T13:21:38.999Z</time></trkpt><trkpt lat="43.04098332335096" lon="12.756209837505862"><ele>362.33333333333337</ele><time>2026-04-19T13:21:39.999Z</time></trkpt><trkpt lat="43.04116909668488" lon="12.756209262271284"><ele>368.6666666666667</ele><time>2026-04-19T13:21:40.999Z</time></trkpt><trkpt lat="43.04134917904847" lon="12.756212076640947"><ele>375.0</ele><time>2026-04-19T13:21:41.999Z</time></trkpt><trkpt lat="43.041526077743804" lon="12.75622055575083"><ele>373.0</ele><time>2026-04-19T13:21:42.999Z</time></trkpt><trkpt lat="43.04186561980828" lon="12.756047124165262"><ele>371.0</ele><time>2026-04-19T13:21:43.999Z</time></trkpt><trkpt lat="43.04208711638326" lon="12.756033932396393"><ele>367.6666666666667</ele><time>2026-04-19T13:21:44.999Z</time></trkpt><trkpt lat="43.0422981483618" lon="12.756023389296663"><ele>364.3333333333333</ele><time>2026-04-19T13:21:45.999Z</time></trkpt><trkpt lat="43.04251462714484" lon="12.756019074625511"><ele>361.0</ele><time>2026-04-19T13:21:46.999Z</time></trkpt><trkpt lat="43.042726280658215" lon="12.756013542101213"><ele>361.3333333333333</ele><time>2026-04-19T13:21:47.999Z</time></trkpt><trkpt lat="43.04295378896359" lon="12.75601600620161"><ele>361.6666666666667</ele><time>2026-04-19T13:21:48.999Z</time></trkpt><trkpt lat="43.043154031280096" lon="12.756029022533818"><ele>362.0</ele><time>2026-04-19T13:21:49.999Z</time></trkpt><trkpt lat="43.04336339247786" lon="12.756051281822128"><ele>362.0</ele><time>2026-04-19T13:21:50.999Z</time></trkpt><trkpt lat="43.04356885223364" lon="12.7560791633553"><ele>362.0</ele><time>2026-04-19T13:21:51.999Z</time></trkpt><trkpt lat="43.04377877418372" lon="12.7561160468911"><ele>362.0</ele><time>2026-04-19T13:21:52.999Z</time></trkpt><trkpt lat="43.043989679287186" lon="12.756148446641088"><ele>358.33333333333337</ele><time>2026-04-19T13:21:53.999Z</time></trkpt><trkpt lat="43.04420180545409" lon="12.756175699765794"><ele>354.6666666666667</ele><time>2026-04-19T13:21:54.999Z</time></trkpt><trkpt lat="43.04441386649561" lon="12.75620763237637"><ele>351.0</ele><time>2026-04-19T13:21:55.999Z</time></trkpt><trkpt lat="43.044624984234076" lon="12.756240149879666"><ele>351.0</ele><time>2026-04-19T13:21:57Z</time></trkpt><trkpt lat="43.044839327860146" lon="12.756273452137515"><ele>351.0</ele><time>2026-04-19T13:21:58Z</time></trkpt><trkpt lat="43.045049089499116" lon="12.756296925780834"><ele>351.0</ele><time>2026-04-19T13:21:59Z</time></trkpt><trkpt lat="43.045258375092196" lon="12.75632738871425"><ele>349.6666666666667</ele><time>2026-04-19T13:22:00Z</time></trkpt><trkpt lat="43.04547399474969" lon="12.756352490919147"><ele>348.33333333333337</ele><time>2026-04-19T13:22:01Z</time></trkpt><trkpt lat="43.04568792872043" lon="12.756377778860381"><ele>347.0</ele><time>2026-04-19T13:22:02Z</time></trkpt><trkpt lat="43.04589985198707" lon="12.756410250813955"><ele>347.0</ele><time>2026-04-19T13:22:03Z</time></trkpt><trkpt lat="43.046109613681615" lon="12.756442753758703"><ele>347.0</ele><time>2026-04-19T13:22:04Z</time></trkpt><trkpt lat="43.0463204868485" lon="12.756476971217856"><ele>347.0</ele><time>2026-04-19T13:22:05Z</time></trkpt><trkpt lat="43.04652905529632" lon="12.756506787631823"><ele>347.6666666666667</ele><time>2026-04-19T13:22:06Z</time></trkpt><trkpt lat="43.04673657895726" lon="12.756532240774625"><ele>348.3333333333333</ele><time>2026-04-19T13:22:07Z</time></trkpt><trkpt lat="43.04694743309279" lon="12.756562853265624"><ele>349.0</ele><time>2026-04-19T13:22:08Z</time></trkpt><trkpt lat="43.04716080949902" lon="12.756599186987764"><ele>349.0</ele><time>2026-04-19T13:22:09Z</time></trkpt><trkpt lat="43.047373084240384" lon="12.756632419512322"><ele>349.0</ele><time>2026-04-19T13:22:10Z</time></trkpt><trkpt lat="43.04758401667742" lon="12.75666245310655"><ele>349.0</ele><time>2026-04-19T13:22:11Z</time></trkpt><trkpt lat="43.047793183291276" lon="12.75669121765747"><ele>350.0</ele><time>2026-04-19T13:22:12Z</time></trkpt><trkpt lat="43.04800001366265" lon="12.756720150289919"><ele>351.0</ele><time>2026-04-19T13:22:13Z</time></trkpt><trkpt lat="43.04821245978197" lon="12.756759484725992"><ele>352.0</ele><time>2026-04-19T13:22:14Z</time></trkpt><trkpt lat="43.04842247336691" lon="12.756793618388297"><ele>353.0</ele><time>2026-04-19T13:22:15Z</time></trkpt><trkpt lat="43.04862884662506" lon="12.756820990970374"><ele>354.0</ele><time>2026-04-19T13:22:16Z</time></trkpt><trkpt lat="43.048837322819935" lon="12.756847499125554"><ele>355.0</ele><time>2026-04-19T13:22:17Z</time></trkpt><trkpt lat="43.049046354033685" lon="12.756874326265883"><ele>359.3333333333333</ele><time>2026-04-19T13:22:18Z</time></trkpt><trkpt lat="43.04925922658947" lon="12.75690783686142"><ele>363.6666666666667</ele><time>2026-04-19T13:22:19Z</time></trkpt><trkpt lat="43.0494690942907" lon="12.756940240308346"><ele>368.0</ele><time>2026-04-19T13:22:20Z</time></trkpt><trkpt lat="43.04968076209755" lon="12.756971418811457"><ele>368.0</ele><time>2026-04-19T13:22:21Z</time></trkpt><trkpt lat="43.0498898077931" lon="12.756999761101993"><ele>368.0</ele><time>2026-04-19T13:22:22Z</time></trkpt><trkpt lat="43.05010246891936" lon="12.757030432378683"><ele>368.0</ele><time>2026-04-19T13:22:23Z</time></trkpt><trkpt lat="43.05031009061163" lon="12.757057491713656"><ele>365.6666666666667</ele><time>2026-04-19T13:22:24Z</time></trkpt><trkpt lat="43.050521135079705" lon="12.75709106677785"><ele>363.3333333333333</ele><time>2026-04-19T13:22:25Z</time></trkpt><trkpt lat="43.050731476582556" lon="12.757128431191067"><ele>361.0</ele><time>2026-04-19T13:22:26Z</time></trkpt><trkpt lat="43.05094854074418" lon="12.757164768794555"><ele>360.66666666666663</ele><time>2026-04-19T13:22:27Z</time></trkpt><trkpt lat="43.05115652036776" lon="12.757189299634"><ele>360.3333333333333</ele><time>2026-04-19T13:22:28Z</time></trkpt><trkpt lat="43.05136437353916" lon="12.757214213199685"><ele>360.0</ele><time>2026-04-19T13:22:29Z</time></trkpt><trkpt lat="43.05157699393938" lon="12.757246426246148"><ele>359.6666666666667</ele><time>2026-04-19T13:22:30Z</time></trkpt><trkpt lat="43.05178760365263" lon="12.757276514640164"><ele>359.33333333333337</ele><time>2026-04-19T13:22:31Z</time></trkpt><trkpt lat="43.05199931788881" lon="12.757303305650996"><ele>359.0</ele><time>2026-04-19T13:22:32Z</time></trkpt><trkpt lat="43.05220787494018" lon="12.757321528897325"><ele>359.0</ele><time>2026-04-19T13:22:33Z</time></trkpt><trkpt lat="43.052419592559744" lon="12.757338466503331"><ele>359.0</ele><time>2026-04-19T13:22:34Z</time></trkpt><trkpt lat="43.052631330144" lon="12.757352680402185"><ele>359.0</ele><time>2026-04-19T13:22:35Z</time></trkpt><trkpt lat="43.05284304024971" lon="12.757366093786322"><ele>358.0</ele><time>2026-04-19T13:22:36Z</time></trkpt><trkpt lat="43.053054557899706" lon="12.75737669602635"><ele>357.0</ele><time>2026-04-19T13:22:37Z</time></trkpt><trkpt lat="43.05327989476675" lon="12.757387271922479"><ele>356.0</ele><time>2026-04-19T13:22:38Z</time></trkpt><trkpt lat="43.05348666617497" lon="12.757386227510354"><ele>356.0</ele><time>2026-04-19T13:22:39Z</time></trkpt><trkpt lat="43.053696019384844" lon="12.757379805578996"><ele>356.0</ele><time>2026-04-19T13:22:40Z</time></trkpt><trkpt lat="43.05390531114512" lon="12.757370767601742"><ele>356.0</ele><time>2026-04-19T13:22:41Z</time></trkpt><trkpt lat="43.05411778963707" lon="12.757363102901602"><ele>356.33333333333337</ele><time>2026-04-19T13:22:42Z</time></trkpt><trkpt lat="43.05433078594193" lon="12.757352478434191"><ele>356.6666666666667</ele><time>2026-04-19T13:22:43Z</time></trkpt><trkpt lat="43.054541567742696" lon="12.757338984205314"><ele>357.0</ele><time>2026-04-19T13:22:44Z</time></trkpt><trkpt lat="43.05475320625448" lon="12.757315661744116"><ele>357.0</ele><time>2026-04-19T13:22:45Z</time></trkpt><trkpt lat="43.05496394803081" lon="12.757292529933455"><ele>357.0</ele><time>2026-04-19T13:22:46Z</time></trkpt><trkpt lat="43.055174588243595" lon="12.757267971678546"><ele>357.0</ele><time>2026-04-19T13:22:47Z</time></trkpt><trkpt lat="43.055387346806675" lon="12.757241482036124"><ele>357.0</ele><time>2026-04-19T13:22:48Z</time></trkpt><trkpt lat="43.05559864905183" lon="12.757211707582233"><ele>357.0</ele><time>2026-04-19T13:22:49Z</time></trkpt><trkpt lat="43.0558059607222" lon="12.757179821922987"><ele>357.0</ele><time>2026-04-19T13:22:50Z</time></trkpt><trkpt lat="43.05601986278071" lon="12.757144357331835"><ele>360.0</ele><time>2026-04-19T13:22:51Z</time></trkpt><trkpt lat="43.056228383517706" lon="12.757110020425175"><ele>363.0</ele><time>2026-04-19T13:22:52Z</time></trkpt><trkpt lat="43.05643972463264" lon="12.757076848911586"><ele>366.0</ele><time>2026-04-19T13:22:53Z</time></trkpt><trkpt lat="43.05665154053748" lon="12.757052837175411"><ele>368.6666666666667</ele><time>2026-04-19T13:22:54Z</time></trkpt><trkpt lat="43.05686458051604" lon="12.757030218218558"><ele>371.33333333333337</ele><time>2026-04-19T13:22:55Z</time></trkpt><trkpt lat="43.05707069126205" lon="12.756999529195468"><ele>374.0</ele><time>2026-04-19T13:22:56Z</time></trkpt><trkpt lat="43.05728230238933" lon="12.75697282670535"><ele>375.6666666666667</ele><time>2026-04-19T13:22:57Z</time></trkpt><trkpt lat="43.05749276004433" lon="12.756940142124627"><ele>377.3333333333333</ele><time>2026-04-19T13:22:58Z</time></trkpt><trkpt lat="43.05770497470505" lon="12.756907586335542"><ele>379.0</ele><time>2026-04-19T13:22:59Z</time></trkpt><trkpt lat="43.05791299795398" lon="12.75688106976212"><ele>373.66666666666663</ele><time>2026-04-19T13:23:00Z</time></trkpt><trkpt lat="43.05810718285442" lon="12.756855072724559"><ele>368.3333333333333</ele><time>2026-04-19T13:23:01Z</time></trkpt><trkpt lat="43.05829129022888" lon="12.756836482722195"><ele>363.0</ele><time>2026-04-19T13:23:02Z</time></trkpt><trkpt lat="43.058462867609045" lon="12.756809216811169"><ele>363.0</ele><time>2026-04-19T13:23:03Z</time></trkpt><trkpt lat="43.05863648104863" lon="12.7567855039274"><ele>363.0</ele><time>2026-04-19T13:23:04Z</time></trkpt><trkpt lat="43.05880945656869" lon="12.75676799207379"><ele>363.0</ele><time>2026-04-19T13:23:05Z</time></trkpt><trkpt lat="43.058980306114684" lon="12.75675994759022"><ele>364.0</ele><time>2026-04-19T13:23:06Z</time></trkpt><trkpt lat="43.05914357250936" lon="12.756755248196686"><ele>365.0</ele><time>2026-04-19T13:23:07Z</time></trkpt><trkpt lat="43.05931179948494" lon="12.75675258348604"><ele>366.0</ele><time>2026-04-19T13:23:08Z</time></trkpt><trkpt lat="43.05947434788988" lon="12.756749123967824"><ele>366.0</ele><time>2026-04-19T13:23:09Z</time></trkpt><trkpt lat="43.05964155022415" lon="12.756752804956204"><ele>366.0</ele><time>2026-04-19T13:23:10Z</time></trkpt><trkpt lat="43.05980584376737" lon="12.756761934219943"><ele>366.0</ele><time>2026-04-19T13:23:11Z</time></trkpt><trkpt lat="43.05996826924821" lon="12.75678095560587"><ele>366.0</ele><time>2026-04-19T13:23:12Z</time></trkpt><trkpt lat="43.0601226184301" lon="12.756802185550171"><ele>366.0</ele><time>2026-04-19T13:23:13Z</time></trkpt><trkpt lat="43.06027476167912" lon="12.756823350080703"><ele>366.0</ele><time>2026-04-19T13:23:14Z</time></trkpt><trkpt lat="43.060419390280956" lon="12.756843161919248"><ele>366.0</ele><time>2026-04-19T13:23:15Z</time></trkpt><trkpt lat="43.06056000248488" lon="12.756859815488351"><ele>366.0</ele><time>2026-04-19T13:23:16Z</time></trkpt><trkpt lat="43.06069709572761" lon="12.756874013242959"><ele>366.0</ele><time>2026-04-19T13:23:16.999Z</time></trkpt><trkpt lat="43.06082604877014" lon="12.756887832419082"><ele>366.0</ele><time>2026-04-19T13:23:17.999Z</time></trkpt><trkpt lat="43.06095517995431" lon="12.756906073084785"><ele>368.25</ele><time>2026-04-19T13:23:18.999Z</time></trkpt><trkpt lat="43.06108357729693" lon="12.756928008675056"><ele>370.5</ele><time>2026-04-19T13:23:19.999Z</time></trkpt><trkpt lat="43.061214652358466" lon="12.756947631036237"><ele>372.75</ele><time>2026-04-19T13:23:20.999Z</time></trkpt><trkpt lat="43.06134610333024" lon="12.756962304244336"><ele>375.0</ele><time>2026-04-19T13:23:21.999Z</time></trkpt><trkpt lat="43.06147658149554" lon="12.756973819018894"><ele>375.0</ele><time>2026-04-19T13:23:22.999Z</time></trkpt><trkpt lat="43.0616074519169" lon="12.756990543191373"><ele>375.0</ele><time>2026-04-19T13:23:23.999Z</time></trkpt><trkpt lat="43.06173027632013" lon="12.757007110618973"><ele>375.0</ele><time>2026-04-19T13:23:24.999Z</time></trkpt><trkpt lat="43.06185328544956" lon="12.757023503826717"><ele>375.0</ele><time>2026-04-19T13:23:25.999Z</time></trkpt><trkpt lat="43.061976949087295" lon="12.757043199819048"><ele>375.25</ele><time>2026-04-19T13:23:26.999Z</time></trkpt><trkpt lat="43.062098851042975" lon="12.757063044656384"><ele>375.5</ele><time>2026-04-19T13:23:27.999Z</time></trkpt><trkpt lat="43.06221991385337" lon="12.757077682435977"><ele>375.75</ele><time>2026-04-19T13:23:28.999Z</time></trkpt><trkpt lat="43.062341027598" lon="12.757092888968748"><ele>376.0</ele><time>2026-04-19T13:23:29.999Z</time></trkpt><trkpt lat="43.062459664734625" lon="12.757106165747741"><ele>377.25</ele><time>2026-04-19T13:23:30.999Z</time></trkpt><trkpt lat="43.062582195581975" lon="12.757122812329659"><ele>378.5</ele><time>2026-04-19T13:23:31.999Z</time></trkpt><trkpt lat="43.062694897491745" lon="12.757140334922536"><ele>379.75</ele><time>2026-04-19T13:23:32.999Z</time></trkpt><trkpt lat="43.06280429950618" lon="12.757143338390845"><ele>381.0</ele><time>2026-04-19T13:23:33.999Z</time></trkpt><trkpt lat="43.062913789130484" lon="12.757137882598128"><ele>381.0</ele><time>2026-04-19T13:23:34.999Z</time></trkpt><trkpt lat="43.063018606325784" lon="12.757145193938188"><ele>381.0</ele><time>2026-04-19T13:23:35.999Z</time></trkpt><trkpt lat="43.06310396326938" lon="12.757151710094497"><ele>381.0</ele><time>2026-04-19T13:23:36.999Z</time></trkpt><trkpt lat="43.063172516147354" lon="12.757165033602165"><ele>381.0</ele><time>2026-04-19T13:23:37.999Z</time></trkpt><trkpt lat="43.06327318021699" lon="12.75718290150955"><ele>381.0</ele><time>2026-04-19T13:23:39.999Z</time></trkpt><trkpt lat="43.06337120506131" lon="12.757189190601082"><ele>381.4</ele><time>2026-04-19T13:23:41.999Z</time></trkpt><trkpt lat="43.063502684304744" lon="12.757207680374538"><ele>381.8</ele><time>2026-04-19T13:23:43.999Z</time></trkpt><trkpt lat="43.063576061263724" lon="12.757213822150305"><ele>382.2</ele><time>2026-04-19T13:23:44.999Z</time></trkpt><trkpt lat="43.06365801642935" lon="12.757222242904216"><ele>382.59999999999997</ele><time>2026-04-19T13:23:45.999Z</time></trkpt><trkpt lat="43.063749478143635" lon="12.757234901019153"><ele>383.0</ele><time>2026-04-19T13:23:46.999Z</time></trkpt><trkpt lat="43.063851395066756" lon="12.757252613394375"><ele>383.0</ele><time>2026-04-19T13:23:47.999Z</time></trkpt><trkpt lat="43.063948649259366" lon="12.757268044078463"><ele>383.0</ele><time>2026-04-19T13:23:48.999Z</time></trkpt><trkpt lat="43.06404872789805" lon="12.757285163553254"><ele>383.0</ele><time>2026-04-19T13:23:49.999Z</time></trkpt><trkpt lat="43.064146097539" lon="12.75730494027154"><ele>383.0</ele><time>2026-04-19T13:23:50.999Z</time></trkpt><trkpt lat="43.064240113843134" lon="12.757327749805892"><ele>383.0</ele><time>2026-04-19T13:23:51.999Z</time></trkpt><trkpt lat="43.064336220774905" lon="12.757343960806"><ele>382.0</ele><time>2026-04-19T13:23:52.999Z</time></trkpt><trkpt lat="43.06443676938529" lon="12.757366844227889"><ele>381.0</ele><time>2026-04-19T13:23:53.999Z</time></trkpt><trkpt lat="43.06453831763751" lon="12.757385788730758"><ele>380.0</ele><time>2026-04-19T13:23:54.999Z</time></trkpt><trkpt lat="43.06464105272666" lon="12.757416052622908"><ele>379.0</ele><time>2026-04-19T13:23:55.999Z</time></trkpt><trkpt lat="43.06474047940952" lon="12.757451322854221"><ele>378.0</ele><time>2026-04-19T13:23:56.999Z</time></trkpt><trkpt lat="43.06484135064553" lon="12.757491672198755"><ele>378.0</ele><time>2026-04-19T13:23:57.999Z</time></trkpt><trkpt lat="43.06493855418272" lon="12.757527193202842"><ele>378.0</ele><time>2026-04-19T13:23:58.999Z</time></trkpt><trkpt lat="43.06503498003606" lon="12.757557955813317"><ele>378.0</ele><time>2026-04-19T13:23:59.999Z</time></trkpt><trkpt lat="43.065134956825766" lon="12.75758798569405"><ele>378.0</ele><time>2026-04-19T13:24:00.999Z</time></trkpt><trkpt lat="43.06523343135713" lon="12.757620435681263"><ele>378.0</ele><time>2026-04-19T13:24:01.999Z</time></trkpt><trkpt lat="43.065339267835654" lon="12.75765348965506"><ele>376.59999999999997</ele><time>2026-04-19T13:24:03Z</time></trkpt><trkpt lat="43.065447526096776" lon="12.757687315765349"><ele>375.2</ele><time>2026-04-19T13:24:04Z</time></trkpt><trkpt lat="43.06555334112593" lon="12.757719514157072"><ele>373.8</ele><time>2026-04-19T13:24:05Z</time></trkpt><trkpt lat="43.06566377065641" lon="12.757753250707141"><ele>372.4</ele><time>2026-04-19T13:24:06Z</time></trkpt><trkpt lat="43.065775025910625" lon="12.757791518537479"><ele>371.0</ele><time>2026-04-19T13:24:07Z</time></trkpt><trkpt lat="43.06588828244625" lon="12.757832290952841"><ele>370.5</ele><time>2026-04-19T13:24:08Z</time></trkpt><trkpt lat="43.06599725331539" lon="12.757877207324187"><ele>370.0</ele><time>2026-04-19T13:24:09Z</time></trkpt><trkpt lat="43.06611244079241" lon="12.757923226656638"><ele>369.5</ele><time>2026-04-19T13:24:10Z</time></trkpt><trkpt lat="43.06622889891472" lon="12.75796726153063"><ele>369.0</ele><time>2026-04-19T13:24:11Z</time></trkpt><trkpt lat="43.06634997150187" lon="12.758012276132856"><ele>369.0</ele><time>2026-04-19T13:24:12Z</time></trkpt><trkpt lat="43.066481241735026" lon="12.758059950531766"><ele>369.0</ele><time>2026-04-19T13:24:13Z</time></trkpt><trkpt lat="43.06661259251217" lon="12.758117409766507"><ele>369.0</ele><time>2026-04-19T13:24:14Z</time></trkpt><trkpt lat="43.06675461960932" lon="12.758185842700252"><ele>369.0</ele><time>2026-04-19T13:24:15Z</time></trkpt><trkpt lat="43.06690255781181" lon="12.758261012745885"><ele>368.3333333333333</ele><time>2026-04-19T13:24:16Z</time></trkpt><trkpt lat="43.067057937008016" lon="12.758336450712449"><ele>367.66666666666663</ele><time>2026-04-19T13:24:17Z</time></trkpt><trkpt lat="43.067217666769444" lon="12.75841689944786"><ele>367.0</ele><time>2026-04-19T13:24:18Z</time></trkpt><trkpt lat="43.06738005647626" lon="12.75850110040444"><ele>367.66666666666663</ele><time>2026-04-19T13:24:19Z</time></trkpt><trkpt lat="43.067535965853466" lon="12.758593263716959"><ele>368.3333333333333</ele><time>2026-04-19T13:24:20Z</time></trkpt><trkpt lat="43.0677050366053" lon="12.758685861649155"><ele>369.0</ele><time>2026-04-19T13:24:21Z</time></trkpt><trkpt lat="43.067880260335556" lon="12.758772316791614"><ele>369.0</ele><time>2026-04-19T13:24:22Z</time></trkpt><trkpt lat="43.068060763937645" lon="12.758875084074738"><ele>369.0</ele><time>2026-04-19T13:24:23Z</time></trkpt><trkpt lat="43.068246890184426" lon="12.75898125243817"><ele>369.0</ele><time>2026-04-19T13:24:24Z</time></trkpt><trkpt lat="43.06842556163887" lon="12.75907934947543"><ele>369.3333333333333</ele><time>2026-04-19T13:24:25Z</time></trkpt><trkpt lat="43.06861110442627" lon="12.759180132227213"><ele>369.66666666666663</ele><time>2026-04-19T13:24:26Z</time></trkpt><trkpt lat="43.06880412897081" lon="12.759288784899498"><ele>370.0</ele><time>2026-04-19T13:24:27Z</time></trkpt><trkpt lat="43.069006259513124" lon="12.759402879075536"><ele>369.3333333333333</ele><time>2026-04-19T13:24:28Z</time></trkpt><trkpt lat="43.069211518796166" lon="12.759515654704895"><ele>368.6666666666667</ele><time>2026-04-19T13:24:29Z</time></trkpt><trkpt lat="43.06941692316639" lon="12.759629729564688"><ele>368.0</ele><time>2026-04-19T13:24:30Z</time></trkpt><trkpt lat="43.06962212024394" lon="12.759743125842844"><ele>368.0</ele><time>2026-04-19T13:24:31Z</time></trkpt><trkpt lat="43.06982861029996" lon="12.759858500763443"><ele>368.0</ele><time>2026-04-19T13:24:32Z</time></trkpt><trkpt lat="43.0700357995087" lon="12.759977473280681"><ele>368.0</ele><time>2026-04-19T13:24:33Z</time></trkpt><trkpt lat="43.07024002654402" lon="12.760086241670866"><ele>369.0</ele><time>2026-04-19T13:24:34Z</time></trkpt><trkpt lat="43.07043719606132" lon="12.760198619133238"><ele>370.0</ele><time>2026-04-19T13:24:35Z</time></trkpt><trkpt lat="43.07063123760526" lon="12.760309274629982"><ele>371.0</ele><time>2026-04-19T13:24:36Z</time></trkpt><trkpt lat="43.07082562682792" lon="12.760413965189061"><ele>372.33333333333337</ele><time>2026-04-19T13:24:37Z</time></trkpt><trkpt lat="43.07101911018838" lon="12.760519709805024"><ele>373.6666666666667</ele><time>2026-04-19T13:24:38Z</time></trkpt><trkpt lat="43.07121186283616" lon="12.760625027992909"><ele>375.0</ele><time>2026-04-19T13:24:39Z</time></trkpt><trkpt lat="43.07140092105022" lon="12.760724617800046"><ele>375.0</ele><time>2026-04-19T13:24:40Z</time></trkpt><trkpt lat="43.07158857014411" lon="12.760817025535006"><ele>375.0</ele><time>2026-04-19T13:24:41Z</time></trkpt><trkpt lat="43.07177514561193" lon="12.760910864995946"><ele>375.0</ele><time>2026-04-19T13:24:42Z</time></trkpt><trkpt lat="43.07196380472559" lon="12.760994471056463"><ele>376.6666666666667</ele><time>2026-04-19T13:24:43Z</time></trkpt><trkpt lat="43.072151885027814" lon="12.761073283434163"><ele>378.33333333333337</ele><time>2026-04-19T13:24:44Z</time></trkpt><trkpt lat="43.07233676539041" lon="12.76113995758747"><ele>380.0</ele><time>2026-04-19T13:24:45Z</time></trkpt><trkpt lat="43.07252812268586" lon="12.76120526624158"><ele>380.6666666666667</ele><time>2026-04-19T13:24:46Z</time></trkpt><trkpt lat="43.07272310121714" lon="12.761268234989084"><ele>381.3333333333333</ele><time>2026-04-19T13:24:47Z</time></trkpt><trkpt lat="43.072916602249165" lon="12.761325262373362"><ele>382.0</ele><time>2026-04-19T13:24:48Z</time></trkpt><trkpt lat="43.07312221173616" lon="12.76139609653541"><ele>380.66666666666663</ele><time>2026-04-19T13:24:49Z</time></trkpt><trkpt lat="43.07331716957363" lon="12.761447833039515"><ele>379.3333333333333</ele><time>2026-04-19T13:24:50Z</time></trkpt><trkpt lat="43.07352630927182" lon="12.76148931722155"><ele>378.0</ele><time>2026-04-19T13:24:51Z</time></trkpt><trkpt lat="43.07373583021789" lon="12.761533554751647"><ele>378.0</ele><time>2026-04-19T13:24:52Z</time></trkpt><trkpt lat="43.07394936622202" lon="12.761576352230932"><ele>378.0</ele><time>2026-04-19T13:24:53Z</time></trkpt><trkpt lat="43.07416309478665" lon="12.761612484521702"><ele>378.0</ele><time>2026-04-19T13:24:54Z</time></trkpt><trkpt lat="43.074380097676496" lon="12.761641722396433"><ele>377.3333333333333</ele><time>2026-04-19T13:24:55Z</time></trkpt><trkpt lat="43.074600521684246" lon="12.761662924719516"><ele>376.66666666666663</ele><time>2026-04-19T13:24:56Z</time></trkpt><trkpt lat="43.07481974005119" lon="12.7616872860985"><ele>376.0</ele><time>2026-04-19T13:24:57Z</time></trkpt><trkpt lat="43.07505278362285" lon="12.761707632106333"><ele>374.5</ele><time>2026-04-19T13:24:58Z</time></trkpt><trkpt lat="43.07529584223984" lon="12.761726856509183"><ele>373.0</ele><time>2026-04-19T13:24:59Z</time></trkpt><trkpt lat="43.075549486022254" lon="12.761751561259995"><ele>373.5</ele><time>2026-04-19T13:25:00Z</time></trkpt><trkpt lat="43.07581303306407" lon="12.761781017711247"><ele>374.0</ele><time>2026-04-19T13:25:01Z</time></trkpt><trkpt lat="43.076087737914335" lon="12.761812353145249"><ele>374.0</ele><time>2026-04-19T13:25:02Z</time></trkpt><trkpt lat="43.076368478584556" lon="12.761843100037478"><ele>374.0</ele><time>2026-04-19T13:25:03Z</time></trkpt><trkpt lat="43.0766435278746" lon="12.761896623503006"><ele>373.5</ele><time>2026-04-19T13:25:04Z</time></trkpt><trkpt lat="43.07690883256329" lon="12.761906078686524"><ele>373.0</ele><time>2026-04-19T13:25:05Z</time></trkpt><trkpt lat="43.07716625257253" lon="12.761948064401773"><ele>373.0</ele><time>2026-04-19T13:25:06Z</time></trkpt><trkpt lat="43.077415687520364" lon="12.76199464999762"><ele>373.0</ele><time>2026-04-19T13:25:07Z</time></trkpt><trkpt lat="43.07766642825874" lon="12.762039375197062"><ele>373.5</ele><time>2026-04-19T13:25:08Z</time></trkpt><trkpt lat="43.07791020166411" lon="12.762086529206286"><ele>374.0</ele><time>2026-04-19T13:25:09Z</time></trkpt><trkpt lat="43.07814979828051" lon="12.762136273077408"><ele>375.0</ele><time>2026-04-19T13:25:10Z</time></trkpt><trkpt lat="43.07838752962689" lon="12.762188193356906"><ele>376.0</ele><time>2026-04-19T13:25:11Z</time></trkpt><trkpt lat="43.07862065998281" lon="12.762241080527811"><ele>376.0</ele><time>2026-04-19T13:25:12Z</time></trkpt><trkpt lat="43.07885259523871" lon="12.762292608428844"><ele>376.0</ele><time>2026-04-19T13:25:13Z</time></trkpt><trkpt lat="43.07908076394994" lon="12.762344953193402"><ele>376.0</ele><time>2026-04-19T13:25:14Z</time></trkpt><trkpt lat="43.07930622748296" lon="12.76239681026788"><ele>376.0</ele><time>2026-04-19T13:25:15Z</time></trkpt><trkpt lat="43.07953198681813" lon="12.762448685063125"><ele>376.0</ele><time>2026-04-19T13:25:16Z</time></trkpt><trkpt lat="43.07975931545038" lon="12.76250094528358"><ele>376.0</ele><time>2026-04-19T13:25:17Z</time></trkpt><trkpt lat="43.07998286838521" lon="12.762554730951457"><ele>378.0</ele><time>2026-04-19T13:25:18Z</time></trkpt><trkpt lat="43.08020923744999" lon="12.762610072805456"><ele>380.0</ele><time>2026-04-19T13:25:19Z</time></trkpt><trkpt lat="43.08042905117243" lon="12.762669611549972"><ele>378.5</ele><time>2026-04-19T13:25:20Z</time></trkpt><trkpt lat="43.08065455919031" lon="12.762723467589563"><ele>377.0</ele><time>2026-04-19T13:25:21Z</time></trkpt><trkpt lat="43.08087556567951" lon="12.762776490678235"><ele>377.0</ele><time>2026-04-19T13:25:22Z</time></trkpt><trkpt lat="43.081099792482576" lon="12.762831400823764"><ele>377.0</ele><time>2026-04-19T13:25:22.999Z</time></trkpt><trkpt lat="43.08131658588174" lon="12.762887161168017"><ele>377.0</ele><time>2026-04-19T13:25:23.999Z</time></trkpt><trkpt lat="43.08153436254525" lon="12.762943225105726"><ele>378.33333333333337</ele><time>2026-04-19T13:25:24.999Z</time></trkpt><trkpt lat="43.08174968672503" lon="12.762998052450115"><ele>379.6666666666667</ele><time>2026-04-19T13:25:25.999Z</time></trkpt><trkpt lat="43.0819630070224" lon="12.763051203615342"><ele>381.0</ele><time>2026-04-19T13:25:26.999Z</time></trkpt><trkpt lat="43.082178166399345" lon="12.763099816757002"><ele>381.0</ele><time>2026-04-19T13:25:27.999Z</time></trkpt><trkpt lat="43.08238878692677" lon="12.763141608015422"><ele>381.0</ele><time>2026-04-19T13:25:28.999Z</time></trkpt><trkpt lat="43.082592586704806" lon="12.763180362837604"><ele>381.0</ele><time>2026-04-19T13:25:29.999Z</time></trkpt><trkpt lat="43.08279870472154" lon="12.76321245545192"><ele>381.0</ele><time>2026-04-19T13:25:30.999Z</time></trkpt><trkpt lat="43.08300233851763" lon="12.763237989189667"><ele>381.0</ele><time>2026-04-19T13:25:31.999Z</time></trkpt><trkpt lat="43.083207740194695" lon="12.763257233470597"><ele>381.0</ele><time>2026-04-19T13:25:32.999Z</time></trkpt><trkpt lat="43.08341539472735" lon="12.763275766774479"><ele>382.33333333333337</ele><time>2026-04-19T13:25:33.999Z</time></trkpt><trkpt lat="43.08362611628752" lon="12.763286251919435"><ele>383.6666666666667</ele><time>2026-04-19T13:25:34.999Z</time></trkpt><trkpt lat="43.08383766151066" lon="12.763287177046715"><ele>385.0</ele><time>2026-04-19T13:25:35.999Z</time></trkpt><trkpt lat="43.084054668892605" lon="12.763285037332809"><ele>388.0</ele><time>2026-04-19T13:25:36.999Z</time></trkpt><trkpt lat="43.084275894649444" lon="12.763273575354948"><ele>391.0</ele><time>2026-04-19T13:25:37.999Z</time></trkpt><trkpt lat="43.08449753052004" lon="12.76327211267224"><ele>394.0</ele><time>2026-04-19T13:25:38.999Z</time></trkpt><trkpt lat="43.08472196333805" lon="12.763267589685679"><ele>396.5</ele><time>2026-04-19T13:25:39.999Z</time></trkpt><trkpt lat="43.08494733597723" lon="12.763260555580214"><ele>399.0</ele><time>2026-04-19T13:25:40.999Z</time></trkpt><trkpt lat="43.0851723541491" lon="12.763251037523265"><ele>399.0</ele><time>2026-04-19T13:25:41.999Z</time></trkpt><trkpt lat="43.085385066019505" lon="12.763247207789293"><ele>399.0</ele><time>2026-04-19T13:25:42.999Z</time></trkpt><trkpt lat="43.08559967700168" lon="12.763245158124837"><ele>399.0</ele><time>2026-04-19T13:25:43.999Z</time></trkpt><trkpt lat="43.08582635287361" lon="12.763258329646126"><ele>395.0</ele><time>2026-04-19T13:25:44.999Z</time></trkpt><trkpt lat="43.086086230042454" lon="12.763215294802237"><ele>391.0</ele><time>2026-04-19T13:25:45.999Z</time></trkpt><trkpt lat="43.0863278347682" lon="12.76319683154781"><ele>391.0</ele><time>2026-04-19T13:25:46.999Z</time></trkpt><trkpt lat="43.08656485717839" lon="12.763185089833428"><ele>391.0</ele><time>2026-04-19T13:25:47.999Z</time></trkpt><trkpt lat="43.08680178723351" lon="12.763171563746095"><ele>387.5</ele><time>2026-04-19T13:25:48.999Z</time></trkpt><trkpt lat="43.08703674023442" lon="12.763159952110883"><ele>384.0</ele><time>2026-04-19T13:25:49.999Z</time></trkpt><trkpt lat="43.087268476919284" lon="12.763147644443247"><ele>383.5</ele><time>2026-04-19T13:25:50.999Z</time></trkpt><trkpt lat="43.08750878504819" lon="12.763126531480834"><ele>383.0</ele><time>2026-04-19T13:25:51.999Z</time></trkpt><trkpt lat="43.08774229810869" lon="12.763112715934103"><ele>383.0</ele><time>2026-04-19T13:25:52.999Z</time></trkpt><trkpt lat="43.08797849118381" lon="12.76309459007974"><ele>383.0</ele><time>2026-04-19T13:25:53.999Z</time></trkpt><trkpt lat="43.08821238133352" lon="12.763077069799552"><ele>386.0</ele><time>2026-04-19T13:25:54.999Z</time></trkpt><trkpt lat="43.088447922061725" lon="12.763058319861548"><ele>389.0</ele><time>2026-04-19T13:25:55.999Z</time></trkpt><trkpt lat="43.088685373808424" lon="12.763041824162778"><ele>389.0</ele><time>2026-04-19T13:25:56.999Z</time></trkpt><trkpt lat="43.088922397759255" lon="12.763029301810866"><ele>389.0</ele><time>2026-04-19T13:25:57.999Z</time></trkpt><trkpt lat="43.089158944659445" lon="12.763013579697017"><ele>389.5</ele><time>2026-04-19T13:25:58.999Z</time></trkpt><trkpt lat="43.089395899354344" lon="12.763006173905401"><ele>390.0</ele><time>2026-04-19T13:25:59.999Z</time></trkpt><trkpt lat="43.089621691506274" lon="12.763006027574832"><ele>390.0</ele><time>2026-04-19T13:26:00.999Z</time></trkpt><trkpt lat="43.089830725013094" lon="12.763025975072958"><ele>390.0</ele><time>2026-04-19T13:26:01.999Z</time></trkpt><trkpt lat="43.090032495034485" lon="12.763055541156213"><ele>390.0</ele><time>2026-04-19T13:26:02.999Z</time></trkpt><trkpt lat="43.090230268175034" lon="12.763089304592011"><ele>390.0</ele><time>2026-04-19T13:26:03.999Z</time></trkpt><trkpt lat="43.09042236303632" lon="12.763129455656557"><ele>390.0</ele><time>2026-04-19T13:26:04.999Z</time></trkpt><trkpt lat="43.090611672566176" lon="12.76318976565498"><ele>390.0</ele><time>2026-04-19T13:26:05.999Z</time></trkpt><trkpt lat="43.09079636552687" lon="12.763264770093159"><ele>389.66666666666663</ele><time>2026-04-19T13:26:06.999Z</time></trkpt><trkpt lat="43.090978495578504" lon="12.76334610239228"><ele>389.3333333333333</ele><time>2026-04-19T13:26:07.999Z</time></trkpt><trkpt lat="43.09116110961467" lon="12.76342811860581"><ele>389.0</ele><time>2026-04-19T13:26:09Z</time></trkpt><trkpt lat="43.09134429249434" lon="12.763512286943007"><ele>388.0</ele><time>2026-04-19T13:26:10Z</time></trkpt><trkpt lat="43.09152424719269" lon="12.763609170888214"><ele>387.0</ele><time>2026-04-19T13:26:11Z</time></trkpt><trkpt lat="43.09169632689728" lon="12.76372715083303"><ele>386.0</ele><time>2026-04-19T13:26:12Z</time></trkpt><trkpt lat="43.091865724162275" lon="12.76385380526383"><ele>385.66666666666663</ele><time>2026-04-19T13:26:13Z</time></trkpt><trkpt lat="43.092037117605116" lon="12.763990732314968"><ele>385.33333333333337</ele><time>2026-04-19T13:26:14Z</time></trkpt><trkpt lat="43.09220489671172" lon="12.764141626118905"><ele>385.0</ele><time>2026-04-19T13:26:15Z</time></trkpt><trkpt lat="43.09237036078207" lon="12.764301896642467"><ele>385.6666666666667</ele><time>2026-04-19T13:26:16Z</time></trkpt><trkpt lat="43.092532287643365" lon="12.7644715326153"><ele>386.33333333333337</ele><time>2026-04-19T13:26:17Z</time></trkpt><trkpt lat="43.09268843088201" lon="12.764652987254143"><ele>387.0</ele><time>2026-04-19T13:26:18Z</time></trkpt><trkpt lat="43.09283968149487" lon="12.764845999843462"><ele>387.0</ele><time>2026-04-19T13:26:19Z</time></trkpt><trkpt lat="43.092988675194086" lon="12.765042712179682"><ele>387.0</ele><time>2026-04-19T13:26:20Z</time></trkpt><trkpt lat="43.09313649511035" lon="12.765242659451872"><ele>387.0</ele><time>2026-04-19T13:26:21Z</time></trkpt><trkpt lat="43.093289121555785" lon="12.765439959883466"><ele>387.66666666666663</ele><time>2026-04-19T13:26:22Z</time></trkpt><trkpt lat="43.09343248056623" lon="12.765641214040576"><ele>388.3333333333333</ele><time>2026-04-19T13:26:23Z</time></trkpt><trkpt lat="43.09357334307585" lon="12.765852714739946"><ele>389.0</ele><time>2026-04-19T13:26:24Z</time></trkpt><trkpt lat="43.093721558296004" lon="12.766060921370073"><ele>388.66666666666663</ele><time>2026-04-19T13:26:25Z</time></trkpt><trkpt lat="43.09387241356083" lon="12.766273186635559"><ele>388.33333333333337</ele><time>2026-04-19T13:26:26Z</time></trkpt><trkpt lat="43.09402211208172" lon="12.76648972514059"><ele>388.0</ele><time>2026-04-19T13:26:27Z</time></trkpt><trkpt lat="43.094169013232055" lon="12.766704500530132"><ele>388.33333333333337</ele><time>2026-04-19T13:26:28Z</time></trkpt><trkpt lat="43.09431543251142" lon="12.766920327247707"><ele>388.66666666666663</ele><time>2026-04-19T13:26:29Z</time></trkpt><trkpt lat="43.094462568769806" lon="12.767138203291827"><ele>389.0</ele><time>2026-04-19T13:26:30Z</time></trkpt><trkpt lat="43.09461158276687" lon="12.767354127627545"><ele>389.0</ele><time>2026-04-19T13:26:31Z</time></trkpt><trkpt lat="43.094764549552714" lon="12.767571711564177"><ele>389.0</ele><time>2026-04-19T13:26:32Z</time></trkpt><trkpt lat="43.094915608204744" lon="12.767782070682484"><ele>389.0</ele><time>2026-04-19T13:26:33Z</time></trkpt><trkpt lat="43.09506728215164" lon="12.767996357335118"><ele>391.3333333333333</ele><time>2026-04-19T13:26:34Z</time></trkpt><trkpt lat="43.09521733520947" lon="12.768209292811099"><ele>393.66666666666663</ele><time>2026-04-19T13:26:35Z</time></trkpt><trkpt lat="43.09536587953329" lon="12.768424014890037"><ele>396.0</ele><time>2026-04-19T13:26:36Z</time></trkpt><trkpt lat="43.09551604935546" lon="12.768635339510181"><ele>399.33333333333337</ele><time>2026-04-19T13:26:37Z</time></trkpt><trkpt lat="43.09566396082653" lon="12.768846969464468"><ele>402.6666666666667</ele><time>2026-04-19T13:26:38Z</time></trkpt><trkpt lat="43.0958121256498" lon="12.769058504744804"><ele>406.0</ele><time>2026-04-19T13:26:39Z</time></trkpt><trkpt lat="43.095959484318215" lon="12.769268440652162"><ele>412.0</ele><time>2026-04-19T13:26:40Z</time></trkpt><trkpt lat="43.096109485591484" lon="12.769482457446594"><ele>418.0</ele><time>2026-04-19T13:26:41Z</time></trkpt><trkpt lat="43.09626330823644" lon="12.76969634072432"><ele>424.0</ele><time>2026-04-19T13:26:42Z</time></trkpt><trkpt lat="43.0964181644786" lon="12.769915655120721"><ele>424.0</ele><time>2026-04-19T13:26:43Z</time></trkpt><trkpt lat="43.096573322198545" lon="12.770136091629174"><ele>424.0</ele><time>2026-04-19T13:26:44Z</time></trkpt><trkpt lat="43.09672826866054" lon="12.770355554796751"><ele>424.0</ele><time>2026-04-19T13:26:45Z</time></trkpt><trkpt lat="43.09688251567323" lon="12.77057666511979"><ele>421.5</ele><time>2026-04-19T13:26:46Z</time></trkpt><trkpt lat="43.09703576962737" lon="12.770801687945022"><ele>419.0</ele><time>2026-04-19T13:26:47Z</time></trkpt><trkpt lat="43.09720383895121" lon="12.771045768044603"><ele>419.0</ele><time>2026-04-19T13:26:48.077Z</time></trkpt><trkpt lat="43.097360947635586" lon="12.771270182441725"><ele>419.0</ele><time>2026-04-19T13:26:49.074Z</time></trkpt><trkpt lat="43.09751646210462" lon="12.771488341085659"><ele>419.0</ele><time>2026-04-19T13:26:50.064Z</time></trkpt><trkpt lat="43.09767085976358" lon="12.771702094037085"><ele>419.0</ele><time>2026-04-19T13:26:51.059Z</time></trkpt><trkpt lat="43.09780739984556" lon="12.771919065315089"><ele>419.0</ele><time>2026-04-19T13:26:52.054Z</time></trkpt><trkpt lat="43.097957103035455" lon="12.77213495351192"><ele>419.5</ele><time>2026-04-19T13:26:53.03Z</time></trkpt><trkpt lat="43.09824416983019" lon="12.772542238246617"><ele>420.0</ele><time>2026-04-19T13:26:55Z</time></trkpt><trkpt lat="43.09840829003935" lon="12.772758870566513"><ele>420.0</ele><time>2026-04-19T13:26:56Z</time></trkpt><trkpt lat="43.09855459582901" lon="12.77298549552747"><ele>420.0</ele><time>2026-04-19T13:26:57Z</time></trkpt><trkpt lat="43.09870745060782" lon="12.773199919515497"><ele>420.0</ele><time>2026-04-19T13:26:58Z</time></trkpt><trkpt lat="43.098862171978965" lon="12.773416024765144"><ele>416.0</ele><time>2026-04-19T13:26:59Z</time></trkpt><trkpt lat="43.09902778967595" lon="12.77363945507225"><ele>412.0</ele><time>2026-04-19T13:27:00Z</time></trkpt><trkpt lat="43.09918984444569" lon="12.773861426460595"><ele>412.0</ele><time>2026-04-19T13:27:01Z</time></trkpt><trkpt lat="43.09935270368684" lon="12.774075289701814"><ele>412.0</ele><time>2026-04-19T13:27:02Z</time></trkpt><trkpt lat="43.09951701203772" lon="12.774285617293701"><ele>414.5</ele><time>2026-04-19T13:27:03Z</time></trkpt><trkpt lat="43.09968467450751" lon="12.77449345851837"><ele>417.0</ele><time>2026-04-19T13:27:04Z</time></trkpt><trkpt lat="43.09985214004489" lon="12.774699591341584"><ele>416.0</ele><time>2026-04-19T13:27:05Z</time></trkpt><trkpt lat="43.10002573498234" lon="12.774904091053639"><ele>415.0</ele><time>2026-04-19T13:27:06Z</time></trkpt><trkpt lat="43.10020000403263" lon="12.775095263180784"><ele>411.33333333333337</ele><time>2026-04-19T13:27:07Z</time></trkpt><trkpt lat="43.100371707417246" lon="12.77527659974437"><ele>407.66666666666663</ele><time>2026-04-19T13:27:08Z</time></trkpt><trkpt lat="43.10054839351172" lon="12.775447459613035"><ele>404.0</ele><time>2026-04-19T13:27:09Z</time></trkpt><trkpt lat="43.10073031666341" lon="12.775608942741584"><ele>405.0</ele><time>2026-04-19T13:27:10Z</time></trkpt><trkpt lat="43.10089815616053" lon="12.77579627337064"><ele>406.0</ele><time>2026-04-19T13:27:11Z</time></trkpt><trkpt lat="43.10106864851483" lon="12.775947840331044"><ele>407.0</ele><time>2026-04-19T13:27:12Z</time></trkpt><trkpt lat="43.101233061211715" lon="12.776107781058823"><ele>407.0</ele><time>2026-04-19T13:27:13Z</time></trkpt><trkpt lat="43.10138633416725" lon="12.776238604928016"><ele>407.0</ele><time>2026-04-19T13:27:14Z</time></trkpt><trkpt lat="43.1015357655344" lon="12.77636172900791"><ele>407.0</ele><time>2026-04-19T13:27:15Z</time></trkpt><trkpt lat="43.10168748130223" lon="12.776481121551896"><ele>410.0</ele><time>2026-04-19T13:27:16Z</time></trkpt><trkpt lat="43.10183752540043" lon="12.77658895426764"><ele>413.0</ele><time>2026-04-19T13:27:17Z</time></trkpt><trkpt lat="43.10198560259296" lon="12.776699010139131"><ele>416.0</ele><time>2026-04-19T13:27:18Z</time></trkpt><trkpt lat="43.1021336533368" lon="12.776809617798028"><ele>413.3333333333333</ele><time>2026-04-19T13:27:19Z</time></trkpt><trkpt lat="43.10228188265709" lon="12.776915127224749"><ele>410.66666666666663</ele><time>2026-04-19T13:27:20Z</time></trkpt><trkpt lat="43.102430216327356" lon="12.7770112199077"><ele>408.0</ele><time>2026-04-19T13:27:21Z</time></trkpt><trkpt lat="43.10258162020694" lon="12.777100464217002"><ele>414.0</ele><time>2026-04-19T13:27:22Z</time></trkpt><trkpt lat="43.10273491845256" lon="12.777186844477749"><ele>420.0</ele><time>2026-04-19T13:27:23Z</time></trkpt><trkpt lat="43.10288915934984" lon="12.77727395836653"><ele>426.0</ele><time>2026-04-19T13:27:24Z</time></trkpt><trkpt lat="43.10304501743865" lon="12.777359240403822"><ele>426.0</ele><time>2026-04-19T13:27:25Z</time></trkpt><trkpt lat="43.10320498109833" lon="12.777445154685735"><ele>426.0</ele><time>2026-04-19T13:27:26Z</time></trkpt><trkpt lat="43.103368408907244" lon="12.777530308707208"><ele>426.0</ele><time>2026-04-19T13:27:27Z</time></trkpt><trkpt lat="43.103535092843664" lon="12.777612931921507"><ele>424.33333333333337</ele><time>2026-04-19T13:27:27.999Z</time></trkpt><trkpt lat="43.10370491819684" lon="12.777692863575544"><ele>422.6666666666667</ele><time>2026-04-19T13:27:28.999Z</time></trkpt><trkpt lat="43.10387904013546" lon="12.777778942007647"><ele>421.0</ele><time>2026-04-19T13:27:29.999Z</time></trkpt><trkpt lat="43.10405522688111" lon="12.777869922501676"><ele>424.33333333333337</ele><time>2026-04-19T13:27:30.999Z</time></trkpt><trkpt lat="43.104234510798" lon="12.777957595877028"><ele>427.66666666666663</ele><time>2026-04-19T13:27:31.999Z</time></trkpt><trkpt lat="43.10441570574591" lon="12.778037919062724"><ele>431.0</ele><time>2026-04-19T13:27:32.999Z</time></trkpt><trkpt lat="43.10460143530057" lon="12.778115549397658"><ele>431.0</ele><time>2026-04-19T13:27:33.999Z</time></trkpt><trkpt lat="43.10478397961717" lon="12.778191602342693"><ele>431.0</ele><time>2026-04-19T13:27:34.999Z</time></trkpt><trkpt lat="43.104963411949754" lon="12.778263874507516"><ele>431.0</ele><time>2026-04-19T13:27:35.999Z</time></trkpt><trkpt lat="43.10514699143895" lon="12.778341022768151"><ele>434.0</ele><time>2026-04-19T13:27:36.999Z</time></trkpt><trkpt lat="43.105332167704816" lon="12.778415884806849"><ele>437.0</ele><time>2026-04-19T13:27:37.999Z</time></trkpt><trkpt lat="43.105514454090645" lon="12.77849376331296"><ele>440.0</ele><time>2026-04-19T13:27:38.999Z</time></trkpt><trkpt lat="43.10569842724147" lon="12.77857644498389"><ele>445.66666666666663</ele><time>2026-04-19T13:27:39.999Z</time></trkpt><trkpt lat="43.10588190293026" lon="12.77865942069917"><ele>451.33333333333337</ele><time>2026-04-19T13:27:40.999Z</time></trkpt><trkpt lat="43.10606546496943" lon="12.778743440029254"><ele>457.0</ele><time>2026-04-19T13:27:41.999Z</time></trkpt><trkpt lat="43.10626157195226" lon="12.778838151447445"><ele>457.0</ele><time>2026-04-19T13:27:42.999Z</time></trkpt><trkpt lat="43.10644601879818" lon="12.778920697588463"><ele>457.0</ele><time>2026-04-19T13:27:43.999Z</time></trkpt><trkpt lat="43.10662199344358" lon="12.778995624085344"><ele>457.0</ele><time>2026-04-19T13:27:44.999Z</time></trkpt><trkpt lat="43.106799865736726" lon="12.779080559646681"><ele>463.33333333333337</ele><time>2026-04-19T13:27:45.999Z</time></trkpt><trkpt lat="43.1069875018267" lon="12.779164973775902"><ele>469.66666666666663</ele><time>2026-04-19T13:27:46.999Z</time></trkpt><trkpt lat="43.10718151576962" lon="12.779253528749535"><ele>476.0</ele><time>2026-04-19T13:27:48.073Z</time></trkpt><trkpt lat="43.10735791260703" lon="12.779339030451247"><ele>481.3333333333333</ele><time>2026-04-19T13:27:49.072Z</time></trkpt><trkpt lat="43.10750863812279" lon="12.779407440928159"><ele>486.66666666666663</ele><time>2026-04-19T13:27:50.065Z</time></trkpt><trkpt lat="43.107703553019284" lon="12.779493879595305"><ele>492.0</ele><time>2026-04-19T13:27:51.064Z</time></trkpt><trkpt lat="43.10789146667204" lon="12.779578408319555"><ele>492.0</ele><time>2026-04-19T13:27:52.059Z</time></trkpt><trkpt lat="43.10807194266957" lon="12.779661107353137"><ele>492.0</ele><time>2026-04-19T13:27:53.041Z</time></trkpt><trkpt lat="43.108252307616574" lon="12.779743711505072"><ele>492.0</ele><time>2026-04-19T13:27:54.037Z</time></trkpt><trkpt lat="43.108431108591425" lon="12.77982714134532"><ele>479.5</ele><time>2026-04-19T13:27:55.03Z</time></trkpt><trkpt lat="43.1086070248624" lon="12.779911939353585"><ele>467.0</ele><time>2026-04-19T13:27:56.026Z</time></trkpt><trkpt lat="43.10908150528928" lon="12.780105429724689"><ele>463.3333333333333</ele><time>2026-04-19T13:27:57.999Z</time></trkpt><trkpt lat="43.10927595203676" lon="12.780172698633605"><ele>459.66666666666663</ele><time>2026-04-19T13:27:58.999Z</time></trkpt><trkpt lat="43.10947236626665" lon="12.78026891187338"><ele>456.0</ele><time>2026-04-19T13:27:59.999Z</time></trkpt><trkpt lat="43.109664247269386" lon="12.780357806353035"><ele>455.33333333333337</ele><time>2026-04-19T13:28:00.999Z</time></trkpt><trkpt lat="43.10985766570693" lon="12.7804500049917"><ele>454.6666666666667</ele><time>2026-04-19T13:28:01.999Z</time></trkpt><trkpt lat="43.110043243610114" lon="12.780539319179052"><ele>454.0</ele><time>2026-04-19T13:28:02.999Z</time></trkpt><trkpt lat="43.110228645090864" lon="12.780640212535884"><ele>454.0</ele><time>2026-04-19T13:28:03.999Z</time></trkpt><trkpt lat="43.11040662754916" lon="12.780750611042503"><ele>454.0</ele><time>2026-04-19T13:28:04.999Z</time></trkpt><trkpt lat="43.11058775021023" lon="12.780859998805493"><ele>454.0</ele><time>2026-04-19T13:28:05.999Z</time></trkpt><trkpt lat="43.110779776103335" lon="12.780961253901513"><ele>454.6666666666667</ele><time>2026-04-19T13:28:06.999Z</time></trkpt><trkpt lat="43.11095979947814" lon="12.781076214606328"><ele>455.33333333333337</ele><time>2026-04-19T13:28:07.999Z</time></trkpt><trkpt lat="43.11114111512421" lon="12.781194391859126"><ele>456.0</ele><time>2026-04-19T13:28:08.999Z</time></trkpt><trkpt lat="43.111312967643144" lon="12.78132134476715"><ele>456.0</ele><time>2026-04-19T13:28:09.999Z</time></trkpt><trkpt lat="43.11149611454315" lon="12.781440563272069"><ele>456.0</ele><time>2026-04-19T13:28:10.999Z</time></trkpt><trkpt lat="43.11167486875446" lon="12.781562617675819"><ele>456.0</ele><time>2026-04-19T13:28:11.999Z</time></trkpt><trkpt lat="43.11184608514511" lon="12.781684860279151"><ele>458.66666666666663</ele><time>2026-04-19T13:28:12.999Z</time></trkpt><trkpt lat="43.112026696913446" lon="12.781806703231549"><ele>461.3333333333333</ele><time>2026-04-19T13:28:13.999Z</time></trkpt><trkpt lat="43.11220015124134" lon="12.781932897987014"><ele>464.0</ele><time>2026-04-19T13:28:15Z</time></trkpt><trkpt lat="43.11237522222639" lon="12.78205780832716"><ele>469.66666666666663</ele><time>2026-04-19T13:28:16Z</time></trkpt><trkpt lat="43.11255195528196" lon="12.782188137268703"><ele>475.33333333333337</ele><time>2026-04-19T13:28:17Z</time></trkpt><trkpt lat="43.112714433114625" lon="12.782333716494964"><ele>481.0</ele><time>2026-04-19T13:28:18Z</time></trkpt><trkpt lat="43.11287416424907" lon="12.782480154948091"><ele>481.0</ele><time>2026-04-19T13:28:19Z</time></trkpt><trkpt lat="43.11303309700731" lon="12.782626648926588"><ele>481.0</ele><time>2026-04-19T13:28:20Z</time></trkpt><trkpt lat="43.11319156159163" lon="12.782770188572217"><ele>481.0</ele><time>2026-04-19T13:28:21Z</time></trkpt><trkpt lat="43.11335021933239" lon="12.782917788487394"><ele>485.6666666666667</ele><time>2026-04-19T13:28:22Z</time></trkpt><trkpt lat="43.113520455075104" lon="12.783036047903607"><ele>490.33333333333337</ele><time>2026-04-19T13:28:23Z</time></trkpt><trkpt lat="43.11369219307262" lon="12.783158553990402"><ele>495.0</ele><time>2026-04-19T13:28:24Z</time></trkpt><trkpt lat="43.113862686779306" lon="12.783279801181148"><ele>495.0</ele><time>2026-04-19T13:28:25Z</time></trkpt><trkpt lat="43.11403010444688" lon="12.783397510829737"><ele>495.0</ele><time>2026-04-19T13:28:26Z</time></trkpt><trkpt lat="43.11419718786188" lon="12.783511470001962"><ele>495.0</ele><time>2026-04-19T13:28:27Z</time></trkpt><trkpt lat="43.11443795959279" lon="12.783570051770509"><ele>497.33333333333337</ele><time>2026-04-19T13:28:28Z</time></trkpt><trkpt lat="43.11461885552432" lon="12.783692917267258"><ele>499.6666666666667</ele><time>2026-04-19T13:28:29Z</time></trkpt><trkpt lat="43.114798666743496" lon="12.783824215260477"><ele>502.0</ele><time>2026-04-19T13:28:30Z</time></trkpt><trkpt lat="43.11495915753378" lon="12.783869863948565"><ele>509.0</ele><time>2026-04-19T13:28:31Z</time></trkpt><trkpt lat="43.11512928938888" lon="12.783975637709556"><ele>516.0</ele><time>2026-04-19T13:28:32Z</time></trkpt><trkpt lat="43.11530208588611" lon="12.784080414754106"><ele>523.0</ele><time>2026-04-19T13:28:33Z</time></trkpt><trkpt lat="43.115461649708415" lon="12.784176321341153"><ele>523.0</ele><time>2026-04-19T13:28:34Z</time></trkpt><trkpt lat="43.11562531949948" lon="12.784272212046721"><ele>523.0</ele><time>2026-04-19T13:28:35Z</time></trkpt><trkpt lat="43.11580744053258" lon="12.784377286668976"><ele>523.0</ele><time>2026-04-19T13:28:36Z</time></trkpt><trkpt lat="43.11599052599341" lon="12.784482544212878"><ele>525.0</ele><time>2026-04-19T13:28:37Z</time></trkpt><trkpt lat="43.11617450354782" lon="12.784584523428627"><ele>527.0</ele><time>2026-04-19T13:28:38Z</time></trkpt><trkpt lat="43.116349553730025" lon="12.78467927648243"><ele>529.0</ele><time>2026-04-19T13:28:39Z</time></trkpt><trkpt lat="43.1165236992113" lon="12.784770996664152"><ele>532.6666666666667</ele><time>2026-04-19T13:28:40Z</time></trkpt><trkpt lat="43.116686765326754" lon="12.78485516800991"><ele>536.3333333333334</ele><time>2026-04-19T13:28:41Z</time></trkpt><trkpt lat="43.116851590967514" lon="12.784938957889175"><ele>540.0</ele><time>2026-04-19T13:28:42Z</time></trkpt><trkpt lat="43.117014256474725" lon="12.785021734063628"><ele>540.0</ele><time>2026-04-19T13:28:43Z</time></trkpt><trkpt lat="43.11712977990608" lon="12.785078107561736"><ele>540.0</ele><time>2026-04-19T13:28:44Z</time></trkpt><trkpt lat="43.11719598463058" lon="12.785110414347892"><ele>540.0</ele><time>2026-04-19T13:28:45Z</time></trkpt><trkpt lat="43.11918809388157" lon="12.785937005408305"><ele>526.0</ele><time>2026-04-19T13:28:49.9Z</time></trkpt><trkpt lat="43.11979803888959" lon="12.786152618027195"><ele>515.0</ele><time>2026-04-19T13:28:50.9Z</time></trkpt><trkpt lat="43.1204110756684" lon="12.786351211583563"><ele>498.0</ele><time>2026-04-19T13:28:51.9Z</time></trkpt><trkpt lat="43.12102745619566" lon="12.786529563242643"><ele>498.0</ele><time>2026-04-19T13:28:52.9Z</time></trkpt><trkpt lat="43.1211087" lon="12.7865529"><ele>498.0</ele><time>2026-04-19T13:28:53.9Z</time></trkpt><trkpt lat="43.12194689113685" lon="12.786797718677208"><ele>498.33333333333337</ele><time>2026-04-19T13:29:04Z</time></trkpt><trkpt lat="43.12214235137513" lon="12.786863032121333"><ele>498.6666666666667</ele><time>2026-04-19T13:29:05Z</time></trkpt><trkpt lat="43.12233932465714" lon="12.78691198479107"><ele>499.0</ele><time>2026-04-19T13:29:06Z</time></trkpt><trkpt lat="43.122530874631785" lon="12.786971643599697"><ele>495.0</ele><time>2026-04-19T13:29:07Z</time></trkpt><trkpt lat="43.12273100781761" lon="12.787034045480441"><ele>491.0</ele><time>2026-04-19T13:29:08Z</time></trkpt><trkpt lat="43.12293244144986" lon="12.787097721130566"><ele>487.0</ele><time>2026-04-19T13:29:09Z</time></trkpt><trkpt lat="43.123137700695075" lon="12.787152501725854"><ele>485.33333333333337</ele><time>2026-04-19T13:29:10Z</time></trkpt><trkpt lat="43.12334006852673" lon="12.787203162441907"><ele>483.66666666666663</ele><time>2026-04-19T13:29:11Z</time></trkpt><trkpt lat="43.12354374751704" lon="12.78726168266582"><ele>482.0</ele><time>2026-04-19T13:29:12Z</time></trkpt><trkpt lat="43.12374603652495" lon="12.787315653553442"><ele>482.0</ele><time>2026-04-19T13:29:13Z</time></trkpt><trkpt lat="43.12394889130738" lon="12.787387572171049"><ele>482.0</ele><time>2026-04-19T13:29:14Z</time></trkpt><trkpt lat="43.12415109052693" lon="12.787503998165862"><ele>482.0</ele><time>2026-04-19T13:29:15Z</time></trkpt><trkpt lat="43.124357743397084" lon="12.787498451126813"><ele>478.66666666666663</ele><time>2026-04-19T13:29:16Z</time></trkpt><trkpt lat="43.12456002992553" lon="12.787551268060765"><ele>475.33333333333337</ele><time>2026-04-19T13:29:17Z</time></trkpt><trkpt lat="43.12475698682717" lon="12.787606589179095"><ele>472.0</ele><time>2026-04-19T13:29:18Z</time></trkpt><trkpt lat="43.1249552480626" lon="12.787664670253223"><ele>476.0</ele><time>2026-04-19T13:29:19Z</time></trkpt><trkpt lat="43.125154727030555" lon="12.78771835851912"><ele>480.0</ele><time>2026-04-19T13:29:20Z</time></trkpt><trkpt lat="43.12535529286983" lon="12.787769259734919"><ele>484.0</ele><time>2026-04-19T13:29:21Z</time></trkpt><trkpt lat="43.12555590110367" lon="12.78782128168931"><ele>485.33333333333337</ele><time>2026-04-19T13:29:22Z</time></trkpt><trkpt lat="43.125759824689986" lon="12.787869415368446"><ele>486.66666666666663</ele><time>2026-04-19T13:29:23Z</time></trkpt><trkpt lat="43.12596113010972" lon="12.787912338703473"><ele>488.0</ele><time>2026-04-19T13:29:23.999Z</time></trkpt><trkpt lat="43.12616283097039" lon="12.787946084027134"><ele>488.0</ele><time>2026-04-19T13:29:24.999Z</time></trkpt><trkpt lat="43.12636744980614" lon="12.787978557315022"><ele>488.0</ele><time>2026-04-19T13:29:25.999Z</time></trkpt><trkpt lat="43.126573469952476" lon="12.788014918967878"><ele>488.0</ele><time>2026-04-19T13:29:26.999Z</time></trkpt><trkpt lat="43.126779469335325" lon="12.788039704474665"><ele>487.66666666666663</ele><time>2026-04-19T13:29:27.999Z</time></trkpt><trkpt lat="43.12698535639557" lon="12.788056198633624"><ele>487.33333333333337</ele><time>2026-04-19T13:29:28.999Z</time></trkpt><trkpt lat="43.12718977097845" lon="12.788065896523115"><ele>487.0</ele><time>2026-04-19T13:29:29.999Z</time></trkpt><trkpt lat="43.12739242874183" lon="12.788074206948815"><ele>484.33333333333337</ele><time>2026-04-19T13:29:30.999Z</time></trkpt><trkpt lat="43.127597204331956" lon="12.788075165775433"><ele>481.66666666666663</ele><time>2026-04-19T13:29:31.999Z</time></trkpt><trkpt lat="43.12780119015435" lon="12.788056926408037"><ele>479.0</ele><time>2026-04-19T13:29:32.999Z</time></trkpt><trkpt lat="43.128011939417895" lon="12.788042344707243"><ele>479.0</ele><time>2026-04-19T13:29:33.999Z</time></trkpt><trkpt lat="43.128212200100975" lon="12.788010879004686"><ele>479.0</ele><time>2026-04-19T13:29:34.999Z</time></trkpt><trkpt lat="43.128418546656086" lon="12.787969308434299"><ele>479.0</ele><time>2026-04-19T13:29:35.999Z</time></trkpt><trkpt lat="43.1286215491956" lon="12.787934554618626"><ele>478.3333333333333</ele><time>2026-04-19T13:29:36.999Z</time></trkpt><trkpt lat="43.12882355505048" lon="12.787888962828852"><ele>477.66666666666663</ele><time>2026-04-19T13:29:37.999Z</time></trkpt><trkpt lat="43.12902220785122" lon="12.787848966447164"><ele>477.0</ele><time>2026-04-19T13:29:38.999Z</time></trkpt><trkpt lat="43.12922474006173" lon="12.787801185979543"><ele>477.0</ele><time>2026-04-19T13:29:39.999Z</time></trkpt><trkpt lat="43.12942385956322" lon="12.787746834800059"><ele>477.0</ele><time>2026-04-19T13:29:40.999Z</time></trkpt><trkpt lat="43.12962277673571" lon="12.78768877708227"><ele>477.0</ele><time>2026-04-19T13:29:41.999Z</time></trkpt><trkpt lat="43.12982325788722" lon="12.787627260282767"><ele>476.66666666666663</ele><time>2026-04-19T13:29:42.999Z</time></trkpt><trkpt lat="43.13002092565396" lon="12.78756238332942"><ele>476.3333333333333</ele><time>2026-04-19T13:29:43.999Z</time></trkpt><trkpt lat="43.130218920673684" lon="12.787498916833487"><ele>476.0</ele><time>2026-04-19T13:29:44.999Z</time></trkpt><trkpt lat="43.13042105074854" lon="12.78743572686669"><ele>476.0</ele><time>2026-04-19T13:29:45.999Z</time></trkpt><trkpt lat="43.13061896935631" lon="12.7873786736938"><ele>476.0</ele><time>2026-04-19T13:29:46.999Z</time></trkpt><trkpt lat="43.13081916794048" lon="12.787319032037383"><ele>476.0</ele><time>2026-04-19T13:29:47.999Z</time></trkpt><trkpt lat="43.131017399686854" lon="12.787261022520525"><ele>476.3333333333333</ele><time>2026-04-19T13:29:48.999Z</time></trkpt><trkpt lat="43.13121715009428" lon="12.787197416344362"><ele>476.66666666666663</ele><time>2026-04-19T13:29:49.999Z</time></trkpt><trkpt lat="43.13141930148344" lon="12.78712877869002"><ele>477.0</ele><time>2026-04-19T13:29:50.999Z</time></trkpt><trkpt lat="43.13162066173199" lon="12.787066498908105"><ele>477.0</ele><time>2026-04-19T13:29:51.999Z</time></trkpt><trkpt lat="43.13182090745005" lon="12.787010528974685"><ele>477.0</ele><time>2026-04-19T13:29:52.999Z</time></trkpt><trkpt lat="43.132022585084506" lon="12.786947758733634"><ele>477.0</ele><time>2026-04-19T13:29:53.999Z</time></trkpt><trkpt lat="43.1322201573304" lon="12.786886394928743"><ele>475.33333333333337</ele><time>2026-04-19T13:29:54.999Z</time></trkpt><trkpt lat="43.132422022410296" lon="12.786816575979508"><ele>473.6666666666667</ele><time>2026-04-19T13:29:55.999Z</time></trkpt><trkpt lat="43.13262126469547" lon="12.786755034879613"><ele>472.0</ele><time>2026-04-19T13:29:56.999Z</time></trkpt><trkpt lat="43.132822024668236" lon="12.786690913267185"><ele>472.0</ele><time>2026-04-19T13:29:57.999Z</time></trkpt><trkpt lat="43.13302275998471" lon="12.786629941567965"><ele>472.0</ele><time>2026-04-19T13:29:58.999Z</time></trkpt><trkpt lat="43.133222616011714" lon="12.786568214281159"><ele>472.0</ele><time>2026-04-19T13:29:59.999Z</time></trkpt><trkpt lat="43.13342647502362" lon="12.786506688157377"><ele>472.0</ele><time>2026-04-19T13:30:00.999Z</time></trkpt><trkpt lat="43.13362928172788" lon="12.7864409411438"><ele>472.0</ele><time>2026-04-19T13:30:01.999Z</time></trkpt><trkpt lat="43.133840143532076" lon="12.786381732421217"><ele>472.0</ele><time>2026-04-19T13:30:02.999Z</time></trkpt><trkpt lat="43.134052568316754" lon="12.786315154112911"><ele>470.6666666666667</ele><time>2026-04-19T13:30:03.999Z</time></trkpt><trkpt lat="43.13426978607597" lon="12.786249876197356"><ele>469.33333333333337</ele><time>2026-04-19T13:30:04.999Z</time></trkpt><trkpt lat="43.134477499786016" lon="12.786181371077209"><ele>468.0</ele><time>2026-04-19T13:30:05.999Z</time></trkpt><trkpt lat="43.13467925487687" lon="12.78610856229459"><ele>465.0</ele><time>2026-04-19T13:30:06.999Z</time></trkpt><trkpt lat="43.134895193129225" lon="12.786044378786839"><ele>462.0</ele><time>2026-04-19T13:30:07.999Z</time></trkpt><trkpt lat="43.135103076275534" lon="12.785980944387852"><ele>459.0</ele><time>2026-04-19T13:30:08.999Z</time></trkpt><trkpt lat="43.135310385924086" lon="12.78591875639241"><ele>458.33333333333337</ele><time>2026-04-19T13:30:09.999Z</time></trkpt><trkpt lat="43.135517145368404" lon="12.785853226652431"><ele>457.6666666666667</ele><time>2026-04-19T13:30:10.999Z</time></trkpt><trkpt lat="43.13572637143171" lon="12.785793266083909"><ele>457.0</ele><time>2026-04-19T13:30:11.999Z</time></trkpt><trkpt lat="43.135934453539214" lon="12.785735668203827"><ele>456.33333333333337</ele><time>2026-04-19T13:30:12.999Z</time></trkpt><trkpt lat="43.13614781535958" lon="12.785671429073853"><ele>455.66666666666663</ele><time>2026-04-19T13:30:13.999Z</time></trkpt><trkpt lat="43.13635720130625" lon="12.785616159485608"><ele>455.0</ele><time>2026-04-19T13:30:14.999Z</time></trkpt><trkpt lat="43.13656834990476" lon="12.785556633653215"><ele>457.66666666666663</ele><time>2026-04-19T13:30:15.999Z</time></trkpt><trkpt lat="43.13677896736734" lon="12.785503922779085"><ele>460.33333333333337</ele><time>2026-04-19T13:30:16.999Z</time></trkpt><trkpt lat="43.13698902583289" lon="12.785453082950875"><ele>463.0</ele><time>2026-04-19T13:30:17.999Z</time></trkpt><trkpt lat="43.1371982185826" lon="12.785408625376661"><ele>465.33333333333337</ele><time>2026-04-19T13:30:18.999Z</time></trkpt><trkpt lat="43.13740828869644" lon="12.785353965854345"><ele>467.66666666666663</ele><time>2026-04-19T13:30:20Z</time></trkpt><trkpt lat="43.13762095638844" lon="12.78530267502532"><ele>470.0</ele><time>2026-04-19T13:30:21Z</time></trkpt><trkpt lat="43.13783058660439" lon="12.785250758689676"><ele>470.0</ele><time>2026-04-19T13:30:22Z</time></trkpt><trkpt lat="43.138042085203395" lon="12.785204446309416"><ele>470.0</ele><time>2026-04-19T13:30:23Z</time></trkpt><trkpt lat="43.13825711507465" lon="12.78514981761207"><ele>470.0</ele><time>2026-04-19T13:30:24Z</time></trkpt><trkpt lat="43.13847095045565" lon="12.785099202191304"><ele>465.0</ele><time>2026-04-19T13:30:25Z</time></trkpt><trkpt lat="43.13868184495201" lon="12.785045283472016"><ele>460.0</ele><time>2026-04-19T13:30:26Z</time></trkpt><trkpt lat="43.13889187570208" lon="12.784990934023517"><ele>455.0</ele><time>2026-04-19T13:30:27Z</time></trkpt><trkpt lat="43.13909937464404" lon="12.78494224413428"><ele>451.0</ele><time>2026-04-19T13:30:28Z</time></trkpt><trkpt lat="43.139309855375174" lon="12.784886525413144"><ele>447.0</ele><time>2026-04-19T13:30:29Z</time></trkpt><trkpt lat="43.13951997079365" lon="12.784833859108485"><ele>443.0</ele><time>2026-04-19T13:30:30Z</time></trkpt><trkpt lat="43.13973157339614" lon="12.784786334453212"><ele>441.0</ele><time>2026-04-19T13:30:31Z</time></trkpt><trkpt lat="43.13994316740498" lon="12.78473909229514"><ele>439.0</ele><time>2026-04-19T13:30:32Z</time></trkpt><trkpt lat="43.140154985308925" lon="12.784690344013825"><ele>437.0</ele><time>2026-04-19T13:30:33Z</time></trkpt><trkpt lat="43.14036490403103" lon="12.78464099474837"><ele>437.0</ele><time>2026-04-19T13:30:34Z</time></trkpt><trkpt lat="43.1405776231642" lon="12.784591686335116"><ele>437.0</ele><time>2026-04-19T13:30:35Z</time></trkpt><trkpt lat="43.14078937361969" lon="12.784544081187915"><ele>437.0</ele><time>2026-04-19T13:30:36Z</time></trkpt><trkpt lat="43.14100044051032" lon="12.784496866394154"><ele>437.3333333333333</ele><time>2026-04-19T13:30:37Z</time></trkpt><trkpt lat="43.14121249044176" lon="12.78444899605623"><ele>437.66666666666663</ele><time>2026-04-19T13:30:38Z</time></trkpt><trkpt lat="43.14142497081432" lon="12.784400379896798"><ele>438.0</ele><time>2026-04-19T13:30:39Z</time></trkpt><trkpt lat="43.14163619244307" lon="12.784349425912502"><ele>440.33333333333337</ele><time>2026-04-19T13:30:40Z</time></trkpt><trkpt lat="43.14184275885114" lon="12.784298688021666"><ele>442.6666666666667</ele><time>2026-04-19T13:30:41Z</time></trkpt><trkpt lat="43.14205394050777" lon="12.784248637106696"><ele>445.0</ele><time>2026-04-19T13:30:42Z</time></trkpt><trkpt lat="43.14226620650606" lon="12.784202213238178"><ele>446.0</ele><time>2026-04-19T13:30:43Z</time></trkpt><trkpt lat="43.142476493347615" lon="12.784155472571568"><ele>447.0</ele><time>2026-04-19T13:30:44Z</time></trkpt><trkpt lat="43.142689930521485" lon="12.784106045810898"><ele>448.0</ele><time>2026-04-19T13:30:45Z</time></trkpt><trkpt lat="43.14290324094256" lon="12.784055754278254"><ele>448.0</ele><time>2026-04-19T13:30:46Z</time></trkpt><trkpt lat="43.14311500974255" lon="12.784005266057262"><ele>448.0</ele><time>2026-04-19T13:30:47Z</time></trkpt><trkpt lat="43.14332597827368" lon="12.78395270885296"><ele>448.0</ele><time>2026-04-19T13:30:48Z</time></trkpt><trkpt lat="43.143533730756054" lon="12.783899281769033"><ele>450.0</ele><time>2026-04-19T13:30:49Z</time></trkpt><trkpt lat="43.14374854881915" lon="12.783846729359281"><ele>452.0</ele><time>2026-04-19T13:30:50Z</time></trkpt><trkpt lat="43.14396226980638" lon="12.783790278263742"><ele>454.0</ele><time>2026-04-19T13:30:51Z</time></trkpt><trkpt lat="43.144145845884175" lon="12.783719037592467"><ele>457.6666666666667</ele><time>2026-04-19T13:30:52Z</time></trkpt><trkpt lat="43.14435013365097" lon="12.783656686215593"><ele>461.33333333333337</ele><time>2026-04-19T13:30:53Z</time></trkpt><trkpt lat="43.14454755379106" lon="12.783591535889434"><ele>465.0</ele><time>2026-04-19T13:30:54Z</time></trkpt><trkpt lat="43.144754189408225" lon="12.78353194601857"><ele>463.33333333333337</ele><time>2026-04-19T13:30:55Z</time></trkpt><trkpt lat="43.144952694718114" lon="12.783469589448815"><ele>461.6666666666667</ele><time>2026-04-19T13:30:56Z</time></trkpt><trkpt lat="43.14514891630112" lon="12.783451795959772"><ele>460.0</ele><time>2026-04-19T13:30:57Z</time></trkpt><trkpt lat="43.14540432890441" lon="12.783432210457061"><ele>460.0</ele><time>2026-04-19T13:30:58Z</time></trkpt><trkpt lat="43.14563039086592" lon="12.783392879111501"><ele>460.0</ele><time>2026-04-19T13:30:59Z</time></trkpt><trkpt lat="43.1458454713347" lon="12.783346196319906"><ele>460.0</ele><time>2026-04-19T13:31:00Z</time></trkpt><trkpt lat="43.14606427208825" lon="12.783299758737984"><ele>458.6666666666667</ele><time>2026-04-19T13:31:01Z</time></trkpt><trkpt lat="43.14627916008709" lon="12.783251506237914"><ele>457.33333333333337</ele><time>2026-04-19T13:31:02Z</time></trkpt><trkpt lat="43.14649124743226" lon="12.783206268853387"><ele>456.0</ele><time>2026-04-19T13:31:03Z</time></trkpt><trkpt lat="43.146691732631034" lon="12.78317814631288"><ele>456.0</ele><time>2026-04-19T13:31:04Z</time></trkpt><trkpt lat="43.146890251099414" lon="12.783164550309642"><ele>456.0</ele><time>2026-04-19T13:31:05Z</time></trkpt><trkpt lat="43.14708975898327" lon="12.783083327489216"><ele>456.0</ele><time>2026-04-19T13:31:06Z</time></trkpt><trkpt lat="43.14732003008488" lon="12.783029886176296"><ele>454.0</ele><time>2026-04-19T13:31:07Z</time></trkpt><trkpt lat="43.14753640967008" lon="12.782975628870064"><ele>452.0</ele><time>2026-04-19T13:31:08Z</time></trkpt><trkpt lat="43.147747321236295" lon="12.782924624171983"><ele>450.0</ele><time>2026-04-19T13:31:09Z</time></trkpt><trkpt lat="43.14795622976459" lon="12.782879439657467"><ele>450.0</ele><time>2026-04-19T13:31:10Z</time></trkpt><trkpt lat="43.14814365692683" lon="12.782833909264886"><ele>450.0</ele><time>2026-04-19T13:31:11Z</time></trkpt><trkpt lat="43.148332274241234" lon="12.782791131789006"><ele>450.0</ele><time>2026-04-19T13:31:12Z</time></trkpt><trkpt lat="43.14852103271773" lon="12.782749531649507"><ele>451.33333333333337</ele><time>2026-04-19T13:31:13Z</time></trkpt><trkpt lat="43.14870717022547" lon="12.782710015158885"><ele>452.6666666666667</ele><time>2026-04-19T13:31:14Z</time></trkpt><trkpt lat="43.14889406264336" lon="12.782669976642204"><ele>454.0</ele><time>2026-04-19T13:31:15Z</time></trkpt><trkpt lat="43.14908566728305" lon="12.782632555244039"><ele>459.0</ele><time>2026-04-19T13:31:16Z</time></trkpt><trkpt lat="43.14927423121678" lon="12.782589899676589"><ele>464.0</ele><time>2026-04-19T13:31:17Z</time></trkpt><trkpt lat="43.1494667460128" lon="12.782547129466607"><ele>469.0</ele><time>2026-04-19T13:31:18Z</time></trkpt><trkpt lat="43.14967073705788" lon="12.782508702346147"><ele>469.0</ele><time>2026-04-19T13:31:19.075Z</time></trkpt><trkpt lat="43.1498594839404" lon="12.782475512385764"><ele>469.0</ele><time>2026-04-19T13:31:20.07Z</time></trkpt><trkpt lat="43.150045774283555" lon="12.782438388759678"><ele>469.0</ele><time>2026-04-19T13:31:21.073Z</time></trkpt><trkpt lat="43.15022707908355" lon="12.782404439038444"><ele>469.6666666666667</ele><time>2026-04-19T13:31:22.069Z</time></trkpt><trkpt lat="43.15040428418341" lon="12.782366226949081"><ele>470.33333333333337</ele><time>2026-04-19T13:31:23.046Z</time></trkpt><trkpt lat="43.15058477476253" lon="12.782328796428423"><ele>471.0</ele><time>2026-04-19T13:31:24.033Z</time></trkpt><trkpt lat="43.152227493283526" lon="12.78190672708876"><ele>464.66666666666663</ele><time>2026-04-19T13:31:31.999Z</time></trkpt><trkpt lat="43.15241703392858" lon="12.781864019901716"><ele>458.3333333333333</ele><time>2026-04-19T13:31:32.999Z</time></trkpt><trkpt lat="43.15254398524528" lon="12.78180873757282"><ele>452.0</ele><time>2026-04-19T13:31:33.999Z</time></trkpt><trkpt lat="43.15272013722141" lon="12.781771020076905"><ele>451.0</ele><time>2026-04-19T13:31:34.999Z</time></trkpt><trkpt lat="43.15290690330856" lon="12.781730782003375"><ele>450.0</ele><time>2026-04-19T13:31:35.999Z</time></trkpt><trkpt lat="43.153095649229066" lon="12.781680816397587"><ele>449.0</ele><time>2026-04-19T13:31:36.999Z</time></trkpt><trkpt lat="43.15328770541808" lon="12.781637291653118"><ele>449.0</ele><time>2026-04-19T13:31:37.999Z</time></trkpt><trkpt lat="43.15347443384059" lon="12.781595575947161"><ele>449.0</ele><time>2026-04-19T13:31:38.999Z</time></trkpt><trkpt lat="43.1536665645912" lon="12.781550509270877"><ele>449.0</ele><time>2026-04-19T13:31:39.999Z</time></trkpt><trkpt lat="43.15385639551371" lon="12.781501773487484"><ele>449.0</ele><time>2026-04-19T13:31:40.999Z</time></trkpt><trkpt lat="43.15405755894556" lon="12.781452248613144"><ele>449.0</ele><time>2026-04-19T13:31:41.999Z</time></trkpt><trkpt lat="43.1542527058405" lon="12.781408934909779"><ele>449.0</ele><time>2026-04-19T13:31:42.999Z</time></trkpt><trkpt lat="43.154451392947074" lon="12.781364762420553"><ele>449.0</ele><time>2026-04-19T13:31:43.999Z</time></trkpt><trkpt lat="43.154650050557414" lon="12.781312940491214"><ele>449.0</ele><time>2026-04-19T13:31:44.999Z</time></trkpt><trkpt lat="43.15487483309453" lon="12.781259632500996"><ele>449.0</ele><time>2026-04-19T13:31:45.999Z</time></trkpt><trkpt lat="43.15509756375463" lon="12.781212855735179"><ele>455.5</ele><time>2026-04-19T13:31:46.999Z</time></trkpt><trkpt lat="43.15531951955514" lon="12.78116413536958"><ele>462.0</ele><time>2026-04-19T13:31:47.999Z</time></trkpt><trkpt lat="43.15556630683156" lon="12.781080768671293"><ele>464.5</ele><time>2026-04-19T13:31:48.999Z</time></trkpt><trkpt lat="43.155803700187" lon="12.781026571764349"><ele>467.0</ele><time>2026-04-19T13:31:49.999Z</time></trkpt><trkpt lat="43.15608322881289" lon="12.780977106235548"><ele>467.0</ele><time>2026-04-19T13:31:50.999Z</time></trkpt><trkpt lat="43.156336453814724" lon="12.780921630024988"><ele>467.0</ele><time>2026-04-19T13:31:52.064Z</time></trkpt><trkpt lat="43.15655538966704" lon="12.780854425720388"><ele>465.5</ele><time>2026-04-19T13:31:53.063Z</time></trkpt><trkpt lat="43.156797467897135" lon="12.780804840184018"><ele>464.0</ele><time>2026-04-19T13:31:54.062Z</time></trkpt><trkpt lat="43.157232984805084" lon="12.780806546675576"><ele>460.3333333333333</ele><time>2026-04-19T13:31:57.999Z</time></trkpt><trkpt lat="43.15742884883057" lon="12.780716764391954"><ele>456.66666666666663</ele><time>2026-04-19T13:31:58.999Z</time></trkpt><trkpt lat="43.15765744750557" lon="12.780647133547697"><ele>453.0</ele><time>2026-04-19T13:31:59.999Z</time></trkpt><trkpt lat="43.157861470923166" lon="12.780608451109526"><ele>453.0</ele><time>2026-04-19T13:32:00.999Z</time></trkpt><trkpt lat="43.15805533832903" lon="12.780559316523036"><ele>453.0</ele><time>2026-04-19T13:32:01.999Z</time></trkpt><trkpt lat="43.15825632745874" lon="12.780519401610903"><ele>453.0</ele><time>2026-04-19T13:32:02.999Z</time></trkpt><trkpt lat="43.15845632379267" lon="12.7804808860727"><ele>456.0</ele><time>2026-04-19T13:32:03.999Z</time></trkpt><trkpt lat="43.15865610970456" lon="12.78044477364883"><ele>459.0</ele><time>2026-04-19T13:32:04.999Z</time></trkpt><trkpt lat="43.158852960873126" lon="12.78040350903922"><ele>462.0</ele><time>2026-04-19T13:32:05.999Z</time></trkpt><trkpt lat="43.159052736055294" lon="12.780360203077992"><ele>463.0</ele><time>2026-04-19T13:32:06.999Z</time></trkpt><trkpt lat="43.15925434431564" lon="12.780316537664708"><ele>464.0</ele><time>2026-04-19T13:32:07.999Z</time></trkpt><trkpt lat="43.15945362718487" lon="12.78027640523116"><ele>465.0</ele><time>2026-04-19T13:32:08.999Z</time></trkpt><trkpt lat="43.15965450696279" lon="12.780230035568362"><ele>465.0</ele><time>2026-04-19T13:32:09.999Z</time></trkpt><trkpt lat="43.15985112425762" lon="12.780185978430778"><ele>465.0</ele><time>2026-04-19T13:32:10.999Z</time></trkpt><trkpt lat="43.16004931601015" lon="12.780139703213196"><ele>465.0</ele><time>2026-04-19T13:32:11.999Z</time></trkpt><trkpt lat="43.1602488948223" lon="12.780094195957721"><ele>464.66666666666663</ele><time>2026-04-19T13:32:12.999Z</time></trkpt><trkpt lat="43.16044607390941" lon="12.780056016590212"><ele>464.3333333333333</ele><time>2026-04-19T13:32:13.999Z</time></trkpt><trkpt lat="43.16064534832694" lon="12.780016409977861"><ele>464.0</ele><time>2026-04-19T13:32:14.999Z</time></trkpt><trkpt lat="43.16083569060089" lon="12.77999103979175"><ele>464.0</ele><time>2026-04-19T13:32:15.999Z</time></trkpt><trkpt lat="43.16104240465028" lon="12.779935133573703"><ele>464.0</ele><time>2026-04-19T13:32:16.999Z</time></trkpt><trkpt lat="43.16124290619477" lon="12.779894120426356"><ele>464.0</ele><time>2026-04-19T13:32:17.999Z</time></trkpt><trkpt lat="43.161444140597425" lon="12.779851626820939"><ele>462.66666666666663</ele><time>2026-04-19T13:32:18.999Z</time></trkpt><trkpt lat="43.16164680937174" lon="12.779806593938167"><ele>461.33333333333337</ele><time>2026-04-19T13:32:19.999Z</time></trkpt><trkpt lat="43.161843104285865" lon="12.779766141976161"><ele>460.0</ele><time>2026-04-19T13:32:20.999Z</time></trkpt><trkpt lat="43.16204720743591" lon="12.779722085926203"><ele>460.0</ele><time>2026-04-19T13:32:21.999Z</time></trkpt><trkpt lat="43.16224857598989" lon="12.779667414142992"><ele>460.0</ele><time>2026-04-19T13:32:22.999Z</time></trkpt><trkpt lat="43.1624442054578" lon="12.779628934975523"><ele>460.0</ele><time>2026-04-19T13:32:23.999Z</time></trkpt><trkpt lat="43.16265019271146" lon="12.77959147100222"><ele>461.6666666666667</ele><time>2026-04-19T13:32:24.999Z</time></trkpt><trkpt lat="43.162850391574764" lon="12.779550410686154"><ele>463.33333333333337</ele><time>2026-04-19T13:32:26Z</time></trkpt><trkpt lat="43.16305486241521" lon="12.779505484025082"><ele>465.0</ele><time>2026-04-19T13:32:27Z</time></trkpt><trkpt lat="43.16325097061373" lon="12.779459082151384"><ele>465.33333333333337</ele><time>2026-04-19T13:32:28Z</time></trkpt><trkpt lat="43.16345356291428" lon="12.77941143069326"><ele>465.6666666666667</ele><time>2026-04-19T13:32:29Z</time></trkpt><trkpt lat="43.16365539308085" lon="12.779369130372286"><ele>466.0</ele><time>2026-04-19T13:32:30Z</time></trkpt><trkpt lat="43.163854764246516" lon="12.779330053602031"><ele>463.33333333333337</ele><time>2026-04-19T13:32:31Z</time></trkpt><trkpt lat="43.164056032682076" lon="12.779291974355388"><ele>460.66666666666663</ele><time>2026-04-19T13:32:32Z</time></trkpt><trkpt lat="43.16425537562366" lon="12.779254909151955"><ele>458.0</ele><time>2026-04-19T13:32:33Z</time></trkpt><trkpt lat="43.164456487664815" lon="12.779215876962986"><ele>458.0</ele><time>2026-04-19T13:32:34Z</time></trkpt><trkpt lat="43.16465760172014" lon="12.779180047015853"><ele>458.0</ele><time>2026-04-19T13:32:35Z</time></trkpt><trkpt lat="43.164861621179455" lon="12.779153809436526"><ele>458.0</ele><time>2026-04-19T13:32:36Z</time></trkpt><trkpt lat="43.165065878553555" lon="12.77913595126033"><ele>458.0</ele><time>2026-04-19T13:32:37Z</time></trkpt><trkpt lat="43.16526924262206" lon="12.779131393942176"><ele>458.0</ele><time>2026-04-19T13:32:38Z</time></trkpt><trkpt lat="43.1654715884535" lon="12.779136596586973"><ele>458.0</ele><time>2026-04-19T13:32:39Z</time></trkpt><trkpt lat="43.16567251755555" lon="12.779145046995378"><ele>458.66666666666663</ele><time>2026-04-19T13:32:40Z</time></trkpt><trkpt lat="43.16587474593894" lon="12.779153123277924"><ele>459.33333333333337</ele><time>2026-04-19T13:32:41Z</time></trkpt><trkpt lat="43.166078027118374" lon="12.779162956361125"><ele>460.0</ele><time>2026-04-19T13:32:42Z</time></trkpt><trkpt lat="43.166277607634775" lon="12.77917317383758"><ele>460.0</ele><time>2026-04-19T13:32:43Z</time></trkpt><trkpt lat="43.16648080439883" lon="12.779187194459414"><ele>460.0</ele><time>2026-04-19T13:32:44Z</time></trkpt><trkpt lat="43.16668125259853" lon="12.779199421644032"><ele>460.0</ele><time>2026-04-19T13:32:45Z</time></trkpt><trkpt lat="43.166882401842955" lon="12.77920878876248"><ele>460.6666666666667</ele><time>2026-04-19T13:32:46Z</time></trkpt><trkpt lat="43.16708521443337" lon="12.779218037371448"><ele>461.33333333333337</ele><time>2026-04-19T13:32:47Z</time></trkpt><trkpt lat="43.167287347356215" lon="12.779224884566098"><ele>462.0</ele><time>2026-04-19T13:32:48Z</time></trkpt><trkpt lat="43.16748960299143" lon="12.779235447336871"><ele>462.33333333333337</ele><time>2026-04-19T13:32:49Z</time></trkpt><trkpt lat="43.16769428742283" lon="12.779246740425013"><ele>462.6666666666667</ele><time>2026-04-19T13:32:50Z</time></trkpt><trkpt lat="43.16789619114751" lon="12.779257257517106"><ele>463.0</ele><time>2026-04-19T13:32:51Z</time></trkpt><trkpt lat="43.16809665846546" lon="12.779264211585733"><ele>463.33333333333337</ele><time>2026-04-19T13:32:52Z</time></trkpt><trkpt lat="43.16829718495339" lon="12.779262402828623"><ele>463.66666666666663</ele><time>2026-04-19T13:32:53Z</time></trkpt><trkpt lat="43.16850112488978" lon="12.779256160017688"><ele>464.0</ele><time>2026-04-19T13:32:54Z</time></trkpt><trkpt lat="43.16870553578003" lon="12.779245762201493"><ele>464.0</ele><time>2026-04-19T13:32:55Z</time></trkpt><trkpt lat="43.168906390672376" lon="12.779228734439746"><ele>464.0</ele><time>2026-04-19T13:32:56Z</time></trkpt><trkpt lat="43.169110167425345" lon="12.779207455783594"><ele>464.0</ele><time>2026-04-19T13:32:57Z</time></trkpt><trkpt lat="43.16930677563308" lon="12.779178074934318"><ele>464.66666666666663</ele><time>2026-04-19T13:32:58Z</time></trkpt><trkpt lat="43.16951083991417" lon="12.7791474391488"><ele>465.33333333333337</ele><time>2026-04-19T13:32:59Z</time></trkpt><trkpt lat="43.16971037148366" lon="12.779111230993227"><ele>466.0</ele><time>2026-04-19T13:33:00Z</time></trkpt><trkpt lat="43.16991023070582" lon="12.77906934426885"><ele>466.33333333333337</ele><time>2026-04-19T13:33:01Z</time></trkpt><trkpt lat="43.17011078081431" lon="12.779023252100176"><ele>466.66666666666663</ele><time>2026-04-19T13:33:02Z</time></trkpt><trkpt lat="43.17031201538323" lon="12.778972908037217"><ele>467.0</ele><time>2026-04-19T13:33:03Z</time></trkpt><trkpt lat="43.1705132319902" lon="12.778929750136612"><ele>467.3333333333333</ele><time>2026-04-19T13:33:04Z</time></trkpt><trkpt lat="43.170711188445985" lon="12.778884546626568"><ele>467.66666666666663</ele><time>2026-04-19T13:33:05Z</time></trkpt><trkpt lat="43.17090794049408" lon="12.778831416101145"><ele>468.0</ele><time>2026-04-19T13:33:06Z</time></trkpt><trkpt lat="43.171104439634185" lon="12.778779135052483"><ele>468.0</ele><time>2026-04-19T13:33:07Z</time></trkpt><trkpt lat="43.17130507137958" lon="12.778731874820595"><ele>468.0</ele><time>2026-04-19T13:33:08Z</time></trkpt><trkpt lat="43.17150733277147" lon="12.77868916536306"><ele>468.0</ele><time>2026-04-19T13:33:09Z</time></trkpt><trkpt lat="43.171706978585775" lon="12.77864747901064"><ele>469.0</ele><time>2026-04-19T13:33:10Z</time></trkpt><trkpt lat="43.17190840875131" lon="12.778604638711844"><ele>470.0</ele><time>2026-04-19T13:33:11Z</time></trkpt><trkpt lat="43.172107496884735" lon="12.778564214671427"><ele>471.0</ele><time>2026-04-19T13:33:12Z</time></trkpt><trkpt lat="43.17231197091064" lon="12.778524510727385"><ele>472.66666666666663</ele><time>2026-04-19T13:33:13Z</time></trkpt><trkpt lat="43.17251100187818" lon="12.778481636156878"><ele>474.3333333333333</ele><time>2026-04-19T13:33:14Z</time></trkpt><trkpt lat="43.17271317496139" lon="12.778435809607181"><ele>476.0</ele><time>2026-04-19T13:33:15Z</time></trkpt><trkpt lat="43.17290976028861" lon="12.778388159303363"><ele>476.0</ele><time>2026-04-19T13:33:16Z</time></trkpt><trkpt lat="43.17311343724145" lon="12.77833968426735"><ele>476.0</ele><time>2026-04-19T13:33:17Z</time></trkpt><trkpt lat="43.173312701134634" lon="12.77829500161979"><ele>476.0</ele><time>2026-04-19T13:33:18Z</time></trkpt><trkpt lat="43.17351414599033" lon="12.778252119598076"><ele>476.0</ele><time>2026-04-19T13:33:19Z</time></trkpt><trkpt lat="43.1737150509789" lon="12.778209028453782"><ele>476.0</ele><time>2026-04-19T13:33:20Z</time></trkpt><trkpt lat="43.173916983843895" lon="12.778165619155324"><ele>476.0</ele><time>2026-04-19T13:33:21Z</time></trkpt><trkpt lat="43.17411710633375" lon="12.77811834897258"><ele>476.0</ele><time>2026-04-19T13:33:22Z</time></trkpt><trkpt lat="43.17431949670473" lon="12.778071318978714"><ele>476.0</ele><time>2026-04-19T13:33:23Z</time></trkpt><trkpt lat="43.17451590787786" lon="12.778026113075812"><ele>476.0</ele><time>2026-04-19T13:33:24Z</time></trkpt><trkpt lat="43.17471395486212" lon="12.777982474116971"><ele>475.0</ele><time>2026-04-19T13:33:25Z</time></trkpt><trkpt lat="43.17491549170627" lon="12.777936155292435"><ele>474.0</ele><time>2026-04-19T13:33:26Z</time></trkpt><trkpt lat="43.17511442710182" lon="12.777890771856246"><ele>473.0</ele><time>2026-04-19T13:33:26.999Z</time></trkpt><trkpt lat="43.17531407669946" lon="12.77784635820067"><ele>473.0</ele><time>2026-04-19T13:33:27.999Z</time></trkpt><trkpt lat="43.17551296120138" lon="12.777800752621143"><ele>473.0</ele><time>2026-04-19T13:33:28.999Z</time></trkpt><trkpt lat="43.175713878307334" lon="12.777754170700986"><ele>473.0</ele><time>2026-04-19T13:33:29.999Z</time></trkpt><trkpt lat="43.17591100918916" lon="12.777708371135276"><ele>471.3333333333333</ele><time>2026-04-19T13:33:30.999Z</time></trkpt><trkpt lat="43.176110600376816" lon="12.777660939812444"><ele>469.66666666666663</ele><time>2026-04-19T13:33:31.999Z</time></trkpt><trkpt lat="43.17630937885766" lon="12.777613183188855"><ele>468.0</ele><time>2026-04-19T13:33:32.999Z</time></trkpt><trkpt lat="43.176508184029935" lon="12.777568361092474"><ele>470.0</ele><time>2026-04-19T13:33:33.999Z</time></trkpt><trkpt lat="43.176706334642084" lon="12.777523584105626"><ele>472.0</ele><time>2026-04-19T13:33:34.999Z</time></trkpt><trkpt lat="43.176904230569775" lon="12.777479765022168"><ele>474.0</ele><time>2026-04-19T13:33:35.999Z</time></trkpt><trkpt lat="43.17710429485089" lon="12.777436297351613"><ele>474.0</ele><time>2026-04-19T13:33:36.999Z</time></trkpt><trkpt lat="43.17730444363882" lon="12.777393394840223"><ele>474.0</ele><time>2026-04-19T13:33:37.999Z</time></trkpt><trkpt lat="43.17750395297463" lon="12.77734889546676"><ele>474.0</ele><time>2026-04-19T13:33:38.999Z</time></trkpt><trkpt lat="43.17770505317933" lon="12.777304194482321"><ele>474.66666666666663</ele><time>2026-04-19T13:33:39.999Z</time></trkpt><trkpt lat="43.17790483560518" lon="12.77725879724693"><ele>475.3333333333333</ele><time>2026-04-19T13:33:40.999Z</time></trkpt><trkpt lat="43.17810606674348" lon="12.777214430920942"><ele>476.0</ele><time>2026-04-19T13:33:41.999Z</time></trkpt><trkpt lat="43.17830605676659" lon="12.777169459991713"><ele>477.0</ele><time>2026-04-19T13:33:42.999Z</time></trkpt><trkpt lat="43.17850377275067" lon="12.777123725519804"><ele>478.0</ele><time>2026-04-19T13:33:43.999Z</time></trkpt><trkpt lat="43.17870429376042" lon="12.777078997653874"><ele>479.0</ele><time>2026-04-19T13:33:44.999Z</time></trkpt><trkpt lat="43.1789058155785" lon="12.777034860576531"><ele>479.3333333333333</ele><time>2026-04-19T13:33:45.999Z</time></trkpt><trkpt lat="43.17910525854742" lon="12.776992057141312"><ele>479.66666666666663</ele><time>2026-04-19T13:33:46.999Z</time></trkpt><trkpt lat="43.17930597884901" lon="12.776950093412884"><ele>480.0</ele><time>2026-04-19T13:33:47.999Z</time></trkpt><trkpt lat="43.179502910981626" lon="12.77690491184795"><ele>480.0</ele><time>2026-04-19T13:33:48.999Z</time></trkpt><trkpt lat="43.17970675728733" lon="12.776858388976503"><ele>480.0</ele><time>2026-04-19T13:33:49.999Z</time></trkpt><trkpt lat="43.17990284470714" lon="12.776810959538262"><ele>480.0</ele><time>2026-04-19T13:33:50.999Z</time></trkpt><trkpt lat="43.180103229266194" lon="12.776764093700205"><ele>480.33333333333337</ele><time>2026-04-19T13:33:51.999Z</time></trkpt><trkpt lat="43.1803034505719" lon="12.776713326745133"><ele>480.6666666666667</ele><time>2026-04-19T13:33:52.999Z</time></trkpt><trkpt lat="43.180502215142894" lon="12.77665754779661"><ele>481.0</ele><time>2026-04-19T13:33:53.999Z</time></trkpt><trkpt lat="43.180700297385236" lon="12.776595962348486"><ele>481.0</ele><time>2026-04-19T13:33:54.999Z</time></trkpt><trkpt lat="43.1808976494871" lon="12.776531774699343"><ele>481.0</ele><time>2026-04-19T13:33:55.999Z</time></trkpt><trkpt lat="43.181090206855934" lon="12.776457391115933"><ele>481.0</ele><time>2026-04-19T13:33:56.999Z</time></trkpt><trkpt lat="43.18128721139281" lon="12.776376885017745"><ele>481.0</ele><time>2026-04-19T13:33:57.999Z</time></trkpt><trkpt lat="43.18147830088097" lon="12.776293792152279"><ele>481.0</ele><time>2026-04-19T13:33:58.999Z</time></trkpt><trkpt lat="43.18167402081296" lon="12.77620918396924"><ele>481.0</ele><time>2026-04-19T13:33:59.999Z</time></trkpt><trkpt lat="43.181865553918755" lon="12.776120387525399"><ele>481.0</ele><time>2026-04-19T13:34:00.999Z</time></trkpt><trkpt lat="43.18205542428167" lon="12.776026997010119"><ele>481.0</ele><time>2026-04-19T13:34:01.999Z</time></trkpt><trkpt lat="43.18224837361021" lon="12.775931402069828"><ele>481.0</ele><time>2026-04-19T13:34:02.999Z</time></trkpt><trkpt lat="43.18243627714319" lon="12.775836111377483"><ele>481.0</ele><time>2026-04-19T13:34:03.999Z</time></trkpt><trkpt lat="43.18262612611397" lon="12.775743545894823"><ele>481.0</ele><time>2026-04-19T13:34:04.999Z</time></trkpt><trkpt lat="43.18281902065259" lon="12.775653284071598"><ele>481.0</ele><time>2026-04-19T13:34:05.999Z</time></trkpt><trkpt lat="43.1830059343842" lon="12.775558234238494"><ele>481.0</ele><time>2026-04-19T13:34:06.999Z</time></trkpt><trkpt lat="43.1831956978643" lon="12.775464951908523"><ele>481.0</ele><time>2026-04-19T13:34:07.999Z</time></trkpt><trkpt lat="43.18338616757507" lon="12.77537221370822"><ele>481.0</ele><time>2026-04-19T13:34:08.999Z</time></trkpt><trkpt lat="43.183577878800705" lon="12.775287441082524"><ele>481.0</ele><time>2026-04-19T13:34:09.999Z</time></trkpt><trkpt lat="43.18377228310147" lon="12.775208450016718"><ele>481.0</ele><time>2026-04-19T13:34:10.999Z</time></trkpt><trkpt lat="43.1839610259184" lon="12.775129726061438"><ele>481.0</ele><time>2026-04-19T13:34:11.999Z</time></trkpt><trkpt lat="43.18416391881632" lon="12.775058954384605"><ele>482.6666666666667</ele><time>2026-04-19T13:34:12.999Z</time></trkpt><trkpt lat="43.18435509345372" lon="12.774995233263057"><ele>484.33333333333337</ele><time>2026-04-19T13:34:13.999Z</time></trkpt><trkpt lat="43.1845568996918" lon="12.774938725549843"><ele>486.0</ele><time>2026-04-19T13:34:14.999Z</time></trkpt><trkpt lat="43.18475791672409" lon="12.774893238029442"><ele>486.33333333333337</ele><time>2026-04-19T13:34:15.999Z</time></trkpt><trkpt lat="43.184962297361224" lon="12.774858413787838"><ele>486.6666666666667</ele><time>2026-04-19T13:34:16.999Z</time></trkpt><trkpt lat="43.18516133514172" lon="12.774829309629498"><ele>487.0</ele><time>2026-04-19T13:34:17.999Z</time></trkpt><trkpt lat="43.185359734426235" lon="12.774805386425452"><ele>487.0</ele><time>2026-04-19T13:34:18.999Z</time></trkpt><trkpt lat="43.18556605436649" lon="12.774793653722396"><ele>487.0</ele><time>2026-04-19T13:34:19.999Z</time></trkpt><trkpt lat="43.18576417700422" lon="12.774779355215106"><ele>487.0</ele><time>2026-04-19T13:34:20.999Z</time></trkpt><trkpt lat="43.18596857316222" lon="12.774779137202334"><ele>487.6666666666667</ele><time>2026-04-19T13:34:21.999Z</time></trkpt><trkpt lat="43.1861715383146" lon="12.774780600641254"><ele>488.33333333333337</ele><time>2026-04-19T13:34:22.999Z</time></trkpt><trkpt lat="43.18637599389681" lon="12.774794669174133"><ele>489.0</ele><time>2026-04-19T13:34:23.999Z</time></trkpt><trkpt lat="43.18657738928625" lon="12.774807623224438"><ele>490.0</ele><time>2026-04-19T13:34:24.999Z</time></trkpt><trkpt lat="43.186780307657266" lon="12.774821796240232"><ele>491.0</ele><time>2026-04-19T13:34:25.999Z</time></trkpt><trkpt lat="43.18698225260757" lon="12.774835673045738"><ele>492.0</ele><time>2026-04-19T13:34:26.999Z</time></trkpt><trkpt lat="43.187182143308775" lon="12.77484935709194"><ele>493.0</ele><time>2026-04-19T13:34:27.999Z</time></trkpt><trkpt lat="43.187388411719496" lon="12.77486491231694"><ele>494.0</ele><time>2026-04-19T13:34:28.999Z</time></trkpt><trkpt lat="43.18758742155777" lon="12.77487404286238"><ele>495.0</ele><time>2026-04-19T13:34:29.999Z</time></trkpt><trkpt lat="43.187791289261384" lon="12.774879224102447"><ele>495.0</ele><time>2026-04-19T13:34:30.999Z</time></trkpt><trkpt lat="43.18799285774378" lon="12.774879041016797"><ele>495.0</ele><time>2026-04-19T13:34:32Z</time></trkpt><trkpt lat="43.188194048569066" lon="12.774872139266368"><ele>495.0</ele><time>2026-04-19T13:34:33Z</time></trkpt><trkpt lat="43.18839515966664" lon="12.77485971925055"><ele>496.0</ele><time>2026-04-19T13:34:34Z</time></trkpt><trkpt lat="43.18858950197206" lon="12.774832883765601"><ele>497.0</ele><time>2026-04-19T13:34:35Z</time></trkpt><trkpt lat="43.18879134425935" lon="12.77480039911302"><ele>498.0</ele><time>2026-04-19T13:34:36Z</time></trkpt><trkpt lat="43.18899063076652" lon="12.774758114102076"><ele>499.33333333333337</ele><time>2026-04-19T13:34:37Z</time></trkpt><trkpt lat="43.18919400419768" lon="12.774698480351583"><ele>500.6666666666667</ele><time>2026-04-19T13:34:38Z</time></trkpt><trkpt lat="43.18938752840402" lon="12.774634978808127"><ele>502.0</ele><time>2026-04-19T13:34:39Z</time></trkpt><trkpt lat="43.18959011847446" lon="12.774600019469592"><ele>502.0</ele><time>2026-04-19T13:34:40Z</time></trkpt><trkpt lat="43.18977786563699" lon="12.774487421988516"><ele>502.0</ele><time>2026-04-19T13:34:41Z</time></trkpt><trkpt lat="43.18997336560723" lon="12.774408402426618"><ele>502.0</ele><time>2026-04-19T13:34:42Z</time></trkpt><trkpt lat="43.19015861648227" lon="12.77431452064529"><ele>504.0</ele><time>2026-04-19T13:34:43Z</time></trkpt><trkpt lat="43.19035110322092" lon="12.774217472656234"><ele>506.0</ele><time>2026-04-19T13:34:44Z</time></trkpt><trkpt lat="43.19053812855301" lon="12.774111529165795"><ele>508.0</ele><time>2026-04-19T13:34:45Z</time></trkpt><trkpt lat="43.190722052281664" lon="12.773997858874532"><ele>508.0</ele><time>2026-04-19T13:34:46Z</time></trkpt><trkpt lat="43.190901500131744" lon="12.773870182404519"><ele>508.0</ele><time>2026-04-19T13:34:47Z</time></trkpt><trkpt lat="43.19108084067204" lon="12.773735770331252"><ele>508.0</ele><time>2026-04-19T13:34:48Z</time></trkpt><trkpt lat="43.191255194238984" lon="12.77359517312558"><ele>507.6666666666667</ele><time>2026-04-19T13:34:49Z</time></trkpt><trkpt lat="43.191423578620295" lon="12.77344569901375"><ele>507.33333333333337</ele><time>2026-04-19T13:34:50Z</time></trkpt><trkpt lat="43.19159509200303" lon="12.77328941900145"><ele>507.0</ele><time>2026-04-19T13:34:51Z</time></trkpt><trkpt lat="43.1917524757402" lon="12.773120621111495"><ele>507.0</ele><time>2026-04-19T13:34:52Z</time></trkpt><trkpt lat="43.19191476729803" lon="12.772950891001893"><ele>507.0</ele><time>2026-04-19T13:34:53Z</time></trkpt><trkpt lat="43.19207018821041" lon="12.77277168081031"><ele>507.0</ele><time>2026-04-19T13:34:54Z</time></trkpt><trkpt lat="43.19222313872084" lon="12.77258947615458"><ele>506.33333333333337</ele><time>2026-04-19T13:34:55Z</time></trkpt><trkpt lat="43.192372135289794" lon="12.77239946000776"><ele>505.6666666666667</ele><time>2026-04-19T13:34:56Z</time></trkpt><trkpt lat="43.192519875213385" lon="12.772208679070252"><ele>505.0</ele><time>2026-04-19T13:34:57Z</time></trkpt><trkpt lat="43.19267007881522" lon="12.772020990341547"><ele>506.0</ele><time>2026-04-19T13:34:58Z</time></trkpt><trkpt lat="43.192822437897185" lon="12.771837002934955"><ele>507.0</ele><time>2026-04-19T13:34:59Z</time></trkpt><trkpt lat="43.19297290139887" lon="12.771651531194966"><ele>508.0</ele><time>2026-04-19T13:35:00Z</time></trkpt><trkpt lat="43.193127985436305" lon="12.77146749457092"><ele>506.6666666666667</ele><time>2026-04-19T13:35:01Z</time></trkpt><trkpt lat="43.193272003951556" lon="12.771276683742743"><ele>505.33333333333337</ele><time>2026-04-19T13:35:02Z</time></trkpt><trkpt lat="43.19341989617632" lon="12.771087254896353"><ele>504.0</ele><time>2026-04-19T13:35:03Z</time></trkpt><trkpt lat="43.1935657873141" lon="12.770891857275018"><ele>502.0</ele><time>2026-04-19T13:35:04Z</time></trkpt><trkpt lat="43.19371799622181" lon="12.77070252154565"><ele>500.0</ele><time>2026-04-19T13:35:05Z</time></trkpt><trkpt lat="43.193863967499624" lon="12.770511450297697"><ele>498.0</ele><time>2026-04-19T13:35:06Z</time></trkpt><trkpt lat="43.19401272633442" lon="12.770320461197675"><ele>497.33333333333337</ele><time>2026-04-19T13:35:07Z</time></trkpt><trkpt lat="43.19415999866658" lon="12.770132105748878"><ele>496.6666666666667</ele><time>2026-04-19T13:35:08Z</time></trkpt><trkpt lat="43.19430777208238" lon="12.76994500565463"><ele>496.0</ele><time>2026-04-19T13:35:09Z</time></trkpt><trkpt lat="43.19445743346797" lon="12.76976046788981"><ele>496.0</ele><time>2026-04-19T13:35:10Z</time></trkpt><trkpt lat="43.19460369078273" lon="12.769574604406753"><ele>496.0</ele><time>2026-04-19T13:35:11Z</time></trkpt><trkpt lat="43.194752951485754" lon="12.769389297954191"><ele>496.0</ele><time>2026-04-19T13:35:12Z</time></trkpt><trkpt lat="43.194903692827424" lon="12.76920045000679"><ele>495.0</ele><time>2026-04-19T13:35:13Z</time></trkpt><trkpt lat="43.19505698446107" lon="12.769015816094969"><ele>494.0</ele><time>2026-04-19T13:35:14Z</time></trkpt><trkpt lat="43.195207669276726" lon="12.768828933233317"><ele>493.0</ele><time>2026-04-19T13:35:15Z</time></trkpt><trkpt lat="43.195354993422775" lon="12.768641254352147"><ele>493.33333333333337</ele><time>2026-04-19T13:35:16Z</time></trkpt><trkpt lat="43.19550497736882" lon="12.768458330741645"><ele>493.66666666666663</ele><time>2026-04-19T13:35:17Z</time></trkpt><trkpt lat="43.19566418076142" lon="12.76828535016248"><ele>494.0</ele><time>2026-04-19T13:35:18Z</time></trkpt><trkpt lat="43.19582171671867" lon="12.768113046509251"><ele>493.0</ele><time>2026-04-19T13:35:19Z</time></trkpt><trkpt lat="43.195974252776864" lon="12.7679368000404"><ele>492.0</ele><time>2026-04-19T13:35:20Z</time></trkpt><trkpt lat="43.19612961844192" lon="12.767761838578764"><ele>491.0</ele><time>2026-04-19T13:35:20.999Z</time></trkpt><trkpt lat="43.19629461512037" lon="12.767595122420481"><ele>492.3333333333333</ele><time>2026-04-19T13:35:21.999Z</time></trkpt><trkpt lat="43.196460649143816" lon="12.767431732487227"><ele>493.66666666666663</ele><time>2026-04-19T13:35:22.999Z</time></trkpt><trkpt lat="43.19662726582224" lon="12.7672697216363"><ele>495.0</ele><time>2026-04-19T13:35:23.999Z</time></trkpt><trkpt lat="43.19679589735669" lon="12.767106242321782"><ele>495.0</ele><time>2026-04-19T13:35:24.999Z</time></trkpt><trkpt lat="43.19696460329403" lon="12.76695081969647"><ele>495.0</ele><time>2026-04-19T13:35:25.999Z</time></trkpt><trkpt lat="43.197131395432095" lon="12.766801098638613"><ele>495.0</ele><time>2026-04-19T13:35:26.999Z</time></trkpt><trkpt lat="43.19729896306413" lon="12.766650849211183"><ele>493.66666666666663</ele><time>2026-04-19T13:35:27.999Z</time></trkpt><trkpt lat="43.19746686713244" lon="12.766499679858581"><ele>492.3333333333333</ele><time>2026-04-19T13:35:28.999Z</time></trkpt><trkpt lat="43.197632898300796" lon="12.766347828922676"><ele>491.0</ele><time>2026-04-19T13:35:29.999Z</time></trkpt><trkpt lat="43.197804650330795" lon="12.766200629573198"><ele>491.0</ele><time>2026-04-19T13:35:30.999Z</time></trkpt><trkpt lat="43.19798052633769" lon="12.766056683295025"><ele>491.0</ele><time>2026-04-19T13:35:31.999Z</time></trkpt><trkpt lat="43.198158754953134" lon="12.765915104048029"><ele>491.0</ele><time>2026-04-19T13:35:32.999Z</time></trkpt><trkpt lat="43.19833219506105" lon="12.765775573006824"><ele>489.3333333333333</ele><time>2026-04-19T13:35:33.999Z</time></trkpt><trkpt lat="43.19850805638657" lon="12.765638975992395"><ele>487.66666666666663</ele><time>2026-04-19T13:35:34.999Z</time></trkpt><trkpt lat="43.198687490058056" lon="12.765513108105168"><ele>486.0</ele><time>2026-04-19T13:35:35.999Z</time></trkpt><trkpt lat="43.19886993910837" lon="12.76539026547075"><ele>485.66666666666663</ele><time>2026-04-19T13:35:36.999Z</time></trkpt><trkpt lat="43.199047117096065" lon="12.765262839032042"><ele>485.3333333333333</ele><time>2026-04-19T13:35:37.999Z</time></trkpt><trkpt lat="43.199227857510735" lon="12.765137060205037"><ele>485.0</ele><time>2026-04-19T13:35:38.999Z</time></trkpt><trkpt lat="43.1994119539414" lon="12.765015807673281"><ele>485.0</ele><time>2026-04-19T13:35:39.999Z</time></trkpt><trkpt lat="43.19959364891939" lon="12.76489870938051"><ele>485.0</ele><time>2026-04-19T13:35:40.999Z</time></trkpt><trkpt lat="43.199782317605575" lon="12.764782379433544"><ele>485.0</ele><time>2026-04-19T13:35:41.999Z</time></trkpt><trkpt lat="43.199961137669895" lon="12.764665575763905"><ele>485.0</ele><time>2026-04-19T13:35:42.999Z</time></trkpt><trkpt lat="43.200148337750576" lon="12.764556043703053"><ele>485.0</ele><time>2026-04-19T13:35:43.999Z</time></trkpt><trkpt lat="43.200326010441735" lon="12.764433569296186"><ele>485.0</ele><time>2026-04-19T13:35:44.999Z</time></trkpt><trkpt lat="43.200518128566614" lon="12.76433774822732"><ele>484.3333333333333</ele><time>2026-04-19T13:35:45.999Z</time></trkpt><trkpt lat="43.2007116047395" lon="12.7642370955852"><ele>483.66666666666663</ele><time>2026-04-19T13:35:46.999Z</time></trkpt><trkpt lat="43.20090595381656" lon="12.7641416465353"><ele>483.0</ele><time>2026-04-19T13:35:47.999Z</time></trkpt><trkpt lat="43.201097804639375" lon="12.76404954400324"><ele>483.0</ele><time>2026-04-19T13:35:48.999Z</time></trkpt><trkpt lat="43.20129248083941" lon="12.763958981742796"><ele>483.0</ele><time>2026-04-19T13:35:49.999Z</time></trkpt><trkpt lat="43.201494005069705" lon="12.763869312216412"><ele>483.0</ele><time>2026-04-19T13:35:50.999Z</time></trkpt><trkpt lat="43.20170414024007" lon="12.763778449485336"><ele>482.33333333333337</ele><time>2026-04-19T13:35:51.999Z</time></trkpt><trkpt lat="43.20192369380509" lon="12.763682292190099"><ele>481.6666666666667</ele><time>2026-04-19T13:35:52.999Z</time></trkpt><trkpt lat="43.20205919346992" lon="12.763608020904714"><ele>481.0</ele><time>2026-04-19T13:35:53.999Z</time></trkpt><trkpt lat="43.20225947393091" lon="12.763513131275106"><ele>480.6666666666667</ele><time>2026-04-19T13:35:54.999Z</time></trkpt><trkpt lat="43.20245355509374" lon="12.76343233986241"><ele>480.33333333333337</ele><time>2026-04-19T13:35:55.999Z</time></trkpt><trkpt lat="43.20264901065447" lon="12.763350087672853"><ele>480.0</ele><time>2026-04-19T13:35:56.999Z</time></trkpt><trkpt lat="43.202846891514646" lon="12.763264914763784"><ele>480.0</ele><time>2026-04-19T13:35:57.999Z</time></trkpt><trkpt lat="43.20302257062211" lon="12.763173022251067"><ele>480.0</ele><time>2026-04-19T13:35:58.999Z</time></trkpt><trkpt lat="43.203213364075566" lon="12.763084848279123"><ele>480.0</ele><time>2026-04-19T13:35:59.999Z</time></trkpt><trkpt lat="43.20340374789516" lon="12.762997580502761"><ele>479.66666666666663</ele><time>2026-04-19T13:36:00.999Z</time></trkpt><trkpt lat="43.20359319117836" lon="12.762906741603326"><ele>479.3333333333333</ele><time>2026-04-19T13:36:01.999Z</time></trkpt><trkpt lat="43.20378078331237" lon="12.762813674992229"><ele>479.0</ele><time>2026-04-19T13:36:02.999Z</time></trkpt><trkpt lat="43.20396783326878" lon="12.762708302046175"><ele>477.66666666666663</ele><time>2026-04-19T13:36:03.999Z</time></trkpt><trkpt lat="43.20415177000549" lon="12.76260232037282"><ele>476.33333333333337</ele><time>2026-04-19T13:36:04.999Z</time></trkpt><trkpt lat="43.20433891371229" lon="12.762477536322262"><ele>475.0</ele><time>2026-04-19T13:36:05.999Z</time></trkpt><trkpt lat="43.204520618014854" lon="12.762349795026381"><ele>475.0</ele><time>2026-04-19T13:36:06.999Z</time></trkpt><trkpt lat="43.20469820260589" lon="12.76221878083282"><ele>475.0</ele><time>2026-04-19T13:36:07.999Z</time></trkpt><trkpt lat="43.20487786369073" lon="12.76208897207333"><ele>475.0</ele><time>2026-04-19T13:36:08.999Z</time></trkpt><trkpt lat="43.205053204651584" lon="12.761961288991406"><ele>479.0</ele><time>2026-04-19T13:36:09.999Z</time></trkpt><trkpt lat="43.205226433157996" lon="12.76183690813353"><ele>483.0</ele><time>2026-04-19T13:36:10.999Z</time></trkpt><trkpt lat="43.20540402627157" lon="12.761710988195984"><ele>487.0</ele><time>2026-04-19T13:36:11.999Z</time></trkpt><trkpt lat="43.20558162257884" lon="12.761577742574133"><ele>485.33333333333337</ele><time>2026-04-19T13:36:12.999Z</time></trkpt><trkpt lat="43.205761134931954" lon="12.761442955155173"><ele>483.66666666666663</ele><time>2026-04-19T13:36:13.999Z</time></trkpt><trkpt lat="43.205941362900404" lon="12.761310741270544"><ele>482.0</ele><time>2026-04-19T13:36:14.999Z</time></trkpt><trkpt lat="43.20611876538231" lon="12.761181514481565"><ele>482.0</ele><time>2026-04-19T13:36:15.999Z</time></trkpt><trkpt lat="43.20629769028365" lon="12.761048023281623"><ele>482.0</ele><time>2026-04-19T13:36:16.999Z</time></trkpt><trkpt lat="43.20647824384998" lon="12.760920216900738"><ele>482.0</ele><time>2026-04-19T13:36:17.999Z</time></trkpt><trkpt lat="43.20666070320898" lon="12.76078913020118"><ele>483.3333333333333</ele><time>2026-04-19T13:36:18.999Z</time></trkpt><trkpt lat="43.20684113472394" lon="12.76065795873441"><ele>484.66666666666663</ele><time>2026-04-19T13:36:19.999Z</time></trkpt><trkpt lat="43.20702409860133" lon="12.760530157756648"><ele>486.0</ele><time>2026-04-19T13:36:20.999Z</time></trkpt><trkpt lat="43.20719721312461" lon="12.760408039339973"><ele>488.33333333333337</ele><time>2026-04-19T13:36:21.999Z</time></trkpt><trkpt lat="43.20737712365447" lon="12.76027929284492"><ele>490.6666666666667</ele><time>2026-04-19T13:36:22.999Z</time></trkpt><trkpt lat="43.20755471864007" lon="12.760155398011959"><ele>493.0</ele><time>2026-04-19T13:36:23.999Z</time></trkpt><trkpt lat="43.20773157345522" lon="12.760031328351516"><ele>493.0</ele><time>2026-04-19T13:36:24.999Z</time></trkpt><trkpt lat="43.2079160807166" lon="12.759902955473084"><ele>493.0</ele><time>2026-04-19T13:36:25.999Z</time></trkpt><trkpt lat="43.20811408191078" lon="12.759786452355577"><ele>493.0</ele><time>2026-04-19T13:36:26.999Z</time></trkpt><trkpt lat="43.20828346585407" lon="12.759628057056059"><ele>489.33333333333337</ele><time>2026-04-19T13:36:27.999Z</time></trkpt><trkpt lat="43.20846504321009" lon="12.759509102844655"><ele>485.66666666666663</ele><time>2026-04-19T13:36:28.999Z</time></trkpt><trkpt lat="43.208650459761905" lon="12.759401542713228"><ele>482.0</ele><time>2026-04-19T13:36:29.999Z</time></trkpt><trkpt lat="43.20884181441252" lon="12.759293402851728"><ele>479.3333333333333</ele><time>2026-04-19T13:36:30.999Z</time></trkpt><trkpt lat="43.20903202257076" lon="12.759191402032744"><ele>476.66666666666663</ele><time>2026-04-19T13:36:31.999Z</time></trkpt><trkpt lat="43.20922061563958" lon="12.759090517030737"><ele>474.0</ele><time>2026-04-19T13:36:32.999Z</time></trkpt><trkpt lat="43.2094133290789" lon="12.758992422830266"><ele>474.0</ele><time>2026-04-19T13:36:33.999Z</time></trkpt><trkpt lat="43.20960396544846" lon="12.758893951670332"><ele>474.0</ele><time>2026-04-19T13:36:34.999Z</time></trkpt><trkpt lat="43.20979464903391" lon="12.75880402028472"><ele>474.0</ele><time>2026-04-19T13:36:35.999Z</time></trkpt><trkpt lat="43.20998474501955" lon="12.758719590039858"><ele>475.0</ele><time>2026-04-19T13:36:37Z</time></trkpt><trkpt lat="43.21017956022708" lon="12.758644001821393"><ele>476.0</ele><time>2026-04-19T13:36:38Z</time></trkpt><trkpt lat="43.210370676354515" lon="12.758565116095815"><ele>477.0</ele><time>2026-04-19T13:36:39Z</time></trkpt><trkpt lat="43.2105680646708" lon="12.758488230525174"><ele>473.66666666666663</ele><time>2026-04-19T13:36:40Z</time></trkpt><trkpt lat="43.210765038807054" lon="12.75841775258307"><ele>470.3333333333333</ele><time>2026-04-19T13:36:41Z</time></trkpt><trkpt lat="43.210962517385475" lon="12.758348643744807"><ele>467.0</ele><time>2026-04-19T13:36:42Z</time></trkpt><trkpt lat="43.21116220506022" lon="12.75828834412079"><ele>467.0</ele><time>2026-04-19T13:36:43Z</time></trkpt><trkpt lat="43.21135713231386" lon="12.75822648533609"><ele>467.0</ele><time>2026-04-19T13:36:44Z</time></trkpt><trkpt lat="43.211554858180904" lon="12.758171731104685"><ele>467.0</ele><time>2026-04-19T13:36:45Z</time></trkpt><trkpt lat="43.211748290808416" lon="12.758119518734947"><ele>467.0</ele><time>2026-04-19T13:36:46Z</time></trkpt><trkpt lat="43.21194946554658" lon="12.758073714526056"><ele>467.0</ele><time>2026-04-19T13:36:47Z</time></trkpt><trkpt lat="43.212148211908485" lon="12.758033867055879"><ele>467.0</ele><time>2026-04-19T13:36:48Z</time></trkpt><trkpt lat="43.21234904197573" lon="12.75799990268056"><ele>467.0</ele><time>2026-04-19T13:36:49Z</time></trkpt><trkpt lat="43.21255515598143" lon="12.757969123456085"><ele>467.0</ele><time>2026-04-19T13:36:50Z</time></trkpt><trkpt lat="43.212753884737346" lon="12.757940233155074"><ele>467.0</ele><time>2026-04-19T13:36:51Z</time></trkpt><trkpt lat="43.21295711364478" lon="12.757921317844268"><ele>467.0</ele><time>2026-04-19T13:36:52Z</time></trkpt><trkpt lat="43.213156808401344" lon="12.757901569273951"><ele>467.0</ele><time>2026-04-19T13:36:53Z</time></trkpt><trkpt lat="43.21335891541256" lon="12.757883427956658"><ele>467.0</ele><time>2026-04-19T13:36:54Z</time></trkpt><trkpt lat="43.21356248388863" lon="12.757866342311743"><ele>467.0</ele><time>2026-04-19T13:36:55Z</time></trkpt><trkpt lat="43.21376433711166" lon="12.757851976443247"><ele>467.0</ele><time>2026-04-19T13:36:56Z</time></trkpt><trkpt lat="43.21396477249895" lon="12.757834512059242"><ele>467.0</ele><time>2026-04-19T13:36:57Z</time></trkpt><trkpt lat="43.21417097102105" lon="12.757817496938587"><ele>466.66666666666663</ele><time>2026-04-19T13:36:58Z</time></trkpt><trkpt lat="43.214373959928466" lon="12.757799366497611"><ele>466.33333333333337</ele><time>2026-04-19T13:36:59Z</time></trkpt><trkpt lat="43.21457955633115" lon="12.757779678809724"><ele>466.0</ele><time>2026-04-19T13:37:00Z</time></trkpt><trkpt lat="43.214784162781854" lon="12.757762443518251"><ele>466.0</ele><time>2026-04-19T13:37:01Z</time></trkpt><trkpt lat="43.21498420147386" lon="12.757753146503774"><ele>466.0</ele><time>2026-04-19T13:37:02Z</time></trkpt><trkpt lat="43.21518923233093" lon="12.757743500116774"><ele>466.0</ele><time>2026-04-19T13:37:03Z</time></trkpt><trkpt lat="43.2153908232789" lon="12.757730864074457"><ele>466.0</ele><time>2026-04-19T13:37:04Z</time></trkpt><trkpt lat="43.21559310758782" lon="12.757718244052073"><ele>466.0</ele><time>2026-04-19T13:37:05Z</time></trkpt><trkpt lat="43.21578879506032" lon="12.757707442896631"><ele>466.0</ele><time>2026-04-19T13:37:06Z</time></trkpt><trkpt lat="43.21599561305128" lon="12.757684122453732"><ele>466.0</ele><time>2026-04-19T13:37:07Z</time></trkpt><trkpt lat="43.21619380338241" lon="12.75767162362315"><ele>466.0</ele><time>2026-04-19T13:37:08Z</time></trkpt><trkpt lat="43.21639860657433" lon="12.757656912708429"><ele>466.0</ele><time>2026-04-19T13:37:09Z</time></trkpt><trkpt lat="43.216601532046745" lon="12.757641558656182"><ele>466.0</ele><time>2026-04-19T13:37:10Z</time></trkpt><trkpt lat="43.2168075008739" lon="12.757623310360357"><ele>466.0</ele><time>2026-04-19T13:37:11Z</time></trkpt><trkpt lat="43.21700896927934" lon="12.757608616099398"><ele>466.0</ele><time>2026-04-19T13:37:12Z</time></trkpt><trkpt lat="43.21720963826107" lon="12.757594202699757"><ele>465.0</ele><time>2026-04-19T13:37:13Z</time></trkpt><trkpt lat="43.2174258626344" lon="12.757599272453039"><ele>464.0</ele><time>2026-04-19T13:37:14Z</time></trkpt><trkpt lat="43.21761946590216" lon="12.75756986401383"><ele>463.0</ele><time>2026-04-19T13:37:15Z</time></trkpt><trkpt lat="43.21782134110564" lon="12.757557685716998"><ele>463.0</ele><time>2026-04-19T13:37:16Z</time></trkpt><trkpt lat="43.21802517244389" lon="12.757546175948272"><ele>463.0</ele><time>2026-04-19T13:37:17Z</time></trkpt><trkpt lat="43.21820300640089" lon="12.757546017366826"><ele>463.0</ele><time>2026-04-19T13:37:18Z</time></trkpt><trkpt lat="43.21838941835852" lon="12.757546965667675"><ele>463.0</ele><time>2026-04-19T13:37:19Z</time></trkpt><trkpt lat="43.218624885966676" lon="12.757510992895261"><ele>463.0</ele><time>2026-04-19T13:37:20Z</time></trkpt><trkpt lat="43.218831593747666" lon="12.75749212870689"><ele>463.0</ele><time>2026-04-19T13:37:20.999Z</time></trkpt><trkpt lat="43.21904109336881" lon="12.757466149629177"><ele>463.0</ele><time>2026-04-19T13:37:21.999Z</time></trkpt><trkpt lat="43.219241976967524" lon="12.757463515097296"><ele>463.0</ele><time>2026-04-19T13:37:22.999Z</time></trkpt><trkpt lat="43.21944389050663" lon="12.757446309536432"><ele>463.0</ele><time>2026-04-19T13:37:23.999Z</time></trkpt><trkpt lat="43.21964221744544" lon="12.75742699536079"><ele>462.33333333333337</ele><time>2026-04-19T13:37:24.999Z</time></trkpt><trkpt lat="43.21984468410588" lon="12.757402744881293"><ele>461.66666666666663</ele><time>2026-04-19T13:37:25.999Z</time></trkpt><trkpt lat="43.22004757870995" lon="12.757379434726593"><ele>461.0</ele><time>2026-04-19T13:37:26.999Z</time></trkpt><trkpt lat="43.220248243930186" lon="12.757356507421884"><ele>461.0</ele><time>2026-04-19T13:37:27.999Z</time></trkpt><trkpt lat="43.22045348313773" lon="12.757327667235462"><ele>461.0</ele><time>2026-04-19T13:37:28.999Z</time></trkpt><trkpt lat="43.220658004169955" lon="12.757283115066295"><ele>461.0</ele><time>2026-04-19T13:37:29.999Z</time></trkpt><trkpt lat="43.2208590392494" lon="12.757236929169101"><ele>458.66666666666663</ele><time>2026-04-19T13:37:30.999Z</time></trkpt><trkpt lat="43.221055457252135" lon="12.757187208244885"><ele>456.33333333333337</ele><time>2026-04-19T13:37:31.999Z</time></trkpt><trkpt lat="43.22125310624552" lon="12.757132102912978"><ele>454.0</ele><time>2026-04-19T13:37:32.999Z</time></trkpt><trkpt lat="43.22144649174709" lon="12.757068489063665"><ele>454.0</ele><time>2026-04-19T13:37:33.999Z</time></trkpt><trkpt lat="43.221643131420365" lon="12.75700306252985"><ele>454.0</ele><time>2026-04-19T13:37:34.999Z</time></trkpt><trkpt lat="43.221838212568045" lon="12.756921743363213"><ele>454.0</ele><time>2026-04-19T13:37:35.999Z</time></trkpt><trkpt lat="43.22203324091264" lon="12.756837493915695"><ele>454.0</ele><time>2026-04-19T13:37:36.999Z</time></trkpt><trkpt lat="43.22222557929599" lon="12.756748348203885"><ele>454.0</ele><time>2026-04-19T13:37:37.999Z</time></trkpt><trkpt lat="43.22241641606825" lon="12.756656036229057"><ele>454.0</ele><time>2026-04-19T13:37:38.999Z</time></trkpt><trkpt lat="43.22260767769793" lon="12.756557348530151"><ele>453.33333333333337</ele><time>2026-04-19T13:37:39.999Z</time></trkpt><trkpt lat="43.22279474020838" lon="12.756461890766962"><ele>452.66666666666663</ele><time>2026-04-19T13:37:40.999Z</time></trkpt><trkpt lat="43.22298318230301" lon="12.7563698191951"><ele>452.0</ele><time>2026-04-19T13:37:41.999Z</time></trkpt><trkpt lat="43.22317415941891" lon="12.75627786128306"><ele>452.0</ele><time>2026-04-19T13:37:42.999Z</time></trkpt><trkpt lat="43.2233615845412" lon="12.756182406459732"><ele>452.0</ele><time>2026-04-19T13:37:43.999Z</time></trkpt><trkpt lat="43.223554073764504" lon="12.756088483704396"><ele>452.0</ele><time>2026-04-19T13:37:44.999Z</time></trkpt><trkpt lat="43.223741809449734" lon="12.755991821118744"><ele>451.0</ele><time>2026-04-19T13:37:45.999Z</time></trkpt><trkpt lat="43.22392954012377" lon="12.755893162471835"><ele>450.0</ele><time>2026-04-19T13:37:46.999Z</time></trkpt><trkpt lat="43.224120009653824" lon="12.755795999052769"><ele>449.0</ele><time>2026-04-19T13:37:47.999Z</time></trkpt><trkpt lat="43.224308676285844" lon="12.755699573397925"><ele>452.0</ele><time>2026-04-19T13:37:48.999Z</time></trkpt><trkpt lat="43.22449648009022" lon="12.755604462789531"><ele>455.0</ele><time>2026-04-19T13:37:49.999Z</time></trkpt><trkpt lat="43.224688366376014" lon="12.755508915222338"><ele>458.0</ele><time>2026-04-19T13:37:50.999Z</time></trkpt><trkpt lat="43.22487696468984" lon="12.755408145773865"><ele>457.3333333333333</ele><time>2026-04-19T13:37:51.999Z</time></trkpt><trkpt lat="43.22506487064699" lon="12.755306649205878"><ele>456.66666666666663</ele><time>2026-04-19T13:37:52.999Z</time></trkpt><trkpt lat="43.22525708374121" lon="12.755214195093888"><ele>456.0</ele><time>2026-04-19T13:37:53.999Z</time></trkpt><trkpt lat="43.22544540092273" lon="12.755115216378588"><ele>456.0</ele><time>2026-04-19T13:37:54.999Z</time></trkpt><trkpt lat="43.22564120850473" lon="12.755044812787379"><ele>456.0</ele><time>2026-04-19T13:37:55.999Z</time></trkpt><trkpt lat="43.22583809246496" lon="12.754969134594251"><ele>456.0</ele><time>2026-04-19T13:37:56.999Z</time></trkpt><trkpt lat="43.22603449857634" lon="12.754898533204226"><ele>456.33333333333337</ele><time>2026-04-19T13:37:57.999Z</time></trkpt><trkpt lat="43.22623152175774" lon="12.754830986063656"><ele>456.6666666666667</ele><time>2026-04-19T13:37:58.999Z</time></trkpt><trkpt lat="43.22643140118538" lon="12.75477283222241"><ele>457.0</ele><time>2026-04-19T13:37:59.999Z</time></trkpt><trkpt lat="43.22662872158654" lon="12.754713283961934"><ele>459.0</ele><time>2026-04-19T13:38:00.999Z</time></trkpt><trkpt lat="43.226827938889144" lon="12.754658387679902"><ele>461.0</ele><time>2026-04-19T13:38:01.999Z</time></trkpt><trkpt lat="43.227026800505584" lon="12.754621907487328"><ele>463.0</ele><time>2026-04-19T13:38:02.999Z</time></trkpt><trkpt lat="43.22722582396773" lon="12.754589170331018"><ele>464.0</ele><time>2026-04-19T13:38:03.999Z</time></trkpt><trkpt lat="43.22742854436885" lon="12.754555765183353"><ele>465.0</ele><time>2026-04-19T13:38:04.999Z</time></trkpt><trkpt lat="43.22763124865302" lon="12.75452373712991"><ele>466.0</ele><time>2026-04-19T13:38:05.999Z</time></trkpt><trkpt lat="43.22783354136718" lon="12.754502247181518"><ele>466.0</ele><time>2026-04-19T13:38:06.999Z</time></trkpt><trkpt lat="43.22803604621078" lon="12.754494431876624"><ele>466.0</ele><time>2026-04-19T13:38:07.999Z</time></trkpt><trkpt lat="43.22823952748889" lon="12.754483337738108"><ele>466.0</ele><time>2026-04-19T13:38:08.999Z</time></trkpt><trkpt lat="43.22844460075875" lon="12.75448494301356"><ele>463.33333333333337</ele><time>2026-04-19T13:38:09.999Z</time></trkpt><trkpt lat="43.228649295113854" lon="12.75449160613416"><ele>460.66666666666663</ele><time>2026-04-19T13:38:10.999Z</time></trkpt><trkpt lat="43.228849131761564" lon="12.754504552074069"><ele>458.0</ele><time>2026-04-19T13:38:11.999Z</time></trkpt><trkpt lat="43.229050286450324" lon="12.754522866593968"><ele>454.3333333333333</ele><time>2026-04-19T13:38:12.999Z</time></trkpt><trkpt lat="43.22925503348817" lon="12.754533593640732"><ele>450.66666666666663</ele><time>2026-04-19T13:38:13.999Z</time></trkpt><trkpt lat="43.22946038147345" lon="12.754542859827367"><ele>447.0</ele><time>2026-04-19T13:38:14.999Z</time></trkpt><trkpt lat="43.22966099853371" lon="12.754567145869364"><ele>447.33333333333337</ele><time>2026-04-19T13:38:15.999Z</time></trkpt><trkpt lat="43.22985916537758" lon="12.754579450153555"><ele>447.6666666666667</ele><time>2026-04-19T13:38:16.999Z</time></trkpt><trkpt lat="43.2300645471475" lon="12.754595552902666"><ele>448.0</ele><time>2026-04-19T13:38:17.999Z</time></trkpt><trkpt lat="43.23026654937568" lon="12.754606229991031"><ele>448.0</ele><time>2026-04-19T13:38:18.999Z</time></trkpt><trkpt lat="43.230468584496606" lon="12.754618590954443"><ele>448.0</ele><time>2026-04-19T13:38:19.999Z</time></trkpt><trkpt lat="43.23067239477625" lon="12.754632928610171"><ele>448.0</ele><time>2026-04-19T13:38:20.999Z</time></trkpt><trkpt lat="43.23087263911313" lon="12.75464932781868"><ele>448.0</ele><time>2026-04-19T13:38:21.999Z</time></trkpt><trkpt lat="43.23107633296321" lon="12.754664446658499"><ele>448.0</ele><time>2026-04-19T13:38:22.999Z</time></trkpt><trkpt lat="43.23127683804358" lon="12.754684530776704"><ele>448.0</ele><time>2026-04-19T13:38:23.999Z</time></trkpt><trkpt lat="43.23147912027135" lon="12.754700734046528"><ele>448.0</ele><time>2026-04-19T13:38:24.999Z</time></trkpt><trkpt lat="43.231681646630854" lon="12.754718823228494"><ele>448.0</ele><time>2026-04-19T13:38:25.999Z</time></trkpt><trkpt lat="43.23188564031153" lon="12.754732573045771"><ele>448.0</ele><time>2026-04-19T13:38:26.999Z</time></trkpt><trkpt lat="43.232085715486626" lon="12.754750133749196"><ele>448.0</ele><time>2026-04-19T13:38:27.999Z</time></trkpt><trkpt lat="43.232290521036326" lon="12.754760334789909"><ele>448.0</ele><time>2026-04-19T13:38:28.999Z</time></trkpt><trkpt lat="43.232491260517506" lon="12.75477956533021"><ele>448.0</ele><time>2026-04-19T13:38:29.999Z</time></trkpt><trkpt lat="43.23269430269043" lon="12.754797699301257"><ele>447.33333333333337</ele><time>2026-04-19T13:38:30.999Z</time></trkpt><trkpt lat="43.232899687406906" lon="12.754814351561304"><ele>446.66666666666663</ele><time>2026-04-19T13:38:31.999Z</time></trkpt><trkpt lat="43.23310155714263" lon="12.754828284460352"><ele>446.0</ele><time>2026-04-19T13:38:32.999Z</time></trkpt><trkpt lat="43.23330454631286" lon="12.754843046282298"><ele>445.3333333333333</ele><time>2026-04-19T13:38:33.999Z</time></trkpt><trkpt lat="43.23350337295" lon="12.754861398976395"><ele>444.66666666666663</ele><time>2026-04-19T13:38:34.999Z</time></trkpt><trkpt lat="43.23370198883418" lon="12.754877523063591"><ele>444.0</ele><time>2026-04-19T13:38:35.999Z</time></trkpt><trkpt lat="43.23390596438688" lon="12.754892304815897"><ele>444.33333333333337</ele><time>2026-04-19T13:38:36.999Z</time></trkpt><trkpt lat="43.23410722563357" lon="12.754907047876388"><ele>444.6666666666667</ele><time>2026-04-19T13:38:37.999Z</time></trkpt><trkpt lat="43.23431120493929" lon="12.754922607002435"><ele>445.0</ele><time>2026-04-19T13:38:38.999Z</time></trkpt><trkpt lat="43.23451472032093" lon="12.754938140341801"><ele>445.0</ele><time>2026-04-19T13:38:39.999Z</time></trkpt><trkpt lat="43.234720044595655" lon="12.754957320447426"><ele>445.0</ele><time>2026-04-19T13:38:40.999Z</time></trkpt><trkpt lat="43.234921006432536" lon="12.754972803554418"><ele>445.0</ele><time>2026-04-19T13:38:42Z</time></trkpt><trkpt lat="43.23512120660217" lon="12.75498958243723"><ele>444.6666666666667</ele><time>2026-04-19T13:38:43Z</time></trkpt><trkpt lat="43.23532420117625" lon="12.755006281792776"><ele>444.33333333333337</ele><time>2026-04-19T13:38:44Z</time></trkpt><trkpt lat="43.23552771077806" lon="12.755024182881892"><ele>444.0</ele><time>2026-04-19T13:38:45Z</time></trkpt><trkpt lat="43.235733841506374" lon="12.755042928752646"><ele>443.66666666666663</ele><time>2026-04-19T13:38:46Z</time></trkpt><trkpt lat="43.23592716165544" lon="12.755051515692635"><ele>443.3333333333333</ele><time>2026-04-19T13:38:47Z</time></trkpt><trkpt lat="43.236133419607064" lon="12.755062897311328"><ele>443.0</ele><time>2026-04-19T13:38:48Z</time></trkpt><trkpt lat="43.23633455311077" lon="12.755074715203543"><ele>444.3333333333333</ele><time>2026-04-19T13:38:49Z</time></trkpt><trkpt lat="43.23653840873669" lon="12.755089259778611"><ele>445.66666666666663</ele><time>2026-04-19T13:38:50Z</time></trkpt><trkpt lat="43.23674451976246" lon="12.755103577594276"><ele>447.0</ele><time>2026-04-19T13:38:51Z</time></trkpt><trkpt lat="43.23695049848308" lon="12.755121920481997"><ele>447.0</ele><time>2026-04-19T13:38:52Z</time></trkpt><trkpt lat="43.23714854405003" lon="12.755138475935176"><ele>447.0</ele><time>2026-04-19T13:38:53Z</time></trkpt><trkpt lat="43.237351397279" lon="12.755160761600473"><ele>447.0</ele><time>2026-04-19T13:38:54Z</time></trkpt><trkpt lat="43.237552671600675" lon="12.755177959105923"><ele>447.0</ele><time>2026-04-19T13:38:55Z</time></trkpt><trkpt lat="43.237755998087" lon="12.755183810425988"><ele>447.0</ele><time>2026-04-19T13:38:56Z</time></trkpt><trkpt lat="43.23796182881722" lon="12.75519616014739"><ele>447.0</ele><time>2026-04-19T13:38:57Z</time></trkpt><trkpt lat="43.23816507267925" lon="12.755204275139748"><ele>447.0</ele><time>2026-04-19T13:38:58Z</time></trkpt><trkpt lat="43.23836877749406" lon="12.755205539340668"><ele>447.0</ele><time>2026-04-19T13:38:59Z</time></trkpt><trkpt lat="43.238572709575195" lon="12.755192434984764"><ele>447.0</ele><time>2026-04-19T13:39:00Z</time></trkpt><trkpt lat="43.238774088236795" lon="12.755178872886635"><ele>446.0</ele><time>2026-04-19T13:39:01Z</time></trkpt><trkpt lat="43.23897284579556" lon="12.755164469067303"><ele>445.0</ele><time>2026-04-19T13:39:02Z</time></trkpt><trkpt lat="43.23917534874028" lon="12.755141204525106"><ele>444.0</ele><time>2026-04-19T13:39:03Z</time></trkpt><trkpt lat="43.23937677016644" lon="12.755108662108587"><ele>444.0</ele><time>2026-04-19T13:39:04Z</time></trkpt><trkpt lat="43.23957580601601" lon="12.755071417352704"><ele>444.0</ele><time>2026-04-19T13:39:05Z</time></trkpt><trkpt lat="43.23977998888306" lon="12.755041891066924"><ele>444.0</ele><time>2026-04-19T13:39:06Z</time></trkpt><trkpt lat="43.23998067588679" lon="12.755011329494529"><ele>443.33333333333337</ele><time>2026-04-19T13:39:07Z</time></trkpt><trkpt lat="43.240178581448184" lon="12.754971283355596"><ele>442.6666666666667</ele><time>2026-04-19T13:39:08Z</time></trkpt><trkpt lat="43.24038107635801" lon="12.754922244955436"><ele>442.0</ele><time>2026-04-19T13:39:09Z</time></trkpt><trkpt lat="43.24058073216234" lon="12.754876308124427"><ele>442.0</ele><time>2026-04-19T13:39:10Z</time></trkpt><trkpt lat="43.24077990111482" lon="12.75483027808154"><ele>442.0</ele><time>2026-04-19T13:39:11Z</time></trkpt><trkpt lat="43.240980922004226" lon="12.754789146052815"><ele>442.0</ele><time>2026-04-19T13:39:12Z</time></trkpt><trkpt lat="43.24118441069009" lon="12.754748939586424"><ele>442.0</ele><time>2026-04-19T13:39:13Z</time></trkpt><trkpt lat="43.24138389433388" lon="12.754707910327626"><ele>442.0</ele><time>2026-04-19T13:39:14Z</time></trkpt><trkpt lat="43.24158743541611" lon="12.75466986414658"><ele>442.0</ele><time>2026-04-19T13:39:15Z</time></trkpt><trkpt lat="43.241785398648226" lon="12.75462373340452"><ele>440.6666666666667</ele><time>2026-04-19T13:39:16Z</time></trkpt><trkpt lat="43.24198789809265" lon="12.754577718917774"><ele>439.33333333333337</ele><time>2026-04-19T13:39:17Z</time></trkpt><trkpt lat="43.24218382787366" lon="12.75453016375521"><ele>438.0</ele><time>2026-04-19T13:39:18Z</time></trkpt><trkpt lat="43.24238249760633" lon="12.754484118133396"><ele>438.0</ele><time>2026-04-19T13:39:18.999Z</time></trkpt><trkpt lat="43.24258262038994" lon="12.754447905788773"><ele>438.0</ele><time>2026-04-19T13:39:19.999Z</time></trkpt><trkpt lat="43.242783392363286" lon="12.754399577062213"><ele>438.0</ele><time>2026-04-19T13:39:20.999Z</time></trkpt><trkpt lat="43.24298681541546" lon="12.754367000738242"><ele>435.33333333333337</ele><time>2026-04-19T13:39:21.999Z</time></trkpt><trkpt lat="43.24318901572638" lon="12.754338886174505"><ele>432.6666666666667</ele><time>2026-04-19T13:39:22.999Z</time></trkpt><trkpt lat="43.24339182927071" lon="12.754306937593126"><ele>430.0</ele><time>2026-04-19T13:39:23.999Z</time></trkpt><trkpt lat="43.243594653749646" lon="12.754280850352137"><ele>430.0</ele><time>2026-04-19T13:39:24.999Z</time></trkpt><trkpt lat="43.243796377645594" lon="12.754247406188377"><ele>430.0</ele><time>2026-04-19T13:39:25.999Z</time></trkpt><trkpt lat="43.243992942286916" lon="12.754219060364985"><ele>430.0</ele><time>2026-04-19T13:39:26.999Z</time></trkpt><trkpt lat="43.24419523544427" lon="12.754193835840864"><ele>429.6666666666667</ele><time>2026-04-19T13:39:27.999Z</time></trkpt><trkpt lat="43.24439974586554" lon="12.754178752805425"><ele>429.33333333333337</ele><time>2026-04-19T13:39:28.999Z</time></trkpt><trkpt lat="43.24460063837836" lon="12.75416769834309"><ele>429.0</ele><time>2026-04-19T13:39:29.999Z</time></trkpt><trkpt lat="43.24480431952405" lon="12.754160777465309"><ele>429.66666666666663</ele><time>2026-04-19T13:39:30.999Z</time></trkpt><trkpt lat="43.245009923815246" lon="12.754160431867556"><ele>430.3333333333333</ele><time>2026-04-19T13:39:31.999Z</time></trkpt><trkpt lat="43.245213455855776" lon="12.75416201695526"><ele>431.0</ele><time>2026-04-19T13:39:32.999Z</time></trkpt><trkpt lat="43.245418290955314" lon="12.754171777138916"><ele>431.0</ele><time>2026-04-19T13:39:33.999Z</time></trkpt><trkpt lat="43.245622381570456" lon="12.754178393240183"><ele>431.0</ele><time>2026-04-19T13:39:34.999Z</time></trkpt><trkpt lat="43.245820567483506" lon="12.754181245191171"><ele>431.0</ele><time>2026-04-19T13:39:35.999Z</time></trkpt><trkpt lat="43.246024745240156" lon="12.754197651129621"><ele>430.3333333333333</ele><time>2026-04-19T13:39:36.999Z</time></trkpt><trkpt lat="43.24622447882896" lon="12.754216069120995"><ele>429.66666666666663</ele><time>2026-04-19T13:39:37.999Z</time></trkpt><trkpt lat="43.24642782021491" lon="12.754243141944084"><ele>429.0</ele><time>2026-04-19T13:39:38.999Z</time></trkpt><trkpt lat="43.24663044547208" lon="12.754262933887626"><ele>428.33333333333337</ele><time>2026-04-19T13:39:39.999Z</time></trkpt><trkpt lat="43.24683134247164" lon="12.754280768806694"><ele>427.6666666666667</ele><time>2026-04-19T13:39:40.999Z</time></trkpt><trkpt lat="43.24703278432649" lon="12.754302539077365"><ele>427.0</ele><time>2026-04-19T13:39:41.999Z</time></trkpt><trkpt lat="43.2472345005743" lon="12.754317638222151"><ele>427.0</ele><time>2026-04-19T13:39:42.999Z</time></trkpt><trkpt lat="43.24743908343581" lon="12.754333746133224"><ele>427.0</ele><time>2026-04-19T13:39:43.999Z</time></trkpt><trkpt lat="43.247643311434565" lon="12.754353865911394"><ele>427.0</ele><time>2026-04-19T13:39:44.999Z</time></trkpt><trkpt lat="43.24784428208191" lon="12.754376553608175"><ele>427.0</ele><time>2026-04-19T13:39:45.999Z</time></trkpt><trkpt lat="43.24804557609638" lon="12.754400070901855"><ele>427.0</ele><time>2026-04-19T13:39:46.999Z</time></trkpt><trkpt lat="43.24824849643711" lon="12.754414193398516"><ele>427.0</ele><time>2026-04-19T13:39:47.999Z</time></trkpt><trkpt lat="43.248451318733" lon="12.754430512293458"><ele>426.33333333333337</ele><time>2026-04-19T13:39:48.999Z</time></trkpt><trkpt lat="43.24865364374956" lon="12.75443924029448"><ele>425.66666666666663</ele><time>2026-04-19T13:39:49.999Z</time></trkpt><trkpt lat="43.248856858104006" lon="12.754441296493878"><ele>425.0</ele><time>2026-04-19T13:39:50.999Z</time></trkpt><trkpt lat="43.249061226685676" lon="12.754450398317061"><ele>425.0</ele><time>2026-04-19T13:39:51.999Z</time></trkpt><trkpt lat="43.249263922809725" lon="12.754452536919388"><ele>425.0</ele><time>2026-04-19T13:39:52.999Z</time></trkpt><trkpt lat="43.2494668544515" lon="12.75444885026403"><ele>425.0</ele><time>2026-04-19T13:39:53.999Z</time></trkpt><trkpt lat="43.24966977454044" lon="12.754431571303225"><ele>424.3333333333333</ele><time>2026-04-19T13:39:54.999Z</time></trkpt><trkpt lat="43.24987245237295" lon="12.754419027672608"><ele>423.66666666666663</ele><time>2026-04-19T13:39:55.999Z</time></trkpt><trkpt lat="43.25007646208955" lon="12.754408535593898"><ele>423.0</ele><time>2026-04-19T13:39:56.999Z</time></trkpt><trkpt lat="43.250277140705734" lon="12.754378638735712"><ele>423.0</ele><time>2026-04-19T13:39:57.999Z</time></trkpt><trkpt lat="43.250479441276376" lon="12.75436379969587"><ele>423.0</ele><time>2026-04-19T13:39:58.999Z</time></trkpt><trkpt lat="43.25068203524905" lon="12.754338119870862"><ele>423.0</ele><time>2026-04-19T13:39:59.999Z</time></trkpt><trkpt lat="43.25086950101587" lon="12.754315402566428"><ele>423.0</ele><time>2026-04-19T13:40:00.999Z</time></trkpt><trkpt lat="43.251082007943346" lon="12.754282251237349"><ele>423.0</ele><time>2026-04-19T13:40:01.999Z</time></trkpt><trkpt lat="43.251283474298496" lon="12.75425608409891"><ele>423.0</ele><time>2026-04-19T13:40:02.999Z</time></trkpt><trkpt lat="43.25148500569904" lon="12.754229054672855"><ele>422.33333333333337</ele><time>2026-04-19T13:40:03.999Z</time></trkpt><trkpt lat="43.25168640259253" lon="12.75419875805047"><ele>421.6666666666667</ele><time>2026-04-19T13:40:04.999Z</time></trkpt><trkpt lat="43.251887218281844" lon="12.75417170256175"><ele>421.0</ele><time>2026-04-19T13:40:05.999Z</time></trkpt><trkpt lat="43.25208833138718" lon="12.754143260832889"><ele>420.6666666666667</ele><time>2026-04-19T13:40:06.999Z</time></trkpt><trkpt lat="43.252290145547924" lon="12.754116707914969"><ele>420.33333333333337</ele><time>2026-04-19T13:40:07.999Z</time></trkpt><trkpt lat="43.25249161827583" lon="12.754078082937925"><ele>420.0</ele><time>2026-04-19T13:40:08.999Z</time></trkpt><trkpt lat="43.25269192415011" lon="12.754046031184433"><ele>420.0</ele><time>2026-04-19T13:40:09.999Z</time></trkpt><trkpt lat="43.252893095766126" lon="12.754016743719758"><ele>420.0</ele><time>2026-04-19T13:40:10.999Z</time></trkpt><trkpt lat="43.253094523912324" lon="12.753987028935583"><ele>420.0</ele><time>2026-04-19T13:40:11.999Z</time></trkpt><trkpt lat="43.2532952086778" lon="12.753957524443527"><ele>419.33333333333337</ele><time>2026-04-19T13:40:12.999Z</time></trkpt><trkpt lat="43.25349371600729" lon="12.753926611778047"><ele>418.6666666666667</ele><time>2026-04-19T13:40:13.999Z</time></trkpt><trkpt lat="43.25369444405487" lon="12.75389444360269"><ele>418.0</ele><time>2026-04-19T13:40:14.999Z</time></trkpt><trkpt lat="43.253894743617955" lon="12.75386274689365"><ele>418.6666666666667</ele><time>2026-04-19T13:40:15.999Z</time></trkpt><trkpt lat="43.25409641103554" lon="12.75382749424246"><ele>419.33333333333337</ele><time>2026-04-19T13:40:16.999Z</time></trkpt><trkpt lat="43.254298819693425" lon="12.75379254419774"><ele>420.0</ele><time>2026-04-19T13:40:17.999Z</time></trkpt><trkpt lat="43.25450088150242" lon="12.753765873938644"><ele>420.0</ele><time>2026-04-19T13:40:18.999Z</time></trkpt><trkpt lat="43.254703797540316" lon="12.753738214778961"><ele>420.0</ele><time>2026-04-19T13:40:19.999Z</time></trkpt><trkpt lat="43.254905727175995" lon="12.753711372790258"><ele>420.0</ele><time>2026-04-19T13:40:20.999Z</time></trkpt><trkpt lat="43.25510691781121" lon="12.753682606529562"><ele>419.66666666666663</ele><time>2026-04-19T13:40:21.999Z</time></trkpt><trkpt lat="43.25530845567011" lon="12.753654374658352"><ele>419.3333333333333</ele><time>2026-04-19T13:40:22.999Z</time></trkpt><trkpt lat="43.25551009881712" lon="12.753634376437986"><ele>419.0</ele><time>2026-04-19T13:40:23.999Z</time></trkpt><trkpt lat="43.255713746637106" lon="12.753611688522785"><ele>418.66666666666663</ele><time>2026-04-19T13:40:24.999Z</time></trkpt><trkpt lat="43.255914886853034" lon="12.753600063166497"><ele>418.33333333333337</ele><time>2026-04-19T13:40:25.999Z</time></trkpt><trkpt lat="43.25612017963083" lon="12.753580117879519"><ele>418.0</ele><time>2026-04-19T13:40:26.999Z</time></trkpt><trkpt lat="43.256324422403154" lon="12.753569456494938"><ele>418.0</ele><time>2026-04-19T13:40:27.999Z</time></trkpt><trkpt lat="43.256529496961335" lon="12.753562599600578"><ele>418.0</ele><time>2026-04-19T13:40:28.999Z</time></trkpt><trkpt lat="43.25672965409335" lon="12.75356192095414"><ele>418.0</ele><time>2026-04-19T13:40:29.999Z</time></trkpt><trkpt lat="43.256932865515516" lon="12.753560835354776"><ele>418.0</ele><time>2026-04-19T13:40:30.999Z</time></trkpt><trkpt lat="43.25713339036698" lon="12.753563651751799"><ele>418.0</ele><time>2026-04-19T13:40:31.999Z</time></trkpt><trkpt lat="43.25733507782785" lon="12.75356316055894"><ele>418.0</ele><time>2026-04-19T13:40:32.999Z</time></trkpt><trkpt lat="43.25753936004028" lon="12.753563147839298"><ele>418.33333333333337</ele><time>2026-04-19T13:40:33.999Z</time></trkpt><trkpt lat="43.25774533974843" lon="12.753563031438581"><ele>418.66666666666663</ele><time>2026-04-19T13:40:34.999Z</time></trkpt><trkpt lat="43.2579524487435" lon="12.753558456656643"><ele>419.0</ele><time>2026-04-19T13:40:35.999Z</time></trkpt><trkpt lat="43.258157226740636" lon="12.75356218803998"><ele>419.0</ele><time>2026-04-19T13:40:36.999Z</time></trkpt><trkpt lat="43.258356468054025" lon="12.753565754105656"><ele>419.0</ele><time>2026-04-19T13:40:37.999Z</time></trkpt><trkpt lat="43.25856074815124" lon="12.753572939997243"><ele>419.0</ele><time>2026-04-19T13:40:38.999Z</time></trkpt><trkpt lat="43.25876002622655" lon="12.753571687222152"><ele>418.66666666666663</ele><time>2026-04-19T13:40:39.999Z</time></trkpt><trkpt lat="43.25896389572403" lon="12.75356784400133"><ele>418.33333333333337</ele><time>2026-04-19T13:40:40.999Z</time></trkpt><trkpt lat="43.25916441565779" lon="12.753561486100017"><ele>418.0</ele><time>2026-04-19T13:40:41.999Z</time></trkpt><trkpt lat="43.25936962863211" lon="12.75357224496067"><ele>418.0</ele><time>2026-04-19T13:40:42.999Z</time></trkpt><trkpt lat="43.25957490285007" lon="12.753573845365874"><ele>418.0</ele><time>2026-04-19T13:40:43.999Z</time></trkpt><trkpt lat="43.25977653343065" lon="12.753575325395357"><ele>418.0</ele><time>2026-04-19T13:40:44.999Z</time></trkpt><trkpt lat="43.259979202154824" lon="12.753572333293507"><ele>417.6666666666667</ele><time>2026-04-19T13:40:45.999Z</time></trkpt><trkpt lat="43.26018571916981" lon="12.753565851669475"><ele>417.33333333333337</ele><time>2026-04-19T13:40:47Z</time></trkpt><trkpt lat="43.260381250436254" lon="12.753565824298866"><ele>417.0</ele><time>2026-04-19T13:40:48Z</time></trkpt><trkpt lat="43.26058539782558" lon="12.753570395446374"><ele>416.66666666666663</ele><time>2026-04-19T13:40:49Z</time></trkpt><trkpt lat="43.26078988118821" lon="12.753574549650784"><ele>416.3333333333333</ele><time>2026-04-19T13:40:50Z</time></trkpt><trkpt lat="43.26098988688346" lon="12.753571683716597"><ele>416.0</ele><time>2026-04-19T13:40:51Z</time></trkpt><trkpt lat="43.261189259098536" lon="12.75357128659686"><ele>416.0</ele><time>2026-04-19T13:40:52Z</time></trkpt><trkpt lat="43.26140090384004" lon="12.75357586247379"><ele>416.0</ele><time>2026-04-19T13:40:53Z</time></trkpt><trkpt lat="43.26160000025394" lon="12.753576436088963"><ele>416.0</ele><time>2026-04-19T13:40:54Z</time></trkpt><trkpt lat="43.261802570924836" lon="12.753578787843518"><ele>416.3333333333333</ele><time>2026-04-19T13:40:55Z</time></trkpt><trkpt lat="43.26201151074272" lon="12.75357709347871"><ele>416.66666666666663</ele><time>2026-04-19T13:40:56Z</time></trkpt><trkpt lat="43.26221467569191" lon="12.753590699350168"><ele>417.0</ele><time>2026-04-19T13:40:57Z</time></trkpt><trkpt lat="43.26241803784241" lon="12.753603656869318"><ele>415.66666666666663</ele><time>2026-04-19T13:40:58Z</time></trkpt><trkpt lat="43.26261981899546" lon="12.753611813682792"><ele>414.3333333333333</ele><time>2026-04-19T13:40:59Z</time></trkpt><trkpt lat="43.262817733934945" lon="12.753601828695116"><ele>413.0</ele><time>2026-04-19T13:41:00Z</time></trkpt><trkpt lat="43.26302114023371" lon="12.753591214999316"><ele>413.0</ele><time>2026-04-19T13:41:01Z</time></trkpt><trkpt lat="43.26322656697145" lon="12.753587193008379"><ele>413.0</ele><time>2026-04-19T13:41:02Z</time></trkpt><trkpt lat="43.26342614834305" lon="12.75358694446068"><ele>413.0</ele><time>2026-04-19T13:41:03Z</time></trkpt><trkpt lat="43.26363082867186" lon="12.753583584181468"><ele>413.0</ele><time>2026-04-19T13:41:04Z</time></trkpt><trkpt lat="43.263834040394364" lon="12.753585000180427"><ele>413.0</ele><time>2026-04-19T13:41:05Z</time></trkpt><trkpt lat="43.264036307962705" lon="12.753584768271692"><ele>413.0</ele><time>2026-04-19T13:41:06Z</time></trkpt><trkpt lat="43.26423966105141" lon="12.753588573411687"><ele>412.3333333333333</ele><time>2026-04-19T13:41:07Z</time></trkpt><trkpt lat="43.26444167329351" lon="12.753591123747645"><ele>411.66666666666663</ele><time>2026-04-19T13:41:08Z</time></trkpt><trkpt lat="43.26464376806611" lon="12.753589902044904"><ele>411.0</ele><time>2026-04-19T13:41:09Z</time></trkpt><trkpt lat="43.26484511632032" lon="12.753588123973438"><ele>411.0</ele><time>2026-04-19T13:41:10Z</time></trkpt><trkpt lat="43.26504545756428" lon="12.753598980235852"><ele>411.0</ele><time>2026-04-19T13:41:11Z</time></trkpt><trkpt lat="43.26524790079793" lon="12.75360257966097"><ele>411.0</ele><time>2026-04-19T13:41:12Z</time></trkpt><trkpt lat="43.26545153747514" lon="12.753603759968257"><ele>409.33333333333337</ele><time>2026-04-19T13:41:13Z</time></trkpt><trkpt lat="43.26565159505981" lon="12.75360231438795"><ele>407.6666666666667</ele><time>2026-04-19T13:41:14Z</time></trkpt><trkpt lat="43.26585509138695" lon="12.753599852207543"><ele>406.0</ele><time>2026-04-19T13:41:15Z</time></trkpt><trkpt lat="43.266059880021366" lon="12.753594585690124"><ele>406.0</ele><time>2026-04-19T13:41:16Z</time></trkpt><trkpt lat="43.266262265939325" lon="12.753583851001595"><ele>406.0</ele><time>2026-04-19T13:41:17Z</time></trkpt><trkpt lat="43.26646557175909" lon="12.753577263699095"><ele>406.0</ele><time>2026-04-19T13:41:18Z</time></trkpt><trkpt lat="43.26666502323027" lon="12.753569154683278"><ele>406.0</ele><time>2026-04-19T13:41:19Z</time></trkpt><trkpt lat="43.266870793016864" lon="12.75354443845419"><ele>406.0</ele><time>2026-04-19T13:41:20Z</time></trkpt><trkpt lat="43.26707007040454" lon="12.753531459663934"><ele>406.0</ele><time>2026-04-19T13:41:21Z</time></trkpt><trkpt lat="43.267274979792305" lon="12.753516715157946"><ele>406.0</ele><time>2026-04-19T13:41:22Z</time></trkpt><trkpt lat="43.267477834328425" lon="12.75349501596149"><ele>406.0</ele><time>2026-04-19T13:41:23Z</time></trkpt><trkpt lat="43.26768149672099" lon="12.753472758086376"><ele>406.0</ele><time>2026-04-19T13:41:23.999Z</time></trkpt><trkpt lat="43.26788148556094" lon="12.75345255420661"><ele>406.0</ele><time>2026-04-19T13:41:24.999Z</time></trkpt><trkpt lat="43.268082580141154" lon="12.753427843511988"><ele>406.0</ele><time>2026-04-19T13:41:25.999Z</time></trkpt><trkpt lat="43.26828339553292" lon="12.753405104297748"><ele>406.0</ele><time>2026-04-19T13:41:26.999Z</time></trkpt><trkpt lat="43.268488975724324" lon="12.753387666876861"><ele>405.6666666666667</ele><time>2026-04-19T13:41:27.999Z</time></trkpt><trkpt lat="43.26869423173755" lon="12.753370990788882"><ele>405.33333333333337</ele><time>2026-04-19T13:41:28.999Z</time></trkpt><trkpt lat="43.268899498063284" lon="12.753357193119987"><ele>405.0</ele><time>2026-04-19T13:41:29.999Z</time></trkpt><trkpt lat="43.26910117913139" lon="12.753333270314124"><ele>404.33333333333337</ele><time>2026-04-19T13:41:30.999Z</time></trkpt><trkpt lat="43.26930209402904" lon="12.753303144003912"><ele>403.6666666666667</ele><time>2026-04-19T13:41:31.999Z</time></trkpt><trkpt lat="43.26950260615344" lon="12.753284406908795"><ele>403.0</ele><time>2026-04-19T13:41:32.999Z</time></trkpt><trkpt lat="43.26970239593607" lon="12.753266925731639"><ele>402.0</ele><time>2026-04-19T13:41:33.999Z</time></trkpt><trkpt lat="43.269901342616066" lon="12.753242068876544"><ele>401.0</ele><time>2026-04-19T13:41:34.999Z</time></trkpt><trkpt lat="43.27009948384139" lon="12.753207336321006"><ele>400.0</ele><time>2026-04-19T13:41:35.999Z</time></trkpt><trkpt lat="43.270286905533446" lon="12.7531661649892"><ele>400.0</ele><time>2026-04-19T13:41:36.999Z</time></trkpt><trkpt lat="43.270466931049846" lon="12.753119221509724"><ele>400.0</ele><time>2026-04-19T13:41:37.999Z</time></trkpt><trkpt lat="43.270655655822125" lon="12.753067332833336"><ele>400.0</ele><time>2026-04-19T13:41:38.999Z</time></trkpt><trkpt lat="43.27084562214662" lon="12.753016214257713"><ele>400.0</ele><time>2026-04-19T13:41:39.999Z</time></trkpt><trkpt lat="43.27102445670684" lon="12.752946466821163"><ele>400.0</ele><time>2026-04-19T13:41:40.999Z</time></trkpt><trkpt lat="43.271324332564106" lon="12.753085544305268"><ele>401.0</ele><time>2026-04-19T13:41:41.999Z</time></trkpt><trkpt lat="43.27152448454999" lon="12.75306007407964"><ele>402.0</ele><time>2026-04-19T13:41:42.999Z</time></trkpt><trkpt lat="43.27172187122551" lon="12.753035423662451"><ele>403.0</ele><time>2026-04-19T13:41:43.999Z</time></trkpt><trkpt lat="43.27191982276571" lon="12.753010089351841"><ele>403.0</ele><time>2026-04-19T13:41:44.999Z</time></trkpt><trkpt lat="43.272118634273625" lon="12.752988497220807"><ele>403.0</ele><time>2026-04-19T13:41:45.999Z</time></trkpt><trkpt lat="43.27232245995664" lon="12.752973468743232"><ele>403.0</ele><time>2026-04-19T13:41:46.999Z</time></trkpt><trkpt lat="43.272525925268184" lon="12.752952750813044"><ele>403.33333333333337</ele><time>2026-04-19T13:41:47.999Z</time></trkpt><trkpt lat="43.27272729508746" lon="12.752931356922828"><ele>403.66666666666663</ele><time>2026-04-19T13:41:48.999Z</time></trkpt><trkpt lat="43.2729331161826" lon="12.752905406495406"><ele>404.0</ele><time>2026-04-19T13:41:49.999Z</time></trkpt><trkpt lat="43.27313419588681" lon="12.752885385322553"><ele>404.0</ele><time>2026-04-19T13:41:50.999Z</time></trkpt><trkpt lat="43.273334008023234" lon="12.752865602543023"><ele>404.0</ele><time>2026-04-19T13:41:51.999Z</time></trkpt><trkpt lat="43.27353423758982" lon="12.75284134028478"><ele>404.0</ele><time>2026-04-19T13:41:52.999Z</time></trkpt><trkpt lat="43.2737358647627" lon="12.752818246286578"><ele>404.0</ele><time>2026-04-19T13:41:53.999Z</time></trkpt><trkpt lat="43.273935500873755" lon="12.752792170025423"><ele>404.0</ele><time>2026-04-19T13:41:54.999Z</time></trkpt><trkpt lat="43.27413512590429" lon="12.75276143510709"><ele>404.0</ele><time>2026-04-19T13:41:55.999Z</time></trkpt><trkpt lat="43.27433635746964" lon="12.752737184740196"><ele>404.3333333333333</ele><time>2026-04-19T13:41:56.999Z</time></trkpt><trkpt lat="43.274542451349625" lon="12.752719603095233"><ele>404.66666666666663</ele><time>2026-04-19T13:41:57.999Z</time></trkpt><trkpt lat="43.27474852143215" lon="12.75269683450135"><ele>405.0</ele><time>2026-04-19T13:41:58.999Z</time></trkpt><trkpt lat="43.27495270629913" lon="12.75267743441152"><ele>404.33333333333337</ele><time>2026-04-19T13:41:59.999Z</time></trkpt><trkpt lat="43.27515177106213" lon="12.752661037218806"><ele>403.6666666666667</ele><time>2026-04-19T13:42:00.999Z</time></trkpt><trkpt lat="43.27535593500887" lon="12.752637844975457"><ele>403.0</ele><time>2026-04-19T13:42:01.999Z</time></trkpt><trkpt lat="43.27555715903776" lon="12.752616226711481"><ele>403.0</ele><time>2026-04-19T13:42:02.999Z</time></trkpt><trkpt lat="43.27575680085836" lon="12.75258684036348"><ele>403.0</ele><time>2026-04-19T13:42:03.999Z</time></trkpt><trkpt lat="43.275956706980935" lon="12.752568188846764"><ele>403.0</ele><time>2026-04-19T13:42:04.999Z</time></trkpt><trkpt lat="43.276158381490426" lon="12.752537991267307"><ele>403.0</ele><time>2026-04-19T13:42:05.999Z</time></trkpt><trkpt lat="43.27635749907287" lon="12.752507814633487"><ele>403.0</ele><time>2026-04-19T13:42:06.999Z</time></trkpt><trkpt lat="43.27655754939553" lon="12.75247798401627"><ele>403.0</ele><time>2026-04-19T13:42:07.999Z</time></trkpt><trkpt lat="43.27675956701429" lon="12.752443257210214"><ele>403.0</ele><time>2026-04-19T13:42:08.999Z</time></trkpt><trkpt lat="43.276962235471366" lon="12.752405931149125"><ele>403.0</ele><time>2026-04-19T13:42:09.999Z</time></trkpt><trkpt lat="43.277160128139" lon="12.7523664512787"><ele>403.0</ele><time>2026-04-19T13:42:10.999Z</time></trkpt><trkpt lat="43.27736029751706" lon="12.752319499557267"><ele>403.33333333333337</ele><time>2026-04-19T13:42:11.999Z</time></trkpt><trkpt lat="43.27755989809859" lon="12.75226304336096"><ele>403.66666666666663</ele><time>2026-04-19T13:42:12.999Z</time></trkpt><trkpt lat="43.27775672218638" lon="12.752216644347442"><ele>404.0</ele><time>2026-04-19T13:42:13.999Z</time></trkpt><trkpt lat="43.27795817310163" lon="12.752160441726083"><ele>404.3333333333333</ele><time>2026-04-19T13:42:14.999Z</time></trkpt><trkpt lat="43.278153597374946" lon="12.75209510803486"><ele>404.66666666666663</ele><time>2026-04-19T13:42:15.999Z</time></trkpt><trkpt lat="43.27834971061287" lon="12.752023574954631"><ele>405.0</ele><time>2026-04-19T13:42:16.999Z</time></trkpt><trkpt lat="43.27854809985032" lon="12.751952964827828"><ele>405.0</ele><time>2026-04-19T13:42:17.999Z</time></trkpt><trkpt lat="43.27874364636965" lon="12.751881882414697"><ele>405.0</ele><time>2026-04-19T13:42:18.999Z</time></trkpt><trkpt lat="43.27894047107055" lon="12.751797484128186"><ele>405.0</ele><time>2026-04-19T13:42:19.999Z</time></trkpt><trkpt lat="43.27913138567389" lon="12.751717236995635"><ele>403.66666666666663</ele><time>2026-04-19T13:42:20.999Z</time></trkpt><trkpt lat="43.27932272689611" lon="12.75162741223046"><ele>402.3333333333333</ele><time>2026-04-19T13:42:21.999Z</time></trkpt><trkpt lat="43.27951344455538" lon="12.751530527129539"><ele>401.0</ele><time>2026-04-19T13:42:22.999Z</time></trkpt><trkpt lat="43.27970052997777" lon="12.751430210589012"><ele>401.66666666666663</ele><time>2026-04-19T13:42:23.999Z</time></trkpt><trkpt lat="43.27989248163125" lon="12.75133476583686"><ele>402.33333333333337</ele><time>2026-04-19T13:42:24.999Z</time></trkpt><trkpt lat="43.28008397479246" lon="12.751233569526201"><ele>403.0</ele><time>2026-04-19T13:42:25.999Z</time></trkpt><trkpt lat="43.28027215843576" lon="12.751130874663108"><ele>403.0</ele><time>2026-04-19T13:42:26.999Z</time></trkpt><trkpt lat="43.28045864131057" lon="12.751017659691426"><ele>403.0</ele><time>2026-04-19T13:42:27.999Z</time></trkpt><trkpt lat="43.280639753229096" lon="12.75091136932865"><ele>403.0</ele><time>2026-04-19T13:42:28.999Z</time></trkpt><trkpt lat="43.28082242673723" lon="12.750787580308002"><ele>404.0</ele><time>2026-04-19T13:42:29.999Z</time></trkpt><trkpt lat="43.28100355284818" lon="12.750663438337707"><ele>405.0</ele><time>2026-04-19T13:42:30.999Z</time></trkpt><trkpt lat="43.281185944757326" lon="12.750536097056642"><ele>406.0</ele><time>2026-04-19T13:42:31.999Z</time></trkpt><trkpt lat="43.28136546393858" lon="12.750409844706049"><ele>406.33333333333337</ele><time>2026-04-19T13:42:32.999Z</time></trkpt><trkpt lat="43.28154843634205" lon="12.750275266100841"><ele>406.66666666666663</ele><time>2026-04-19T13:42:33.999Z</time></trkpt><trkpt lat="43.28172073775505" lon="12.750135382797971"><ele>407.0</ele><time>2026-04-19T13:42:34.999Z</time></trkpt><trkpt lat="43.28189590407296" lon="12.749998842470646"><ele>407.0</ele><time>2026-04-19T13:42:35.999Z</time></trkpt><trkpt lat="43.28206756982818" lon="12.749854510007445"><ele>407.0</ele><time>2026-04-19T13:42:36.999Z</time></trkpt><trkpt lat="43.28223763652735" lon="12.749703525239902"><ele>407.0</ele><time>2026-04-19T13:42:37.999Z</time></trkpt><trkpt lat="43.282409600896855" lon="12.749552569747113"><ele>407.66666666666663</ele><time>2026-04-19T13:42:38.999Z</time></trkpt><trkpt lat="43.28257779030762" lon="12.74940562245584"><ele>408.33333333333337</ele><time>2026-04-19T13:42:39.999Z</time></trkpt><trkpt lat="43.28274639281118" lon="12.74924982446973"><ele>409.0</ele><time>2026-04-19T13:42:40.999Z</time></trkpt><trkpt lat="43.28290811556598" lon="12.749084617585611"><ele>409.0</ele><time>2026-04-19T13:42:41.999Z</time></trkpt><trkpt lat="43.28306939460362" lon="12.748912301489625"><ele>409.0</ele><time>2026-04-19T13:42:42.999Z</time></trkpt><trkpt lat="43.28323098057825" lon="12.748740251796963"><ele>409.0</ele><time>2026-04-19T13:42:43.999Z</time></trkpt><trkpt lat="43.283389710409786" lon="12.748570132210363"><ele>408.33333333333337</ele><time>2026-04-19T13:42:44.999Z</time></trkpt><trkpt lat="43.283546990596825" lon="12.748399342019079"><ele>407.66666666666663</ele><time>2026-04-19T13:42:45.999Z</time></trkpt><trkpt lat="43.28370457066514" lon="12.748223954141265"><ele>407.0</ele><time>2026-04-19T13:42:46.999Z</time></trkpt><trkpt lat="43.283859999370776" lon="12.748043897127035"><ele>406.66666666666663</ele><time>2026-04-19T13:42:47.999Z</time></trkpt><trkpt lat="43.28401225183817" lon="12.747860494836349"><ele>406.33333333333337</ele><time>2026-04-19T13:42:48.999Z</time></trkpt><trkpt lat="43.28415984342244" lon="12.747673563540113"><ele>406.0</ele><time>2026-04-19T13:42:49.999Z</time></trkpt><trkpt lat="43.28430732740441" lon="12.74748379606963"><ele>406.0</ele><time>2026-04-19T13:42:50.999Z</time></trkpt><trkpt lat="43.28445291659549" lon="12.747287308618636"><ele>406.0</ele><time>2026-04-19T13:42:51.999Z</time></trkpt><trkpt lat="43.28459696442274" lon="12.747092520231178"><ele>406.0</ele><time>2026-04-19T13:42:53Z</time></trkpt><trkpt lat="43.28473530551389" lon="12.746885734041618"><ele>406.6666666666667</ele><time>2026-04-19T13:42:54Z</time></trkpt><trkpt lat="43.28487765110013" lon="12.746688218021427"><ele>407.33333333333337</ele><time>2026-04-19T13:42:55Z</time></trkpt><trkpt lat="43.28501710218825" lon="12.746487272457319"><ele>408.0</ele><time>2026-04-19T13:42:56Z</time></trkpt><trkpt lat="43.285155055940635" lon="12.746285347937057"><ele>408.0</ele><time>2026-04-19T13:42:57Z</time></trkpt><trkpt lat="43.285291111923044" lon="12.746081190076362"><ele>408.0</ele><time>2026-04-19T13:42:58Z</time></trkpt><trkpt lat="43.2854321566471" lon="12.745883333235048"><ele>408.0</ele><time>2026-04-19T13:42:59Z</time></trkpt><trkpt lat="43.28557052750444" lon="12.745684266486826"><ele>408.33333333333337</ele><time>2026-04-19T13:43:00Z</time></trkpt><trkpt lat="43.285711675636925" lon="12.74548399128114"><ele>408.6666666666667</ele><time>2026-04-19T13:43:01Z</time></trkpt><trkpt lat="43.28585081485282" lon="12.745282276602778"><ele>409.0</ele><time>2026-04-19T13:43:02Z</time></trkpt><trkpt lat="43.285990748038735" lon="12.745082569570757"><ele>408.0</ele><time>2026-04-19T13:43:03Z</time></trkpt><trkpt lat="43.286126186828795" lon="12.744876158818142"><ele>407.0</ele><time>2026-04-19T13:43:04Z</time></trkpt><trkpt lat="43.28626214374046" lon="12.744671669781782"><ele>406.0</ele><time>2026-04-19T13:43:05Z</time></trkpt><trkpt lat="43.28639652793927" lon="12.744463750563304"><ele>406.0</ele><time>2026-04-19T13:43:06Z</time></trkpt><trkpt lat="43.28653194355684" lon="12.74426051813508"><ele>406.0</ele><time>2026-04-19T13:43:07Z</time></trkpt><trkpt lat="43.28666757002744" lon="12.744054676938942"><ele>406.0</ele><time>2026-04-19T13:43:08Z</time></trkpt><trkpt lat="43.286803250517856" lon="12.743848326797432"><ele>406.0</ele><time>2026-04-19T13:43:09Z</time></trkpt><trkpt lat="43.28693970259679" lon="12.743642762525472"><ele>406.0</ele><time>2026-04-19T13:43:10Z</time></trkpt><trkpt lat="43.287078559837695" lon="12.743440441797407"><ele>406.0</ele><time>2026-04-19T13:43:11Z</time></trkpt><trkpt lat="43.287214969867954" lon="12.743238869324859"><ele>406.33333333333337</ele><time>2026-04-19T13:43:12Z</time></trkpt><trkpt lat="43.287348552442" lon="12.743043600216636"><ele>406.66666666666663</ele><time>2026-04-19T13:43:13Z</time></trkpt><trkpt lat="43.287466048905365" lon="12.742863215528228"><ele>407.0</ele><time>2026-04-19T13:43:14Z</time></trkpt><trkpt lat="43.28758931922413" lon="12.742681985143989"><ele>406.3333333333333</ele><time>2026-04-19T13:43:15Z</time></trkpt><trkpt lat="43.28771104317823" lon="12.74250451512267"><ele>405.66666666666663</ele><time>2026-04-19T13:43:16Z</time></trkpt><trkpt lat="43.28782918803968" lon="12.742327357660278"><ele>405.0</ele><time>2026-04-19T13:43:17Z</time></trkpt><trkpt lat="43.287939651452085" lon="12.742159989548584"><ele>405.0</ele><time>2026-04-19T13:43:18Z</time></trkpt><trkpt lat="43.288047021686005" lon="12.741996226176937"><ele>405.0</ele><time>2026-04-19T13:43:19Z</time></trkpt><trkpt lat="43.28815998427899" lon="12.741830438316455"><ele>405.0</ele><time>2026-04-19T13:43:20Z</time></trkpt><trkpt lat="43.28826767683989" lon="12.741666775336904"><ele>406.0</ele><time>2026-04-19T13:43:21Z</time></trkpt><trkpt lat="43.28837405976428" lon="12.741503705005407"><ele>407.0</ele><time>2026-04-19T13:43:22Z</time></trkpt><trkpt lat="43.28847912141361" lon="12.741343410610195"><ele>408.0</ele><time>2026-04-19T13:43:23Z</time></trkpt><trkpt lat="43.28858235350793" lon="12.741188291474502"><ele>407.0</ele><time>2026-04-19T13:43:24Z</time></trkpt><trkpt lat="43.28868938267749" lon="12.741029222613152"><ele>406.0</ele><time>2026-04-19T13:43:25Z</time></trkpt><trkpt lat="43.28879706895323" lon="12.740866653853722"><ele>405.0</ele><time>2026-04-19T13:43:26Z</time></trkpt><trkpt lat="43.28890847283612" lon="12.740704138944437"><ele>406.0</ele><time>2026-04-19T13:43:26.999Z</time></trkpt><trkpt lat="43.28901917705193" lon="12.740546191388193"><ele>407.0</ele><time>2026-04-19T13:43:27.999Z</time></trkpt><trkpt lat="43.289134260692464" lon="12.740384577413655"><ele>408.0</ele><time>2026-04-19T13:43:28.999Z</time></trkpt><trkpt lat="43.289244693046335" lon="12.74022703785884"><ele>407.33333333333337</ele><time>2026-04-19T13:43:29.999Z</time></trkpt><trkpt lat="43.28934848706858" lon="12.740071776983358"><ele>406.6666666666667</ele><time>2026-04-19T13:43:30.999Z</time></trkpt><trkpt lat="43.289458822065974" lon="12.739914882303168"><ele>406.0</ele><time>2026-04-19T13:43:31.999Z</time></trkpt><trkpt lat="43.289560220212906" lon="12.739766149165582"><ele>406.0</ele><time>2026-04-19T13:43:32.999Z</time></trkpt><trkpt lat="43.28965431310963" lon="12.739630883778977"><ele>406.0</ele><time>2026-04-19T13:43:33.999Z</time></trkpt><trkpt lat="43.28974237916193" lon="12.739498328563418"><ele>406.0</ele><time>2026-04-19T13:43:34.999Z</time></trkpt><trkpt lat="43.28982548678444" lon="12.739371410836"><ele>406.0</ele><time>2026-04-19T13:43:35.999Z</time></trkpt><trkpt lat="43.28990679031068" lon="12.739243507753281"><ele>406.25</ele><time>2026-04-19T13:43:36.999Z</time></trkpt><trkpt lat="43.289982136192016" lon="12.739116117544953"><ele>406.5</ele><time>2026-04-19T13:43:37.999Z</time></trkpt><trkpt lat="43.290061522822576" lon="12.738994023762105"><ele>406.75</ele><time>2026-04-19T13:43:38.999Z</time></trkpt><trkpt lat="43.2901456467721" lon="12.738872772608513"><ele>407.0</ele><time>2026-04-19T13:43:39.999Z</time></trkpt><trkpt lat="43.290235521646984" lon="12.73874714873547"><ele>407.0</ele><time>2026-04-19T13:43:40.999Z</time></trkpt><trkpt lat="43.29032570448529" lon="12.73861699944815"><ele>407.0</ele><time>2026-04-19T13:43:41.999Z</time></trkpt><trkpt lat="43.290418700349214" lon="12.738481002185464"><ele>407.0</ele><time>2026-04-19T13:43:42.999Z</time></trkpt><trkpt lat="43.29050724366139" lon="12.738346382399037"><ele>407.0</ele><time>2026-04-19T13:43:43.999Z</time></trkpt><trkpt lat="43.29059933050786" lon="12.738211540997186"><ele>406.75</ele><time>2026-04-19T13:43:44.999Z</time></trkpt><trkpt lat="43.29069118494365" lon="12.738082453848472"><ele>406.5</ele><time>2026-04-19T13:43:45.999Z</time></trkpt><trkpt lat="43.29078311779897" lon="12.73795089762168"><ele>406.25</ele><time>2026-04-19T13:43:46.999Z</time></trkpt><trkpt lat="43.29087305731632" lon="12.73781757799846"><ele>406.0</ele><time>2026-04-19T13:43:47.999Z</time></trkpt><trkpt lat="43.29096084486078" lon="12.737683970009451"><ele>406.0</ele><time>2026-04-19T13:43:48.999Z</time></trkpt><trkpt lat="43.29104389327691" lon="12.737551089198103"><ele>406.0</ele><time>2026-04-19T13:43:49.999Z</time></trkpt><trkpt lat="43.29111190291418" lon="12.737436020601322"><ele>406.0</ele><time>2026-04-19T13:43:50.999Z</time></trkpt><trkpt lat="43.29117854012956" lon="12.737303570183142"><ele>406.0</ele><time>2026-04-19T13:43:51.999Z</time></trkpt><trkpt lat="43.291222698606404" lon="12.737163834918677"><ele>406.0</ele><time>2026-04-19T13:43:52.999Z</time></trkpt><trkpt lat="43.29122153953257" lon="12.737011814363148"><ele>406.0</ele><time>2026-04-19T13:43:53.999Z</time></trkpt><trkpt lat="43.2912105945812" lon="12.73686924996971"><ele>406.0</ele><time>2026-04-19T13:43:54.999Z</time></trkpt><trkpt lat="43.29116623143107" lon="12.736757988864975"><ele>406.0</ele><time>2026-04-19T13:43:55.999Z</time></trkpt><trkpt lat="43.2910772556585" lon="12.736636169562457"><ele>406.0</ele><time>2026-04-19T13:43:56.999Z</time></trkpt><trkpt lat="43.290988196288325" lon="12.736547887952069"><ele>405.75</ele><time>2026-04-19T13:43:57.999Z</time></trkpt><trkpt lat="43.29089883883159" lon="12.736488080730565"><ele>405.5</ele><time>2026-04-19T13:43:58.999Z</time></trkpt><trkpt lat="43.29078531823841" lon="12.736448895492904"><ele>405.25</ele><time>2026-04-19T13:43:59.999Z</time></trkpt><trkpt lat="43.29066727842511" lon="12.736402055151272"><ele>405.0</ele><time>2026-04-19T13:44:00.999Z</time></trkpt><trkpt lat="43.29054339416621" lon="12.736361089085248"><ele>404.25</ele><time>2026-04-19T13:44:01.999Z</time></trkpt><trkpt lat="43.29041180634698" lon="12.736304820514802"><ele>403.5</ele><time>2026-04-19T13:44:02.999Z</time></trkpt><trkpt lat="43.290276412102564" lon="12.7362374870908"><ele>402.75</ele><time>2026-04-19T13:44:03.999Z</time></trkpt><trkpt lat="43.29016356303958" lon="12.73616675646563"><ele>402.0</ele><time>2026-04-19T13:44:04.999Z</time></trkpt><trkpt lat="43.290044079732546" lon="12.736074320138142"><ele>401.25</ele><time>2026-04-19T13:44:05.999Z</time></trkpt><trkpt lat="43.28995128362335" lon="12.73595726412385"><ele>400.5</ele><time>2026-04-19T13:44:06.999Z</time></trkpt><trkpt lat="43.289864032217906" lon="12.735803565912976"><ele>399.75</ele><time>2026-04-19T13:44:07.999Z</time></trkpt><trkpt lat="43.289784232168685" lon="12.735634302585716"><ele>399.0</ele><time>2026-04-19T13:44:08.999Z</time></trkpt><trkpt lat="43.28970325544433" lon="12.735460721372114"><ele>399.0</ele><time>2026-04-19T13:44:09.999Z</time></trkpt><trkpt lat="43.289618249873755" lon="12.735278347223577"><ele>399.0</ele><time>2026-04-19T13:44:10.999Z</time></trkpt><trkpt lat="43.289527400387236" lon="12.735090255439859"><ele>399.0</ele><time>2026-04-19T13:44:11.999Z</time></trkpt><trkpt lat="43.28943460155585" lon="12.734899556567173"><ele>399.0</ele><time>2026-04-19T13:44:12.999Z</time></trkpt><trkpt lat="43.28934596195693" lon="12.734703577073198"><ele>399.0</ele><time>2026-04-19T13:44:13.999Z</time></trkpt><trkpt lat="43.28926015986313" lon="12.734499403689927"><ele>399.0</ele><time>2026-04-19T13:44:14.999Z</time></trkpt><trkpt lat="43.289178164701035" lon="12.734291913500414"><ele>398.66666666666663</ele><time>2026-04-19T13:44:15.999Z</time></trkpt><trkpt lat="43.289099013718264" lon="12.73407875452874"><ele>398.3333333333333</ele><time>2026-04-19T13:44:16.999Z</time></trkpt><trkpt lat="43.28901364910653" lon="12.733864210092019"><ele>398.0</ele><time>2026-04-19T13:44:17.999Z</time></trkpt><trkpt lat="43.28892564908998" lon="12.733643684283681"><ele>398.0</ele><time>2026-04-19T13:44:18.999Z</time></trkpt><trkpt lat="43.288839660966495" lon="12.733421752013713"><ele>398.0</ele><time>2026-04-19T13:44:19.999Z</time></trkpt><trkpt lat="43.288750605595915" lon="12.733189130755834"><ele>398.0</ele><time>2026-04-19T13:44:20.999Z</time></trkpt><trkpt lat="43.28866866970127" lon="12.732953723180952"><ele>398.0</ele><time>2026-04-19T13:44:21.999Z</time></trkpt><trkpt lat="43.28859376145573" lon="12.732715682934044"><ele>398.0</ele><time>2026-04-19T13:44:22.999Z</time></trkpt><trkpt lat="43.288446797373126" lon="12.73246783126613"><ele>398.0</ele><time>2026-04-19T13:44:23.999Z</time></trkpt><trkpt lat="43.2883419912105" lon="12.732214548364766"><ele>398.0</ele><time>2026-04-19T13:44:24.999Z</time></trkpt><trkpt lat="43.288235639467" lon="12.73195774411925"><ele>398.0</ele><time>2026-04-19T13:44:25.999Z</time></trkpt><trkpt lat="43.28813319840876" lon="12.73169041024487"><ele>398.0</ele><time>2026-04-19T13:44:26.999Z</time></trkpt><trkpt lat="43.28802634656232" lon="12.731415568372599"><ele>397.0</ele><time>2026-04-19T13:44:27.999Z</time></trkpt><trkpt lat="43.28792659786341" lon="12.731158487811722"><ele>396.0</ele><time>2026-04-19T13:44:28.999Z</time></trkpt><trkpt lat="43.28781787286991" lon="12.730890923382404"><ele>395.0</ele><time>2026-04-19T13:44:29.999Z</time></trkpt><trkpt lat="43.28770744987608" lon="12.730622126145303"><ele>394.0</ele><time>2026-04-19T13:44:30.999Z</time></trkpt><trkpt lat="43.287595194992605" lon="12.73035481705992"><ele>393.0</ele><time>2026-04-19T13:44:31.999Z</time></trkpt><trkpt lat="43.2874886601485" lon="12.730080901237557"><ele>393.0</ele><time>2026-04-19T13:44:32.999Z</time></trkpt><trkpt lat="43.287379264815016" lon="12.729812086594693"><ele>393.0</ele><time>2026-04-19T13:44:33.999Z</time></trkpt><trkpt lat="43.28726759449059" lon="12.729543456326546"><ele>393.0</ele><time>2026-04-19T13:44:34.999Z</time></trkpt><trkpt lat="43.28715836992184" lon="12.729276301173204"><ele>393.0</ele><time>2026-04-19T13:44:35.999Z</time></trkpt><trkpt lat="43.28704701947771" lon="12.729012531381654"><ele>393.0</ele><time>2026-04-19T13:44:36.999Z</time></trkpt><trkpt lat="43.28693208287275" lon="12.728748395962024"><ele>393.0</ele><time>2026-04-19T13:44:37.999Z</time></trkpt><trkpt lat="43.28681158959613" lon="12.728494678173954"><ele>392.33333333333337</ele><time>2026-04-19T13:44:38.999Z</time></trkpt><trkpt lat="43.286685658858346" lon="12.728239011521168"><ele>391.6666666666667</ele><time>2026-04-19T13:44:39.999Z</time></trkpt><trkpt lat="43.286554136840714" lon="12.72799176864303"><ele>391.0</ele><time>2026-04-19T13:44:40.999Z</time></trkpt><trkpt lat="43.286413458161405" lon="12.7277457018251"><ele>389.6666666666667</ele><time>2026-04-19T13:44:41.999Z</time></trkpt><trkpt lat="43.28626899251732" lon="12.72751584610905"><ele>388.33333333333337</ele><time>2026-04-19T13:44:42.999Z</time></trkpt><trkpt lat="43.28611744183572" lon="12.727292980897664"><ele>387.0</ele><time>2026-04-19T13:44:43.999Z</time></trkpt><trkpt lat="43.285963786259096" lon="12.727065554937937"><ele>386.5</ele><time>2026-04-19T13:44:44.999Z</time></trkpt><trkpt lat="43.28579860995523" lon="12.726848479215269"><ele>386.0</ele><time>2026-04-19T13:44:45.999Z</time></trkpt><trkpt lat="43.28563505554278" lon="12.726636724798697"><ele>385.66666666666663</ele><time>2026-04-19T13:44:46.999Z</time></trkpt><trkpt lat="43.28546922613163" lon="12.726433584627125"><ele>385.33333333333337</ele><time>2026-04-19T13:44:47.999Z</time></trkpt><trkpt lat="43.28529552913388" lon="12.726238420720364"><ele>385.0</ele><time>2026-04-19T13:44:48.999Z</time></trkpt><trkpt lat="43.28512015351108" lon="12.726055149802539"><ele>385.0</ele><time>2026-04-19T13:44:49.999Z</time></trkpt><trkpt lat="43.28493539816844" lon="12.725877960317055"><ele>385.0</ele><time>2026-04-19T13:44:50.999Z</time></trkpt><trkpt lat="43.28475010822239" lon="12.725710312951886"><ele>385.0</ele><time>2026-04-19T13:44:51.999Z</time></trkpt><trkpt lat="43.284559847797894" lon="12.725551719810486"><ele>385.6666666666667</ele><time>2026-04-19T13:44:52.999Z</time></trkpt><trkpt lat="43.284367632106786" lon="12.725393717339609"><ele>386.33333333333337</ele><time>2026-04-19T13:44:53.999Z</time></trkpt><trkpt lat="43.28417125821755" lon="12.725251806602463"><ele>387.0</ele><time>2026-04-19T13:44:54.999Z</time></trkpt><trkpt lat="43.28397260689473" lon="12.725110518908961"><ele>385.0</ele><time>2026-04-19T13:44:55.999Z</time></trkpt><trkpt lat="43.283772824604895" lon="12.724971275832376"><ele>383.0</ele><time>2026-04-19T13:44:56.999Z</time></trkpt><trkpt lat="43.28357161351813" lon="12.724834302742297"><ele>381.0</ele><time>2026-04-19T13:44:57.999Z</time></trkpt><trkpt lat="43.283370143883666" lon="12.724711842652574"><ele>381.0</ele><time>2026-04-19T13:44:59Z</time></trkpt><trkpt lat="43.283163376586266" lon="12.724586274164455"><ele>381.0</ele><time>2026-04-19T13:45:00Z</time></trkpt><trkpt lat="43.28297204162855" lon="12.724448769141931"><ele>381.0</ele><time>2026-04-19T13:45:01Z</time></trkpt><trkpt lat="43.28277890896906" lon="12.724311592845714"><ele>381.5</ele><time>2026-04-19T13:45:02Z</time></trkpt><trkpt lat="43.282576371291825" lon="12.724173146633888"><ele>382.0</ele><time>2026-04-19T13:45:03Z</time></trkpt><trkpt lat="43.282370718641765" lon="12.7240429849193"><ele>381.3333333333333</ele><time>2026-04-19T13:45:04Z</time></trkpt><trkpt lat="43.282169831308714" lon="12.723908868404997"><ele>380.6666666666667</ele><time>2026-04-19T13:45:05Z</time></trkpt><trkpt lat="43.28196623678317" lon="12.723783252403816"><ele>380.0</ele><time>2026-04-19T13:45:06Z</time></trkpt><trkpt lat="43.28176413498545" lon="12.723647206900386"><ele>381.0</ele><time>2026-04-19T13:45:07Z</time></trkpt><trkpt lat="43.28156900746507" lon="12.723512910725887"><ele>382.0</ele><time>2026-04-19T13:45:08Z</time></trkpt><trkpt lat="43.28136655074854" lon="12.723375177851388"><ele>383.0</ele><time>2026-04-19T13:45:09Z</time></trkpt><trkpt lat="43.28116630606877" lon="12.723248638216875"><ele>384.6666666666667</ele><time>2026-04-19T13:45:10Z</time></trkpt><trkpt lat="43.280965795110504" lon="12.723115741059596"><ele>386.33333333333337</ele><time>2026-04-19T13:45:11Z</time></trkpt><trkpt lat="43.280766634981376" lon="12.722976355011504"><ele>388.0</ele><time>2026-04-19T13:45:12Z</time></trkpt><trkpt lat="43.28056708241498" lon="12.722843965831121"><ele>390.0</ele><time>2026-04-19T13:45:13Z</time></trkpt><trkpt lat="43.2803665576332" lon="12.722705083562028"><ele>392.0</ele><time>2026-04-19T13:45:14Z</time></trkpt><trkpt lat="43.28016481779425" lon="12.722572078190778"><ele>394.0</ele><time>2026-04-19T13:45:15Z</time></trkpt><trkpt lat="43.279967078034" lon="12.722437270505798"><ele>394.0</ele><time>2026-04-19T13:45:16Z</time></trkpt><trkpt lat="43.27976856542165" lon="12.72229463938381"><ele>394.0</ele><time>2026-04-19T13:45:17Z</time></trkpt><trkpt lat="43.27956863723821" lon="12.72215099899833"><ele>394.33333333333337</ele><time>2026-04-19T13:45:18Z</time></trkpt><trkpt lat="43.27937834865072" lon="12.721995877193523"><ele>394.66666666666663</ele><time>2026-04-19T13:45:19Z</time></trkpt><trkpt lat="43.27919125827713" lon="12.721833913071745"><ele>395.0</ele><time>2026-04-19T13:45:20Z</time></trkpt><trkpt lat="43.27900853070208" lon="12.721651775960668"><ele>395.66666666666663</ele><time>2026-04-19T13:45:21Z</time></trkpt><trkpt lat="43.278831557863995" lon="12.721467988410632"><ele>396.33333333333337</ele><time>2026-04-19T13:45:22Z</time></trkpt><trkpt lat="43.27865868235239" lon="12.721271951523066"><ele>397.0</ele><time>2026-04-19T13:45:23Z</time></trkpt><trkpt lat="43.27849006776299" lon="12.72106828276831"><ele>399.0</ele><time>2026-04-19T13:45:24Z</time></trkpt><trkpt lat="43.27833233169824" lon="12.720853521331435"><ele>401.0</ele><time>2026-04-19T13:45:25Z</time></trkpt><trkpt lat="43.27817308128331" lon="12.72063472614256"><ele>403.0</ele><time>2026-04-19T13:45:26Z</time></trkpt><trkpt lat="43.27802936138782" lon="12.720401616613646"><ele>404.0</ele><time>2026-04-19T13:45:27Z</time></trkpt><trkpt lat="43.27788674896188" lon="12.720164511972435"><ele>405.0</ele><time>2026-04-19T13:45:28Z</time></trkpt><trkpt lat="43.27775874002453" lon="12.71991265283673"><ele>406.0</ele><time>2026-04-19T13:45:29Z</time></trkpt><trkpt lat="43.277632625684326" lon="12.719658992928135"><ele>406.6666666666667</ele><time>2026-04-19T13:45:30Z</time></trkpt><trkpt lat="43.277511964060146" lon="12.719399830362251"><ele>407.33333333333337</ele><time>2026-04-19T13:45:31Z</time></trkpt><trkpt lat="43.2774065469234" lon="12.719134695414356"><ele>408.0</ele><time>2026-04-19T13:45:32Z</time></trkpt><trkpt lat="43.27730409593054" lon="12.718856134589489"><ele>405.33333333333337</ele><time>2026-04-19T13:45:33Z</time></trkpt><trkpt lat="43.27720044694311" lon="12.718584391698043"><ele>402.6666666666667</ele><time>2026-04-19T13:45:34Z</time></trkpt><trkpt lat="43.27712168979866" lon="12.7182941149768"><ele>400.0</ele><time>2026-04-19T13:45:35Z</time></trkpt><trkpt lat="43.27704718133741" lon="12.718008559181857"><ele>395.0</ele><time>2026-04-19T13:45:36Z</time></trkpt><trkpt lat="43.27697097827763" lon="12.717719292029615"><ele>390.0</ele><time>2026-04-19T13:45:37Z</time></trkpt><trkpt lat="43.27689491551435" lon="12.71742226039219"><ele>390.0</ele><time>2026-04-19T13:45:38Z</time></trkpt><trkpt lat="43.27682420324707" lon="12.717128615528411"><ele>390.0</ele><time>2026-04-19T13:45:39Z</time></trkpt><trkpt lat="43.276746429742936" lon="12.716837858830573"><ele>389.0</ele><time>2026-04-19T13:45:40Z</time></trkpt><trkpt lat="43.27667998537291" lon="12.71654885461695"><ele>388.0</ele><time>2026-04-19T13:45:41Z</time></trkpt><trkpt lat="43.276612891438724" lon="12.716260076088126"><ele>387.0</ele><time>2026-04-19T13:45:41.999Z</time></trkpt><trkpt lat="43.276539350440395" lon="12.71597040369736"><ele>386.66666666666663</ele><time>2026-04-19T13:45:42.999Z</time></trkpt><trkpt lat="43.27646654996255" lon="12.715677312366983"><ele>386.3333333333333</ele><time>2026-04-19T13:45:43.999Z</time></trkpt><trkpt lat="43.27639106575436" lon="12.715389497690339"><ele>386.0</ele><time>2026-04-19T13:45:44.999Z</time></trkpt><trkpt lat="43.276317073504345" lon="12.715101670186655"><ele>386.0</ele><time>2026-04-19T13:45:45.999Z</time></trkpt><trkpt lat="43.27624703618978" lon="12.714806852993762"><ele>386.0</ele><time>2026-04-19T13:45:46.999Z</time></trkpt><trkpt lat="43.27617357348657" lon="12.714517530935604"><ele>386.0</ele><time>2026-04-19T13:45:47.999Z</time></trkpt><trkpt lat="43.27609782841078" lon="12.71422909198004"><ele>386.66666666666663</ele><time>2026-04-19T13:45:48.999Z</time></trkpt><trkpt lat="43.27601553924055" lon="12.713941909638585"><ele>387.33333333333337</ele><time>2026-04-19T13:45:49.999Z</time></trkpt><trkpt lat="43.27592938508711" lon="12.71366032909121"><ele>388.0</ele><time>2026-04-19T13:45:50.999Z</time></trkpt><trkpt lat="43.27583696979008" lon="12.713382996937941"><ele>388.33333333333337</ele><time>2026-04-19T13:45:51.999Z</time></trkpt><trkpt lat="43.27574332455282" lon="12.713117387591629"><ele>388.66666666666663</ele><time>2026-04-19T13:45:52.999Z</time></trkpt><trkpt lat="43.27563091695265" lon="12.712858299427214"><ele>389.0</ele><time>2026-04-19T13:45:53.999Z</time></trkpt><trkpt lat="43.275516376358624" lon="12.712597146275618"><ele>390.0</ele><time>2026-04-19T13:45:54.999Z</time></trkpt><trkpt lat="43.275401180361555" lon="12.712340791196677"><ele>391.0</ele><time>2026-04-19T13:45:55.999Z</time></trkpt><trkpt lat="43.275292972098285" lon="12.712095553654303"><ele>392.0</ele><time>2026-04-19T13:45:56.999Z</time></trkpt><trkpt lat="43.2751681370921" lon="12.71181985135905"><ele>385.0</ele><time>2026-04-19T13:45:57.999Z</time></trkpt><trkpt lat="43.27508598558862" lon="12.711534751387347"><ele>378.0</ele><time>2026-04-19T13:45:58.999Z</time></trkpt><trkpt lat="43.27490963701087" lon="12.711298769534674"><ele>377.5</ele><time>2026-04-19T13:45:59.999Z</time></trkpt><trkpt lat="43.2747231449967" lon="12.711030221040163"><ele>377.0</ele><time>2026-04-19T13:46:00.999Z</time></trkpt><trkpt lat="43.274495595936415" lon="12.710813716888556"><ele>377.0</ele><time>2026-04-19T13:46:01.999Z</time></trkpt><trkpt lat="43.274256164636235" lon="12.71060595164014"><ele>377.0</ele><time>2026-04-19T13:46:02.999Z</time></trkpt><trkpt lat="43.27402433183005" lon="12.710405053510435"><ele>374.5</ele><time>2026-04-19T13:46:03.999Z</time></trkpt><trkpt lat="43.27382024801315" lon="12.71021569184713"><ele>372.0</ele><time>2026-04-19T13:46:04.999Z</time></trkpt><trkpt lat="43.27360908430833" lon="12.710026811567788"><ele>372.0</ele><time>2026-04-19T13:46:05.999Z</time></trkpt><trkpt lat="43.27340237629114" lon="12.709846903872862"><ele>372.0</ele><time>2026-04-19T13:46:06.999Z</time></trkpt><trkpt lat="43.27319690714166" lon="12.709670232247014"><ele>372.0</ele><time>2026-04-19T13:46:07.999Z</time></trkpt><trkpt lat="43.27299687060986" lon="12.709494106610842"><ele>372.0</ele><time>2026-04-19T13:46:08.999Z</time></trkpt><trkpt lat="43.2728008915747" lon="12.709313362092159"><ele>372.0</ele><time>2026-04-19T13:46:09.999Z</time></trkpt><trkpt lat="43.272612152843855" lon="12.709128284276913"><ele>372.0</ele><time>2026-04-19T13:46:10.999Z</time></trkpt><trkpt lat="43.272427562729796" lon="12.708937098515966"><ele>373.0</ele><time>2026-04-19T13:46:11.999Z</time></trkpt><trkpt lat="43.27224881928728" lon="12.708736187044222"><ele>374.0</ele><time>2026-04-19T13:46:12.999Z</time></trkpt><trkpt lat="43.272077113579236" lon="12.708526668451027"><ele>374.0</ele><time>2026-04-19T13:46:13.999Z</time></trkpt><trkpt lat="43.27191151701646" lon="12.70830677267081"><ele>374.0</ele><time>2026-04-19T13:46:14.999Z</time></trkpt><trkpt lat="43.27175260551113" lon="12.708077075821851"><ele>374.0</ele><time>2026-04-19T13:46:15.999Z</time></trkpt><trkpt lat="43.2716021523431" lon="12.70783606287386"><ele>374.0</ele><time>2026-04-19T13:46:16.999Z</time></trkpt><trkpt lat="43.271462469660825" lon="12.707581731111818"><ele>375.5</ele><time>2026-04-19T13:46:17.999Z</time></trkpt><trkpt lat="43.27132657637562" lon="12.707320030383055"><ele>377.0</ele><time>2026-04-19T13:46:18.999Z</time></trkpt><trkpt lat="43.27119902703808" lon="12.707050402385343"><ele>373.0</ele><time>2026-04-19T13:46:19.999Z</time></trkpt><trkpt lat="43.27107705318248" lon="12.70677506658247"><ele>369.0</ele><time>2026-04-19T13:46:20.999Z</time></trkpt><trkpt lat="43.27096286908761" lon="12.70649142682554"><ele>369.0</ele><time>2026-04-19T13:46:21.999Z</time></trkpt><trkpt lat="43.27086127994944" lon="12.706197771241982"><ele>369.0</ele><time>2026-04-19T13:46:22.999Z</time></trkpt><trkpt lat="43.27076805971523" lon="12.705898938717668"><ele>366.5</ele><time>2026-04-19T13:46:23.999Z</time></trkpt><trkpt lat="43.270679981963475" lon="12.705598214930973"><ele>364.0</ele><time>2026-04-19T13:46:24.999Z</time></trkpt><trkpt lat="43.27059945675997" lon="12.705292779118286"><ele>371.0</ele><time>2026-04-19T13:46:25.999Z</time></trkpt><trkpt lat="43.27051796567626" lon="12.704987324863614"><ele>378.0</ele><time>2026-04-19T13:46:26.999Z</time></trkpt><trkpt lat="43.27043174520725" lon="12.70468213684048"><ele>373.5</ele><time>2026-04-19T13:46:27.999Z</time></trkpt><trkpt lat="43.27034876153483" lon="12.70437580036395"><ele>369.0</ele><time>2026-04-19T13:46:28.999Z</time></trkpt><trkpt lat="43.270267302922235" lon="12.704073879604557"><ele>369.0</ele><time>2026-04-19T13:46:29.999Z</time></trkpt><trkpt lat="43.270188880243495" lon="12.703773030893144"><ele>369.0</ele><time>2026-04-19T13:46:30.999Z</time></trkpt><trkpt lat="43.270100782345395" lon="12.703476874698225"><ele>367.5</ele><time>2026-04-19T13:46:31.999Z</time></trkpt><trkpt lat="43.27002167137136" lon="12.7031756327765"><ele>366.0</ele><time>2026-04-19T13:46:32.999Z</time></trkpt><trkpt lat="43.269941667316374" lon="12.702873977055404"><ele>365.5</ele><time>2026-04-19T13:46:33.999Z</time></trkpt><trkpt lat="43.26986181612075" lon="12.702569694470267"><ele>365.0</ele><time>2026-04-19T13:46:34.999Z</time></trkpt><trkpt lat="43.26978304859896" lon="12.70226881653333"><ele>368.0</ele><time>2026-04-19T13:46:35.999Z</time></trkpt><trkpt lat="43.26969769212287" lon="12.701971673890679"><ele>371.0</ele><time>2026-04-19T13:46:36.999Z</time></trkpt><trkpt lat="43.26961638386503" lon="12.701669394402106"><ele>371.0</ele><time>2026-04-19T13:46:37.999Z</time></trkpt><trkpt lat="43.26953031869439" lon="12.701365691728249"><ele>371.0</ele><time>2026-04-19T13:46:38.999Z</time></trkpt><trkpt lat="43.26944111492159" lon="12.701065643351246"><ele>369.0</ele><time>2026-04-19T13:46:39.999Z</time></trkpt><trkpt lat="43.26934684637343" lon="12.700770542028373"><ele>367.0</ele><time>2026-04-19T13:46:40.999Z</time></trkpt><trkpt lat="43.26923952116391" lon="12.700488214953827"><ele>364.5</ele><time>2026-04-19T13:46:41.999Z</time></trkpt><trkpt lat="43.26912498573289" lon="12.70020925551087"><ele>362.0</ele><time>2026-04-19T13:46:42.999Z</time></trkpt><trkpt lat="43.2690070379365" lon="12.699931279832626"><ele>362.0</ele><time>2026-04-19T13:46:43.999Z</time></trkpt><trkpt lat="43.26887938250738" lon="12.69966120959599"><ele>362.0</ele><time>2026-04-19T13:46:44.999Z</time></trkpt><trkpt lat="43.26874650970584" lon="12.699395267390694"><ele>362.0</ele><time>2026-04-19T13:46:45.999Z</time></trkpt><trkpt lat="43.26860253186233" lon="12.699142011354532"><ele>362.0</ele><time>2026-04-19T13:46:46.999Z</time></trkpt><trkpt lat="43.26844409311471" lon="12.698902867541007"><ele>362.0</ele><time>2026-04-19T13:46:47.999Z</time></trkpt><trkpt lat="43.268280355596225" lon="12.698673812632782"><ele>362.0</ele><time>2026-04-19T13:46:48.999Z</time></trkpt><trkpt lat="43.26811315503511" lon="12.698445818842032"><ele>362.0</ele><time>2026-04-19T13:46:49.999Z</time></trkpt><trkpt lat="43.267942426091096" lon="12.698222659510172"><ele>362.0</ele><time>2026-04-19T13:46:50.999Z</time></trkpt><trkpt lat="43.26776209228554" lon="12.698018136559247"><ele>362.0</ele><time>2026-04-19T13:46:51.999Z</time></trkpt><trkpt lat="43.267575660926184" lon="12.697822882967145"><ele>362.0</ele><time>2026-04-19T13:46:52.999Z</time></trkpt><trkpt lat="43.26738428330903" lon="12.697634836340512"><ele>363.5</ele><time>2026-04-19T13:46:53.999Z</time></trkpt><trkpt lat="43.26718667331889" lon="12.697464876625128"><ele>365.0</ele><time>2026-04-19T13:46:54.999Z</time></trkpt><trkpt lat="43.26698222292478" lon="12.697302793714591"><ele>365.0</ele><time>2026-04-19T13:46:55.999Z</time></trkpt><trkpt lat="43.26678253297193" lon="12.697131605949627"><ele>365.0</ele><time>2026-04-19T13:46:56.999Z</time></trkpt><trkpt lat="43.26657449014948" lon="12.696980122587233"><ele>365.0</ele><time>2026-04-19T13:46:57.999Z</time></trkpt><trkpt lat="43.266370432212554" lon="12.696823072927785"><ele>365.0</ele><time>2026-04-19T13:46:58.999Z</time></trkpt><trkpt lat="43.266163331465755" lon="12.696672163860638"><ele>365.0</ele><time>2026-04-19T13:46:59.999Z</time></trkpt><trkpt lat="43.26596322552235" lon="12.696501613300008"><ele>365.0</ele><time>2026-04-19T13:47:00.999Z</time></trkpt><trkpt lat="43.26575856487012" lon="12.69635126802434"><ele>366.0</ele><time>2026-04-19T13:47:01.999Z</time></trkpt><trkpt lat="43.26554945230683" lon="12.696183175096644"><ele>367.0</ele><time>2026-04-19T13:47:02.999Z</time></trkpt><trkpt lat="43.26535037679985" lon="12.696034718814065"><ele>367.0</ele><time>2026-04-19T13:47:04Z</time></trkpt><trkpt lat="43.26514666807375" lon="12.695882025428466"><ele>367.0</ele><time>2026-04-19T13:47:05Z</time></trkpt><trkpt lat="43.26493962741659" lon="12.695723623634292"><ele>369.0</ele><time>2026-04-19T13:47:06Z</time></trkpt><trkpt lat="43.26473528428153" lon="12.695557119210156"><ele>371.0</ele><time>2026-04-19T13:47:07Z</time></trkpt><trkpt lat="43.264539830213614" lon="12.695371998797736"><ele>365.5</ele><time>2026-04-19T13:47:08Z</time></trkpt><trkpt lat="43.2643546886969" lon="12.69516750798519"><ele>360.0</ele><time>2026-04-19T13:47:09Z</time></trkpt><trkpt lat="43.264175004374515" lon="12.694952442949544"><ele>360.0</ele><time>2026-04-19T13:47:10Z</time></trkpt><trkpt lat="43.26400728846545" lon="12.694726143229996"><ele>360.0</ele><time>2026-04-19T13:47:11Z</time></trkpt><trkpt lat="43.26384669738352" lon="12.694485324901622"><ele>361.0</ele><time>2026-04-19T13:47:12Z</time></trkpt><trkpt lat="43.263695508075436" lon="12.694238012321492"><ele>362.0</ele><time>2026-04-19T13:47:13Z</time></trkpt><trkpt lat="43.2635487646784" lon="12.693984687712263"><ele>362.0</ele><time>2026-04-19T13:47:14Z</time></trkpt><trkpt lat="43.26340592931071" lon="12.69372546567451"><ele>362.0</ele><time>2026-04-19T13:47:15Z</time></trkpt><trkpt lat="43.26326780480392" lon="12.693466530385928"><ele>360.0</ele><time>2026-04-19T13:47:16Z</time></trkpt><trkpt lat="43.263138243397435" lon="12.693198518527806"><ele>358.0</ele><time>2026-04-19T13:47:17Z</time></trkpt><trkpt lat="43.26301716583069" lon="12.692918274779867"><ele>357.0</ele><time>2026-04-19T13:47:18Z</time></trkpt><trkpt lat="43.26290850091754" lon="12.692630002605343"><ele>356.0</ele><time>2026-04-19T13:47:19Z</time></trkpt><trkpt lat="43.26281019907903" lon="12.692335366954957"><ele>356.0</ele><time>2026-04-19T13:47:20Z</time></trkpt><trkpt lat="43.26271086885286" lon="12.692041274467309"><ele>356.0</ele><time>2026-04-19T13:47:21Z</time></trkpt><trkpt lat="43.262609224518215" lon="12.691749432451369"><ele>355.5</ele><time>2026-04-19T13:47:22Z</time></trkpt><trkpt lat="43.26250531208173" lon="12.691467132923936"><ele>355.0</ele><time>2026-04-19T13:47:23Z</time></trkpt><trkpt lat="43.26239603260371" lon="12.691180383075078"><ele>354.0</ele><time>2026-04-19T13:47:24Z</time></trkpt><trkpt lat="43.26229030883852" lon="12.690896577569518"><ele>353.0</ele><time>2026-04-19T13:47:25Z</time></trkpt><trkpt lat="43.2621816352843" lon="12.690609476983518"><ele>356.5</ele><time>2026-04-19T13:47:26Z</time></trkpt><trkpt lat="43.26207431649498" lon="12.690323885591239"><ele>360.0</ele><time>2026-04-19T13:47:27Z</time></trkpt><trkpt lat="43.261966755530985" lon="12.690032278433234"><ele>360.0</ele><time>2026-04-19T13:47:28Z</time></trkpt><trkpt lat="43.2618652433095" lon="12.689745746873891"><ele>360.0</ele><time>2026-04-19T13:47:29Z</time></trkpt><trkpt lat="43.261764199234065" lon="12.689458843031634"><ele>357.5</ele><time>2026-04-19T13:47:30Z</time></trkpt><trkpt lat="43.2616554830314" lon="12.689168561885307"><ele>355.0</ele><time>2026-04-19T13:47:31Z</time></trkpt><trkpt lat="43.26154980590104" lon="12.688886313073196"><ele>362.0</ele><time>2026-04-19T13:47:32Z</time></trkpt><trkpt lat="43.26144359564078" lon="12.688597621159944"><ele>369.0</ele><time>2026-04-19T13:47:33Z</time></trkpt><trkpt lat="43.26133815409419" lon="12.688311289358722"><ele>369.0</ele><time>2026-04-19T13:47:34Z</time></trkpt><trkpt lat="43.261238938928074" lon="12.688044152299778"><ele>369.0</ele><time>2026-04-19T13:47:35Z</time></trkpt><trkpt lat="43.26114161487668" lon="12.687781512598217"><ele>369.0</ele><time>2026-04-19T13:47:36Z</time></trkpt><trkpt lat="43.261043361688664" lon="12.687523277601162"><ele>365.6666666666667</ele><time>2026-04-19T13:47:37Z</time></trkpt><trkpt lat="43.2609495407244" lon="12.687271342127184"><ele>362.33333333333337</ele><time>2026-04-19T13:47:38Z</time></trkpt><trkpt lat="43.26085513699413" lon="12.687025183133956"><ele>359.0</ele><time>2026-04-19T13:47:39Z</time></trkpt><trkpt lat="43.26077050901399" lon="12.686780551000194"><ele>358.33333333333337</ele><time>2026-04-19T13:47:40Z</time></trkpt><trkpt lat="43.26068404715463" lon="12.686541820421276"><ele>357.6666666666667</ele><time>2026-04-19T13:47:41Z</time></trkpt><trkpt lat="43.26059612339094" lon="12.6863038862335"><ele>357.0</ele><time>2026-04-19T13:47:42Z</time></trkpt><trkpt lat="43.26051084737783" lon="12.686062558967894"><ele>357.0</ele><time>2026-04-19T13:47:43Z</time></trkpt><trkpt lat="43.260431494601846" lon="12.685817680530652"><ele>357.0</ele><time>2026-04-19T13:47:44Z</time></trkpt><trkpt lat="43.260351211065114" lon="12.685574100834097"><ele>357.0</ele><time>2026-04-19T13:47:45Z</time></trkpt><trkpt lat="43.26027522075065" lon="12.685331569676693"><ele>355.0</ele><time>2026-04-19T13:47:46Z</time></trkpt><trkpt lat="43.26019617901451" lon="12.685094771046908"><ele>353.0</ele><time>2026-04-19T13:47:47Z</time></trkpt><trkpt lat="43.26011057366536" lon="12.684856131023382"><ele>351.0</ele><time>2026-04-19T13:47:48Z</time></trkpt><trkpt lat="43.26002816176732" lon="12.684620533768802"><ele>350.6666666666667</ele><time>2026-04-19T13:47:49Z</time></trkpt><trkpt lat="43.25994115907624" lon="12.684385148141203"><ele>350.33333333333337</ele><time>2026-04-19T13:47:50Z</time></trkpt><trkpt lat="43.259857385757535" lon="12.684150250038343"><ele>350.0</ele><time>2026-04-19T13:47:51Z</time></trkpt><trkpt lat="43.259771750579766" lon="12.683913875520314"><ele>351.33333333333337</ele><time>2026-04-19T13:47:52Z</time></trkpt><trkpt lat="43.25969134324735" lon="12.683675040901232"><ele>352.6666666666667</ele><time>2026-04-19T13:47:53Z</time></trkpt><trkpt lat="43.25961965441127" lon="12.683440693820886"><ele>354.0</ele><time>2026-04-19T13:47:53.999Z</time></trkpt><trkpt lat="43.259569106327625" lon="12.683216220097489"><ele>354.0</ele><time>2026-04-19T13:47:54.999Z</time></trkpt><trkpt lat="43.25954332013455" lon="12.68300267794241"><ele>354.0</ele><time>2026-04-19T13:47:55.999Z</time></trkpt><trkpt lat="43.2595418875398" lon="12.68280500323652"><ele>354.0</ele><time>2026-04-19T13:47:56.999Z</time></trkpt><trkpt lat="43.25956038039468" lon="12.682621634099947"><ele>354.0</ele><time>2026-04-19T13:47:57.999Z</time></trkpt><trkpt lat="43.25959153570093" lon="12.682454702527194"><ele>353.5</ele><time>2026-04-19T13:47:58.999Z</time></trkpt><trkpt lat="43.259629190142526" lon="12.682291983279471"><ele>353.0</ele><time>2026-04-19T13:47:59.999Z</time></trkpt><trkpt lat="43.25967500003323" lon="12.682131179034736"><ele>352.5</ele><time>2026-04-19T13:48:00.999Z</time></trkpt><trkpt lat="43.25973312022492" lon="12.681979791188134"><ele>352.0</ele><time>2026-04-19T13:48:01.999Z</time></trkpt><trkpt lat="43.25980626100848" lon="12.681833711157305"><ele>351.75</ele><time>2026-04-19T13:48:02.999Z</time></trkpt><trkpt lat="43.25989353118242" lon="12.681696665792918"><ele>351.5</ele><time>2026-04-19T13:48:03.999Z</time></trkpt><trkpt lat="43.25999183061333" lon="12.681566465522282"><ele>351.25</ele><time>2026-04-19T13:48:04.999Z</time></trkpt><trkpt lat="43.260099337177536" lon="12.681445678552025"><ele>351.0</ele><time>2026-04-19T13:48:05.999Z</time></trkpt><trkpt lat="43.260216098282385" lon="12.681324590876622"><ele>351.0</ele><time>2026-04-19T13:48:06.999Z</time></trkpt><trkpt lat="43.260335556623076" lon="12.681187173385483"><ele>351.0</ele><time>2026-04-19T13:48:07.999Z</time></trkpt><trkpt lat="43.260460814795174" lon="12.681037366312141"><ele>351.0</ele><time>2026-04-19T13:48:08.999Z</time></trkpt><trkpt lat="43.26059086008642" lon="12.680884752206495"><ele>350.3333333333333</ele><time>2026-04-19T13:48:09.999Z</time></trkpt><trkpt lat="43.26073351273406" lon="12.680728371529028"><ele>349.66666666666663</ele><time>2026-04-19T13:48:10.999Z</time></trkpt><trkpt lat="43.260878826018384" lon="12.680558563786876"><ele>349.0</ele><time>2026-04-19T13:48:11.999Z</time></trkpt><trkpt lat="43.261030629347175" lon="12.680395489849388"><ele>349.0</ele><time>2026-04-19T13:48:12.999Z</time></trkpt><trkpt lat="43.26117940423045" lon="12.680228540986018"><ele>349.0</ele><time>2026-04-19T13:48:13.999Z</time></trkpt><trkpt lat="43.26133259623757" lon="12.680063646312428"><ele>349.0</ele><time>2026-04-19T13:48:14.999Z</time></trkpt><trkpt lat="43.261490492986894" lon="12.679887203749551"><ele>349.0</ele><time>2026-04-19T13:48:15.999Z</time></trkpt><trkpt lat="43.261648765574485" lon="12.67970549013389"><ele>349.0</ele><time>2026-04-19T13:48:16.999Z</time></trkpt><trkpt lat="43.26181125271767" lon="12.679524827721751"><ele>349.0</ele><time>2026-04-19T13:48:17.999Z</time></trkpt><trkpt lat="43.26197594870308" lon="12.6793366983561"><ele>349.0</ele><time>2026-04-19T13:48:18.999Z</time></trkpt><trkpt lat="43.2621421491666" lon="12.679145228759673"><ele>349.0</ele><time>2026-04-19T13:48:19.999Z</time></trkpt><trkpt lat="43.26230595123594" lon="12.678961637006323"><ele>349.0</ele><time>2026-04-19T13:48:20.999Z</time></trkpt><trkpt lat="43.26247058106229" lon="12.678777122974942"><ele>348.66666666666663</ele><time>2026-04-19T13:48:21.999Z</time></trkpt><trkpt lat="43.26263714145203" lon="12.67858924940245"><ele>348.3333333333333</ele><time>2026-04-19T13:48:22.999Z</time></trkpt><trkpt lat="43.26280931478304" lon="12.678389918812298"><ele>348.0</ele><time>2026-04-19T13:48:23.999Z</time></trkpt><trkpt lat="43.26299251788395" lon="12.678180681542457"><ele>348.0</ele><time>2026-04-19T13:48:24.999Z</time></trkpt><trkpt lat="43.26318919108331" lon="12.677961541807937"><ele>348.0</ele><time>2026-04-19T13:48:25.999Z</time></trkpt><trkpt lat="43.263397843397854" lon="12.677734409554553"><ele>348.5</ele><time>2026-04-19T13:48:26.999Z</time></trkpt><trkpt lat="43.263612153705225" lon="12.677509372624115"><ele>349.0</ele><time>2026-04-19T13:48:27.999Z</time></trkpt><trkpt lat="43.263832359553646" lon="12.67728826325478"><ele>351.5</ele><time>2026-04-19T13:48:28.999Z</time></trkpt><trkpt lat="43.26404604722444" lon="12.677066020176762"><ele>354.0</ele><time>2026-04-19T13:48:29.999Z</time></trkpt><trkpt lat="43.2642510846409" lon="12.676839471628133"><ele>354.0</ele><time>2026-04-19T13:48:30.999Z</time></trkpt><trkpt lat="43.26445825750535" lon="12.676611206615203"><ele>354.0</ele><time>2026-04-19T13:48:31.999Z</time></trkpt><trkpt lat="43.26466539461191" lon="12.67638155263769"><ele>353.0</ele><time>2026-04-19T13:48:32.999Z</time></trkpt><trkpt lat="43.26487355670144" lon="12.676151586843286"><ele>352.0</ele><time>2026-04-19T13:48:33.999Z</time></trkpt><trkpt lat="43.26508320727577" lon="12.675917144651617"><ele>352.0</ele><time>2026-04-19T13:48:34.999Z</time></trkpt><trkpt lat="43.2652928260068" lon="12.675684905534569"><ele>352.0</ele><time>2026-04-19T13:48:35.999Z</time></trkpt><trkpt lat="43.265499731237284" lon="12.675455095829186"><ele>352.0</ele><time>2026-04-19T13:48:36.999Z</time></trkpt><trkpt lat="43.265706627244064" lon="12.675227572812018"><ele>352.0</ele><time>2026-04-19T13:48:37.999Z</time></trkpt><trkpt lat="43.265915275894706" lon="12.674998915653035"><ele>352.0</ele><time>2026-04-19T13:48:38.999Z</time></trkpt><trkpt lat="43.266124205152124" lon="12.67477011333674"><ele>352.0</ele><time>2026-04-19T13:48:39.999Z</time></trkpt><trkpt lat="43.266334233386885" lon="12.67453915108296"><ele>352.5</ele><time>2026-04-19T13:48:40.999Z</time></trkpt><trkpt lat="43.26654130750873" lon="12.67430928001957"><ele>353.0</ele><time>2026-04-19T13:48:41.999Z</time></trkpt><trkpt lat="43.2667486191746" lon="12.674076622577932"><ele>353.0</ele><time>2026-04-19T13:48:42.999Z</time></trkpt><trkpt lat="43.26695745943347" lon="12.673840606448001"><ele>353.0</ele><time>2026-04-19T13:48:43.999Z</time></trkpt><trkpt lat="43.26716312951787" lon="12.673610987099348"><ele>354.0</ele><time>2026-04-19T13:48:44.999Z</time></trkpt><trkpt lat="43.26737335827242" lon="12.673382721342799"><ele>355.0</ele><time>2026-04-19T13:48:45.999Z</time></trkpt><trkpt lat="43.26758508462209" lon="12.673156033601476"><ele>355.0</ele><time>2026-04-19T13:48:46.999Z</time></trkpt><trkpt lat="43.267796913490606" lon="12.672932085366915"><ele>355.0</ele><time>2026-04-19T13:48:47.999Z</time></trkpt><trkpt lat="43.2680091589947" lon="12.67270827112033"><ele>355.5</ele><time>2026-04-19T13:48:48.999Z</time></trkpt><trkpt lat="43.26822430287598" lon="12.672489251363515"><ele>356.0</ele><time>2026-04-19T13:48:49.999Z</time></trkpt><trkpt lat="43.26844281610436" lon="12.672273038661597"><ele>356.0</ele><time>2026-04-19T13:48:50.999Z</time></trkpt><trkpt lat="43.268662988448625" lon="12.67206214345712"><ele>356.0</ele><time>2026-04-19T13:48:51.999Z</time></trkpt><trkpt lat="43.268882306490426" lon="12.67185484703858"><ele>356.5</ele><time>2026-04-19T13:48:52.999Z</time></trkpt><trkpt lat="43.26910428084964" lon="12.671650014267776"><ele>357.0</ele><time>2026-04-19T13:48:53.999Z</time></trkpt><trkpt lat="43.26932787379036" lon="12.671447712846806"><ele>357.0</ele><time>2026-04-19T13:48:54.999Z</time></trkpt><trkpt lat="43.26955159399673" lon="12.671249648033562"><ele>357.0</ele><time>2026-04-19T13:48:55.999Z</time></trkpt><trkpt lat="43.26978214798643" lon="12.671054449384675"><ele>357.0</ele><time>2026-04-19T13:48:56.999Z</time></trkpt><trkpt lat="43.270010241038385" lon="12.670868372901031"><ele>357.0</ele><time>2026-04-19T13:48:57.999Z</time></trkpt><trkpt lat="43.270242733196" lon="12.670692231560393"><ele>357.0</ele><time>2026-04-19T13:48:58.999Z</time></trkpt><trkpt lat="43.2704816338736" lon="12.670515589511798"><ele>357.0</ele><time>2026-04-19T13:48:59.999Z</time></trkpt><trkpt lat="43.27071814979331" lon="12.670345860479404"><ele>358.0</ele><time>2026-04-19T13:49:00.999Z</time></trkpt><trkpt lat="43.270953503378436" lon="12.670177430898613"><ele>359.0</ele><time>2026-04-19T13:49:01.999Z</time></trkpt><trkpt lat="43.27119475205331" lon="12.670012615518415"><ele>359.0</ele><time>2026-04-19T13:49:02.999Z</time></trkpt><trkpt lat="43.27143441402731" lon="12.6698528351203"><ele>359.0</ele><time>2026-04-19T13:49:03.999Z</time></trkpt><trkpt lat="43.271678169102934" lon="12.669701297620742"><ele>360.0</ele><time>2026-04-19T13:49:04.999Z</time></trkpt><trkpt lat="43.27192654212845" lon="12.669553493217744"><ele>361.0</ele><time>2026-04-19T13:49:05.999Z</time></trkpt><trkpt lat="43.2721697463021" lon="12.669409170113749"><ele>361.0</ele><time>2026-04-19T13:49:06.999Z</time></trkpt><trkpt lat="43.27241956214441" lon="12.669264946670577"><ele>361.0</ele><time>2026-04-19T13:49:07.999Z</time></trkpt><trkpt lat="43.27266627829447" lon="12.66913034507678"><ele>361.0</ele><time>2026-04-19T13:49:08.999Z</time></trkpt><trkpt lat="43.27291680748438" lon="12.668997081319581"><ele>361.0</ele><time>2026-04-19T13:49:10Z</time></trkpt><trkpt lat="43.27316919620514" lon="12.668865800327467"><ele>361.5</ele><time>2026-04-19T13:49:11Z</time></trkpt><trkpt lat="43.27341595462924" lon="12.668737806910583"><ele>362.0</ele><time>2026-04-19T13:49:12Z</time></trkpt><trkpt lat="43.27367008413018" lon="12.668611507994198"><ele>362.0</ele><time>2026-04-19T13:49:13Z</time></trkpt><trkpt lat="43.27392312759463" lon="12.668486073064022"><ele>362.0</ele><time>2026-04-19T13:49:14Z</time></trkpt><trkpt lat="43.27417517394443" lon="12.668359598356401"><ele>362.5</ele><time>2026-04-19T13:49:15Z</time></trkpt><trkpt lat="43.274425153950055" lon="12.668229910259473"><ele>363.0</ele><time>2026-04-19T13:49:16Z</time></trkpt><trkpt lat="43.2746749467705" lon="12.668097857298159"><ele>364.5</ele><time>2026-04-19T13:49:17Z</time></trkpt><trkpt lat="43.27492607078824" lon="12.66796714243663"><ele>366.0</ele><time>2026-04-19T13:49:18Z</time></trkpt><trkpt lat="43.275176166696056" lon="12.667837389627026"><ele>366.0</ele><time>2026-04-19T13:49:19Z</time></trkpt><trkpt lat="43.275424756349054" lon="12.667706160294001"><ele>366.0</ele><time>2026-04-19T13:49:20Z</time></trkpt><trkpt lat="43.275673945175726" lon="12.667573319081773"><ele>367.5</ele><time>2026-04-19T13:49:21Z</time></trkpt><trkpt lat="43.27592688695458" lon="12.66744579011741"><ele>369.0</ele><time>2026-04-19T13:49:22Z</time></trkpt><trkpt lat="43.276175910960795" lon="12.667318856851427"><ele>369.0</ele><time>2026-04-19T13:49:23Z</time></trkpt><trkpt lat="43.276431634362716" lon="12.667195211858637"><ele>369.0</ele><time>2026-04-19T13:49:24Z</time></trkpt><trkpt lat="43.27668341039877" lon="12.66706903914262"><ele>370.5</ele><time>2026-04-19T13:49:25Z</time></trkpt><trkpt lat="43.27693535367259" lon="12.666943524213737"><ele>372.0</ele><time>2026-04-19T13:49:26Z</time></trkpt><trkpt lat="43.27718761724937" lon="12.666814864984495"><ele>371.5</ele><time>2026-04-19T13:49:27Z</time></trkpt><trkpt lat="43.27743580311219" lon="12.666684149106798"><ele>371.0</ele><time>2026-04-19T13:49:28Z</time></trkpt><trkpt lat="43.27768814332232" lon="12.66655338350403"><ele>371.0</ele><time>2026-04-19T13:49:29Z</time></trkpt><trkpt lat="43.27793199657861" lon="12.666416859190965"><ele>371.0</ele><time>2026-04-19T13:49:30Z</time></trkpt><trkpt lat="43.278176873157754" lon="12.666276526613212"><ele>371.5</ele><time>2026-04-19T13:49:31Z</time></trkpt><trkpt lat="43.2784250143384" lon="12.666133685999881"><ele>372.0</ele><time>2026-04-19T13:49:32Z</time></trkpt><trkpt lat="43.27867408968027" lon="12.665991307654966"><ele>372.0</ele><time>2026-04-19T13:49:33Z</time></trkpt><trkpt lat="43.27892189458606" lon="12.66584894504259"><ele>372.0</ele><time>2026-04-19T13:49:34Z</time></trkpt><trkpt lat="43.279163472663214" lon="12.665707032176629"><ele>373.5</ele><time>2026-04-19T13:49:35Z</time></trkpt><trkpt lat="43.27940872216466" lon="12.66556420232081"><ele>375.0</ele><time>2026-04-19T13:49:36Z</time></trkpt><trkpt lat="43.27965702579428" lon="12.665422709106062"><ele>377.5</ele><time>2026-04-19T13:49:37Z</time></trkpt><trkpt lat="43.279904320742666" lon="12.665277326751195"><ele>380.0</ele><time>2026-04-19T13:49:38Z</time></trkpt><trkpt lat="43.28015099736479" lon="12.665133191862912"><ele>380.0</ele><time>2026-04-19T13:49:39Z</time></trkpt><trkpt lat="43.280398607422455" lon="12.664989836448214"><ele>380.0</ele><time>2026-04-19T13:49:40Z</time></trkpt><trkpt lat="43.28064386179321" lon="12.66484664315037"><ele>380.5</ele><time>2026-04-19T13:49:41Z</time></trkpt><trkpt lat="43.28088753107886" lon="12.664702275044055"><ele>381.0</ele><time>2026-04-19T13:49:42Z</time></trkpt><trkpt lat="43.281133558855466" lon="12.664559785626135"><ele>381.5</ele><time>2026-04-19T13:49:43Z</time></trkpt><trkpt lat="43.281381565997854" lon="12.664418877878493"><ele>382.0</ele><time>2026-04-19T13:49:44Z</time></trkpt><trkpt lat="43.28162665901886" lon="12.664276383824133"><ele>382.0</ele><time>2026-04-19T13:49:45Z</time></trkpt><trkpt lat="43.2818745843804" lon="12.664137018388102"><ele>382.0</ele><time>2026-04-19T13:49:46Z</time></trkpt><trkpt lat="43.282123474718524" lon="12.663995692542713"><ele>383.0</ele><time>2026-04-19T13:49:47Z</time></trkpt><trkpt lat="43.28237148969242" lon="12.663852311725687"><ele>384.0</ele><time>2026-04-19T13:49:48Z</time></trkpt><trkpt lat="43.28261659019017" lon="12.663707504071493"><ele>384.0</ele><time>2026-04-19T13:49:49Z</time></trkpt><trkpt lat="43.28286188307796" lon="12.663563786360136"><ele>384.0</ele><time>2026-04-19T13:49:50Z</time></trkpt><trkpt lat="43.28310843619144" lon="12.663416986409652"><ele>384.5</ele><time>2026-04-19T13:49:51Z</time></trkpt><trkpt lat="43.283351837968105" lon="12.663272742470827"><ele>385.0</ele><time>2026-04-19T13:49:52Z</time></trkpt><trkpt lat="43.283597211731184" lon="12.663130491463104"><ele>385.0</ele><time>2026-04-19T13:49:53Z</time></trkpt><trkpt lat="43.283844179958045" lon="12.66298977398024"><ele>385.0</ele><time>2026-04-19T13:49:54Z</time></trkpt><trkpt lat="43.284089577820644" lon="12.662848574220996"><ele>386.5</ele><time>2026-04-19T13:49:55Z</time></trkpt><trkpt lat="43.284336638392155" lon="12.662708509255605"><ele>388.0</ele><time>2026-04-19T13:49:56Z</time></trkpt><trkpt lat="43.28458470364894" lon="12.662566626606019"><ele>388.0</ele><time>2026-04-19T13:49:57Z</time></trkpt><trkpt lat="43.2848330001128" lon="12.662425773887582"><ele>388.0</ele><time>2026-04-19T13:49:58Z</time></trkpt><trkpt lat="43.28507912528565" lon="12.662284405062419"><ele>388.0</ele><time>2026-04-19T13:49:59Z</time></trkpt><trkpt lat="43.28532672244863" lon="12.662141903579027"><ele>388.0</ele><time>2026-04-19T13:50:00Z</time></trkpt><trkpt lat="43.28557466447394" lon="12.66199919541557"><ele>389.0</ele><time>2026-04-19T13:50:01Z</time></trkpt><trkpt lat="43.28582041097729" lon="12.661858264397617"><ele>390.0</ele><time>2026-04-19T13:50:02Z</time></trkpt><trkpt lat="43.28606493581981" lon="12.66171269606555"><ele>390.0</ele><time>2026-04-19T13:50:03Z</time></trkpt><trkpt lat="43.286308179725886" lon="12.661563859202293"><ele>390.0</ele><time>2026-04-19T13:50:04Z</time></trkpt><trkpt lat="43.28655129324636" lon="12.661407355370194"><ele>390.0</ele><time>2026-04-19T13:50:04.999Z</time></trkpt><trkpt lat="43.2867925515951" lon="12.661244618998218"><ele>390.0</ele><time>2026-04-19T13:50:05.999Z</time></trkpt><trkpt lat="43.28703032205325" lon="12.66107816026977"><ele>390.5</ele><time>2026-04-19T13:50:06.999Z</time></trkpt><trkpt lat="43.28726534834072" lon="12.66090835847989"><ele>391.0</ele><time>2026-04-19T13:50:07.999Z</time></trkpt><trkpt lat="43.28750061457558" lon="12.660735098243148"><ele>391.0</ele><time>2026-04-19T13:50:08.999Z</time></trkpt><trkpt lat="43.28773340705745" lon="12.660554744055094"><ele>391.0</ele><time>2026-04-19T13:50:09.999Z</time></trkpt><trkpt lat="43.2879626052086" lon="12.660368053667607"><ele>391.0</ele><time>2026-04-19T13:50:10.999Z</time></trkpt><trkpt lat="43.2881837464624" lon="12.66018180445789"><ele>391.0</ele><time>2026-04-19T13:50:11.999Z</time></trkpt><trkpt lat="43.28842324727984" lon="12.659970774057449"><ele>391.0</ele><time>2026-04-19T13:50:12.999Z</time></trkpt><trkpt lat="43.288644231360216" lon="12.659775021061382"><ele>391.0</ele><time>2026-04-19T13:50:13.999Z</time></trkpt><trkpt lat="43.28886480484554" lon="12.659569696757494"><ele>393.0</ele><time>2026-04-19T13:50:14.999Z</time></trkpt><trkpt lat="43.28908131498629" lon="12.659359252709782"><ele>395.0</ele><time>2026-04-19T13:50:15.999Z</time></trkpt><trkpt lat="43.2892962893262" lon="12.65914154677031"><ele>395.0</ele><time>2026-04-19T13:50:16.999Z</time></trkpt><trkpt lat="43.28950908118654" lon="12.65892166074345"><ele>395.0</ele><time>2026-04-19T13:50:17.999Z</time></trkpt><trkpt lat="43.289720378471856" lon="12.658696747438766"><ele>396.5</ele><time>2026-04-19T13:50:18.999Z</time></trkpt><trkpt lat="43.28992707996767" lon="12.658467536642895"><ele>398.0</ele><time>2026-04-19T13:50:19.999Z</time></trkpt><trkpt lat="43.2901332337445" lon="12.658232813267901"><ele>398.0</ele><time>2026-04-19T13:50:20.999Z</time></trkpt><trkpt lat="43.290336810523755" lon="12.65799184648996"><ele>398.0</ele><time>2026-04-19T13:50:21.999Z</time></trkpt><trkpt lat="43.290535879400025" lon="12.657746675004807"><ele>399.5</ele><time>2026-04-19T13:50:22.999Z</time></trkpt><trkpt lat="43.29073222571354" lon="12.65749839429552"><ele>401.0</ele><time>2026-04-19T13:50:23.999Z</time></trkpt><trkpt lat="43.29092624654186" lon="12.657250090076543"><ele>401.0</ele><time>2026-04-19T13:50:24.999Z</time></trkpt><trkpt lat="43.29112054807475" lon="12.656996114417675"><ele>401.0</ele><time>2026-04-19T13:50:25.999Z</time></trkpt><trkpt lat="43.29130644611179" lon="12.656730730414916"><ele>402.0</ele><time>2026-04-19T13:50:26.999Z</time></trkpt><trkpt lat="43.29149566522801" lon="12.656468979154795"><ele>403.0</ele><time>2026-04-19T13:50:27.999Z</time></trkpt><trkpt lat="43.291684355703076" lon="12.656202861397015"><ele>401.0</ele><time>2026-04-19T13:50:28.999Z</time></trkpt><trkpt lat="43.291870396507576" lon="12.655940838884137"><ele>399.0</ele><time>2026-04-19T13:50:29.999Z</time></trkpt><trkpt lat="43.29205683255465" lon="12.655681079488097"><ele>399.0</ele><time>2026-04-19T13:50:30.999Z</time></trkpt><trkpt lat="43.292242060097756" lon="12.655420289693977"><ele>399.0</ele><time>2026-04-19T13:50:31.999Z</time></trkpt><trkpt lat="43.29243286194113" lon="12.655155341818647"><ele>397.5</ele><time>2026-04-19T13:50:32.999Z</time></trkpt><trkpt lat="43.292620549778086" lon="12.654893235313654"><ele>396.0</ele><time>2026-04-19T13:50:33.999Z</time></trkpt><trkpt lat="43.29280756210934" lon="12.654631922443734"><ele>395.5</ele><time>2026-04-19T13:50:34.999Z</time></trkpt><trkpt lat="43.292992485541895" lon="12.654368809598509"><ele>395.0</ele><time>2026-04-19T13:50:35.999Z</time></trkpt><trkpt lat="43.293178720903924" lon="12.654111733299814"><ele>396.0</ele><time>2026-04-19T13:50:36.999Z</time></trkpt><trkpt lat="43.29336631450047" lon="12.653851532530155"><ele>397.0</ele><time>2026-04-19T13:50:37.999Z</time></trkpt><trkpt lat="43.293564124527435" lon="12.653597228741422"><ele>397.5</ele><time>2026-04-19T13:50:38.999Z</time></trkpt><trkpt lat="43.29376061518324" lon="12.653342636289086"><ele>398.0</ele><time>2026-04-19T13:50:39.999Z</time></trkpt><trkpt lat="43.29395812653982" lon="12.653092389805478"><ele>399.5</ele><time>2026-04-19T13:50:40.999Z</time></trkpt><trkpt lat="43.29415639963463" lon="12.652848642555758"><ele>401.0</ele><time>2026-04-19T13:50:41.999Z</time></trkpt><trkpt lat="43.2943621669504" lon="12.652618748628448"><ele>403.5</ele><time>2026-04-19T13:50:42.999Z</time></trkpt><trkpt lat="43.29456747444118" lon="12.652391334588575"><ele>406.0</ele><time>2026-04-19T13:50:43.999Z</time></trkpt><trkpt lat="43.29477644292954" lon="12.652166184868154"><ele>407.5</ele><time>2026-04-19T13:50:44.999Z</time></trkpt><trkpt lat="43.29498728500259" lon="12.651935493388262"><ele>409.0</ele><time>2026-04-19T13:50:45.999Z</time></trkpt><trkpt lat="43.295197088932674" lon="12.651708653383578"><ele>409.0</ele><time>2026-04-19T13:50:46.999Z</time></trkpt><trkpt lat="43.29541462543312" lon="12.651486320848532"><ele>409.0</ele><time>2026-04-19T13:50:47.999Z</time></trkpt><trkpt lat="43.29562079272435" lon="12.651267095632255"><ele>408.5</ele><time>2026-04-19T13:50:48.999Z</time></trkpt><trkpt lat="43.29583904112807" lon="12.651044210631731"><ele>408.0</ele><time>2026-04-19T13:50:49.999Z</time></trkpt><trkpt lat="43.29605259370538" lon="12.650823191678965"><ele>408.0</ele><time>2026-04-19T13:50:50.999Z</time></trkpt><trkpt lat="43.29626797755725" lon="12.650602949780179"><ele>408.0</ele><time>2026-04-19T13:50:51.999Z</time></trkpt><trkpt lat="43.29648152845275" lon="12.65038087728911"><ele>409.0</ele><time>2026-04-19T13:50:52.999Z</time></trkpt><trkpt lat="43.29669861885345" lon="12.650158061286561"><ele>410.0</ele><time>2026-04-19T13:50:53.999Z</time></trkpt><trkpt lat="43.29690962584357" lon="12.649937789438859"><ele>410.0</ele><time>2026-04-19T13:50:54.999Z</time></trkpt><trkpt lat="43.297123091167826" lon="12.649717784557511"><ele>410.0</ele><time>2026-04-19T13:50:55.999Z</time></trkpt><trkpt lat="43.29733756182892" lon="12.64949967191975"><ele>413.5</ele><time>2026-04-19T13:50:56.999Z</time></trkpt><trkpt lat="43.29755312921744" lon="12.649280966912725"><ele>417.0</ele><time>2026-04-19T13:50:57.999Z</time></trkpt><trkpt lat="43.29776734739356" lon="12.649058965293705"><ele>417.0</ele><time>2026-04-19T13:50:58.999Z</time></trkpt><trkpt lat="43.29797757395249" lon="12.648836099559663"><ele>417.0</ele><time>2026-04-19T13:50:59.999Z</time></trkpt><trkpt lat="43.29819184374862" lon="12.648609480923083"><ele>420.0</ele><time>2026-04-19T13:51:00.999Z</time></trkpt><trkpt lat="43.29839958792221" lon="12.648380376036219"><ele>423.0</ele><time>2026-04-19T13:51:01.999Z</time></trkpt><trkpt lat="43.29860603013674" lon="12.648150107648664"><ele>423.0</ele><time>2026-04-19T13:51:02.999Z</time></trkpt><trkpt lat="43.29881438489606" lon="12.647913493701399"><ele>423.0</ele><time>2026-04-19T13:51:03.999Z</time></trkpt><trkpt lat="43.29901992159572" lon="12.647671870120643"><ele>422.5</ele><time>2026-04-19T13:51:04.999Z</time></trkpt><trkpt lat="43.29921953173915" lon="12.647427252055802"><ele>422.0</ele><time>2026-04-19T13:51:05.999Z</time></trkpt><trkpt lat="43.29941164057062" lon="12.647178732703004"><ele>422.5</ele><time>2026-04-19T13:51:06.999Z</time></trkpt><trkpt lat="43.299624536952855" lon="12.646922941094575"><ele>423.0</ele><time>2026-04-19T13:51:07.999Z</time></trkpt><trkpt lat="43.299797751502666" lon="12.646664222323341"><ele>424.0</ele><time>2026-04-19T13:51:08.999Z</time></trkpt><trkpt lat="43.299985825722736" lon="12.646397798491952"><ele>425.0</ele><time>2026-04-19T13:51:09.999Z</time></trkpt><trkpt lat="43.3001698360163" lon="12.646128947366645"><ele>421.5</ele><time>2026-04-19T13:51:10.999Z</time></trkpt><trkpt lat="43.30034646796173" lon="12.645852481043104"><ele>418.0</ele><time>2026-04-19T13:51:11.999Z</time></trkpt><trkpt lat="43.30051751872866" lon="12.64557020154352"><ele>418.0</ele><time>2026-04-19T13:51:12.999Z</time></trkpt><trkpt lat="43.30068474089117" lon="12.645285425133503"><ele>418.0</ele><time>2026-04-19T13:51:13.999Z</time></trkpt><trkpt lat="43.30084983240629" lon="12.644995414547786"><ele>418.0</ele><time>2026-04-19T13:51:14.999Z</time></trkpt><trkpt lat="43.301015180492215" lon="12.6446988887697"><ele>418.0</ele><time>2026-04-19T13:51:16Z</time></trkpt><trkpt lat="43.30117292845486" lon="12.644410333833205"><ele>415.5</ele><time>2026-04-19T13:51:17Z</time></trkpt><trkpt lat="43.30132329843542" lon="12.644106879554489"><ele>413.0</ele><time>2026-04-19T13:51:18Z</time></trkpt><trkpt lat="43.301471585473266" lon="12.643807346701118"><ele>410.5</ele><time>2026-04-19T13:51:19Z</time></trkpt><trkpt lat="43.30162573769977" lon="12.643493846927623"><ele>408.0</ele><time>2026-04-19T13:51:20Z</time></trkpt><trkpt lat="43.30176679462047" lon="12.643188894475768"><ele>408.0</ele><time>2026-04-19T13:51:21Z</time></trkpt><trkpt lat="43.30190597457894" lon="12.642884861798438"><ele>408.0</ele><time>2026-04-19T13:51:22Z</time></trkpt><trkpt lat="43.302051709865744" lon="12.642569579438609"><ele>407.5</ele><time>2026-04-19T13:51:23Z</time></trkpt><trkpt lat="43.30219461227449" lon="12.642255888095628"><ele>407.0</ele><time>2026-04-19T13:51:24Z</time></trkpt><trkpt lat="43.302336273898774" lon="12.641950207047138"><ele>408.0</ele><time>2026-04-19T13:51:25Z</time></trkpt><trkpt lat="43.3024819486256" lon="12.641645062283818"><ele>409.0</ele><time>2026-04-19T13:51:26Z</time></trkpt><trkpt lat="43.30262681010422" lon="12.64134168948681"><ele>409.5</ele><time>2026-04-19T13:51:27Z</time></trkpt><trkpt lat="43.30277414388233" lon="12.64103288996825"><ele>410.0</ele><time>2026-04-19T13:51:28Z</time></trkpt><trkpt lat="43.30291526124201" lon="12.64072484979488"><ele>410.0</ele><time>2026-04-19T13:51:29Z</time></trkpt><trkpt lat="43.303056003392435" lon="12.640414810747005"><ele>410.0</ele><time>2026-04-19T13:51:30Z</time></trkpt><trkpt lat="43.30319969597122" lon="12.640106448054096"><ele>411.5</ele><time>2026-04-19T13:51:31Z</time></trkpt><trkpt lat="43.30334455862486" lon="12.639798088551158"><ele>413.0</ele><time>2026-04-19T13:51:32Z</time></trkpt><trkpt lat="43.30348579972905" lon="12.639489595271375"><ele>413.0</ele><time>2026-04-19T13:51:33Z</time></trkpt><trkpt lat="43.30363023295928" lon="12.639179628049316"><ele>413.0</ele><time>2026-04-19T13:51:34Z</time></trkpt><trkpt lat="43.303773075661105" lon="12.638869102831666"><ele>414.5</ele><time>2026-04-19T13:51:35Z</time></trkpt><trkpt lat="43.30391850842479" lon="12.638558284203361"><ele>416.0</ele><time>2026-04-19T13:51:36Z</time></trkpt><trkpt lat="43.30405912945907" lon="12.638247633657281"><ele>416.0</ele><time>2026-04-19T13:51:37Z</time></trkpt><trkpt lat="43.30420484661305" lon="12.637937951540618"><ele>416.0</ele><time>2026-04-19T13:51:38Z</time></trkpt><trkpt lat="43.30435137449243" lon="12.637627577403308"><ele>415.5</ele><time>2026-04-19T13:51:39Z</time></trkpt><trkpt lat="43.30449427702113" lon="12.637318860709897"><ele>415.0</ele><time>2026-04-19T13:51:40Z</time></trkpt><trkpt lat="43.30463752935189" lon="12.63701211198756"><ele>416.0</ele><time>2026-04-19T13:51:41Z</time></trkpt><trkpt lat="43.30478282555568" lon="12.636700802731276"><ele>417.0</ele><time>2026-04-19T13:51:42Z</time></trkpt><trkpt lat="43.30492456081711" lon="12.636391246424449"><ele>417.0</ele><time>2026-04-19T13:51:43Z</time></trkpt><trkpt lat="43.305063974322756" lon="12.636081312002146"><ele>417.0</ele><time>2026-04-19T13:51:44Z</time></trkpt><trkpt lat="43.305205843631754" lon="12.635769992803372"><ele>417.0</ele><time>2026-04-19T13:51:45Z</time></trkpt><trkpt lat="43.30534603658661" lon="12.635463065210683"><ele>417.0</ele><time>2026-04-19T13:51:46Z</time></trkpt><trkpt lat="43.305493316290956" lon="12.635153268045817"><ele>418.0</ele><time>2026-04-19T13:51:47Z</time></trkpt><trkpt lat="43.30563831866051" lon="12.634843557104277"><ele>419.0</ele><time>2026-04-19T13:51:48Z</time></trkpt><trkpt lat="43.305782338785896" lon="12.634535414494158"><ele>419.0</ele><time>2026-04-19T13:51:49Z</time></trkpt><trkpt lat="43.30592711736536" lon="12.634223338906395"><ele>419.0</ele><time>2026-04-19T13:51:50Z</time></trkpt><trkpt lat="43.30606923224415" lon="12.633915530927602"><ele>420.5</ele><time>2026-04-19T13:51:51Z</time></trkpt><trkpt lat="43.30621528909575" lon="12.633607005452296"><ele>422.0</ele><time>2026-04-19T13:51:52Z</time></trkpt><trkpt lat="43.3063623946336" lon="12.633298635600115"><ele>421.5</ele><time>2026-04-19T13:51:53Z</time></trkpt><trkpt lat="43.30650729573978" lon="12.632990138368818"><ele>421.0</ele><time>2026-04-19T13:51:54Z</time></trkpt><trkpt lat="43.30665051763955" lon="12.632678168418934"><ele>421.0</ele><time>2026-04-19T13:51:55Z</time></trkpt><trkpt lat="43.30679385276223" lon="12.632369771790286"><ele>421.0</ele><time>2026-04-19T13:51:56Z</time></trkpt><trkpt lat="43.30693762977013" lon="12.632057402263337"><ele>424.0</ele><time>2026-04-19T13:51:57Z</time></trkpt><trkpt lat="43.30707955041361" lon="12.631747989793134"><ele>427.0</ele><time>2026-04-19T13:51:58Z</time></trkpt><trkpt lat="43.30722643034183" lon="12.631437220515393"><ele>424.5</ele><time>2026-04-19T13:51:59Z</time></trkpt><trkpt lat="43.30736934574074" lon="12.631125178414074"><ele>422.0</ele><time>2026-04-19T13:52:00Z</time></trkpt><trkpt lat="43.307513687619746" lon="12.63081863805392"><ele>422.0</ele><time>2026-04-19T13:52:01Z</time></trkpt><trkpt lat="43.30765610514889" lon="12.63050993317414"><ele>422.0</ele><time>2026-04-19T13:52:02Z</time></trkpt><trkpt lat="43.3078027960126" lon="12.630199820245853"><ele>421.5</ele><time>2026-04-19T13:52:03Z</time></trkpt><trkpt lat="43.3079495297337" lon="12.629888290007418"><ele>421.0</ele><time>2026-04-19T13:52:04Z</time></trkpt><trkpt lat="43.30809192233862" lon="12.629578634356724"><ele>418.5</ele><time>2026-04-19T13:52:05Z</time></trkpt><trkpt lat="43.308231746942226" lon="12.62927185702957"><ele>416.0</ele><time>2026-04-19T13:52:06Z</time></trkpt><trkpt lat="43.30837453329805" lon="12.628960088822538"><ele>416.0</ele><time>2026-04-19T13:52:06.999Z</time></trkpt><trkpt lat="43.30851709529836" lon="12.628653342487583"><ele>416.0</ele><time>2026-04-19T13:52:07.999Z</time></trkpt><trkpt lat="43.308663306808754" lon="12.62834272096474"><ele>416.0</ele><time>2026-04-19T13:52:08.999Z</time></trkpt><trkpt lat="43.30880621427454" lon="12.628033950044697"><ele>416.0</ele><time>2026-04-19T13:52:09.999Z</time></trkpt><trkpt lat="43.30894757652665" lon="12.627725483797295"><ele>416.0</ele><time>2026-04-19T13:52:10.999Z</time></trkpt><trkpt lat="43.309091290027325" lon="12.62741255329196"><ele>416.0</ele><time>2026-04-19T13:52:11.999Z</time></trkpt><trkpt lat="43.309236106756714" lon="12.627105117181756"><ele>417.5</ele><time>2026-04-19T13:52:12.999Z</time></trkpt><trkpt lat="43.309373420631154" lon="12.626796900205134"><ele>419.0</ele><time>2026-04-19T13:52:13.999Z</time></trkpt><trkpt lat="43.30952152387839" lon="12.626487040568026"><ele>419.0</ele><time>2026-04-19T13:52:14.999Z</time></trkpt><trkpt lat="43.309665257869845" lon="12.62617595122011"><ele>419.0</ele><time>2026-04-19T13:52:15.999Z</time></trkpt><trkpt lat="43.30980468622726" lon="12.6258667417604"><ele>419.5</ele><time>2026-04-19T13:52:16.999Z</time></trkpt><trkpt lat="43.309947812813064" lon="12.625559887590569"><ele>420.0</ele><time>2026-04-19T13:52:17.999Z</time></trkpt><trkpt lat="43.31009247065327" lon="12.625246605212082"><ele>420.0</ele><time>2026-04-19T13:52:18.999Z</time></trkpt><trkpt lat="43.31024035063925" lon="12.62493969566408"><ele>420.0</ele><time>2026-04-19T13:52:19.999Z</time></trkpt><trkpt lat="43.31038450151761" lon="12.62463258929344"><ele>420.0</ele><time>2026-04-19T13:52:20.999Z</time></trkpt><trkpt lat="43.31053458964714" lon="12.624325842096024"><ele>420.0</ele><time>2026-04-19T13:52:21.999Z</time></trkpt><trkpt lat="43.31067609802936" lon="12.624013296281618"><ele>421.5</ele><time>2026-04-19T13:52:22.999Z</time></trkpt><trkpt lat="43.31081662413169" lon="12.623706712346928"><ele>423.0</ele><time>2026-04-19T13:52:23.999Z</time></trkpt><trkpt lat="43.31095743429849" lon="12.623395771372316"><ele>423.5</ele><time>2026-04-19T13:52:24.999Z</time></trkpt><trkpt lat="43.3111006621633" lon="12.623084630731489"><ele>424.0</ele><time>2026-04-19T13:52:25.999Z</time></trkpt><trkpt lat="43.3112508924012" lon="12.622774394130149"><ele>424.0</ele><time>2026-04-19T13:52:26.999Z</time></trkpt><trkpt lat="43.31138945148523" lon="12.622468185957226"><ele>424.0</ele><time>2026-04-19T13:52:27.999Z</time></trkpt><trkpt lat="43.31152499807724" lon="12.622154483069686"><ele>425.5</ele><time>2026-04-19T13:52:28.999Z</time></trkpt><trkpt lat="43.31167259269647" lon="12.621843090963258"><ele>427.0</ele><time>2026-04-19T13:52:29.999Z</time></trkpt><trkpt lat="43.31181168860771" lon="12.62153084487331"><ele>427.0</ele><time>2026-04-19T13:52:30.999Z</time></trkpt><trkpt lat="43.311960969072686" lon="12.621220855682918"><ele>427.0</ele><time>2026-04-19T13:52:31.999Z</time></trkpt><trkpt lat="43.31210234851313" lon="12.620913081517664"><ele>427.0</ele><time>2026-04-19T13:52:32.999Z</time></trkpt><trkpt lat="43.3122500745023" lon="12.62060452731194"><ele>427.0</ele><time>2026-04-19T13:52:33.999Z</time></trkpt><trkpt lat="43.31239398679771" lon="12.620295910838768"><ele>427.0</ele><time>2026-04-19T13:52:34.999Z</time></trkpt><trkpt lat="43.31253629437106" lon="12.619989007085934"><ele>427.0</ele><time>2026-04-19T13:52:35.999Z</time></trkpt><trkpt lat="43.31269075912674" lon="12.619685443658188"><ele>426.0</ele><time>2026-04-19T13:52:36.999Z</time></trkpt><trkpt lat="43.31283826497112" lon="12.619382154265393"><ele>425.0</ele><time>2026-04-19T13:52:37.999Z</time></trkpt><trkpt lat="43.31299821447027" lon="12.619086716145093"><ele>425.5</ele><time>2026-04-19T13:52:38.999Z</time></trkpt><trkpt lat="43.31316127750564" lon="12.618793581827232"><ele>426.0</ele><time>2026-04-19T13:52:39.999Z</time></trkpt><trkpt lat="43.31332661557265" lon="12.618502668601646"><ele>426.0</ele><time>2026-04-19T13:52:40.999Z</time></trkpt><trkpt lat="43.31348841615476" lon="12.618213675884284"><ele>426.0</ele><time>2026-04-19T13:52:41.999Z</time></trkpt><trkpt lat="43.31366353494764" lon="12.617929931096077"><ele>426.0</ele><time>2026-04-19T13:52:42.999Z</time></trkpt><trkpt lat="43.313832594616464" lon="12.617644034516712"><ele>426.0</ele><time>2026-04-19T13:52:43.999Z</time></trkpt><trkpt lat="43.31401205668773" lon="12.617370487532833"><ele>426.5</ele><time>2026-04-19T13:52:44.999Z</time></trkpt><trkpt lat="43.31419017612194" lon="12.617094996486058"><ele>427.0</ele><time>2026-04-19T13:52:45.999Z</time></trkpt><trkpt lat="43.314364646976294" lon="12.616812833252665"><ele>427.0</ele><time>2026-04-19T13:52:46.999Z</time></trkpt><trkpt lat="43.31454548054557" lon="12.616536741674187"><ele>427.0</ele><time>2026-04-19T13:52:47.999Z</time></trkpt><trkpt lat="43.31472060797117" lon="12.616264145941855"><ele>425.5</ele><time>2026-04-19T13:52:48.999Z</time></trkpt><trkpt lat="43.31487780612669" lon="12.616027791727962"><ele>424.0</ele><time>2026-04-19T13:52:49.999Z</time></trkpt><trkpt lat="43.31504243634891" lon="12.615775667472125"><ele>424.0</ele><time>2026-04-19T13:52:50.999Z</time></trkpt><trkpt lat="43.31520736413608" lon="12.615525794210603"><ele>424.0</ele><time>2026-04-19T13:52:51.999Z</time></trkpt><trkpt lat="43.315364013797165" lon="12.615280644711666"><ele>424.0</ele><time>2026-04-19T13:52:52.999Z</time></trkpt><trkpt lat="43.31551188722707" lon="12.615059197730577"><ele>424.0</ele><time>2026-04-19T13:52:53.999Z</time></trkpt><trkpt lat="43.31565323455804" lon="12.614837954849682"><ele>424.0</ele><time>2026-04-19T13:52:54.999Z</time></trkpt><trkpt lat="43.31578561509777" lon="12.614626366798905"><ele>423.6666666666667</ele><time>2026-04-19T13:52:55.999Z</time></trkpt><trkpt lat="43.31592960935788" lon="12.614401674415184"><ele>423.33333333333337</ele><time>2026-04-19T13:52:56.999Z</time></trkpt><trkpt lat="43.316064520218326" lon="12.6141859469379"><ele>423.0</ele><time>2026-04-19T13:52:57.999Z</time></trkpt><trkpt lat="43.31620727799059" lon="12.613987080676626"><ele>423.0</ele><time>2026-04-19T13:52:58.999Z</time></trkpt><trkpt lat="43.31634629041442" lon="12.613808264087144"><ele>423.0</ele><time>2026-04-19T13:52:59.999Z</time></trkpt><trkpt lat="43.316467980006486" lon="12.61357082621535"><ele>423.0</ele><time>2026-04-19T13:53:00.999Z</time></trkpt><trkpt lat="43.31658911820874" lon="12.613377643968276"><ele>423.33333333333337</ele><time>2026-04-19T13:53:01.999Z</time></trkpt><trkpt lat="43.31671911542318" lon="12.613194516462729"><ele>423.6666666666667</ele><time>2026-04-19T13:53:02.999Z</time></trkpt><trkpt lat="43.31685046658155" lon="12.613010840022335"><ele>424.0</ele><time>2026-04-19T13:53:03.999Z</time></trkpt><trkpt lat="43.316988677970116" lon="12.612829983407023"><ele>424.0</ele><time>2026-04-19T13:53:04.999Z</time></trkpt><trkpt lat="43.317124426474294" lon="12.61264220692114"><ele>424.0</ele><time>2026-04-19T13:53:05.999Z</time></trkpt><trkpt lat="43.31726800574606" lon="12.612453278116428"><ele>424.0</ele><time>2026-04-19T13:53:06.999Z</time></trkpt><trkpt lat="43.31741017650866" lon="12.612261115314313"><ele>424.0</ele><time>2026-04-19T13:53:07.999Z</time></trkpt><trkpt lat="43.317556080701245" lon="12.612061509115163"><ele>424.0</ele><time>2026-04-19T13:53:08.999Z</time></trkpt><trkpt lat="43.317714343617375" lon="12.611856100314588"><ele>424.0</ele><time>2026-04-19T13:53:09.999Z</time></trkpt><trkpt lat="43.31788123266207" lon="12.611649879114632"><ele>423.5</ele><time>2026-04-19T13:53:10.999Z</time></trkpt><trkpt lat="43.31805709812034" lon="12.611452596120486"><ele>423.0</ele><time>2026-04-19T13:53:11.999Z</time></trkpt><trkpt lat="43.31823504182749" lon="12.611253203814094"><ele>421.5</ele><time>2026-04-19T13:53:12.999Z</time></trkpt><trkpt lat="43.31841764656558" lon="12.611044318570777"><ele>420.0</ele><time>2026-04-19T13:53:13.999Z</time></trkpt><trkpt lat="43.31859571194657" lon="12.61083387244277"><ele>420.0</ele><time>2026-04-19T13:53:14.999Z</time></trkpt><trkpt lat="43.31877970527455" lon="12.610623125176845"><ele>420.0</ele><time>2026-04-19T13:53:15.999Z</time></trkpt><trkpt lat="43.31896906629584" lon="12.610414199144751"><ele>422.0</ele><time>2026-04-19T13:53:16.999Z</time></trkpt><trkpt lat="43.31915960906257" lon="12.610194313723483"><ele>424.0</ele><time>2026-04-19T13:53:17.999Z</time></trkpt><trkpt lat="43.3193458654229" lon="12.609969620304044"><ele>424.0</ele><time>2026-04-19T13:53:18.999Z</time></trkpt><trkpt lat="43.319531016786875" lon="12.609744449675606"><ele>424.0</ele><time>2026-04-19T13:53:19.999Z</time></trkpt><trkpt lat="43.31972372598664" lon="12.609524601088152"><ele>424.5</ele><time>2026-04-19T13:53:20.999Z</time></trkpt><trkpt lat="43.31991557457779" lon="12.60930914029177"><ele>425.0</ele><time>2026-04-19T13:53:22Z</time></trkpt><trkpt lat="43.320099981377666" lon="12.609088273377528"><ele>425.0</ele><time>2026-04-19T13:53:23Z</time></trkpt><trkpt lat="43.32029622950254" lon="12.608858381098102"><ele>425.0</ele><time>2026-04-19T13:53:24Z</time></trkpt><trkpt lat="43.32049685738845" lon="12.608623062234116"><ele>423.0</ele><time>2026-04-19T13:53:25Z</time></trkpt><trkpt lat="43.3207002585267" lon="12.60839159989366"><ele>421.0</ele><time>2026-04-19T13:53:26Z</time></trkpt><trkpt lat="43.320911837561" lon="12.608156367566899"><ele>421.0</ele><time>2026-04-19T13:53:27Z</time></trkpt><trkpt lat="43.32112297001312" lon="12.607917633744394"><ele>421.0</ele><time>2026-04-19T13:53:28Z</time></trkpt><trkpt lat="43.321326580791485" lon="12.607687184656202"><ele>423.5</ele><time>2026-04-19T13:53:29Z</time></trkpt><trkpt lat="43.32152922698074" lon="12.607457866448751"><ele>426.0</ele><time>2026-04-19T13:53:30Z</time></trkpt><trkpt lat="43.32172516855234" lon="12.607227189436145"><ele>425.5</ele><time>2026-04-19T13:53:31Z</time></trkpt><trkpt lat="43.32192136942231" lon="12.60699063658533"><ele>425.0</ele><time>2026-04-19T13:53:32Z</time></trkpt><trkpt lat="43.322121331825755" lon="12.60674675682869"><ele>427.5</ele><time>2026-04-19T13:53:33Z</time></trkpt><trkpt lat="43.32232040906953" lon="12.606498000759624"><ele>430.0</ele><time>2026-04-19T13:53:34Z</time></trkpt><trkpt lat="43.32251445782048" lon="12.606246985384612"><ele>429.5</ele><time>2026-04-19T13:53:35Z</time></trkpt><trkpt lat="43.322699749075035" lon="12.605993378548623"><ele>429.0</ele><time>2026-04-19T13:53:36Z</time></trkpt><trkpt lat="43.32288261908108" lon="12.605739432814039"><ele>429.0</ele><time>2026-04-19T13:53:37Z</time></trkpt><trkpt lat="43.32305604365054" lon="12.605477972905772"><ele>429.0</ele><time>2026-04-19T13:53:38Z</time></trkpt><trkpt lat="43.32323155533475" lon="12.605214548854635"><ele>429.0</ele><time>2026-04-19T13:53:39Z</time></trkpt><trkpt lat="43.32341080904538" lon="12.604946466911832"><ele>429.0</ele><time>2026-04-19T13:53:40Z</time></trkpt><trkpt lat="43.32357565866307" lon="12.604678859477163"><ele>429.5</ele><time>2026-04-19T13:53:41Z</time></trkpt><trkpt lat="43.32374653297125" lon="12.604420044146222"><ele>430.0</ele><time>2026-04-19T13:53:42Z</time></trkpt><trkpt lat="43.32391702367093" lon="12.604167400235871"><ele>431.0</ele><time>2026-04-19T13:53:43Z</time></trkpt><trkpt lat="43.32408585547034" lon="12.6039187940167"><ele>432.0</ele><time>2026-04-19T13:53:44Z</time></trkpt><trkpt lat="43.32424790912249" lon="12.603667814803057"><ele>431.5</ele><time>2026-04-19T13:53:45Z</time></trkpt><trkpt lat="43.324408871501895" lon="12.603420928048688"><ele>431.0</ele><time>2026-04-19T13:53:46Z</time></trkpt><trkpt lat="43.32457240827826" lon="12.603171971786617"><ele>432.0</ele><time>2026-04-19T13:53:47Z</time></trkpt><trkpt lat="43.32472985427971" lon="12.6029458597165"><ele>433.0</ele><time>2026-04-19T13:53:48Z</time></trkpt><trkpt lat="43.32488298335576" lon="12.602725664045243"><ele>434.0</ele><time>2026-04-19T13:53:49Z</time></trkpt><trkpt lat="43.32503524206018" lon="12.60246507678204"><ele>434.5</ele><time>2026-04-19T13:53:50Z</time></trkpt><trkpt lat="43.32518883374065" lon="12.602206403515737"><ele>435.0</ele><time>2026-04-19T13:53:51Z</time></trkpt><trkpt lat="43.32534686637312" lon="12.601966362027152"><ele>435.33333333333337</ele><time>2026-04-19T13:53:52Z</time></trkpt><trkpt lat="43.32550053498588" lon="12.601731757471224"><ele>435.6666666666667</ele><time>2026-04-19T13:53:53Z</time></trkpt><trkpt lat="43.325647057234164" lon="12.601518936036037"><ele>436.0</ele><time>2026-04-19T13:53:54Z</time></trkpt><trkpt lat="43.325790272439825" lon="12.601301182077403"><ele>437.0</ele><time>2026-04-19T13:53:55Z</time></trkpt><trkpt lat="43.32592155174838" lon="12.601089918418527"><ele>438.0</ele><time>2026-04-19T13:53:56Z</time></trkpt><trkpt lat="43.32604476309589" lon="12.600901393767717"><ele>439.0</ele><time>2026-04-19T13:53:57Z</time></trkpt><trkpt lat="43.3261623586626" lon="12.600733048157993"><ele>439.0</ele><time>2026-04-19T13:53:58Z</time></trkpt><trkpt lat="43.32627690905209" lon="12.60055390202749"><ele>439.0</ele><time>2026-04-19T13:53:59Z</time></trkpt><trkpt lat="43.32639495321252" lon="12.600373593841013"><ele>439.0</ele><time>2026-04-19T13:54:00Z</time></trkpt><trkpt lat="43.326514820922625" lon="12.600192671857405"><ele>439.33333333333337</ele><time>2026-04-19T13:54:01Z</time></trkpt><trkpt lat="43.32663506057597" lon="12.60001405806362"><ele>439.66666666666663</ele><time>2026-04-19T13:54:02Z</time></trkpt><trkpt lat="43.32675421577863" lon="12.599830983511948"><ele>440.0</ele><time>2026-04-19T13:54:03Z</time></trkpt><trkpt lat="43.32687259246955" lon="12.599645527743954"><ele>440.3333333333333</ele><time>2026-04-19T13:54:04Z</time></trkpt><trkpt lat="43.326995249288565" lon="12.599454134077362"><ele>440.66666666666663</ele><time>2026-04-19T13:54:05Z</time></trkpt><trkpt lat="43.327124353519366" lon="12.599261393465207"><ele>441.0</ele><time>2026-04-19T13:54:06Z</time></trkpt><trkpt lat="43.32725643196938" lon="12.599070534897791"><ele>441.0</ele><time>2026-04-19T13:54:07Z</time></trkpt><trkpt lat="43.327394841917176" lon="12.598880486165564"><ele>441.0</ele><time>2026-04-19T13:54:08Z</time></trkpt><trkpt lat="43.327545259860486" lon="12.59868330264323"><ele>441.0</ele><time>2026-04-19T13:54:09Z</time></trkpt><trkpt lat="43.32769443034639" lon="12.598481886354943"><ele>441.66666666666663</ele><time>2026-04-19T13:54:09.999Z</time></trkpt><trkpt lat="43.32784524708155" lon="12.598279535615353"><ele>442.3333333333333</ele><time>2026-04-19T13:54:10.999Z</time></trkpt><trkpt lat="43.32799725948868" lon="12.598079461021772"><ele>443.0</ele><time>2026-04-19T13:54:11.999Z</time></trkpt><trkpt lat="43.328151822099294" lon="12.59788045677466"><ele>443.0</ele><time>2026-04-19T13:54:12.999Z</time></trkpt><trkpt lat="43.328311342182026" lon="12.597685597535827"><ele>443.0</ele><time>2026-04-19T13:54:13.999Z</time></trkpt><trkpt lat="43.32847273857771" lon="12.597490690741845"><ele>443.0</ele><time>2026-04-19T13:54:14.999Z</time></trkpt><trkpt lat="43.328634089416674" lon="12.597297417530845"><ele>443.0</ele><time>2026-04-19T13:54:15.999Z</time></trkpt><trkpt lat="43.32880087472909" lon="12.597089692911672"><ele>443.0</ele><time>2026-04-19T13:54:16.999Z</time></trkpt><trkpt lat="43.328993947330595" lon="12.59688962389002"><ele>444.5</ele><time>2026-04-19T13:54:17.999Z</time></trkpt><trkpt lat="43.32919585291795" lon="12.596663951131603"><ele>446.0</ele><time>2026-04-19T13:54:18.999Z</time></trkpt><trkpt lat="43.32940691104749" lon="12.59642766465965"><ele>446.0</ele><time>2026-04-19T13:54:19.999Z</time></trkpt><trkpt lat="43.32962519774857" lon="12.596183536330253"><ele>446.0</ele><time>2026-04-19T13:54:20.999Z</time></trkpt><trkpt lat="43.329848008883104" lon="12.595933626534636"><ele>447.0</ele><time>2026-04-19T13:54:21.999Z</time></trkpt><trkpt lat="43.33005991359601" lon="12.595671145368508"><ele>448.0</ele><time>2026-04-19T13:54:22.999Z</time></trkpt><trkpt lat="43.330278529581385" lon="12.595432557282994"><ele>447.5</ele><time>2026-04-19T13:54:23.999Z</time></trkpt><trkpt lat="43.33048785690378" lon="12.59520514021148"><ele>447.0</ele><time>2026-04-19T13:54:24.999Z</time></trkpt><trkpt lat="43.330701427001756" lon="12.59496809867164"><ele>448.0</ele><time>2026-04-19T13:54:25.999Z</time></trkpt><trkpt lat="43.330904360560794" lon="12.594737410999945"><ele>449.0</ele><time>2026-04-19T13:54:26.999Z</time></trkpt><trkpt lat="43.3310912096106" lon="12.59452318112555"><ele>448.3333333333333</ele><time>2026-04-19T13:54:27.999Z</time></trkpt><trkpt lat="43.331266648556365" lon="12.594326668069982"><ele>447.66666666666663</ele><time>2026-04-19T13:54:28.999Z</time></trkpt><trkpt lat="43.33143753378585" lon="12.594140038526008"><ele>447.0</ele><time>2026-04-19T13:54:29.999Z</time></trkpt><trkpt lat="43.331604498296606" lon="12.593957906342329"><ele>449.0</ele><time>2026-04-19T13:54:30.999Z</time></trkpt><trkpt lat="43.33176891289319" lon="12.593775686045833"><ele>451.0</ele><time>2026-04-19T13:54:31.999Z</time></trkpt><trkpt lat="43.33193361973631" lon="12.593590285272956"><ele>453.0</ele><time>2026-04-19T13:54:32.999Z</time></trkpt><trkpt lat="43.332101299472015" lon="12.59340114149466"><ele>454.33333333333337</ele><time>2026-04-19T13:54:33.999Z</time></trkpt><trkpt lat="43.332268126482916" lon="12.593212619791055"><ele>455.6666666666667</ele><time>2026-04-19T13:54:34.999Z</time></trkpt><trkpt lat="43.332434010033545" lon="12.593027290856805"><ele>457.0</ele><time>2026-04-19T13:54:35.999Z</time></trkpt><trkpt lat="43.332596771384914" lon="12.592842459602663"><ele>457.33333333333337</ele><time>2026-04-19T13:54:36.999Z</time></trkpt><trkpt lat="43.332761501012" lon="12.592656476203658"><ele>457.66666666666663</ele><time>2026-04-19T13:54:37.999Z</time></trkpt><trkpt lat="43.33292711462038" lon="12.592470516825996"><ele>458.0</ele><time>2026-04-19T13:54:38.999Z</time></trkpt><trkpt lat="43.33309512342363" lon="12.592285371843241"><ele>459.0</ele><time>2026-04-19T13:54:39.999Z</time></trkpt><trkpt lat="43.33325865494852" lon="12.592102737842778"><ele>460.0</ele><time>2026-04-19T13:54:40.999Z</time></trkpt><trkpt lat="43.333424664390215" lon="12.59191576558102"><ele>461.0</ele><time>2026-04-19T13:54:41.999Z</time></trkpt><trkpt lat="43.333590216408666" lon="12.591727273994085"><ele>461.0</ele><time>2026-04-19T13:54:42.999Z</time></trkpt><trkpt lat="43.33375909088585" lon="12.591538409075776"><ele>461.0</ele><time>2026-04-19T13:54:43.999Z</time></trkpt><trkpt lat="43.333929324718845" lon="12.59134893786593"><ele>461.0</ele><time>2026-04-19T13:54:44.999Z</time></trkpt><trkpt lat="43.33409804008136" lon="12.59115961676276"><ele>461.0</ele><time>2026-04-19T13:54:45.999Z</time></trkpt><trkpt lat="43.33427655122186" lon="12.590961783382966"><ele>461.0</ele><time>2026-04-19T13:54:46.999Z</time></trkpt><trkpt lat="43.33445830023904" lon="12.59075813694223"><ele>461.0</ele><time>2026-04-19T13:54:47.999Z</time></trkpt><trkpt lat="43.33464530576978" lon="12.590550394243117"><ele>461.0</ele><time>2026-04-19T13:54:48.999Z</time></trkpt><trkpt lat="43.33482921339494" lon="12.5903439861893"><ele>461.0</ele><time>2026-04-19T13:54:49.999Z</time></trkpt><trkpt lat="43.3350132621689" lon="12.590139053652281"><ele>461.0</ele><time>2026-04-19T13:54:50.999Z</time></trkpt><trkpt lat="43.335189862862144" lon="12.589942711110519"><ele>461.0</ele><time>2026-04-19T13:54:51.999Z</time></trkpt><trkpt lat="43.335363895175014" lon="12.589744582452308"><ele>461.0</ele><time>2026-04-19T13:54:52.999Z</time></trkpt><trkpt lat="43.335536498837726" lon="12.589549828018395"><ele>461.0</ele><time>2026-04-19T13:54:53.999Z</time></trkpt><trkpt lat="43.335709370840675" lon="12.589357242728711"><ele>462.0</ele><time>2026-04-19T13:54:54.999Z</time></trkpt><trkpt lat="43.33588238433374" lon="12.589163742207212"><ele>463.0</ele><time>2026-04-19T13:54:55.999Z</time></trkpt><trkpt lat="43.33605328551304" lon="12.588969251692374"><ele>464.0</ele><time>2026-04-19T13:54:56.999Z</time></trkpt><trkpt lat="43.33622000154087" lon="12.588780509765973"><ele>464.3333333333333</ele><time>2026-04-19T13:54:57.999Z</time></trkpt><trkpt lat="43.33638825171191" lon="12.588591906679117"><ele>464.66666666666663</ele><time>2026-04-19T13:54:58.999Z</time></trkpt><trkpt lat="43.33655597100931" lon="12.588403661042694"><ele>465.0</ele><time>2026-04-19T13:54:59.999Z</time></trkpt><trkpt lat="43.336729538847955" lon="12.588212698501248"><ele>465.0</ele><time>2026-04-19T13:55:00.999Z</time></trkpt><trkpt lat="43.3369008341035" lon="12.588020140120063"><ele>465.0</ele><time>2026-04-19T13:55:01.999Z</time></trkpt><trkpt lat="43.337077539956745" lon="12.587817040741841"><ele>465.0</ele><time>2026-04-19T13:55:02.999Z</time></trkpt><trkpt lat="43.337245896383706" lon="12.587613602914287"><ele>465.0</ele><time>2026-04-19T13:55:03.999Z</time></trkpt><trkpt lat="43.33741297397633" lon="12.587397236616654"><ele>465.0</ele><time>2026-04-19T13:55:04.999Z</time></trkpt><trkpt lat="43.33756512604304" lon="12.587175002935904"><ele>465.0</ele><time>2026-04-19T13:55:05.999Z</time></trkpt><trkpt lat="43.337701328925355" lon="12.586941348545166"><ele>465.0</ele><time>2026-04-19T13:55:06.999Z</time></trkpt><trkpt lat="43.33783007171893" lon="12.586697881578099"><ele>465.0</ele><time>2026-04-19T13:55:07.999Z</time></trkpt><trkpt lat="43.33795091365056" lon="12.586451972024285"><ele>465.0</ele><time>2026-04-19T13:55:08.999Z</time></trkpt><trkpt lat="43.338058969459766" lon="12.586199866934143"><ele>465.0</ele><time>2026-04-19T13:55:09.999Z</time></trkpt><trkpt lat="43.33815638659508" lon="12.585944781377561"><ele>466.0</ele><time>2026-04-19T13:55:10.999Z</time></trkpt><trkpt lat="43.33824593912069" lon="12.5856831414732"><ele>467.0</ele><time>2026-04-19T13:55:11.999Z</time></trkpt><trkpt lat="43.33832715466837" lon="12.58541848733466"><ele>468.0</ele><time>2026-04-19T13:55:12.999Z</time></trkpt><trkpt lat="43.338399985742186" lon="12.585145892106103"><ele>468.33333333333337</ele><time>2026-04-19T13:55:13.999Z</time></trkpt><trkpt lat="43.33846338969891" lon="12.5848656844909"><ele>468.6666666666667</ele><time>2026-04-19T13:55:14.999Z</time></trkpt><trkpt lat="43.33851799838318" lon="12.584575385813414"><ele>469.0</ele><time>2026-04-19T13:55:15.999Z</time></trkpt><trkpt lat="43.338562568185324" lon="12.58427040514908"><ele>467.5</ele><time>2026-04-19T13:55:16.999Z</time></trkpt><trkpt lat="43.33859869735484" lon="12.583943850211796"><ele>466.0</ele><time>2026-04-19T13:55:17.999Z</time></trkpt><trkpt lat="43.33863257757065" lon="12.583599556099788"><ele>463.0</ele><time>2026-04-19T13:55:18.999Z</time></trkpt><trkpt lat="43.33866359756939" lon="12.58323341068819"><ele>460.0</ele><time>2026-04-19T13:55:19.999Z</time></trkpt><trkpt lat="43.33869591198067" lon="12.582867183863428"><ele>459.0</ele><time>2026-04-19T13:55:20.999Z</time></trkpt><trkpt lat="43.338727886515834" lon="12.582528517233575"><ele>458.0</ele><time>2026-04-19T13:55:21.999Z</time></trkpt><trkpt lat="43.33876170677148" lon="12.582199890454978"><ele>457.5</ele><time>2026-04-19T13:55:22.999Z</time></trkpt><trkpt lat="43.33879377594948" lon="12.581865183134363"><ele>457.0</ele><time>2026-04-19T13:55:23.999Z</time></trkpt><trkpt lat="43.338827843477354" lon="12.581534785860883"><ele>457.0</ele><time>2026-04-19T13:55:24.999Z</time></trkpt><trkpt lat="43.338862963069126" lon="12.581211309268037"><ele>457.0</ele><time>2026-04-19T13:55:25.999Z</time></trkpt><trkpt lat="43.338890855545074" lon="12.580886655486525"><ele>457.5</ele><time>2026-04-19T13:55:26.999Z</time></trkpt><trkpt lat="43.33891953675382" lon="12.580575786553116"><ele>458.0</ele><time>2026-04-19T13:55:28Z</time></trkpt><trkpt lat="43.33894992929699" lon="12.580268057622131"><ele>458.0</ele><time>2026-04-19T13:55:29Z</time></trkpt><trkpt lat="43.33897927928412" lon="12.57997239789328"><ele>458.0</ele><time>2026-04-19T13:55:30Z</time></trkpt><trkpt lat="43.33901153970624" lon="12.579678157257211"><ele>458.0</ele><time>2026-04-19T13:55:31Z</time></trkpt><trkpt lat="43.33903930357662" lon="12.579395079568641"><ele>458.0</ele><time>2026-04-19T13:55:32Z</time></trkpt><trkpt lat="43.339066709609035" lon="12.57911491974624"><ele>458.0</ele><time>2026-04-19T13:55:33Z</time></trkpt><trkpt lat="43.339095023230165" lon="12.578827896332578"><ele>458.0</ele><time>2026-04-19T13:55:34Z</time></trkpt><trkpt lat="43.33912443038639" lon="12.578542980613637"><ele>458.66666666666663</ele><time>2026-04-19T13:55:35Z</time></trkpt><trkpt lat="43.339151372077225" lon="12.578259658547031"><ele>459.33333333333337</ele><time>2026-04-19T13:55:36Z</time></trkpt><trkpt lat="43.33917509108455" lon="12.577980514483365"><ele>460.0</ele><time>2026-04-19T13:55:37Z</time></trkpt><trkpt lat="43.33916828448475" lon="12.577708714627727"><ele>460.0</ele><time>2026-04-19T13:55:38Z</time></trkpt><trkpt lat="43.33915673171552" lon="12.577439022249497"><ele>460.0</ele><time>2026-04-19T13:55:39Z</time></trkpt><trkpt lat="43.33913357292795" lon="12.577169124430984"><ele>460.0</ele><time>2026-04-19T13:55:40Z</time></trkpt><trkpt lat="43.339312464723896" lon="12.576846574074459"><ele>458.5</ele><time>2026-04-19T13:55:41Z</time></trkpt><trkpt lat="43.33935993506653" lon="12.576544542179587"><ele>457.0</ele><time>2026-04-19T13:55:42Z</time></trkpt><trkpt lat="43.339414985691036" lon="12.576221592551615"><ele>456.5</ele><time>2026-04-19T13:55:43Z</time></trkpt><trkpt lat="43.33948034278231" lon="12.575895630591752"><ele>456.0</ele><time>2026-04-19T13:55:44Z</time></trkpt><trkpt lat="43.33955198095045" lon="12.57557442116754"><ele>457.0</ele><time>2026-04-19T13:55:45Z</time></trkpt><trkpt lat="43.33962879388193" lon="12.575256444561294"><ele>458.0</ele><time>2026-04-19T13:55:46Z</time></trkpt><trkpt lat="43.33970431755512" lon="12.574950424695553"><ele>459.0</ele><time>2026-04-19T13:55:47Z</time></trkpt><trkpt lat="43.33977913966431" lon="12.574639802054849"><ele>460.0</ele><time>2026-04-19T13:55:48Z</time></trkpt><trkpt lat="43.339854577290986" lon="12.574334378153862"><ele>460.0</ele><time>2026-04-19T13:55:49Z</time></trkpt><trkpt lat="43.33994170657575" lon="12.574023040953133"><ele>460.0</ele><time>2026-04-19T13:55:50Z</time></trkpt><trkpt lat="43.34003013548079" lon="12.573712674901241"><ele>459.5</ele><time>2026-04-19T13:55:51Z</time></trkpt><trkpt lat="43.340122655146786" lon="12.573401857218522"><ele>459.0</ele><time>2026-04-19T13:55:52Z</time></trkpt><trkpt lat="43.34021526197907" lon="12.573094753241218"><ele>459.5</ele><time>2026-04-19T13:55:53Z</time></trkpt><trkpt lat="43.340313100212384" lon="12.572785667625833"><ele>460.0</ele><time>2026-04-19T13:55:54Z</time></trkpt><trkpt lat="43.340419164201165" lon="12.57247940426939"><ele>460.0</ele><time>2026-04-19T13:55:55Z</time></trkpt><trkpt lat="43.340537394196154" lon="12.572164359197464"><ele>460.0</ele><time>2026-04-19T13:55:56Z</time></trkpt><trkpt lat="43.34065777547074" lon="12.571846714347709"><ele>460.0</ele><time>2026-04-19T13:55:57Z</time></trkpt><trkpt lat="43.34077924325351" lon="12.571530499502476"><ele>460.0</ele><time>2026-04-19T13:55:58Z</time></trkpt><trkpt lat="43.34090490560752" lon="12.57120756354954"><ele>459.5</ele><time>2026-04-19T13:55:59Z</time></trkpt><trkpt lat="43.34103707443787" lon="12.570885600612957"><ele>459.0</ele><time>2026-04-19T13:56:00Z</time></trkpt><trkpt lat="43.341174062663356" lon="12.570567336100112"><ele>457.5</ele><time>2026-04-19T13:56:01Z</time></trkpt><trkpt lat="43.34131952959849" lon="12.570264687219026"><ele>456.0</ele><time>2026-04-19T13:56:02Z</time></trkpt><trkpt lat="43.341476541643196" lon="12.569972126982208"><ele>456.0</ele><time>2026-04-19T13:56:03Z</time></trkpt><trkpt lat="43.34162800223495" lon="12.569679625235409"><ele>456.0</ele><time>2026-04-19T13:56:04Z</time></trkpt><trkpt lat="43.34178141352939" lon="12.569382645794484"><ele>457.5</ele><time>2026-04-19T13:56:05Z</time></trkpt><trkpt lat="43.341938522298896" lon="12.569083969447783"><ele>459.0</ele><time>2026-04-19T13:56:06Z</time></trkpt><trkpt lat="43.34210100843497" lon="12.568791926019262"><ele>459.5</ele><time>2026-04-19T13:56:07Z</time></trkpt><trkpt lat="43.34226895582236" lon="12.568510271203088"><ele>460.0</ele><time>2026-04-19T13:56:08Z</time></trkpt><trkpt lat="43.342436695778375" lon="12.568241713362724"><ele>460.0</ele><time>2026-04-19T13:56:09Z</time></trkpt><trkpt lat="43.34260943900959" lon="12.567997237687928"><ele>460.0</ele><time>2026-04-19T13:56:10Z</time></trkpt><trkpt lat="43.34276873352834" lon="12.567756112350438"><ele>460.5</ele><time>2026-04-19T13:56:11Z</time></trkpt><trkpt lat="43.342934549739546" lon="12.567519498332695"><ele>461.0</ele><time>2026-04-19T13:56:12Z</time></trkpt><trkpt lat="43.343102432919146" lon="12.567290874471698"><ele>461.0</ele><time>2026-04-19T13:56:13Z</time></trkpt><trkpt lat="43.34326995785275" lon="12.567073085433892"><ele>461.0</ele><time>2026-04-19T13:56:14Z</time></trkpt><trkpt lat="43.343439462828215" lon="12.566858343863682"><ele>461.0</ele><time>2026-04-19T13:56:15Z</time></trkpt><trkpt lat="43.3436067898841" lon="12.56665057120898"><ele>461.0</ele><time>2026-04-19T13:56:16Z</time></trkpt><trkpt lat="43.34377062617558" lon="12.566447331225747"><ele>461.0</ele><time>2026-04-19T13:56:16.999Z</time></trkpt><trkpt lat="43.343943533037624" lon="12.56625287519092"><ele>461.3333333333333</ele><time>2026-04-19T13:56:17.999Z</time></trkpt><trkpt lat="43.34411878821701" lon="12.566058841559958"><ele>461.66666666666663</ele><time>2026-04-19T13:56:18.999Z</time></trkpt><trkpt lat="43.34429395678229" lon="12.565870730556195"><ele>462.0</ele><time>2026-04-19T13:56:19.999Z</time></trkpt><trkpt lat="43.344470835065806" lon="12.565680902558103"><ele>462.0</ele><time>2026-04-19T13:56:20.999Z</time></trkpt><trkpt lat="43.344645690776474" lon="12.565490556394842"><ele>462.0</ele><time>2026-04-19T13:56:21.999Z</time></trkpt><trkpt lat="43.344829458503675" lon="12.565291285986394"><ele>463.0</ele><time>2026-04-19T13:56:22.999Z</time></trkpt><trkpt lat="43.34501328227365" lon="12.565096174223262"><ele>464.0</ele><time>2026-04-19T13:56:23.999Z</time></trkpt><trkpt lat="43.34520649537528" lon="12.564891758755026"><ele>464.0</ele><time>2026-04-19T13:56:24.999Z</time></trkpt><trkpt lat="43.345395323740185" lon="12.564691834729455"><ele>464.0</ele><time>2026-04-19T13:56:25.999Z</time></trkpt><trkpt lat="43.34558190422606" lon="12.564493939096506"><ele>464.0</ele><time>2026-04-19T13:56:26.999Z</time></trkpt><trkpt lat="43.345771417181254" lon="12.564298138581417"><ele>464.0</ele><time>2026-04-19T13:56:27.999Z</time></trkpt><trkpt lat="43.345952000014904" lon="12.564105400327097"><ele>464.0</ele><time>2026-04-19T13:56:28.999Z</time></trkpt><trkpt lat="43.34613489194613" lon="12.56391354934888"><ele>464.0</ele><time>2026-04-19T13:56:29.999Z</time></trkpt><trkpt lat="43.34631729917575" lon="12.563717783251573"><ele>464.5</ele><time>2026-04-19T13:56:30.999Z</time></trkpt><trkpt lat="43.34650457493406" lon="12.56351995218001"><ele>465.0</ele><time>2026-04-19T13:56:31.999Z</time></trkpt><trkpt lat="43.34668897585315" lon="12.56332111880837"><ele>465.0</ele><time>2026-04-19T13:56:32.999Z</time></trkpt><trkpt lat="43.346872245315545" lon="12.563125148622383"><ele>465.0</ele><time>2026-04-19T13:56:33.999Z</time></trkpt><trkpt lat="43.347057236855655" lon="12.562929302613313"><ele>465.0</ele><time>2026-04-19T13:56:34.999Z</time></trkpt><trkpt lat="43.34724048802481" lon="12.562734346530377"><ele>465.0</ele><time>2026-04-19T13:56:35.999Z</time></trkpt><trkpt lat="43.347425119131195" lon="12.562537672715024"><ele>465.0</ele><time>2026-04-19T13:56:36.999Z</time></trkpt><trkpt lat="43.34761060140096" lon="12.562340967878866"><ele>465.0</ele><time>2026-04-19T13:56:37.999Z</time></trkpt><trkpt lat="43.34779126101316" lon="12.562146657468105"><ele>464.66666666666663</ele><time>2026-04-19T13:56:38.999Z</time></trkpt><trkpt lat="43.347962635766095" lon="12.5619678500437"><ele>464.3333333333333</ele><time>2026-04-19T13:56:39.999Z</time></trkpt><trkpt lat="43.34812349966924" lon="12.561794724812072"><ele>464.0</ele><time>2026-04-19T13:56:40.999Z</time></trkpt><trkpt lat="43.348281387916494" lon="12.561626294471488"><ele>463.66666666666663</ele><time>2026-04-19T13:56:41.999Z</time></trkpt><trkpt lat="43.348427759205784" lon="12.561467755580397"><ele>463.33333333333337</ele><time>2026-04-19T13:56:42.999Z</time></trkpt><trkpt lat="43.348568701376955" lon="12.561316627239528"><ele>463.0</ele><time>2026-04-19T13:56:43.999Z</time></trkpt><trkpt lat="43.348706423807904" lon="12.56116793936493"><ele>463.0</ele><time>2026-04-19T13:56:44.999Z</time></trkpt><trkpt lat="43.348841665902086" lon="12.561035077460767"><ele>463.0</ele><time>2026-04-19T13:56:45.999Z</time></trkpt><trkpt lat="43.348964187549825" lon="12.560921235980043"><ele>463.0</ele><time>2026-04-19T13:56:46.999Z</time></trkpt><trkpt lat="43.34908296151425" lon="12.560810643900263"><ele>462.75</ele><time>2026-04-19T13:56:47.999Z</time></trkpt><trkpt lat="43.34919329867067" lon="12.560700895993223"><ele>462.5</ele><time>2026-04-19T13:56:48.999Z</time></trkpt><trkpt lat="43.349293058116764" lon="12.560605330663108"><ele>462.25</ele><time>2026-04-19T13:56:49.999Z</time></trkpt><trkpt lat="43.3493864484002" lon="12.560543152633967"><ele>462.0</ele><time>2026-04-19T13:56:50.999Z</time></trkpt><trkpt lat="43.349471965836045" lon="12.560503431698317"><ele>462.0</ele><time>2026-04-19T13:56:51.999Z</time></trkpt><trkpt lat="43.349547695047086" lon="12.560470992059003"><ele>462.0</ele><time>2026-04-19T13:56:52.999Z</time></trkpt><trkpt lat="43.34960008018687" lon="12.560409519140517"><ele>462.0</ele><time>2026-04-19T13:56:53.999Z</time></trkpt><trkpt lat="43.34970471504905" lon="12.560369777854229"><ele>462.0</ele><time>2026-04-19T13:56:55.999Z</time></trkpt><trkpt lat="43.34976795416012" lon="12.560302274009189"><ele>462.0</ele><time>2026-04-19T13:56:57.999Z</time></trkpt><trkpt lat="43.34980902001639" lon="12.560221751251552"><ele>462.0</ele><time>2026-04-19T13:56:59.999Z</time></trkpt><trkpt lat="43.34987144691647" lon="12.56014255966375"><ele>461.8</ele><time>2026-04-19T13:57:01.999Z</time></trkpt><trkpt lat="43.34995094892112" lon="12.560101532201202"><ele>461.6</ele><time>2026-04-19T13:57:03.999Z</time></trkpt><trkpt lat="43.35006427446826" lon="12.560084760913806"><ele>461.40000000000003</ele><time>2026-04-19T13:57:06.999Z</time></trkpt><trkpt lat="43.35012469591769" lon="12.560166420197428"><ele>461.20000000000005</ele><time>2026-04-19T13:58:03Z</time></trkpt><trkpt lat="43.35017820986304" lon="12.560238743850615"><ele>461.0</ele><time>2026-04-19T13:58:13Z</time></trkpt><trkpt lat="43.34994728398503" lon="12.560443872432103"><ele>460.99999999999994</ele><time>2026-04-19T13:58:17.999Z</time></trkpt><trkpt lat="43.349884463825305" lon="12.56038906459343"><ele>461.0</ele><time>2026-04-19T13:58:21.999Z</time></trkpt><trkpt lat="43.349969793239985" lon="12.560359378854406"><ele>461.0</ele><time>2026-04-19T14:02:32Z</time></trkpt><trkpt lat="43.35007175879034" lon="12.560355578215558"><ele>461.0</ele><time>2026-04-19T14:02:34Z</time></trkpt><trkpt lat="43.35012498680268" lon="12.560282986253899"><ele>460.99999999999994</ele><time>2026-04-19T14:02:36Z</time></trkpt><trkpt lat="43.35017412970552" lon="12.560215943129732"><ele>461.0</ele><time>2026-04-19T14:02:38Z</time></trkpt><trkpt lat="43.350219963216794" lon="12.560130755781486"><ele>461.0</ele><time>2026-04-19T14:02:40.999Z</time></trkpt><trkpt lat="43.35028543823636" lon="12.560058666357882"><ele>461.0</ele><time>2026-04-19T14:02:43.999Z</time></trkpt><trkpt lat="43.35034644602283" lon="12.55997723248264"><ele>461.0</ele><time>2026-04-19T14:02:45.999Z</time></trkpt><trkpt lat="43.350247878787336" lon="12.559723937521452"><ele>461.0</ele><time>2026-04-19T14:02:46.999Z</time></trkpt><trkpt lat="43.35031583993543" lon="12.559612422525042"><ele>460.8333333333333</ele><time>2026-04-19T14:02:48.999Z</time></trkpt><trkpt lat="43.35036383437058" lon="12.559462646341364"><ele>460.66666666666663</ele><time>2026-04-19T14:02:50.999Z</time></trkpt><trkpt lat="43.35038084574563" lon="12.55937407939508"><ele>460.5</ele><time>2026-04-19T14:02:51.999Z</time></trkpt><trkpt lat="43.35040340988845" lon="12.55928390726666"><ele>460.33333333333337</ele><time>2026-04-19T14:02:52.999Z</time></trkpt><trkpt lat="43.3504256118187" lon="12.559195691664534"><ele>460.1666666666667</ele><time>2026-04-19T14:02:53.999Z</time></trkpt><trkpt lat="43.350452998665254" lon="12.559076461412808"><ele>460.0</ele><time>2026-04-19T14:02:55.999Z</time></trkpt><trkpt lat="43.35055007071778" lon="12.558989346674926"><ele>460.0</ele><time>2026-04-19T14:02:59.999Z</time></trkpt><trkpt lat="43.35060604236606" lon="12.558912324128746"><ele>460.0</ele><time>2026-04-19T14:03:01.999Z</time></trkpt><trkpt lat="43.3506703030539" lon="12.558809227952482"><ele>460.0</ele><time>2026-04-19T14:03:03.999Z</time></trkpt><trkpt lat="43.35074993450174" lon="12.55867277764739"><ele>460.0</ele><time>2026-04-19T14:03:05.999Z</time></trkpt><trkpt lat="43.35080141058506" lon="12.55859880221592"><ele>460.0</ele><time>2026-04-19T14:03:06.999Z</time></trkpt><trkpt lat="43.35086366272297" lon="12.558519971672142"><ele>460.5</ele><time>2026-04-19T14:03:07.999Z</time></trkpt><trkpt lat="43.3509291408427" lon="12.558426969661944"><ele>461.0</ele><time>2026-04-19T14:03:08.999Z</time></trkpt><trkpt lat="43.35100309483238" lon="12.558311607824232"><ele>461.5</ele><time>2026-04-19T14:03:09.999Z</time></trkpt><trkpt lat="43.3510880446786" lon="12.558178031405983"><ele>462.0</ele><time>2026-04-19T14:03:10.999Z</time></trkpt><trkpt lat="43.35116763818923" lon="12.55804630165663"><ele>462.0</ele><time>2026-04-19T14:03:11.999Z</time></trkpt><trkpt lat="43.35126733569771" lon="12.557905139350241"><ele>462.0</ele><time>2026-04-19T14:03:12.999Z</time></trkpt><trkpt lat="43.35136598567124" lon="12.557745985989934"><ele>462.0</ele><time>2026-04-19T14:03:13.999Z</time></trkpt><trkpt lat="43.35147513558954" lon="12.557572730116737"><ele>460.66666666666663</ele><time>2026-04-19T14:03:14.999Z</time></trkpt><trkpt lat="43.3515850456676" lon="12.557396195516343"><ele>459.3333333333333</ele><time>2026-04-19T14:03:15.999Z</time></trkpt><trkpt lat="43.351693036053724" lon="12.557213282476123"><ele>458.0</ele><time>2026-04-19T14:03:16.999Z</time></trkpt><trkpt lat="43.35179985756251" lon="12.557032216912978"><ele>457.3333333333333</ele><time>2026-04-19T14:03:17.999Z</time></trkpt><trkpt lat="43.351901551950284" lon="12.556848274737385"><ele>456.66666666666663</ele><time>2026-04-19T14:03:18.999Z</time></trkpt><trkpt lat="43.35201117177778" lon="12.556646165080418"><ele>456.0</ele><time>2026-04-19T14:03:19.999Z</time></trkpt><trkpt lat="43.35212566750439" lon="12.556451399016142"><ele>457.33333333333337</ele><time>2026-04-19T14:03:20.999Z</time></trkpt><trkpt lat="43.35224277441793" lon="12.556250210643631"><ele>458.6666666666667</ele><time>2026-04-19T14:03:21.999Z</time></trkpt><trkpt lat="43.35235394532903" lon="12.556052278319973"><ele>460.0</ele><time>2026-04-19T14:03:22.999Z</time></trkpt><trkpt lat="43.352466682926654" lon="12.555841934495295"><ele>460.0</ele><time>2026-04-19T14:03:23.999Z</time></trkpt><trkpt lat="43.35257608126029" lon="12.555631646752271"><ele>460.0</ele><time>2026-04-19T14:03:24.999Z</time></trkpt><trkpt lat="43.35269078567322" lon="12.555426149580459"><ele>460.0</ele><time>2026-04-19T14:03:25.999Z</time></trkpt><trkpt lat="43.35280559001054" lon="12.555223095652277"><ele>460.0</ele><time>2026-04-19T14:03:26.999Z</time></trkpt><trkpt lat="43.35292042042486" lon="12.555022405689002"><ele>460.0</ele><time>2026-04-19T14:03:27.999Z</time></trkpt><trkpt lat="43.35302530920823" lon="12.554831482169858"><ele>460.0</ele><time>2026-04-19T14:03:28.999Z</time></trkpt><trkpt lat="43.35312618030257" lon="12.554641468790928"><ele>459.33333333333337</ele><time>2026-04-19T14:03:29.999Z</time></trkpt><trkpt lat="43.353225225104026" lon="12.554460496616205"><ele>458.66666666666663</ele><time>2026-04-19T14:03:30.999Z</time></trkpt><trkpt lat="43.35333364911207" lon="12.55428530793565"><ele>458.0</ele><time>2026-04-19T14:03:31.999Z</time></trkpt><trkpt lat="43.35341256439706" lon="12.554083462614598"><ele>458.0</ele><time>2026-04-19T14:03:32.999Z</time></trkpt><trkpt lat="43.35350848021513" lon="12.553911503923125"><ele>458.0</ele><time>2026-04-19T14:03:33.999Z</time></trkpt><trkpt lat="43.35360944522385" lon="12.553753648276638"><ele>458.0</ele><time>2026-04-19T14:03:34.999Z</time></trkpt><trkpt lat="43.35370536356918" lon="12.553586434121389"><ele>458.0</ele><time>2026-04-19T14:03:35.999Z</time></trkpt><trkpt lat="43.35380025009971" lon="12.553423249718149"><ele>458.0</ele><time>2026-04-19T14:03:36.999Z</time></trkpt><trkpt lat="43.35389427708663" lon="12.553263149339868"><ele>458.0</ele><time>2026-04-19T14:03:37.999Z</time></trkpt><trkpt lat="43.353986477931606" lon="12.553113278826586"><ele>458.0</ele><time>2026-04-19T14:03:38.999Z</time></trkpt><trkpt lat="43.354078567402006" lon="12.552959054241887"><ele>458.5</ele><time>2026-04-19T14:03:39.999Z</time></trkpt><trkpt lat="43.3541633445807" lon="12.55280423546043"><ele>459.0</ele><time>2026-04-19T14:03:40.999Z</time></trkpt><trkpt lat="43.35424041166517" lon="12.552649656591049"><ele>459.5</ele><time>2026-04-19T14:03:41.999Z</time></trkpt><trkpt lat="43.35432132267561" lon="12.55249844198176"><ele>460.0</ele><time>2026-04-19T14:03:42.999Z</time></trkpt><trkpt lat="43.35440480824515" lon="12.55235627382381"><ele>460.0</ele><time>2026-04-19T14:03:43.999Z</time></trkpt><trkpt lat="43.35448629017573" lon="12.552224086620438"><ele>460.0</ele><time>2026-04-19T14:03:44.999Z</time></trkpt><trkpt lat="43.35457211867033" lon="12.552097970142869"><ele>460.0</ele><time>2026-04-19T14:03:45.999Z</time></trkpt><trkpt lat="43.35465956339852" lon="12.551971270806456"><ele>460.0</ele><time>2026-04-19T14:03:46.999Z</time></trkpt><trkpt lat="43.354750658992906" lon="12.551851629903563"><ele>460.0</ele><time>2026-04-19T14:03:47.999Z</time></trkpt><trkpt lat="43.35484858803566" lon="12.551740416708423"><ele>460.0</ele><time>2026-04-19T14:03:48.999Z</time></trkpt><trkpt lat="43.354949982913766" lon="12.551636220492874"><ele>460.0</ele><time>2026-04-19T14:03:49.999Z</time></trkpt><trkpt lat="43.3550561089715" lon="12.551536785446736"><ele>460.0</ele><time>2026-04-19T14:03:51Z</time></trkpt><trkpt lat="43.35516822688322" lon="12.551442363836264"><ele>460.0</ele><time>2026-04-19T14:03:52Z</time></trkpt><trkpt lat="43.35528639556415" lon="12.551362870583393"><ele>460.0</ele><time>2026-04-19T14:03:53Z</time></trkpt><trkpt lat="43.35541231453757" lon="12.551295436051687"><ele>460.0</ele><time>2026-04-19T14:03:54Z</time></trkpt><trkpt lat="43.355541571225345" lon="12.551236156200448"><ele>460.0</ele><time>2026-04-19T14:03:55Z</time></trkpt><trkpt lat="43.35567539688381" lon="12.551185134137006"><ele>460.0</ele><time>2026-04-19T14:03:56Z</time></trkpt><trkpt lat="43.35580803484482" lon="12.551144388943205"><ele>460.0</ele><time>2026-04-19T14:03:57Z</time></trkpt><trkpt lat="43.355943463805055" lon="12.551112892266245"><ele>460.0</ele><time>2026-04-19T14:03:58Z</time></trkpt><trkpt lat="43.356080868849524" lon="12.551096695338279"><ele>460.0</ele><time>2026-04-19T14:03:59Z</time></trkpt><trkpt lat="43.356221634743505" lon="12.551098833236294"><ele>460.0</ele><time>2026-04-19T14:04:00Z</time></trkpt><trkpt lat="43.35636100891503" lon="12.551113485866123"><ele>460.0</ele><time>2026-04-19T14:04:01Z</time></trkpt><trkpt lat="43.356504194207666" lon="12.551130710073037"><ele>460.0</ele><time>2026-04-19T14:04:02Z</time></trkpt><trkpt lat="43.356647324358136" lon="12.551141376282912"><ele>460.0</ele><time>2026-04-19T14:04:03Z</time></trkpt><trkpt lat="43.356790856466255" lon="12.551154288011304"><ele>461.0</ele><time>2026-04-19T14:04:04Z</time></trkpt><trkpt lat="43.356939602900695" lon="12.55116953375486"><ele>462.0</ele><time>2026-04-19T14:04:05Z</time></trkpt><trkpt lat="43.35708824604915" lon="12.551182389337477"><ele>463.0</ele><time>2026-04-19T14:04:06Z</time></trkpt><trkpt lat="43.35723690408932" lon="12.551201168085031"><ele>464.0</ele><time>2026-04-19T14:04:07Z</time></trkpt><trkpt lat="43.3573861201856" lon="12.551211052108819"><ele>464.66666666666663</ele><time>2026-04-19T14:04:08Z</time></trkpt><trkpt lat="43.35753575443048" lon="12.55123019441556"><ele>465.33333333333337</ele><time>2026-04-19T14:04:09Z</time></trkpt><trkpt lat="43.35768855892938" lon="12.55125908681548"><ele>466.0</ele><time>2026-04-19T14:04:10Z</time></trkpt><trkpt lat="43.35783912822714" lon="12.551290462944337"><ele>466.0</ele><time>2026-04-19T14:04:11Z</time></trkpt><trkpt lat="43.35799099573974" lon="12.551317112196976"><ele>466.0</ele><time>2026-04-19T14:04:12Z</time></trkpt><trkpt lat="43.35814352240767" lon="12.551342204347264"><ele>466.0</ele><time>2026-04-19T14:04:13Z</time></trkpt><trkpt lat="43.35829622391695" lon="12.551369850373149"><ele>466.33333333333337</ele><time>2026-04-19T14:04:14Z</time></trkpt><trkpt lat="43.35845313731415" lon="12.55140666936269"><ele>466.66666666666663</ele><time>2026-04-19T14:04:15Z</time></trkpt><trkpt lat="43.35861135201596" lon="12.551449101569549"><ele>467.0</ele><time>2026-04-19T14:04:16Z</time></trkpt><trkpt lat="43.35876829816451" lon="12.551495400769435"><ele>467.3333333333333</ele><time>2026-04-19T14:04:17Z</time></trkpt><trkpt lat="43.35892552702186" lon="12.551537001715705"><ele>467.66666666666663</ele><time>2026-04-19T14:04:18Z</time></trkpt><trkpt lat="43.3590821723965" lon="12.551609345525923"><ele>468.0</ele><time>2026-04-19T14:04:19Z</time></trkpt><trkpt lat="43.35922902838561" lon="12.551693266065312"><ele>468.0</ele><time>2026-04-19T14:04:20Z</time></trkpt><trkpt lat="43.3593776549719" lon="12.55177855044229"><ele>468.0</ele><time>2026-04-19T14:04:21Z</time></trkpt><trkpt lat="43.359525770952004" lon="12.551865194414784"><ele>468.0</ele><time>2026-04-19T14:04:22Z</time></trkpt><trkpt lat="43.359672975628406" lon="12.551951099628496"><ele>468.66666666666663</ele><time>2026-04-19T14:04:23Z</time></trkpt><trkpt lat="43.3598198705317" lon="12.552043713011502"><ele>469.3333333333333</ele><time>2026-04-19T14:04:24Z</time></trkpt><trkpt lat="43.35996310179218" lon="12.552147085963918"><ele>470.0</ele><time>2026-04-19T14:04:25Z</time></trkpt><trkpt lat="43.360109190442564" lon="12.552247904386723"><ele>470.0</ele><time>2026-04-19T14:04:26Z</time></trkpt><trkpt lat="43.360253701897626" lon="12.552358205194976"><ele>470.0</ele><time>2026-04-19T14:04:27Z</time></trkpt><trkpt lat="43.36038948224206" lon="12.552469922037446"><ele>470.0</ele><time>2026-04-19T14:04:28Z</time></trkpt><trkpt lat="43.360527695397394" lon="12.552586080657546"><ele>471.0</ele><time>2026-04-19T14:04:29Z</time></trkpt><trkpt lat="43.360662601270015" lon="12.552702634108076"><ele>472.0</ele><time>2026-04-19T14:04:30Z</time></trkpt><trkpt lat="43.36078598780838" lon="12.552811147007755"><ele>473.0</ele><time>2026-04-19T14:04:31Z</time></trkpt><trkpt lat="43.36090286484347" lon="12.552914042636909"><ele>474.0</ele><time>2026-04-19T14:04:31.999Z</time></trkpt><trkpt lat="43.36100443382744" lon="12.553005326764918"><ele>474.0</ele><time>2026-04-19T14:04:32.999Z</time></trkpt><trkpt lat="43.36109254423505" lon="12.553091008582186"><ele>474.0</ele><time>2026-04-19T14:04:33.999Z</time></trkpt><trkpt lat="43.3611627361788" lon="12.553178449821159"><ele>474.0</ele><time>2026-04-19T14:04:34.999Z</time></trkpt><trkpt lat="43.36120716686336" lon="12.55325952097436"><ele>474.0</ele><time>2026-04-19T14:04:35.999Z</time></trkpt><trkpt lat="43.36122823529034" lon="12.553400393373892"><ele>474.0</ele><time>2026-04-19T14:04:37.999Z</time></trkpt><trkpt lat="43.36126911559104" lon="12.553525726656868"><ele>474.0</ele><time>2026-04-19T14:04:39.999Z</time></trkpt><trkpt lat="43.36134545611365" lon="12.553666640486218"><ele>474.0</ele><time>2026-04-19T14:04:41.999Z</time></trkpt><trkpt lat="43.36139284327452" lon="12.553743140371417"><ele>474.0</ele><time>2026-04-19T14:04:42.999Z</time></trkpt><trkpt lat="43.36145254185137" lon="12.553813781113021"><ele>474.0</ele><time>2026-04-19T14:04:43.999Z</time></trkpt><trkpt lat="43.36152273422996" lon="12.55386405842772"><ele>474.0</ele><time>2026-04-19T14:04:44.999Z</time></trkpt><trkpt lat="43.36160604033519" lon="12.553887507123104"><ele>474.0</ele><time>2026-04-19T14:04:45.999Z</time></trkpt><trkpt lat="43.361691561555084" lon="12.55388470401987"><ele>474.4</ele><time>2026-04-19T14:04:46.999Z</time></trkpt><trkpt lat="43.36177572206569" lon="12.553864753420127"><ele>474.79999999999995</ele><time>2026-04-19T14:04:47.999Z</time></trkpt><trkpt lat="43.36186180346763" lon="12.553833484087288"><ele>475.20000000000005</ele><time>2026-04-19T14:04:48.999Z</time></trkpt><trkpt lat="43.361950503332004" lon="12.5537849147479"><ele>475.6</ele><time>2026-04-19T14:04:49.999Z</time></trkpt><trkpt lat="43.36204061437191" lon="12.55373072685436"><ele>476.0</ele><time>2026-04-19T14:04:50.999Z</time></trkpt><trkpt lat="43.362137109706495" lon="12.553689685547317"><ele>476.0</ele><time>2026-04-19T14:04:51.999Z</time></trkpt><trkpt lat="43.36222934641962" lon="12.553686902690997"><ele>476.0</ele><time>2026-04-19T14:04:52.999Z</time></trkpt><trkpt lat="43.36231258719775" lon="12.55372807143595"><ele>476.0</ele><time>2026-04-19T14:04:53.999Z</time></trkpt><trkpt lat="43.362386543079175" lon="12.553791323732362"><ele>476.0</ele><time>2026-04-19T14:04:54.999Z</time></trkpt><trkpt lat="43.36246376605907" lon="12.553861850563806"><ele>476.0</ele><time>2026-04-19T14:04:55.999Z</time></trkpt><trkpt lat="43.36254836864046" lon="12.553932455274754"><ele>476.8</ele><time>2026-04-19T14:04:56.999Z</time></trkpt><trkpt lat="43.362642608294415" lon="12.554003415445152"><ele>477.6</ele><time>2026-04-19T14:04:57.999Z</time></trkpt><trkpt lat="43.36273753041603" lon="12.554080250294074"><ele>478.4</ele><time>2026-04-19T14:04:58.999Z</time></trkpt><trkpt lat="43.362829327385015" lon="12.554154856731376"><ele>479.2</ele><time>2026-04-19T14:04:59.999Z</time></trkpt><trkpt lat="43.3629207872867" lon="12.554236247517744"><ele>480.0</ele><time>2026-04-19T14:05:00.999Z</time></trkpt><trkpt lat="43.363031655258304" lon="12.554302716415787"><ele>480.5</ele><time>2026-04-19T14:05:01.999Z</time></trkpt><trkpt lat="43.363136796668336" lon="12.554377657713083"><ele>481.0</ele><time>2026-04-19T14:05:02.999Z</time></trkpt><trkpt lat="43.3632455774813" lon="12.554460161945325"><ele>481.5</ele><time>2026-04-19T14:05:03.999Z</time></trkpt><trkpt lat="43.36335517614436" lon="12.554543245631399"><ele>482.0</ele><time>2026-04-19T14:05:04.999Z</time></trkpt><trkpt lat="43.36346415401591" lon="12.554626865455607"><ele>482.5</ele><time>2026-04-19T14:05:05.999Z</time></trkpt><trkpt lat="43.36357793417535" lon="12.55471371168964"><ele>483.0</ele><time>2026-04-19T14:05:06.999Z</time></trkpt><trkpt lat="43.36369651186223" lon="12.554804744381487"><ele>483.5</ele><time>2026-04-19T14:05:07.999Z</time></trkpt><trkpt lat="43.363806108888205" lon="12.554913259572572"><ele>484.0</ele><time>2026-04-19T14:05:08.999Z</time></trkpt><trkpt lat="43.36388522390544" lon="12.555056432356114"><ele>486.5</ele><time>2026-04-19T14:05:09.999Z</time></trkpt><trkpt lat="43.36395233954191" lon="12.555207071547954"><ele>489.0</ele><time>2026-04-19T14:05:10.999Z</time></trkpt><trkpt lat="43.36401748802715" lon="12.555374281861438"><ele>491.5</ele><time>2026-04-19T14:05:11.999Z</time></trkpt><trkpt lat="43.364094539345736" lon="12.555532826366505"><ele>494.0</ele><time>2026-04-19T14:05:12.999Z</time></trkpt><trkpt lat="43.36414901716978" lon="12.555702753482743"><ele>494.0</ele><time>2026-04-19T14:05:13.999Z</time></trkpt><trkpt lat="43.36420375933252" lon="12.55586684704565"><ele>494.0</ele><time>2026-04-19T14:05:14.999Z</time></trkpt><trkpt lat="43.36427336680517" lon="12.5560200823888"><ele>494.0</ele><time>2026-04-19T14:05:15.999Z</time></trkpt><trkpt lat="43.364369996074274" lon="12.55616102389381"><ele>494.0</ele><time>2026-04-19T14:05:16.999Z</time></trkpt><trkpt lat="43.36448208949682" lon="12.556270471331437"><ele>493.0</ele><time>2026-04-19T14:05:17.999Z</time></trkpt><trkpt lat="43.364608191855574" lon="12.556368836850211"><ele>492.0</ele><time>2026-04-19T14:05:18.999Z</time></trkpt><trkpt lat="43.36474195595198" lon="12.556459071854999"><ele>491.0</ele><time>2026-04-19T14:05:19.999Z</time></trkpt><trkpt lat="43.364870072760326" lon="12.556564716444369"><ele>490.0</ele><time>2026-04-19T14:05:20.999Z</time></trkpt><trkpt lat="43.364985980166885" lon="12.556696646046039"><ele>491.25</ele><time>2026-04-19T14:05:21.999Z</time></trkpt><trkpt lat="43.36507053604716" lon="12.556865829473466"><ele>492.5</ele><time>2026-04-19T14:05:22.999Z</time></trkpt><trkpt lat="43.3651665728263" lon="12.557026693308986"><ele>493.75</ele><time>2026-04-19T14:05:23.999Z</time></trkpt><trkpt lat="43.365265900866774" lon="12.557174086626905"><ele>495.0</ele><time>2026-04-19T14:05:24.999Z</time></trkpt><trkpt lat="43.36538095586367" lon="12.557293112206525"><ele>495.0</ele><time>2026-04-19T14:05:25.999Z</time></trkpt><trkpt lat="43.365510908650116" lon="12.557408989622836"><ele>495.0</ele><time>2026-04-19T14:05:26.999Z</time></trkpt><trkpt lat="43.3656448931051" lon="12.557514938077743"><ele>495.0</ele><time>2026-04-19T14:05:27.999Z</time></trkpt><trkpt lat="43.365786547329925" lon="12.557605019486468"><ele>497.33333333333337</ele><time>2026-04-19T14:05:28.999Z</time></trkpt><trkpt lat="43.365923529841396" lon="12.557707387849545"><ele>499.6666666666667</ele><time>2026-04-19T14:05:29.999Z</time></trkpt><trkpt lat="43.36606096553493" lon="12.557816794148346"><ele>502.0</ele><time>2026-04-19T14:05:30.999Z</time></trkpt><trkpt lat="43.36619931683118" lon="12.557926743438097"><ele>502.0</ele><time>2026-04-19T14:05:31.999Z</time></trkpt><trkpt lat="43.3663369054036" lon="12.558029440978151"><ele>502.0</ele><time>2026-04-19T14:05:32.999Z</time></trkpt><trkpt lat="43.36647725309966" lon="12.558110008076957"><ele>502.0</ele><time>2026-04-19T14:05:33.999Z</time></trkpt><trkpt lat="43.36662830292119" lon="12.558157611989712"><ele>506.33333333333337</ele><time>2026-04-19T14:05:34.999Z</time></trkpt><trkpt lat="43.3667837342842" lon="12.558179999733806"><ele>510.66666666666663</ele><time>2026-04-19T14:05:35.999Z</time></trkpt><trkpt lat="43.36694256249688" lon="12.558179115864816"><ele>515.0</ele><time>2026-04-19T14:05:36.999Z</time></trkpt><trkpt lat="43.36710707732067" lon="12.558154881206818"><ele>514.3333333333333</ele><time>2026-04-19T14:05:37.999Z</time></trkpt><trkpt lat="43.36727369122222" lon="12.558099554903556"><ele>513.6666666666666</ele><time>2026-04-19T14:05:38.999Z</time></trkpt><trkpt lat="43.36745840904451" lon="12.558058637167798"><ele>513.0</ele><time>2026-04-19T14:05:39.999Z</time></trkpt><trkpt lat="43.36765354143017" lon="12.557971957823426"><ele>513.0</ele><time>2026-04-19T14:05:40.999Z</time></trkpt><trkpt lat="43.36785754886322" lon="12.557906790809925"><ele>513.0</ele><time>2026-04-19T14:05:41.999Z</time></trkpt><trkpt lat="43.36804108930135" lon="12.557855411237878"><ele>513.0</ele><time>2026-04-19T14:05:42.999Z</time></trkpt><trkpt lat="43.368211659470326" lon="12.557845172682697"><ele>513.0</ele><time>2026-04-19T14:05:43.999Z</time></trkpt><trkpt lat="43.36838282956504" lon="12.557815296947737"><ele>513.0</ele><time>2026-04-19T14:05:44.999Z</time></trkpt><trkpt lat="43.36856275135501" lon="12.557860211837754"><ele>513.0</ele><time>2026-04-19T14:05:45.999Z</time></trkpt><trkpt lat="43.368735456446984" lon="12.557902229613711"><ele>518.0</ele><time>2026-04-19T14:05:46.999Z</time></trkpt><trkpt lat="43.36890797570867" lon="12.557937741213705"><ele>523.0</ele><time>2026-04-19T14:05:47.999Z</time></trkpt><trkpt lat="43.36907897162745" lon="12.557991688771526"><ele>528.0</ele><time>2026-04-19T14:05:48.999Z</time></trkpt><trkpt lat="43.369260631204064" lon="12.558021459179427"><ele>528.0</ele><time>2026-04-19T14:05:49.999Z</time></trkpt><trkpt lat="43.36945158390201" lon="12.558015316801475"><ele>528.0</ele><time>2026-04-19T14:05:50.999Z</time></trkpt><trkpt lat="43.36965360392969" lon="12.557971819541944"><ele>528.0</ele><time>2026-04-19T14:05:51.999Z</time></trkpt><trkpt lat="43.36986063964141" lon="12.55791122592081"><ele>543.6666666666666</ele><time>2026-04-19T14:05:52.999Z</time></trkpt><trkpt lat="43.3700449601071" lon="12.557856656283013"><ele>559.3333333333333</ele><time>2026-04-19T14:05:53.999Z</time></trkpt><trkpt lat="43.37022010084416" lon="12.55782644704171"><ele>575.0</ele><time>2026-04-19T14:05:54.999Z</time></trkpt><trkpt lat="43.37039419891523" lon="12.557816643231943"><ele>574.0</ele><time>2026-04-19T14:05:56Z</time></trkpt><trkpt lat="43.37056681578373" lon="12.557859079627118"><ele>573.0</ele><time>2026-04-19T14:05:57Z</time></trkpt><trkpt lat="43.370746411563864" lon="12.557902236538498"><ele>572.0</ele><time>2026-04-19T14:05:58Z</time></trkpt><trkpt lat="43.370929373062964" lon="12.557935940980173"><ele>555.6666666666666</ele><time>2026-04-19T14:05:59Z</time></trkpt><trkpt lat="43.371106797240095" lon="12.557987952855699"><ele>539.3333333333334</ele><time>2026-04-19T14:06:00Z</time></trkpt><trkpt lat="43.37127990601609" lon="12.558022704380182"><ele>523.0</ele><time>2026-04-19T14:06:01Z</time></trkpt><trkpt lat="43.371438376111" lon="12.558034586553902"><ele>523.0</ele><time>2026-04-19T14:06:02Z</time></trkpt><trkpt lat="43.37160239290439" lon="12.558025851129274"><ele>523.0</ele><time>2026-04-19T14:06:03Z</time></trkpt><trkpt lat="43.371775051890246" lon="12.558018431048355"><ele>523.0</ele><time>2026-04-19T14:06:04Z</time></trkpt><trkpt lat="43.371961748145225" lon="12.5579858823261"><ele>523.0</ele><time>2026-04-19T14:06:05Z</time></trkpt><trkpt lat="43.372152923154985" lon="12.557938961991985"><ele>523.0</ele><time>2026-04-19T14:06:06Z</time></trkpt><trkpt lat="43.37233914443634" lon="12.557975910009787"><ele>523.0</ele><time>2026-04-19T14:06:07Z</time></trkpt><trkpt lat="43.372520027003645" lon="12.55802847609532"><ele>527.6666666666667</ele><time>2026-04-19T14:06:08Z</time></trkpt><trkpt lat="43.37271539730016" lon="12.558095660820731"><ele>532.3333333333334</ele><time>2026-04-19T14:06:09Z</time></trkpt><trkpt lat="43.37291419173794" lon="12.558159917247474"><ele>537.0</ele><time>2026-04-19T14:06:10Z</time></trkpt><trkpt lat="43.37310903759392" lon="12.558240669529994"><ele>544.3333333333334</ele><time>2026-04-19T14:06:11Z</time></trkpt><trkpt lat="43.373297330219515" lon="12.558309008009452"><ele>551.6666666666667</ele><time>2026-04-19T14:06:12Z</time></trkpt><trkpt lat="43.373490957513184" lon="12.558370379641026"><ele>559.0</ele><time>2026-04-19T14:06:13Z</time></trkpt><trkpt lat="43.37368244155805" lon="12.558453299499007"><ele>549.6666666666667</ele><time>2026-04-19T14:06:14Z</time></trkpt><trkpt lat="43.37387941134322" lon="12.558557396273958"><ele>540.3333333333334</ele><time>2026-04-19T14:06:15Z</time></trkpt><trkpt lat="43.37407221679516" lon="12.558677605808672"><ele>531.0</ele><time>2026-04-19T14:06:16Z</time></trkpt><trkpt lat="43.374259457313876" lon="12.558796449432947"><ele>531.0</ele><time>2026-04-19T14:06:17Z</time></trkpt><trkpt lat="43.37443799052473" lon="12.558895925526397"><ele>531.0</ele><time>2026-04-19T14:06:18Z</time></trkpt><trkpt lat="43.37460773397081" lon="12.559011222378647"><ele>531.0</ele><time>2026-04-19T14:06:19Z</time></trkpt><trkpt lat="43.374779080246604" lon="12.559084515212472"><ele>543.6666666666666</ele><time>2026-04-19T14:06:20Z</time></trkpt><trkpt lat="43.37495217239445" lon="12.559128461783663"><ele>556.3333333333333</ele><time>2026-04-19T14:06:21Z</time></trkpt><trkpt lat="43.37510606247417" lon="12.559162126450062"><ele>569.0</ele><time>2026-04-19T14:06:22Z</time></trkpt><trkpt lat="43.37525735694935" lon="12.559203092158633"><ele>569.0</ele><time>2026-04-19T14:06:23Z</time></trkpt><trkpt lat="43.37541925004138" lon="12.559270127175095"><ele>569.0</ele><time>2026-04-19T14:06:24Z</time></trkpt><trkpt lat="43.375566378942516" lon="12.559342519655635"><ele>569.0</ele><time>2026-04-19T14:06:25Z</time></trkpt><trkpt lat="43.37571280427879" lon="12.559421907615047"><ele>574.6666666666666</ele><time>2026-04-19T14:06:26Z</time></trkpt><trkpt lat="43.37586956996797" lon="12.559518289909901"><ele>580.3333333333334</ele><time>2026-04-19T14:06:27Z</time></trkpt><trkpt lat="43.376037572788455" lon="12.559632601216332"><ele>586.0</ele><time>2026-04-19T14:06:28Z</time></trkpt><trkpt lat="43.37621330680596" lon="12.559752548909623"><ele>581.0</ele><time>2026-04-19T14:06:29Z</time></trkpt><trkpt lat="43.376398691421926" lon="12.55985005565398"><ele>576.0</ele><time>2026-04-19T14:06:30Z</time></trkpt><trkpt lat="43.3765747120573" lon="12.559964489448719"><ele>571.0</ele><time>2026-04-19T14:06:31Z</time></trkpt><trkpt lat="43.37673809982973" lon="12.560057955138305"><ele>571.0</ele><time>2026-04-19T14:06:32Z</time></trkpt><trkpt lat="43.376890267760324" lon="12.560140088573217"><ele>571.0</ele><time>2026-04-19T14:06:33Z</time></trkpt><trkpt lat="43.377058176617254" lon="12.560221195206847"><ele>571.0</ele><time>2026-04-19T14:06:33.999Z</time></trkpt><trkpt lat="43.37721915957101" lon="12.560289133470981"><ele>566.0</ele><time>2026-04-19T14:06:34.999Z</time></trkpt><trkpt lat="43.37737112875764" lon="12.560345485003031"><ele>561.0</ele><time>2026-04-19T14:06:35.999Z</time></trkpt><trkpt lat="43.377526044472326" lon="12.560394419614866"><ele>556.0</ele><time>2026-04-19T14:06:36.999Z</time></trkpt><trkpt lat="43.37767491393787" lon="12.560463786913417"><ele>556.0</ele><time>2026-04-19T14:06:37.999Z</time></trkpt><trkpt lat="43.377820957318406" lon="12.560509662574228"><ele>556.0</ele><time>2026-04-19T14:06:38.999Z</time></trkpt><trkpt lat="43.3779586823339" lon="12.560565648310993"><ele>556.0</ele><time>2026-04-19T14:06:39.999Z</time></trkpt><trkpt lat="43.378089215411784" lon="12.56064005223103"><ele>556.0</ele><time>2026-04-19T14:06:40.999Z</time></trkpt><trkpt lat="43.37822235540687" lon="12.560720115846316"><ele>555.75</ele><time>2026-04-19T14:06:41.999Z</time></trkpt><trkpt lat="43.37834046563399" lon="12.560832348376744"><ele>555.5</ele><time>2026-04-19T14:06:42.999Z</time></trkpt><trkpt lat="43.37845893855907" lon="12.560951252025577"><ele>555.25</ele><time>2026-04-19T14:06:43.999Z</time></trkpt><trkpt lat="43.3785746467723" lon="12.561072948447558"><ele>555.0</ele><time>2026-04-19T14:06:44.999Z</time></trkpt><trkpt lat="43.37869058885029" lon="12.561203806760659"><ele>555.0</ele><time>2026-04-19T14:06:45.999Z</time></trkpt><trkpt lat="43.378814503651626" lon="12.561342413551282"><ele>555.0</ele><time>2026-04-19T14:06:46.999Z</time></trkpt><trkpt lat="43.378944122261075" lon="12.56147726869717"><ele>555.0</ele><time>2026-04-19T14:06:47.999Z</time></trkpt><trkpt lat="43.37907793061149" lon="12.561610760646662"><ele>565.0</ele><time>2026-04-19T14:06:48.999Z</time></trkpt><trkpt lat="43.37921203831626" lon="12.561732624236093"><ele>575.0</ele><time>2026-04-19T14:06:49.999Z</time></trkpt><trkpt lat="43.379351829532965" lon="12.56184358491982"><ele>585.0</ele><time>2026-04-19T14:06:50.999Z</time></trkpt><trkpt lat="43.37948082844832" lon="12.561970982563016"><ele>581.0</ele><time>2026-04-19T14:06:51.999Z</time></trkpt><trkpt lat="43.37962210342147" lon="12.562081291814168"><ele>577.0</ele><time>2026-04-19T14:06:52.999Z</time></trkpt><trkpt lat="43.37977073618516" lon="12.562168747647998"><ele>573.0</ele><time>2026-04-19T14:06:53.999Z</time></trkpt><trkpt lat="43.379924823787924" lon="12.56228132684601"><ele>573.0</ele><time>2026-04-19T14:06:54.999Z</time></trkpt><trkpt lat="43.38007090546032" lon="12.562390600849653"><ele>573.0</ele><time>2026-04-19T14:06:55.999Z</time></trkpt><trkpt lat="43.38022256414528" lon="12.562500674608572"><ele>573.0</ele><time>2026-04-19T14:06:56.999Z</time></trkpt><trkpt lat="43.38036949471067" lon="12.562603630467345"><ele>577.6666666666666</ele><time>2026-04-19T14:06:57.999Z</time></trkpt><trkpt lat="43.38052115947396" lon="12.562688632236458"><ele>582.3333333333333</ele><time>2026-04-19T14:06:58.999Z</time></trkpt><trkpt lat="43.38067900950669" lon="12.562756816452174"><ele>587.0</ele><time>2026-04-19T14:06:59.999Z</time></trkpt><trkpt lat="43.38083582552544" lon="12.562805839769418"><ele>587.0</ele><time>2026-04-19T14:07:00.999Z</time></trkpt><trkpt lat="43.380999634715245" lon="12.562846298663857"><ele>587.0</ele><time>2026-04-19T14:07:01.999Z</time></trkpt><trkpt lat="43.38115711999612" lon="12.562872311831434"><ele>587.0</ele><time>2026-04-19T14:07:02.999Z</time></trkpt><trkpt lat="43.38131112672221" lon="12.56290385309252"><ele>585.6666666666666</ele><time>2026-04-19T14:07:03.999Z</time></trkpt><trkpt lat="43.381467480648325" lon="12.562941623864855"><ele>584.3333333333334</ele><time>2026-04-19T14:07:04.999Z</time></trkpt><trkpt lat="43.3816217605062" lon="12.562971047584583"><ele>583.0</ele><time>2026-04-19T14:07:05.999Z</time></trkpt><trkpt lat="43.38177143612838" lon="12.562993989366888"><ele>583.0</ele><time>2026-04-19T14:07:06.999Z</time></trkpt><trkpt lat="43.3819157485253" lon="12.563016361733787"><ele>583.0</ele><time>2026-04-19T14:07:07.999Z</time></trkpt><trkpt lat="43.38205453965513" lon="12.56304684279566"><ele>583.0</ele><time>2026-04-19T14:07:08.999Z</time></trkpt><trkpt lat="43.38219198788261" lon="12.563085386802587"><ele>583.0</ele><time>2026-04-19T14:07:09.999Z</time></trkpt><trkpt lat="43.38232300226426" lon="12.563138503657738"><ele>587.0</ele><time>2026-04-19T14:07:10.999Z</time></trkpt><trkpt lat="43.38244751697811" lon="12.56320901655059"><ele>591.0</ele><time>2026-04-19T14:07:11.999Z</time></trkpt><trkpt lat="43.382569346868465" lon="12.56330007286023"><ele>595.0</ele><time>2026-04-19T14:07:12.999Z</time></trkpt><trkpt lat="43.38269149902842" lon="12.563403257024598"><ele>599.0</ele><time>2026-04-19T14:07:13.999Z</time></trkpt><trkpt lat="43.38281026960358" lon="12.563519855493874"><ele>599.0</ele><time>2026-04-19T14:07:14.999Z</time></trkpt><trkpt lat="43.38292059489788" lon="12.563643631096697"><ele>599.0</ele><time>2026-04-19T14:07:15.999Z</time></trkpt><trkpt lat="43.383014435843954" lon="12.563768523983427"><ele>599.0</ele><time>2026-04-19T14:07:16.999Z</time></trkpt><trkpt lat="43.38309317771455" lon="12.563885198564993"><ele>599.0</ele><time>2026-04-19T14:07:17.999Z</time></trkpt><trkpt lat="43.38317169544665" lon="12.56401572052813"><ele>603.75</ele><time>2026-04-19T14:07:18.999Z</time></trkpt><trkpt lat="43.383253249026005" lon="12.564145846071291"><ele>608.5</ele><time>2026-04-19T14:07:19.999Z</time></trkpt><trkpt lat="43.38333317179133" lon="12.564278665952955"><ele>613.25</ele><time>2026-04-19T14:07:20.999Z</time></trkpt><trkpt lat="43.383415899800056" lon="12.564402413099245"><ele>618.0</ele><time>2026-04-19T14:07:21.999Z</time></trkpt><trkpt lat="43.38349675038852" lon="12.56452660686836"><ele>621.25</ele><time>2026-04-19T14:07:22.999Z</time></trkpt><trkpt lat="43.38357821545732" lon="12.564663250195526"><ele>624.5</ele><time>2026-04-19T14:07:23.999Z</time></trkpt><trkpt lat="43.38367396998619" lon="12.564818230234248"><ele>627.75</ele><time>2026-04-19T14:07:24.999Z</time></trkpt><trkpt lat="43.38378512644107" lon="12.564987848540579"><ele>631.0</ele><time>2026-04-19T14:07:25.999Z</time></trkpt><trkpt lat="43.38390399773685" lon="12.565162991634905"><ele>631.0</ele><time>2026-04-19T14:07:26.999Z</time></trkpt><trkpt lat="43.384019735807726" lon="12.56533372132644"><ele>631.0</ele><time>2026-04-19T14:07:27.999Z</time></trkpt><trkpt lat="43.38412708900334" lon="12.565501726722536"><ele>631.0</ele><time>2026-04-19T14:07:28.999Z</time></trkpt><trkpt lat="43.38422496536162" lon="12.565667324905657"><ele>627.0</ele><time>2026-04-19T14:07:29.999Z</time></trkpt><trkpt lat="43.38432202476328" lon="12.565821694126749"><ele>623.0</ele><time>2026-04-19T14:07:30.999Z</time></trkpt><trkpt lat="43.384415901476586" lon="12.565959626255163"><ele>619.0</ele><time>2026-04-19T14:07:31.999Z</time></trkpt><trkpt lat="43.384512634021696" lon="12.566088729200736"><ele>615.0</ele><time>2026-04-19T14:07:32.999Z</time></trkpt><trkpt lat="43.38460985012243" lon="12.566215980352347"><ele>616.75</ele><time>2026-04-19T14:07:33.999Z</time></trkpt><trkpt lat="43.38470009359611" lon="12.56635823422292"><ele>618.5</ele><time>2026-04-19T14:07:34.999Z</time></trkpt><trkpt lat="43.384803687025155" lon="12.566481348033825"><ele>620.25</ele><time>2026-04-19T14:07:35.999Z</time></trkpt><trkpt lat="43.384935496543555" lon="12.566539289834077"><ele>622.0</ele><time>2026-04-19T14:07:36.999Z</time></trkpt><trkpt lat="43.385056235232554" lon="12.566619406486486"><ele>622.0</ele><time>2026-04-19T14:07:37.999Z</time></trkpt><trkpt lat="43.385109527528975" lon="12.566808363161792"><ele>622.0</ele><time>2026-04-19T14:07:38.999Z</time></trkpt><trkpt lat="43.3852148480189" lon="12.566940267170445"><ele>622.0</ele><time>2026-04-19T14:07:39.999Z</time></trkpt><trkpt lat="43.38530634751438" lon="12.56709526483428"><ele>622.0</ele><time>2026-04-19T14:07:40.999Z</time></trkpt><trkpt lat="43.385404240854186" lon="12.567243644017573"><ele>620.75</ele><time>2026-04-19T14:07:41.999Z</time></trkpt><trkpt lat="43.38550072857136" lon="12.567388469085587"><ele>619.5</ele><time>2026-04-19T14:07:42.999Z</time></trkpt><trkpt lat="43.38559693468456" lon="12.567500874388475"><ele>618.25</ele><time>2026-04-19T14:07:43.999Z</time></trkpt><trkpt lat="43.38567543233961" lon="12.567645034992209"><ele>617.0</ele><time>2026-04-19T14:07:44.999Z</time></trkpt><trkpt lat="43.38577311924502" lon="12.567768827669692"><ele>619.0</ele><time>2026-04-19T14:07:45.999Z</time></trkpt><trkpt lat="43.3858603707815" lon="12.56790187586798"><ele>621.0</ele><time>2026-04-19T14:07:46.999Z</time></trkpt><trkpt lat="43.385942868465804" lon="12.568035071264676"><ele>623.0</ele><time>2026-04-19T14:07:47.999Z</time></trkpt><trkpt lat="43.38602573658309" lon="12.568161773795635"><ele>625.0</ele><time>2026-04-19T14:07:48.999Z</time></trkpt><trkpt lat="43.38610528617896" lon="12.568282691052575"><ele>625.0</ele><time>2026-04-19T14:07:49.999Z</time></trkpt><trkpt lat="43.3861946657927" lon="12.56838894484354"><ele>625.0</ele><time>2026-04-19T14:07:50.999Z</time></trkpt><trkpt lat="43.38629598784155" lon="12.568480691964107"><ele>625.0</ele><time>2026-04-19T14:07:51.999Z</time></trkpt><trkpt lat="43.386416742592324" lon="12.568554631438243"><ele>625.0</ele><time>2026-04-19T14:07:52.999Z</time></trkpt><trkpt lat="43.38654738789662" lon="12.568594076354968"><ele>631.25</ele><time>2026-04-19T14:07:53.999Z</time></trkpt><trkpt lat="43.386680392012515" lon="12.568615814460104"><ele>637.5</ele><time>2026-04-19T14:07:54.999Z</time></trkpt><trkpt lat="43.386810255647475" lon="12.56861382828283"><ele>643.75</ele><time>2026-04-19T14:07:55.999Z</time></trkpt><trkpt lat="43.38692762661974" lon="12.568583749948687"><ele>650.0</ele><time>2026-04-19T14:07:56.999Z</time></trkpt><trkpt lat="43.387044253902125" lon="12.56853709196429"><ele>650.0</ele><time>2026-04-19T14:07:57.999Z</time></trkpt><trkpt lat="43.387157256734234" lon="12.568503620967357"><ele>650.0</ele><time>2026-04-19T14:07:58.999Z</time></trkpt><trkpt lat="43.387263421297774" lon="12.568485685596254"><ele>650.0</ele><time>2026-04-19T14:07:59.999Z</time></trkpt><trkpt lat="43.387366297542435" lon="12.568487505467417"><ele>650.0</ele><time>2026-04-19T14:08:00.999Z</time></trkpt><trkpt lat="43.38747430823984" lon="12.568521407149825"><ele>650.0</ele><time>2026-04-19T14:08:02Z</time></trkpt><trkpt lat="43.387576748388106" lon="12.568587216310306"><ele>646.0</ele><time>2026-04-19T14:08:03Z</time></trkpt><trkpt lat="43.38766032856501" lon="12.568707134784027"><ele>642.0</ele><time>2026-04-19T14:08:04Z</time></trkpt><trkpt lat="43.387730374447145" lon="12.56884692273133"><ele>638.0</ele><time>2026-04-19T14:08:05Z</time></trkpt><trkpt lat="43.38780115989233" lon="12.569005572571303"><ele>634.0</ele><time>2026-04-19T14:08:06Z</time></trkpt><trkpt lat="43.38788667086778" lon="12.569164420661203"><ele>634.0</ele><time>2026-04-19T14:08:07Z</time></trkpt><trkpt lat="43.38795462245548" lon="12.56934560026687"><ele>634.0</ele><time>2026-04-19T14:08:08Z</time></trkpt><trkpt lat="43.38803138145042" lon="12.569522532644351"><ele>634.0</ele><time>2026-04-19T14:08:09Z</time></trkpt><trkpt lat="43.38811390283494" lon="12.569700286683432"><ele>639.3333333333334</ele><time>2026-04-19T14:08:10Z</time></trkpt><trkpt lat="43.38819462039605" lon="12.56987382094139"><ele>644.6666666666666</ele><time>2026-04-19T14:08:11Z</time></trkpt><trkpt lat="43.38828077155821" lon="12.570059099628944"><ele>650.0</ele><time>2026-04-19T14:08:12Z</time></trkpt><trkpt lat="43.38836165930726" lon="12.570244324232078"><ele>651.0</ele><time>2026-04-19T14:08:13Z</time></trkpt><trkpt lat="43.3884410455959" lon="12.570434821222506"><ele>652.0</ele><time>2026-04-19T14:08:14Z</time></trkpt><trkpt lat="43.38851693733278" lon="12.570617538700317"><ele>653.0</ele><time>2026-04-19T14:08:15Z</time></trkpt><trkpt lat="43.38859710812473" lon="12.570801446945314"><ele>653.0</ele><time>2026-04-19T14:08:16Z</time></trkpt><trkpt lat="43.388688277466585" lon="12.570984288112651"><ele>653.0</ele><time>2026-04-19T14:08:17Z</time></trkpt><trkpt lat="43.388752711010845" lon="12.571162244712424"><ele>653.0</ele><time>2026-04-19T14:08:18Z</time></trkpt><trkpt lat="43.388835705915554" lon="12.571348466711"><ele>661.0</ele><time>2026-04-19T14:08:19Z</time></trkpt><trkpt lat="43.38892306019634" lon="12.571537119600432"><ele>669.0</ele><time>2026-04-19T14:08:20Z</time></trkpt><trkpt lat="43.38901262634858" lon="12.571708709736745"><ele>677.0</ele><time>2026-04-19T14:08:21Z</time></trkpt><trkpt lat="43.389109289794" lon="12.57187732231111"><ele>674.6666666666666</ele><time>2026-04-19T14:08:22Z</time></trkpt><trkpt lat="43.38921295588489" lon="12.572042266852733"><ele>672.3333333333334</ele><time>2026-04-19T14:08:23Z</time></trkpt><trkpt lat="43.38931496087067" lon="12.572193871219218"><ele>670.0</ele><time>2026-04-19T14:08:24Z</time></trkpt><trkpt lat="43.38942234988355" lon="12.57234479171263"><ele>670.0</ele><time>2026-04-19T14:08:25Z</time></trkpt><trkpt lat="43.3895451216962" lon="12.572497591336251"><ele>670.0</ele><time>2026-04-19T14:08:26.075Z</time></trkpt><trkpt lat="43.38966036881987" lon="12.572625364931309"><ele>670.0</ele><time>2026-04-19T14:08:27.066Z</time></trkpt><trkpt lat="43.39118903918721" lon="12.573571722377928"><ele>762.0</ele><time>2026-04-19T14:08:30.874Z</time></trkpt><trkpt lat="43.39162820425223" lon="12.573706496432424"><ele>762.0</ele><time>2026-04-19T14:08:31.874Z</time></trkpt><trkpt lat="43.392067948961206" lon="12.573837724089117"><ele>784.0</ele><time>2026-04-19T14:08:32.874Z</time></trkpt><trkpt lat="43.392507444840625" lon="12.57397029824751"><ele>784.0</ele><time>2026-04-19T14:08:33.874Z</time></trkpt><trkpt lat="43.39294589399213" lon="12.574101173078454"><ele>784.0</ele><time>2026-04-19T14:08:34.871Z</time></trkpt><trkpt lat="43.39338506877611" lon="12.574235977687325"><ele>809.0</ele><time>2026-04-19T14:08:35.871Z</time></trkpt><trkpt lat="43.39382588265453" lon="12.574369072069707"><ele>786.0</ele><time>2026-04-19T14:08:36.874Z</time></trkpt><trkpt lat="43.3942652925428" lon="12.57450157735587"><ele>775.0</ele><time>2026-04-19T14:08:37.873Z</time></trkpt><trkpt lat="43.3945449" lon="12.5745842"><ele>764.0</ele><time>2026-04-19T14:08:38.874Z</time></trkpt><trkpt lat="43.398614750709115" lon="12.576097378694485"><ele>727.6666666666666</ele><time>2026-04-19T14:09:16.999Z</time></trkpt><trkpt lat="43.398675631524846" lon="12.576255140501164"><ele>691.3333333333334</ele><time>2026-04-19T14:09:17.999Z</time></trkpt><trkpt lat="43.39879452295513" lon="12.576427937105771"><ele>655.0</ele><time>2026-04-19T14:09:18.999Z</time></trkpt><trkpt lat="43.39891970576144" lon="12.576591027212224"><ele>653.0</ele><time>2026-04-19T14:09:19.999Z</time></trkpt><trkpt lat="43.399019619277745" lon="12.576770695325623"><ele>651.0</ele><time>2026-04-19T14:09:20.999Z</time></trkpt><trkpt lat="43.399126187789" lon="12.576955129737096"><ele>649.0</ele><time>2026-04-19T14:09:21.999Z</time></trkpt><trkpt lat="43.3992651424097" lon="12.5771593854093"><ele>645.0</ele><time>2026-04-19T14:09:22.999Z</time></trkpt><trkpt lat="43.39941238937904" lon="12.577373368022036"><ele>641.0</ele><time>2026-04-19T14:09:23.999Z</time></trkpt><trkpt lat="43.39949289256455" lon="12.577409036829591"><ele>637.0</ele><time>2026-04-19T14:09:24.999Z</time></trkpt><trkpt lat="43.39963782556064" lon="12.5775233491883"><ele>637.0</ele><time>2026-04-19T14:09:25.999Z</time></trkpt><trkpt lat="43.399792444097045" lon="12.577631929555006"><ele>637.0</ele><time>2026-04-19T14:09:26.999Z</time></trkpt><trkpt lat="43.39996171771121" lon="12.57773895892441"><ele>637.0</ele><time>2026-04-19T14:09:27.999Z</time></trkpt><trkpt lat="43.40014082799746" lon="12.577835302846426"><ele>632.3333333333334</ele><time>2026-04-19T14:09:28.999Z</time></trkpt><trkpt lat="43.40030994042682" lon="12.577926636665207"><ele>627.6666666666666</ele><time>2026-04-19T14:09:29.999Z</time></trkpt><trkpt lat="43.40048225818102" lon="12.578017743914321"><ele>623.0</ele><time>2026-04-19T14:09:30.999Z</time></trkpt><trkpt lat="43.40065586991017" lon="12.578103294493882"><ele>623.0</ele><time>2026-04-19T14:09:31.999Z</time></trkpt><trkpt lat="43.40082585780536" lon="12.578172938845857"><ele>623.0</ele><time>2026-04-19T14:09:32.999Z</time></trkpt><trkpt lat="43.400997886729236" lon="12.578237170267798"><ele>623.0</ele><time>2026-04-19T14:09:33.999Z</time></trkpt><trkpt lat="43.4011704336414" lon="12.578291992262868"><ele>623.6666666666666</ele><time>2026-04-19T14:09:34.999Z</time></trkpt><trkpt lat="43.40133859322044" lon="12.578347029248944"><ele>624.3333333333334</ele><time>2026-04-19T14:09:35.999Z</time></trkpt><trkpt lat="43.401506326842316" lon="12.578396004633737"><ele>625.0</ele><time>2026-04-19T14:09:36.999Z</time></trkpt><trkpt lat="43.401670034047044" lon="12.578437264932338"><ele>625.0</ele><time>2026-04-19T14:09:37.999Z</time></trkpt><trkpt lat="43.401833786147954" lon="12.578449603006224"><ele>625.0</ele><time>2026-04-19T14:09:38.999Z</time></trkpt><trkpt lat="43.40201969016212" lon="12.578422839036143"><ele>625.0</ele><time>2026-04-19T14:09:39.999Z</time></trkpt><trkpt lat="43.402224095932816" lon="12.578372050927895"><ele>619.6666666666667</ele><time>2026-04-19T14:09:40.999Z</time></trkpt><trkpt lat="43.402428811721094" lon="12.578302862275029"><ele>614.3333333333334</ele><time>2026-04-19T14:09:41.999Z</time></trkpt><trkpt lat="43.4026312545475" lon="12.578247160036684"><ele>609.0</ele><time>2026-04-19T14:09:42.999Z</time></trkpt><trkpt lat="43.40283050596724" lon="12.578206609197196"><ele>604.0</ele><time>2026-04-19T14:09:43.999Z</time></trkpt><trkpt lat="43.40302834328845" lon="12.578179031327538"><ele>599.0</ele><time>2026-04-19T14:09:44.999Z</time></trkpt><trkpt lat="43.40322420854526" lon="12.578156417281093"><ele>594.0</ele><time>2026-04-19T14:09:45.999Z</time></trkpt><trkpt lat="43.403406465540186" lon="12.578145291663763"><ele>594.0</ele><time>2026-04-19T14:09:46.999Z</time></trkpt><trkpt lat="43.40359100071108" lon="12.57813365302914"><ele>594.0</ele><time>2026-04-19T14:09:47.999Z</time></trkpt><trkpt lat="43.40378169507834" lon="12.57816748022985"><ele>594.0</ele><time>2026-04-19T14:09:48.999Z</time></trkpt><trkpt lat="43.403979844183716" lon="12.578264574002938"><ele>594.3333333333334</ele><time>2026-04-19T14:09:49.999Z</time></trkpt><trkpt lat="43.404168216129136" lon="12.578337162559789"><ele>594.6666666666667</ele><time>2026-04-19T14:09:50.999Z</time></trkpt><trkpt lat="43.4043956042093" lon="12.578378898366667"><ele>595.0</ele><time>2026-04-19T14:09:51.999Z</time></trkpt><trkpt lat="43.40460485857468" lon="12.578458919088389"><ele>597.0</ele><time>2026-04-19T14:09:52.999Z</time></trkpt><trkpt lat="43.40481048385111" lon="12.578540488617504"><ele>599.0</ele><time>2026-04-19T14:09:53.999Z</time></trkpt><trkpt lat="43.40501454418822" lon="12.57861607275557"><ele>601.0</ele><time>2026-04-19T14:09:54.999Z</time></trkpt><trkpt lat="43.40521450295657" lon="12.578690860132257"><ele>592.0</ele><time>2026-04-19T14:09:55.999Z</time></trkpt><trkpt lat="43.405408563348374" lon="12.578762912122057"><ele>583.0</ele><time>2026-04-19T14:09:56.999Z</time></trkpt><trkpt lat="43.40559942788879" lon="12.57883334431633"><ele>574.0</ele><time>2026-04-19T14:09:57.999Z</time></trkpt><trkpt lat="43.40579222875073" lon="12.578899322678701"><ele>574.0</ele><time>2026-04-19T14:09:58.999Z</time></trkpt><trkpt lat="43.40597555155019" lon="12.57896495518578"><ele>574.0</ele><time>2026-04-19T14:09:59.999Z</time></trkpt><trkpt lat="43.406151989294344" lon="12.579024915865821"><ele>574.0</ele><time>2026-04-19T14:10:00.999Z</time></trkpt><trkpt lat="43.406323938995236" lon="12.579096389613067"><ele>574.3333333333334</ele><time>2026-04-19T14:10:01.999Z</time></trkpt><trkpt lat="43.40649520469813" lon="12.579178528063084"><ele>574.6666666666666</ele><time>2026-04-19T14:10:02.999Z</time></trkpt><trkpt lat="43.406661682711466" lon="12.57927258130562"><ele>575.0</ele><time>2026-04-19T14:10:03.999Z</time></trkpt><trkpt lat="43.40682294359609" lon="12.57938699510252"><ele>571.3333333333333</ele><time>2026-04-19T14:10:04.999Z</time></trkpt><trkpt lat="43.406983448869475" lon="12.579526991880137"><ele>567.6666666666666</ele><time>2026-04-19T14:10:05.999Z</time></trkpt><trkpt lat="43.40714650937894" lon="12.57968489077331"><ele>564.0</ele><time>2026-04-19T14:10:06.999Z</time></trkpt><trkpt lat="43.40730142290979" lon="12.579835767773826"><ele>564.0</ele><time>2026-04-19T14:10:08Z</time></trkpt><trkpt lat="43.40745219574158" lon="12.579975989897916"><ele>564.0</ele><time>2026-04-19T14:10:09Z</time></trkpt><trkpt lat="43.40759563593709" lon="12.580098223057771"><ele>564.0</ele><time>2026-04-19T14:10:10Z</time></trkpt><trkpt lat="43.407749666444566" lon="12.580194095246455"><ele>564.0</ele><time>2026-04-19T14:10:11Z</time></trkpt><trkpt lat="43.40791320668509" lon="12.580265752262111"><ele>564.0</ele><time>2026-04-19T14:10:12Z</time></trkpt><trkpt lat="43.408087315655386" lon="12.580306545880044"><ele>564.0</ele><time>2026-04-19T14:10:13Z</time></trkpt><trkpt lat="43.40826998259526" lon="12.580334078567512"><ele>557.6666666666666</ele><time>2026-04-19T14:10:14Z</time></trkpt><trkpt lat="43.408462134408666" lon="12.580365830583219"><ele>551.3333333333333</ele><time>2026-04-19T14:10:15Z</time></trkpt><trkpt lat="43.408660848414506" lon="12.580407935439167"><ele>545.0</ele><time>2026-04-19T14:10:16Z</time></trkpt><trkpt lat="43.408855849940515" lon="12.580454353182496"><ele>544.0</ele><time>2026-04-19T14:10:17Z</time></trkpt><trkpt lat="43.409042817534186" lon="12.580517115121333"><ele>543.0</ele><time>2026-04-19T14:10:18Z</time></trkpt><trkpt lat="43.40921670020825" lon="12.580594793399973"><ele>542.0</ele><time>2026-04-19T14:10:19Z</time></trkpt><trkpt lat="43.40940075583572" lon="12.58060172413603"><ele>542.0</ele><time>2026-04-19T14:10:20Z</time></trkpt><trkpt lat="43.40958178734243" lon="12.580618472181335"><ele>542.0</ele><time>2026-04-19T14:10:21Z</time></trkpt><trkpt lat="43.4097594871677" lon="12.580628732595303"><ele>542.0</ele><time>2026-04-19T14:10:22Z</time></trkpt><trkpt lat="43.40995371883656" lon="12.580653388874317"><ele>542.6666666666666</ele><time>2026-04-19T14:10:23Z</time></trkpt><trkpt lat="43.41015475209606" lon="12.580704548446999"><ele>543.3333333333334</ele><time>2026-04-19T14:10:24Z</time></trkpt><trkpt lat="43.41035765874139" lon="12.58077863993571"><ele>544.0</ele><time>2026-04-19T14:10:25Z</time></trkpt><trkpt lat="43.41053830727064" lon="12.580918111630547"><ele>544.0</ele><time>2026-04-19T14:10:26Z</time></trkpt><trkpt lat="43.41075078982955" lon="12.581028876198813"><ele>544.0</ele><time>2026-04-19T14:10:27Z</time></trkpt><trkpt lat="43.41095035130034" lon="12.581203311048768"><ele>535.5</ele><time>2026-04-19T14:10:28Z</time></trkpt><trkpt lat="43.411150688216956" lon="12.581391801708738"><ele>527.0</ele><time>2026-04-19T14:10:29Z</time></trkpt><trkpt lat="43.411352267671084" lon="12.58157209388891"><ele>526.0</ele><time>2026-04-19T14:10:30Z</time></trkpt><trkpt lat="43.411552458676454" lon="12.581742632414521"><ele>525.0</ele><time>2026-04-19T14:10:31Z</time></trkpt><trkpt lat="43.41174704801118" lon="12.581907204886253"><ele>522.6666666666666</ele><time>2026-04-19T14:10:32Z</time></trkpt><trkpt lat="43.411933512263616" lon="12.582074439516076"><ele>520.3333333333333</ele><time>2026-04-19T14:10:33Z</time></trkpt><trkpt lat="43.41211768277641" lon="12.582243402988707"><ele>518.0</ele><time>2026-04-19T14:10:34Z</time></trkpt><trkpt lat="43.412291450291924" lon="12.582411553545255"><ele>518.0</ele><time>2026-04-19T14:10:35Z</time></trkpt><trkpt lat="43.412462182639416" lon="12.582574280808096"><ele>518.0</ele><time>2026-04-19T14:10:36Z</time></trkpt><trkpt lat="43.41263455839883" lon="12.582731803214072"><ele>518.0</ele><time>2026-04-19T14:10:37Z</time></trkpt><trkpt lat="43.41281155264964" lon="12.582889169999117"><ele>518.3333333333333</ele><time>2026-04-19T14:10:38Z</time></trkpt><trkpt lat="43.41299297378917" lon="12.583052982622595"><ele>518.6666666666666</ele><time>2026-04-19T14:10:39Z</time></trkpt><trkpt lat="43.413177040003596" lon="12.58322092751437"><ele>519.0</ele><time>2026-04-19T14:10:40Z</time></trkpt><trkpt lat="43.41336590145452" lon="12.58339513611962"><ele>519.0</ele><time>2026-04-19T14:10:41Z</time></trkpt><trkpt lat="43.41354913975399" lon="12.583570052686287"><ele>519.0</ele><time>2026-04-19T14:10:42Z</time></trkpt><trkpt lat="43.413735581265755" lon="12.58374763859606"><ele>516.3333333333334</ele><time>2026-04-19T14:10:43Z</time></trkpt><trkpt lat="43.41392269507002" lon="12.583920521017388"><ele>513.6666666666667</ele><time>2026-04-19T14:10:44Z</time></trkpt><trkpt lat="43.414107076384305" lon="12.584087960374578"><ele>511.0</ele><time>2026-04-19T14:10:45Z</time></trkpt><trkpt lat="43.41428346558858" lon="12.584252284266691"><ele>511.0</ele><time>2026-04-19T14:10:46Z</time></trkpt><trkpt lat="43.414458946684526" lon="12.584416777058129"><ele>511.0</ele><time>2026-04-19T14:10:47Z</time></trkpt><trkpt lat="43.41464185721197" lon="12.584581702333415"><ele>511.0</ele><time>2026-04-19T14:10:48Z</time></trkpt><trkpt lat="43.414823521267685" lon="12.584741376809303"><ele>510.33333333333337</ele><time>2026-04-19T14:10:49Z</time></trkpt><trkpt lat="43.415001799010795" lon="12.584892314883366"><ele>509.66666666666663</ele><time>2026-04-19T14:10:50Z</time></trkpt><trkpt lat="43.415178399492355" lon="12.585039948099096"><ele>509.0</ele><time>2026-04-19T14:10:51Z</time></trkpt><trkpt lat="43.41534810651792" lon="12.585171196564398"><ele>507.3333333333333</ele><time>2026-04-19T14:10:52Z</time></trkpt><trkpt lat="43.41551566051605" lon="12.585289315450494"><ele>505.66666666666663</ele><time>2026-04-19T14:10:53Z</time></trkpt><trkpt lat="43.415681923860525" lon="12.5853921512574"><ele>504.0</ele><time>2026-04-19T14:10:54Z</time></trkpt><trkpt lat="43.41583927212871" lon="12.585481700964868"><ele>504.0</ele><time>2026-04-19T14:10:55Z</time></trkpt><trkpt lat="43.41600155877645" lon="12.585573177286548"><ele>504.0</ele><time>2026-04-19T14:10:56Z</time></trkpt><trkpt lat="43.416168827432394" lon="12.585670335553255"><ele>504.0</ele><time>2026-04-19T14:10:57Z</time></trkpt><trkpt lat="43.416329858765025" lon="12.58576711900625"><ele>505.0</ele><time>2026-04-19T14:10:58Z</time></trkpt><trkpt lat="43.41648237899742" lon="12.585862953622582"><ele>506.0</ele><time>2026-04-19T14:10:59Z</time></trkpt><trkpt lat="43.41663416113175" lon="12.585959730514423"><ele>507.0</ele><time>2026-04-19T14:10:59.999Z</time></trkpt><trkpt lat="43.41678464446389" lon="12.586053473375433"><ele>507.0</ele><time>2026-04-19T14:11:00.999Z</time></trkpt><trkpt lat="43.416943353009195" lon="12.586153858990667"><ele>507.0</ele><time>2026-04-19T14:11:01.999Z</time></trkpt><trkpt lat="43.41710360761275" lon="12.58624958291976"><ele>507.0</ele><time>2026-04-19T14:11:02.999Z</time></trkpt><trkpt lat="43.41726845756627" lon="12.586352514787178"><ele>503.66666666666663</ele><time>2026-04-19T14:11:03.999Z</time></trkpt><trkpt lat="43.41743391743929" lon="12.586452730216442"><ele>500.3333333333333</ele><time>2026-04-19T14:11:04.999Z</time></trkpt><trkpt lat="43.417598009513284" lon="12.586556194864169"><ele>497.0</ele><time>2026-04-19T14:11:05.999Z</time></trkpt><trkpt lat="43.41776730506734" lon="12.586666326028858"><ele>497.0</ele><time>2026-04-19T14:11:06.999Z</time></trkpt><trkpt lat="43.41794440526041" lon="12.586794601247655"><ele>497.0</ele><time>2026-04-19T14:11:07.999Z</time></trkpt><trkpt lat="43.418133350450034" lon="12.586958044302522"><ele>497.0</ele><time>2026-04-19T14:11:08.999Z</time></trkpt><trkpt lat="43.41832371546141" lon="12.587166700067211"><ele>496.5</ele><time>2026-04-19T14:11:09.999Z</time></trkpt><trkpt lat="43.41851085462407" lon="12.587415735284413"><ele>496.0</ele><time>2026-04-19T14:11:10.999Z</time></trkpt><trkpt lat="43.418669235708215" lon="12.587725338093193"><ele>494.5</ele><time>2026-04-19T14:11:11.999Z</time></trkpt><trkpt lat="43.418863890838125" lon="12.587993284751859"><ele>493.0</ele><time>2026-04-19T14:11:12.999Z</time></trkpt><trkpt lat="43.419054140106034" lon="12.588253033230343"><ele>493.0</ele><time>2026-04-19T14:11:13.999Z</time></trkpt><trkpt lat="43.41924774770211" lon="12.58850496382136"><ele>493.0</ele><time>2026-04-19T14:11:14.999Z</time></trkpt><trkpt lat="43.419432831550445" lon="12.588757129354514"><ele>491.0</ele><time>2026-04-19T14:11:15.999Z</time></trkpt><trkpt lat="43.419603010705764" lon="12.588986970955244"><ele>489.0</ele><time>2026-04-19T14:11:16.999Z</time></trkpt><trkpt lat="43.41975668983386" lon="12.589214653566856"><ele>490.5</ele><time>2026-04-19T14:11:17.999Z</time></trkpt><trkpt lat="43.41990398784262" lon="12.58944792284738"><ele>492.0</ele><time>2026-04-19T14:11:18.999Z</time></trkpt><trkpt lat="43.42004198920327" lon="12.58969888171747"><ele>492.0</ele><time>2026-04-19T14:11:19.999Z</time></trkpt><trkpt lat="43.42017349893013" lon="12.589983588827277"><ele>492.0</ele><time>2026-04-19T14:11:20.999Z</time></trkpt><trkpt lat="43.42029524798868" lon="12.59028146378466"><ele>489.5</ele><time>2026-04-19T14:11:21.999Z</time></trkpt><trkpt lat="43.42040704119985" lon="12.590562723189592"><ele>487.0</ele><time>2026-04-19T14:11:22.999Z</time></trkpt><trkpt lat="43.42052394721749" lon="12.590833952151616"><ele>489.5</ele><time>2026-04-19T14:11:23.999Z</time></trkpt><trkpt lat="43.42065982338895" lon="12.591099661071722"><ele>492.0</ele><time>2026-04-19T14:11:24.999Z</time></trkpt><trkpt lat="43.420804456831625" lon="12.591340211276561"><ele>492.0</ele><time>2026-04-19T14:11:25.999Z</time></trkpt><trkpt lat="43.42094854046395" lon="12.59155949541014"><ele>492.0</ele><time>2026-04-19T14:11:26.999Z</time></trkpt><trkpt lat="43.4210940269202" lon="12.591775555930509"><ele>492.0</ele><time>2026-04-19T14:11:27.999Z</time></trkpt><trkpt lat="43.42123662917143" lon="12.591988713699049"><ele>493.5</ele><time>2026-04-19T14:11:28.999Z</time></trkpt><trkpt lat="43.421389181501624" lon="12.592220109491025"><ele>495.0</ele><time>2026-04-19T14:11:29.999Z</time></trkpt><trkpt lat="43.421548601777246" lon="12.59245114066577"><ele>495.0</ele><time>2026-04-19T14:11:30.999Z</time></trkpt><trkpt lat="43.42169334136551" lon="12.592654467429385"><ele>495.0</ele><time>2026-04-19T14:11:31.999Z</time></trkpt><trkpt lat="43.42181713514927" lon="12.592814330650851"><ele>495.0</ele><time>2026-04-19T14:11:32.999Z</time></trkpt><trkpt lat="43.42192710924265" lon="12.59295642919815"><ele>490.75</ele><time>2026-04-19T14:11:33.999Z</time></trkpt><trkpt lat="43.422032919381024" lon="12.593092151558565"><ele>486.5</ele><time>2026-04-19T14:11:34.999Z</time></trkpt><trkpt lat="43.42213719412126" lon="12.59323037324708"><ele>482.25</ele><time>2026-04-19T14:11:35.999Z</time></trkpt><trkpt lat="43.422243294784444" lon="12.593363860338696"><ele>478.0</ele><time>2026-04-19T14:11:36.999Z</time></trkpt><trkpt lat="43.42235314932283" lon="12.593497109120094"><ele>478.0</ele><time>2026-04-19T14:11:37.999Z</time></trkpt><trkpt lat="43.422470750730675" lon="12.59363648721912"><ele>478.0</ele><time>2026-04-19T14:11:38.999Z</time></trkpt><trkpt lat="43.42259224446288" lon="12.593781784500905"><ele>478.0</ele><time>2026-04-19T14:11:39.999Z</time></trkpt><trkpt lat="43.422711408069596" lon="12.593934141624223"><ele>476.6666666666667</ele><time>2026-04-19T14:11:40.999Z</time></trkpt><trkpt lat="43.42282121070006" lon="12.594104877850215"><ele>475.33333333333337</ele><time>2026-04-19T14:11:41.999Z</time></trkpt><trkpt lat="43.422917287929735" lon="12.59429902978205"><ele>474.0</ele><time>2026-04-19T14:11:42.999Z</time></trkpt><trkpt lat="43.42301748675939" lon="12.594526418428243"><ele>474.0</ele><time>2026-04-19T14:11:43.999Z</time></trkpt><trkpt lat="43.42312064729177" lon="12.594782766784137"><ele>474.0</ele><time>2026-04-19T14:11:44.999Z</time></trkpt><trkpt lat="43.42323316406933" lon="12.595062729751179"><ele>474.0</ele><time>2026-04-19T14:11:45.999Z</time></trkpt><trkpt lat="43.42334597758713" lon="12.595361269429212"><ele>472.0</ele><time>2026-04-19T14:11:46.999Z</time></trkpt><trkpt lat="43.42345864756879" lon="12.595689055748295"><ele>470.0</ele><time>2026-04-19T14:11:47.999Z</time></trkpt><trkpt lat="43.42356421777557" lon="12.596029952251559"><ele>469.0</ele><time>2026-04-19T14:11:48.999Z</time></trkpt><trkpt lat="43.42366854541389" lon="12.596363562010026"><ele>468.0</ele><time>2026-04-19T14:11:49.999Z</time></trkpt><trkpt lat="43.423770880367144" lon="12.596700038328446"><ele>469.0</ele><time>2026-04-19T14:11:50.999Z</time></trkpt><trkpt lat="43.423869243299656" lon="12.597027890670217"><ele>470.0</ele><time>2026-04-19T14:11:51.999Z</time></trkpt><trkpt lat="43.423968526421774" lon="12.597346273223131"><ele>470.0</ele><time>2026-04-19T14:11:52.999Z</time></trkpt><trkpt lat="43.424066358157745" lon="12.59764919595738"><ele>470.0</ele><time>2026-04-19T14:11:53.999Z</time></trkpt><trkpt lat="43.424163859988724" lon="12.597941339817224"><ele>469.0</ele><time>2026-04-19T14:11:54.999Z</time></trkpt><trkpt lat="43.42425600842022" lon="12.598218027479223"><ele>468.0</ele><time>2026-04-19T14:11:55.999Z</time></trkpt><trkpt lat="43.424345635383915" lon="12.598487045546209"><ele>467.0</ele><time>2026-04-19T14:11:56.999Z</time></trkpt><trkpt lat="43.42443235078031" lon="12.59874234555787"><ele>467.0</ele><time>2026-04-19T14:11:57.999Z</time></trkpt><trkpt lat="43.42452042828098" lon="12.599008849332286"><ele>467.0</ele><time>2026-04-19T14:11:58.999Z</time></trkpt><trkpt lat="43.42460998548982" lon="12.599261714229389"><ele>467.0</ele><time>2026-04-19T14:11:59.999Z</time></trkpt><trkpt lat="43.424711574591726" lon="12.599518683906627"><ele>467.3333333333333</ele><time>2026-04-19T14:12:00.999Z</time></trkpt><trkpt lat="43.42478536788551" lon="12.599795803266902"><ele>467.66666666666663</ele><time>2026-04-19T14:12:01.999Z</time></trkpt><trkpt lat="43.424874612075534" lon="12.600060059584669"><ele>468.0</ele><time>2026-04-19T14:12:02.999Z</time></trkpt><trkpt lat="43.424967853752946" lon="12.600326744402663"><ele>465.0</ele><time>2026-04-19T14:12:03.999Z</time></trkpt><trkpt lat="43.425062679396355" lon="12.600603356153275"><ele>462.0</ele><time>2026-04-19T14:12:04.999Z</time></trkpt><trkpt lat="43.42515657918007" lon="12.6008967172017"><ele>462.0</ele><time>2026-04-19T14:12:05.999Z</time></trkpt><trkpt lat="43.425252365439256" lon="12.601193472743729"><ele>462.0</ele><time>2026-04-19T14:12:06.999Z</time></trkpt><trkpt lat="43.42535149691335" lon="12.601495119808208"><ele>462.0</ele><time>2026-04-19T14:12:07.999Z</time></trkpt><trkpt lat="43.42544925542366" lon="12.60179622762045"><ele>462.0</ele><time>2026-04-19T14:12:08.999Z</time></trkpt><trkpt lat="43.42554289262954" lon="12.602083677941211"><ele>465.0</ele><time>2026-04-19T14:12:09.999Z</time></trkpt><trkpt lat="43.42563992946375" lon="12.602369167138969"><ele>468.0</ele><time>2026-04-19T14:12:10.999Z</time></trkpt><trkpt lat="43.42573366685167" lon="12.602644949216812"><ele>466.66666666666663</ele><time>2026-04-19T14:12:11.999Z</time></trkpt><trkpt lat="43.42582313894052" lon="12.60291566694474"><ele>465.3333333333333</ele><time>2026-04-19T14:12:12.999Z</time></trkpt><trkpt lat="43.42590819717108" lon="12.603177035286892"><ele>464.0</ele><time>2026-04-19T14:12:14Z</time></trkpt><trkpt lat="43.42599266231931" lon="12.60342919824393"><ele>467.0</ele><time>2026-04-19T14:12:15Z</time></trkpt><trkpt lat="43.42607540214143" lon="12.603668689848128"><ele>470.0</ele><time>2026-04-19T14:12:16Z</time></trkpt><trkpt lat="43.4261521499189" lon="12.603893172562694"><ele>473.0</ele><time>2026-04-19T14:12:17Z</time></trkpt><trkpt lat="43.42623438350996" lon="12.604091235356105"><ele>473.0</ele><time>2026-04-19T14:12:18Z</time></trkpt><trkpt lat="43.426335925862375" lon="12.604271690724762"><ele>473.0</ele><time>2026-04-19T14:12:19Z</time></trkpt><trkpt lat="43.42645532873085" lon="12.604448746580008"><ele>473.0</ele><time>2026-04-19T14:12:20Z</time></trkpt><trkpt lat="43.42659575816927" lon="12.604615898353144"><ele>473.0</ele><time>2026-04-19T14:12:21Z</time></trkpt><trkpt lat="43.426745558662454" lon="12.6047816848778"><ele>473.0</ele><time>2026-04-19T14:12:22Z</time></trkpt><trkpt lat="43.42688847208828" lon="12.604958845243566"><ele>473.0</ele><time>2026-04-19T14:12:23Z</time></trkpt><trkpt lat="43.42703550159999" lon="12.605129626916813"><ele>472.3333333333333</ele><time>2026-04-19T14:12:24Z</time></trkpt><trkpt lat="43.4271776515511" lon="12.605305959672267"><ele>471.66666666666663</ele><time>2026-04-19T14:12:25Z</time></trkpt><trkpt lat="43.42731709301588" lon="12.605482933314265"><ele>471.0</ele><time>2026-04-19T14:12:26Z</time></trkpt><trkpt lat="43.427449795395525" lon="12.605669555160134"><ele>471.0</ele><time>2026-04-19T14:12:27Z</time></trkpt><trkpt lat="43.42758804998629" lon="12.605858220895895"><ele>471.0</ele><time>2026-04-19T14:12:28Z</time></trkpt><trkpt lat="43.42772393569534" lon="12.606056890048976"><ele>471.0</ele><time>2026-04-19T14:12:29Z</time></trkpt><trkpt lat="43.42785654604859" lon="12.606268154377165"><ele>468.33333333333337</ele><time>2026-04-19T14:12:30Z</time></trkpt><trkpt lat="43.427987858081636" lon="12.606492489952553"><ele>465.6666666666667</ele><time>2026-04-19T14:12:31Z</time></trkpt><trkpt lat="43.42811853403446" lon="12.60671577640469"><ele>463.0</ele><time>2026-04-19T14:12:32Z</time></trkpt><trkpt lat="43.428246615659255" lon="12.606919612801642"><ele>469.6666666666667</ele><time>2026-04-19T14:12:33Z</time></trkpt><trkpt lat="43.42837873718959" lon="12.607111955127566"><ele>476.33333333333337</ele><time>2026-04-19T14:12:34Z</time></trkpt><trkpt lat="43.428519875600955" lon="12.6072803900414"><ele>483.0</ele><time>2026-04-19T14:12:35Z</time></trkpt><trkpt lat="43.4286693425996" lon="12.60743306481731"><ele>482.66666666666663</ele><time>2026-04-19T14:12:36Z</time></trkpt><trkpt lat="43.42881929737779" lon="12.607571282483985"><ele>482.3333333333333</ele><time>2026-04-19T14:12:37Z</time></trkpt><trkpt lat="43.42895597610682" lon="12.607729452838747"><ele>482.0</ele><time>2026-04-19T14:12:38Z</time></trkpt><trkpt lat="43.42910923071694" lon="12.607853132121877"><ele>482.0</ele><time>2026-04-19T14:12:39Z</time></trkpt><trkpt lat="43.429230673638635" lon="12.60802217854025"><ele>482.0</ele><time>2026-04-19T14:12:40Z</time></trkpt><trkpt lat="43.429365224630615" lon="12.608172049967493"><ele>482.0</ele><time>2026-04-19T14:12:41Z</time></trkpt><trkpt lat="43.42948950996991" lon="12.60835166974681"><ele>482.0</ele><time>2026-04-19T14:12:42Z</time></trkpt><trkpt lat="43.42961097813012" lon="12.608535326467372"><ele>482.0</ele><time>2026-04-19T14:12:43Z</time></trkpt><trkpt lat="43.429734329582274" lon="12.608715215931163"><ele>482.0</ele><time>2026-04-19T14:12:44Z</time></trkpt><trkpt lat="43.429856846731795" lon="12.608891248883605"><ele>477.66666666666663</ele><time>2026-04-19T14:12:45Z</time></trkpt><trkpt lat="43.42998996694136" lon="12.60906980396996"><ele>473.33333333333337</ele><time>2026-04-19T14:12:46Z</time></trkpt><trkpt lat="43.43013192872358" lon="12.609240453633037"><ele>469.0</ele><time>2026-04-19T14:12:47Z</time></trkpt><trkpt lat="43.430279327128716" lon="12.609408551441833"><ele>467.6666666666667</ele><time>2026-04-19T14:12:48Z</time></trkpt><trkpt lat="43.43043393475086" lon="12.609574607175482"><ele>466.33333333333337</ele><time>2026-04-19T14:12:49Z</time></trkpt><trkpt lat="43.43058951422516" lon="12.609729852894036"><ele>465.0</ele><time>2026-04-19T14:12:50Z</time></trkpt><trkpt lat="43.43074707619425" lon="12.609871548435954"><ele>465.0</ele><time>2026-04-19T14:12:51Z</time></trkpt><trkpt lat="43.43090384874186" lon="12.61000617506404"><ele>465.0</ele><time>2026-04-19T14:12:52Z</time></trkpt><trkpt lat="43.43105962521095" lon="12.610127902074725"><ele>465.0</ele><time>2026-04-19T14:12:53Z</time></trkpt><trkpt lat="43.43121913424015" lon="12.610226545316802"><ele>465.33333333333337</ele><time>2026-04-19T14:12:54Z</time></trkpt><trkpt lat="43.43138325720364" lon="12.610288382600915"><ele>465.6666666666667</ele><time>2026-04-19T14:12:55Z</time></trkpt><trkpt lat="43.43155072685928" lon="12.610333837270032"><ele>466.0</ele><time>2026-04-19T14:12:56Z</time></trkpt><trkpt lat="43.43171023270315" lon="12.61037894622704"><ele>466.0</ele><time>2026-04-19T14:12:57Z</time></trkpt><trkpt lat="43.43186088558858" lon="12.610428386658201"><ele>466.0</ele><time>2026-04-19T14:12:58Z</time></trkpt><trkpt lat="43.43200425914769" lon="12.610496722195196"><ele>466.0</ele><time>2026-04-19T14:12:59Z</time></trkpt><trkpt lat="43.432144805329834" lon="12.610595939815607"><ele>460.0</ele><time>2026-04-19T14:13:00Z</time></trkpt><trkpt lat="43.43228308783241" lon="12.610725399524817"><ele>454.0</ele><time>2026-04-19T14:13:01Z</time></trkpt><trkpt lat="43.43241163371926" lon="12.610852939502148"><ele>448.0</ele><time>2026-04-19T14:13:02Z</time></trkpt><trkpt lat="43.432555898139285" lon="12.610963370638505"><ele>448.0</ele><time>2026-04-19T14:13:03Z</time></trkpt><trkpt lat="43.43270527718012" lon="12.611044399327549"><ele>448.0</ele><time>2026-04-19T14:13:04Z</time></trkpt><trkpt lat="43.43285369613521" lon="12.611110306861175"><ele>448.0</ele><time>2026-04-19T14:13:05Z</time></trkpt><trkpt lat="43.43300386472351" lon="12.611171945815423"><ele>446.75</ele><time>2026-04-19T14:13:06Z</time></trkpt><trkpt lat="43.43314888844741" lon="12.611223778167545"><ele>445.5</ele><time>2026-04-19T14:13:07Z</time></trkpt><trkpt lat="43.43328834650923" lon="12.611278060986436"><ele>444.25</ele><time>2026-04-19T14:13:08Z</time></trkpt><trkpt lat="43.43341815993708" lon="12.611342883160491"><ele>443.0</ele><time>2026-04-19T14:13:09Z</time></trkpt><trkpt lat="43.4335396320231" lon="12.611421765431587"><ele>443.0</ele><time>2026-04-19T14:13:10Z</time></trkpt><trkpt lat="43.43363338331569" lon="12.611548701111328"><ele>443.0</ele><time>2026-04-19T14:13:11Z</time></trkpt><trkpt lat="43.4337178172259" lon="12.611698812968577"><ele>443.0</ele><time>2026-04-19T14:13:12Z</time></trkpt><trkpt lat="43.433807921196966" lon="12.611855870777724"><ele>443.0</ele><time>2026-04-19T14:13:13Z</time></trkpt><trkpt lat="43.43387681537689" lon="12.612038569791128"><ele>443.25</ele><time>2026-04-19T14:13:13.999Z</time></trkpt><trkpt lat="43.43395058168824" lon="12.612222019554032"><ele>443.5</ele><time>2026-04-19T14:13:14.999Z</time></trkpt><trkpt lat="43.43402415465216" lon="12.612396757386984"><ele>443.75</ele><time>2026-04-19T14:13:15.999Z</time></trkpt><trkpt lat="43.434098844914224" lon="12.612575929401356"><ele>444.0</ele><time>2026-04-19T14:13:16.999Z</time></trkpt><trkpt lat="43.43417771052794" lon="12.612761037140775"><ele>442.33333333333337</ele><time>2026-04-19T14:13:17.999Z</time></trkpt><trkpt lat="43.43425800513838" lon="12.612952812264247"><ele>440.6666666666667</ele><time>2026-04-19T14:13:18.999Z</time></trkpt><trkpt lat="43.43434106680759" lon="12.613151875409878"><ele>439.0</ele><time>2026-04-19T14:13:19.999Z</time></trkpt><trkpt lat="43.434428785674015" lon="12.613363804698404"><ele>439.0</ele><time>2026-04-19T14:13:20.999Z</time></trkpt><trkpt lat="43.43451491287544" lon="12.613577719167036"><ele>439.0</ele><time>2026-04-19T14:13:21.999Z</time></trkpt><trkpt lat="43.43460376894912" lon="12.613798532411524"><ele>439.0</ele><time>2026-04-19T14:13:22.999Z</time></trkpt><trkpt lat="43.434696742836415" lon="12.614020971222752"><ele>440.6666666666667</ele><time>2026-04-19T14:13:23.999Z</time></trkpt><trkpt lat="43.43478439455819" lon="12.614240432955453"><ele>442.33333333333337</ele><time>2026-04-19T14:13:24.999Z</time></trkpt><trkpt lat="43.4348591858025" lon="12.614484807781157"><ele>444.0</ele><time>2026-04-19T14:13:25.999Z</time></trkpt><trkpt lat="43.43491115310688" lon="12.614723579985496"><ele>444.0</ele><time>2026-04-19T14:13:26.999Z</time></trkpt><trkpt lat="43.43494603155776" lon="12.614970725797686"><ele>444.0</ele><time>2026-04-19T14:13:27.999Z</time></trkpt><trkpt lat="43.434976651275875" lon="12.615219379515805"><ele>444.0</ele><time>2026-04-19T14:13:28.999Z</time></trkpt><trkpt lat="43.4350071930943" lon="12.615475603771856"><ele>441.66666666666663</ele><time>2026-04-19T14:13:29.999Z</time></trkpt><trkpt lat="43.435037585098165" lon="12.61573875408654"><ele>439.3333333333333</ele><time>2026-04-19T14:13:30.999Z</time></trkpt><trkpt lat="43.43507593169281" lon="12.616004085297082"><ele>437.0</ele><time>2026-04-19T14:13:31.999Z</time></trkpt><trkpt lat="43.43511426549746" lon="12.616276202768383"><ele>434.66666666666663</ele><time>2026-04-19T14:13:32.999Z</time></trkpt><trkpt lat="43.435152455547566" lon="12.61654506451646"><ele>432.33333333333337</ele><time>2026-04-19T14:13:33.999Z</time></trkpt><trkpt lat="43.43518951548122" lon="12.616816582102492"><ele>430.0</ele><time>2026-04-19T14:13:34.999Z</time></trkpt><trkpt lat="43.43522136124755" lon="12.61708185553749"><ele>429.0</ele><time>2026-04-19T14:13:35.999Z</time></trkpt><trkpt lat="43.435253515807176" lon="12.617341847429797"><ele>428.0</ele><time>2026-04-19T14:13:36.999Z</time></trkpt><trkpt lat="43.43528818772241" lon="12.61759792273888"><ele>427.0</ele><time>2026-04-19T14:13:37.999Z</time></trkpt><trkpt lat="43.43532831318574" lon="12.617846775150332"><ele>426.6666666666667</ele><time>2026-04-19T14:13:38.999Z</time></trkpt><trkpt lat="43.43536804239054" lon="12.618081620551676"><ele>426.33333333333337</ele><time>2026-04-19T14:13:39.999Z</time></trkpt><trkpt lat="43.435415511353206" lon="12.618301334399966"><ele>426.0</ele><time>2026-04-19T14:13:40.999Z</time></trkpt><trkpt lat="43.4354918331369" lon="12.618506514600934"><ele>425.66666666666663</ele><time>2026-04-19T14:13:41.999Z</time></trkpt><trkpt lat="43.435587081006624" lon="12.61869696349748"><ele>425.3333333333333</ele><time>2026-04-19T14:13:42.999Z</time></trkpt><trkpt lat="43.43570029314914" lon="12.618880697115943"><ele>425.0</ele><time>2026-04-19T14:13:43.999Z</time></trkpt><trkpt lat="43.43583510461509" lon="12.619059942105709"><ele>425.0</ele><time>2026-04-19T14:13:44.999Z</time></trkpt><trkpt lat="43.43599078243429" lon="12.619235232766794"><ele>425.0</ele><time>2026-04-19T14:13:45.999Z</time></trkpt><trkpt lat="43.43615501884875" lon="12.619387653870511"><ele>425.0</ele><time>2026-04-19T14:13:46.999Z</time></trkpt><trkpt lat="43.436332304874824" lon="12.619538239800836"><ele>422.66666666666663</ele><time>2026-04-19T14:13:47.999Z</time></trkpt><trkpt lat="43.43651163882345" lon="12.619695572462808"><ele>420.33333333333337</ele><time>2026-04-19T14:13:48.999Z</time></trkpt><trkpt lat="43.43669016421635" lon="12.61986133750634"><ele>418.0</ele><time>2026-04-19T14:13:49.999Z</time></trkpt><trkpt lat="43.436864704706366" lon="12.620032416474439"><ele>418.0</ele><time>2026-04-19T14:13:50.999Z</time></trkpt><trkpt lat="43.437035716866944" lon="12.620195469608246"><ele>418.0</ele><time>2026-04-19T14:13:51.999Z</time></trkpt><trkpt lat="43.43719799551536" lon="12.6203519020812"><ele>418.0</ele><time>2026-04-19T14:13:52.999Z</time></trkpt><trkpt lat="43.437357788282426" lon="12.620504484024845"><ele>418.6666666666667</ele><time>2026-04-19T14:13:53.999Z</time></trkpt><trkpt lat="43.437512445881474" lon="12.620649919409589"><ele>419.33333333333337</ele><time>2026-04-19T14:13:54.999Z</time></trkpt><trkpt lat="43.437671822289516" lon="12.620790027177552"><ele>420.0</ele><time>2026-04-19T14:13:55.999Z</time></trkpt><trkpt lat="43.43783632694216" lon="12.62095786878474"><ele>418.66666666666663</ele><time>2026-04-19T14:13:56.999Z</time></trkpt><trkpt lat="43.43799912308612" lon="12.621111246975099"><ele>417.3333333333333</ele><time>2026-04-19T14:13:57.999Z</time></trkpt><trkpt lat="43.43814462089949" lon="12.621222636441933"><ele>416.0</ele><time>2026-04-19T14:13:58.999Z</time></trkpt><trkpt lat="43.43825856688334" lon="12.621389395046224"><ele>416.0</ele><time>2026-04-19T14:13:59.999Z</time></trkpt><trkpt lat="43.43844759539288" lon="12.621515454010998"><ele>416.0</ele><time>2026-04-19T14:14:00.999Z</time></trkpt><trkpt lat="43.43859067344162" lon="12.621656327581235"><ele>416.0</ele><time>2026-04-19T14:14:01.999Z</time></trkpt><trkpt lat="43.43872892612284" lon="12.621797742727242"><ele>418.66666666666663</ele><time>2026-04-19T14:14:02.999Z</time></trkpt><trkpt lat="43.438863582767326" lon="12.621944589283098"><ele>421.33333333333337</ele><time>2026-04-19T14:14:03.999Z</time></trkpt><trkpt lat="43.43898815704415" lon="12.622116154615812"><ele>424.0</ele><time>2026-04-19T14:14:04.999Z</time></trkpt><trkpt lat="43.439091166135626" lon="12.62230488458029"><ele>424.0</ele><time>2026-04-19T14:14:05.999Z</time></trkpt><trkpt lat="43.43915392012849" lon="12.622521450874888"><ele>424.0</ele><time>2026-04-19T14:14:06.999Z</time></trkpt><trkpt lat="43.43922154394107" lon="12.622736490257214"><ele>424.0</ele><time>2026-04-19T14:14:07.999Z</time></trkpt><trkpt lat="43.43929978993918" lon="12.622962481624047"><ele>422.33333333333337</ele><time>2026-04-19T14:14:08.999Z</time></trkpt><trkpt lat="43.4393641214728" lon="12.623210782302408"><ele>420.66666666666663</ele><time>2026-04-19T14:14:09.999Z</time></trkpt><trkpt lat="43.43944329609195" lon="12.623452316771706"><ele>419.0</ele><time>2026-04-19T14:14:10.999Z</time></trkpt><trkpt lat="43.439517154582816" lon="12.623699576811013"><ele>416.66666666666663</ele><time>2026-04-19T14:14:11.999Z</time></trkpt><trkpt lat="43.43959118044056" lon="12.623943794986035"><ele>414.33333333333337</ele><time>2026-04-19T14:14:12.999Z</time></trkpt><trkpt lat="43.43966704039165" lon="12.624192521917903"><ele>412.0</ele><time>2026-04-19T14:14:13.999Z</time></trkpt><trkpt lat="43.43974280063977" lon="12.62444095394774"><ele>414.0</ele><time>2026-04-19T14:14:14.999Z</time></trkpt><trkpt lat="43.439819450166816" lon="12.62469175710454"><ele>416.0</ele><time>2026-04-19T14:14:15.999Z</time></trkpt><trkpt lat="43.439894664947964" lon="12.624941721503077"><ele>418.0</ele><time>2026-04-19T14:14:16.999Z</time></trkpt><trkpt lat="43.439965812507275" lon="12.625177041968968"><ele>416.0</ele><time>2026-04-19T14:14:17.999Z</time></trkpt><trkpt lat="43.4400251898667" lon="12.625403214273584"><ele>414.0</ele><time>2026-04-19T14:14:18.999Z</time></trkpt><trkpt lat="43.44008088880714" lon="12.62561783080484"><ele>412.0</ele><time>2026-04-19T14:14:20Z</time></trkpt><trkpt lat="43.44012687519123" lon="12.625832812361551"><ele>412.0</ele><time>2026-04-19T14:14:21Z</time></trkpt><trkpt lat="43.440126987965606" lon="12.626052453435335"><ele>412.0</ele><time>2026-04-19T14:14:22Z</time></trkpt><trkpt lat="43.44014840154773" lon="12.626272570016736"><ele>412.0</ele><time>2026-04-19T14:14:23Z</time></trkpt><trkpt lat="43.440148092592786" lon="12.626490429362821"><ele>411.6666666666667</ele><time>2026-04-19T14:14:24Z</time></trkpt><trkpt lat="43.440154036098484" lon="12.626708968932054"><ele>411.33333333333337</ele><time>2026-04-19T14:14:25Z</time></trkpt><trkpt lat="43.44016206468943" lon="12.626915882919468"><ele>411.0</ele><time>2026-04-19T14:14:26Z</time></trkpt><trkpt lat="43.440179750641" lon="12.627109539539637"><ele>410.25</ele><time>2026-04-19T14:14:27Z</time></trkpt><trkpt lat="43.44021912321009" lon="12.627288877130802"><ele>409.5</ele><time>2026-04-19T14:14:28Z</time></trkpt><trkpt lat="43.440281433848305" lon="12.627457217235051"><ele>408.75</ele><time>2026-04-19T14:14:29Z</time></trkpt><trkpt lat="43.440357898982455" lon="12.627613578718275"><ele>408.0</ele><time>2026-04-19T14:14:30Z</time></trkpt><trkpt lat="43.44044623981552" lon="12.627760934145245"><ele>407.0</ele><time>2026-04-19T14:14:31Z</time></trkpt><trkpt lat="43.440549009684936" lon="12.627897745336663"><ele>406.0</ele><time>2026-04-19T14:14:32Z</time></trkpt><trkpt lat="43.440663662374405" lon="12.628012363692461"><ele>405.0</ele><time>2026-04-19T14:14:33Z</time></trkpt><trkpt lat="43.440795236610846" lon="12.628111707360045"><ele>404.0</ele><time>2026-04-19T14:14:34Z</time></trkpt><trkpt lat="43.44093745646984" lon="12.628204539376641"><ele>404.0</ele><time>2026-04-19T14:14:35Z</time></trkpt><trkpt lat="43.44108558620787" lon="12.628307131712512"><ele>404.0</ele><time>2026-04-19T14:14:36Z</time></trkpt><trkpt lat="43.44124020246162" lon="12.628402041038724"><ele>404.0</ele><time>2026-04-19T14:14:37Z</time></trkpt><trkpt lat="43.44138922299729" lon="12.628515777320565"><ele>404.66666666666663</ele><time>2026-04-19T14:14:38Z</time></trkpt><trkpt lat="43.44154128394743" lon="12.6286167136824"><ele>405.33333333333337</ele><time>2026-04-19T14:14:39Z</time></trkpt><trkpt lat="43.44168119859981" lon="12.628751037667989"><ele>406.0</ele><time>2026-04-19T14:14:40Z</time></trkpt><trkpt lat="43.441813046893586" lon="12.628886295559212"><ele>406.0</ele><time>2026-04-19T14:14:41Z</time></trkpt><trkpt lat="43.44192823938522" lon="12.629034597626747"><ele>406.0</ele><time>2026-04-19T14:14:42Z</time></trkpt><trkpt lat="43.44202619593371" lon="12.629205225368155"><ele>406.0</ele><time>2026-04-19T14:14:43Z</time></trkpt><trkpt lat="43.44213106226288" lon="12.629376725731225"><ele>405.0</ele><time>2026-04-19T14:14:44Z</time></trkpt><trkpt lat="43.442192273297486" lon="12.62958733510134"><ele>404.0</ele><time>2026-04-19T14:14:45Z</time></trkpt><trkpt lat="43.44223813550088" lon="12.629793767610147"><ele>403.0</ele><time>2026-04-19T14:14:46Z</time></trkpt><trkpt lat="43.44227722679097" lon="12.630002274320887"><ele>403.0</ele><time>2026-04-19T14:14:47Z</time></trkpt><trkpt lat="43.44230734096231" lon="12.630199605210468"><ele>403.0</ele><time>2026-04-19T14:14:48Z</time></trkpt><trkpt lat="43.442332883839505" lon="12.630397712794672"><ele>403.0</ele><time>2026-04-19T14:14:49Z</time></trkpt><trkpt lat="43.44235764654696" lon="12.630594177999402"><ele>403.0</ele><time>2026-04-19T14:14:50Z</time></trkpt><trkpt lat="43.44239777919761" lon="12.630786139264746"><ele>403.5</ele><time>2026-04-19T14:14:51Z</time></trkpt><trkpt lat="43.44242184867858" lon="12.6309811445241"><ele>404.0</ele><time>2026-04-19T14:14:52Z</time></trkpt><trkpt lat="43.44244747976738" lon="12.63117450749923"><ele>404.5</ele><time>2026-04-19T14:14:53Z</time></trkpt><trkpt lat="43.44247399197388" lon="12.631354955377539"><ele>405.0</ele><time>2026-04-19T14:14:54Z</time></trkpt><trkpt lat="43.442500704996405" lon="12.63152730386332"><ele>405.0</ele><time>2026-04-19T14:14:55Z</time></trkpt><trkpt lat="43.442509689501435" lon="12.631706772152809"><ele>405.0</ele><time>2026-04-19T14:14:56Z</time></trkpt><trkpt lat="43.44253217822929" lon="12.631875058033074"><ele>405.0</ele><time>2026-04-19T14:14:57Z</time></trkpt><trkpt lat="43.44255502786907" lon="12.632048381598269"><ele>405.0</ele><time>2026-04-19T14:14:58Z</time></trkpt><trkpt lat="43.44257680480522" lon="12.63221356823304"><ele>405.0</ele><time>2026-04-19T14:14:59Z</time></trkpt><trkpt lat="43.44259857126121" lon="12.63237867548007"><ele>405.0</ele><time>2026-04-19T14:15:00Z</time></trkpt><trkpt lat="43.44262975325924" lon="12.632538024014694"><ele>405.0</ele><time>2026-04-19T14:15:01Z</time></trkpt><trkpt lat="43.442633776558345" lon="12.632699361399608"><ele>405.0</ele><time>2026-04-19T14:15:02Z</time></trkpt><trkpt lat="43.442659258759264" lon="12.632845425947155"><ele>406.6</ele><time>2026-04-19T14:15:03Z</time></trkpt><trkpt lat="43.442663798533836" lon="12.63298362900233"><ele>408.2</ele><time>2026-04-19T14:15:04Z</time></trkpt><trkpt lat="43.44268308822443" lon="12.633111761987216"><ele>409.79999999999995</ele><time>2026-04-19T14:15:05Z</time></trkpt><trkpt lat="43.44271324776077" lon="12.633245980777374"><ele>411.4</ele><time>2026-04-19T14:15:06Z</time></trkpt><trkpt lat="43.44275112583126" lon="12.633389751419223"><ele>413.0</ele><time>2026-04-19T14:15:07Z</time></trkpt><trkpt lat="43.44280182945629" lon="12.633521430597"><ele>410.75</ele><time>2026-04-19T14:15:08Z</time></trkpt><trkpt lat="43.442874661224515" lon="12.633640890533497"><ele>408.5</ele><time>2026-04-19T14:15:09Z</time></trkpt><trkpt lat="43.4429625362892" lon="12.633752500788372"><ele>406.25</ele><time>2026-04-19T14:15:10Z</time></trkpt><trkpt lat="43.44306364396468" lon="12.633858618537198"><ele>404.0</ele><time>2026-04-19T14:15:11Z</time></trkpt><trkpt lat="43.44317185855075" lon="12.633960072745836"><ele>404.0</ele><time>2026-04-19T14:15:12Z</time></trkpt><trkpt lat="43.443289594019795" lon="12.634063228766653"><ele>404.0</ele><time>2026-04-19T14:15:12.999Z</time></trkpt><trkpt lat="43.44340597950683" lon="12.63415286952665"><ele>404.0</ele><time>2026-04-19T14:15:13.999Z</time></trkpt><trkpt lat="43.44353629622566" lon="12.634251070404115"><ele>404.0</ele><time>2026-04-19T14:15:14.999Z</time></trkpt><trkpt lat="43.44367688942097" lon="12.634324461391062"><ele>402.0</ele><time>2026-04-19T14:15:15.999Z</time></trkpt><trkpt lat="43.44383445009672" lon="12.63438593926214"><ele>400.0</ele><time>2026-04-19T14:15:16.999Z</time></trkpt><trkpt lat="43.44400515437456" lon="12.634434269876625"><ele>398.0</ele><time>2026-04-19T14:15:17.999Z</time></trkpt><trkpt lat="43.444186486504805" lon="12.634454943404414"><ele>398.0</ele><time>2026-04-19T14:15:18.999Z</time></trkpt><trkpt lat="43.44437735015148" lon="12.63445981112851"><ele>398.0</ele><time>2026-04-19T14:15:19.999Z</time></trkpt><trkpt lat="43.44456376014047" lon="12.634440294733668"><ele>398.0</ele><time>2026-04-19T14:15:20.999Z</time></trkpt><trkpt lat="43.44475054619398" lon="12.634397680051098"><ele>397.66666666666663</ele><time>2026-04-19T14:15:21.999Z</time></trkpt><trkpt lat="43.44493079969959" lon="12.63432846721974"><ele>397.33333333333337</ele><time>2026-04-19T14:15:22.999Z</time></trkpt><trkpt lat="43.445106243315095" lon="12.634232287669219"><ele>397.0</ele><time>2026-04-19T14:15:23.999Z</time></trkpt><trkpt lat="43.445280977351715" lon="12.63413275318559"><ele>397.0</ele><time>2026-04-19T14:15:24.999Z</time></trkpt><trkpt lat="43.44545447207757" lon="12.634023720337174"><ele>397.0</ele><time>2026-04-19T14:15:25.999Z</time></trkpt><trkpt lat="43.44563145741641" lon="12.63392921262247"><ele>397.0</ele><time>2026-04-19T14:15:26.999Z</time></trkpt><trkpt lat="43.4458158546437" lon="12.633901907412092"><ele>397.6666666666667</ele><time>2026-04-19T14:15:27.999Z</time></trkpt><trkpt lat="43.44600642118131" lon="12.6338499352485"><ele>398.33333333333337</ele><time>2026-04-19T14:15:28.999Z</time></trkpt><trkpt lat="43.44619159147367" lon="12.6338768872013"><ele>399.0</ele><time>2026-04-19T14:15:29.999Z</time></trkpt><trkpt lat="43.446380102776395" lon="12.63391098934645"><ele>399.0</ele><time>2026-04-19T14:15:30.999Z</time></trkpt><trkpt lat="43.446564471125996" lon="12.63395636483361"><ele>399.0</ele><time>2026-04-19T14:15:31.999Z</time></trkpt><trkpt lat="43.446753077157496" lon="12.634000852518106"><ele>399.0</ele><time>2026-04-19T14:15:32.999Z</time></trkpt><trkpt lat="43.44694307193965" lon="12.63406966550365"><ele>398.0</ele><time>2026-04-19T14:15:33.999Z</time></trkpt><trkpt lat="43.44713627263639" lon="12.634136351895984"><ele>397.0</ele><time>2026-04-19T14:15:34.999Z</time></trkpt><trkpt lat="43.4473364409537" lon="12.634197232863462"><ele>396.0</ele><time>2026-04-19T14:15:35.999Z</time></trkpt><trkpt lat="43.44753148978204" lon="12.634241321953676"><ele>396.0</ele><time>2026-04-19T14:15:36.999Z</time></trkpt><trkpt lat="43.4477258405503" lon="12.634261788398575"><ele>396.0</ele><time>2026-04-19T14:15:37.999Z</time></trkpt><trkpt lat="43.44791599259901" lon="12.634268201260548"><ele>396.0</ele><time>2026-04-19T14:15:38.999Z</time></trkpt><trkpt lat="43.44810788245088" lon="12.63426582137706"><ele>393.66666666666663</ele><time>2026-04-19T14:15:39.999Z</time></trkpt><trkpt lat="43.448298925144485" lon="12.634253239008274"><ele>391.3333333333333</ele><time>2026-04-19T14:15:40.999Z</time></trkpt><trkpt lat="43.44849175419308" lon="12.634231393030126"><ele>389.0</ele><time>2026-04-19T14:15:41.999Z</time></trkpt><trkpt lat="43.44868142975335" lon="12.634209378404956"><ele>388.3333333333333</ele><time>2026-04-19T14:15:42.999Z</time></trkpt><trkpt lat="43.44887338352571" lon="12.634212898195525"><ele>387.66666666666663</ele><time>2026-04-19T14:15:43.999Z</time></trkpt><trkpt lat="43.44906559477896" lon="12.634229381752645"><ele>387.0</ele><time>2026-04-19T14:15:44.999Z</time></trkpt><trkpt lat="43.44925938108486" lon="12.634250061421398"><ele>387.0</ele><time>2026-04-19T14:15:45.999Z</time></trkpt><trkpt lat="43.44945032936297" lon="12.634269931124084"><ele>387.0</ele><time>2026-04-19T14:15:46.999Z</time></trkpt><trkpt lat="43.44964457685471" lon="12.63428410566135"><ele>387.0</ele><time>2026-04-19T14:15:47.999Z</time></trkpt><trkpt lat="43.44984128313302" lon="12.634276330728515"><ele>386.66666666666663</ele><time>2026-04-19T14:15:48.999Z</time></trkpt><trkpt lat="43.45003759927294" lon="12.634246020355333"><ele>386.3333333333333</ele><time>2026-04-19T14:15:49.999Z</time></trkpt><trkpt lat="43.450237085399166" lon="12.634193179651596"><ele>386.0</ele><time>2026-04-19T14:15:50.999Z</time></trkpt><trkpt lat="43.45043761483969" lon="12.634134245843885"><ele>388.0</ele><time>2026-04-19T14:15:51.999Z</time></trkpt><trkpt lat="43.45063511773365" lon="12.634066118794134"><ele>390.0</ele><time>2026-04-19T14:15:52.999Z</time></trkpt><trkpt lat="43.45083440350356" lon="12.633989403799243"><ele>392.0</ele><time>2026-04-19T14:15:53.999Z</time></trkpt><trkpt lat="43.45103040178109" lon="12.633900638556783"><ele>392.0</ele><time>2026-04-19T14:15:54.999Z</time></trkpt><trkpt lat="43.4512227607843" lon="12.633796028608197"><ele>392.0</ele><time>2026-04-19T14:15:55.999Z</time></trkpt><trkpt lat="43.451414534034434" lon="12.63367376347023"><ele>392.0</ele><time>2026-04-19T14:15:56.999Z</time></trkpt><trkpt lat="43.45160600407134" lon="12.633547539463756"><ele>390.0</ele><time>2026-04-19T14:15:57.999Z</time></trkpt><trkpt lat="43.45179775154948" lon="12.633415514022804"><ele>388.0</ele><time>2026-04-19T14:15:58.999Z</time></trkpt><trkpt lat="43.45198557663324" lon="12.633276248536427"><ele>386.0</ele><time>2026-04-19T14:15:59.999Z</time></trkpt><trkpt lat="43.45217296902749" lon="12.633121196592713"><ele>386.0</ele><time>2026-04-19T14:16:00.999Z</time></trkpt><trkpt lat="43.45235711371239" lon="12.63295418026667"><ele>386.0</ele><time>2026-04-19T14:16:01.999Z</time></trkpt><trkpt lat="43.45253759752539" lon="12.632787076600309"><ele>386.0</ele><time>2026-04-19T14:16:02.999Z</time></trkpt><trkpt lat="43.45271325140117" lon="12.632614706220153"><ele>386.0</ele><time>2026-04-19T14:16:03.999Z</time></trkpt><trkpt lat="43.452881792095404" lon="12.63243778822315"><ele>386.0</ele><time>2026-04-19T14:16:04.999Z</time></trkpt><trkpt lat="43.453048086680944" lon="12.632251747466714"><ele>386.0</ele><time>2026-04-19T14:16:05.999Z</time></trkpt><trkpt lat="43.453210850013654" lon="12.632064415944392"><ele>385.66666666666663</ele><time>2026-04-19T14:16:06.999Z</time></trkpt><trkpt lat="43.45337304518844" lon="12.631877275129046"><ele>385.33333333333337</ele><time>2026-04-19T14:16:07.999Z</time></trkpt><trkpt lat="43.45353499571738" lon="12.631694730101554"><ele>385.0</ele><time>2026-04-19T14:16:08.999Z</time></trkpt><trkpt lat="43.453695790185215" lon="12.631511820528958"><ele>383.6666666666667</ele><time>2026-04-19T14:16:09.999Z</time></trkpt><trkpt lat="43.45385512451947" lon="12.631328920602375"><ele>382.33333333333337</ele><time>2026-04-19T14:16:10.999Z</time></trkpt><trkpt lat="43.45401493516743" lon="12.631140109497181"><ele>381.0</ele><time>2026-04-19T14:16:11.999Z</time></trkpt><trkpt lat="43.45417692033607" lon="12.630949833219814"><ele>381.0</ele><time>2026-04-19T14:16:12.999Z</time></trkpt><trkpt lat="43.4543395973959" lon="12.630763705259994"><ele>381.0</ele><time>2026-04-19T14:16:13.999Z</time></trkpt><trkpt lat="43.454504186550345" lon="12.630575716630624"><ele>381.0</ele><time>2026-04-19T14:16:14.999Z</time></trkpt><trkpt lat="43.45467088365209" lon="12.630391676757108"><ele>380.3333333333333</ele><time>2026-04-19T14:16:15.999Z</time></trkpt><trkpt lat="43.45483778796164" lon="12.630207504119875"><ele>379.66666666666663</ele><time>2026-04-19T14:16:16.999Z</time></trkpt><trkpt lat="43.455008085802035" lon="12.63002604766734"><ele>379.0</ele><time>2026-04-19T14:16:17.999Z</time></trkpt><trkpt lat="43.455181367715554" lon="12.62984724175067"><ele>379.0</ele><time>2026-04-19T14:16:18.999Z</time></trkpt><trkpt lat="43.4553592636771" lon="12.629667868904086"><ele>379.0</ele><time>2026-04-19T14:16:19.999Z</time></trkpt><trkpt lat="43.45554251363126" lon="12.629492178820835"><ele>379.0</ele><time>2026-04-19T14:16:20.999Z</time></trkpt><trkpt lat="43.45573063261939" lon="12.629319692685641"><ele>379.5</ele><time>2026-04-19T14:16:21.999Z</time></trkpt><trkpt lat="43.45592296489041" lon="12.629156222444799"><ele>380.0</ele><time>2026-04-19T14:16:22.999Z</time></trkpt><trkpt lat="43.456120003251556" lon="12.629003495822595"><ele>382.0</ele><time>2026-04-19T14:16:23.999Z</time></trkpt><trkpt lat="43.45632291237206" lon="12.62886398805014"><ele>384.0</ele><time>2026-04-19T14:16:24.999Z</time></trkpt><trkpt lat="43.456532310359265" lon="12.628725088401668"><ele>386.0</ele><time>2026-04-19T14:16:26Z</time></trkpt><trkpt lat="43.456746132216566" lon="12.628588794934565"><ele>388.0</ele><time>2026-04-19T14:16:27Z</time></trkpt><trkpt lat="43.45696524684928" lon="12.628463279551779"><ele>385.0</ele><time>2026-04-19T14:16:28Z</time></trkpt><trkpt lat="43.45718749621325" lon="12.62834951387039"><ele>382.0</ele><time>2026-04-19T14:16:29Z</time></trkpt><trkpt lat="43.45741583603012" lon="12.628245606150916"><ele>382.0</ele><time>2026-04-19T14:16:30Z</time></trkpt><trkpt lat="43.45765026851368" lon="12.628151514412442"><ele>382.0</ele><time>2026-04-19T14:16:31Z</time></trkpt><trkpt lat="43.45788794411681" lon="12.628066635587869"><ele>380.5</ele><time>2026-04-19T14:16:32Z</time></trkpt><trkpt lat="43.45812741612444" lon="12.62799384201789"><ele>379.0</ele><time>2026-04-19T14:16:33Z</time></trkpt><trkpt lat="43.458371042715555" lon="12.627933187630452"><ele>379.0</ele><time>2026-04-19T14:16:34Z</time></trkpt><trkpt lat="43.45862088429557" lon="12.627881773258755"><ele>379.0</ele><time>2026-04-19T14:16:35Z</time></trkpt><trkpt lat="43.45887117664042" lon="12.627842262921375"><ele>378.5</ele><time>2026-04-19T14:16:36Z</time></trkpt><trkpt lat="43.45912278180617" lon="12.627813033947543"><ele>378.0</ele><time>2026-04-19T14:16:37Z</time></trkpt><trkpt lat="43.459373162872964" lon="12.62779739029565"><ele>376.0</ele><time>2026-04-19T14:16:38Z</time></trkpt><trkpt lat="43.45962081417189" lon="12.627794632713186"><ele>374.0</ele><time>2026-04-19T14:16:39Z</time></trkpt><trkpt lat="43.45986668969557" lon="12.627803983096406"><ele>377.5</ele><time>2026-04-19T14:16:40Z</time></trkpt><trkpt lat="43.4601133895457" lon="12.627823251914766"><ele>381.0</ele><time>2026-04-19T14:16:41Z</time></trkpt><trkpt lat="43.46035898914162" lon="12.627850354335811"><ele>379.0</ele><time>2026-04-19T14:16:42Z</time></trkpt><trkpt lat="43.46060255921815" lon="12.627887282917285"><ele>377.0</ele><time>2026-04-19T14:16:43Z</time></trkpt><trkpt lat="43.460844590983484" lon="12.62792670095167"><ele>377.0</ele><time>2026-04-19T14:16:44Z</time></trkpt><trkpt lat="43.46108555313174" lon="12.627968727104802"><ele>377.0</ele><time>2026-04-19T14:16:45Z</time></trkpt><trkpt lat="43.46132575060253" lon="12.628013209976812"><ele>378.0</ele><time>2026-04-19T14:16:46Z</time></trkpt><trkpt lat="43.4615643666372" lon="12.628059973039274"><ele>379.0</ele><time>2026-04-19T14:16:47Z</time></trkpt><trkpt lat="43.461800879614394" lon="12.628104081353177"><ele>379.0</ele><time>2026-04-19T14:16:48Z</time></trkpt><trkpt lat="43.462045910045184" lon="12.628147372007057"><ele>379.0</ele><time>2026-04-19T14:16:49Z</time></trkpt><trkpt lat="43.462275557820064" lon="12.628188556218081"><ele>381.0</ele><time>2026-04-19T14:16:50Z</time></trkpt><trkpt lat="43.4625036849429" lon="12.628220281212517"><ele>383.0</ele><time>2026-04-19T14:16:51Z</time></trkpt><trkpt lat="43.46273076934811" lon="12.628244321987708"><ele>381.0</ele><time>2026-04-19T14:16:52Z</time></trkpt><trkpt lat="43.46295053157372" lon="12.628257914322665"><ele>379.0</ele><time>2026-04-19T14:16:53Z</time></trkpt><trkpt lat="43.463174306007545" lon="12.628268783434029"><ele>377.0</ele><time>2026-04-19T14:16:54Z</time></trkpt><trkpt lat="43.46339356153096" lon="12.628275941199421"><ele>377.0</ele><time>2026-04-19T14:16:55Z</time></trkpt><trkpt lat="43.46361167880989" lon="12.62828057115736"><ele>377.0</ele><time>2026-04-19T14:16:56Z</time></trkpt><trkpt lat="43.463830027388184" lon="12.628280438697095"><ele>377.0</ele><time>2026-04-19T14:16:57Z</time></trkpt><trkpt lat="43.46404817850009" lon="12.628272496434914"><ele>375.0</ele><time>2026-04-19T14:16:58Z</time></trkpt><trkpt lat="43.46426221752207" lon="12.628256910186211"><ele>373.0</ele><time>2026-04-19T14:16:59Z</time></trkpt><trkpt lat="43.46448596712409" lon="12.628235066233273"><ele>371.0</ele><time>2026-04-19T14:17:00Z</time></trkpt><trkpt lat="43.46470747558829" lon="12.628198781124816"><ele>370.6666666666667</ele><time>2026-04-19T14:17:01Z</time></trkpt><trkpt lat="43.46492872664753" lon="12.6281562455048"><ele>370.3333333333333</ele><time>2026-04-19T14:17:02Z</time></trkpt><trkpt lat="43.46514862692183" lon="12.628110644458703"><ele>370.0</ele><time>2026-04-19T14:17:03Z</time></trkpt><trkpt lat="43.465375575058275" lon="12.628057027101441"><ele>370.5</ele><time>2026-04-19T14:17:04Z</time></trkpt><trkpt lat="43.46559934515952" lon="12.627997037774486"><ele>371.0</ele><time>2026-04-19T14:17:05Z</time></trkpt><trkpt lat="43.465819636976256" lon="12.627919805046385"><ele>371.0</ele><time>2026-04-19T14:17:06Z</time></trkpt><trkpt lat="43.4660361902126" lon="12.627828669316896"><ele>371.0</ele><time>2026-04-19T14:17:07Z</time></trkpt><trkpt lat="43.46625468426208" lon="12.627729699151097"><ele>374.6666666666667</ele><time>2026-04-19T14:17:08Z</time></trkpt><trkpt lat="43.46646960205674" lon="12.627635726356269"><ele>378.3333333333333</ele><time>2026-04-19T14:17:09Z</time></trkpt><trkpt lat="43.46668155574776" lon="12.627545350746422"><ele>382.0</ele><time>2026-04-19T14:17:10Z</time></trkpt><trkpt lat="43.46689211346422" lon="12.627449110814249"><ele>382.0</ele><time>2026-04-19T14:17:11Z</time></trkpt><trkpt lat="43.467093848347766" lon="12.627344049063941"><ele>382.0</ele><time>2026-04-19T14:17:12Z</time></trkpt><trkpt lat="43.46728435583865" lon="12.627240205235251"><ele>382.0</ele><time>2026-04-19T14:17:13Z</time></trkpt><trkpt lat="43.46747405575996" lon="12.627129977642259"><ele>384.0</ele><time>2026-04-19T14:17:14Z</time></trkpt><trkpt lat="43.46765499180194" lon="12.627027826074269"><ele>386.0</ele><time>2026-04-19T14:17:15Z</time></trkpt><trkpt lat="43.46783628974264" lon="12.626915277333762"><ele>388.0</ele><time>2026-04-19T14:17:16Z</time></trkpt><trkpt lat="43.4680146649911" lon="12.626809742496938"><ele>391.0</ele><time>2026-04-19T14:17:16.999Z</time></trkpt><trkpt lat="43.46819820310898" lon="12.626710605811494"><ele>394.0</ele><time>2026-04-19T14:17:17.999Z</time></trkpt><trkpt lat="43.46838238320606" lon="12.626613767431891"><ele>397.0</ele><time>2026-04-19T14:17:18.999Z</time></trkpt><trkpt lat="43.46856804183153" lon="12.626514210928734"><ele>397.0</ele><time>2026-04-19T14:17:19.999Z</time></trkpt><trkpt lat="43.46875475715301" lon="12.626413858339491"><ele>397.0</ele><time>2026-04-19T14:17:20.999Z</time></trkpt><trkpt lat="43.4689583321589" lon="12.626296472874195"><ele>397.0</ele><time>2026-04-19T14:17:22.071Z</time></trkpt><trkpt lat="43.469138708117775" lon="12.626213092428854"><ele>366.0</ele><time>2026-04-19T14:17:23.062Z</time></trkpt><trkpt lat="43.472232478981745" lon="12.62427392444016"><ele>366.0</ele><time>2026-04-19T14:17:35.999Z</time></trkpt><trkpt lat="43.47250047936331" lon="12.62422004628264"><ele>366.0</ele><time>2026-04-19T14:17:36.999Z</time></trkpt><trkpt lat="43.47273177638545" lon="12.624173069843641"><ele>366.3333333333333</ele><time>2026-04-19T14:17:37.999Z</time></trkpt><trkpt lat="43.47294584725032" lon="12.624146257172043"><ele>366.66666666666663</ele><time>2026-04-19T14:17:38.999Z</time></trkpt><trkpt lat="43.47316856048658" lon="12.624128896742173"><ele>367.0</ele><time>2026-04-19T14:17:39.999Z</time></trkpt><trkpt lat="43.47338751367246" lon="12.62412827826351"><ele>367.0</ele><time>2026-04-19T14:17:40.999Z</time></trkpt><trkpt lat="43.473606419266446" lon="12.624142020886804"><ele>367.0</ele><time>2026-04-19T14:17:41.999Z</time></trkpt><trkpt lat="43.47382297670111" lon="12.624168696702284"><ele>367.0</ele><time>2026-04-19T14:17:42.999Z</time></trkpt><trkpt lat="43.47404998914649" lon="12.62419464139295"><ele>368.3333333333333</ele><time>2026-04-19T14:17:43.999Z</time></trkpt><trkpt lat="43.47427040726151" lon="12.62423378277865"><ele>369.6666666666667</ele><time>2026-04-19T14:17:44.999Z</time></trkpt><trkpt lat="43.47446006216271" lon="12.62428654644457"><ele>371.0</ele><time>2026-04-19T14:17:45.999Z</time></trkpt><trkpt lat="43.474667162718" lon="12.624334013662894"><ele>371.0</ele><time>2026-04-19T14:17:46.999Z</time></trkpt><trkpt lat="43.47487412876944" lon="12.62438248408853"><ele>371.0</ele><time>2026-04-19T14:17:47.999Z</time></trkpt><trkpt lat="43.475083650614685" lon="12.624436137747809"><ele>371.0</ele><time>2026-04-19T14:17:48.999Z</time></trkpt><trkpt lat="43.475376849492065" lon="12.624462654155824"><ele>365.5</ele><time>2026-04-19T14:17:49.999Z</time></trkpt><trkpt lat="43.47563788977901" lon="12.624417498441549"><ele>360.0</ele><time>2026-04-19T14:17:50.999Z</time></trkpt><trkpt lat="43.4758698074133" lon="12.624363941593192"><ele>360.0</ele><time>2026-04-19T14:17:51.999Z</time></trkpt><trkpt lat="43.476084674171766" lon="12.624296400058197"><ele>360.0</ele><time>2026-04-19T14:17:52.999Z</time></trkpt><trkpt lat="43.47630642621428" lon="12.624214306937626"><ele>357.5</ele><time>2026-04-19T14:17:53.999Z</time></trkpt><trkpt lat="43.47652408810158" lon="12.62411643399453"><ele>355.0</ele><time>2026-04-19T14:17:54.999Z</time></trkpt><trkpt lat="43.47674155959668" lon="12.623997912270735"><ele>355.0</ele><time>2026-04-19T14:17:55.999Z</time></trkpt><trkpt lat="43.47695436885318" lon="12.623867502875097"><ele>355.0</ele><time>2026-04-19T14:17:56.999Z</time></trkpt><trkpt lat="43.47716122892821" lon="12.623720942359645"><ele>355.0</ele><time>2026-04-19T14:17:57.999Z</time></trkpt><trkpt lat="43.477364643673745" lon="12.623560588389225"><ele>355.0</ele><time>2026-04-19T14:17:58.999Z</time></trkpt><trkpt lat="43.4775676096988" lon="12.62339369494252"><ele>355.0</ele><time>2026-04-19T14:17:59.999Z</time></trkpt><trkpt lat="43.47777650683326" lon="12.623220171388212"><ele>355.0</ele><time>2026-04-19T14:18:00.999Z</time></trkpt><trkpt lat="43.47798752867693" lon="12.623044195799425"><ele>354.0</ele><time>2026-04-19T14:18:01.999Z</time></trkpt><trkpt lat="43.478202270739" lon="12.622873049707032"><ele>353.0</ele><time>2026-04-19T14:18:02.999Z</time></trkpt><trkpt lat="43.4784231575074" lon="12.622700058864641"><ele>353.0</ele><time>2026-04-19T14:18:03.999Z</time></trkpt><trkpt lat="43.478643929030206" lon="12.622528137530796"><ele>353.0</ele><time>2026-04-19T14:18:04.999Z</time></trkpt><trkpt lat="43.47886808083282" lon="12.622355927465874"><ele>352.5</ele><time>2026-04-19T14:18:05.999Z</time></trkpt><trkpt lat="43.47909311214678" lon="12.62218984306288"><ele>352.0</ele><time>2026-04-19T14:18:06.999Z</time></trkpt><trkpt lat="43.47931757708041" lon="12.622028099920879"><ele>351.0</ele><time>2026-04-19T14:18:07.999Z</time></trkpt><trkpt lat="43.47954406366408" lon="12.621876398828672"><ele>350.0</ele><time>2026-04-19T14:18:08.999Z</time></trkpt><trkpt lat="43.47977398190028" lon="12.621736799818779"><ele>350.0</ele><time>2026-04-19T14:18:09.999Z</time></trkpt><trkpt lat="43.48000661423921" lon="12.621602643025414"><ele>350.0</ele><time>2026-04-19T14:18:10.999Z</time></trkpt><trkpt lat="43.48023779366121" lon="12.621476952229"><ele>349.0</ele><time>2026-04-19T14:18:11.999Z</time></trkpt><trkpt lat="43.4804730713814" lon="12.621362732905745"><ele>348.0</ele><time>2026-04-19T14:18:12.999Z</time></trkpt><trkpt lat="43.48070707723845" lon="12.62125618276751"><ele>348.0</ele><time>2026-04-19T14:18:13.999Z</time></trkpt><trkpt lat="43.48094544372287" lon="12.6211580854702"><ele>348.0</ele><time>2026-04-19T14:18:14.999Z</time></trkpt><trkpt lat="43.48118280469225" lon="12.621069294105357"><ele>350.0</ele><time>2026-04-19T14:18:15.999Z</time></trkpt><trkpt lat="43.4814216404907" lon="12.620987882866212"><ele>352.0</ele><time>2026-04-19T14:18:16.999Z</time></trkpt><trkpt lat="43.48165994507615" lon="12.620910895246253"><ele>352.0</ele><time>2026-04-19T14:18:17.999Z</time></trkpt><trkpt lat="43.481901591708294" lon="12.620838238087787"><ele>352.0</ele><time>2026-04-19T14:18:18.999Z</time></trkpt><trkpt lat="43.482143927393444" lon="12.620770915014651"><ele>351.5</ele><time>2026-04-19T14:18:19.999Z</time></trkpt><trkpt lat="43.482388563946294" lon="12.62070424975431"><ele>351.0</ele><time>2026-04-19T14:18:20.999Z</time></trkpt><trkpt lat="43.48263700264009" lon="12.620638334299018"><ele>351.0</ele><time>2026-04-19T14:18:21.999Z</time></trkpt><trkpt lat="43.48286996139851" lon="12.62057579664404"><ele>351.0</ele><time>2026-04-19T14:18:22.999Z</time></trkpt><trkpt lat="43.48311494287486" lon="12.620512154177751"><ele>349.5</ele><time>2026-04-19T14:18:23.999Z</time></trkpt><trkpt lat="43.48335739135563" lon="12.620456484900908"><ele>348.0</ele><time>2026-04-19T14:18:24.999Z</time></trkpt><trkpt lat="43.483601090404406" lon="12.620394025998927"><ele>345.5</ele><time>2026-04-19T14:18:25.999Z</time></trkpt><trkpt lat="43.483839770388336" lon="12.620328055430301"><ele>343.0</ele><time>2026-04-19T14:18:26.999Z</time></trkpt><trkpt lat="43.48407847990483" lon="12.620266880506508"><ele>343.0</ele><time>2026-04-19T14:18:27.999Z</time></trkpt><trkpt lat="43.48431562773359" lon="12.620218077033433"><ele>343.0</ele><time>2026-04-19T14:18:28.999Z</time></trkpt><trkpt lat="43.484554302005" lon="12.620180159650303"><ele>342.5</ele><time>2026-04-19T14:18:29.999Z</time></trkpt><trkpt lat="43.484793302478025" lon="12.62014217904144"><ele>342.0</ele><time>2026-04-19T14:18:31Z</time></trkpt><trkpt lat="43.48502509244767" lon="12.620107417425267"><ele>342.0</ele><time>2026-04-19T14:18:32Z</time></trkpt><trkpt lat="43.48526264219076" lon="12.620082251940435"><ele>342.0</ele><time>2026-04-19T14:18:33Z</time></trkpt><trkpt lat="43.4854994518283" lon="12.62006487498034"><ele>342.0</ele><time>2026-04-19T14:18:34Z</time></trkpt><trkpt lat="43.485735243713606" lon="12.620058264286435"><ele>342.0</ele><time>2026-04-19T14:18:35Z</time></trkpt><trkpt lat="43.485972916705755" lon="12.620056478184702"><ele>342.0</ele><time>2026-04-19T14:18:36Z</time></trkpt><trkpt lat="43.48621093264588" lon="12.620065638963013"><ele>342.0</ele><time>2026-04-19T14:18:37Z</time></trkpt><trkpt lat="43.486451262886426" lon="12.620083356954488"><ele>342.5</ele><time>2026-04-19T14:18:38Z</time></trkpt><trkpt lat="43.48668708913816" lon="12.620117389104294"><ele>343.0</ele><time>2026-04-19T14:18:39Z</time></trkpt><trkpt lat="43.48691965863011" lon="12.620169302045534"><ele>342.0</ele><time>2026-04-19T14:18:40Z</time></trkpt><trkpt lat="43.48715435925045" lon="12.620224306200873"><ele>341.0</ele><time>2026-04-19T14:18:41Z</time></trkpt><trkpt lat="43.4873844037365" lon="12.620288700967876"><ele>340.0</ele><time>2026-04-19T14:18:42Z</time></trkpt><trkpt lat="43.48760546396543" lon="12.620365784151371"><ele>339.0</ele><time>2026-04-19T14:18:43Z</time></trkpt><trkpt lat="43.48781989213558" lon="12.62046628073783"><ele>339.6666666666667</ele><time>2026-04-19T14:18:44Z</time></trkpt><trkpt lat="43.48801999436965" lon="12.620568430710213"><ele>340.33333333333337</ele><time>2026-04-19T14:18:45Z</time></trkpt><trkpt lat="43.48820472790959" lon="12.620693590560847"><ele>341.0</ele><time>2026-04-19T14:18:46Z</time></trkpt><trkpt lat="43.48840164490057" lon="12.620811874080488"><ele>341.0</ele><time>2026-04-19T14:18:47Z</time></trkpt><trkpt lat="43.4885929542299" lon="12.62094667825461"><ele>341.0</ele><time>2026-04-19T14:18:48Z</time></trkpt><trkpt lat="43.488780498069154" lon="12.621097633635264"><ele>341.0</ele><time>2026-04-19T14:18:49Z</time></trkpt><trkpt lat="43.48896385164173" lon="12.621260684484211"><ele>346.33333333333337</ele><time>2026-04-19T14:18:50Z</time></trkpt><trkpt lat="43.48914682222082" lon="12.621432788733388"><ele>351.6666666666667</ele><time>2026-04-19T14:18:51Z</time></trkpt><trkpt lat="43.489328678058946" lon="12.62161470927412"><ele>357.0</ele><time>2026-04-19T14:18:52Z</time></trkpt><trkpt lat="43.48950296806599" lon="12.621794794138053"><ele>358.3333333333333</ele><time>2026-04-19T14:18:53Z</time></trkpt><trkpt lat="43.48967497962996" lon="12.621971392915896"><ele>359.66666666666663</ele><time>2026-04-19T14:18:54Z</time></trkpt><trkpt lat="43.48985016575641" lon="12.622143658776185"><ele>361.0</ele><time>2026-04-19T14:18:55Z</time></trkpt><trkpt lat="43.49002318473025" lon="12.622304206591854"><ele>361.0</ele><time>2026-04-19T14:18:56Z</time></trkpt><trkpt lat="43.49020670474603" lon="12.62245659294203"><ele>361.0</ele><time>2026-04-19T14:18:57Z</time></trkpt><trkpt lat="43.490393096673806" lon="12.62259442680525"><ele>361.0</ele><time>2026-04-19T14:18:58Z</time></trkpt><trkpt lat="43.49058937896584" lon="12.622714925740949"><ele>356.0</ele><time>2026-04-19T14:18:59Z</time></trkpt><trkpt lat="43.49079453508597" lon="12.62281027457515"><ele>351.0</ele><time>2026-04-19T14:19:00Z</time></trkpt><trkpt lat="43.49100468827089" lon="12.62288278614745"><ele>346.0</ele><time>2026-04-19T14:19:01Z</time></trkpt><trkpt lat="43.491223869855055" lon="12.622938390309251"><ele>356.0</ele><time>2026-04-19T14:19:02Z</time></trkpt><trkpt lat="43.49144989653843" lon="12.622982373928599"><ele>366.0</ele><time>2026-04-19T14:19:03Z</time></trkpt><trkpt lat="43.49167135403769" lon="12.623018210670121"><ele>366.0</ele><time>2026-04-19T14:19:04Z</time></trkpt><trkpt lat="43.49187930766668" lon="12.623056786651318"><ele>366.0</ele><time>2026-04-19T14:19:05Z</time></trkpt><trkpt lat="43.49208570256402" lon="12.623102593531367"><ele>366.0</ele><time>2026-04-19T14:19:06Z</time></trkpt><trkpt lat="43.492295753918285" lon="12.623161134544409"><ele>364.0</ele><time>2026-04-19T14:19:07Z</time></trkpt><trkpt lat="43.49250420304701" lon="12.623234859359401"><ele>362.0</ele><time>2026-04-19T14:19:08Z</time></trkpt><trkpt lat="43.49271506810288" lon="12.62332142597055"><ele>360.0</ele><time>2026-04-19T14:19:08.999Z</time></trkpt><trkpt lat="43.492923819682595" lon="12.62343106845651"><ele>354.5</ele><time>2026-04-19T14:19:09.999Z</time></trkpt><trkpt lat="43.493125353749235" lon="12.623562748247062"><ele>349.0</ele><time>2026-04-19T14:19:10.999Z</time></trkpt><trkpt lat="43.493326271526776" lon="12.623723192568072"><ele>362.0</ele><time>2026-04-19T14:19:11.999Z</time></trkpt><trkpt lat="43.493516427002405" lon="12.623896429668681"><ele>375.0</ele><time>2026-04-19T14:19:12.999Z</time></trkpt><trkpt lat="43.493694692641036" lon="12.62409089051458"><ele>367.0</ele><time>2026-04-19T14:19:13.999Z</time></trkpt><trkpt lat="43.493858784581036" lon="12.624303143472549"><ele>359.0</ele><time>2026-04-19T14:19:14.999Z</time></trkpt><trkpt lat="43.49401189506545" lon="12.624524313127765"><ele>351.0</ele><time>2026-04-19T14:19:15.999Z</time></trkpt><trkpt lat="43.4941609872033" lon="12.62475381265049"><ele>350.0</ele><time>2026-04-19T14:19:16.999Z</time></trkpt><trkpt lat="43.49430636402193" lon="12.624995519828508"><ele>349.0</ele><time>2026-04-19T14:19:17.999Z</time></trkpt><trkpt lat="43.494446133546376" lon="12.62524446815376"><ele>348.0</ele><time>2026-04-19T14:19:18.999Z</time></trkpt><trkpt lat="43.49458761296385" lon="12.625495543235088"><ele>347.0</ele><time>2026-04-19T14:19:19.999Z</time></trkpt><trkpt lat="43.49472967088298" lon="12.625745479350858"><ele>347.0</ele><time>2026-04-19T14:19:20.999Z</time></trkpt><trkpt lat="43.494870659605574" lon="12.625998440425231"><ele>347.0</ele><time>2026-04-19T14:19:21.999Z</time></trkpt><trkpt lat="43.49501157274737" lon="12.62624442710438"><ele>347.0</ele><time>2026-04-19T14:19:22.999Z</time></trkpt><trkpt lat="43.49515302188837" lon="12.626485828901375"><ele>347.0</ele><time>2026-04-19T14:19:23.999Z</time></trkpt><trkpt lat="43.49529851294426" lon="12.62671447801447"><ele>347.0</ele><time>2026-04-19T14:19:24.999Z</time></trkpt><trkpt lat="43.495446058149646" lon="12.6269248547558"><ele>362.5</ele><time>2026-04-19T14:19:25.999Z</time></trkpt><trkpt lat="43.49560689060958" lon="12.627138771595794"><ele>378.0</ele><time>2026-04-19T14:19:26.999Z</time></trkpt><trkpt lat="43.495774791560954" lon="12.62736687605597"><ele>378.0</ele><time>2026-04-19T14:19:27.999Z</time></trkpt><trkpt lat="43.49593575998235" lon="12.627580413255886"><ele>378.0</ele><time>2026-04-19T14:19:28.999Z</time></trkpt><trkpt lat="43.496102002160264" lon="12.62779560759451"><ele>377.0</ele><time>2026-04-19T14:19:29.999Z</time></trkpt><trkpt lat="43.49626848567657" lon="12.628012046907063"><ele>376.0</ele><time>2026-04-19T14:19:30.999Z</time></trkpt><trkpt lat="43.49644455088469" lon="12.62820569348555"><ele>376.0</ele><time>2026-04-19T14:19:31.999Z</time></trkpt><trkpt lat="43.49662661681733" lon="12.628360426641072"><ele>376.0</ele><time>2026-04-19T14:19:32.999Z</time></trkpt><trkpt lat="43.49682845739315" lon="12.628526475484835"><ele>376.0</ele><time>2026-04-19T14:19:34.073Z</time></trkpt><trkpt lat="43.49701237490548" lon="12.628665420569279"><ele>364.0</ele><time>2026-04-19T14:19:35.062Z</time></trkpt><trkpt lat="43.497199621003645" lon="12.62879149558741"><ele>352.0</ele><time>2026-04-19T14:19:36.058Z</time></trkpt><trkpt lat="43.497327932827474" lon="12.628875262779365"><ele>340.0</ele><time>2026-04-19T14:19:36.999Z</time></trkpt><trkpt lat="43.497500914214086" lon="12.628984201272514"><ele>340.0</ele><time>2026-04-19T14:19:37.999Z</time></trkpt><trkpt lat="43.49770244907568" lon="12.629102722262004"><ele>340.0</ele><time>2026-04-19T14:19:38.999Z</time></trkpt><trkpt lat="43.4978834991397" lon="12.629199272606495"><ele>340.0</ele><time>2026-04-19T14:19:39.999Z</time></trkpt><trkpt lat="43.49821953620816" lon="12.629275555970661"><ele>342.0</ele><time>2026-04-19T14:19:40.999Z</time></trkpt><trkpt lat="43.49842035381301" lon="12.629366586276022"><ele>344.0</ele><time>2026-04-19T14:19:41.999Z</time></trkpt><trkpt lat="43.49862661272657" lon="12.629455704391956"><ele>346.0</ele><time>2026-04-19T14:19:42.999Z</time></trkpt><trkpt lat="43.4988194338462" lon="12.629562157987431"><ele>346.0</ele><time>2026-04-19T14:19:43.999Z</time></trkpt><trkpt lat="43.499008143531874" lon="12.629670926582163"><ele>346.0</ele><time>2026-04-19T14:19:44.999Z</time></trkpt><trkpt lat="43.49918888142212" lon="12.62979214617011"><ele>346.0</ele><time>2026-04-19T14:19:45.999Z</time></trkpt><trkpt lat="43.49936363094946" lon="12.629928639519413"><ele>346.0</ele><time>2026-04-19T14:19:46.999Z</time></trkpt><trkpt lat="43.49952976009796" lon="12.63007163295974"><ele>346.0</ele><time>2026-04-19T14:19:47.999Z</time></trkpt><trkpt lat="43.4996894344569" lon="12.630222717688953"><ele>346.0</ele><time>2026-04-19T14:19:48.999Z</time></trkpt><trkpt lat="43.49984854141614" lon="12.630388133354037"><ele>343.66666666666663</ele><time>2026-04-19T14:19:49.999Z</time></trkpt><trkpt lat="43.500014018656145" lon="12.630560454194251"><ele>341.3333333333333</ele><time>2026-04-19T14:19:50.999Z</time></trkpt><trkpt lat="43.500154360888445" lon="12.63077254954516"><ele>339.0</ele><time>2026-04-19T14:19:51.999Z</time></trkpt><trkpt lat="43.50030559511283" lon="12.630969720892615"><ele>337.6666666666667</ele><time>2026-04-19T14:19:52.999Z</time></trkpt><trkpt lat="43.50043568229372" lon="12.631198581808553"><ele>336.33333333333337</ele><time>2026-04-19T14:19:53.999Z</time></trkpt><trkpt lat="43.500562675701865" lon="12.631433595856052"><ele>335.0</ele><time>2026-04-19T14:19:54.999Z</time></trkpt><trkpt lat="43.50066526882971" lon="12.63169147144695"><ele>335.0</ele><time>2026-04-19T14:19:55.999Z</time></trkpt><trkpt lat="43.50077170863058" lon="12.6319406929942"><ele>335.0</ele><time>2026-04-19T14:19:56.999Z</time></trkpt><trkpt lat="43.500870852641924" lon="12.632184186142162"><ele>335.0</ele><time>2026-04-19T14:19:57.999Z</time></trkpt><trkpt lat="43.50097865377601" lon="12.632423205725976"><ele>333.6666666666667</ele><time>2026-04-19T14:19:58.999Z</time></trkpt><trkpt lat="43.50107127727835" lon="12.632675630559074"><ele>332.3333333333333</ele><time>2026-04-19T14:19:59.999Z</time></trkpt><trkpt lat="43.50116465645014" lon="12.63291720307873"><ele>331.0</ele><time>2026-04-19T14:20:00.999Z</time></trkpt><trkpt lat="43.50125762512732" lon="12.63314890749841"><ele>331.66666666666663</ele><time>2026-04-19T14:20:01.999Z</time></trkpt><trkpt lat="43.50135950908768" lon="12.633382936600048"><ele>332.3333333333333</ele><time>2026-04-19T14:20:02.999Z</time></trkpt><trkpt lat="43.50147303204787" lon="12.633606404593523"><ele>333.0</ele><time>2026-04-19T14:20:03.999Z</time></trkpt><trkpt lat="43.501588042648095" lon="12.633821862314758"><ele>333.0</ele><time>2026-04-19T14:20:04.999Z</time></trkpt><trkpt lat="43.501698795531105" lon="12.63401883064823"><ele>333.0</ele><time>2026-04-19T14:20:05.999Z</time></trkpt><trkpt lat="43.501812509407415" lon="12.634204248807835"><ele>333.0</ele><time>2026-04-19T14:20:06.999Z</time></trkpt><trkpt lat="43.501937980035024" lon="12.634386489018558"><ele>331.3333333333333</ele><time>2026-04-19T14:20:07.999Z</time></trkpt><trkpt lat="43.502073170459454" lon="12.634565267279953"><ele>329.66666666666663</ele><time>2026-04-19T14:20:08.999Z</time></trkpt><trkpt lat="43.5022213113322" lon="12.634737586332383"><ele>328.0</ele><time>2026-04-19T14:20:09.999Z</time></trkpt><trkpt lat="43.50237882492139" lon="12.634888626439121"><ele>328.0</ele><time>2026-04-19T14:20:10.999Z</time></trkpt><trkpt lat="43.50255105392885" lon="12.635028080728143"><ele>328.0</ele><time>2026-04-19T14:20:11.999Z</time></trkpt><trkpt lat="43.50272983628971" lon="12.635168534208402"><ele>328.0</ele><time>2026-04-19T14:20:12.999Z</time></trkpt><trkpt lat="43.50291996674434" lon="12.635312529949358"><ele>328.0</ele><time>2026-04-19T14:20:13.999Z</time></trkpt><trkpt lat="43.50312026704449" lon="12.63543514211402"><ele>328.0</ele><time>2026-04-19T14:20:14.999Z</time></trkpt><trkpt lat="43.503321900808864" lon="12.635543945789456"><ele>328.0</ele><time>2026-04-19T14:20:15.999Z</time></trkpt><trkpt lat="43.503528857796944" lon="12.635659402740972"><ele>326.5</ele><time>2026-04-19T14:20:16.999Z</time></trkpt><trkpt lat="43.50375991087132" lon="12.635713445758553"><ele>325.0</ele><time>2026-04-19T14:20:17.999Z</time></trkpt><trkpt lat="43.503991943899734" lon="12.635781456668363"><ele>325.0</ele><time>2026-04-19T14:20:18.999Z</time></trkpt><trkpt lat="43.50423176455326" lon="12.63584439452592"><ele>325.0</ele><time>2026-04-19T14:20:19.999Z</time></trkpt><trkpt lat="43.50447829199513" lon="12.635909063088727"><ele>324.0</ele><time>2026-04-19T14:20:20.999Z</time></trkpt><trkpt lat="43.50472766645315" lon="12.635974866162709"><ele>323.0</ele><time>2026-04-19T14:20:21.999Z</time></trkpt><trkpt lat="43.50497399703567" lon="12.636048561705739"><ele>323.0</ele><time>2026-04-19T14:20:22.999Z</time></trkpt><trkpt lat="43.50521792786643" lon="12.636122871090821"><ele>323.0</ele><time>2026-04-19T14:20:23.999Z</time></trkpt><trkpt lat="43.50546291031174" lon="12.63619084315787"><ele>325.5</ele><time>2026-04-19T14:20:24.999Z</time></trkpt><trkpt lat="43.50570699784226" lon="12.636256309126859"><ele>328.0</ele><time>2026-04-19T14:20:25.999Z</time></trkpt><trkpt lat="43.505947128489126" lon="12.636319665801658"><ele>328.0</ele><time>2026-04-19T14:20:26.999Z</time></trkpt><trkpt lat="43.50618496599774" lon="12.636390757925625"><ele>328.0</ele><time>2026-04-19T14:20:27.999Z</time></trkpt><trkpt lat="43.506419258755884" lon="12.636470195389142"><ele>324.5</ele><time>2026-04-19T14:20:28.999Z</time></trkpt><trkpt lat="43.506644049388996" lon="12.636561835287404"><ele>321.0</ele><time>2026-04-19T14:20:29.999Z</time></trkpt><trkpt lat="43.50687053226018" lon="12.636660262436695"><ele>325.0</ele><time>2026-04-19T14:20:30.999Z</time></trkpt><trkpt lat="43.50709140789583" lon="12.636764432655959"><ele>329.0</ele><time>2026-04-19T14:20:31.998Z</time></trkpt><trkpt lat="43.507311972923155" lon="12.636871323078877"><ele>323.5</ele><time>2026-04-19T14:20:32.998Z</time></trkpt><trkpt lat="43.50752793441473" lon="12.636987527180162"><ele>318.0</ele><time>2026-04-19T14:20:33.998Z</time></trkpt><trkpt lat="43.50774175868658" lon="12.637112126162556"><ele>320.0</ele><time>2026-04-19T14:20:34.998Z</time></trkpt><trkpt lat="43.5079536475282" lon="12.637244986665236"><ele>322.0</ele><time>2026-04-19T14:20:35.998Z</time></trkpt><trkpt lat="43.50816274745634" lon="12.637383082297754"><ele>322.0</ele><time>2026-04-19T14:20:37Z</time></trkpt><trkpt lat="43.50836781767032" lon="12.637523778770582"><ele>322.0</ele><time>2026-04-19T14:20:38Z</time></trkpt><trkpt lat="43.50856314758286" lon="12.637668674124276"><ele>320.66666666666663</ele><time>2026-04-19T14:20:39Z</time></trkpt><trkpt lat="43.50874935745138" lon="12.637811221624808"><ele>319.3333333333333</ele><time>2026-04-19T14:20:40Z</time></trkpt><trkpt lat="43.50893513644095" lon="12.637954017596991"><ele>318.0</ele><time>2026-04-19T14:20:41Z</time></trkpt><trkpt lat="43.50911255003119" lon="12.63809652910856"><ele>318.0</ele><time>2026-04-19T14:20:42Z</time></trkpt><trkpt lat="43.509286588895534" lon="12.63824381219446"><ele>318.0</ele><time>2026-04-19T14:20:43Z</time></trkpt><trkpt lat="43.50945205447751" lon="12.63839166560107"><ele>318.0</ele><time>2026-04-19T14:20:44Z</time></trkpt><trkpt lat="43.509614739374285" lon="12.63854038583519"><ele>317.0</ele><time>2026-04-19T14:20:45Z</time></trkpt><trkpt lat="43.50977540763282" lon="12.638690749721478"><ele>316.0</ele><time>2026-04-19T14:20:46Z</time></trkpt><trkpt lat="43.509933458923115" lon="12.638840543413506"><ele>315.0</ele><time>2026-04-19T14:20:47Z</time></trkpt><trkpt lat="43.51009401098399" lon="12.638993965460326"><ele>315.0</ele><time>2026-04-19T14:20:48Z</time></trkpt><trkpt lat="43.51024965972781" lon="12.639140086017763"><ele>315.0</ele><time>2026-04-19T14:20:49Z</time></trkpt><trkpt lat="43.51040727726" lon="12.639287695989283"><ele>315.0</ele><time>2026-04-19T14:20:50Z</time></trkpt><trkpt lat="43.51057085983894" lon="12.639424599425828"><ele>315.3333333333333</ele><time>2026-04-19T14:20:51Z</time></trkpt><trkpt lat="43.51073202542934" lon="12.639559258973598"><ele>315.66666666666663</ele><time>2026-04-19T14:20:52Z</time></trkpt><trkpt lat="43.51089141242913" lon="12.639690484477375"><ele>316.0</ele><time>2026-04-19T14:20:53Z</time></trkpt><trkpt lat="43.51105100018945" lon="12.639818453997995"><ele>316.0</ele><time>2026-04-19T14:20:54Z</time></trkpt><trkpt lat="43.51121326679661" lon="12.639947835910826"><ele>316.0</ele><time>2026-04-19T14:20:55Z</time></trkpt><trkpt lat="43.511385092834345" lon="12.64007121629184"><ele>316.0</ele><time>2026-04-19T14:20:56Z</time></trkpt><trkpt lat="43.51156696917219" lon="12.640185030373022"><ele>315.66666666666663</ele><time>2026-04-19T14:20:57Z</time></trkpt><trkpt lat="43.51175317809558" lon="12.640290391103791"><ele>315.3333333333333</ele><time>2026-04-19T14:20:58Z</time></trkpt><trkpt lat="43.511951518574364" lon="12.640388563097062"><ele>315.0</ele><time>2026-04-19T14:20:59Z</time></trkpt><trkpt lat="43.51215285789085" lon="12.640466257207088"><ele>323.0</ele><time>2026-04-19T14:21:00Z</time></trkpt><trkpt lat="43.51235851296498" lon="12.640530575945037"><ele>331.0</ele><time>2026-04-19T14:21:01Z</time></trkpt><trkpt lat="43.51256904316104" lon="12.640578661203246"><ele>339.0</ele><time>2026-04-19T14:21:02Z</time></trkpt><trkpt lat="43.512782319237786" lon="12.640608722411656"><ele>338.0</ele><time>2026-04-19T14:21:03Z</time></trkpt><trkpt lat="43.51299910080043" lon="12.640623625264437"><ele>337.0</ele><time>2026-04-19T14:21:04Z</time></trkpt><trkpt lat="43.51322041112977" lon="12.64062400406542"><ele>336.0</ele><time>2026-04-19T14:21:05Z</time></trkpt><trkpt lat="43.51344119950136" lon="12.64060405409969"><ele>336.0</ele><time>2026-04-19T14:21:06Z</time></trkpt><trkpt lat="43.5136555467288" lon="12.640566035198857"><ele>336.0</ele><time>2026-04-19T14:21:07Z</time></trkpt><trkpt lat="43.51386779517446" lon="12.640522499022943"><ele>336.0</ele><time>2026-04-19T14:21:08Z</time></trkpt><trkpt lat="43.51407870224761" lon="12.640485537778272"><ele>337.0</ele><time>2026-04-19T14:21:09Z</time></trkpt><trkpt lat="43.51428239676754" lon="12.640457320038607"><ele>338.0</ele><time>2026-04-19T14:21:10Z</time></trkpt><trkpt lat="43.51448783962302" lon="12.640420422439433"><ele>339.0</ele><time>2026-04-19T14:21:11Z</time></trkpt><trkpt lat="43.51472228392704" lon="12.640349602083235"><ele>333.0</ele><time>2026-04-19T14:21:12Z</time></trkpt><trkpt lat="43.51497402240396" lon="12.64026014373752"><ele>327.0</ele><time>2026-04-19T14:21:13Z</time></trkpt><trkpt lat="43.51522727106466" lon="12.640168936242945"><ele>324.5</ele><time>2026-04-19T14:21:14Z</time></trkpt><trkpt lat="43.51547413391962" lon="12.64008246631628"><ele>322.0</ele><time>2026-04-19T14:21:15Z</time></trkpt><trkpt lat="43.51572457234834" lon="12.639992926419442"><ele>322.0</ele><time>2026-04-19T14:21:16Z</time></trkpt><trkpt lat="43.51599959749722" lon="12.639890746113347"><ele>322.0</ele><time>2026-04-19T14:21:17.07Z</time></trkpt><trkpt lat="43.51625586133643" lon="12.63979590723451"><ele>304.0</ele><time>2026-04-19T14:21:18.06Z</time></trkpt><trkpt lat="43.516799130596304" lon="12.640194039890888"><ele>305.66666666666663</ele><time>2026-04-19T14:21:20.999Z</time></trkpt><trkpt lat="43.5168922679166" lon="12.640327185559855"><ele>307.3333333333333</ele><time>2026-04-19T14:21:21.999Z</time></trkpt><trkpt lat="43.51709507993064" lon="12.640306729649176"><ele>309.0</ele><time>2026-04-19T14:21:22.999Z</time></trkpt><trkpt lat="43.5173332342325" lon="12.64059851525208"><ele>309.0</ele><time>2026-04-19T14:21:23.999Z</time></trkpt><trkpt lat="43.51754187446374" lon="12.64068616605736"><ele>309.0</ele><time>2026-04-19T14:21:24.999Z</time></trkpt><trkpt lat="43.51774269212758" lon="12.64077551317115"><ele>309.0</ele><time>2026-04-19T14:21:25.999Z</time></trkpt><trkpt lat="43.517937303348944" lon="12.64086917433005"><ele>306.0</ele><time>2026-04-19T14:21:26.999Z</time></trkpt><trkpt lat="43.51812503940284" lon="12.640991017363545"><ele>303.0</ele><time>2026-04-19T14:21:27.999Z</time></trkpt><trkpt lat="43.51832224199746" lon="12.641112103444799"><ele>300.0</ele><time>2026-04-19T14:21:28.999Z</time></trkpt><trkpt lat="43.51853223998643" lon="12.641229063837768"><ele>303.5</ele><time>2026-04-19T14:21:29.999Z</time></trkpt><trkpt lat="43.518736143724375" lon="12.641372200430677"><ele>307.0</ele><time>2026-04-19T14:21:30.999Z</time></trkpt><trkpt lat="43.51894270593468" lon="12.641520664905856"><ele>307.0</ele><time>2026-04-19T14:21:31.999Z</time></trkpt><trkpt lat="43.51914809740965" lon="12.641669064535108"><ele>307.0</ele><time>2026-04-19T14:21:32.999Z</time></trkpt><trkpt lat="43.51935065554194" lon="12.641819915919793"><ele>305.0</ele><time>2026-04-19T14:21:33.999Z</time></trkpt><trkpt lat="43.51955038053465" lon="12.641977851186413"><ele>303.0</ele><time>2026-04-19T14:21:34.999Z</time></trkpt><trkpt lat="43.51974842128405" lon="12.642132996071235"><ele>303.0</ele><time>2026-04-19T14:21:35.999Z</time></trkpt><trkpt lat="43.51994352056358" lon="12.642286615608551"><ele>303.0</ele><time>2026-04-19T14:21:36.999Z</time></trkpt><trkpt lat="43.52014549942047" lon="12.64243398814471"><ele>303.0</ele><time>2026-04-19T14:21:37.999Z</time></trkpt><trkpt lat="43.52032629019847" lon="12.642571549860351"><ele>303.0</ele><time>2026-04-19T14:21:38.999Z</time></trkpt><trkpt lat="43.52052085157774" lon="12.64270981989475"><ele>303.0</ele><time>2026-04-19T14:21:39.999Z</time></trkpt><trkpt lat="43.520714386093516" lon="12.642843713200337"><ele>302.6666666666667</ele><time>2026-04-19T14:21:40.999Z</time></trkpt><trkpt lat="43.52091037898384" lon="12.642970323938817"><ele>302.33333333333337</ele><time>2026-04-19T14:21:41.999Z</time></trkpt><trkpt lat="43.52111474670137" lon="12.643081040345692"><ele>302.0</ele><time>2026-04-19T14:21:42.999Z</time></trkpt><trkpt lat="43.5213208158497" lon="12.64317049488012"><ele>302.0</ele><time>2026-04-19T14:21:43.999Z</time></trkpt><trkpt lat="43.52152709791236" lon="12.643238608528346"><ele>302.0</ele><time>2026-04-19T14:21:44.999Z</time></trkpt><trkpt lat="43.52173832781989" lon="12.643274907334321"><ele>302.0</ele><time>2026-04-19T14:21:45.999Z</time></trkpt><trkpt lat="43.52194952425513" lon="12.643312388979895"><ele>303.0</ele><time>2026-04-19T14:21:46.999Z</time></trkpt><trkpt lat="43.52216141506966" lon="12.643332832783265"><ele>304.0</ele><time>2026-04-19T14:21:47.999Z</time></trkpt><trkpt lat="43.522373927009326" lon="12.6433299881162"><ele>305.0</ele><time>2026-04-19T14:21:48.999Z</time></trkpt><trkpt lat="43.52258670774275" lon="12.643314487811246"><ele>305.0</ele><time>2026-04-19T14:21:49.999Z</time></trkpt><trkpt lat="43.522797401786754" lon="12.643286825193062"><ele>305.0</ele><time>2026-04-19T14:21:50.999Z</time></trkpt><trkpt lat="43.52300961903361" lon="12.643235703838931"><ele>305.0</ele><time>2026-04-19T14:21:51.999Z</time></trkpt><trkpt lat="43.52322104491507" lon="12.643171193745767"><ele>301.6666666666667</ele><time>2026-04-19T14:21:52.999Z</time></trkpt><trkpt lat="43.52343104960477" lon="12.643084192546333"><ele>298.3333333333333</ele><time>2026-04-19T14:21:53.999Z</time></trkpt><trkpt lat="43.523636934671366" lon="12.642983368003506"><ele>295.0</ele><time>2026-04-19T14:21:54.999Z</time></trkpt><trkpt lat="43.52383146296575" lon="12.64286711791592"><ele>299.66666666666663</ele><time>2026-04-19T14:21:55.999Z</time></trkpt><trkpt lat="43.524024329033544" lon="12.642733158330225"><ele>304.3333333333333</ele><time>2026-04-19T14:21:56.999Z</time></trkpt><trkpt lat="43.5242094426463" lon="12.64258751864531"><ele>309.0</ele><time>2026-04-19T14:21:57.999Z</time></trkpt><trkpt lat="43.524394875130994" lon="12.642432620400657"><ele>307.0</ele><time>2026-04-19T14:21:58.999Z</time></trkpt><trkpt lat="43.52457834739095" lon="12.642273824847578"><ele>305.0</ele><time>2026-04-19T14:21:59.999Z</time></trkpt><trkpt lat="43.52476166029994" lon="12.642122087846506"><ele>303.0</ele><time>2026-04-19T14:22:00.999Z</time></trkpt><trkpt lat="43.52493585451531" lon="12.641941386545549"><ele>303.0</ele><time>2026-04-19T14:22:01.999Z</time></trkpt><trkpt lat="43.52508451184061" lon="12.641754977924839"><ele>303.0</ele><time>2026-04-19T14:22:02.999Z</time></trkpt><trkpt lat="43.52524323287619" lon="12.641597484118108"><ele>303.0</ele><time>2026-04-19T14:22:03.999Z</time></trkpt><trkpt lat="43.52541070659478" lon="12.641447581440943"><ele>305.6666666666667</ele><time>2026-04-19T14:22:04.999Z</time></trkpt><trkpt lat="43.52557647463846" lon="12.641307358366461"><ele>308.33333333333337</ele><time>2026-04-19T14:22:05.999Z</time></trkpt><trkpt lat="43.52574861278438" lon="12.641184231223821"><ele>311.0</ele><time>2026-04-19T14:22:06.999Z</time></trkpt><trkpt lat="43.52593177744613" lon="12.641085152418063"><ele>311.0</ele><time>2026-04-19T14:22:07.999Z</time></trkpt><trkpt lat="43.52611354928439" lon="12.641008647429272"><ele>311.0</ele><time>2026-04-19T14:22:08.999Z</time></trkpt><trkpt lat="43.526300284510825" lon="12.640961881022504"><ele>311.0</ele><time>2026-04-19T14:22:09.999Z</time></trkpt><trkpt lat="43.52648450960034" lon="12.640919877433333"><ele>308.33333333333337</ele><time>2026-04-19T14:22:10.999Z</time></trkpt><trkpt lat="43.52667770739329" lon="12.640912842802178"><ele>305.6666666666667</ele><time>2026-04-19T14:22:11.999Z</time></trkpt><trkpt lat="43.526867581541865" lon="12.640931296372717"><ele>303.0</ele><time>2026-04-19T14:22:12.999Z</time></trkpt><trkpt lat="43.52705530058907" lon="12.640965173196932"><ele>306.0</ele><time>2026-04-19T14:22:13.999Z</time></trkpt><trkpt lat="43.52724234537127" lon="12.641016926276315"><ele>309.0</ele><time>2026-04-19T14:22:14.999Z</time></trkpt><trkpt lat="43.52742467243171" lon="12.641095580624427"><ele>312.0</ele><time>2026-04-19T14:22:15.999Z</time></trkpt><trkpt lat="43.5275982107181" lon="12.641201865008968"><ele>309.6666666666667</ele><time>2026-04-19T14:22:16.999Z</time></trkpt><trkpt lat="43.52776697989315" lon="12.641328988770773"><ele>307.33333333333337</ele><time>2026-04-19T14:22:17.999Z</time></trkpt><trkpt lat="43.5279324894995" lon="12.641464357635451"><ele>305.0</ele><time>2026-04-19T14:22:18.999Z</time></trkpt><trkpt lat="43.52809332124051" lon="12.641592079272439"><ele>305.0</ele><time>2026-04-19T14:22:19.999Z</time></trkpt><trkpt lat="43.528257664889544" lon="12.641716304123204"><ele>305.0</ele><time>2026-04-19T14:22:20.999Z</time></trkpt><trkpt lat="43.528422824975785" lon="12.641843375058176"><ele>305.0</ele><time>2026-04-19T14:22:21.999Z</time></trkpt><trkpt lat="43.528587789414715" lon="12.64197174629995"><ele>302.0</ele><time>2026-04-19T14:22:22.999Z</time></trkpt><trkpt lat="43.52875689532238" lon="12.64210103592052"><ele>299.0</ele><time>2026-04-19T14:22:23.999Z</time></trkpt><trkpt lat="43.52892189744897" lon="12.642239154538236"><ele>296.0</ele><time>2026-04-19T14:22:24.999Z</time></trkpt><trkpt lat="43.52908925317209" lon="12.64237537073262"><ele>296.0</ele><time>2026-04-19T14:22:25.999Z</time></trkpt><trkpt lat="43.52925571157965" lon="12.642506206056503"><ele>296.0</ele><time>2026-04-19T14:22:26.999Z</time></trkpt><trkpt lat="43.52941877782673" lon="12.642634574995522"><ele>296.0</ele><time>2026-04-19T14:22:27.999Z</time></trkpt><trkpt lat="43.52958569933966" lon="12.64276752396348"><ele>293.0</ele><time>2026-04-19T14:22:28.999Z</time></trkpt><trkpt lat="43.5297442515875" lon="12.642896883471764"><ele>290.0</ele><time>2026-04-19T14:22:29.999Z</time></trkpt><trkpt lat="43.529904656895276" lon="12.64303343700117"><ele>287.0</ele><time>2026-04-19T14:22:30.999Z</time></trkpt><trkpt lat="43.53006633130178" lon="12.643176520132634"><ele>287.0</ele><time>2026-04-19T14:22:31.999Z</time></trkpt><trkpt lat="43.53022644435574" lon="12.643320856609707"><ele>287.0</ele><time>2026-04-19T14:22:32.999Z</time></trkpt><trkpt lat="43.530385603835995" lon="12.643476594412206"><ele>287.0</ele><time>2026-04-19T14:22:33.999Z</time></trkpt><trkpt lat="43.53053961823991" lon="12.643626568772408"><ele>288.6666666666667</ele><time>2026-04-19T14:22:34.999Z</time></trkpt><trkpt lat="43.530692164069144" lon="12.643779562503171"><ele>290.3333333333333</ele><time>2026-04-19T14:22:35.999Z</time></trkpt><trkpt lat="43.530838352115694" lon="12.643940702257924"><ele>292.0</ele><time>2026-04-19T14:22:36.999Z</time></trkpt><trkpt lat="43.5309855913449" lon="12.644106473149405"><ele>292.0</ele><time>2026-04-19T14:22:37.999Z</time></trkpt><trkpt lat="43.53113399426387" lon="12.6442681417031"><ele>292.0</ele><time>2026-04-19T14:22:38.999Z</time></trkpt><trkpt lat="43.53127803417549" lon="12.644443525236444"><ele>292.0</ele><time>2026-04-19T14:22:39.999Z</time></trkpt><trkpt lat="43.53142195694838" lon="12.644617070893721"><ele>292.3333333333333</ele><time>2026-04-19T14:22:40.999Z</time></trkpt><trkpt lat="43.53156346452105" lon="12.644787797032363"><ele>292.6666666666667</ele><time>2026-04-19T14:22:41.999Z</time></trkpt><trkpt lat="43.53170586654388" lon="12.644956980534213"><ele>293.0</ele><time>2026-04-19T14:22:43Z</time></trkpt><trkpt lat="43.531855376924376" lon="12.645120588347346"><ele>293.0</ele><time>2026-04-19T14:22:44Z</time></trkpt><trkpt lat="43.53200158905692" lon="12.645286796438178"><ele>293.0</ele><time>2026-04-19T14:22:45Z</time></trkpt><trkpt lat="43.53214922253855" lon="12.645446954303157"><ele>293.0</ele><time>2026-04-19T14:22:46Z</time></trkpt><trkpt lat="43.53228872815235" lon="12.6456327772209"><ele>291.0</ele><time>2026-04-19T14:22:47Z</time></trkpt><trkpt lat="43.53245969639758" lon="12.645755044368427"><ele>289.0</ele><time>2026-04-19T14:22:48Z</time></trkpt><trkpt lat="43.53261858387728" lon="12.645893799371093"><ele>287.0</ele><time>2026-04-19T14:22:49Z</time></trkpt><trkpt lat="43.532771409445566" lon="12.646021830448445"><ele>283.33333333333337</ele><time>2026-04-19T14:22:50Z</time></trkpt><trkpt lat="43.53293214488954" lon="12.646144834991032"><ele>279.6666666666667</ele><time>2026-04-19T14:22:51Z</time></trkpt><trkpt lat="43.533097101527005" lon="12.646249247031408"><ele>276.0</ele><time>2026-04-19T14:22:52Z</time></trkpt><trkpt lat="43.533264593874364" lon="12.646339640290451"><ele>276.0</ele><time>2026-04-19T14:22:53Z</time></trkpt><trkpt lat="43.53343126001608" lon="12.646412050728681"><ele>276.0</ele><time>2026-04-19T14:22:54Z</time></trkpt><trkpt lat="43.53359810761545" lon="12.646488854762094"><ele>276.0</ele><time>2026-04-19T14:22:55Z</time></trkpt><trkpt lat="43.53376772796501" lon="12.64657525707962"><ele>276.3333333333333</ele><time>2026-04-19T14:22:56Z</time></trkpt><trkpt lat="43.53393536844045" lon="12.646641362541208"><ele>276.66666666666663</ele><time>2026-04-19T14:22:57Z</time></trkpt><trkpt lat="43.534099870905365" lon="12.646693960353929"><ele>277.0</ele><time>2026-04-19T14:22:58Z</time></trkpt><trkpt lat="43.53426560155242" lon="12.646729807736081"><ele>277.0</ele><time>2026-04-19T14:22:59Z</time></trkpt><trkpt lat="43.53442934944585" lon="12.646753651444895"><ele>277.0</ele><time>2026-04-19T14:23:00Z</time></trkpt><trkpt lat="43.53459581450629" lon="12.646774265422115"><ele>277.0</ele><time>2026-04-19T14:23:01Z</time></trkpt><trkpt lat="43.53476208712345" lon="12.646790474726679"><ele>277.66666666666663</ele><time>2026-04-19T14:23:02Z</time></trkpt><trkpt lat="43.53492360567656" lon="12.64679175852321"><ele>278.3333333333333</ele><time>2026-04-19T14:23:03Z</time></trkpt><trkpt lat="43.53508812234244" lon="12.646781071822046"><ele>279.0</ele><time>2026-04-19T14:23:04Z</time></trkpt><trkpt lat="43.535255215190276" lon="12.646764071323874"><ele>278.3333333333333</ele><time>2026-04-19T14:23:05Z</time></trkpt><trkpt lat="43.53542914705937" lon="12.646747130419998"><ele>277.66666666666663</ele><time>2026-04-19T14:23:06Z</time></trkpt><trkpt lat="43.53560201997965" lon="12.646721968673893"><ele>277.0</ele><time>2026-04-19T14:23:07Z</time></trkpt><trkpt lat="43.53578046649125" lon="12.6466906732364"><ele>277.0</ele><time>2026-04-19T14:23:08Z</time></trkpt><trkpt lat="43.5359579493936" lon="12.646654271884843"><ele>277.0</ele><time>2026-04-19T14:23:09Z</time></trkpt><trkpt lat="43.53613498909483" lon="12.646606902464924"><ele>277.0</ele><time>2026-04-19T14:23:10Z</time></trkpt><trkpt lat="43.536308467121835" lon="12.646556773846168"><ele>278.3333333333333</ele><time>2026-04-19T14:23:11Z</time></trkpt><trkpt lat="43.536481950570796" lon="12.646495670418851"><ele>279.6666666666667</ele><time>2026-04-19T14:23:12Z</time></trkpt><trkpt lat="43.536644498704874" lon="12.646429718988983"><ele>281.0</ele><time>2026-04-19T14:23:13Z</time></trkpt><trkpt lat="43.53680233603211" lon="12.646367365799462"><ele>281.0</ele><time>2026-04-19T14:23:14Z</time></trkpt><trkpt lat="43.53695615109109" lon="12.646300372137466"><ele>281.0</ele><time>2026-04-19T14:23:15Z</time></trkpt><trkpt lat="43.53710533512667" lon="12.646224816413385"><ele>281.0</ele><time>2026-04-19T14:23:16Z</time></trkpt><trkpt lat="43.537250683780634" lon="12.646143701658794"><ele>275.6666666666667</ele><time>2026-04-19T14:23:17Z</time></trkpt><trkpt lat="43.53739835341444" lon="12.646060407247493"><ele>270.3333333333333</ele><time>2026-04-19T14:23:18Z</time></trkpt><trkpt lat="43.53754157559786" lon="12.64596690940999"><ele>265.0</ele><time>2026-04-19T14:23:19Z</time></trkpt><trkpt lat="43.53768643549716" lon="12.645868351392657"><ele>265.0</ele><time>2026-04-19T14:23:20Z</time></trkpt><trkpt lat="43.53782806842668" lon="12.64576655309696"><ele>265.0</ele><time>2026-04-19T14:23:21Z</time></trkpt><trkpt lat="43.53795881963465" lon="12.64566168463553"><ele>265.0</ele><time>2026-04-19T14:23:22Z</time></trkpt><trkpt lat="43.538086000089955" lon="12.645563827169264"><ele>268.25</ele><time>2026-04-19T14:23:23Z</time></trkpt><trkpt lat="43.538200843665585" lon="12.645464519246326"><ele>271.5</ele><time>2026-04-19T14:23:23.999Z</time></trkpt><trkpt lat="43.53831646808949" lon="12.645362440354303"><ele>274.75</ele><time>2026-04-19T14:23:24.999Z</time></trkpt><trkpt lat="43.5384410614806" lon="12.645236890926457"><ele>278.0</ele><time>2026-04-19T14:23:25.999Z</time></trkpt><trkpt lat="43.538545324582884" lon="12.645114034198574"><ele>288.75</ele><time>2026-04-19T14:23:26.999Z</time></trkpt><trkpt lat="43.53866351314412" lon="12.64501997966773"><ele>299.5</ele><time>2026-04-19T14:23:27.999Z</time></trkpt><trkpt lat="43.538775223890305" lon="12.644904738132643"><ele>310.25</ele><time>2026-04-19T14:23:28.999Z</time></trkpt><trkpt lat="43.53888540885618" lon="12.644785963340883"><ele>321.0</ele><time>2026-04-19T14:23:29.999Z</time></trkpt><trkpt lat="43.538996300482445" lon="12.644663984437113"><ele>328.0</ele><time>2026-04-19T14:23:30.999Z</time></trkpt><trkpt lat="43.53910381220127" lon="12.644544960872771"><ele>335.0</ele><time>2026-04-19T14:23:31.999Z</time></trkpt><trkpt lat="43.539209900061635" lon="12.644425920444743"><ele>342.0</ele><time>2026-04-19T14:23:33.072Z</time></trkpt><trkpt lat="43.53929435006136" lon="12.644329790274995"><ele>349.0</ele><time>2026-04-19T14:23:34.062Z</time></trkpt><trkpt lat="43.539403213830916" lon="12.644202724140081"><ele>367.5</ele><time>2026-04-19T14:23:35.06Z</time></trkpt><trkpt lat="43.53950554867756" lon="12.644065815372114"><ele>386.0</ele><time>2026-04-19T14:23:36.055Z</time></trkpt><trkpt lat="43.54104380339792" lon="12.642256848351428"><ele>273.0</ele><time>2026-04-19T14:23:39.861Z</time></trkpt><trkpt lat="43.543254458860176" lon="12.64002264082969"><ele>273.0</ele><time>2026-04-19T14:23:55.999Z</time></trkpt><trkpt lat="43.543423776036725" lon="12.639908327780143"><ele>273.0</ele><time>2026-04-19T14:23:56.999Z</time></trkpt><trkpt lat="43.54359906711595" lon="12.639790499309374"><ele>273.0</ele><time>2026-04-19T14:23:57.999Z</time></trkpt><trkpt lat="43.543754681404884" lon="12.63967453648248"><ele>273.6666666666667</ele><time>2026-04-19T14:23:58.999Z</time></trkpt><trkpt lat="43.54393905470346" lon="12.639591222513577"><ele>274.33333333333337</ele><time>2026-04-19T14:23:59.999Z</time></trkpt><trkpt lat="43.54412973143587" lon="12.639517187209359"><ele>275.0</ele><time>2026-04-19T14:24:00.999Z</time></trkpt><trkpt lat="43.544328764697546" lon="12.639447081950344"><ele>271.6666666666667</ele><time>2026-04-19T14:24:01.999Z</time></trkpt><trkpt lat="43.54452716817896" lon="12.639396480826889"><ele>268.3333333333333</ele><time>2026-04-19T14:24:02.999Z</time></trkpt><trkpt lat="43.5447233522594" lon="12.639355536786667"><ele>265.0</ele><time>2026-04-19T14:24:03.999Z</time></trkpt><trkpt lat="43.54492109842073" lon="12.639329824633968"><ele>265.0</ele><time>2026-04-19T14:24:04.999Z</time></trkpt><trkpt lat="43.545124480440066" lon="12.639315204894496"><ele>265.0</ele><time>2026-04-19T14:24:05.999Z</time></trkpt><trkpt lat="43.54533112832867" lon="12.63931872257734"><ele>265.0</ele><time>2026-04-19T14:24:06.999Z</time></trkpt><trkpt lat="43.545531137047995" lon="12.639325916741814"><ele>265.0</ele><time>2026-04-19T14:24:07.999Z</time></trkpt><trkpt lat="43.54572750244358" lon="12.639348634528401"><ele>265.0</ele><time>2026-04-19T14:24:08.999Z</time></trkpt><trkpt lat="43.545927907188045" lon="12.639387093930535"><ele>265.0</ele><time>2026-04-19T14:24:09.999Z</time></trkpt><trkpt lat="43.54612477686049" lon="12.639432520135028"><ele>266.0</ele><time>2026-04-19T14:24:10.999Z</time></trkpt><trkpt lat="43.54630952411419" lon="12.639486206473153"><ele>267.0</ele><time>2026-04-19T14:24:11.999Z</time></trkpt><trkpt lat="43.546503025683776" lon="12.639541020057763"><ele>268.0</ele><time>2026-04-19T14:24:12.999Z</time></trkpt><trkpt lat="43.54667893293702" lon="12.639612347386532"><ele>268.0</ele><time>2026-04-19T14:24:13.999Z</time></trkpt><trkpt lat="43.546850131396425" lon="12.639700752202092"><ele>268.0</ele><time>2026-04-19T14:24:14.999Z</time></trkpt><trkpt lat="43.54701682053983" lon="12.639800904972612"><ele>268.0</ele><time>2026-04-19T14:24:15.999Z</time></trkpt><trkpt lat="43.54718457571369" lon="12.639899738417366"><ele>270.0</ele><time>2026-04-19T14:24:16.999Z</time></trkpt><trkpt lat="43.54741950935827" lon="12.639828152601503"><ele>272.0</ele><time>2026-04-19T14:24:17.999Z</time></trkpt><trkpt lat="43.54758396172464" lon="12.639947729032407"><ele>274.0</ele><time>2026-04-19T14:24:18.999Z</time></trkpt><trkpt lat="43.547741328609156" lon="12.640064247882764"><ele>274.66666666666663</ele><time>2026-04-19T14:24:19.999Z</time></trkpt><trkpt lat="43.547892273560024" lon="12.640151388107936"><ele>275.3333333333333</ele><time>2026-04-19T14:24:20.999Z</time></trkpt><trkpt lat="43.548061918327" lon="12.640233642684537"><ele>276.0</ele><time>2026-04-19T14:24:21.999Z</time></trkpt><trkpt lat="43.54836210513858" lon="12.640208979528401"><ele>273.5</ele><time>2026-04-19T14:24:23.999Z</time></trkpt><trkpt lat="43.54849485222197" lon="12.640790796169838"><ele>271.0</ele><time>2026-04-19T14:24:24.999Z</time></trkpt><trkpt lat="43.548657650443694" lon="12.640904457212374"><ele>271.66666666666663</ele><time>2026-04-19T14:24:25.999Z</time></trkpt><trkpt lat="43.54882025225364" lon="12.641018597992806"><ele>272.3333333333333</ele><time>2026-04-19T14:24:26.999Z</time></trkpt><trkpt lat="43.54898158349429" lon="12.641131041659483"><ele>273.0</ele><time>2026-04-19T14:24:27.999Z</time></trkpt><trkpt lat="43.54913856816417" lon="12.641247670498426"><ele>273.0</ele><time>2026-04-19T14:24:28.999Z</time></trkpt><trkpt lat="43.54929725939977" lon="12.641362414022193"><ele>273.0</ele><time>2026-04-19T14:24:29.999Z</time></trkpt><trkpt lat="43.54945366609293" lon="12.641477154611108"><ele>273.0</ele><time>2026-04-19T14:24:30.999Z</time></trkpt><trkpt lat="43.54961143999882" lon="12.641589117263996"><ele>274.6666666666667</ele><time>2026-04-19T14:24:31.999Z</time></trkpt><trkpt lat="43.549770143479094" lon="12.641701992989788"><ele>276.33333333333337</ele><time>2026-04-19T14:24:32.999Z</time></trkpt><trkpt lat="43.54992800307252" lon="12.641814939151978"><ele>278.0</ele><time>2026-04-19T14:24:33.999Z</time></trkpt><trkpt lat="43.55008428153372" lon="12.641925043413972"><ele>277.33333333333337</ele><time>2026-04-19T14:24:34.999Z</time></trkpt><trkpt lat="43.550243967814055" lon="12.642029799670539"><ele>276.6666666666667</ele><time>2026-04-19T14:24:35.999Z</time></trkpt><trkpt lat="43.55039995792085" lon="12.642142156970612"><ele>276.0</ele><time>2026-04-19T14:24:36.999Z</time></trkpt><trkpt lat="43.550558299090746" lon="12.642252678666663"><ele>276.0</ele><time>2026-04-19T14:24:37.999Z</time></trkpt><trkpt lat="43.550709818339946" lon="12.642370020347824"><ele>276.0</ele><time>2026-04-19T14:24:38.999Z</time></trkpt><trkpt lat="43.550871142350516" lon="12.642476770655326"><ele>276.0</ele><time>2026-04-19T14:24:39.999Z</time></trkpt><trkpt lat="43.551031543893615" lon="12.642581533697456"><ele>276.0</ele><time>2026-04-19T14:24:40.999Z</time></trkpt><trkpt lat="43.5511750912779" lon="12.642679000715003"><ele>276.0</ele><time>2026-04-19T14:24:41.999Z</time></trkpt><trkpt lat="43.551315519157924" lon="12.642779982460656"><ele>276.0</ele><time>2026-04-19T14:24:42.999Z</time></trkpt><trkpt lat="43.5514581710252" lon="12.642886673187576"><ele>276.3333333333333</ele><time>2026-04-19T14:24:43.999Z</time></trkpt><trkpt lat="43.551594497156984" lon="12.642987193021112"><ele>276.66666666666663</ele><time>2026-04-19T14:24:44.999Z</time></trkpt><trkpt lat="43.55173144646287" lon="12.643083574727838"><ele>277.0</ele><time>2026-04-19T14:24:45.999Z</time></trkpt><trkpt lat="43.551859863553815" lon="12.643182949726192"><ele>277.0</ele><time>2026-04-19T14:24:46.999Z</time></trkpt><trkpt lat="43.551971095309874" lon="12.643262485021106"><ele>277.0</ele><time>2026-04-19T14:24:47.999Z</time></trkpt><trkpt lat="43.552065322108106" lon="12.643333384593411"><ele>277.0</ele><time>2026-04-19T14:24:49Z</time></trkpt><trkpt lat="43.552146526244435" lon="12.643395684188112"><ele>277.0</ele><time>2026-04-19T14:24:50Z</time></trkpt><trkpt lat="43.552210011886565" lon="12.643448661963411"><ele>277.0</ele><time>2026-04-19T14:24:51Z</time></trkpt><trkpt lat="43.55229954347906" lon="12.64352561897348"><ele>277.0</ele><time>2026-04-19T14:24:53Z</time></trkpt><trkpt lat="43.552357552779334" lon="12.643568404078296"><ele>277.0</ele><time>2026-04-19T14:25:49.999Z</time></trkpt><trkpt lat="43.55247033046829" lon="12.643619612338622"><ele>277.0</ele><time>2026-04-19T14:25:51.999Z</time></trkpt><trkpt lat="43.552535298911984" lon="12.643669648146629"><ele>277.0</ele><time>2026-04-19T14:25:52.999Z</time></trkpt><trkpt lat="43.552616424251106" lon="12.643724709199148"><ele>277.0</ele><time>2026-04-19T14:25:53.999Z</time></trkpt><trkpt lat="43.55270689379515" lon="12.643789208790494"><ele>276.75</ele><time>2026-04-19T14:25:54.999Z</time></trkpt><trkpt lat="43.55280835635089" lon="12.643864272462011"><ele>276.5</ele><time>2026-04-19T14:25:55.999Z</time></trkpt><trkpt lat="43.55291150982197" lon="12.643927702265728"><ele>276.25</ele><time>2026-04-19T14:25:56.999Z</time></trkpt><trkpt lat="43.55302114306006" lon="12.644003320212894"><ele>276.0</ele><time>2026-04-19T14:25:57.999Z</time></trkpt><trkpt lat="43.55313968545118" lon="12.644085677900627"><ele>276.0</ele><time>2026-04-19T14:25:58.999Z</time></trkpt><trkpt lat="43.553267601530344" lon="12.644164364392905"><ele>276.0</ele><time>2026-04-19T14:25:59.999Z</time></trkpt><trkpt lat="43.55340165330209" lon="12.644262509272211"><ele>276.0</ele><time>2026-04-19T14:26:00.999Z</time></trkpt><trkpt lat="43.55354320609872" lon="12.644360048644849"><ele>276.0</ele><time>2026-04-19T14:26:01.999Z</time></trkpt><trkpt lat="43.55368127145179" lon="12.644452519504245"><ele>276.0</ele><time>2026-04-19T14:26:02.999Z</time></trkpt><trkpt lat="43.55382166565234" lon="12.644555440830867"><ele>276.0</ele><time>2026-04-19T14:26:03.999Z</time></trkpt><trkpt lat="43.5539619882781" lon="12.644659901070472"><ele>276.0</ele><time>2026-04-19T14:26:04.999Z</time></trkpt><trkpt lat="43.55410192980309" lon="12.64476526698368"><ele>276.0</ele><time>2026-04-19T14:26:05.999Z</time></trkpt><trkpt lat="43.55425034073009" lon="12.644869291458415"><ele>276.0</ele><time>2026-04-19T14:26:06.999Z</time></trkpt><trkpt lat="43.55439875679902" lon="12.644980354319983"><ele>277.3333333333333</ele><time>2026-04-19T14:26:07.999Z</time></trkpt><trkpt lat="43.55454710641889" lon="12.645097417037222"><ele>278.66666666666663</ele><time>2026-04-19T14:26:08.999Z</time></trkpt><trkpt lat="43.5546997879234" lon="12.645213959737845"><ele>280.0</ele><time>2026-04-19T14:26:09.999Z</time></trkpt><trkpt lat="43.55485713571154" lon="12.64534035114707"><ele>280.0</ele><time>2026-04-19T14:26:10.999Z</time></trkpt><trkpt lat="43.55500873243791" lon="12.645469500617242"><ele>280.0</ele><time>2026-04-19T14:26:11.999Z</time></trkpt><trkpt lat="43.55516183617201" lon="12.645604840483967"><ele>280.0</ele><time>2026-04-19T14:26:12.999Z</time></trkpt><trkpt lat="43.55531673202998" lon="12.645743992049473"><ele>281.66666666666663</ele><time>2026-04-19T14:26:13.999Z</time></trkpt><trkpt lat="43.555470934266445" lon="12.645883988509679"><ele>283.3333333333333</ele><time>2026-04-19T14:26:14.999Z</time></trkpt><trkpt lat="43.55562791276858" lon="12.646019582221632"><ele>285.0</ele><time>2026-04-19T14:26:15.999Z</time></trkpt><trkpt lat="43.55578685094304" lon="12.646168965085689"><ele>285.0</ele><time>2026-04-19T14:26:16.999Z</time></trkpt><trkpt lat="43.55594407298541" lon="12.646320392622853"><ele>285.0</ele><time>2026-04-19T14:26:17.999Z</time></trkpt><trkpt lat="43.55610358862177" lon="12.64646972966451"><ele>285.0</ele><time>2026-04-19T14:26:18.999Z</time></trkpt><trkpt lat="43.556261882580515" lon="12.646611709102057"><ele>286.0</ele><time>2026-04-19T14:26:19.999Z</time></trkpt><trkpt lat="43.55641843872188" lon="12.646760838526161"><ele>287.0</ele><time>2026-04-19T14:26:20.999Z</time></trkpt><trkpt lat="43.556575256566184" lon="12.646913217827125"><ele>288.0</ele><time>2026-04-19T14:26:21.999Z</time></trkpt><trkpt lat="43.556731305773965" lon="12.64707759995226"><ele>287.0</ele><time>2026-04-19T14:26:22.999Z</time></trkpt><trkpt lat="43.55688462282774" lon="12.647259971373073"><ele>286.0</ele><time>2026-04-19T14:26:23.999Z</time></trkpt><trkpt lat="43.557032198807704" lon="12.647455749445983"><ele>285.0</ele><time>2026-04-19T14:26:24.999Z</time></trkpt><trkpt lat="43.557172536271935" lon="12.647662679905384"><ele>282.6666666666667</ele><time>2026-04-19T14:26:25.999Z</time></trkpt><trkpt lat="43.557305180765695" lon="12.647875997454593"><ele>280.33333333333337</ele><time>2026-04-19T14:26:26.999Z</time></trkpt><trkpt lat="43.55743218485502" lon="12.64809276888415"><ele>278.0</ele><time>2026-04-19T14:26:27.999Z</time></trkpt><trkpt lat="43.557568754099634" lon="12.648307631989107"><ele>278.0</ele><time>2026-04-19T14:26:28.999Z</time></trkpt><trkpt lat="43.55770659279778" lon="12.648519134240473"><ele>278.0</ele><time>2026-04-19T14:26:29.999Z</time></trkpt><trkpt lat="43.55784648943415" lon="12.648737027129918"><ele>278.0</ele><time>2026-04-19T14:26:30.999Z</time></trkpt><trkpt lat="43.55798416268224" lon="12.648946936938875"><ele>278.6666666666667</ele><time>2026-04-19T14:26:31.999Z</time></trkpt><trkpt lat="43.55812246228545" lon="12.649161665417166"><ele>279.3333333333333</ele><time>2026-04-19T14:26:32.999Z</time></trkpt><trkpt lat="43.558261350177645" lon="12.649372015267808"><ele>280.0</ele><time>2026-04-19T14:26:33.999Z</time></trkpt><trkpt lat="43.55840613727401" lon="12.649566415102623"><ele>278.3333333333333</ele><time>2026-04-19T14:26:34.999Z</time></trkpt><trkpt lat="43.55854223757387" lon="12.649816901732907"><ele>276.6666666666667</ele><time>2026-04-19T14:26:35.999Z</time></trkpt><trkpt lat="43.55868343712199" lon="12.650028716976268"><ele>275.0</ele><time>2026-04-19T14:26:36.999Z</time></trkpt><trkpt lat="43.5588247386709" lon="12.650243874784577"><ele>273.0</ele><time>2026-04-19T14:26:37.999Z</time></trkpt><trkpt lat="43.55897076103816" lon="12.650438891567442"><ele>271.0</ele><time>2026-04-19T14:26:38.999Z</time></trkpt><trkpt lat="43.55911800761642" lon="12.650640255266639"><ele>269.0</ele><time>2026-04-19T14:26:39.999Z</time></trkpt><trkpt lat="43.55926667255242" lon="12.650837320984392"><ele>269.0</ele><time>2026-04-19T14:26:40.999Z</time></trkpt><trkpt lat="43.55942087758909" lon="12.651029258319173"><ele>269.0</ele><time>2026-04-19T14:26:41.999Z</time></trkpt><trkpt lat="43.55957717913525" lon="12.651202535779783"><ele>269.0</ele><time>2026-04-19T14:26:42.999Z</time></trkpt><trkpt lat="43.55973413419681" lon="12.651374258680574"><ele>268.6666666666667</ele><time>2026-04-19T14:26:43.999Z</time></trkpt><trkpt lat="43.559892111112966" lon="12.651546762965655"><ele>268.3333333333333</ele><time>2026-04-19T14:26:44.999Z</time></trkpt><trkpt lat="43.56005411726027" lon="12.65170843532147"><ele>268.0</ele><time>2026-04-19T14:26:45.999Z</time></trkpt><trkpt lat="43.560217498853326" lon="12.651866362884697"><ele>265.0</ele><time>2026-04-19T14:26:46.999Z</time></trkpt><trkpt lat="43.56038434771182" lon="12.652014304374152"><ele>262.0</ele><time>2026-04-19T14:26:47.999Z</time></trkpt><trkpt lat="43.56055397607246" lon="12.652148713801848"><ele>259.0</ele><time>2026-04-19T14:26:48.999Z</time></trkpt><trkpt lat="43.56072361771788" lon="12.652290939575076"><ele>259.0</ele><time>2026-04-19T14:26:49.999Z</time></trkpt><trkpt lat="43.56089082620003" lon="12.652434027349875"><ele>259.0</ele><time>2026-04-19T14:26:50.999Z</time></trkpt><trkpt lat="43.56105805235947" lon="12.652571200241693"><ele>259.0</ele><time>2026-04-19T14:26:51.999Z</time></trkpt><trkpt lat="43.561225713574835" lon="12.65270670438541"><ele>257.66666666666663</ele><time>2026-04-19T14:26:52.999Z</time></trkpt><trkpt lat="43.56139515194251" lon="12.652831576684923"><ele>256.3333333333333</ele><time>2026-04-19T14:26:53.999Z</time></trkpt><trkpt lat="43.5615629907295" lon="12.652960632102795"><ele>255.0</ele><time>2026-04-19T14:26:55Z</time></trkpt><trkpt lat="43.56172388511891" lon="12.653103708784688"><ele>255.0</ele><time>2026-04-19T14:26:56Z</time></trkpt><trkpt lat="43.56188286235746" lon="12.653250430228159"><ele>255.0</ele><time>2026-04-19T14:26:57Z</time></trkpt><trkpt lat="43.56203959514414" lon="12.653399125399895"><ele>255.0</ele><time>2026-04-19T14:26:58Z</time></trkpt><trkpt lat="43.56219643677496" lon="12.653542077924811"><ele>254.0</ele><time>2026-04-19T14:26:59Z</time></trkpt><trkpt lat="43.56234921729087" lon="12.653697113346281"><ele>253.0</ele><time>2026-04-19T14:27:00Z</time></trkpt><trkpt lat="43.56249421399006" lon="12.65386603801599"><ele>252.0</ele><time>2026-04-19T14:27:01Z</time></trkpt><trkpt lat="43.56263131718925" lon="12.654039249366184"><ele>252.0</ele><time>2026-04-19T14:27:02Z</time></trkpt><trkpt lat="43.56276392954931" lon="12.654231064717768"><ele>252.0</ele><time>2026-04-19T14:27:03Z</time></trkpt><trkpt lat="43.562882121961906" lon="12.654430165523884"><ele>252.0</ele><time>2026-04-19T14:27:04Z</time></trkpt><trkpt lat="43.56298539184703" lon="12.654640027461582"><ele>249.66666666666669</ele><time>2026-04-19T14:27:05Z</time></trkpt><trkpt lat="43.56307611905963" lon="12.654862132095507"><ele>247.33333333333334</ele><time>2026-04-19T14:27:06Z</time></trkpt><trkpt lat="43.56316152549863" lon="12.655087430222466"><ele>245.0</ele><time>2026-04-19T14:27:07Z</time></trkpt><trkpt lat="43.563238796127756" lon="12.655309135669903"><ele>244.66666666666669</ele><time>2026-04-19T14:27:08Z</time></trkpt><trkpt lat="43.56330145552201" lon="12.655545144839047"><ele>244.33333333333331</ele><time>2026-04-19T14:27:09Z</time></trkpt><trkpt lat="43.56335218377834" lon="12.655783951596925"><ele>244.0</ele><time>2026-04-19T14:27:10Z</time></trkpt><trkpt lat="43.56339335399839" lon="12.656031069395974"><ele>244.66666666666666</ele><time>2026-04-19T14:27:11Z</time></trkpt><trkpt lat="43.56343052508709" lon="12.65627426635023"><ele>245.33333333333331</ele><time>2026-04-19T14:27:12Z</time></trkpt><trkpt lat="43.563470937856685" lon="12.656510866869207"><ele>246.0</ele><time>2026-04-19T14:27:13Z</time></trkpt><trkpt lat="43.56352154990967" lon="12.656751313689226"><ele>247.0</ele><time>2026-04-19T14:27:14Z</time></trkpt><trkpt lat="43.56358173502408" lon="12.65698453740303"><ele>248.0</ele><time>2026-04-19T14:27:15Z</time></trkpt><trkpt lat="43.56364850120866" lon="12.657216161421502"><ele>249.0</ele><time>2026-04-19T14:27:16Z</time></trkpt><trkpt lat="43.56372121072184" lon="12.657442030352641"><ele>249.66666666666669</ele><time>2026-04-19T14:27:17Z</time></trkpt><trkpt lat="43.56380476349128" lon="12.65764864482626"><ele>250.33333333333334</ele><time>2026-04-19T14:27:18Z</time></trkpt><trkpt lat="43.56389762816476" lon="12.657840590746781"><ele>251.0</ele><time>2026-04-19T14:27:19Z</time></trkpt><trkpt lat="43.56400245074882" lon="12.658025230748956"><ele>251.0</ele><time>2026-04-19T14:27:20Z</time></trkpt><trkpt lat="43.564110139666866" lon="12.658197803674518"><ele>251.0</ele><time>2026-04-19T14:27:21Z</time></trkpt><trkpt lat="43.564224506351636" lon="12.658358000479888"><ele>251.0</ele><time>2026-04-19T14:27:22Z</time></trkpt><trkpt lat="43.56434988483776" lon="12.658503449271858"><ele>251.0</ele><time>2026-04-19T14:27:23Z</time></trkpt><trkpt lat="43.564478922820946" lon="12.658632888840303"><ele>251.0</ele><time>2026-04-19T14:27:24Z</time></trkpt><trkpt lat="43.56460820561346" lon="12.658764770410336"><ele>251.0</ele><time>2026-04-19T14:27:25Z</time></trkpt><trkpt lat="43.564737222824085" lon="12.6588963073657"><ele>251.0</ele><time>2026-04-19T14:27:26Z</time></trkpt><trkpt lat="43.56487001155529" lon="12.659016980654437"><ele>251.0</ele><time>2026-04-19T14:27:27Z</time></trkpt><trkpt lat="43.56501297239889" lon="12.659136211217126"><ele>251.0</ele><time>2026-04-19T14:27:27.999Z</time></trkpt><trkpt lat="43.565155834999764" lon="12.659244140076497"><ele>251.0</ele><time>2026-04-19T14:27:28.999Z</time></trkpt><trkpt lat="43.56530399251219" lon="12.659352867189233"><ele>251.0</ele><time>2026-04-19T14:27:29.999Z</time></trkpt><trkpt lat="43.56545159887443" lon="12.659457126780792"><ele>251.0</ele><time>2026-04-19T14:27:30.999Z</time></trkpt><trkpt lat="43.565602685020686" lon="12.659555747651309"><ele>251.0</ele><time>2026-04-19T14:27:31.999Z</time></trkpt><trkpt lat="43.56575275161247" lon="12.659645826283208"><ele>251.0</ele><time>2026-04-19T14:27:32.999Z</time></trkpt><trkpt lat="43.56590421736563" lon="12.659741998270661"><ele>251.0</ele><time>2026-04-19T14:27:33.999Z</time></trkpt><trkpt lat="43.566054586481" lon="12.659837050873186"><ele>251.66666666666669</ele><time>2026-04-19T14:27:34.999Z</time></trkpt><trkpt lat="43.56619638315757" lon="12.65992828368457"><ele>252.33333333333331</ele><time>2026-04-19T14:27:35.999Z</time></trkpt><trkpt lat="43.56633784290598" lon="12.6600163031547"><ele>253.0</ele><time>2026-04-19T14:27:36.999Z</time></trkpt><trkpt lat="43.566474982740964" lon="12.66010583281622"><ele>253.0</ele><time>2026-04-19T14:27:37.999Z</time></trkpt><trkpt lat="43.566610959418995" lon="12.660193394157842"><ele>253.0</ele><time>2026-04-19T14:27:38.999Z</time></trkpt><trkpt lat="43.56674671144797" lon="12.660280071276611"><ele>253.0</ele><time>2026-04-19T14:27:39.999Z</time></trkpt><trkpt lat="43.56688433197428" lon="12.660368513943682"><ele>252.0</ele><time>2026-04-19T14:27:40.999Z</time></trkpt><trkpt lat="43.56701897878262" lon="12.660454122707263"><ele>251.0</ele><time>2026-04-19T14:27:41.999Z</time></trkpt><trkpt lat="43.5671552064788" lon="12.660538130701173"><ele>250.0</ele><time>2026-04-19T14:27:42.999Z</time></trkpt><trkpt lat="43.56728550063387" lon="12.660618523697226"><ele>249.0</ele><time>2026-04-19T14:27:43.999Z</time></trkpt><trkpt lat="43.5674206168506" lon="12.660705378228949"><ele>249.0</ele><time>2026-04-19T14:27:44.999Z</time></trkpt><trkpt lat="43.56755410455288" lon="12.660789330585393"><ele>249.0</ele><time>2026-04-19T14:27:45.999Z</time></trkpt><trkpt lat="43.56767455037246" lon="12.660871184924384"><ele>249.0</ele><time>2026-04-19T14:27:46.999Z</time></trkpt><trkpt lat="43.56778990375568" lon="12.660951898901118"><ele>249.0</ele><time>2026-04-19T14:27:47.999Z</time></trkpt><trkpt lat="43.567908243718485" lon="12.6610333512375"><ele>248.25</ele><time>2026-04-19T14:27:48.999Z</time></trkpt><trkpt lat="43.56803159809249" lon="12.661115093490523"><ele>247.5</ele><time>2026-04-19T14:27:49.999Z</time></trkpt><trkpt lat="43.56815970195737" lon="12.661195110346599"><ele>246.75</ele><time>2026-04-19T14:27:50.999Z</time></trkpt><trkpt lat="43.56828603550321" lon="12.661280324147116"><ele>246.0</ele><time>2026-04-19T14:27:51.999Z</time></trkpt><trkpt lat="43.568416476573645" lon="12.661369267441948"><ele>246.0</ele><time>2026-04-19T14:27:52.999Z</time></trkpt><trkpt lat="43.56854421727131" lon="12.661458852948302"><ele>246.0</ele><time>2026-04-19T14:27:53.999Z</time></trkpt><trkpt lat="43.56867365546088" lon="12.66155309558554"><ele>246.0</ele><time>2026-04-19T14:27:54.999Z</time></trkpt><trkpt lat="43.56879459980184" lon="12.661646140966013"><ele>246.0</ele><time>2026-04-19T14:27:55.999Z</time></trkpt><trkpt lat="43.568921069831795" lon="12.661741974165183"><ele>246.25</ele><time>2026-04-19T14:27:56.999Z</time></trkpt><trkpt lat="43.56904426946844" lon="12.661834930136108"><ele>246.5</ele><time>2026-04-19T14:27:57.999Z</time></trkpt><trkpt lat="43.56916154411036" lon="12.661925613582245"><ele>246.75</ele><time>2026-04-19T14:27:58.999Z</time></trkpt><trkpt lat="43.569284507453055" lon="12.66201777929187"><ele>247.0</ele><time>2026-04-19T14:27:59.999Z</time></trkpt><trkpt lat="43.569400547424856" lon="12.6621076932506"><ele>246.8</ele><time>2026-04-19T14:28:00.999Z</time></trkpt><trkpt lat="43.569509808750134" lon="12.662191884787159"><ele>246.6</ele><time>2026-04-19T14:28:01.999Z</time></trkpt><trkpt lat="43.56960417667103" lon="12.662271105389156"><ele>246.40000000000003</ele><time>2026-04-19T14:28:02.999Z</time></trkpt><trkpt lat="43.569680936048776" lon="12.662345875601499"><ele>246.20000000000002</ele><time>2026-04-19T14:28:03.999Z</time></trkpt><trkpt lat="43.56973930969668" lon="12.662411080482665"><ele>246.0</ele><time>2026-04-19T14:28:04.999Z</time></trkpt><trkpt lat="43.5698252748289" lon="12.662481804565443"><ele>246.0</ele><time>2026-04-19T14:28:06.999Z</time></trkpt><trkpt lat="43.56989017350583" lon="12.662499896229232"><ele>246.0</ele><time>2026-04-19T14:28:08.999Z</time></trkpt><trkpt lat="43.56995986343574" lon="12.662501835952483"><ele>246.0</ele><time>2026-04-19T14:28:11.999Z</time></trkpt><trkpt lat="43.56991525109668" lon="12.662384288165295"><ele>246.0</ele><time>2026-04-19T14:28:14.999Z</time></trkpt><trkpt lat="43.56980614375459" lon="12.662344318589485"><ele>246.0</ele><time>2026-04-19T14:28:16.999Z</time></trkpt><trkpt lat="43.56974879650824" lon="12.662304796171664"><ele>246.0</ele><time>2026-04-19T14:28:17.999Z</time></trkpt><trkpt lat="43.56968719057817" lon="12.662246530911"><ele>246.0</ele><time>2026-04-19T14:28:18.999Z</time></trkpt><trkpt lat="43.569623054069105" lon="12.662191143373027"><ele>246.0</ele><time>2026-04-19T14:28:19.999Z</time></trkpt><trkpt lat="43.56955169463619" lon="12.662139658899582"><ele>246.0</ele><time>2026-04-19T14:28:20.999Z</time></trkpt><trkpt lat="43.56947348311827" lon="12.662083079429548"><ele>246.0</ele><time>2026-04-19T14:28:21.999Z</time></trkpt><trkpt lat="43.569391452529324" lon="12.66202001509366"><ele>246.0</ele><time>2026-04-19T14:28:22.999Z</time></trkpt><trkpt lat="43.56930544807477" lon="12.661948694816303"><ele>246.0</ele><time>2026-04-19T14:28:23.999Z</time></trkpt><trkpt lat="43.56921299833023" lon="12.66187624027995"><ele>246.20000000000002</ele><time>2026-04-19T14:28:24.999Z</time></trkpt><trkpt lat="43.56912090591714" lon="12.661811096445051"><ele>246.40000000000003</ele><time>2026-04-19T14:28:25.999Z</time></trkpt><trkpt lat="43.56902496696294" lon="12.661741080794886"><ele>246.6</ele><time>2026-04-19T14:28:26.999Z</time></trkpt><trkpt lat="43.56892748077541" lon="12.66166926941492"><ele>246.8</ele><time>2026-04-19T14:28:27.999Z</time></trkpt><trkpt lat="43.56882940291991" lon="12.661592792892353"><ele>247.0</ele><time>2026-04-19T14:28:28.999Z</time></trkpt><trkpt lat="43.568728136562214" lon="12.661518583201316"><ele>246.75</ele><time>2026-04-19T14:28:29.999Z</time></trkpt><trkpt lat="43.56862852904217" lon="12.661440192878178"><ele>246.5</ele><time>2026-04-19T14:28:30.999Z</time></trkpt><trkpt lat="43.56852355932565" lon="12.661364475153547"><ele>246.25</ele><time>2026-04-19T14:28:31.999Z</time></trkpt><trkpt lat="43.568413742773316" lon="12.661290291837545"><ele>246.0</ele><time>2026-04-19T14:28:32.999Z</time></trkpt><trkpt lat="43.56829993476371" lon="12.661209525933884"><ele>246.0</ele><time>2026-04-19T14:28:33.999Z</time></trkpt><trkpt lat="43.568182043054605" lon="12.661127969496887"><ele>246.0</ele><time>2026-04-19T14:28:34.999Z</time></trkpt><trkpt lat="43.56806820903402" lon="12.661046650012738"><ele>246.0</ele><time>2026-04-19T14:28:35.999Z</time></trkpt><trkpt lat="43.567952332370545" lon="12.660969325416328"><ele>246.0</ele><time>2026-04-19T14:28:36.999Z</time></trkpt><trkpt lat="43.56783424786231" lon="12.660892974492102"><ele>246.75</ele><time>2026-04-19T14:28:37.999Z</time></trkpt><trkpt lat="43.56771274865084" lon="12.660816254372975"><ele>247.5</ele><time>2026-04-19T14:28:38.999Z</time></trkpt><trkpt lat="43.567589599912374" lon="12.660738933594034"><ele>248.25</ele><time>2026-04-19T14:28:39.999Z</time></trkpt><trkpt lat="43.56746479888237" lon="12.660660128770356"><ele>249.0</ele><time>2026-04-19T14:28:40.999Z</time></trkpt><trkpt lat="43.56734120654584" lon="12.66058085499268"><ele>249.0</ele><time>2026-04-19T14:28:41.999Z</time></trkpt><trkpt lat="43.567214205879274" lon="12.660500795582013"><ele>249.0</ele><time>2026-04-19T14:28:42.999Z</time></trkpt><trkpt lat="43.56708409783263" lon="12.660421874840848"><ele>249.0</ele><time>2026-04-19T14:28:43.999Z</time></trkpt><trkpt lat="43.56695345029099" lon="12.660343390165655"><ele>249.0</ele><time>2026-04-19T14:28:44.999Z</time></trkpt><trkpt lat="43.56681959518765" lon="12.660260291513683"><ele>250.0</ele><time>2026-04-19T14:28:45.999Z</time></trkpt><trkpt lat="43.56668644061647" lon="12.660176645079183"><ele>251.0</ele><time>2026-04-19T14:28:46.999Z</time></trkpt><trkpt lat="43.566553599036034" lon="12.66008955929059"><ele>252.0</ele><time>2026-04-19T14:28:47.999Z</time></trkpt><trkpt lat="43.56641589438548" lon="12.659998967862846"><ele>253.0</ele><time>2026-04-19T14:28:48.999Z</time></trkpt><trkpt lat="43.56627458851245" lon="12.659909222981153"><ele>252.33333333333331</ele><time>2026-04-19T14:28:49.999Z</time></trkpt><trkpt lat="43.56612929922976" lon="12.659817379554628"><ele>251.66666666666669</ele><time>2026-04-19T14:28:50.999Z</time></trkpt><trkpt lat="43.56598421119617" lon="12.659723833352462"><ele>251.0</ele><time>2026-04-19T14:28:51.999Z</time></trkpt><trkpt lat="43.565832911854464" lon="12.659630705433914"><ele>251.0</ele><time>2026-04-19T14:28:52.999Z</time></trkpt><trkpt lat="43.56568881628645" lon="12.659525004629181"><ele>251.0</ele><time>2026-04-19T14:28:53.999Z</time></trkpt><trkpt lat="43.56554364483166" lon="12.659430105438332"><ele>251.0</ele><time>2026-04-19T14:28:54.999Z</time></trkpt><trkpt lat="43.56538986394839" lon="12.659327213482205"><ele>251.0</ele><time>2026-04-19T14:28:55.999Z</time></trkpt><trkpt lat="43.56522827837351" lon="12.659223826686317"><ele>251.0</ele><time>2026-04-19T14:28:56.998Z</time></trkpt><trkpt lat="43.56507141256851" lon="12.659115311448007"><ele>251.0</ele><time>2026-04-19T14:28:57.998Z</time></trkpt><trkpt lat="43.56492298102429" lon="12.658997413056433"><ele>251.0</ele><time>2026-04-19T14:28:58.998Z</time></trkpt><trkpt lat="43.564776719975725" lon="12.65886960523509"><ele>251.0</ele><time>2026-04-19T14:29:00Z</time></trkpt><trkpt lat="43.564633664727" lon="12.658731976543178"><ele>251.0</ele><time>2026-04-19T14:29:01Z</time></trkpt><trkpt lat="43.56449153178936" lon="12.658584557687695"><ele>251.0</ele><time>2026-04-19T14:29:02Z</time></trkpt><trkpt lat="43.56435245829108" lon="12.658427099858832"><ele>251.0</ele><time>2026-04-19T14:29:03Z</time></trkpt><trkpt lat="43.564215101901375" lon="12.658259682895634"><ele>251.0</ele><time>2026-04-19T14:29:04Z</time></trkpt><trkpt lat="43.564082477493365" lon="12.658079808097991"><ele>251.0</ele><time>2026-04-19T14:29:05Z</time></trkpt><trkpt lat="43.5639618874693" lon="12.657892090357578"><ele>251.0</ele><time>2026-04-19T14:29:06Z</time></trkpt><trkpt lat="43.56385539038768" lon="12.657689748150293"><ele>251.0</ele><time>2026-04-19T14:29:07Z</time></trkpt><trkpt lat="43.56376607172312" lon="12.657466943054084"><ele>250.33333333333334</ele><time>2026-04-19T14:29:08Z</time></trkpt><trkpt lat="43.5636821239989" lon="12.657231591442219"><ele>249.66666666666669</ele><time>2026-04-19T14:29:09Z</time></trkpt><trkpt lat="43.563622724842375" lon="12.656977641383198"><ele>249.0</ele><time>2026-04-19T14:29:10Z</time></trkpt><trkpt lat="43.5635606589251" lon="12.656727620988455"><ele>248.0</ele><time>2026-04-19T14:29:11Z</time></trkpt><trkpt lat="43.56349067387336" lon="12.656482140316852"><ele>247.0</ele><time>2026-04-19T14:29:12Z</time></trkpt><trkpt lat="43.56344424884332" lon="12.656224156688447"><ele>246.0</ele><time>2026-04-19T14:29:13Z</time></trkpt><trkpt lat="43.5634021945641" lon="12.655966578885986"><ele>245.66666666666669</ele><time>2026-04-19T14:29:14Z</time></trkpt><trkpt lat="43.56335796285449" lon="12.655710464977325"><ele>245.33333333333334</ele><time>2026-04-19T14:29:15Z</time></trkpt><trkpt lat="43.563306577837345" lon="12.655454716338305"><ele>245.0</ele><time>2026-04-19T14:29:16Z</time></trkpt><trkpt lat="43.563248798069665" lon="12.655205264939902"><ele>245.0</ele><time>2026-04-19T14:29:17Z</time></trkpt><trkpt lat="43.56317349588855" lon="12.654965028461831"><ele>245.0</ele><time>2026-04-19T14:29:18Z</time></trkpt><trkpt lat="43.563072916156266" lon="12.654734983406952"><ele>245.0</ele><time>2026-04-19T14:29:19Z</time></trkpt><trkpt lat="43.56297135386084" lon="12.654527120504815"><ele>247.33333333333334</ele><time>2026-04-19T14:29:20Z</time></trkpt><trkpt lat="43.562858769803" lon="12.65431839747524"><ele>249.66666666666669</ele><time>2026-04-19T14:29:21Z</time></trkpt><trkpt lat="43.562731912786816" lon="12.654107862209532"><ele>252.0</ele><time>2026-04-19T14:29:22Z</time></trkpt><trkpt lat="43.562593574449735" lon="12.653913900875558"><ele>252.0</ele><time>2026-04-19T14:29:23Z</time></trkpt><trkpt lat="43.56244959622053" lon="12.653737122368636"><ele>252.0</ele><time>2026-04-19T14:29:24Z</time></trkpt><trkpt lat="43.562293367097084" lon="12.653575157960908"><ele>252.0</ele><time>2026-04-19T14:29:25Z</time></trkpt><trkpt lat="43.562130503750815" lon="12.653419931916282"><ele>253.0</ele><time>2026-04-19T14:29:25.999Z</time></trkpt><trkpt lat="43.561971105609075" lon="12.653267097203859"><ele>254.0</ele><time>2026-04-19T14:29:26.999Z</time></trkpt><trkpt lat="43.56181120460949" lon="12.65311404272186"><ele>255.0</ele><time>2026-04-19T14:29:27.999Z</time></trkpt><trkpt lat="43.56164580452521" lon="12.652966549179109"><ele>255.0</ele><time>2026-04-19T14:29:28.999Z</time></trkpt><trkpt lat="43.56148075100138" lon="12.652823654267417"><ele>255.0</ele><time>2026-04-19T14:29:29.999Z</time></trkpt><trkpt lat="43.5613100690175" lon="12.652688429272526"><ele>255.0</ele><time>2026-04-19T14:29:30.999Z</time></trkpt><trkpt lat="43.561136519386544" lon="12.652558981278649"><ele>256.3333333333333</ele><time>2026-04-19T14:29:31.999Z</time></trkpt><trkpt lat="43.56096521445685" lon="12.652427720660574"><ele>257.66666666666663</ele><time>2026-04-19T14:29:32.999Z</time></trkpt><trkpt lat="43.56080078802897" lon="12.652287972115854"><ele>259.0</ele><time>2026-04-19T14:29:33.999Z</time></trkpt><trkpt lat="43.56063718739656" lon="12.652146303104033"><ele>259.0</ele><time>2026-04-19T14:29:34.999Z</time></trkpt><trkpt lat="43.5604752733079" lon="12.652012989838532"><ele>259.0</ele><time>2026-04-19T14:29:35.999Z</time></trkpt><trkpt lat="43.560315144837624" lon="12.651871081837262"><ele>259.0</ele><time>2026-04-19T14:29:36.999Z</time></trkpt><trkpt lat="43.56015996540316" lon="12.651731255778536"><ele>262.0</ele><time>2026-04-19T14:29:37.999Z</time></trkpt><trkpt lat="43.56000470014757" lon="12.651575683721012"><ele>265.0</ele><time>2026-04-19T14:29:38.999Z</time></trkpt><trkpt lat="43.559850638174275" lon="12.651402317994059"><ele>268.0</ele><time>2026-04-19T14:29:39.999Z</time></trkpt><trkpt lat="43.55968996096616" lon="12.651222735653228"><ele>268.3333333333333</ele><time>2026-04-19T14:29:40.999Z</time></trkpt><trkpt lat="43.55954289910968" lon="12.6510637494568"><ele>268.6666666666667</ele><time>2026-04-19T14:29:41.999Z</time></trkpt><trkpt lat="43.55939694783519" lon="12.650895513373767"><ele>269.0</ele><time>2026-04-19T14:29:42.999Z</time></trkpt><trkpt lat="43.559255438478175" lon="12.650719496224147"><ele>269.0</ele><time>2026-04-19T14:29:43.999Z</time></trkpt><trkpt lat="43.559113674088394" lon="12.650538317929042"><ele>269.0</ele><time>2026-04-19T14:29:44.999Z</time></trkpt><trkpt lat="43.558974177435104" lon="12.650351472003749"><ele>269.0</ele><time>2026-04-19T14:29:45.999Z</time></trkpt><trkpt lat="43.55883838871511" lon="12.650162025896366"><ele>270.33333333333337</ele><time>2026-04-19T14:29:46.999Z</time></trkpt><trkpt lat="43.55870443920042" lon="12.649966267881112"><ele>271.6666666666667</ele><time>2026-04-19T14:29:47.999Z</time></trkpt><trkpt lat="43.55857698286845" lon="12.649770424029185"><ele>273.0</ele><time>2026-04-19T14:29:48.999Z</time></trkpt><trkpt lat="43.55844788837485" lon="12.64957169266071"><ele>275.3333333333333</ele><time>2026-04-19T14:29:49.999Z</time></trkpt><trkpt lat="43.55831578872893" lon="12.649373954907977"><ele>277.66666666666663</ele><time>2026-04-19T14:29:50.999Z</time></trkpt><trkpt lat="43.558185013653386" lon="12.64917609951113"><ele>280.0</ele><time>2026-04-19T14:29:51.999Z</time></trkpt><trkpt lat="43.55805719596461" lon="12.648977101590946"><ele>280.0</ele><time>2026-04-19T14:29:52.999Z</time></trkpt><trkpt lat="43.557935147233" lon="12.648778929053044"><ele>280.0</ele><time>2026-04-19T14:29:53.999Z</time></trkpt><trkpt lat="43.55781261761308" lon="12.648577520933356"><ele>280.0</ele><time>2026-04-19T14:29:54.999Z</time></trkpt><trkpt lat="43.557685742067065" lon="12.648381202478932"><ele>279.3333333333333</ele><time>2026-04-19T14:29:55.999Z</time></trkpt><trkpt lat="43.55755780019457" lon="12.648190465437263"><ele>278.6666666666667</ele><time>2026-04-19T14:29:56.999Z</time></trkpt><trkpt lat="43.557430267736684" lon="12.647998445099548"><ele>278.0</ele><time>2026-04-19T14:29:57.999Z</time></trkpt><trkpt lat="43.55730705417302" lon="12.64781203277498"><ele>278.6666666666667</ele><time>2026-04-19T14:29:58.999Z</time></trkpt><trkpt lat="43.55718370934401" lon="12.647626013922858"><ele>279.3333333333333</ele><time>2026-04-19T14:29:59.999Z</time></trkpt><trkpt lat="43.557063430593686" lon="12.647446571103222"><ele>280.0</ele><time>2026-04-19T14:30:00.999Z</time></trkpt><trkpt lat="43.556938790456485" lon="12.647269437500384"><ele>280.0</ele><time>2026-04-19T14:30:01.999Z</time></trkpt><trkpt lat="43.55680792968051" lon="12.64709917481578"><ele>280.0</ele><time>2026-04-19T14:30:02.999Z</time></trkpt><trkpt lat="43.5566691511884" lon="12.646938339822507"><ele>280.0</ele><time>2026-04-19T14:30:03.999Z</time></trkpt><trkpt lat="43.556525226456166" lon="12.646789314873327"><ele>281.66666666666663</ele><time>2026-04-19T14:30:04.999Z</time></trkpt><trkpt lat="43.55637533343006" lon="12.646648348896608"><ele>283.3333333333333</ele><time>2026-04-19T14:30:05.999Z</time></trkpt><trkpt lat="43.55622253790674" lon="12.646510317064429"><ele>285.0</ele><time>2026-04-19T14:30:06.999Z</time></trkpt><trkpt lat="43.556067249668146" lon="12.64637011798637"><ele>285.0</ele><time>2026-04-19T14:30:07.999Z</time></trkpt><trkpt lat="43.55591553943239" lon="12.646228615633337"><ele>285.0</ele><time>2026-04-19T14:30:08.999Z</time></trkpt><trkpt lat="43.5557624232829" lon="12.64608323575151"><ele>285.0</ele><time>2026-04-19T14:30:09.999Z</time></trkpt><trkpt lat="43.555607153940855" lon="12.645936273218588"><ele>283.3333333333333</ele><time>2026-04-19T14:30:10.999Z</time></trkpt><trkpt lat="43.55545428459398" lon="12.645791619524092"><ele>281.66666666666663</ele><time>2026-04-19T14:30:11.999Z</time></trkpt><trkpt lat="43.55529421409148" lon="12.645649272488239"><ele>280.0</ele><time>2026-04-19T14:30:12.999Z</time></trkpt><trkpt lat="43.55513047989661" lon="12.645505924024777"><ele>280.0</ele><time>2026-04-19T14:30:13.999Z</time></trkpt><trkpt lat="43.55496618888661" lon="12.645369084212245"><ele>280.0</ele><time>2026-04-19T14:30:14.999Z</time></trkpt><trkpt lat="43.55479751313843" lon="12.645229774894615"><ele>280.0</ele><time>2026-04-19T14:30:15.999Z</time></trkpt><trkpt lat="43.55462905276484" lon="12.645092008441475"><ele>278.66666666666663</ele><time>2026-04-19T14:30:16.999Z</time></trkpt><trkpt lat="43.55445711111537" lon="12.644959160651279"><ele>277.3333333333333</ele><time>2026-04-19T14:30:17.999Z</time></trkpt><trkpt lat="43.554277792607024" lon="12.644824989055403"><ele>276.0</ele><time>2026-04-19T14:30:18.999Z</time></trkpt><trkpt lat="43.55409830366621" lon="12.644699003566672"><ele>276.0</ele><time>2026-04-19T14:30:19.999Z</time></trkpt><trkpt lat="43.55391319513556" lon="12.64456843932131"><ele>276.0</ele><time>2026-04-19T14:30:20.999Z</time></trkpt><trkpt lat="43.55372721118782" lon="12.644435974851312"><ele>276.0</ele><time>2026-04-19T14:30:21.999Z</time></trkpt><trkpt lat="43.55353703330862" lon="12.64430844913993"><ele>276.0</ele><time>2026-04-19T14:30:22.999Z</time></trkpt><trkpt lat="43.553348791415075" lon="12.64417526722306"><ele>276.0</ele><time>2026-04-19T14:30:23.999Z</time></trkpt><trkpt lat="43.55315910353543" lon="12.644035748808344"><ele>276.0</ele><time>2026-04-19T14:30:24.999Z</time></trkpt><trkpt lat="43.55296966309746" lon="12.643893911859774"><ele>276.3333333333333</ele><time>2026-04-19T14:30:25.999Z</time></trkpt><trkpt lat="43.552778051403656" lon="12.643755234628378"><ele>276.66666666666663</ele><time>2026-04-19T14:30:26.999Z</time></trkpt><trkpt lat="43.552583682774724" lon="12.643616623756868"><ele>277.0</ele><time>2026-04-19T14:30:27.999Z</time></trkpt><trkpt lat="43.552390842504565" lon="12.643482440373736"><ele>277.0</ele><time>2026-04-19T14:30:28.999Z</time></trkpt><trkpt lat="43.55219631401427" lon="12.643346636321667"><ele>277.0</ele><time>2026-04-19T14:30:29.999Z</time></trkpt><trkpt lat="43.55200173840529" lon="12.64321479446506"><ele>277.0</ele><time>2026-04-19T14:30:30.999Z</time></trkpt><trkpt lat="43.55180457900144" lon="12.643080048744444"><ele>277.0</ele><time>2026-04-19T14:30:31.999Z</time></trkpt><trkpt lat="43.551609083895876" lon="12.642944398994322"><ele>277.0</ele><time>2026-04-19T14:30:32.999Z</time></trkpt><trkpt lat="43.55141313614542" lon="12.642808238976315"><ele>277.0</ele><time>2026-04-19T14:30:33.999Z</time></trkpt><trkpt lat="43.55121951050363" lon="12.642671473881379"><ele>276.66666666666663</ele><time>2026-04-19T14:30:34.999Z</time></trkpt><trkpt lat="43.55102512320742" lon="12.64252821486287"><ele>276.3333333333333</ele><time>2026-04-19T14:30:35.999Z</time></trkpt><trkpt lat="43.55082687798196" lon="12.642385419396113"><ele>276.0</ele><time>2026-04-19T14:30:36.999Z</time></trkpt><trkpt lat="43.55062971480246" lon="12.642243520636672"><ele>276.0</ele><time>2026-04-19T14:30:37.999Z</time></trkpt><trkpt lat="43.55043098379364" lon="12.64210039502839"><ele>276.0</ele><time>2026-04-19T14:30:38.999Z</time></trkpt><trkpt lat="43.55023439363617" lon="12.641961541038677"><ele>276.0</ele><time>2026-04-19T14:30:39.999Z</time></trkpt><trkpt lat="43.550036498876466" lon="12.64182319967438"><ele>276.6666666666667</ele><time>2026-04-19T14:30:40.999Z</time></trkpt><trkpt lat="43.549837384752" lon="12.641682153094626"><ele>277.33333333333337</ele><time>2026-04-19T14:30:41.999Z</time></trkpt><trkpt lat="43.54963685881928" lon="12.641541827816265"><ele>278.0</ele><time>2026-04-19T14:30:42.999Z</time></trkpt><trkpt lat="43.54943854039598" lon="12.641399441279336"><ele>277.5</ele><time>2026-04-19T14:30:43.999Z</time></trkpt><trkpt lat="43.549239849168295" lon="12.641258947937692"><ele>277.0</ele><time>2026-04-19T14:30:44.999Z</time></trkpt><trkpt lat="43.54903853509684" lon="12.641114824308142"><ele>277.0</ele><time>2026-04-19T14:30:45.999Z</time></trkpt><trkpt lat="43.54883973160035" lon="12.640972613436542"><ele>277.0</ele><time>2026-04-19T14:30:46.999Z</time></trkpt><trkpt lat="43.548640802659136" lon="12.640831725753193"><ele>277.0</ele><time>2026-04-19T14:30:47.999Z</time></trkpt><trkpt lat="43.54844476445047" lon="12.640693416570436"><ele>276.0</ele><time>2026-04-19T14:30:48.999Z</time></trkpt><trkpt lat="43.54824701166528" lon="12.640552766496961"><ele>275.0</ele><time>2026-04-19T14:30:49.999Z</time></trkpt><trkpt lat="43.5480512227181" lon="12.640415967698079"><ele>274.0</ele><time>2026-04-19T14:30:50.999Z</time></trkpt><trkpt lat="43.547856487832185" lon="12.640280590321462"><ele>274.0</ele><time>2026-04-19T14:30:51.999Z</time></trkpt><trkpt lat="43.54766521271535" lon="12.64014712654453"><ele>274.0</ele><time>2026-04-19T14:30:52.999Z</time></trkpt><trkpt lat="43.5474717482022" lon="12.640013849314396"><ele>274.0</ele><time>2026-04-19T14:30:53.999Z</time></trkpt><trkpt lat="43.54727985845299" lon="12.639892120045667"><ele>274.0</ele><time>2026-04-19T14:30:54.999Z</time></trkpt><trkpt lat="43.54709746133965" lon="12.639768224881376"><ele>274.0</ele><time>2026-04-19T14:30:55.999Z</time></trkpt><trkpt lat="43.54688830211564" lon="12.639670296155982"><ele>274.0</ele><time>2026-04-19T14:30:56.999Z</time></trkpt><trkpt lat="43.54669087669564" lon="12.639571889761475"><ele>274.66666666666663</ele><time>2026-04-19T14:30:57.999Z</time></trkpt><trkpt lat="43.546490409225484" lon="12.639481734118698"><ele>275.3333333333333</ele><time>2026-04-19T14:30:58.998Z</time></trkpt><trkpt lat="43.54628461129298" lon="12.639410575607794"><ele>276.0</ele><time>2026-04-19T14:30:59.998Z</time></trkpt><trkpt lat="43.54607610589199" lon="12.639353173297723"><ele>272.3333333333333</ele><time>2026-04-19T14:31:00.998Z</time></trkpt><trkpt lat="43.54586693929998" lon="12.639314262394254"><ele>268.66666666666663</ele><time>2026-04-19T14:31:01.998Z</time></trkpt><trkpt lat="43.545656615736426" lon="12.639286076171977"><ele>265.0</ele><time>2026-04-19T14:31:02.998Z</time></trkpt><trkpt lat="43.54544870903842" lon="12.639274789903805"><ele>263.66666666666663</ele><time>2026-04-19T14:31:03.998Z</time></trkpt><trkpt lat="43.54523645142351" lon="12.639260775011296"><ele>262.3333333333333</ele><time>2026-04-19T14:31:05Z</time></trkpt><trkpt lat="43.545030476906575" lon="12.639272069900771"><ele>261.0</ele><time>2026-04-19T14:31:06Z</time></trkpt><trkpt lat="43.54482458224035" lon="12.63928963989483"><ele>261.0</ele><time>2026-04-19T14:31:07Z</time></trkpt><trkpt lat="43.544628246031245" lon="12.63932859472694"><ele>261.0</ele><time>2026-04-19T14:31:08Z</time></trkpt><trkpt lat="43.54443344132625" lon="12.639373488778855"><ele>261.0</ele><time>2026-04-19T14:31:09Z</time></trkpt><trkpt lat="43.54424085270502" lon="12.639430934652525"><ele>265.0</ele><time>2026-04-19T14:31:10Z</time></trkpt><trkpt lat="43.544050136775766" lon="12.639492001025406"><ele>269.0</ele><time>2026-04-19T14:31:11Z</time></trkpt><trkpt lat="43.54386070838267" lon="12.63957402085004"><ele>273.0</ele><time>2026-04-19T14:31:12Z</time></trkpt><trkpt lat="43.543675100516246" lon="12.639670457649903"><ele>273.0</ele><time>2026-04-19T14:31:13Z</time></trkpt><trkpt lat="43.54349238589014" lon="12.639779520714372"><ele>273.0</ele><time>2026-04-19T14:31:14Z</time></trkpt><trkpt lat="43.54331119579525" lon="12.639898597374312"><ele>273.0</ele><time>2026-04-19T14:31:15Z</time></trkpt><trkpt lat="43.54313092590449" lon="12.640023636655311"><ele>273.0</ele><time>2026-04-19T14:31:16Z</time></trkpt><trkpt lat="43.54295536942736" lon="12.64014927318642"><ele>273.0</ele><time>2026-04-19T14:31:17Z</time></trkpt><trkpt lat="43.5427829160372" lon="12.64029723411911"><ele>273.0</ele><time>2026-04-19T14:31:18Z</time></trkpt><trkpt lat="43.542613817239946" lon="12.640438452015534"><ele>282.0</ele><time>2026-04-19T14:31:19Z</time></trkpt><trkpt lat="43.54244105655854" lon="12.640579361456117"><ele>291.0</ele><time>2026-04-19T14:31:20Z</time></trkpt><trkpt lat="43.54227750509894" lon="12.640709466224402"><ele>300.0</ele><time>2026-04-19T14:31:21Z</time></trkpt><trkpt lat="43.54211165184605" lon="12.640846177170348"><ele>304.3333333333333</ele><time>2026-04-19T14:31:22Z</time></trkpt><trkpt lat="43.541944820935974" lon="12.640986037210018"><ele>308.66666666666663</ele><time>2026-04-19T14:31:23Z</time></trkpt><trkpt lat="43.54177954979678" lon="12.641125667975723"><ele>313.0</ele><time>2026-04-19T14:31:24Z</time></trkpt><trkpt lat="43.54160297694208" lon="12.641277935281863"><ele>328.3333333333333</ele><time>2026-04-19T14:31:25.076Z</time></trkpt><trkpt lat="43.541439688624614" lon="12.6414197093632"><ele>343.6666666666667</ele><time>2026-04-19T14:31:26.064Z</time></trkpt><trkpt lat="43.54127289660132" lon="12.64155868975922"><ele>359.0</ele><time>2026-04-19T14:31:27.059Z</time></trkpt><trkpt lat="43.54110619667019" lon="12.641701812794588"><ele>368.0</ele><time>2026-04-19T14:31:28.057Z</time></trkpt><trkpt lat="43.540941268633766" lon="12.64182747172838"><ele>377.0</ele><time>2026-04-19T14:31:29.051Z</time></trkpt><trkpt lat="43.54077907388748" lon="12.641956866680564"><ele>386.0</ele><time>2026-04-19T14:31:30.027Z</time></trkpt><trkpt lat="43.53772274914162" lon="12.645779608033516"><ele>347.3333333333333</ele><time>2026-04-19T14:31:46Z</time></trkpt><trkpt lat="43.537545189573436" lon="12.645916688714395"><ele>308.66666666666663</ele><time>2026-04-19T14:31:47Z</time></trkpt><trkpt lat="43.53733673687599" lon="12.646054035816775"><ele>270.0</ele><time>2026-04-19T14:31:48Z</time></trkpt><trkpt lat="43.537142123317516" lon="12.646165540554236"><ele>273.6666666666667</ele><time>2026-04-19T14:31:49Z</time></trkpt><trkpt lat="43.53694563744525" lon="12.64626176537748"><ele>277.33333333333337</ele><time>2026-04-19T14:31:50Z</time></trkpt><trkpt lat="43.53674175860791" lon="12.646352619843988"><ele>281.0</ele><time>2026-04-19T14:31:50.999Z</time></trkpt><trkpt lat="43.53653076538621" lon="12.64643828638406"><ele>281.0</ele><time>2026-04-19T14:31:51.999Z</time></trkpt><trkpt lat="43.536319336931456" lon="12.646512808603154"><ele>281.0</ele><time>2026-04-19T14:31:52.999Z</time></trkpt><trkpt lat="43.536109912074664" lon="12.646575228160609"><ele>281.0</ele><time>2026-04-19T14:31:53.999Z</time></trkpt><trkpt lat="43.535908519579806" lon="12.646624691798069"><ele>280.33333333333337</ele><time>2026-04-19T14:31:54.999Z</time></trkpt><trkpt lat="43.53571486387808" lon="12.64665953636306"><ele>279.6666666666667</ele><time>2026-04-19T14:31:55.999Z</time></trkpt><trkpt lat="43.53552728032094" lon="12.64669280221383"><ele>279.0</ele><time>2026-04-19T14:31:56.999Z</time></trkpt><trkpt lat="43.535317098465555" lon="12.646726287974303"><ele>279.0</ele><time>2026-04-19T14:31:57.999Z</time></trkpt><trkpt lat="43.535124929735" lon="12.646743082934316"><ele>279.0</ele><time>2026-04-19T14:31:58.999Z</time></trkpt><trkpt lat="43.53493558647661" lon="12.646753531978678"><ele>279.0</ele><time>2026-04-19T14:31:59.999Z</time></trkpt><trkpt lat="43.53474422709441" lon="12.646753320640883"><ele>279.0</ele><time>2026-04-19T14:32:00.999Z</time></trkpt><trkpt lat="43.53455555581652" lon="12.646742423169473"><ele>279.0</ele><time>2026-04-19T14:32:01.999Z</time></trkpt><trkpt lat="43.53436758402605" lon="12.646718682774985"><ele>279.0</ele><time>2026-04-19T14:32:02.999Z</time></trkpt><trkpt lat="43.534178801636905" lon="12.646680951914984"><ele>278.3333333333333</ele><time>2026-04-19T14:32:03.999Z</time></trkpt><trkpt lat="43.533987118314364" lon="12.64663121321414"><ele>277.66666666666663</ele><time>2026-04-19T14:32:04.999Z</time></trkpt><trkpt lat="43.533801792190694" lon="12.646569210386556"><ele>277.0</ele><time>2026-04-19T14:32:05.999Z</time></trkpt><trkpt lat="43.53362212885851" lon="12.646497484292102"><ele>276.66666666666663</ele><time>2026-04-19T14:32:06.999Z</time></trkpt><trkpt lat="43.53344921524708" lon="12.646418231858577"><ele>276.3333333333333</ele><time>2026-04-19T14:32:07.999Z</time></trkpt><trkpt lat="43.53328246195615" lon="12.646334000770084"><ele>276.0</ele><time>2026-04-19T14:32:08.999Z</time></trkpt><trkpt lat="43.53312064189198" lon="12.646234020177783"><ele>279.6666666666667</ele><time>2026-04-19T14:32:09.999Z</time></trkpt><trkpt lat="43.5329580314773" lon="12.646127584434787"><ele>283.33333333333337</ele><time>2026-04-19T14:32:10.999Z</time></trkpt><trkpt lat="43.53279865168625" lon="12.646014163921892"><ele>287.0</ele><time>2026-04-19T14:32:11.999Z</time></trkpt><trkpt lat="43.53263544201657" lon="12.645888287491534"><ele>287.0</ele><time>2026-04-19T14:32:12.999Z</time></trkpt><trkpt lat="43.532477157216306" lon="12.64574440063191"><ele>287.0</ele><time>2026-04-19T14:32:13.999Z</time></trkpt><trkpt lat="43.53232182834117" lon="12.64559427531004"><ele>287.0</ele><time>2026-04-19T14:32:14.999Z</time></trkpt><trkpt lat="43.532164734183354" lon="12.645429955607506"><ele>289.0</ele><time>2026-04-19T14:32:15.999Z</time></trkpt><trkpt lat="43.5319995388115" lon="12.645258027870124"><ele>291.0</ele><time>2026-04-19T14:32:16.999Z</time></trkpt><trkpt lat="43.531834774051795" lon="12.645074042104422"><ele>293.0</ele><time>2026-04-19T14:32:17.999Z</time></trkpt><trkpt lat="43.53167446538113" lon="12.644880152776727"><ele>293.0</ele><time>2026-04-19T14:32:18.999Z</time></trkpt><trkpt lat="43.53152920150511" lon="12.644680999302613"><ele>293.0</ele><time>2026-04-19T14:32:19.999Z</time></trkpt><trkpt lat="43.5313729391991" lon="12.644487604564082"><ele>293.0</ele><time>2026-04-19T14:32:20.999Z</time></trkpt><trkpt lat="43.53122160252063" lon="12.644313328451192"><ele>292.6666666666667</ele><time>2026-04-19T14:32:21.999Z</time></trkpt><trkpt lat="43.53106439081778" lon="12.644135866316626"><ele>292.3333333333333</ele><time>2026-04-19T14:32:22.999Z</time></trkpt><trkpt lat="43.530906145516106" lon="12.643955589337937"><ele>292.0</ele><time>2026-04-19T14:32:23.999Z</time></trkpt><trkpt lat="43.530739988080434" lon="12.64377947223863"><ele>290.3333333333333</ele><time>2026-04-19T14:32:24.999Z</time></trkpt><trkpt lat="43.530570535787334" lon="12.643599721251801"><ele>288.6666666666667</ele><time>2026-04-19T14:32:25.999Z</time></trkpt><trkpt lat="43.53039519897756" lon="12.643426323224304"><ele>287.0</ele><time>2026-04-19T14:32:26.999Z</time></trkpt><trkpt lat="43.53021410663649" lon="12.643268375529146"><ele>287.0</ele><time>2026-04-19T14:32:27.999Z</time></trkpt><trkpt lat="43.53003603468257" lon="12.643112620406868"><ele>287.0</ele><time>2026-04-19T14:32:28.999Z</time></trkpt><trkpt lat="43.52986318596665" lon="12.64297091548227"><ele>287.0</ele><time>2026-04-19T14:32:29.999Z</time></trkpt><trkpt lat="43.52968951888785" lon="12.642825839187507"><ele>290.0</ele><time>2026-04-19T14:32:30.999Z</time></trkpt><trkpt lat="43.529519917882695" lon="12.64268455234308"><ele>293.0</ele><time>2026-04-19T14:32:31.999Z</time></trkpt><trkpt lat="43.529349838876" lon="12.642543310338295"><ele>296.0</ele><time>2026-04-19T14:32:32.999Z</time></trkpt><trkpt lat="43.529176626301876" lon="12.642402535750483"><ele>296.0</ele><time>2026-04-19T14:32:33.999Z</time></trkpt><trkpt lat="43.52900200760253" lon="12.64226607438954"><ele>296.0</ele><time>2026-04-19T14:32:34.999Z</time></trkpt><trkpt lat="43.528827912563024" lon="12.642125183912071"><ele>296.0</ele><time>2026-04-19T14:32:35.999Z</time></trkpt><trkpt lat="43.52864917587952" lon="12.641985348870003"><ele>300.5</ele><time>2026-04-19T14:32:36.999Z</time></trkpt><trkpt lat="43.52845354876939" lon="12.641832204332763"><ele>305.0</ele><time>2026-04-19T14:32:37.999Z</time></trkpt><trkpt lat="43.528248509529185" lon="12.641644965082158"><ele>305.0</ele><time>2026-04-19T14:32:38.999Z</time></trkpt><trkpt lat="43.52803056843974" lon="12.641468654628657"><ele>305.0</ele><time>2026-04-19T14:32:39.999Z</time></trkpt><trkpt lat="43.52781745149274" lon="12.641305607588508"><ele>307.33333333333337</ele><time>2026-04-19T14:32:40.999Z</time></trkpt><trkpt lat="43.52761068798569" lon="12.641172662915224"><ele>309.6666666666667</ele><time>2026-04-19T14:32:41.999Z</time></trkpt><trkpt lat="43.52741770580889" lon="12.641048665906947"><ele>312.0</ele><time>2026-04-19T14:32:42.999Z</time></trkpt><trkpt lat="43.52722648620151" lon="12.640961299556508"><ele>309.0</ele><time>2026-04-19T14:32:43.999Z</time></trkpt><trkpt lat="43.52703273324974" lon="12.640911505405798"><ele>306.0</ele><time>2026-04-19T14:32:44.999Z</time></trkpt><trkpt lat="43.52683893217846" lon="12.640885740125322"><ele>303.0</ele><time>2026-04-19T14:32:45.999Z</time></trkpt><trkpt lat="43.52664830921651" lon="12.64087742479312"><ele>303.0</ele><time>2026-04-19T14:32:46.999Z</time></trkpt><trkpt lat="43.52645499101545" lon="12.640889618796383"><ele>303.0</ele><time>2026-04-19T14:32:47.999Z</time></trkpt><trkpt lat="43.52626703771514" lon="12.640916858358345"><ele>303.0</ele><time>2026-04-19T14:32:48.999Z</time></trkpt><trkpt lat="43.52608044937438" lon="12.640973399663489"><ele>305.6666666666667</ele><time>2026-04-19T14:32:49.999Z</time></trkpt><trkpt lat="43.52590049885331" lon="12.641048508433576"><ele>308.33333333333337</ele><time>2026-04-19T14:32:50.999Z</time></trkpt><trkpt lat="43.5257235420978" lon="12.641142007404582"><ele>311.0</ele><time>2026-04-19T14:32:51.999Z</time></trkpt><trkpt lat="43.525554437010776" lon="12.641251020863054"><ele>308.33333333333337</ele><time>2026-04-19T14:32:52.999Z</time></trkpt><trkpt lat="43.52539014682979" lon="12.641385246069405"><ele>305.6666666666667</ele><time>2026-04-19T14:32:53.999Z</time></trkpt><trkpt lat="43.52523503864662" lon="12.641523796531734"><ele>303.0</ele><time>2026-04-19T14:32:54.999Z</time></trkpt><trkpt lat="43.525077442065815" lon="12.641674987893738"><ele>303.0</ele><time>2026-04-19T14:32:55.999Z</time></trkpt><trkpt lat="43.524923202825136" lon="12.641828892487645"><ele>303.0</ele><time>2026-04-19T14:32:56.999Z</time></trkpt><trkpt lat="43.524769874408086" lon="12.641986509797574"><ele>303.0</ele><time>2026-04-19T14:32:57.999Z</time></trkpt><trkpt lat="43.52461536347756" lon="12.642146445536664"><ele>305.0</ele><time>2026-04-19T14:32:58.999Z</time></trkpt><trkpt lat="43.52445675759135" lon="12.64229990075383"><ele>307.0</ele><time>2026-04-19T14:32:59.999Z</time></trkpt><trkpt lat="43.52428358071131" lon="12.64245011167669"><ele>309.0</ele><time>2026-04-19T14:33:00.999Z</time></trkpt><trkpt lat="43.52410267594051" lon="12.642592651559404"><ele>309.0</ele><time>2026-04-19T14:33:01.999Z</time></trkpt><trkpt lat="43.523923574288055" lon="12.64273320907226"><ele>309.0</ele><time>2026-04-19T14:33:02.999Z</time></trkpt><trkpt lat="43.52374411831301" lon="12.642878237529771"><ele>309.0</ele><time>2026-04-19T14:33:03.999Z</time></trkpt><trkpt lat="43.523646276220184" lon="12.643048418625622"><ele>304.3333333333333</ele><time>2026-04-19T14:33:04.999Z</time></trkpt><trkpt lat="43.523496460024965" lon="12.643197985735886"><ele>299.66666666666663</ele><time>2026-04-19T14:33:05.999Z</time></trkpt><trkpt lat="43.523235703724325" lon="12.643181235292094"><ele>295.0</ele><time>2026-04-19T14:33:06.999Z</time></trkpt><trkpt lat="43.52302491831812" lon="12.643221369708359"><ele>298.3333333333333</ele><time>2026-04-19T14:33:07.999Z</time></trkpt><trkpt lat="43.5228147645501" lon="12.643253996131294"><ele>301.6666666666667</ele><time>2026-04-19T14:33:08.999Z</time></trkpt><trkpt lat="43.52260842201255" lon="12.643274821238027"><ele>305.0</ele><time>2026-04-19T14:33:09.999Z</time></trkpt><trkpt lat="43.522404112410754" lon="12.643293103661906"><ele>305.0</ele><time>2026-04-19T14:33:11Z</time></trkpt><trkpt lat="43.522199912851164" lon="12.643304532586159"><ele>305.0</ele><time>2026-04-19T14:33:12Z</time></trkpt><trkpt lat="43.52199722314894" lon="12.643290357410457"><ele>305.0</ele><time>2026-04-19T14:33:13Z</time></trkpt><trkpt lat="43.521795641034615" lon="12.643259818133288"><ele>304.0</ele><time>2026-04-19T14:33:14Z</time></trkpt><trkpt lat="43.521594126665526" lon="12.643218607946968"><ele>303.0</ele><time>2026-04-19T14:33:15Z</time></trkpt><trkpt lat="43.5213951826655" lon="12.643159269561968"><ele>302.0</ele><time>2026-04-19T14:33:16Z</time></trkpt><trkpt lat="43.52120431181218" lon="12.643078809764047"><ele>303.33333333333337</ele><time>2026-04-19T14:33:17Z</time></trkpt><trkpt lat="43.521013931170636" lon="12.642983235310293"><ele>304.6666666666667</ele><time>2026-04-19T14:33:18Z</time></trkpt><trkpt lat="43.520825452613124" lon="12.642880529946389"><ele>306.0</ele><time>2026-04-19T14:33:19Z</time></trkpt><trkpt lat="43.520637144615705" lon="12.642770032186208"><ele>306.0</ele><time>2026-04-19T14:33:20Z</time></trkpt><trkpt lat="43.52045137754437" lon="12.642644532052326"><ele>306.0</ele><time>2026-04-19T14:33:21Z</time></trkpt><trkpt lat="43.520262677094564" lon="12.642504839420829"><ele>306.0</ele><time>2026-04-19T14:33:22Z</time></trkpt><trkpt lat="43.520071181554094" lon="12.64235901555149"><ele>306.3333333333333</ele><time>2026-04-19T14:33:23Z</time></trkpt><trkpt lat="43.51988135160599" lon="12.64220788389743"><ele>306.66666666666663</ele><time>2026-04-19T14:33:24Z</time></trkpt><trkpt lat="43.51968935089747" lon="12.642054978003966"><ele>307.0</ele><time>2026-04-19T14:33:25Z</time></trkpt><trkpt lat="43.5194944773081" lon="12.641901261289544"><ele>307.0</ele><time>2026-04-19T14:33:26Z</time></trkpt><trkpt lat="43.519298968850954" lon="12.641750168427537"><ele>307.0</ele><time>2026-04-19T14:33:27Z</time></trkpt><trkpt lat="43.51910099612278" lon="12.641604435407798"><ele>307.0</ele><time>2026-04-19T14:33:28Z</time></trkpt><trkpt lat="43.51890451024114" lon="12.641454410616653"><ele>313.5</ele><time>2026-04-19T14:33:29Z</time></trkpt><trkpt lat="43.51870295489836" lon="12.641304540598167"><ele>320.0</ele><time>2026-04-19T14:33:30Z</time></trkpt><trkpt lat="43.518496622226586" lon="12.64116171595924"><ele>310.0</ele><time>2026-04-19T14:33:31Z</time></trkpt><trkpt lat="43.51828461126939" lon="12.641024939484542"><ele>300.0</ele><time>2026-04-19T14:33:32Z</time></trkpt><trkpt lat="43.51806886788069" lon="12.640902389803465"><ele>304.5</ele><time>2026-04-19T14:33:33Z</time></trkpt><trkpt lat="43.51785214097325" lon="12.640790476672949"><ele>309.0</ele><time>2026-04-19T14:33:34Z</time></trkpt><trkpt lat="43.51763507714176" lon="12.640686123573575"><ele>309.0</ele><time>2026-04-19T14:33:35Z</time></trkpt><trkpt lat="43.517417418667755" lon="12.64059435712318"><ele>309.0</ele><time>2026-04-19T14:33:36Z</time></trkpt><trkpt lat="43.51719853570013" lon="12.640516790026256"><ele>310.3333333333333</ele><time>2026-04-19T14:33:37Z</time></trkpt><trkpt lat="43.5169812994122" lon="12.640447058040042"><ele>311.66666666666663</ele><time>2026-04-19T14:33:38Z</time></trkpt><trkpt lat="43.51676151725171" lon="12.64038550625685"><ele>313.0</ele><time>2026-04-19T14:33:39Z</time></trkpt><trkpt lat="43.51654001082534" lon="12.64033487419013"><ele>313.0</ele><time>2026-04-19T14:33:40Z</time></trkpt><trkpt lat="43.5163233210401" lon="12.6403005769182"><ele>313.0</ele><time>2026-04-19T14:33:41Z</time></trkpt><trkpt lat="43.51610337104801" lon="12.640274553670592"><ele>313.0</ele><time>2026-04-19T14:33:42Z</time></trkpt><trkpt lat="43.51588052315475" lon="12.64025323336623"><ele>317.5</ele><time>2026-04-19T14:33:43Z</time></trkpt><trkpt lat="43.515654709827196" lon="12.640237701444043"><ele>322.0</ele><time>2026-04-19T14:33:44Z</time></trkpt><trkpt lat="43.51542786481838" lon="12.64022305353196"><ele>324.5</ele><time>2026-04-19T14:33:45Z</time></trkpt><trkpt lat="43.51520304022237" lon="12.640209356817634"><ele>327.0</ele><time>2026-04-19T14:33:46Z</time></trkpt><trkpt lat="43.51496331419562" lon="12.640196855591904"><ele>327.0</ele><time>2026-04-19T14:33:47.077Z</time></trkpt><trkpt lat="43.51473385043641" lon="12.640187621847913"><ele>327.0</ele><time>2026-04-19T14:33:48.065Z</time></trkpt><trkpt lat="43.514509511332555" lon="12.640185918484102"><ele>339.0</ele><time>2026-04-19T14:33:49.058Z</time></trkpt><trkpt lat="43.51404389323471" lon="12.640366263468346"><ele>339.0</ele><time>2026-04-19T14:33:51Z</time></trkpt><trkpt lat="43.513839164325866" lon="12.640412653639945"><ele>339.0</ele><time>2026-04-19T14:33:52Z</time></trkpt><trkpt lat="43.513613327051075" lon="12.640498922134885"><ele>339.0</ele><time>2026-04-19T14:33:53Z</time></trkpt><trkpt lat="43.513426043773876" lon="12.640546025112195"><ele>339.0</ele><time>2026-04-19T14:33:54Z</time></trkpt><trkpt lat="43.51321302838153" lon="12.640552631132785"><ele>339.0</ele><time>2026-04-19T14:33:55Z</time></trkpt><trkpt lat="43.51301881955592" lon="12.640562985653212"><ele>339.0</ele><time>2026-04-19T14:33:56Z</time></trkpt><trkpt lat="43.512824373993915" lon="12.64055482184523"><ele>339.0</ele><time>2026-04-19T14:33:57Z</time></trkpt><trkpt lat="43.51263114248332" lon="12.640529932872314"><ele>339.0</ele><time>2026-04-19T14:33:58Z</time></trkpt><trkpt lat="43.51243945536208" lon="12.64049566421164"><ele>339.0</ele><time>2026-04-19T14:33:59Z</time></trkpt><trkpt lat="43.512247686699034" lon="12.640443603124007"><ele>339.0</ele><time>2026-04-19T14:34:00Z</time></trkpt><trkpt lat="43.51205202837857" lon="12.64037229909004"><ele>339.0</ele><time>2026-04-19T14:34:01Z</time></trkpt><trkpt lat="43.511856015554805" lon="12.64028959079284"><ele>339.0</ele><time>2026-04-19T14:34:02Z</time></trkpt><trkpt lat="43.51166789886917" lon="12.640196863788665"><ele>331.3333333333333</ele><time>2026-04-19T14:34:03Z</time></trkpt><trkpt lat="43.51147823996834" lon="12.640090496934675"><ele>323.66666666666663</ele><time>2026-04-19T14:34:04Z</time></trkpt><trkpt lat="43.51129297817191" lon="12.639968340451414"><ele>316.0</ele><time>2026-04-19T14:34:05Z</time></trkpt><trkpt lat="43.51111207162458" lon="12.639841586566236"><ele>316.0</ele><time>2026-04-19T14:34:06Z</time></trkpt><trkpt lat="43.51093926705287" lon="12.639705588308392"><ele>316.0</ele><time>2026-04-19T14:34:07Z</time></trkpt><trkpt lat="43.5107723343351" lon="12.639565353027708"><ele>316.0</ele><time>2026-04-19T14:34:07.999Z</time></trkpt><trkpt lat="43.51061680375589" lon="12.639424969817394"><ele>315.66666666666663</ele><time>2026-04-19T14:34:08.999Z</time></trkpt><trkpt lat="43.51046279758802" lon="12.639280413866299"><ele>315.3333333333333</ele><time>2026-04-19T14:34:09.999Z</time></trkpt><trkpt lat="43.510307497942435" lon="12.639137239196575"><ele>315.0</ele><time>2026-04-19T14:34:10.999Z</time></trkpt><trkpt lat="43.51015356356261" lon="12.638994459835267"><ele>315.0</ele><time>2026-04-19T14:34:11.999Z</time></trkpt><trkpt lat="43.509996755557594" lon="12.638848582925633"><ele>315.0</ele><time>2026-04-19T14:34:12.999Z</time></trkpt><trkpt lat="43.50984894909398" lon="12.638711234084953"><ele>315.0</ele><time>2026-04-19T14:34:13.999Z</time></trkpt><trkpt lat="43.50970023333892" lon="12.638574284593483"><ele>316.0</ele><time>2026-04-19T14:34:14.999Z</time></trkpt><trkpt lat="43.509552364075596" lon="12.63844246581476"><ele>317.0</ele><time>2026-04-19T14:34:15.999Z</time></trkpt><trkpt lat="43.50940215538703" lon="12.638306703353877"><ele>318.0</ele><time>2026-04-19T14:34:16.999Z</time></trkpt><trkpt lat="43.50924783314725" lon="12.638173549567709"><ele>318.0</ele><time>2026-04-19T14:34:17.999Z</time></trkpt><trkpt lat="43.50909473705806" lon="12.638048901291416"><ele>318.0</ele><time>2026-04-19T14:34:18.999Z</time></trkpt><trkpt lat="43.50894022831286" lon="12.637922091678584"><ele>318.0</ele><time>2026-04-19T14:34:19.999Z</time></trkpt><trkpt lat="43.50878846936189" lon="12.637798119312244"><ele>319.3333333333333</ele><time>2026-04-19T14:34:20.999Z</time></trkpt><trkpt lat="43.50863753367298" lon="12.637679679395251"><ele>320.66666666666663</ele><time>2026-04-19T14:34:21.999Z</time></trkpt><trkpt lat="43.5084853247426" lon="12.63756234457987"><ele>322.0</ele><time>2026-04-19T14:34:22.999Z</time></trkpt><trkpt lat="43.508331156184994" lon="12.637447729333918"><ele>322.0</ele><time>2026-04-19T14:34:23.999Z</time></trkpt><trkpt lat="43.508176592969626" lon="12.637343037304161"><ele>322.0</ele><time>2026-04-19T14:34:24.999Z</time></trkpt><trkpt lat="43.50801793052226" lon="12.637238214906658"><ele>322.0</ele><time>2026-04-19T14:34:25.999Z</time></trkpt><trkpt lat="43.5078610667528" lon="12.637138569174756"><ele>320.66666666666663</ele><time>2026-04-19T14:34:26.999Z</time></trkpt><trkpt lat="43.50770125577417" lon="12.637044626858605"><ele>319.3333333333333</ele><time>2026-04-19T14:34:27.999Z</time></trkpt><trkpt lat="43.50754082400753" lon="12.636956091347807"><ele>318.0</ele><time>2026-04-19T14:34:28.999Z</time></trkpt><trkpt lat="43.5073762519896" lon="12.636869352697346"><ele>319.0</ele><time>2026-04-19T14:34:29.999Z</time></trkpt><trkpt lat="43.50721331640812" lon="12.636790968294287"><ele>320.0</ele><time>2026-04-19T14:34:30.999Z</time></trkpt><trkpt lat="43.50705180595876" lon="12.636714088320915"><ele>321.0</ele><time>2026-04-19T14:34:31.999Z</time></trkpt><trkpt lat="43.50689758143421" lon="12.636642750080403"><ele>321.0</ele><time>2026-04-19T14:34:32.999Z</time></trkpt><trkpt lat="43.506745980638705" lon="12.636574597103252"><ele>321.0</ele><time>2026-04-19T14:34:33.999Z</time></trkpt><trkpt lat="43.50659832422826" lon="12.636515781494607"><ele>321.0</ele><time>2026-04-19T14:34:34.999Z</time></trkpt><trkpt lat="43.50644997583633" lon="12.636457322625462"><ele>321.0</ele><time>2026-04-19T14:34:35.999Z</time></trkpt><trkpt lat="43.506301232815055" lon="12.63639901758771"><ele>321.0</ele><time>2026-04-19T14:34:36.999Z</time></trkpt><trkpt lat="43.506152353046225" lon="12.636346176964095"><ele>321.0</ele><time>2026-04-19T14:34:37.999Z</time></trkpt><trkpt lat="43.505996035489794" lon="12.63629518275579"><ele>323.3333333333333</ele><time>2026-04-19T14:34:38.999Z</time></trkpt><trkpt lat="43.50584014961906" lon="12.636244390052846"><ele>325.66666666666663</ele><time>2026-04-19T14:34:39.999Z</time></trkpt><trkpt lat="43.50567815371075" lon="12.636193783368519"><ele>328.0</ele><time>2026-04-19T14:34:40.999Z</time></trkpt><trkpt lat="43.50551630012313" lon="12.63614885094327"><ele>326.3333333333333</ele><time>2026-04-19T14:34:41.999Z</time></trkpt><trkpt lat="43.50534678239632" lon="12.636102636025946"><ele>324.6666666666667</ele><time>2026-04-19T14:34:42.999Z</time></trkpt><trkpt lat="43.50517230644414" lon="12.63605695173661"><ele>323.0</ele><time>2026-04-19T14:34:43.999Z</time></trkpt><trkpt lat="43.50500080200061" lon="12.63600891801344"><ele>323.0</ele><time>2026-04-19T14:34:44.999Z</time></trkpt><trkpt lat="43.50482830713539" lon="12.635960606965531"><ele>323.0</ele><time>2026-04-19T14:34:45.999Z</time></trkpt><trkpt lat="43.50465350477193" lon="12.63591420098483"><ele>323.0</ele><time>2026-04-19T14:34:46.999Z</time></trkpt><trkpt lat="43.50447684140182" lon="12.6358670006113"><ele>323.6666666666667</ele><time>2026-04-19T14:34:47.999Z</time></trkpt><trkpt lat="43.50429594190014" lon="12.635818890409018"><ele>324.3333333333333</ele><time>2026-04-19T14:34:48.999Z</time></trkpt><trkpt lat="43.50411790751426" lon="12.635767847688463"><ele>325.0</ele><time>2026-04-19T14:34:49.999Z</time></trkpt><trkpt lat="43.50394366386371" lon="12.635712467472553"><ele>325.0</ele><time>2026-04-19T14:34:50.999Z</time></trkpt><trkpt lat="43.503768027467146" lon="12.63565449642379"><ele>325.0</ele><time>2026-04-19T14:34:51.999Z</time></trkpt><trkpt lat="43.50358675009843" lon="12.635592257012505"><ele>325.0</ele><time>2026-04-19T14:34:52.999Z</time></trkpt><trkpt lat="43.50340919647668" lon="12.635521465645642"><ele>326.0</ele><time>2026-04-19T14:34:53.999Z</time></trkpt><trkpt lat="43.50323211698151" lon="12.635436553220515"><ele>327.0</ele><time>2026-04-19T14:34:54.999Z</time></trkpt><trkpt lat="43.50305971692588" lon="12.635349002880426"><ele>328.0</ele><time>2026-04-19T14:34:55.999Z</time></trkpt><trkpt lat="43.50287941655876" lon="12.635240624579518"><ele>328.0</ele><time>2026-04-19T14:34:56.999Z</time></trkpt><trkpt lat="43.502708961606174" lon="12.635119999291497"><ele>328.0</ele><time>2026-04-19T14:34:57.999Z</time></trkpt><trkpt lat="43.502542722911684" lon="12.63498011961424"><ele>328.0</ele><time>2026-04-19T14:34:58.999Z</time></trkpt><trkpt lat="43.50237759803327" lon="12.63482854350466"><ele>328.0</ele><time>2026-04-19T14:34:59.999Z</time></trkpt><trkpt lat="43.50222512166242" lon="12.634659666531048"><ele>328.0</ele><time>2026-04-19T14:35:00.999Z</time></trkpt><trkpt lat="43.502079154227104" lon="12.63448362588095"><ele>328.0</ele><time>2026-04-19T14:35:01.999Z</time></trkpt><trkpt lat="43.50194028875117" lon="12.63430121742849"><ele>329.66666666666663</ele><time>2026-04-19T14:35:02.999Z</time></trkpt><trkpt lat="43.50181345003635" lon="12.634110685764767"><ele>331.3333333333333</ele><time>2026-04-19T14:35:03.999Z</time></trkpt><trkpt lat="43.50169212835205" lon="12.63391284328829"><ele>333.0</ele><time>2026-04-19T14:35:04.999Z</time></trkpt><trkpt lat="43.50157764224802" lon="12.633713932636246"><ele>337.3333333333333</ele><time>2026-04-19T14:35:05.999Z</time></trkpt><trkpt lat="43.50147135393739" lon="12.633510650834033"><ele>341.66666666666663</ele><time>2026-04-19T14:35:06.999Z</time></trkpt><trkpt lat="43.50137281872513" lon="12.633300637194514"><ele>346.0</ele><time>2026-04-19T14:35:07.999Z</time></trkpt><trkpt lat="43.50128250509559" lon="12.633096160106966"><ele>341.0</ele><time>2026-04-19T14:35:08.999Z</time></trkpt><trkpt lat="43.50119857854336" lon="12.632897393124674"><ele>336.0</ele><time>2026-04-19T14:35:09.999Z</time></trkpt><trkpt lat="43.501120126834074" lon="12.632699581452746"><ele>331.0</ele><time>2026-04-19T14:35:10.999Z</time></trkpt><trkpt lat="43.50103921259011" lon="12.63250804424456"><ele>331.0</ele><time>2026-04-19T14:35:11.999Z</time></trkpt><trkpt lat="43.500962525963246" lon="12.632319082330127"><ele>331.0</ele><time>2026-04-19T14:35:12.999Z</time></trkpt><trkpt lat="43.500889837687744" lon="12.632133885352586"><ele>331.0</ele><time>2026-04-19T14:35:13.999Z</time></trkpt><trkpt lat="43.500816618613996" lon="12.631948910439275"><ele>332.0</ele><time>2026-04-19T14:35:14.999Z</time></trkpt><trkpt lat="43.500744088341065" lon="12.631769150764093"><ele>333.0</ele><time>2026-04-19T14:35:15.999Z</time></trkpt><trkpt lat="43.50066568516672" lon="12.631588840469119"><ele>334.0</ele><time>2026-04-19T14:35:17Z</time></trkpt><trkpt lat="43.500585490980875" lon="12.631419067057415"><ele>335.0</ele><time>2026-04-19T14:35:18Z</time></trkpt><trkpt lat="43.500500069073354" lon="12.631251114335548"><ele>336.0</ele><time>2026-04-19T14:35:19Z</time></trkpt><trkpt lat="43.5004103936532" lon="12.631088826674128"><ele>337.0</ele><time>2026-04-19T14:35:20Z</time></trkpt><trkpt lat="43.500317015263725" lon="12.630935946485616"><ele>338.0</ele><time>2026-04-19T14:35:21Z</time></trkpt><trkpt lat="43.50022059994478" lon="12.630789455417197"><ele>339.0</ele><time>2026-04-19T14:35:22Z</time></trkpt><trkpt lat="43.50011841614685" lon="12.630649598489997"><ele>339.0</ele><time>2026-04-19T14:35:23Z</time></trkpt><trkpt lat="43.50000966406405" lon="12.630507305651907"><ele>339.0</ele><time>2026-04-19T14:35:24Z</time></trkpt><trkpt lat="43.49989672352522" lon="12.63037381755298"><ele>339.0</ele><time>2026-04-19T14:35:25Z</time></trkpt><trkpt lat="43.49977404941212" lon="12.630243606051463"><ele>341.3333333333333</ele><time>2026-04-19T14:35:26Z</time></trkpt><trkpt lat="43.49964773371855" lon="12.630118855436377"><ele>343.66666666666663</ele><time>2026-04-19T14:35:27Z</time></trkpt><trkpt lat="43.49951753759007" lon="12.62999813323341"><ele>346.0</ele><time>2026-04-19T14:35:28Z</time></trkpt><trkpt lat="43.499385904545846" lon="12.629888107277681"><ele>346.0</ele><time>2026-04-19T14:35:29Z</time></trkpt><trkpt lat="43.49924723644908" lon="12.629784084924673"><ele>346.0</ele><time>2026-04-19T14:35:30Z</time></trkpt><trkpt lat="43.49910414937377" lon="12.629692816343091"><ele>346.0</ele><time>2026-04-19T14:35:31Z</time></trkpt><trkpt lat="43.49896056509951" lon="12.629599523948205"><ele>346.0</ele><time>2026-04-19T14:35:32Z</time></trkpt><trkpt lat="43.498811321843256" lon="12.629512558386045"><ele>346.0</ele><time>2026-04-19T14:35:33Z</time></trkpt><trkpt lat="43.49866455864323" lon="12.62942853458161"><ele>346.0</ele><time>2026-04-19T14:35:34Z</time></trkpt><trkpt lat="43.49851410712139" lon="12.629341169689857"><ele>347.0</ele><time>2026-04-19T14:35:35Z</time></trkpt><trkpt lat="43.49836082887235" lon="12.629264128202161"><ele>348.0</ele><time>2026-04-19T14:35:36Z</time></trkpt><trkpt lat="43.49820663342784" lon="12.62917956750147"><ele>349.0</ele><time>2026-04-19T14:35:37Z</time></trkpt><trkpt lat="43.49805838605559" lon="12.629098026674932"><ele>346.0</ele><time>2026-04-19T14:35:38Z</time></trkpt><trkpt lat="43.497905755513685" lon="12.629023153981636"><ele>343.0</ele><time>2026-04-19T14:35:39Z</time></trkpt><trkpt lat="43.497758810787005" lon="12.628945862868441"><ele>340.0</ele><time>2026-04-19T14:35:40Z</time></trkpt><trkpt lat="43.497608686240596" lon="12.628861593648404"><ele>340.0</ele><time>2026-04-19T14:35:41Z</time></trkpt><trkpt lat="43.497463466814" lon="12.628778164518234"><ele>340.0</ele><time>2026-04-19T14:35:42Z</time></trkpt><trkpt lat="43.49731758676543" lon="12.62868620157829"><ele>340.0</ele><time>2026-04-19T14:35:43Z</time></trkpt><trkpt lat="43.497171118419615" lon="12.628586956084296"><ele>352.0</ele><time>2026-04-19T14:35:44Z</time></trkpt><trkpt lat="43.497030182499685" lon="12.62849305236357"><ele>364.0</ele><time>2026-04-19T14:35:45Z</time></trkpt><trkpt lat="43.49688318924068" lon="12.628390215540845"><ele>376.0</ele><time>2026-04-19T14:35:46Z</time></trkpt><trkpt lat="43.49674364118827" lon="12.628256753670088"><ele>376.0</ele><time>2026-04-19T14:35:47Z</time></trkpt><trkpt lat="43.49659467388514" lon="12.628131970775277"><ele>376.0</ele><time>2026-04-19T14:35:48Z</time></trkpt><trkpt lat="43.49644615065509" lon="12.628000188800046"><ele>376.0</ele><time>2026-04-19T14:35:49Z</time></trkpt><trkpt lat="43.496297970434284" lon="12.627858228508481"><ele>376.66666666666663</ele><time>2026-04-19T14:35:50Z</time></trkpt><trkpt lat="43.49614492098386" lon="12.627706437858706"><ele>377.3333333333333</ele><time>2026-04-19T14:35:51.073Z</time></trkpt><trkpt lat="43.4960033953829" lon="12.627552852078603"><ele>378.0</ele><time>2026-04-19T14:35:52.06Z</time></trkpt><trkpt lat="43.49520629862031" lon="12.626460456034044"><ele>372.3333333333333</ele><time>2026-04-19T14:35:58Z</time></trkpt><trkpt lat="43.49508619571559" lon="12.626262910820895"><ele>366.66666666666663</ele><time>2026-04-19T14:35:59Z</time></trkpt><trkpt lat="43.494930827186806" lon="12.626041968255628"><ele>361.0</ele><time>2026-04-19T14:36:00Z</time></trkpt><trkpt lat="43.494813781968816" lon="12.625835664071055"><ele>361.3333333333333</ele><time>2026-04-19T14:36:01Z</time></trkpt><trkpt lat="43.49468967675836" lon="12.625625101829103"><ele>361.6666666666667</ele><time>2026-04-19T14:36:02Z</time></trkpt><trkpt lat="43.49456558647743" lon="12.625396748404333"><ele>362.0</ele><time>2026-04-19T14:36:03Z</time></trkpt><trkpt lat="43.494419275255694" lon="12.6251511128233"><ele>357.6666666666667</ele><time>2026-04-19T14:36:04Z</time></trkpt><trkpt lat="43.49431855366066" lon="12.624957449070072"><ele>353.3333333333333</ele><time>2026-04-19T14:36:05Z</time></trkpt><trkpt lat="43.49418826630054" lon="12.624735816047291"><ele>349.0</ele><time>2026-04-19T14:36:06Z</time></trkpt><trkpt lat="43.49405367389247" lon="12.624521823918016"><ele>349.66666666666663</ele><time>2026-04-19T14:36:07Z</time></trkpt><trkpt lat="43.49391217269279" lon="12.624318253712572"><ele>350.3333333333333</ele><time>2026-04-19T14:36:08Z</time></trkpt><trkpt lat="43.49376028163801" lon="12.624119637067356"><ele>351.0</ele><time>2026-04-19T14:36:09Z</time></trkpt><trkpt lat="43.4935991220771" lon="12.623937682849881"><ele>350.3333333333333</ele><time>2026-04-19T14:36:10Z</time></trkpt><trkpt lat="43.493427023019166" lon="12.62377691304412"><ele>349.66666666666663</ele><time>2026-04-19T14:36:11Z</time></trkpt><trkpt lat="43.493251010267635" lon="12.623628844519649"><ele>349.0</ele><time>2026-04-19T14:36:12Z</time></trkpt><trkpt lat="43.493068833698494" lon="12.62349477657544"><ele>352.66666666666663</ele><time>2026-04-19T14:36:13Z</time></trkpt><trkpt lat="43.492884873659" lon="12.623373704204791"><ele>356.3333333333333</ele><time>2026-04-19T14:36:14Z</time></trkpt><trkpt lat="43.49269144626979" lon="12.62327461701386"><ele>360.0</ele><time>2026-04-19T14:36:15Z</time></trkpt><trkpt lat="43.49249487093315" lon="12.62319480787961"><ele>360.0</ele><time>2026-04-19T14:36:16Z</time></trkpt><trkpt lat="43.49229598736944" lon="12.623126063583877"><ele>360.0</ele><time>2026-04-19T14:36:17Z</time></trkpt><trkpt lat="43.49209188056712" lon="12.6230734973289"><ele>360.0</ele><time>2026-04-19T14:36:17.999Z</time></trkpt><trkpt lat="43.49188341678803" lon="12.623031170937345"><ele>362.0</ele><time>2026-04-19T14:36:18.999Z</time></trkpt><trkpt lat="43.491671087370214" lon="12.622990611941319"><ele>364.0</ele><time>2026-04-19T14:36:19.999Z</time></trkpt><trkpt lat="43.49145117074557" lon="12.62294847149151"><ele>366.0</ele><time>2026-04-19T14:36:20.999Z</time></trkpt><trkpt lat="43.49125470793133" lon="12.622897588612995"><ele>372.0</ele><time>2026-04-19T14:36:21.999Z</time></trkpt><trkpt lat="43.49104555929723" lon="12.622840809810073"><ele>378.0</ele><time>2026-04-19T14:36:22.999Z</time></trkpt><trkpt lat="43.49083779196548" lon="12.622766784270876"><ele>384.0</ele><time>2026-04-19T14:36:23.999Z</time></trkpt><trkpt lat="43.490635461703704" lon="12.622675218684607"><ele>376.3333333333333</ele><time>2026-04-19T14:36:24.999Z</time></trkpt><trkpt lat="43.49043790216134" lon="12.622567228988354"><ele>368.66666666666663</ele><time>2026-04-19T14:36:25.999Z</time></trkpt><trkpt lat="43.4902513990326" lon="12.622438487424075"><ele>361.0</ele><time>2026-04-19T14:36:26.999Z</time></trkpt><trkpt lat="43.49007759820459" lon="12.622287331186548"><ele>361.0</ele><time>2026-04-19T14:36:27.999Z</time></trkpt><trkpt lat="43.48991122971059" lon="12.62213049502011"><ele>361.0</ele><time>2026-04-19T14:36:28.999Z</time></trkpt><trkpt lat="43.48975508484798" lon="12.621960234625464"><ele>361.0</ele><time>2026-04-19T14:36:29.999Z</time></trkpt><trkpt lat="43.48960514081234" lon="12.621786232376841"><ele>359.66666666666663</ele><time>2026-04-19T14:36:30.999Z</time></trkpt><trkpt lat="43.48945817603671" lon="12.621608212541895"><ele>358.3333333333333</ele><time>2026-04-19T14:36:31.999Z</time></trkpt><trkpt lat="43.489233046747934" lon="12.621470866426083"><ele>357.0</ele><time>2026-04-19T14:36:32.999Z</time></trkpt><trkpt lat="43.489062771606704" lon="12.621304904965383"><ele>352.0</ele><time>2026-04-19T14:36:33.999Z</time></trkpt><trkpt lat="43.48888922047458" lon="12.621146232169991"><ele>347.0</ele><time>2026-04-19T14:36:34.999Z</time></trkpt><trkpt lat="43.488714112841464" lon="12.620993079855692"><ele>342.0</ele><time>2026-04-19T14:36:35.999Z</time></trkpt><trkpt lat="43.488532787946454" lon="12.620848922588339"><ele>341.6666666666667</ele><time>2026-04-19T14:36:36.999Z</time></trkpt><trkpt lat="43.48834766019565" lon="12.620711783645575"><ele>341.33333333333337</ele><time>2026-04-19T14:36:37.999Z</time></trkpt><trkpt lat="43.48815558963544" lon="12.620589662261493"><ele>341.0</ele><time>2026-04-19T14:36:38.999Z</time></trkpt><trkpt lat="43.48796410986802" lon="12.620485168339856"><ele>341.0</ele><time>2026-04-19T14:36:39.999Z</time></trkpt><trkpt lat="43.487772451144274" lon="12.620392728108383"><ele>341.0</ele><time>2026-04-19T14:36:40.999Z</time></trkpt><trkpt lat="43.487579675960006" lon="12.62031107565703"><ele>341.0</ele><time>2026-04-19T14:36:41.999Z</time></trkpt><trkpt lat="43.48738695554646" lon="12.620240992354054"><ele>341.0</ele><time>2026-04-19T14:36:42.999Z</time></trkpt><trkpt lat="43.487189548335834" lon="12.620182437818352"><ele>341.0</ele><time>2026-04-19T14:36:43.999Z</time></trkpt><trkpt lat="43.48699285099317" lon="12.620133823000423"><ele>341.0</ele><time>2026-04-19T14:36:44.999Z</time></trkpt><trkpt lat="43.486793602034865" lon="12.62008299132089"><ele>341.33333333333337</ele><time>2026-04-19T14:36:45.999Z</time></trkpt><trkpt lat="43.48659644009934" lon="12.62002882932507"><ele>341.6666666666667</ele><time>2026-04-19T14:36:46.999Z</time></trkpt><trkpt lat="43.48639371426826" lon="12.620019417904363"><ele>342.0</ele><time>2026-04-19T14:36:47.999Z</time></trkpt><trkpt lat="43.48619237769743" lon="12.62001093881746"><ele>342.0</ele><time>2026-04-19T14:36:48.999Z</time></trkpt><trkpt lat="43.48598867332995" lon="12.620005228054596"><ele>342.0</ele><time>2026-04-19T14:36:49.999Z</time></trkpt><trkpt lat="43.48578506788412" lon="12.620008893162845"><ele>342.0</ele><time>2026-04-19T14:36:50.999Z</time></trkpt><trkpt lat="43.48558043474041" lon="12.620014230596023"><ele>342.0</ele><time>2026-04-19T14:36:51.999Z</time></trkpt><trkpt lat="43.48537066292631" lon="12.620028449127984"><ele>342.0</ele><time>2026-04-19T14:36:52.999Z</time></trkpt><trkpt lat="43.48516646361583" lon="12.62005051294214"><ele>342.0</ele><time>2026-04-19T14:36:53.999Z</time></trkpt><trkpt lat="43.484962105166495" lon="12.620083158664745"><ele>342.0</ele><time>2026-04-19T14:36:54.999Z</time></trkpt><trkpt lat="43.484771425507326" lon="12.620103820078059"><ele>342.0</ele><time>2026-04-19T14:36:55.999Z</time></trkpt><trkpt lat="43.48458352034977" lon="12.620133933206187"><ele>342.0</ele><time>2026-04-19T14:36:56.999Z</time></trkpt><trkpt lat="43.48439175710169" lon="12.620165383479149"><ele>342.3333333333333</ele><time>2026-04-19T14:36:57.999Z</time></trkpt><trkpt lat="43.48420821162042" lon="12.620200945759095"><ele>342.66666666666663</ele><time>2026-04-19T14:36:58.999Z</time></trkpt><trkpt lat="43.48403110347594" lon="12.620244560693918"><ele>343.0</ele><time>2026-04-19T14:36:59.999Z</time></trkpt><trkpt lat="43.483849986435764" lon="12.620278111012095"><ele>344.66666666666663</ele><time>2026-04-19T14:37:00.999Z</time></trkpt><trkpt lat="43.483668075027104" lon="12.620322373313947"><ele>346.3333333333333</ele><time>2026-04-19T14:37:01.999Z</time></trkpt><trkpt lat="43.48349286515474" lon="12.620361160174157"><ele>348.0</ele><time>2026-04-19T14:37:02.999Z</time></trkpt><trkpt lat="43.48332902135447" lon="12.620400743824053"><ele>348.0</ele><time>2026-04-19T14:37:03.999Z</time></trkpt><trkpt lat="43.48316739272144" lon="12.62044308302068"><ele>348.0</ele><time>2026-04-19T14:37:04.999Z</time></trkpt><trkpt lat="43.483009547408145" lon="12.620478987015762"><ele>348.0</ele><time>2026-04-19T14:37:05.999Z</time></trkpt><trkpt lat="43.48285824583774" lon="12.620513719093724"><ele>349.0</ele><time>2026-04-19T14:37:06.999Z</time></trkpt><trkpt lat="43.48270464124733" lon="12.620553061184683"><ele>350.0</ele><time>2026-04-19T14:37:07.999Z</time></trkpt><trkpt lat="43.482551597072764" lon="12.620592741641557"><ele>351.0</ele><time>2026-04-19T14:37:08.999Z</time></trkpt><trkpt lat="43.482388075999886" lon="12.6206390611974"><ele>351.0</ele><time>2026-04-19T14:37:09.999Z</time></trkpt><trkpt lat="43.48222679134685" lon="12.620685296046947"><ele>351.0</ele><time>2026-04-19T14:37:10.999Z</time></trkpt><trkpt lat="43.48205661948618" lon="12.620737464258815"><ele>351.0</ele><time>2026-04-19T14:37:11.999Z</time></trkpt><trkpt lat="43.4818900480256" lon="12.62079017029221"><ele>351.3333333333333</ele><time>2026-04-19T14:37:12.999Z</time></trkpt><trkpt lat="43.48171718019337" lon="12.620844409415383"><ele>351.66666666666663</ele><time>2026-04-19T14:37:13.999Z</time></trkpt><trkpt lat="43.48154163167423" lon="12.620902868593346"><ele>352.0</ele><time>2026-04-19T14:37:14.999Z</time></trkpt><trkpt lat="43.481368722045154" lon="12.62096163256561"><ele>352.3333333333333</ele><time>2026-04-19T14:37:15.999Z</time></trkpt><trkpt lat="43.48119755027507" lon="12.621020222083287"><ele>352.6666666666667</ele><time>2026-04-19T14:37:16.999Z</time></trkpt><trkpt lat="43.481023896953445" lon="12.621081418648727"><ele>353.0</ele><time>2026-04-19T14:37:17.999Z</time></trkpt><trkpt lat="43.48085433595744" lon="12.621147176273618"><ele>352.0</ele><time>2026-04-19T14:37:18.999Z</time></trkpt><trkpt lat="43.480683492482946" lon="12.621216911934965"><ele>351.0</ele><time>2026-04-19T14:37:19.999Z</time></trkpt><trkpt lat="43.48051243697808" lon="12.62129039208928"><ele>350.0</ele><time>2026-04-19T14:37:20.999Z</time></trkpt><trkpt lat="43.48033733828031" lon="12.621371586958194"><ele>350.0</ele><time>2026-04-19T14:37:21.999Z</time></trkpt><trkpt lat="43.480167341745044" lon="12.621457637769092"><ele>350.0</ele><time>2026-04-19T14:37:23Z</time></trkpt><trkpt lat="43.47999302731151" lon="12.621547960086978"><ele>350.0</ele><time>2026-04-19T14:37:24Z</time></trkpt><trkpt lat="43.47981718150792" lon="12.621644337875583"><ele>350.0</ele><time>2026-04-19T14:37:25Z</time></trkpt><trkpt lat="43.47964359241964" lon="12.621746287305537"><ele>350.0</ele><time>2026-04-19T14:37:26Z</time></trkpt><trkpt lat="43.47946753239607" lon="12.62185938441209"><ele>350.0</ele><time>2026-04-19T14:37:27Z</time></trkpt><trkpt lat="43.479288414699795" lon="12.621978993707106"><ele>350.6666666666667</ele><time>2026-04-19T14:37:28Z</time></trkpt><trkpt lat="43.47910958153195" lon="12.622106011148215"><ele>351.3333333333333</ele><time>2026-04-19T14:37:29Z</time></trkpt><trkpt lat="43.47892904608049" lon="12.622237012325993"><ele>352.0</ele><time>2026-04-19T14:37:30Z</time></trkpt><trkpt lat="43.47874927874968" lon="12.622372790584798"><ele>352.3333333333333</ele><time>2026-04-19T14:37:31Z</time></trkpt><trkpt lat="43.47856245928863" lon="12.622517955546819"><ele>352.6666666666667</ele><time>2026-04-19T14:37:32Z</time></trkpt><trkpt lat="43.478378522701355" lon="12.622664401543293"><ele>353.0</ele><time>2026-04-19T14:37:33Z</time></trkpt><trkpt lat="43.478196632559026" lon="12.622814942882613"><ele>353.0</ele><time>2026-04-19T14:37:34Z</time></trkpt><trkpt lat="43.478012566775774" lon="12.622965220526659"><ele>353.0</ele><time>2026-04-19T14:37:35Z</time></trkpt><trkpt lat="43.477829572689956" lon="12.623112339826097"><ele>353.0</ele><time>2026-04-19T14:37:36Z</time></trkpt><trkpt lat="43.47764635080083" lon="12.623262925087488"><ele>353.6666666666667</ele><time>2026-04-19T14:37:37Z</time></trkpt><trkpt lat="43.4774618867517" lon="12.623412971115876"><ele>354.3333333333333</ele><time>2026-04-19T14:37:38Z</time></trkpt><trkpt lat="43.47727840730883" lon="12.6235575286822"><ele>355.0</ele><time>2026-04-19T14:37:39Z</time></trkpt><trkpt lat="43.4770916609123" lon="12.623700649363528"><ele>355.0</ele><time>2026-04-19T14:37:40Z</time></trkpt><trkpt lat="43.476900961833046" lon="12.623835501516664"><ele>355.0</ele><time>2026-04-19T14:37:41Z</time></trkpt><trkpt lat="43.47670765584456" lon="12.623960049009805"><ele>355.0</ele><time>2026-04-19T14:37:42Z</time></trkpt><trkpt lat="43.47651133413184" lon="12.624062973708734"><ele>355.0</ele><time>2026-04-19T14:37:43Z</time></trkpt><trkpt lat="43.476307507290294" lon="12.624145158263902"><ele>355.0</ele><time>2026-04-19T14:37:44Z</time></trkpt><trkpt lat="43.47610654632425" lon="12.624214242986932"><ele>355.0</ele><time>2026-04-19T14:37:45Z</time></trkpt><trkpt lat="43.4759053824863" lon="12.62426355877528"><ele>356.66666666666663</ele><time>2026-04-19T14:37:46Z</time></trkpt><trkpt lat="43.47570730477344" lon="12.624300057905511"><ele>358.3333333333333</ele><time>2026-04-19T14:37:47Z</time></trkpt><trkpt lat="43.475513951034394" lon="12.624323745700867"><ele>360.0</ele><time>2026-04-19T14:37:48Z</time></trkpt><trkpt lat="43.47532375976787" lon="12.62433741227491"><ele>363.6666666666667</ele><time>2026-04-19T14:37:49Z</time></trkpt><trkpt lat="43.47513654869902" lon="12.624309622927663"><ele>367.33333333333337</ele><time>2026-04-19T14:37:50Z</time></trkpt><trkpt lat="43.47495343565081" lon="12.624294965999827"><ele>371.0</ele><time>2026-04-19T14:37:51Z</time></trkpt><trkpt lat="43.47475692360915" lon="12.624268361630516"><ele>373.6666666666667</ele><time>2026-04-19T14:37:52Z</time></trkpt><trkpt lat="43.474566922985446" lon="12.624259975934791"><ele>376.3333333333333</ele><time>2026-04-19T14:37:53Z</time></trkpt><trkpt lat="43.47437839497684" lon="12.624226386150633"><ele>379.0</ele><time>2026-04-19T14:37:54Z</time></trkpt><trkpt lat="43.47418955461061" lon="12.624192459763394"><ele>379.0</ele><time>2026-04-19T14:37:55Z</time></trkpt><trkpt lat="43.47400074575565" lon="12.624158573396281"><ele>379.0</ele><time>2026-04-19T14:37:56Z</time></trkpt><trkpt lat="43.473811823411154" lon="12.624124359837571"><ele>379.0</ele><time>2026-04-19T14:37:57Z</time></trkpt><trkpt lat="43.47360881123236" lon="12.624087970711253"><ele>375.0</ele><time>2026-04-19T14:37:58.075Z</time></trkpt><trkpt lat="43.47354157893498" lon="12.62408602661755"><ele>371.0</ele><time>2026-04-19T14:37:59Z</time></trkpt><trkpt lat="43.473257982291244" lon="12.624076135032315"><ele>367.0</ele><time>2026-04-19T14:38:00Z</time></trkpt><trkpt lat="43.473099200939274" lon="12.62408789509831"><ele>367.0</ele><time>2026-04-19T14:38:01Z</time></trkpt><trkpt lat="43.472941653566686" lon="12.62409473422822"><ele>367.0</ele><time>2026-04-19T14:38:02Z</time></trkpt><trkpt lat="43.47277918436875" lon="12.624102318195538"><ele>367.0</ele><time>2026-04-19T14:38:03Z</time></trkpt><trkpt lat="43.47261458263646" lon="12.624125293585859"><ele>366.66666666666663</ele><time>2026-04-19T14:38:04Z</time></trkpt><trkpt lat="43.47245354332157" lon="12.62415844365892"><ele>366.3333333333333</ele><time>2026-04-19T14:38:05Z</time></trkpt><trkpt lat="43.47229895031191" lon="12.624198605124795"><ele>366.0</ele><time>2026-04-19T14:38:06Z</time></trkpt><trkpt lat="43.472151434034984" lon="12.624243721443538"><ele>376.33333333333337</ele><time>2026-04-19T14:38:07Z</time></trkpt><trkpt lat="43.472001065710835" lon="12.624300079643348"><ele>386.6666666666667</ele><time>2026-04-19T14:38:08Z</time></trkpt><trkpt lat="43.47185544329769" lon="12.62435911749219"><ele>397.0</ele><time>2026-04-19T14:38:09Z</time></trkpt><trkpt lat="43.471716574310186" lon="12.62443429096099"><ele>391.25</ele><time>2026-04-19T14:38:10Z</time></trkpt><trkpt lat="43.47157411539604" lon="12.624508881957118"><ele>385.5</ele><time>2026-04-19T14:38:11Z</time></trkpt><trkpt lat="43.471438103524214" lon="12.624585815110775"><ele>379.75</ele><time>2026-04-19T14:38:12Z</time></trkpt><trkpt lat="43.4713043597723" lon="12.624664317769417"><ele>374.0</ele><time>2026-04-19T14:38:13Z</time></trkpt><trkpt lat="43.4711825242673" lon="12.624731708940148"><ele>386.5</ele><time>2026-04-19T14:38:14Z</time></trkpt><trkpt lat="43.47105909705956" lon="12.62480907973573"><ele>399.0</ele><time>2026-04-19T14:38:15Z</time></trkpt><trkpt lat="43.47093418207937" lon="12.624888563334189"><ele>411.5</ele><time>2026-04-19T14:38:16Z</time></trkpt><trkpt lat="43.47080480299268" lon="12.6249718461563"><ele>424.0</ele><time>2026-04-19T14:38:17.058Z</time></trkpt><trkpt lat="43.47069003586613" lon="12.625067826584678"><ele>397.0</ele><time>2026-04-19T14:38:18.042Z</time></trkpt><trkpt lat="43.46873019357456" lon="12.626327431512003"><ele>397.0</ele><time>2026-04-19T14:38:22.852Z</time></trkpt><trkpt lat="43.46832118457586" lon="12.626585167671704"><ele>389.0</ele><time>2026-04-19T14:38:23.852Z</time></trkpt><trkpt lat="43.46791189113817" lon="12.626842051869614"><ele>382.0</ele><time>2026-04-19T14:38:24.852Z</time></trkpt><trkpt lat="43.46692944767417" lon="12.627337757052741"><ele>382.0</ele><time>2026-04-19T14:38:37.999Z</time></trkpt><trkpt lat="43.466714987506485" lon="12.62747176784925"><ele>382.0</ele><time>2026-04-19T14:38:38.999Z</time></trkpt><trkpt lat="43.4664843176166" lon="12.627558642264056"><ele>382.0</ele><time>2026-04-19T14:38:39.999Z</time></trkpt><trkpt lat="43.46628179497234" lon="12.62766758846706"><ele>382.0</ele><time>2026-04-19T14:38:40.999Z</time></trkpt><trkpt lat="43.46607108947488" lon="12.627756595898362"><ele>382.0</ele><time>2026-04-19T14:38:41.999Z</time></trkpt><trkpt lat="43.46584040698301" lon="12.627840546215978"><ele>376.5</ele><time>2026-04-19T14:38:42.999Z</time></trkpt><trkpt lat="43.46562446629532" lon="12.627923330854697"><ele>371.0</ele><time>2026-04-19T14:38:43.999Z</time></trkpt><trkpt lat="43.465401924343915" lon="12.628006373856918"><ele>370.5</ele><time>2026-04-19T14:38:44.999Z</time></trkpt><trkpt lat="43.46517311389066" lon="12.628058733167972"><ele>370.0</ele><time>2026-04-19T14:38:45.999Z</time></trkpt><trkpt lat="43.464942651755024" lon="12.628102794388488"><ele>370.0</ele><time>2026-04-19T14:38:46.999Z</time></trkpt><trkpt lat="43.464725345572845" lon="12.628156921303095"><ele>370.0</ele><time>2026-04-19T14:38:47.999Z</time></trkpt><trkpt lat="43.464516752482" lon="12.62817991500587"><ele>370.0</ele><time>2026-04-19T14:38:48.999Z</time></trkpt><trkpt lat="43.46430239721384" lon="12.62820099416059"><ele>370.3333333333333</ele><time>2026-04-19T14:38:49.999Z</time></trkpt><trkpt lat="43.46408966867525" lon="12.628219615014544"><ele>370.6666666666667</ele><time>2026-04-19T14:38:50.999Z</time></trkpt><trkpt lat="43.46387788092319" lon="12.628238995968324"><ele>371.0</ele><time>2026-04-19T14:38:51.999Z</time></trkpt><trkpt lat="43.463670155765115" lon="12.628244043447753"><ele>373.0</ele><time>2026-04-19T14:38:52.999Z</time></trkpt><trkpt lat="43.46346249818082" lon="12.628243131815392"><ele>375.0</ele><time>2026-04-19T14:38:53.999Z</time></trkpt><trkpt lat="43.46325651942782" lon="12.628234236016949"><ele>377.0</ele><time>2026-04-19T14:38:54.999Z</time></trkpt><trkpt lat="43.46305935900769" lon="12.62823088674978"><ele>379.0</ele><time>2026-04-19T14:38:55.999Z</time></trkpt><trkpt lat="43.462855578792485" lon="12.62821609298289"><ele>381.0</ele><time>2026-04-19T14:38:56.999Z</time></trkpt><trkpt lat="43.46265599436489" lon="12.628194613998746"><ele>383.0</ele><time>2026-04-19T14:38:57.999Z</time></trkpt><trkpt lat="43.46246054513239" lon="12.628166779443491"><ele>383.0</ele><time>2026-04-19T14:38:58.999Z</time></trkpt><trkpt lat="43.462266421724344" lon="12.628132785583938"><ele>383.0</ele><time>2026-04-19T14:38:59.999Z</time></trkpt><trkpt lat="43.462070250549644" lon="12.628104729259057"><ele>383.0</ele><time>2026-04-19T14:39:00.999Z</time></trkpt><trkpt lat="43.46187994066303" lon="12.62807177688974"><ele>381.6666666666667</ele><time>2026-04-19T14:39:01.999Z</time></trkpt><trkpt lat="43.461689027180284" lon="12.628032882492398"><ele>380.3333333333333</ele><time>2026-04-19T14:39:02.999Z</time></trkpt><trkpt lat="43.46149999959939" lon="12.627995385274229"><ele>379.0</ele><time>2026-04-19T14:39:03.999Z</time></trkpt><trkpt lat="43.46130897621555" lon="12.627956311874275"><ele>378.3333333333333</ele><time>2026-04-19T14:39:04.999Z</time></trkpt><trkpt lat="43.46112085931008" lon="12.62792393295657"><ele>377.6666666666667</ele><time>2026-04-19T14:39:05.999Z</time></trkpt><trkpt lat="43.460931727124304" lon="12.627890365756093"><ele>377.0</ele><time>2026-04-19T14:39:06.999Z</time></trkpt><trkpt lat="43.46074228411915" lon="12.62786492523751"><ele>377.0</ele><time>2026-04-19T14:39:07.999Z</time></trkpt><trkpt lat="43.46055201064103" lon="12.62783665641869"><ele>377.0</ele><time>2026-04-19T14:39:08.999Z</time></trkpt><trkpt lat="43.46036142307007" lon="12.627806526841178"><ele>377.0</ele><time>2026-04-19T14:39:09.999Z</time></trkpt><trkpt lat="43.46016888685022" lon="12.627785747024605"><ele>376.33333333333337</ele><time>2026-04-19T14:39:10.999Z</time></trkpt><trkpt lat="43.45997740403315" lon="12.627759707195889"><ele>375.6666666666667</ele><time>2026-04-19T14:39:11.999Z</time></trkpt><trkpt lat="43.459783954980246" lon="12.627743618219776"><ele>375.0</ele><time>2026-04-19T14:39:12.999Z</time></trkpt><trkpt lat="43.459588643377586" lon="12.627737849296626"><ele>375.0</ele><time>2026-04-19T14:39:13.999Z</time></trkpt><trkpt lat="43.45939142623126" lon="12.627745942275729"><ele>375.0</ele><time>2026-04-19T14:39:14.999Z</time></trkpt><trkpt lat="43.45919512398467" lon="12.62776098132271"><ele>375.0</ele><time>2026-04-19T14:39:15.999Z</time></trkpt><trkpt lat="43.45899868417286" lon="12.627783427272758"><ele>375.0</ele><time>2026-04-19T14:39:16.999Z</time></trkpt><trkpt lat="43.45880362508242" lon="12.627806197249996"><ele>375.0</ele><time>2026-04-19T14:39:17.999Z</time></trkpt><trkpt lat="43.45860705038357" lon="12.627838729698494"><ele>375.0</ele><time>2026-04-19T14:39:18.999Z</time></trkpt><trkpt lat="43.45841149310749" lon="12.627874520637402"><ele>376.3333333333333</ele><time>2026-04-19T14:39:19.999Z</time></trkpt><trkpt lat="43.458217775544426" lon="12.627922999515155"><ele>377.66666666666663</ele><time>2026-04-19T14:39:20.999Z</time></trkpt><trkpt lat="43.45802228907425" lon="12.627981123173221"><ele>379.0</ele><time>2026-04-19T14:39:21.999Z</time></trkpt><trkpt lat="43.45782562977573" lon="12.628044899133812"><ele>380.0</ele><time>2026-04-19T14:39:22.999Z</time></trkpt><trkpt lat="43.457628073041" lon="12.62811534229651"><ele>381.0</ele><time>2026-04-19T14:39:23.999Z</time></trkpt><trkpt lat="43.457430199757276" lon="12.628192387929868"><ele>382.0</ele><time>2026-04-19T14:39:24.999Z</time></trkpt><trkpt lat="43.4572352474527" lon="12.628282547278767"><ele>384.0</ele><time>2026-04-19T14:39:25.999Z</time></trkpt><trkpt lat="43.45704095310911" lon="12.628380258819659"><ele>386.0</ele><time>2026-04-19T14:39:26.999Z</time></trkpt><trkpt lat="43.45684686499472" lon="12.628491275716826"><ele>388.0</ele><time>2026-04-19T14:39:27.999Z</time></trkpt><trkpt lat="43.45665264466017" lon="12.62859883980603"><ele>386.6666666666667</ele><time>2026-04-19T14:39:29Z</time></trkpt><trkpt lat="43.45646156321289" lon="12.628718011161386"><ele>385.33333333333337</ele><time>2026-04-19T14:39:30Z</time></trkpt><trkpt lat="43.456268518811875" lon="12.628845442896727"><ele>384.0</ele><time>2026-04-19T14:39:31Z</time></trkpt><trkpt lat="43.456078300800314" lon="12.628982404761055"><ele>382.6666666666667</ele><time>2026-04-19T14:39:32Z</time></trkpt><trkpt lat="43.455890477915545" lon="12.629127760291754"><ele>381.33333333333337</ele><time>2026-04-19T14:39:33Z</time></trkpt><trkpt lat="43.45570964795631" lon="12.62927996675494"><ele>380.0</ele><time>2026-04-19T14:39:34Z</time></trkpt><trkpt lat="43.455534890354684" lon="12.629438521677931"><ele>379.6666666666667</ele><time>2026-04-19T14:39:35Z</time></trkpt><trkpt lat="43.45536150276561" lon="12.629593920615976"><ele>379.3333333333333</ele><time>2026-04-19T14:39:36Z</time></trkpt><trkpt lat="43.45518001581104" lon="12.62973508011224"><ele>379.0</ele><time>2026-04-19T14:39:37Z</time></trkpt><trkpt lat="43.45503875358894" lon="12.629929822956168"><ele>379.0</ele><time>2026-04-19T14:39:38Z</time></trkpt><trkpt lat="43.454880865872" lon="12.630101928248969"><ele>379.0</ele><time>2026-04-19T14:39:39Z</time></trkpt><trkpt lat="43.454727734776846" lon="12.630275111212875"><ele>379.0</ele><time>2026-04-19T14:39:40Z</time></trkpt><trkpt lat="43.45458011225996" lon="12.630440890271492"><ele>379.66666666666663</ele><time>2026-04-19T14:39:41Z</time></trkpt><trkpt lat="43.45444169967519" lon="12.630598345372102"><ele>380.3333333333333</ele><time>2026-04-19T14:39:42Z</time></trkpt><trkpt lat="43.454307266111115" lon="12.630755224759543"><ele>381.0</ele><time>2026-04-19T14:39:43Z</time></trkpt><trkpt lat="43.45418134883551" lon="12.630907494574075"><ele>381.0</ele><time>2026-04-19T14:39:44Z</time></trkpt><trkpt lat="43.45404722540265" lon="12.631036020384618"><ele>381.0</ele><time>2026-04-19T14:39:45Z</time></trkpt><trkpt lat="43.45392487726968" lon="12.63117681350168"><ele>381.0</ele><time>2026-04-19T14:39:46Z</time></trkpt><trkpt lat="43.45381012367183" lon="12.631335229353148"><ele>382.33333333333337</ele><time>2026-04-19T14:39:47Z</time></trkpt><trkpt lat="43.453686272840415" lon="12.631474462094582"><ele>383.6666666666667</ele><time>2026-04-19T14:39:48Z</time></trkpt><trkpt lat="43.45355951823265" lon="12.631617527478058"><ele>385.0</ele><time>2026-04-19T14:39:49Z</time></trkpt><trkpt lat="43.453432508727715" lon="12.631759806924233"><ele>385.0</ele><time>2026-04-19T14:39:50Z</time></trkpt><trkpt lat="43.453310731804116" lon="12.631901037085726"><ele>385.0</ele><time>2026-04-19T14:39:51Z</time></trkpt><trkpt lat="43.45318451796192" lon="12.632047773860632"><ele>385.0</ele><time>2026-04-19T14:39:52Z</time></trkpt><trkpt lat="43.45305855638405" lon="12.63218950073051"><ele>385.33333333333337</ele><time>2026-04-19T14:39:53Z</time></trkpt><trkpt lat="43.452925204098406" lon="12.63233534112136"><ele>385.66666666666663</ele><time>2026-04-19T14:39:54Z</time></trkpt><trkpt lat="43.45279152917351" lon="12.632477006823121"><ele>386.0</ele><time>2026-04-19T14:39:55Z</time></trkpt><trkpt lat="43.45265493010129" lon="12.632612760295789"><ele>386.0</ele><time>2026-04-19T14:39:56Z</time></trkpt><trkpt lat="43.45251306229731" lon="12.632748839718827"><ele>386.0</ele><time>2026-04-19T14:39:57Z</time></trkpt><trkpt lat="43.452369093431244" lon="12.63287830279786"><ele>386.0</ele><time>2026-04-19T14:39:58Z</time></trkpt><trkpt lat="43.45221683280379" lon="12.633014151185588"><ele>386.0</ele><time>2026-04-19T14:39:59Z</time></trkpt><trkpt lat="43.4520662131586" lon="12.633140935044137"><ele>386.0</ele><time>2026-04-19T14:40:00Z</time></trkpt><trkpt lat="43.45190758041551" lon="12.633267099713903"><ele>386.0</ele><time>2026-04-19T14:40:01Z</time></trkpt><trkpt lat="43.45174648025502" lon="12.633388464549265"><ele>386.0</ele><time>2026-04-19T14:40:02Z</time></trkpt><trkpt lat="43.45158350565511" lon="12.633503660178489"><ele>386.0</ele><time>2026-04-19T14:40:03Z</time></trkpt><trkpt lat="43.451416661770445" lon="12.633614073242247"><ele>386.0</ele><time>2026-04-19T14:40:04Z</time></trkpt><trkpt lat="43.45125188306655" lon="12.633713516149772"><ele>388.0</ele><time>2026-04-19T14:40:05Z</time></trkpt><trkpt lat="43.451084352076535" lon="12.633806900725506"><ele>390.0</ele><time>2026-04-19T14:40:06Z</time></trkpt><trkpt lat="43.450915731169225" lon="12.633895348521243"><ele>392.0</ele><time>2026-04-19T14:40:07Z</time></trkpt><trkpt lat="43.45074523375756" lon="12.63397270373114"><ele>392.0</ele><time>2026-04-19T14:40:08Z</time></trkpt><trkpt lat="43.45056707904035" lon="12.634039282844713"><ele>392.0</ele><time>2026-04-19T14:40:09Z</time></trkpt><trkpt lat="43.45038957439737" lon="12.634093300901212"><ele>392.0</ele><time>2026-04-19T14:40:10Z</time></trkpt><trkpt lat="43.450206554833464" lon="12.634143057732913"><ele>390.0</ele><time>2026-04-19T14:40:11Z</time></trkpt><trkpt lat="43.450029451545525" lon="12.63418271761489"><ele>388.0</ele><time>2026-04-19T14:40:12Z</time></trkpt><trkpt lat="43.44984493362356" lon="12.634211768474133"><ele>386.0</ele><time>2026-04-19T14:40:13Z</time></trkpt><trkpt lat="43.44966026856267" lon="12.63422376857173"><ele>386.3333333333333</ele><time>2026-04-19T14:40:14Z</time></trkpt><trkpt lat="43.44947501312419" lon="12.634231469093072"><ele>386.66666666666663</ele><time>2026-04-19T14:40:15Z</time></trkpt><trkpt lat="43.449288508149344" lon="12.634223833660187"><ele>387.0</ele><time>2026-04-19T14:40:16Z</time></trkpt><trkpt lat="43.44909932694156" lon="12.634205219079655"><ele>387.0</ele><time>2026-04-19T14:40:17Z</time></trkpt><trkpt lat="43.44891414615383" lon="12.634177965937491"><ele>387.0</ele><time>2026-04-19T14:40:18Z</time></trkpt><trkpt lat="43.44872781538095" lon="12.634159065052668"><ele>387.0</ele><time>2026-04-19T14:40:19Z</time></trkpt><trkpt lat="43.4485414873469" lon="12.634157588824989"><ele>387.66666666666663</ele><time>2026-04-19T14:40:20Z</time></trkpt><trkpt lat="43.44835919582677" lon="12.634174294479816"><ele>388.3333333333333</ele><time>2026-04-19T14:40:20.999Z</time></trkpt><trkpt lat="43.44817132265501" lon="12.634199224125757"><ele>389.0</ele><time>2026-04-19T14:40:21.999Z</time></trkpt><trkpt lat="43.44797907481953" lon="12.634217699480727"><ele>391.3333333333333</ele><time>2026-04-19T14:40:22.999Z</time></trkpt><trkpt lat="43.44778890005892" lon="12.6342201215848"><ele>393.66666666666663</ele><time>2026-04-19T14:40:23.999Z</time></trkpt><trkpt lat="43.44758210065975" lon="12.63422875855826"><ele>396.0</ele><time>2026-04-19T14:40:24.999Z</time></trkpt><trkpt lat="43.44738706310485" lon="12.63418772027538"><ele>396.0</ele><time>2026-04-19T14:40:25.999Z</time></trkpt><trkpt lat="43.44719658818785" lon="12.634124286140384"><ele>396.0</ele><time>2026-04-19T14:40:26.999Z</time></trkpt><trkpt lat="43.44701193414823" lon="12.634060836418275"><ele>396.0</ele><time>2026-04-19T14:40:27.999Z</time></trkpt><trkpt lat="43.44682487658119" lon="12.633994487503731"><ele>397.0</ele><time>2026-04-19T14:40:28.999Z</time></trkpt><trkpt lat="43.446641994429186" lon="12.633928687057942"><ele>398.0</ele><time>2026-04-19T14:40:29.999Z</time></trkpt><trkpt lat="43.44645426161863" lon="12.633871381148458"><ele>399.0</ele><time>2026-04-19T14:40:30.999Z</time></trkpt><trkpt lat="43.44626224366018" lon="12.633833043631952"><ele>399.0</ele><time>2026-04-19T14:40:31.999Z</time></trkpt><trkpt lat="43.44607341858748" lon="12.63381797262633"><ele>399.0</ele><time>2026-04-19T14:40:32.999Z</time></trkpt><trkpt lat="43.445887210746434" lon="12.633837004595096"><ele>399.0</ele><time>2026-04-19T14:40:33.999Z</time></trkpt><trkpt lat="43.44570234517976" lon="12.633879484529583"><ele>399.0</ele><time>2026-04-19T14:40:34.999Z</time></trkpt><trkpt lat="43.44552389389274" lon="12.63393690444364"><ele>399.0</ele><time>2026-04-19T14:40:35.999Z</time></trkpt><trkpt lat="43.44534517613398" lon="12.63401563473206"><ele>399.0</ele><time>2026-04-19T14:40:36.999Z</time></trkpt><trkpt lat="43.44517230737905" lon="12.63411349232321"><ele>398.33333333333337</ele><time>2026-04-19T14:40:37.999Z</time></trkpt><trkpt lat="43.44500755161666" lon="12.634230785856538"><ele>397.6666666666667</ele><time>2026-04-19T14:40:38.999Z</time></trkpt><trkpt lat="43.44484011708847" lon="12.63433499156949"><ele>397.0</ele><time>2026-04-19T14:40:39.999Z</time></trkpt><trkpt lat="43.44466566750904" lon="12.634399189734511"><ele>397.33333333333337</ele><time>2026-04-19T14:40:40.999Z</time></trkpt><trkpt lat="43.444481664777335" lon="12.634429466394161"><ele>397.66666666666663</ele><time>2026-04-19T14:40:41.999Z</time></trkpt><trkpt lat="43.4443000648616" lon="12.634431802530743"><ele>398.0</ele><time>2026-04-19T14:40:42.999Z</time></trkpt><trkpt lat="43.44412141940152" lon="12.634416192118703"><ele>398.0</ele><time>2026-04-19T14:40:43.999Z</time></trkpt><trkpt lat="43.443943997398435" lon="12.634385887617247"><ele>398.0</ele><time>2026-04-19T14:40:44.999Z</time></trkpt><trkpt lat="43.443768239473265" lon="12.634337616599893"><ele>398.0</ele><time>2026-04-19T14:40:45.999Z</time></trkpt><trkpt lat="43.443597391299356" lon="12.634263250464617"><ele>400.0</ele><time>2026-04-19T14:40:46.999Z</time></trkpt><trkpt lat="43.44343334899209" lon="12.634173591191361"><ele>402.0</ele><time>2026-04-19T14:40:47.999Z</time></trkpt><trkpt lat="43.44327086360032" lon="12.634046328294419"><ele>404.0</ele><time>2026-04-19T14:40:48.999Z</time></trkpt><trkpt lat="43.44315633366253" lon="12.633926783833186"><ele>404.0</ele><time>2026-04-19T14:40:49.999Z</time></trkpt><trkpt lat="43.443039897697766" lon="12.633784353315338"><ele>404.0</ele><time>2026-04-19T14:40:50.999Z</time></trkpt><trkpt lat="43.44293186578988" lon="12.633645047013907"><ele>404.0</ele><time>2026-04-19T14:40:51.999Z</time></trkpt><trkpt lat="43.44283775779658" lon="12.633499849954497"><ele>404.0</ele><time>2026-04-19T14:40:52.999Z</time></trkpt><trkpt lat="43.4427812886722" lon="12.63333087226031"><ele>404.25</ele><time>2026-04-19T14:40:53.999Z</time></trkpt><trkpt lat="43.44273662237859" lon="12.633177749278065"><ele>404.5</ele><time>2026-04-19T14:40:54.999Z</time></trkpt><trkpt lat="43.44270147252763" lon="12.633014090489173"><ele>404.75</ele><time>2026-04-19T14:40:55.999Z</time></trkpt><trkpt lat="43.44267391539984" lon="12.632846221575093"><ele>405.0</ele><time>2026-04-19T14:40:56.999Z</time></trkpt><trkpt lat="43.44266683298414" lon="12.63266022106008"><ele>405.0</ele><time>2026-04-19T14:40:57.999Z</time></trkpt><trkpt lat="43.44264777404493" lon="12.632456118670943"><ele>405.0</ele><time>2026-04-19T14:40:58.999Z</time></trkpt><trkpt lat="43.44261556670768" lon="12.6322551804899"><ele>405.0</ele><time>2026-04-19T14:40:59.999Z</time></trkpt><trkpt lat="43.44258978944654" lon="12.632048456147535"><ele>406.0</ele><time>2026-04-19T14:41:00.999Z</time></trkpt><trkpt lat="43.442565243886065" lon="12.631838586296789"><ele>407.0</ele><time>2026-04-19T14:41:01.999Z</time></trkpt><trkpt lat="43.442539573175225" lon="12.631620322681076"><ele>408.0</ele><time>2026-04-19T14:41:02.999Z</time></trkpt><trkpt lat="43.44250656895728" lon="12.631399760866005"><ele>408.0</ele><time>2026-04-19T14:41:03.999Z</time></trkpt><trkpt lat="43.442476564752525" lon="12.63116939588649"><ele>408.0</ele><time>2026-04-19T14:41:04.999Z</time></trkpt><trkpt lat="43.44244544306402" lon="12.630944037218379"><ele>408.0</ele><time>2026-04-19T14:41:05.999Z</time></trkpt><trkpt lat="43.442414295951906" lon="12.630710221401582"><ele>407.0</ele><time>2026-04-19T14:41:06.999Z</time></trkpt><trkpt lat="43.44238289101707" lon="12.630473242576151"><ele>406.0</ele><time>2026-04-19T14:41:07.999Z</time></trkpt><trkpt lat="43.442345446691654" lon="12.630239629808777"><ele>405.0</ele><time>2026-04-19T14:41:08.999Z</time></trkpt><trkpt lat="43.44231232540555" lon="12.630001017471443"><ele>404.33333333333337</ele><time>2026-04-19T14:41:09.999Z</time></trkpt><trkpt lat="43.44227887370579" lon="12.62978012101684"><ele>403.6666666666667</ele><time>2026-04-19T14:41:10.999Z</time></trkpt><trkpt lat="43.44222465986134" lon="12.629572012498034"><ele>403.0</ele><time>2026-04-19T14:41:11.999Z</time></trkpt><trkpt lat="43.442147280312916" lon="12.629366556453723"><ele>404.0</ele><time>2026-04-19T14:41:12.999Z</time></trkpt><trkpt lat="43.442053628182705" lon="12.629168025611841"><ele>405.0</ele><time>2026-04-19T14:41:13.999Z</time></trkpt><trkpt lat="43.4419450605215" lon="12.628986438741245"><ele>406.0</ele><time>2026-04-19T14:41:14.999Z</time></trkpt><trkpt lat="43.44181294822987" lon="12.628833181423023"><ele>406.0</ele><time>2026-04-19T14:41:15.999Z</time></trkpt><trkpt lat="43.441670666797926" lon="12.628687709509427"><ele>406.0</ele><time>2026-04-19T14:41:16.999Z</time></trkpt><trkpt lat="43.44152078999825" lon="12.628558896572427"><ele>406.0</ele><time>2026-04-19T14:41:17.999Z</time></trkpt><trkpt lat="43.441357125233004" lon="12.628452881420102"><ele>405.33333333333337</ele><time>2026-04-19T14:41:18.999Z</time></trkpt><trkpt lat="43.441194468523804" lon="12.62836302253875"><ele>404.66666666666663</ele><time>2026-04-19T14:41:19.999Z</time></trkpt><trkpt lat="43.44104095141045" lon="12.628240371724932"><ele>404.0</ele><time>2026-04-19T14:41:20.999Z</time></trkpt><trkpt lat="43.4408749509524" lon="12.62815292873371"><ele>404.0</ele><time>2026-04-19T14:41:21.999Z</time></trkpt><trkpt lat="43.44073069130026" lon="12.628030204986166"><ele>404.0</ele><time>2026-04-19T14:41:22.999Z</time></trkpt><trkpt lat="43.440583560455224" lon="12.627893479877525"><ele>404.0</ele><time>2026-04-19T14:41:23.999Z</time></trkpt><trkpt lat="43.44045256836459" lon="12.627734128171593"><ele>405.3333333333333</ele><time>2026-04-19T14:41:24.999Z</time></trkpt><trkpt lat="43.440354497940085" lon="12.627545628005793"><ele>406.66666666666663</ele><time>2026-04-19T14:41:25.999Z</time></trkpt><trkpt lat="43.44027564908778" lon="12.627340880129177"><ele>408.0</ele><time>2026-04-19T14:41:26.999Z</time></trkpt><trkpt lat="43.44020875554951" lon="12.627117565464085"><ele>409.0</ele><time>2026-04-19T14:41:27.999Z</time></trkpt><trkpt lat="43.440185911324846" lon="12.626920111028944"><ele>410.0</ele><time>2026-04-19T14:41:28.999Z</time></trkpt><trkpt lat="43.44017783827651" lon="12.626701875707392"><ele>411.0</ele><time>2026-04-19T14:41:29.999Z</time></trkpt><trkpt lat="43.44015782566887" lon="12.626481218725928"><ele>411.0</ele><time>2026-04-19T14:41:30.999Z</time></trkpt><trkpt lat="43.440170986604095" lon="12.626262404739784"><ele>411.0</ele><time>2026-04-19T14:41:31.999Z</time></trkpt><trkpt lat="43.440169619712194" lon="12.626047300385164"><ele>411.0</ele><time>2026-04-19T14:41:32.999Z</time></trkpt><trkpt lat="43.44015430998146" lon="12.625826959505986"><ele>411.25</ele><time>2026-04-19T14:41:33.999Z</time></trkpt><trkpt lat="43.44013597542558" lon="12.625616164771275"><ele>411.5</ele><time>2026-04-19T14:41:35Z</time></trkpt><trkpt lat="43.44009972583576" lon="12.625423711326638"><ele>411.75</ele><time>2026-04-19T14:41:36Z</time></trkpt><trkpt lat="43.44003551713048" lon="12.625238230466183"><ele>412.0</ele><time>2026-04-19T14:41:37Z</time></trkpt><trkpt lat="43.43995632079885" lon="12.62503332042907"><ele>414.0</ele><time>2026-04-19T14:41:38Z</time></trkpt><trkpt lat="43.4398773478169" lon="12.624806998733506"><ele>416.0</ele><time>2026-04-19T14:41:39Z</time></trkpt><trkpt lat="43.439802316813456" lon="12.624576139795884"><ele>418.0</ele><time>2026-04-19T14:41:40Z</time></trkpt><trkpt lat="43.439731626806946" lon="12.624345005780317"><ele>418.33333333333337</ele><time>2026-04-19T14:41:41Z</time></trkpt><trkpt lat="43.43966027818058" lon="12.624101847904006"><ele>418.66666666666663</ele><time>2026-04-19T14:41:42Z</time></trkpt><trkpt lat="43.43959072550026" lon="12.623844563013723"><ele>419.0</ele><time>2026-04-19T14:41:43Z</time></trkpt><trkpt lat="43.43951385910097" lon="12.62357765482077"><ele>419.0</ele><time>2026-04-19T14:41:44Z</time></trkpt><trkpt lat="43.43943433896652" lon="12.623307647217327"><ele>419.0</ele><time>2026-04-19T14:41:45Z</time></trkpt><trkpt lat="43.43935717734435" lon="12.623045709021174"><ele>419.0</ele><time>2026-04-19T14:41:46Z</time></trkpt><trkpt lat="43.439278286831744" lon="12.622788246319512"><ele>420.66666666666663</ele><time>2026-04-19T14:41:47Z</time></trkpt><trkpt lat="43.43920324975896" lon="12.622527493319314"><ele>422.33333333333337</ele><time>2026-04-19T14:41:48Z</time></trkpt><trkpt lat="43.43912256972179" lon="12.622279999568063"><ele>424.0</ele><time>2026-04-19T14:41:49Z</time></trkpt><trkpt lat="43.439022765413725" lon="12.622076461601589"><ele>425.0</ele><time>2026-04-19T14:41:50Z</time></trkpt><trkpt lat="43.43890272555936" lon="12.621902301630804"><ele>426.0</ele><time>2026-04-19T14:41:51Z</time></trkpt><trkpt lat="43.43874597326597" lon="12.621765158951261"><ele>427.0</ele><time>2026-04-19T14:41:52Z</time></trkpt><trkpt lat="43.43859288715929" lon="12.621611475199455"><ele>428.33333333333337</ele><time>2026-04-19T14:41:53Z</time></trkpt><trkpt lat="43.43842773024766" lon="12.621458496011924"><ele>429.66666666666663</ele><time>2026-04-19T14:41:54Z</time></trkpt><trkpt lat="43.43825281976576" lon="12.621304989194945"><ele>431.0</ele><time>2026-04-19T14:41:55Z</time></trkpt><trkpt lat="43.438070493692244" lon="12.621140353358747"><ele>427.3333333333333</ele><time>2026-04-19T14:41:56Z</time></trkpt><trkpt lat="43.437891518925156" lon="12.620964720769543"><ele>423.66666666666663</ele><time>2026-04-19T14:41:57Z</time></trkpt><trkpt lat="43.43771727035583" lon="12.620795635984502"><ele>420.0</ele><time>2026-04-19T14:41:58Z</time></trkpt><trkpt lat="43.43754358042939" lon="12.620637541863108"><ele>420.0</ele><time>2026-04-19T14:41:59Z</time></trkpt><trkpt lat="43.43736971110706" lon="12.6204769800784"><ele>420.0</ele><time>2026-04-19T14:42:00Z</time></trkpt><trkpt lat="43.43720056742632" lon="12.62031684800465"><ele>420.0</ele><time>2026-04-19T14:42:01Z</time></trkpt><trkpt lat="43.43703873175137" lon="12.620155917445265"><ele>419.33333333333337</ele><time>2026-04-19T14:42:02Z</time></trkpt><trkpt lat="43.43687694158047" lon="12.620001756194382"><ele>418.6666666666667</ele><time>2026-04-19T14:42:03Z</time></trkpt><trkpt lat="43.436715039835384" lon="12.619850368274681"><ele>418.0</ele><time>2026-04-19T14:42:04Z</time></trkpt><trkpt lat="43.43655556249594" lon="12.619707258444826"><ele>418.0</ele><time>2026-04-19T14:42:05Z</time></trkpt><trkpt lat="43.43639729539292" lon="12.6195612248353"><ele>418.0</ele><time>2026-04-19T14:42:06Z</time></trkpt><trkpt lat="43.436240575589046" lon="12.61941813861295"><ele>418.0</ele><time>2026-04-19T14:42:07Z</time></trkpt><trkpt lat="43.436089220997545" lon="12.619279765563356"><ele>420.33333333333337</ele><time>2026-04-19T14:42:08Z</time></trkpt><trkpt lat="43.435943638038886" lon="12.61913683515263"><ele>422.66666666666663</ele><time>2026-04-19T14:42:09Z</time></trkpt><trkpt lat="43.4358110607457" lon="12.618992541141788"><ele>425.0</ele><time>2026-04-19T14:42:10Z</time></trkpt><trkpt lat="43.43569947995887" lon="12.618829125643224"><ele>425.0</ele><time>2026-04-19T14:42:11Z</time></trkpt><trkpt lat="43.43559690524896" lon="12.618655892646382"><ele>425.0</ele><time>2026-04-19T14:42:12Z</time></trkpt><trkpt lat="43.43550903293586" lon="12.618475873448132"><ele>425.0</ele><time>2026-04-19T14:42:13Z</time></trkpt><trkpt lat="43.435443371634754" lon="12.61828774909509"><ele>425.0</ele><time>2026-04-19T14:42:14Z</time></trkpt><trkpt lat="43.43539124279217" lon="12.618086107231356"><ele>425.0</ele><time>2026-04-19T14:42:15Z</time></trkpt><trkpt lat="43.435353173640024" lon="12.61787714845681"><ele>425.0</ele><time>2026-04-19T14:42:16Z</time></trkpt><trkpt lat="43.4353265490357" lon="12.617660051291363"><ele>425.66666666666663</ele><time>2026-04-19T14:42:17Z</time></trkpt><trkpt lat="43.43530552643626" lon="12.617428229635053"><ele>426.33333333333337</ele><time>2026-04-19T14:42:18Z</time></trkpt><trkpt lat="43.4352773593924" lon="12.617188125172142"><ele>427.0</ele><time>2026-04-19T14:42:19Z</time></trkpt><trkpt lat="43.43523865515907" lon="12.616928977585877"><ele>428.0</ele><time>2026-04-19T14:42:20Z</time></trkpt><trkpt lat="43.43519787367217" lon="12.616655296264272"><ele>429.0</ele><time>2026-04-19T14:42:21Z</time></trkpt><trkpt lat="43.43516438243648" lon="12.616378254931515"><ele>430.0</ele><time>2026-04-19T14:42:22Z</time></trkpt><trkpt lat="43.43512720253302" lon="12.61609778113165"><ele>432.33333333333337</ele><time>2026-04-19T14:42:23Z</time></trkpt><trkpt lat="43.43508745400768" lon="12.615810133605306"><ele>434.66666666666663</ele><time>2026-04-19T14:42:24Z</time></trkpt><trkpt lat="43.43504863519121" lon="12.615524345412114"><ele>437.0</ele><time>2026-04-19T14:42:25Z</time></trkpt><trkpt lat="43.43500897624767" lon="12.615233653990407"><ele>439.3333333333333</ele><time>2026-04-19T14:42:25.999Z</time></trkpt><trkpt lat="43.43496741101942" lon="12.614947103422448"><ele>441.66666666666663</ele><time>2026-04-19T14:42:26.999Z</time></trkpt><trkpt lat="43.434921527424216" lon="12.614675192639238"><ele>444.0</ele><time>2026-04-19T14:42:27.999Z</time></trkpt><trkpt lat="43.4348678835315" lon="12.614422300446993"><ele>447.66666666666663</ele><time>2026-04-19T14:42:28.999Z</time></trkpt><trkpt lat="43.43479496605893" lon="12.614172574390148"><ele>451.3333333333333</ele><time>2026-04-19T14:42:29.999Z</time></trkpt><trkpt lat="43.434699242629684" lon="12.61391555487863"><ele>455.0</ele><time>2026-04-19T14:42:30.999Z</time></trkpt><trkpt lat="43.43458800864048" lon="12.613656343769689"><ele>449.66666666666663</ele><time>2026-04-19T14:42:31.999Z</time></trkpt><trkpt lat="43.43447180892242" lon="12.613393505294084"><ele>444.33333333333337</ele><time>2026-04-19T14:42:32.999Z</time></trkpt><trkpt lat="43.434358177889855" lon="12.61312628348095"><ele>439.0</ele><time>2026-04-19T14:42:33.999Z</time></trkpt><trkpt lat="43.43424780173445" lon="12.612860117316613"><ele>440.6666666666667</ele><time>2026-04-19T14:42:34.999Z</time></trkpt><trkpt lat="43.43413772689387" lon="12.61259531343589"><ele>442.33333333333337</ele><time>2026-04-19T14:42:35.999Z</time></trkpt><trkpt lat="43.43403306848924" lon="12.612338408362818"><ele>444.0</ele><time>2026-04-19T14:42:36.999Z</time></trkpt><trkpt lat="43.43393166770968" lon="12.61209138945289"><ele>443.66666666666663</ele><time>2026-04-19T14:42:37.999Z</time></trkpt><trkpt lat="43.433835002367246" lon="12.611862273842695"><ele>443.3333333333333</ele><time>2026-04-19T14:42:38.999Z</time></trkpt><trkpt lat="43.43374152935731" lon="12.6116634187173"><ele>443.0</ele><time>2026-04-19T14:42:39.999Z</time></trkpt><trkpt lat="43.433638760711304" lon="12.611501135813795"><ele>443.0</ele><time>2026-04-19T14:42:40.999Z</time></trkpt><trkpt lat="43.43352515794961" lon="12.611381132894616"><ele>443.0</ele><time>2026-04-19T14:42:41.999Z</time></trkpt><trkpt lat="43.433395469115084" lon="12.611291555877056"><ele>443.0</ele><time>2026-04-19T14:42:42.999Z</time></trkpt><trkpt lat="43.433247502042434" lon="12.611234611412826"><ele>443.0</ele><time>2026-04-19T14:42:43.999Z</time></trkpt><trkpt lat="43.433092142050576" lon="12.611182208465731"><ele>444.66666666666663</ele><time>2026-04-19T14:42:44.999Z</time></trkpt><trkpt lat="43.43293063494063" lon="12.611092782451149"><ele>446.33333333333337</ele><time>2026-04-19T14:42:45.999Z</time></trkpt><trkpt lat="43.43275673225261" lon="12.611034491834262"><ele>448.0</ele><time>2026-04-19T14:42:46.999Z</time></trkpt><trkpt lat="43.4325869586404" lon="12.610938629586954"><ele>448.0</ele><time>2026-04-19T14:42:47.999Z</time></trkpt><trkpt lat="43.432427867902824" lon="12.610822878857594"><ele>448.0</ele><time>2026-04-19T14:42:48.999Z</time></trkpt><trkpt lat="43.43228050731998" lon="12.61068927342507"><ele>448.0</ele><time>2026-04-19T14:42:49.999Z</time></trkpt><trkpt lat="43.43214127842403" lon="12.610558871072541"><ele>454.0</ele><time>2026-04-19T14:42:50.999Z</time></trkpt><trkpt lat="43.43200287212984" lon="12.61046383278207"><ele>460.0</ele><time>2026-04-19T14:42:51.999Z</time></trkpt><trkpt lat="43.431855830075634" lon="12.610394427871576"><ele>466.0</ele><time>2026-04-19T14:42:52.999Z</time></trkpt><trkpt lat="43.43169476758921" lon="12.610340622279631"><ele>465.6666666666667</ele><time>2026-04-19T14:42:53.999Z</time></trkpt><trkpt lat="43.43152133514698" lon="12.61028951209448"><ele>465.33333333333337</ele><time>2026-04-19T14:42:54.999Z</time></trkpt><trkpt lat="43.4313476352845" lon="12.610229140973289"><ele>465.0</ele><time>2026-04-19T14:42:55.999Z</time></trkpt><trkpt lat="43.4311763483183" lon="12.610162419246603"><ele>465.0</ele><time>2026-04-19T14:42:56.999Z</time></trkpt><trkpt lat="43.43101059207345" lon="12.610070476925474"><ele>465.0</ele><time>2026-04-19T14:42:57.999Z</time></trkpt><trkpt lat="43.43085720579432" lon="12.609923783105417"><ele>465.0</ele><time>2026-04-19T14:42:58.999Z</time></trkpt><trkpt lat="43.430691406938294" lon="12.609798325184924"><ele>465.0</ele><time>2026-04-19T14:42:59.999Z</time></trkpt><trkpt lat="43.430543339221565" lon="12.609647042329122"><ele>465.0</ele><time>2026-04-19T14:43:00.999Z</time></trkpt><trkpt lat="43.43039437939303" lon="12.60949271690131"><ele>465.0</ele><time>2026-04-19T14:43:01.999Z</time></trkpt><trkpt lat="43.43024944161888" lon="12.609334550994316"><ele>466.33333333333337</ele><time>2026-04-19T14:43:02.999Z</time></trkpt><trkpt lat="43.43011643758964" lon="12.609175094726115"><ele>467.6666666666667</ele><time>2026-04-19T14:43:03.999Z</time></trkpt><trkpt lat="43.42998419255482" lon="12.609004052887599"><ele>469.0</ele><time>2026-04-19T14:43:04.999Z</time></trkpt><trkpt lat="43.429865006783395" lon="12.608835776757788"><ele>469.0</ele><time>2026-04-19T14:43:05.999Z</time></trkpt><trkpt lat="43.42974515522773" lon="12.608668412204905"><ele>469.0</ele><time>2026-04-19T14:43:06.999Z</time></trkpt><trkpt lat="43.4296257631628" lon="12.608496243924623"><ele>469.0</ele><time>2026-04-19T14:43:07.999Z</time></trkpt><trkpt lat="43.42950543701933" lon="12.608322504461611"><ele>468.0</ele><time>2026-04-19T14:43:08.999Z</time></trkpt><trkpt lat="43.42938047414894" lon="12.608144473828041"><ele>467.0</ele><time>2026-04-19T14:43:09.999Z</time></trkpt><trkpt lat="43.42924961372055" lon="12.607974311937701"><ele>466.0</ele><time>2026-04-19T14:43:10.999Z</time></trkpt><trkpt lat="43.429115479991154" lon="12.60781498538238"><ele>466.0</ele><time>2026-04-19T14:43:11.999Z</time></trkpt><trkpt lat="43.42897377175872" lon="12.607672366245264"><ele>466.0</ele><time>2026-04-19T14:43:12.999Z</time></trkpt><trkpt lat="43.428821379088646" lon="12.607536092051367"><ele>466.0</ele><time>2026-04-19T14:43:13.999Z</time></trkpt><trkpt lat="43.428667542584385" lon="12.607388827990263"><ele>465.0</ele><time>2026-04-19T14:43:14.999Z</time></trkpt><trkpt lat="43.428518879792954" lon="12.60722258247672"><ele>464.0</ele><time>2026-04-19T14:43:15.999Z</time></trkpt><trkpt lat="43.42836932081058" lon="12.607032524753802"><ele>463.0</ele><time>2026-04-19T14:43:16.999Z</time></trkpt><trkpt lat="43.42821188474898" lon="12.606807526846495"><ele>463.0</ele><time>2026-04-19T14:43:17.999Z</time></trkpt><trkpt lat="43.428062778895146" lon="12.606573702560256"><ele>463.0</ele><time>2026-04-19T14:43:18.999Z</time></trkpt><trkpt lat="43.427911389535005" lon="12.606329668810703"><ele>465.6666666666667</ele><time>2026-04-19T14:43:19.999Z</time></trkpt><trkpt lat="43.42776320899712" lon="12.606093997203592"><ele>468.33333333333337</ele><time>2026-04-19T14:43:20.999Z</time></trkpt><trkpt lat="43.4276312913479" lon="12.605878916740153"><ele>471.0</ele><time>2026-04-19T14:43:21.999Z</time></trkpt><trkpt lat="43.427492983289994" lon="12.605676429642822"><ele>471.0</ele><time>2026-04-19T14:43:22.999Z</time></trkpt><trkpt lat="43.4273525269982" lon="12.605489774608122"><ele>471.0</ele><time>2026-04-19T14:43:23.999Z</time></trkpt><trkpt lat="43.42720887723119" lon="12.605303314138808"><ele>471.0</ele><time>2026-04-19T14:43:24.999Z</time></trkpt><trkpt lat="43.427057980883724" lon="12.605114849915283"><ele>471.66666666666663</ele><time>2026-04-19T14:43:25.999Z</time></trkpt><trkpt lat="43.426896535319045" lon="12.604912483517202"><ele>472.3333333333333</ele><time>2026-04-19T14:43:26.999Z</time></trkpt><trkpt lat="43.42673392674042" lon="12.604712524948503"><ele>473.0</ele><time>2026-04-19T14:43:27.999Z</time></trkpt><trkpt lat="43.42657355262294" lon="12.604513762148235"><ele>473.0</ele><time>2026-04-19T14:43:28.999Z</time></trkpt><trkpt lat="43.42642627372751" lon="12.604320794895155"><ele>473.0</ele><time>2026-04-19T14:43:29.999Z</time></trkpt><trkpt lat="43.42629236061108" lon="12.604132911694064"><ele>473.0</ele><time>2026-04-19T14:43:30.999Z</time></trkpt><trkpt lat="43.426181673163434" lon="12.603940996651458"><ele>473.0</ele><time>2026-04-19T14:43:31.999Z</time></trkpt><trkpt lat="43.42610119978668" lon="12.603730153482285"><ele>473.0</ele><time>2026-04-19T14:43:32.999Z</time></trkpt><trkpt lat="43.426032950848956" lon="12.603505889480227"><ele>473.0</ele><time>2026-04-19T14:43:33.999Z</time></trkpt><trkpt lat="43.42596749518542" lon="12.603278165555503"><ele>471.3333333333333</ele><time>2026-04-19T14:43:34.999Z</time></trkpt><trkpt lat="43.425896768762584" lon="12.603049643024509"><ele>469.66666666666663</ele><time>2026-04-19T14:43:35.999Z</time></trkpt><trkpt lat="43.42582394529626" lon="12.602825597042985"><ele>468.0</ele><time>2026-04-19T14:43:36.999Z</time></trkpt><trkpt lat="43.42574936480452" lon="12.602598061911147"><ele>468.0</ele><time>2026-04-19T14:43:37.999Z</time></trkpt><trkpt lat="43.42567495016196" lon="12.602370542194063"><ele>468.0</ele><time>2026-04-19T14:43:38.998Z</time></trkpt><trkpt lat="43.425599007240415" lon="12.60214282431968"><ele>468.0</ele><time>2026-04-19T14:43:39.998Z</time></trkpt><trkpt lat="43.42551966831286" lon="12.601914957303345"><ele>466.0</ele><time>2026-04-19T14:43:41Z</time></trkpt><trkpt lat="43.42544163931515" lon="12.601684081742398"><ele>464.0</ele><time>2026-04-19T14:43:42Z</time></trkpt><trkpt lat="43.42536088797142" lon="12.601446295861216"><ele>462.0</ele><time>2026-04-19T14:43:43Z</time></trkpt><trkpt lat="43.42527584867406" lon="12.601206645161836"><ele>462.0</ele><time>2026-04-19T14:43:44Z</time></trkpt><trkpt lat="43.42520238789798" lon="12.600972445100954"><ele>462.0</ele><time>2026-04-19T14:43:45Z</time></trkpt><trkpt lat="43.42512689902219" lon="12.600737207548711"><ele>462.0</ele><time>2026-04-19T14:43:46Z</time></trkpt><trkpt lat="43.425050768821315" lon="12.600499932006857"><ele>464.0</ele><time>2026-04-19T14:43:47Z</time></trkpt><trkpt lat="43.424967690198976" lon="12.60026570937285"><ele>466.0</ele><time>2026-04-19T14:43:48Z</time></trkpt><trkpt lat="43.424896292893585" lon="12.600026042217769"><ele>468.0</ele><time>2026-04-19T14:43:49Z</time></trkpt><trkpt lat="43.424822540255654" lon="12.599796514243566"><ele>468.0</ele><time>2026-04-19T14:43:50Z</time></trkpt><trkpt lat="43.424745295954025" lon="12.599566221934008"><ele>468.0</ele><time>2026-04-19T14:43:51Z</time></trkpt><trkpt lat="43.42466476383129" lon="12.599335989597899"><ele>468.0</ele><time>2026-04-19T14:43:52Z</time></trkpt><trkpt lat="43.424587689608614" lon="12.599108471968844"><ele>467.66666666666663</ele><time>2026-04-19T14:43:53Z</time></trkpt><trkpt lat="43.424511991284895" lon="12.5988832031068"><ele>467.3333333333333</ele><time>2026-04-19T14:43:54Z</time></trkpt><trkpt lat="43.42443722372034" lon="12.598653755462653"><ele>467.0</ele><time>2026-04-19T14:43:55Z</time></trkpt><trkpt lat="43.42436491659806" lon="12.598429462093799"><ele>467.0</ele><time>2026-04-19T14:43:56Z</time></trkpt><trkpt lat="43.42429217689503" lon="12.598198996183685"><ele>467.0</ele><time>2026-04-19T14:43:57Z</time></trkpt><trkpt lat="43.424218063002314" lon="12.597976255800518"><ele>467.0</ele><time>2026-04-19T14:43:58Z</time></trkpt><trkpt lat="43.42414296464994" lon="12.597753324078411"><ele>468.0</ele><time>2026-04-19T14:43:59Z</time></trkpt><trkpt lat="43.42406773983264" lon="12.59753560894992"><ele>469.0</ele><time>2026-04-19T14:44:00Z</time></trkpt><trkpt lat="43.42399643008688" lon="12.597310800180946"><ele>470.0</ele><time>2026-04-19T14:44:01Z</time></trkpt><trkpt lat="43.42392420322651" lon="12.597087571106028"><ele>469.3333333333333</ele><time>2026-04-19T14:44:02Z</time></trkpt><trkpt lat="43.42385058285447" lon="12.59687711424223"><ele>468.66666666666663</ele><time>2026-04-19T14:44:03Z</time></trkpt><trkpt lat="43.42377520216912" lon="12.596648656770233"><ele>468.0</ele><time>2026-04-19T14:44:04Z</time></trkpt><trkpt lat="43.423699147507115" lon="12.596424386129048"><ele>468.0</ele><time>2026-04-19T14:44:05Z</time></trkpt><trkpt lat="43.423616215657056" lon="12.596198036548456"><ele>468.0</ele><time>2026-04-19T14:44:06Z</time></trkpt><trkpt lat="43.42355074781451" lon="12.595981443123847"><ele>468.0</ele><time>2026-04-19T14:44:07Z</time></trkpt><trkpt lat="43.42347489088646" lon="12.595753453839162"><ele>468.66666666666663</ele><time>2026-04-19T14:44:08Z</time></trkpt><trkpt lat="43.42339976509916" lon="12.595526600115702"><ele>469.3333333333333</ele><time>2026-04-19T14:44:09Z</time></trkpt><trkpt lat="43.42332515479268" lon="12.595301178353749"><ele>470.0</ele><time>2026-04-19T14:44:10Z</time></trkpt><trkpt lat="43.42324821575576" lon="12.595073030005222"><ele>471.3333333333333</ele><time>2026-04-19T14:44:11Z</time></trkpt><trkpt lat="43.423171613632526" lon="12.59484630372489"><ele>472.66666666666663</ele><time>2026-04-19T14:44:12Z</time></trkpt><trkpt lat="43.42309733547877" lon="12.594627512786387"><ele>474.0</ele><time>2026-04-19T14:44:13Z</time></trkpt><trkpt lat="43.423019986634905" lon="12.594412854796476"><ele>473.66666666666663</ele><time>2026-04-19T14:44:14Z</time></trkpt><trkpt lat="43.42294171120595" lon="12.59422279763709"><ele>473.3333333333333</ele><time>2026-04-19T14:44:15Z</time></trkpt><trkpt lat="43.42284949767429" lon="12.594030425501288"><ele>473.0</ele><time>2026-04-19T14:44:16Z</time></trkpt><trkpt lat="43.42275883797955" lon="12.593877842416227"><ele>473.0</ele><time>2026-04-19T14:44:17Z</time></trkpt><trkpt lat="43.4226640726563" lon="12.59374457065778"><ele>473.0</ele><time>2026-04-19T14:44:18Z</time></trkpt><trkpt lat="43.42256002104645" lon="12.59362215234037"><ele>473.0</ele><time>2026-04-19T14:44:19Z</time></trkpt><trkpt lat="43.42245284917068" lon="12.59350621746238"><ele>473.0</ele><time>2026-04-19T14:44:20Z</time></trkpt><trkpt lat="43.422338147525764" lon="12.593396629271687"><ele>474.25</ele><time>2026-04-19T14:44:21Z</time></trkpt><trkpt lat="43.42222469942565" lon="12.593282200458047"><ele>475.5</ele><time>2026-04-19T14:44:22Z</time></trkpt><trkpt lat="43.42211678791656" lon="12.593155140381588"><ele>476.75</ele><time>2026-04-19T14:44:23Z</time></trkpt><trkpt lat="43.422008781194556" lon="12.593020511386612"><ele>478.0</ele><time>2026-04-19T14:44:24Z</time></trkpt><trkpt lat="43.42190052217207" lon="12.592886526736795"><ele>482.25</ele><time>2026-04-19T14:44:25Z</time></trkpt><trkpt lat="43.421787837590315" lon="12.592757246109104"><ele>486.5</ele><time>2026-04-19T14:44:26Z</time></trkpt><trkpt lat="43.421694682377" lon="12.592614459278911"><ele>490.75</ele><time>2026-04-19T14:44:27Z</time></trkpt><trkpt lat="43.42159865834667" lon="12.592460969770391"><ele>495.0</ele><time>2026-04-19T14:44:27.999Z</time></trkpt><trkpt lat="43.421499283738136" lon="12.592316055969407"><ele>495.0</ele><time>2026-04-19T14:44:28.999Z</time></trkpt><trkpt lat="43.42139668604649" lon="12.592166917627283"><ele>495.0</ele><time>2026-04-19T14:44:29.999Z</time></trkpt><trkpt lat="43.421291365177034" lon="12.592011798229287"><ele>495.0</ele><time>2026-04-19T14:44:30.999Z</time></trkpt><trkpt lat="43.42118297557276" lon="12.59184880469038"><ele>494.0</ele><time>2026-04-19T14:44:31.999Z</time></trkpt><trkpt lat="43.421076779804785" lon="12.591680848790121"><ele>493.0</ele><time>2026-04-19T14:44:32.999Z</time></trkpt><trkpt lat="43.420967613858785" lon="12.591514717182617"><ele>492.0</ele><time>2026-04-19T14:44:33.999Z</time></trkpt><trkpt lat="43.420862635663234" lon="12.591342670976239"><ele>496.66666666666663</ele><time>2026-04-19T14:44:34.999Z</time></trkpt><trkpt lat="43.42075255009322" lon="12.591162130428057"><ele>501.3333333333333</ele><time>2026-04-19T14:44:35.999Z</time></trkpt><trkpt lat="43.42064236579542" lon="12.590982631374029"><ele>506.0</ele><time>2026-04-19T14:44:36.999Z</time></trkpt><trkpt lat="43.420539517395184" lon="12.590787254124203"><ele>501.3333333333333</ele><time>2026-04-19T14:44:37.999Z</time></trkpt><trkpt lat="43.42044236951762" lon="12.590562909145225"><ele>496.66666666666663</ele><time>2026-04-19T14:44:38.999Z</time></trkpt><trkpt lat="43.42037896800834" lon="12.590372147323182"><ele>492.0</ele><time>2026-04-19T14:44:39.999Z</time></trkpt><trkpt lat="43.420295271607166" lon="12.590163991093956"><ele>492.0</ele><time>2026-04-19T14:44:40.999Z</time></trkpt><trkpt lat="43.420203239931034" lon="12.589961599297816"><ele>492.0</ele><time>2026-04-19T14:44:41.999Z</time></trkpt><trkpt lat="43.420108848581776" lon="12.589758212198545"><ele>492.0</ele><time>2026-04-19T14:44:42.999Z</time></trkpt><trkpt lat="43.4200073572339" lon="12.58955934919849"><ele>495.33333333333337</ele><time>2026-04-19T14:44:43.999Z</time></trkpt><trkpt lat="43.41989404820083" lon="12.589369800401885"><ele>498.6666666666667</ele><time>2026-04-19T14:44:44.999Z</time></trkpt><trkpt lat="43.4197724402169" lon="12.58918367869799"><ele>502.0</ele><time>2026-04-19T14:44:45.999Z</time></trkpt><trkpt lat="43.419651006062885" lon="12.589004620281985"><ele>499.0</ele><time>2026-04-19T14:44:46.999Z</time></trkpt><trkpt lat="43.41952385914993" lon="12.588820381492875"><ele>496.0</ele><time>2026-04-19T14:44:47.999Z</time></trkpt><trkpt lat="43.41938849583144" lon="12.58864430110378"><ele>493.0</ele><time>2026-04-19T14:44:48.999Z</time></trkpt><trkpt lat="43.41925481481565" lon="12.588464532548373"><ele>493.0</ele><time>2026-04-19T14:44:49.999Z</time></trkpt><trkpt lat="43.41912487096941" lon="12.588287933192877"><ele>493.0</ele><time>2026-04-19T14:44:50.999Z</time></trkpt><trkpt lat="43.41898940976596" lon="12.588110529642803"><ele>493.0</ele><time>2026-04-19T14:44:51.999Z</time></trkpt><trkpt lat="43.41885642445992" lon="12.587929908285144"><ele>494.0</ele><time>2026-04-19T14:44:52.999Z</time></trkpt><trkpt lat="43.41872828207644" lon="12.587744588283277"><ele>495.0</ele><time>2026-04-19T14:44:53.999Z</time></trkpt><trkpt lat="43.41859377249856" lon="12.587555830112544"><ele>496.0</ele><time>2026-04-19T14:44:54.999Z</time></trkpt><trkpt lat="43.418451450216075" lon="12.58737300082805"><ele>496.0</ele><time>2026-04-19T14:44:55.999Z</time></trkpt><trkpt lat="43.41831436832577" lon="12.587201200501624"><ele>496.0</ele><time>2026-04-19T14:44:56.999Z</time></trkpt><trkpt lat="43.418191774156384" lon="12.587026902104482"><ele>496.0</ele><time>2026-04-19T14:44:57.999Z</time></trkpt><trkpt lat="43.41806754981939" lon="12.586869521520745"><ele>496.33333333333337</ele><time>2026-04-19T14:44:58.999Z</time></trkpt><trkpt lat="43.41792373274864" lon="12.586724038238282"><ele>496.66666666666663</ele><time>2026-04-19T14:44:59.999Z</time></trkpt><trkpt lat="43.41777185992831" lon="12.586613260452118"><ele>497.0</ele><time>2026-04-19T14:45:00.999Z</time></trkpt><trkpt lat="43.417613755372194" lon="12.58651528370386"><ele>497.0</ele><time>2026-04-19T14:45:01.999Z</time></trkpt><trkpt lat="43.41745586621984" lon="12.586431974556017"><ele>497.0</ele><time>2026-04-19T14:45:02.999Z</time></trkpt><trkpt lat="43.417302419010085" lon="12.58633735173463"><ele>497.0</ele><time>2026-04-19T14:45:03.999Z</time></trkpt><trkpt lat="43.417145811915226" lon="12.58623851247592"><ele>500.3333333333333</ele><time>2026-04-19T14:45:04.999Z</time></trkpt><trkpt lat="43.416991245906345" lon="12.586142681683581"><ele>503.66666666666663</ele><time>2026-04-19T14:45:05.999Z</time></trkpt><trkpt lat="43.41683691183632" lon="12.586046967434392"><ele>507.0</ele><time>2026-04-19T14:45:06.999Z</time></trkpt><trkpt lat="43.416680603247364" lon="12.585952572957298"><ele>507.0</ele><time>2026-04-19T14:45:07.999Z</time></trkpt><trkpt lat="43.41652666559163" lon="12.585857419623354"><ele>507.0</ele><time>2026-04-19T14:45:08.999Z</time></trkpt><trkpt lat="43.41635882182024" lon="12.585760867842287"><ele>507.0</ele><time>2026-04-19T14:45:09.999Z</time></trkpt><trkpt lat="43.416186519393925" lon="12.585665510373532"><ele>506.0</ele><time>2026-04-19T14:45:10.999Z</time></trkpt><trkpt lat="43.41602309390482" lon="12.585563553590568"><ele>505.0</ele><time>2026-04-19T14:45:11.999Z</time></trkpt><trkpt lat="43.41586068200196" lon="12.585460807615029"><ele>504.0</ele><time>2026-04-19T14:45:12.999Z</time></trkpt><trkpt lat="43.41569452433543" lon="12.585362795114477"><ele>505.66666666666663</ele><time>2026-04-19T14:45:13.999Z</time></trkpt><trkpt lat="43.415528524425426" lon="12.585252945934828"><ele>507.3333333333333</ele><time>2026-04-19T14:45:14.999Z</time></trkpt><trkpt lat="43.41536453134726" lon="12.58514669146785"><ele>509.0</ele><time>2026-04-19T14:45:15.999Z</time></trkpt><trkpt lat="43.41519739014129" lon="12.585031980242526"><ele>509.0</ele><time>2026-04-19T14:45:16.999Z</time></trkpt><trkpt lat="43.415039591502186" lon="12.584911525864934"><ele>509.0</ele><time>2026-04-19T14:45:17.999Z</time></trkpt><trkpt lat="43.41488534019073" lon="12.584774695738735"><ele>509.0</ele><time>2026-04-19T14:45:18.999Z</time></trkpt><trkpt lat="43.41473759919872" lon="12.584630503902023"><ele>509.66666666666663</ele><time>2026-04-19T14:45:19.999Z</time></trkpt><trkpt lat="43.41458889157539" lon="12.584484716461468"><ele>510.33333333333337</ele><time>2026-04-19T14:45:20.999Z</time></trkpt><trkpt lat="43.414442330652136" lon="12.584346889100857"><ele>511.0</ele><time>2026-04-19T14:45:21.999Z</time></trkpt><trkpt lat="43.414297075854975" lon="12.584211230119719"><ele>511.0</ele><time>2026-04-19T14:45:22.999Z</time></trkpt><trkpt lat="43.41415034762414" lon="12.584070392925028"><ele>511.0</ele><time>2026-04-19T14:45:23.999Z</time></trkpt><trkpt lat="43.41399786036231" lon="12.583946821061184"><ele>511.0</ele><time>2026-04-19T14:45:24.999Z</time></trkpt><trkpt lat="43.41385038874036" lon="12.583809940256353"><ele>513.6666666666667</ele><time>2026-04-19T14:45:25.999Z</time></trkpt><trkpt lat="43.413708281027084" lon="12.58366924720594"><ele>516.3333333333334</ele><time>2026-04-19T14:45:26.999Z</time></trkpt><trkpt lat="43.413565732924745" lon="12.583536840227083"><ele>519.0</ele><time>2026-04-19T14:45:27.999Z</time></trkpt><trkpt lat="43.413422400975506" lon="12.583405299959063"><ele>519.0</ele><time>2026-04-19T14:45:28.999Z</time></trkpt><trkpt lat="43.41328182166468" lon="12.583269412660787"><ele>519.0</ele><time>2026-04-19T14:45:29.999Z</time></trkpt><trkpt lat="43.41313626828571" lon="12.583145074164515"><ele>519.0</ele><time>2026-04-19T14:45:30.999Z</time></trkpt><trkpt lat="43.412994314711575" lon="12.58301547003269"><ele>518.6666666666666</ele><time>2026-04-19T14:45:31.999Z</time></trkpt><trkpt lat="43.4128531164012" lon="12.582884902062549"><ele>518.3333333333333</ele><time>2026-04-19T14:45:32.999Z</time></trkpt><trkpt lat="43.4127114606679" lon="12.582752755341433"><ele>518.0</ele><time>2026-04-19T14:45:33.999Z</time></trkpt><trkpt lat="43.41256850118514" lon="12.582627080724057"><ele>518.0</ele><time>2026-04-19T14:45:34.999Z</time></trkpt><trkpt lat="43.41242916387983" lon="12.582498076435291"><ele>518.0</ele><time>2026-04-19T14:45:35.999Z</time></trkpt><trkpt lat="43.412289067838664" lon="12.5823656631592"><ele>518.0</ele><time>2026-04-19T14:45:36.999Z</time></trkpt><trkpt lat="43.41215002679754" lon="12.582241012010437"><ele>517.6666666666666</ele><time>2026-04-19T14:45:37.999Z</time></trkpt><trkpt lat="43.41201342821082" lon="12.582111517264174"><ele>517.3333333333334</ele><time>2026-04-19T14:45:38.999Z</time></trkpt><trkpt lat="43.41187638610432" lon="12.581987109278359"><ele>517.0</ele><time>2026-04-19T14:45:39.998Z</time></trkpt><trkpt lat="43.411732685223036" lon="12.581861235896591"><ele>519.6666666666667</ele><time>2026-04-19T14:45:40.998Z</time></trkpt><trkpt lat="43.411587426026166" lon="12.581734183434051"><ele>522.3333333333334</ele><time>2026-04-19T14:45:41.998Z</time></trkpt><trkpt lat="43.41143530436629" lon="12.581615183553906"><ele>525.0</ele><time>2026-04-19T14:45:42.998Z</time></trkpt><trkpt lat="43.41128466878452" lon="12.581487428245214"><ele>525.6666666666666</ele><time>2026-04-19T14:45:43.998Z</time></trkpt><trkpt lat="43.41112530364272" lon="12.581359011923766"><ele>526.3333333333333</ele><time>2026-04-19T14:45:44.998Z</time></trkpt><trkpt lat="43.410961268686435" lon="12.58122735944028"><ele>527.0</ele><time>2026-04-19T14:45:45.998Z</time></trkpt><trkpt lat="43.41081214514099" lon="12.581095781390848"><ele>530.6666666666666</ele><time>2026-04-19T14:45:47Z</time></trkpt><trkpt lat="43.410660722860946" lon="12.580959443798026"><ele>534.3333333333334</ele><time>2026-04-19T14:45:48Z</time></trkpt><trkpt lat="43.41050390253559" lon="12.580839917756533"><ele>538.0</ele><time>2026-04-19T14:45:49Z</time></trkpt><trkpt lat="43.410340629311015" lon="12.580736086471992"><ele>538.0</ele><time>2026-04-19T14:45:50Z</time></trkpt><trkpt lat="43.410176845173744" lon="12.580663394577291"><ele>538.0</ele><time>2026-04-19T14:45:51Z</time></trkpt><trkpt lat="43.410005771612624" lon="12.58063516864513"><ele>538.0</ele><time>2026-04-19T14:45:52Z</time></trkpt><trkpt lat="43.40982970195232" lon="12.580618861908764"><ele>539.3333333333334</ele><time>2026-04-19T14:45:53Z</time></trkpt><trkpt lat="43.40965439560682" lon="12.580584186765611"><ele>540.6666666666666</ele><time>2026-04-19T14:45:54Z</time></trkpt><trkpt lat="43.40947202236095" lon="12.580576103181103"><ele>542.0</ele><time>2026-04-19T14:45:55Z</time></trkpt><trkpt lat="43.40929320740964" lon="12.580577318023728"><ele>542.0</ele><time>2026-04-19T14:45:56Z</time></trkpt><trkpt lat="43.40911360413575" lon="12.580532102314136"><ele>542.0</ele><time>2026-04-19T14:45:57Z</time></trkpt><trkpt lat="43.408927648640955" lon="12.580466768589991"><ele>542.0</ele><time>2026-04-19T14:45:58Z</time></trkpt><trkpt lat="43.40873363107535" lon="12.580375050415192"><ele>554.3333333333333</ele><time>2026-04-19T14:45:59Z</time></trkpt><trkpt lat="43.40853080932002" lon="12.580348219585519"><ele>566.6666666666666</ele><time>2026-04-19T14:46:00Z</time></trkpt><trkpt lat="43.408337313526474" lon="12.580312843715438"><ele>579.0</ele><time>2026-04-19T14:46:01Z</time></trkpt><trkpt lat="43.408152711236774" lon="12.580286014495858"><ele>574.0</ele><time>2026-04-19T14:46:02Z</time></trkpt><trkpt lat="43.407983171240716" lon="12.580255922817512"><ele>569.0</ele><time>2026-04-19T14:46:03Z</time></trkpt><trkpt lat="43.407839020780706" lon="12.580212660537853"><ele>564.0</ele><time>2026-04-19T14:46:04Z</time></trkpt><trkpt lat="43.40770996690548" lon="12.580144538579802"><ele>564.0</ele><time>2026-04-19T14:46:05Z</time></trkpt><trkpt lat="43.407589270409254" lon="12.580056572949903"><ele>564.0</ele><time>2026-04-19T14:46:06Z</time></trkpt><trkpt lat="43.40747328410885" lon="12.579945400390825"><ele>564.0</ele><time>2026-04-19T14:46:07Z</time></trkpt><trkpt lat="43.40735539339628" lon="12.579830952436591"><ele>564.0</ele><time>2026-04-19T14:46:08Z</time></trkpt><trkpt lat="43.407223552080104" lon="12.579721367248279"><ele>562.3333333333334</ele><time>2026-04-19T14:46:09Z</time></trkpt><trkpt lat="43.4070920065711" lon="12.579603464034687"><ele>560.6666666666667</ele><time>2026-04-19T14:46:10Z</time></trkpt><trkpt lat="43.40695486980852" lon="12.579478056606236"><ele>559.0</ele><time>2026-04-19T14:46:11Z</time></trkpt><trkpt lat="43.40681616036613" lon="12.57935594105794"><ele>564.3333333333334</ele><time>2026-04-19T14:46:12Z</time></trkpt><trkpt lat="43.40666630560372" lon="12.579249017142121"><ele>569.6666666666666</ele><time>2026-04-19T14:46:13Z</time></trkpt><trkpt lat="43.406507111082334" lon="12.57915514544806"><ele>575.0</ele><time>2026-04-19T14:46:14Z</time></trkpt><trkpt lat="43.406331856592125" lon="12.579073821339794"><ele>574.6666666666666</ele><time>2026-04-19T14:46:15Z</time></trkpt><trkpt lat="43.40614821392918" lon="12.579004813201092"><ele>574.3333333333334</ele><time>2026-04-19T14:46:16Z</time></trkpt><trkpt lat="43.40596837540664" lon="12.57893974625574"><ele>574.0</ele><time>2026-04-19T14:46:17Z</time></trkpt><trkpt lat="43.405788398429834" lon="12.578874222063096"><ele>574.0</ele><time>2026-04-19T14:46:18Z</time></trkpt><trkpt lat="43.40560808257346" lon="12.578808162366068"><ele>574.0</ele><time>2026-04-19T14:46:19Z</time></trkpt><trkpt lat="43.40542565825672" lon="12.578739980276438"><ele>574.0</ele><time>2026-04-19T14:46:20Z</time></trkpt><trkpt lat="43.405244463582896" lon="12.578668872989276"><ele>583.0</ele><time>2026-04-19T14:46:21Z</time></trkpt><trkpt lat="43.405068170707025" lon="12.578601287367201"><ele>592.0</ele><time>2026-04-19T14:46:22Z</time></trkpt><trkpt lat="43.404892429528225" lon="12.578533663137925"><ele>601.0</ele><time>2026-04-19T14:46:23Z</time></trkpt><trkpt lat="43.40471262912878" lon="12.578468410962724"><ele>599.0</ele><time>2026-04-19T14:46:24Z</time></trkpt><trkpt lat="43.40454023211071" lon="12.57840618810155"><ele>597.0</ele><time>2026-04-19T14:46:25Z</time></trkpt><trkpt lat="43.40437130674959" lon="12.578339228568094"><ele>595.0</ele><time>2026-04-19T14:46:26Z</time></trkpt><trkpt lat="43.40421029434871" lon="12.578273844109182"><ele>595.0</ele><time>2026-04-19T14:46:27Z</time></trkpt><trkpt lat="43.40405089936878" lon="12.57821673414774"><ele>595.0</ele><time>2026-04-19T14:46:28Z</time></trkpt><trkpt lat="43.403886973804646" lon="12.578172341264954"><ele>595.0</ele><time>2026-04-19T14:46:28.999Z</time></trkpt><trkpt lat="43.40372247868555" lon="12.578141058094122"><ele>594.6666666666667</ele><time>2026-04-19T14:46:29.999Z</time></trkpt><trkpt lat="43.40355839761982" lon="12.578092046030479"><ele>594.3333333333334</ele><time>2026-04-19T14:46:30.999Z</time></trkpt><trkpt lat="43.40338410313277" lon="12.57808781987718"><ele>594.0</ele><time>2026-04-19T14:46:31.999Z</time></trkpt><trkpt lat="43.40320744541439" lon="12.5781258003532"><ele>594.0</ele><time>2026-04-19T14:46:32.999Z</time></trkpt><trkpt lat="43.403030057987536" lon="12.57815001076612"><ele>594.0</ele><time>2026-04-19T14:46:33.999Z</time></trkpt><trkpt lat="43.402855066116096" lon="12.578186631984106"><ele>594.0</ele><time>2026-04-19T14:46:34.999Z</time></trkpt><trkpt lat="43.402680688154426" lon="12.578196793203148"><ele>599.0</ele><time>2026-04-19T14:46:35.999Z</time></trkpt><trkpt lat="43.402502320030756" lon="12.578234321753017"><ele>604.0</ele><time>2026-04-19T14:46:36.999Z</time></trkpt><trkpt lat="43.4023281423193" lon="12.578275631625393"><ele>609.0</ele><time>2026-04-19T14:46:37.999Z</time></trkpt><trkpt lat="43.40216649794939" lon="12.578313467721397"><ele>613.0</ele><time>2026-04-19T14:46:38.999Z</time></trkpt><trkpt lat="43.402022428505674" lon="12.578367847976974"><ele>617.0</ele><time>2026-04-19T14:46:39.999Z</time></trkpt><trkpt lat="43.40187709362037" lon="12.578397526299197"><ele>621.0</ele><time>2026-04-19T14:46:40.999Z</time></trkpt><trkpt lat="43.40173281897039" lon="12.578404791332302"><ele>625.0</ele><time>2026-04-19T14:46:41.999Z</time></trkpt><trkpt lat="43.40158879932788" lon="12.578386409642984"><ele>625.0</ele><time>2026-04-19T14:46:42.999Z</time></trkpt><trkpt lat="43.40144871674906" lon="12.578322858155175"><ele>625.0</ele><time>2026-04-19T14:46:43.999Z</time></trkpt><trkpt lat="43.401302866844816" lon="12.57829107297838"><ele>625.0</ele><time>2026-04-19T14:46:44.999Z</time></trkpt><trkpt lat="43.40116359057952" lon="12.578235159382022"><ele>625.0</ele><time>2026-04-19T14:46:45.999Z</time></trkpt><trkpt lat="43.4010245613435" lon="12.57818365224079"><ele>624.5</ele><time>2026-04-19T14:46:46.999Z</time></trkpt><trkpt lat="43.4008820422588" lon="12.578136982500437"><ele>624.0</ele><time>2026-04-19T14:46:47.999Z</time></trkpt><trkpt lat="43.40073986632027" lon="12.578079318805344"><ele>623.5</ele><time>2026-04-19T14:46:48.999Z</time></trkpt><trkpt lat="43.40059786061411" lon="12.578016750491104"><ele>623.0</ele><time>2026-04-19T14:46:49.999Z</time></trkpt><trkpt lat="43.40045643402657" lon="12.577948490250257"><ele>620.6666666666666</ele><time>2026-04-19T14:46:50.999Z</time></trkpt><trkpt lat="43.40031300971604" lon="12.577873691643264"><ele>618.3333333333334</ele><time>2026-04-19T14:46:51.999Z</time></trkpt><trkpt lat="43.40017264255713" lon="12.57779210846345"><ele>616.0</ele><time>2026-04-19T14:46:52.999Z</time></trkpt><trkpt lat="43.40003221530743" lon="12.577707064165132"><ele>623.0</ele><time>2026-04-19T14:46:53.999Z</time></trkpt><trkpt lat="43.39988657480602" lon="12.577620983542811"><ele>630.0</ele><time>2026-04-19T14:46:54.999Z</time></trkpt><trkpt lat="43.39974378269836" lon="12.577533985422079"><ele>637.0</ele><time>2026-04-19T14:46:55.999Z</time></trkpt><trkpt lat="43.399605322302676" lon="12.577434955461376"><ele>637.0</ele><time>2026-04-19T14:46:56.999Z</time></trkpt><trkpt lat="43.399476577254724" lon="12.577326686384914"><ele>637.0</ele><time>2026-04-19T14:46:57.999Z</time></trkpt><trkpt lat="43.39935689731334" lon="12.577204627134911"><ele>637.0</ele><time>2026-04-19T14:46:58.999Z</time></trkpt><trkpt lat="43.39924581898534" lon="12.577072042177312"><ele>637.0</ele><time>2026-04-19T14:46:59.999Z</time></trkpt><trkpt lat="43.39914246167217" lon="12.576927217162178"><ele>640.0</ele><time>2026-04-19T14:47:00.999Z</time></trkpt><trkpt lat="43.39904820076307" lon="12.576774691874395"><ele>643.0</ele><time>2026-04-19T14:47:01.999Z</time></trkpt><trkpt lat="43.398957458904746" lon="12.576615633249757"><ele>646.0</ele><time>2026-04-19T14:47:02.999Z</time></trkpt><trkpt lat="43.39886114735426" lon="12.576459803418826"><ele>649.0</ele><time>2026-04-19T14:47:03.999Z</time></trkpt><trkpt lat="43.398763041629245" lon="12.576308332422792"><ele>650.25</ele><time>2026-04-19T14:47:04.999Z</time></trkpt><trkpt lat="43.398664285922344" lon="12.576156025208558"><ele>651.5</ele><time>2026-04-19T14:47:05.999Z</time></trkpt><trkpt lat="43.39856146150314" lon="12.576013156559384"><ele>652.75</ele><time>2026-04-19T14:47:06.999Z</time></trkpt><trkpt lat="43.39845267479555" lon="12.575886543797342"><ele>654.0</ele><time>2026-04-19T14:47:07.999Z</time></trkpt><trkpt lat="43.39833804456828" lon="12.575772767984917"><ele>654.0</ele><time>2026-04-19T14:47:08.999Z</time></trkpt><trkpt lat="43.39820735019283" lon="12.575685510470905"><ele>654.0</ele><time>2026-04-19T14:47:09.999Z</time></trkpt><trkpt lat="43.39806615758312" lon="12.575610323785712"><ele>654.0</ele><time>2026-04-19T14:47:10.999Z</time></trkpt><trkpt lat="43.39792810633551" lon="12.575550736221427"><ele>654.0</ele><time>2026-04-19T14:47:11.999Z</time></trkpt><trkpt lat="43.39779082125566" lon="12.575489561701534"><ele>739.0</ele><time>2026-04-19T14:47:12.999Z</time></trkpt><trkpt lat="43.39531535994234" lon="12.574809878815634"><ele>739.0</ele><time>2026-04-19T14:47:21.845Z</time></trkpt><trkpt lat="43.394875429609854" lon="12.574679861877756"><ele>751.5</ele><time>2026-04-19T14:47:22.845Z</time></trkpt><trkpt lat="43.3945449" lon="12.5745842"><ele>764.0</ele><time>2026-04-19T14:47:23.845Z</time></trkpt><trkpt lat="43.38811641275291" lon="12.570042703687854"><ele>726.0</ele><time>2026-04-19T14:47:56.998Z</time></trkpt><trkpt lat="43.388187327726946" lon="12.56978360016355"><ele>688.0</ele><time>2026-04-19T14:47:57.998Z</time></trkpt><trkpt lat="43.3881110014664" lon="12.569567325450043"><ele>650.0</ele><time>2026-04-19T14:47:58.998Z</time></trkpt><trkpt lat="43.388007472210184" lon="12.569361893064286"><ele>644.6666666666666</ele><time>2026-04-19T14:47:59.998Z</time></trkpt><trkpt lat="43.38790841888411" lon="12.569159756282989"><ele>639.3333333333334</ele><time>2026-04-19T14:48:00.998Z</time></trkpt><trkpt lat="43.38781635367234" lon="12.568970055771008"><ele>634.0</ele><time>2026-04-19T14:48:02Z</time></trkpt><trkpt lat="43.38774139726541" lon="12.568797471034625"><ele>639.75</ele><time>2026-04-19T14:48:03Z</time></trkpt><trkpt lat="43.38767009081736" lon="12.568662237147908"><ele>645.5</ele><time>2026-04-19T14:48:04Z</time></trkpt><trkpt lat="43.387588875362844" lon="12.568558227042129"><ele>651.25</ele><time>2026-04-19T14:48:05Z</time></trkpt><trkpt lat="43.38749330857418" lon="12.568486339526906"><ele>657.0</ele><time>2026-04-19T14:48:06Z</time></trkpt><trkpt lat="43.3873854683059" lon="12.56844526007662"><ele>657.0</ele><time>2026-04-19T14:48:07Z</time></trkpt><trkpt lat="43.38727434749346" lon="12.56843481635951"><ele>657.0</ele><time>2026-04-19T14:48:08Z</time></trkpt><trkpt lat="43.38716111783803" lon="12.568452441061744"><ele>657.0</ele><time>2026-04-19T14:48:09Z</time></trkpt><trkpt lat="43.38704807461908" lon="12.568488307379338"><ele>657.0</ele><time>2026-04-19T14:48:10Z</time></trkpt><trkpt lat="43.38692681109443" lon="12.568529807272272"><ele>655.25</ele><time>2026-04-19T14:48:11Z</time></trkpt><trkpt lat="43.38679195031456" lon="12.568554930644074"><ele>653.5</ele><time>2026-04-19T14:48:12Z</time></trkpt><trkpt lat="43.386656408982525" lon="12.568560446199115"><ele>651.75</ele><time>2026-04-19T14:48:13Z</time></trkpt><trkpt lat="43.386526696289245" lon="12.568534615615516"><ele>650.0</ele><time>2026-04-19T14:48:14Z</time></trkpt><trkpt lat="43.38639362506382" lon="12.568474994136968"><ele>641.6666666666666</ele><time>2026-04-19T14:48:15Z</time></trkpt><trkpt lat="43.38626011448768" lon="12.56838861070598"><ele>633.3333333333334</ele><time>2026-04-19T14:48:16Z</time></trkpt><trkpt lat="43.38613601961306" lon="12.568267854812143"><ele>625.0</ele><time>2026-04-19T14:48:17Z</time></trkpt><trkpt lat="43.38602208733115" lon="12.568119172446748"><ele>625.0</ele><time>2026-04-19T14:48:18Z</time></trkpt><trkpt lat="43.38591826542491" lon="12.567942614241815"><ele>625.0</ele><time>2026-04-19T14:48:19Z</time></trkpt><trkpt lat="43.385806238147" lon="12.567756874346212"><ele>625.0</ele><time>2026-04-19T14:48:20Z</time></trkpt><trkpt lat="43.38568843534717" lon="12.567571173513011"><ele>624.0</ele><time>2026-04-19T14:48:21Z</time></trkpt><trkpt lat="43.38555712407969" lon="12.567386337977844"><ele>623.0</ele><time>2026-04-19T14:48:22Z</time></trkpt><trkpt lat="43.38542782643992" lon="12.567204290993194"><ele>622.0</ele><time>2026-04-19T14:48:23Z</time></trkpt><trkpt lat="43.38529998835169" lon="12.567026802324758"><ele>622.0</ele><time>2026-04-19T14:48:24Z</time></trkpt><trkpt lat="43.38517464233447" lon="12.566852558464664"><ele>622.0</ele><time>2026-04-19T14:48:25Z</time></trkpt><trkpt lat="43.38503996180771" lon="12.566692321235815"><ele>622.0</ele><time>2026-04-19T14:48:26Z</time></trkpt><trkpt lat="43.384904875832355" lon="12.566542029642493"><ele>622.0</ele><time>2026-04-19T14:48:27Z</time></trkpt><trkpt lat="43.384777724644884" lon="12.566397531008148"><ele>622.0</ele><time>2026-04-19T14:48:28Z</time></trkpt><trkpt lat="43.38465621026783" lon="12.566252686898938"><ele>622.0</ele><time>2026-04-19T14:48:29Z</time></trkpt><trkpt lat="43.38454198569734" lon="12.566098184945199"><ele>618.3333333333334</ele><time>2026-04-19T14:48:30Z</time></trkpt><trkpt lat="43.38443615954378" lon="12.565946464220346"><ele>614.6666666666666</ele><time>2026-04-19T14:48:31Z</time></trkpt><trkpt lat="43.38433773833393" lon="12.565794381515795"><ele>611.0</ele><time>2026-04-19T14:48:32Z</time></trkpt><trkpt lat="43.3842336978666" lon="12.565634854585111"><ele>611.0</ele><time>2026-04-19T14:48:33Z</time></trkpt><trkpt lat="43.38412631637236" lon="12.56547248365919"><ele>611.0</ele><time>2026-04-19T14:48:34Z</time></trkpt><trkpt lat="43.38402607757746" lon="12.565320856144918"><ele>611.0</ele><time>2026-04-19T14:48:35Z</time></trkpt><trkpt lat="43.38393584353777" lon="12.565180836361481"><ele>611.0</ele><time>2026-04-19T14:48:36Z</time></trkpt><trkpt lat="43.38385934339932" lon="12.565057854087264"><ele>609.4</ele><time>2026-04-19T14:48:37Z</time></trkpt><trkpt lat="43.38378972493709" lon="12.564946693653352"><ele>607.8</ele><time>2026-04-19T14:48:38Z</time></trkpt><trkpt lat="43.38372183893522" lon="12.564844356979362"><ele>606.1999999999999</ele><time>2026-04-19T14:48:39Z</time></trkpt><trkpt lat="43.38366889162143" lon="12.56474509831116"><ele>604.6</ele><time>2026-04-19T14:48:40Z</time></trkpt><trkpt lat="43.38362332762969" lon="12.564673906564604"><ele>603.0</ele><time>2026-04-19T14:48:41Z</time></trkpt><trkpt lat="43.38345803018841" lon="12.564677778434431"><ele>603.0</ele><time>2026-04-19T14:48:42.999Z</time></trkpt><trkpt lat="43.38338419519436" lon="12.564602084570751"><ele>603.0</ele><time>2026-04-19T14:48:44.999Z</time></trkpt><trkpt lat="43.38333408389134" lon="12.564518482663336"><ele>603.0</ele><time>2026-04-19T14:48:47.999Z</time></trkpt><trkpt lat="43.383317432055705" lon="12.56436908623063"><ele>603.0</ele><time>2026-04-19T14:50:13Z</time></trkpt><trkpt lat="43.383245399202025" lon="12.564464089625393"><ele>603.0</ele><time>2026-04-19T14:51:04.999Z</time></trkpt><trkpt lat="43.38317980112628" lon="12.564510382065313"><ele>605.5</ele><time>2026-04-19T14:51:47.999Z</time></trkpt><trkpt lat="43.38323561202105" lon="12.56446382028172"><ele>608.0</ele><time>2026-04-19T14:54:00.999Z</time></trkpt><trkpt lat="43.383291276988025" lon="12.564377918814847"><ele>610.5</ele><time>2026-04-19T14:54:48Z</time></trkpt><trkpt lat="43.38332989184707" lon="12.564303018827882"><ele>613.0</ele><time>2026-04-19T14:56:19.998Z</time></trkpt><trkpt lat="43.38331333039039" lon="12.564185812981753"><ele>615.5</ele><time>2026-04-19T14:56:21.998Z</time></trkpt><trkpt lat="43.38327073388693" lon="12.564113327592798"><ele>618.0</ele><time>2026-04-19T14:56:22.998Z</time></trkpt><trkpt lat="43.38321554599221" lon="12.564033302926436"><ele>618.0</ele><time>2026-04-19T14:56:23.998Z</time></trkpt><trkpt lat="43.38315135405253" lon="12.563952045727873"><ele>618.0</ele><time>2026-04-19T14:56:25Z</time></trkpt><trkpt lat="43.383083581068234" lon="12.56385534547656"><ele>618.0</ele><time>2026-04-19T14:56:26Z</time></trkpt><trkpt lat="43.38301222975817" lon="12.563742179840753"><ele>618.0</ele><time>2026-04-19T14:56:27Z</time></trkpt><trkpt lat="43.382936026718504" lon="12.563631832669396"><ele>618.0</ele><time>2026-04-19T14:56:28Z</time></trkpt><trkpt lat="43.382847925144944" lon="12.563523101248082"><ele>613.25</ele><time>2026-04-19T14:56:29Z</time></trkpt><trkpt lat="43.382741567211255" lon="12.563421996602685"><ele>608.5</ele><time>2026-04-19T14:56:30Z</time></trkpt><trkpt lat="43.38261886954896" lon="12.563317899448219"><ele>603.75</ele><time>2026-04-19T14:56:31Z</time></trkpt><trkpt lat="43.382496125147256" lon="12.563228048767568"><ele>599.0</ele><time>2026-04-19T14:56:32Z</time></trkpt><trkpt lat="43.382364942247385" lon="12.563142583598822"><ele>599.0</ele><time>2026-04-19T14:56:33Z</time></trkpt><trkpt lat="43.38222358105786" lon="12.56307299966365"><ele>599.0</ele><time>2026-04-19T14:56:34Z</time></trkpt><trkpt lat="43.3820732707728" lon="12.563019912871761"><ele>599.0</ele><time>2026-04-19T14:56:35Z</time></trkpt><trkpt lat="43.38191680278112" lon="12.56298274716231"><ele>593.6666666666666</ele><time>2026-04-19T14:56:36Z</time></trkpt><trkpt lat="43.38175599104254" lon="12.56295452284722"><ele>588.3333333333334</ele><time>2026-04-19T14:56:37Z</time></trkpt><trkpt lat="43.38159244603138" lon="12.56293166616457"><ele>583.0</ele><time>2026-04-19T14:56:38Z</time></trkpt><trkpt lat="43.3814307120737" lon="12.562910043945765"><ele>584.3333333333334</ele><time>2026-04-19T14:56:39Z</time></trkpt><trkpt lat="43.38125969205104" lon="12.562877393060308"><ele>585.6666666666666</ele><time>2026-04-19T14:56:40Z</time></trkpt><trkpt lat="43.38110345674824" lon="12.562836835630316"><ele>587.0</ele><time>2026-04-19T14:56:41Z</time></trkpt><trkpt lat="43.38093875737019" lon="12.56280277248937"><ele>587.0</ele><time>2026-04-19T14:56:42Z</time></trkpt><trkpt lat="43.38076442616103" lon="12.562755361734377"><ele>587.0</ele><time>2026-04-19T14:56:43Z</time></trkpt><trkpt lat="43.38059013832194" lon="12.562694985350507"><ele>587.0</ele><time>2026-04-19T14:56:44Z</time></trkpt><trkpt lat="43.380428150221725" lon="12.562624962375098"><ele>582.3333333333333</ele><time>2026-04-19T14:56:45Z</time></trkpt><trkpt lat="43.38027825690588" lon="12.562532273200832"><ele>577.6666666666666</ele><time>2026-04-19T14:56:46Z</time></trkpt><trkpt lat="43.38013046161589" lon="12.562427793896333"><ele>573.0</ele><time>2026-04-19T14:56:47Z</time></trkpt><trkpt lat="43.37998350735841" lon="12.562315364103265"><ele>573.0</ele><time>2026-04-19T14:56:48Z</time></trkpt><trkpt lat="43.379836390461676" lon="12.562199387268665"><ele>573.0</ele><time>2026-04-19T14:56:49Z</time></trkpt><trkpt lat="43.379684693108096" lon="12.562085719011492"><ele>573.0</ele><time>2026-04-19T14:56:50Z</time></trkpt><trkpt lat="43.379533722785986" lon="12.561968616609981"><ele>577.0</ele><time>2026-04-19T14:56:51Z</time></trkpt><trkpt lat="43.37940032006629" lon="12.561830547715626"><ele>581.0</ele><time>2026-04-19T14:56:52Z</time></trkpt><trkpt lat="43.37924215737802" lon="12.561708895906776"><ele>585.0</ele><time>2026-04-19T14:56:53Z</time></trkpt><trkpt lat="43.37909037377937" lon="12.561579779589998"><ele>585.0</ele><time>2026-04-19T14:56:54Z</time></trkpt><trkpt lat="43.37894265101746" lon="12.561433417139073"><ele>585.0</ele><time>2026-04-19T14:56:55Z</time></trkpt><trkpt lat="43.378795355167746" lon="12.561284242955692"><ele>585.0</ele><time>2026-04-19T14:56:56Z</time></trkpt><trkpt lat="43.378653673784655" lon="12.561134098523699"><ele>585.0</ele><time>2026-04-19T14:56:57Z</time></trkpt><trkpt lat="43.37852004846467" lon="12.56098702838237"><ele>585.0</ele><time>2026-04-19T14:56:58Z</time></trkpt><trkpt lat="43.37838838073259" lon="12.560848469999172"><ele>585.0</ele><time>2026-04-19T14:56:59Z</time></trkpt><trkpt lat="43.378256020808266" lon="12.56071820078556"><ele>585.0</ele><time>2026-04-19T14:57:00Z</time></trkpt><trkpt lat="43.378112452427" lon="12.560599342071336"><ele>585.0</ele><time>2026-04-19T14:57:01Z</time></trkpt><trkpt lat="43.37796031922966" lon="12.56050069681706"><ele>585.0</ele><time>2026-04-19T14:57:02Z</time></trkpt><trkpt lat="43.37779577007092" lon="12.560423575222334"><ele>589.0</ele><time>2026-04-19T14:57:02.999Z</time></trkpt><trkpt lat="43.37761261731776" lon="12.560395929346955"><ele>593.0</ele><time>2026-04-19T14:57:03.999Z</time></trkpt><trkpt lat="43.377431680788646" lon="12.560350992006136"><ele>597.0</ele><time>2026-04-19T14:57:04.999Z</time></trkpt><trkpt lat="43.37725801218088" lon="12.560282150730048"><ele>588.3333333333334</ele><time>2026-04-19T14:57:05.999Z</time></trkpt><trkpt lat="43.377082337985534" lon="12.56020416177353"><ele>579.6666666666667</ele><time>2026-04-19T14:57:06.999Z</time></trkpt><trkpt lat="43.37690539386431" lon="12.560116860049424"><ele>571.0</ele><time>2026-04-19T14:57:07.999Z</time></trkpt><trkpt lat="43.376723360499085" lon="12.560023160773273"><ele>571.0</ele><time>2026-04-19T14:57:08.999Z</time></trkpt><trkpt lat="43.37654385340732" lon="12.559919725467008"><ele>571.0</ele><time>2026-04-19T14:57:09.999Z</time></trkpt><trkpt lat="43.376364549653864" lon="12.559808895959012"><ele>571.0</ele><time>2026-04-19T14:57:10.999Z</time></trkpt><trkpt lat="43.376182547280145" lon="12.559692429449921"><ele>576.0</ele><time>2026-04-19T14:57:11.999Z</time></trkpt><trkpt lat="43.37600601376111" lon="12.559567823175689"><ele>581.0</ele><time>2026-04-19T14:57:12.999Z</time></trkpt><trkpt lat="43.37583363299809" lon="12.559448980607751"><ele>586.0</ele><time>2026-04-19T14:57:13.999Z</time></trkpt><trkpt lat="43.37566183026473" lon="12.55934705492164"><ele>580.3333333333334</ele><time>2026-04-19T14:57:14.999Z</time></trkpt><trkpt lat="43.375488663397014" lon="12.559264607769183"><ele>574.6666666666666</ele><time>2026-04-19T14:57:15.999Z</time></trkpt><trkpt lat="43.37530836391877" lon="12.55919486960357"><ele>569.0</ele><time>2026-04-19T14:57:16.999Z</time></trkpt><trkpt lat="43.375132173935874" lon="12.559137570444832"><ele>569.0</ele><time>2026-04-19T14:57:17.999Z</time></trkpt><trkpt lat="43.37495637050579" lon="12.559085435205095"><ele>569.0</ele><time>2026-04-19T14:57:18.999Z</time></trkpt><trkpt lat="43.374793338618055" lon="12.559045711615617"><ele>569.0</ele><time>2026-04-19T14:57:19.999Z</time></trkpt><trkpt lat="43.37463611506129" lon="12.558998207971532"><ele>575.3333333333333</ele><time>2026-04-19T14:57:20.999Z</time></trkpt><trkpt lat="43.374494692699194" lon="12.55892689165522"><ele>581.6666666666666</ele><time>2026-04-19T14:57:21.999Z</time></trkpt><trkpt lat="43.37435178547854" lon="12.558786992108939"><ele>588.0</ele><time>2026-04-19T14:57:22.999Z</time></trkpt><trkpt lat="43.374217211951816" lon="12.558621922999968"><ele>588.0</ele><time>2026-04-19T14:57:23.999Z</time></trkpt><trkpt lat="43.374035178441254" lon="12.558519475242038"><ele>588.0</ele><time>2026-04-19T14:57:24.999Z</time></trkpt><trkpt lat="43.3738372595583" lon="12.558513964994273"><ele>588.0</ele><time>2026-04-19T14:57:25.999Z</time></trkpt><trkpt lat="43.37366233858762" lon="12.558421819091"><ele>578.3333333333334</ele><time>2026-04-19T14:57:26.999Z</time></trkpt><trkpt lat="43.37348286083385" lon="12.558337885758673"><ele>568.6666666666667</ele><time>2026-04-19T14:57:27.999Z</time></trkpt><trkpt lat="43.37329952677245" lon="12.558265434454967"><ele>559.0</ele><time>2026-04-19T14:57:28.999Z</time></trkpt><trkpt lat="43.373111579849784" lon="12.558202605992923"><ele>551.6666666666667</ele><time>2026-04-19T14:57:29.999Z</time></trkpt><trkpt lat="43.37292244863488" lon="12.558135632043317"><ele>544.3333333333334</ele><time>2026-04-19T14:57:30.999Z</time></trkpt><trkpt lat="43.372730975482014" lon="12.55806469125862"><ele>537.0</ele><time>2026-04-19T14:57:31.999Z</time></trkpt><trkpt lat="43.37255688752409" lon="12.558001520758127"><ele>537.0</ele><time>2026-04-19T14:57:32.999Z</time></trkpt><trkpt lat="43.37238407348369" lon="12.557948433864116"><ele>537.0</ele><time>2026-04-19T14:57:33.999Z</time></trkpt><trkpt lat="43.37221947175649" lon="12.557929789507753"><ele>537.0</ele><time>2026-04-19T14:57:34.999Z</time></trkpt><trkpt lat="43.37205166724537" lon="12.557935761204106"><ele>532.3333333333334</ele><time>2026-04-19T14:57:35.999Z</time></trkpt><trkpt lat="43.37187926714772" lon="12.557959078861288"><ele>527.6666666666667</ele><time>2026-04-19T14:57:36.999Z</time></trkpt><trkpt lat="43.37171659310996" lon="12.557996239115848"><ele>523.0</ele><time>2026-04-19T14:57:37.999Z</time></trkpt><trkpt lat="43.37156559679207" lon="12.558017006615426"><ele>523.0</ele><time>2026-04-19T14:57:38.999Z</time></trkpt><trkpt lat="43.37140786635768" lon="12.558017606257602"><ele>523.0</ele><time>2026-04-19T14:57:39.999Z</time></trkpt><trkpt lat="43.37124645018989" lon="12.557997743466675"><ele>523.0</ele><time>2026-04-19T14:57:40.999Z</time></trkpt><trkpt lat="43.37108164943167" lon="12.557950678785604"><ele>520.6666666666667</ele><time>2026-04-19T14:57:41.999Z</time></trkpt><trkpt lat="43.37091156012578" lon="12.557893243208733"><ele>518.3333333333334</ele><time>2026-04-19T14:57:42.999Z</time></trkpt><trkpt lat="43.370721324963746" lon="12.557831594633468"><ele>516.0</ele><time>2026-04-19T14:57:43.999Z</time></trkpt><trkpt lat="43.37057023432516" lon="12.557824684494058"><ele>535.6666666666666</ele><time>2026-04-19T14:57:44.999Z</time></trkpt><trkpt lat="43.37039836057751" lon="12.557804779612034"><ele>555.3333333333333</ele><time>2026-04-19T14:57:45.999Z</time></trkpt><trkpt lat="43.370226435615" lon="12.557804863861644"><ele>575.0</ele><time>2026-04-19T14:57:46.999Z</time></trkpt><trkpt lat="43.37005275155544" lon="12.55782573687148"><ele>559.3333333333333</ele><time>2026-04-19T14:57:47.999Z</time></trkpt><trkpt lat="43.36987602660672" lon="12.557870035931519"><ele>543.6666666666666</ele><time>2026-04-19T14:57:48.999Z</time></trkpt><trkpt lat="43.369704581532716" lon="12.557919236434524"><ele>528.0</ele><time>2026-04-19T14:57:49.999Z</time></trkpt><trkpt lat="43.36954511342434" lon="12.557966251454987"><ele>528.0</ele><time>2026-04-19T14:57:50.999Z</time></trkpt><trkpt lat="43.36939051989053" lon="12.55799354707112"><ele>528.0</ele><time>2026-04-19T14:57:51.999Z</time></trkpt><trkpt lat="43.36922991830237" lon="12.55799831148056"><ele>528.0</ele><time>2026-04-19T14:57:52.999Z</time></trkpt><trkpt lat="43.369068931773185" lon="12.557949553021587"><ele>528.0</ele><time>2026-04-19T14:57:53.999Z</time></trkpt><trkpt lat="43.36890493481597" lon="12.557899916408568"><ele>528.0</ele><time>2026-04-19T14:57:54.999Z</time></trkpt><trkpt lat="43.368732403888245" lon="12.557869581847422"><ele>528.0</ele><time>2026-04-19T14:57:55.999Z</time></trkpt><trkpt lat="43.36856682807071" lon="12.557825686962882"><ele>539.0</ele><time>2026-04-19T14:57:56.999Z</time></trkpt><trkpt lat="43.36839988551856" lon="12.557803519236268"><ele>550.0</ele><time>2026-04-19T14:57:57.999Z</time></trkpt><trkpt lat="43.36822867487856" lon="12.5578044493714"><ele>561.0</ele><time>2026-04-19T14:57:58.999Z</time></trkpt><trkpt lat="43.36805642806828" lon="12.557822108157225"><ele>545.0</ele><time>2026-04-19T14:57:59.999Z</time></trkpt><trkpt lat="43.36788271041872" lon="12.557871959070832"><ele>529.0</ele><time>2026-04-19T14:58:00.999Z</time></trkpt><trkpt lat="43.367711686673154" lon="12.557938880002972"><ele>513.0</ele><time>2026-04-19T14:58:01.999Z</time></trkpt><trkpt lat="43.36754014052747" lon="12.55800255319367"><ele>513.0</ele><time>2026-04-19T14:58:02.999Z</time></trkpt><trkpt lat="43.36737692466426" lon="12.55805986730645"><ele>513.0</ele><time>2026-04-19T14:58:03.999Z</time></trkpt><trkpt lat="43.36719577902199" lon="12.558103326377633"><ele>513.0</ele><time>2026-04-19T14:58:04.999Z</time></trkpt><trkpt lat="43.367031658141684" lon="12.558152235771374"><ele>513.5</ele><time>2026-04-19T14:58:05.999Z</time></trkpt><trkpt lat="43.366878011391506" lon="12.558146852133"><ele>514.0</ele><time>2026-04-19T14:58:06.999Z</time></trkpt><trkpt lat="43.366744468355826" lon="12.55815283483394"><ele>514.5</ele><time>2026-04-19T14:58:07.999Z</time></trkpt><trkpt lat="43.36659645420325" lon="12.558113429308902"><ele>515.0</ele><time>2026-04-19T14:58:08.999Z</time></trkpt><trkpt lat="43.366447099265265" lon="12.558053512719047"><ele>516.3333333333333</ele><time>2026-04-19T14:58:09.999Z</time></trkpt><trkpt lat="43.36631338376905" lon="12.557953271672025"><ele>517.6666666666666</ele><time>2026-04-19T14:58:10.999Z</time></trkpt><trkpt lat="43.36617299215079" lon="12.557850177599349"><ele>519.0</ele><time>2026-04-19T14:58:11.999Z</time></trkpt><trkpt lat="43.3660315272889" lon="12.557736106970479"><ele>519.0</ele><time>2026-04-19T14:58:12.999Z</time></trkpt><trkpt lat="43.365874371003514" lon="12.557613919380804"><ele>519.0</ele><time>2026-04-19T14:58:13.999Z</time></trkpt><trkpt lat="43.36571863028768" lon="12.557496703090672"><ele>519.0</ele><time>2026-04-19T14:58:14.998Z</time></trkpt><trkpt lat="43.365563776884564" lon="12.557372821969963"><ele>515.6666666666666</ele><time>2026-04-19T14:58:15.998Z</time></trkpt><trkpt lat="43.36539811733815" lon="12.55726580793677"><ele>512.3333333333333</ele><time>2026-04-19T14:58:16.998Z</time></trkpt><trkpt lat="43.36526037121751" lon="12.557128408376418"><ele>509.0</ele><time>2026-04-19T14:58:17.998Z</time></trkpt><trkpt lat="43.36514609257891" lon="12.55696772844254"><ele>509.0</ele><time>2026-04-19T14:58:18.998Z</time></trkpt><trkpt lat="43.3650574267361" lon="12.556797519143487"><ele>509.0</ele><time>2026-04-19T14:58:19.998Z</time></trkpt><trkpt lat="43.36496930327878" lon="12.556642608027314"><ele>509.0</ele><time>2026-04-19T14:58:20.998Z</time></trkpt><trkpt lat="43.364865316682405" lon="12.556506264549657"><ele>509.0</ele><time>2026-04-19T14:58:21.998Z</time></trkpt><trkpt lat="43.364742103476715" lon="12.556402721949215"><ele>505.25</ele><time>2026-04-19T14:58:22.998Z</time></trkpt><trkpt lat="43.3646073000409" lon="12.55630718934663"><ele>501.5</ele><time>2026-04-19T14:58:23.998Z</time></trkpt><trkpt lat="43.36448473203371" lon="12.55620998237434"><ele>497.75</ele><time>2026-04-19T14:58:24.998Z</time></trkpt><trkpt lat="43.364370960093424" lon="12.556090253154386"><ele>494.0</ele><time>2026-04-19T14:58:25.998Z</time></trkpt><trkpt lat="43.36427422705246" lon="12.555942383366084"><ele>494.0</ele><time>2026-04-19T14:58:26.998Z</time></trkpt><trkpt lat="43.364194448752436" lon="12.555767613199945"><ele>494.0</ele><time>2026-04-19T14:58:27.998Z</time></trkpt><trkpt lat="43.364129619640465" lon="12.555583849301795"><ele>494.0</ele><time>2026-04-19T14:58:28.998Z</time></trkpt><trkpt lat="43.36407010978954" lon="12.555397049422458"><ele>494.0</ele><time>2026-04-19T14:58:29.998Z</time></trkpt><trkpt lat="43.36400250965282" lon="12.55521440727734"><ele>495.25</ele><time>2026-04-19T14:58:31Z</time></trkpt><trkpt lat="43.363923634375084" lon="12.555044228645956"><ele>496.5</ele><time>2026-04-19T14:58:32Z</time></trkpt><trkpt lat="43.36383427383515" lon="12.554889485669477"><ele>497.75</ele><time>2026-04-19T14:58:33Z</time></trkpt><trkpt lat="43.36373085226652" lon="12.55475647836749"><ele>499.0</ele><time>2026-04-19T14:58:34Z</time></trkpt><trkpt lat="43.36361583072876" lon="12.55465419364992"><ele>495.25</ele><time>2026-04-19T14:58:35Z</time></trkpt><trkpt lat="43.36349112968341" lon="12.55456542648351"><ele>491.5</ele><time>2026-04-19T14:58:36Z</time></trkpt><trkpt lat="43.36336463155103" lon="12.55448414609956"><ele>487.75</ele><time>2026-04-19T14:58:37Z</time></trkpt><trkpt lat="43.36324286702226" lon="12.554396261864595"><ele>484.0</ele><time>2026-04-19T14:58:38Z</time></trkpt><trkpt lat="43.36312665028882" lon="12.554306769223503"><ele>483.2</ele><time>2026-04-19T14:58:39Z</time></trkpt><trkpt lat="43.36302110689135" lon="12.554223759947291"><ele>482.4</ele><time>2026-04-19T14:58:40Z</time></trkpt><trkpt lat="43.362927611006434" lon="12.554150882920103"><ele>481.6</ele><time>2026-04-19T14:58:41Z</time></trkpt><trkpt lat="43.36283959929803" lon="12.554086885751977"><ele>480.8</ele><time>2026-04-19T14:58:42Z</time></trkpt><trkpt lat="43.36275309889693" lon="12.554020111513505"><ele>480.0</ele><time>2026-04-19T14:58:43Z</time></trkpt><trkpt lat="43.362671061965294" lon="12.553954944342083"><ele>480.0</ele><time>2026-04-19T14:58:44Z</time></trkpt><trkpt lat="43.36259911676437" lon="12.553897175881472"><ele>480.0</ele><time>2026-04-19T14:58:45Z</time></trkpt><trkpt lat="43.36253254445678" lon="12.553846496791657"><ele>480.0</ele><time>2026-04-19T14:58:46Z</time></trkpt><trkpt lat="43.36247004145923" lon="12.553801431105892"><ele>480.0</ele><time>2026-04-19T14:58:47Z</time></trkpt><trkpt lat="43.3624136097019" lon="12.553760696837225"><ele>480.0</ele><time>2026-04-19T14:58:48Z</time></trkpt><trkpt lat="43.36235618183394" lon="12.553715651534018"><ele>480.0</ele><time>2026-04-19T14:58:49Z</time></trkpt><trkpt lat="43.362299853267395" lon="12.553668895086536"><ele>480.0</ele><time>2026-04-19T14:58:50Z</time></trkpt><trkpt lat="43.3622455429258" lon="12.553616134289236"><ele>479.3333333333333</ele><time>2026-04-19T14:58:51Z</time></trkpt><trkpt lat="43.36219333905262" lon="12.553545493914564"><ele>478.66666666666663</ele><time>2026-04-19T14:58:52Z</time></trkpt><trkpt lat="43.3621456426783" lon="12.553459094877152"><ele>478.0</ele><time>2026-04-19T14:58:53Z</time></trkpt><trkpt lat="43.362103796275875" lon="12.553358500856335"><ele>477.3333333333333</ele><time>2026-04-19T14:58:54Z</time></trkpt><trkpt lat="43.36206153690294" lon="12.553246454964947"><ele>476.66666666666663</ele><time>2026-04-19T14:58:55Z</time></trkpt><trkpt lat="43.362012559961194" lon="12.553132607256801"><ele>476.0</ele><time>2026-04-19T14:58:56Z</time></trkpt><trkpt lat="43.361954296120274" lon="12.553041772710719"><ele>476.0</ele><time>2026-04-19T14:58:57Z</time></trkpt><trkpt lat="43.36187988349996" lon="12.552962267437533"><ele>476.0</ele><time>2026-04-19T14:58:58Z</time></trkpt><trkpt lat="43.36179612149579" lon="12.552909507655086"><ele>476.0</ele><time>2026-04-19T14:58:59Z</time></trkpt><trkpt lat="43.361706168038715" lon="12.552888212645993"><ele>476.0</ele><time>2026-04-19T14:59:00Z</time></trkpt><trkpt lat="43.361617653707206" lon="12.552900940552187"><ele>476.0</ele><time>2026-04-19T14:59:01Z</time></trkpt><trkpt lat="43.36152210312045" lon="12.552929270318558"><ele>476.0</ele><time>2026-04-19T14:59:02Z</time></trkpt><trkpt lat="43.361432659658796" lon="12.55297619033461"><ele>476.0</ele><time>2026-04-19T14:59:03Z</time></trkpt><trkpt lat="43.361340841941804" lon="12.553027392382363"><ele>476.0</ele><time>2026-04-19T14:59:04Z</time></trkpt><trkpt lat="43.36124490669405" lon="12.553050394195955"><ele>476.0</ele><time>2026-04-19T14:59:05Z</time></trkpt><trkpt lat="43.36114447101552" lon="12.55304182376366"><ele>476.0</ele><time>2026-04-19T14:59:06Z</time></trkpt><trkpt lat="43.361045909160445" lon="12.552996625158322"><ele>475.5</ele><time>2026-04-19T14:59:07Z</time></trkpt><trkpt lat="43.36095947323258" lon="12.55290335420184"><ele>475.0</ele><time>2026-04-19T14:59:08Z</time></trkpt><trkpt lat="43.36085414178373" lon="12.55283616985617"><ele>474.5</ele><time>2026-04-19T14:59:09Z</time></trkpt><trkpt lat="43.36075495543526" lon="12.552744424016597"><ele>474.0</ele><time>2026-04-19T14:59:09.999Z</time></trkpt><trkpt lat="43.360638744881534" lon="12.552645797268717"><ele>472.66666666666663</ele><time>2026-04-19T14:59:10.999Z</time></trkpt><trkpt lat="43.36051338767921" lon="12.552539637816071"><ele>471.3333333333333</ele><time>2026-04-19T14:59:11.999Z</time></trkpt><trkpt lat="43.36038264906663" lon="12.552427707973843"><ele>470.0</ele><time>2026-04-19T14:59:12.999Z</time></trkpt><trkpt lat="43.360251573478706" lon="12.552318724559564"><ele>470.0</ele><time>2026-04-19T14:59:13.999Z</time></trkpt><trkpt lat="43.3601133844541" lon="12.552200549507129"><ele>470.0</ele><time>2026-04-19T14:59:14.999Z</time></trkpt><trkpt lat="43.35997269132561" lon="12.552090820112623"><ele>470.0</ele><time>2026-04-19T14:59:15.999Z</time></trkpt><trkpt lat="43.359830667027026" lon="12.551975835806946"><ele>469.3333333333333</ele><time>2026-04-19T14:59:16.999Z</time></trkpt><trkpt lat="43.359666042583804" lon="12.55187974468446"><ele>468.66666666666663</ele><time>2026-04-19T14:59:17.999Z</time></trkpt><trkpt lat="43.359498273237236" lon="12.551778645737787"><ele>468.0</ele><time>2026-04-19T14:59:18.999Z</time></trkpt><trkpt lat="43.359327392873" lon="12.551685343733714"><ele>468.0</ele><time>2026-04-19T14:59:19.999Z</time></trkpt><trkpt lat="43.35914532025982" lon="12.55159230800132"><ele>468.0</ele><time>2026-04-19T14:59:20.999Z</time></trkpt><trkpt lat="43.358960133312834" lon="12.551509029718291"><ele>468.0</ele><time>2026-04-19T14:59:21.999Z</time></trkpt><trkpt lat="43.35877019517175" lon="12.551437243504827"><ele>467.66666666666663</ele><time>2026-04-19T14:59:22.999Z</time></trkpt><trkpt lat="43.358572551360695" lon="12.551375214025652"><ele>467.3333333333333</ele><time>2026-04-19T14:59:23.999Z</time></trkpt><trkpt lat="43.35837461584843" lon="12.551327860034458"><ele>467.0</ele><time>2026-04-19T14:59:24.999Z</time></trkpt><trkpt lat="43.35816820321606" lon="12.55128842298165"><ele>466.66666666666663</ele><time>2026-04-19T14:59:25.999Z</time></trkpt><trkpt lat="43.35796034117755" lon="12.551258031874509"><ele>466.33333333333337</ele><time>2026-04-19T14:59:26.999Z</time></trkpt><trkpt lat="43.35775431992617" lon="12.551226254026298"><ele>466.0</ele><time>2026-04-19T14:59:27.999Z</time></trkpt><trkpt lat="43.35754953840273" lon="12.551187328298296"><ele>465.6666666666667</ele><time>2026-04-19T14:59:28.999Z</time></trkpt><trkpt lat="43.357341613912034" lon="12.551148599449041"><ele>465.33333333333337</ele><time>2026-04-19T14:59:29.999Z</time></trkpt><trkpt lat="43.35713244635395" lon="12.551113325669409"><ele>465.0</ele><time>2026-04-19T14:59:30.999Z</time></trkpt><trkpt lat="43.35692419139384" lon="12.551083388695014"><ele>464.66666666666663</ele><time>2026-04-19T14:59:31.999Z</time></trkpt><trkpt lat="43.35672093306615" lon="12.551053101321001"><ele>464.3333333333333</ele><time>2026-04-19T14:59:32.999Z</time></trkpt><trkpt lat="43.35651837959556" lon="12.55103285326405"><ele>464.0</ele><time>2026-04-19T14:59:33.999Z</time></trkpt><trkpt lat="43.35631371298619" lon="12.55101030399631"><ele>462.66666666666663</ele><time>2026-04-19T14:59:34.999Z</time></trkpt><trkpt lat="43.35610164141264" lon="12.550969993805582"><ele>461.33333333333337</ele><time>2026-04-19T14:59:35.999Z</time></trkpt><trkpt lat="43.355901662967" lon="12.55094197746147"><ele>460.0</ele><time>2026-04-19T14:59:36.999Z</time></trkpt><trkpt lat="43.355695629723826" lon="12.550916472723406"><ele>459.33333333333337</ele><time>2026-04-19T14:59:37.999Z</time></trkpt><trkpt lat="43.35548827273958" lon="12.550883374697221"><ele>458.66666666666663</ele><time>2026-04-19T14:59:38.999Z</time></trkpt><trkpt lat="43.355286847784924" lon="12.550849940426962"><ele>458.0</ele><time>2026-04-19T14:59:39.999Z</time></trkpt><trkpt lat="43.355086111170614" lon="12.550809974372212"><ele>458.0</ele><time>2026-04-19T14:59:40.999Z</time></trkpt><trkpt lat="43.35488915032564" lon="12.550779071493054"><ele>458.0</ele><time>2026-04-19T14:59:41.999Z</time></trkpt><trkpt lat="43.354727411473185" lon="12.550751328685694"><ele>458.0</ele><time>2026-04-19T14:59:42.999Z</time></trkpt><trkpt lat="43.354606547597136" lon="12.550690298169322"><ele>458.0</ele><time>2026-04-19T14:59:43.999Z</time></trkpt><trkpt lat="43.354513291384905" lon="12.55061891184582"><ele>457.99999999999994</ele><time>2026-04-19T14:59:44.999Z</time></trkpt><trkpt lat="43.354439888348004" lon="12.55052652689825"><ele>457.99999999999994</ele><time>2026-04-19T14:59:45.999Z</time></trkpt><trkpt lat="43.354386801478775" lon="12.550404408950726"><ele>458.0</ele><time>2026-04-19T14:59:46.999Z</time></trkpt><trkpt lat="43.35434944202691" lon="12.550266861791407"><ele>458.0</ele><time>2026-04-19T14:59:47.999Z</time></trkpt><trkpt lat="43.354338923075126" lon="12.550125813394706"><ele>457.79999999999995</ele><time>2026-04-19T14:59:48.999Z</time></trkpt><trkpt lat="43.35434488306848" lon="12.5499786500687"><ele>457.59999999999997</ele><time>2026-04-19T14:59:49.999Z</time></trkpt><trkpt lat="43.35436472308562" lon="12.54983126217053"><ele>457.40000000000003</ele><time>2026-04-19T14:59:50.999Z</time></trkpt><trkpt lat="43.354430471019256" lon="12.549704821265793"><ele>457.20000000000005</ele><time>2026-04-19T14:59:51.999Z</time></trkpt><trkpt lat="43.35451533646738" lon="12.549601005664542"><ele>457.0</ele><time>2026-04-19T14:59:52.999Z</time></trkpt><trkpt lat="43.354615395866794" lon="12.549515287523507"><ele>457.0</ele><time>2026-04-19T14:59:53.999Z</time></trkpt><trkpt lat="43.35472343249117" lon="12.5494650196557"><ele>457.0</ele><time>2026-04-19T14:59:54.999Z</time></trkpt><trkpt lat="43.35483763641646" lon="12.549455532264613"><ele>457.0</ele><time>2026-04-19T14:59:55.999Z</time></trkpt><trkpt lat="43.3549541399525" lon="12.549482027721355"><ele>457.0</ele><time>2026-04-19T14:59:56.999Z</time></trkpt><trkpt lat="43.35505687511352" lon="12.549546332799117"><ele>457.5</ele><time>2026-04-19T14:59:57.999Z</time></trkpt><trkpt lat="43.35514296234394" lon="12.549642401661847"><ele>458.0</ele><time>2026-04-19T14:59:58.999Z</time></trkpt><trkpt lat="43.35521827787178" lon="12.549761844943497"><ele>458.5</ele><time>2026-04-19T14:59:59.999Z</time></trkpt><trkpt lat="43.35526619689376" lon="12.54989918680129"><ele>459.0</ele><time>2026-04-19T15:00:00.999Z</time></trkpt><trkpt lat="43.35528975246462" lon="12.550056597984241"><ele>459.0</ele><time>2026-04-19T15:00:01.999Z</time></trkpt><trkpt lat="43.35528830971035" lon="12.550220688345508"><ele>459.0</ele><time>2026-04-19T15:00:02.999Z</time></trkpt><trkpt lat="43.35525813513078" lon="12.550386983478418"><ele>459.0</ele><time>2026-04-19T15:00:03.999Z</time></trkpt><trkpt lat="43.35520883082853" lon="12.550544365064832"><ele>459.0</ele><time>2026-04-19T15:00:04.999Z</time></trkpt><trkpt lat="43.355119174861045" lon="12.550708085641107"><ele>458.66666666666663</ele><time>2026-04-19T15:00:05.999Z</time></trkpt><trkpt lat="43.35504758175285" lon="12.55087433985497"><ele>458.3333333333333</ele><time>2026-04-19T15:00:06.999Z</time></trkpt><trkpt lat="43.35496340665449" lon="12.551062424146929"><ele>458.0</ele><time>2026-04-19T15:00:07.999Z</time></trkpt><trkpt lat="43.354875760185756" lon="12.551245857636907"><ele>458.3333333333333</ele><time>2026-04-19T15:00:08.999Z</time></trkpt><trkpt lat="43.354784314159154" lon="12.55144563681935"><ele>458.66666666666663</ele><time>2026-04-19T15:00:09.999Z</time></trkpt><trkpt lat="43.35468344112996" lon="12.551655546877074"><ele>459.0</ele><time>2026-04-19T15:00:10.999Z</time></trkpt><trkpt lat="43.35457659353442" lon="12.551867511222733"><ele>459.33333333333337</ele><time>2026-04-19T15:00:11.999Z</time></trkpt><trkpt lat="43.3544584472291" lon="12.55209154132314"><ele>459.6666666666667</ele><time>2026-04-19T15:00:12.999Z</time></trkpt><trkpt lat="43.35434133419451" lon="12.552303038795408"><ele>460.0</ele><time>2026-04-19T15:00:13.999Z</time></trkpt><trkpt lat="43.35420428928956" lon="12.552513504532739"><ele>460.0</ele><time>2026-04-19T15:00:14.999Z</time></trkpt><trkpt lat="43.35407173205973" lon="12.552753988140102"><ele>460.0</ele><time>2026-04-19T15:00:15.999Z</time></trkpt><trkpt lat="43.353934894577414" lon="12.55300223702333"><ele>460.0</ele><time>2026-04-19T15:00:16.999Z</time></trkpt><trkpt lat="43.3537972689626" lon="12.553256645152626"><ele>459.0</ele><time>2026-04-19T15:00:17.999Z</time></trkpt><trkpt lat="43.35368110066969" lon="12.553520148944711"><ele>458.0</ele><time>2026-04-19T15:00:18.999Z</time></trkpt><trkpt lat="43.353542334610594" lon="12.55377070211823"><ele>458.0</ele><time>2026-04-19T15:00:19.999Z</time></trkpt><trkpt lat="43.353401441770885" lon="12.554024068644795"><ele>458.0</ele><time>2026-04-19T15:00:20.998Z</time></trkpt><trkpt lat="43.35325851019181" lon="12.554280230377667"><ele>458.0</ele><time>2026-04-19T15:00:21.998Z</time></trkpt><trkpt lat="43.353118436171734" lon="12.554537040495438"><ele>458.0</ele><time>2026-04-19T15:00:22.998Z</time></trkpt><trkpt lat="43.35297554620011" lon="12.554798334356978"><ele>458.5</ele><time>2026-04-19T15:00:23.998Z</time></trkpt><trkpt lat="43.35283394698037" lon="12.555059164797187"><ele>459.0</ele><time>2026-04-19T15:00:24.998Z</time></trkpt><trkpt lat="43.35269244536883" lon="12.555319718413926"><ele>459.5</ele><time>2026-04-19T15:00:25.998Z</time></trkpt><trkpt lat="43.35254961943355" lon="12.555582080092607"><ele>460.0</ele><time>2026-04-19T15:00:26.998Z</time></trkpt><trkpt lat="43.352404789828704" lon="12.555839790006155"><ele>460.0</ele><time>2026-04-19T15:00:27.998Z</time></trkpt><trkpt lat="43.35225648449898" lon="12.556103208007192"><ele>460.0</ele><time>2026-04-19T15:00:28.998Z</time></trkpt><trkpt lat="43.35210885567441" lon="12.556362853199614"><ele>458.0</ele><time>2026-04-19T15:00:29.998Z</time></trkpt><trkpt lat="43.35196127642733" lon="12.556625570137838"><ele>456.0</ele><time>2026-04-19T15:00:30.998Z</time></trkpt><trkpt lat="43.351817177057576" lon="12.556885184003589"><ele>457.0</ele><time>2026-04-19T15:00:31.998Z</time></trkpt><trkpt lat="43.3516706615001" lon="12.557140535382942"><ele>458.0</ele><time>2026-04-19T15:00:32.998Z</time></trkpt><trkpt lat="43.35152191101176" lon="12.557392948034138"><ele>459.0</ele><time>2026-04-19T15:00:33.998Z</time></trkpt><trkpt lat="43.35136877738823" lon="12.557637809973599"><ele>460.0</ele><time>2026-04-19T15:00:34.998Z</time></trkpt><trkpt lat="43.35121288900843" lon="12.557882618438459"><ele>461.0</ele><time>2026-04-19T15:00:35.998Z</time></trkpt><trkpt lat="43.35105572642958" lon="12.55812711863922"><ele>462.0</ele><time>2026-04-19T15:00:37Z</time></trkpt><trkpt lat="43.350898355070534" lon="12.55836308774344"><ele>462.0</ele><time>2026-04-19T15:00:38Z</time></trkpt><trkpt lat="43.35073548824111" lon="12.558599930727464"><ele>462.0</ele><time>2026-04-19T15:00:39Z</time></trkpt><trkpt lat="43.35057077577916" lon="12.558833151619584"><ele>462.5</ele><time>2026-04-19T15:00:40Z</time></trkpt><trkpt lat="43.35040461883511" lon="12.55906262398234"><ele>463.0</ele><time>2026-04-19T15:00:41Z</time></trkpt><trkpt lat="43.35023581036548" lon="12.559282975248223"><ele>463.0</ele><time>2026-04-19T15:00:42Z</time></trkpt><trkpt lat="43.35006114031533" lon="12.55950963670336"><ele>463.0</ele><time>2026-04-19T15:00:43Z</time></trkpt><trkpt lat="43.3498847173822" lon="12.559733799688097"><ele>462.0</ele><time>2026-04-19T15:00:44Z</time></trkpt><trkpt lat="43.34970791523645" lon="12.559954959189856"><ele>461.0</ele><time>2026-04-19T15:00:45Z</time></trkpt><trkpt lat="43.34953013148952" lon="12.560171279723912"><ele>461.5</ele><time>2026-04-19T15:00:46Z</time></trkpt><trkpt lat="43.3493489390963" lon="12.560385844172115"><ele>462.0</ele><time>2026-04-19T15:00:47Z</time></trkpt><trkpt lat="43.34916454178776" lon="12.56059411762399"><ele>462.0</ele><time>2026-04-19T15:00:48Z</time></trkpt><trkpt lat="43.3489871260491" lon="12.560788974493482"><ele>462.0</ele><time>2026-04-19T15:00:49Z</time></trkpt><trkpt lat="43.34881880146163" lon="12.560974501309282"><ele>462.0</ele><time>2026-04-19T15:00:50Z</time></trkpt><trkpt lat="43.348656852339715" lon="12.561151685112835"><ele>463.33333333333337</ele><time>2026-04-19T15:00:51Z</time></trkpt><trkpt lat="43.34850114349504" lon="12.561311062628432"><ele>464.6666666666667</ele><time>2026-04-19T15:00:52Z</time></trkpt><trkpt lat="43.34835188615735" lon="12.561471699124835"><ele>466.0</ele><time>2026-04-19T15:00:53Z</time></trkpt><trkpt lat="43.34820055216631" lon="12.561632428476848"><ele>466.0</ele><time>2026-04-19T15:00:54Z</time></trkpt><trkpt lat="43.34805404082474" lon="12.561794797762524"><ele>466.0</ele><time>2026-04-19T15:00:55Z</time></trkpt><trkpt lat="43.34790306147392" lon="12.561951815180436"><ele>466.0</ele><time>2026-04-19T15:00:56Z</time></trkpt><trkpt lat="43.34775283356068" lon="12.562110803702856"><ele>465.6666666666667</ele><time>2026-04-19T15:00:57Z</time></trkpt><trkpt lat="43.34760452819524" lon="12.562271664878006"><ele>465.33333333333337</ele><time>2026-04-19T15:00:58Z</time></trkpt><trkpt lat="43.34745364657872" lon="12.562437052034433"><ele>465.0</ele><time>2026-04-19T15:00:59Z</time></trkpt><trkpt lat="43.34729918588922" lon="12.562602794748974"><ele>465.0</ele><time>2026-04-19T15:01:00Z</time></trkpt><trkpt lat="43.34714498668204" lon="12.562768593446492"><ele>465.0</ele><time>2026-04-19T15:01:01Z</time></trkpt><trkpt lat="43.34698693797356" lon="12.562936913093191"><ele>465.0</ele><time>2026-04-19T15:01:02Z</time></trkpt><trkpt lat="43.34682514516533" lon="12.563107215709014"><ele>465.0</ele><time>2026-04-19T15:01:03Z</time></trkpt><trkpt lat="43.34666223813624" lon="12.56327663703678"><ele>465.0</ele><time>2026-04-19T15:01:04Z</time></trkpt><trkpt lat="43.34650012173493" lon="12.5634503764144"><ele>465.0</ele><time>2026-04-19T15:01:05Z</time></trkpt><trkpt lat="43.34633198184802" lon="12.563629052949414"><ele>464.66666666666663</ele><time>2026-04-19T15:01:06Z</time></trkpt><trkpt lat="43.34616316931541" lon="12.563807761134827"><ele>464.3333333333333</ele><time>2026-04-19T15:01:07Z</time></trkpt><trkpt lat="43.34599123393977" lon="12.563990111291682"><ele>464.0</ele><time>2026-04-19T15:01:08Z</time></trkpt><trkpt lat="43.34581989321446" lon="12.564171355697862"><ele>464.0</ele><time>2026-04-19T15:01:09Z</time></trkpt><trkpt lat="43.3456422369135" lon="12.56435635398994"><ele>464.0</ele><time>2026-04-19T15:01:10Z</time></trkpt><trkpt lat="43.3454668473704" lon="12.564540108406849"><ele>464.0</ele><time>2026-04-19T15:01:11Z</time></trkpt><trkpt lat="43.34528769187493" lon="12.564724623517685"><ele>464.0</ele><time>2026-04-19T15:01:12Z</time></trkpt><trkpt lat="43.34510548351541" lon="12.564915592373938"><ele>464.0</ele><time>2026-04-19T15:01:13Z</time></trkpt><trkpt lat="43.34492767362083" lon="12.565105908863503"><ele>464.0</ele><time>2026-04-19T15:01:14Z</time></trkpt><trkpt lat="43.34474232744313" lon="12.565301773217369"><ele>464.0</ele><time>2026-04-19T15:01:15Z</time></trkpt><trkpt lat="43.34455742892296" lon="12.565495725076445"><ele>463.0</ele><time>2026-04-19T15:01:16Z</time></trkpt><trkpt lat="43.344372756151486" lon="12.565692076762371"><ele>462.0</ele><time>2026-04-19T15:01:17Z</time></trkpt><trkpt lat="43.34419262222936" lon="12.565887347186363"><ele>462.0</ele><time>2026-04-19T15:01:18Z</time></trkpt><trkpt lat="43.34401275321287" lon="12.566086592357568"><ele>462.0</ele><time>2026-04-19T15:01:18.999Z</time></trkpt><trkpt lat="43.343835974658475" lon="12.566285981538664"><ele>461.5</ele><time>2026-04-19T15:01:19.999Z</time></trkpt><trkpt lat="43.343659626944465" lon="12.566495106895909"><ele>461.0</ele><time>2026-04-19T15:01:20.999Z</time></trkpt><trkpt lat="43.34348228971036" lon="12.566713728363867"><ele>461.0</ele><time>2026-04-19T15:01:21.999Z</time></trkpt><trkpt lat="43.34331058232518" lon="12.566937437617995"><ele>461.0</ele><time>2026-04-19T15:01:22.999Z</time></trkpt><trkpt lat="43.34313825721665" lon="12.567166801475915"><ele>461.0</ele><time>2026-04-19T15:01:23.999Z</time></trkpt><trkpt lat="43.34296677683889" lon="12.567398449604116"><ele>461.0</ele><time>2026-04-19T15:01:24.999Z</time></trkpt><trkpt lat="43.342796397716725" lon="12.567638549163066"><ele>460.5</ele><time>2026-04-19T15:01:25.999Z</time></trkpt><trkpt lat="43.342629532899394" lon="12.567882055822379"><ele>460.0</ele><time>2026-04-19T15:01:26.999Z</time></trkpt><trkpt lat="43.34246657129785" lon="12.568129537620116"><ele>460.0</ele><time>2026-04-19T15:01:27.999Z</time></trkpt><trkpt lat="43.34230294994237" lon="12.568384043177591"><ele>460.0</ele><time>2026-04-19T15:01:28.999Z</time></trkpt><trkpt lat="43.342147236814796" lon="12.56863762691793"><ele>459.5</ele><time>2026-04-19T15:01:29.999Z</time></trkpt><trkpt lat="43.34198988880796" lon="12.568904224039178"><ele>459.0</ele><time>2026-04-19T15:01:30.999Z</time></trkpt><trkpt lat="43.34183927115513" lon="12.569171917092879"><ele>459.0</ele><time>2026-04-19T15:01:31.999Z</time></trkpt><trkpt lat="43.34169178195462" lon="12.569448605435468"><ele>459.0</ele><time>2026-04-19T15:01:32.999Z</time></trkpt><trkpt lat="43.34154640312492" lon="12.569730288066797"><ele>457.5</ele><time>2026-04-19T15:01:33.999Z</time></trkpt><trkpt lat="43.341406288970084" lon="12.570015035530709"><ele>456.0</ele><time>2026-04-19T15:01:34.999Z</time></trkpt><trkpt lat="43.3412666758744" lon="12.57030092367405"><ele>457.5</ele><time>2026-04-19T15:01:35.999Z</time></trkpt><trkpt lat="43.34113250079488" lon="12.570584012185954"><ele>459.0</ele><time>2026-04-19T15:01:36.999Z</time></trkpt><trkpt lat="43.34100159529186" lon="12.570877924763536"><ele>459.0</ele><time>2026-04-19T15:01:37.999Z</time></trkpt><trkpt lat="43.34087445508776" lon="12.571169471742857"><ele>459.0</ele><time>2026-04-19T15:01:38.999Z</time></trkpt><trkpt lat="43.34075497987219" lon="12.571462249005092"><ele>459.5</ele><time>2026-04-19T15:01:39.999Z</time></trkpt><trkpt lat="43.340641582014214" lon="12.571761747492939"><ele>460.0</ele><time>2026-04-19T15:01:40.999Z</time></trkpt><trkpt lat="43.340532171430446" lon="12.572058538117696"><ele>460.0</ele><time>2026-04-19T15:01:41.999Z</time></trkpt><trkpt lat="43.34042656145083" lon="12.57235075201933"><ele>460.0</ele><time>2026-04-19T15:01:42.999Z</time></trkpt><trkpt lat="43.340323889957986" lon="12.57265412603935"><ele>459.5</ele><time>2026-04-19T15:01:43.999Z</time></trkpt><trkpt lat="43.34022571855898" lon="12.57295271462589"><ele>459.0</ele><time>2026-04-19T15:01:44.999Z</time></trkpt><trkpt lat="43.340131735949605" lon="12.573251408903896"><ele>459.0</ele><time>2026-04-19T15:01:45.999Z</time></trkpt><trkpt lat="43.340039625350904" lon="12.573551101006316"><ele>459.0</ele><time>2026-04-19T15:01:46.999Z</time></trkpt><trkpt lat="43.339951154933324" lon="12.573859660991134"><ele>459.5</ele><time>2026-04-19T15:01:47.999Z</time></trkpt><trkpt lat="43.339868589239984" lon="12.574158098816731"><ele>460.0</ele><time>2026-04-19T15:01:48.999Z</time></trkpt><trkpt lat="43.339787048348406" lon="12.574464703615321"><ele>459.0</ele><time>2026-04-19T15:01:49.999Z</time></trkpt><trkpt lat="43.33970829848587" lon="12.574768939208564"><ele>458.0</ele><time>2026-04-19T15:01:50.999Z</time></trkpt><trkpt lat="43.33963340124966" lon="12.575080267187063"><ele>457.0</ele><time>2026-04-19T15:01:51.999Z</time></trkpt><trkpt lat="43.339564762943795" lon="12.575387956048385"><ele>456.0</ele><time>2026-04-19T15:01:52.999Z</time></trkpt><trkpt lat="43.339500737566524" lon="12.575696962368106"><ele>456.0</ele><time>2026-04-19T15:01:53.999Z</time></trkpt><trkpt lat="43.339439780748556" lon="12.576017118433791"><ele>456.0</ele><time>2026-04-19T15:01:54.999Z</time></trkpt><trkpt lat="43.339380287074654" lon="12.57632324687124"><ele>456.5</ele><time>2026-04-19T15:01:55.999Z</time></trkpt><trkpt lat="43.33932489712029" lon="12.576637712760665"><ele>457.0</ele><time>2026-04-19T15:01:56.999Z</time></trkpt><trkpt lat="43.33927335912027" lon="12.576956360496487"><ele>458.5</ele><time>2026-04-19T15:01:57.999Z</time></trkpt><trkpt lat="43.3392289363382" lon="12.577275938817278"><ele>460.0</ele><time>2026-04-19T15:01:58.999Z</time></trkpt><trkpt lat="43.33918777481553" lon="12.577595008060085"><ele>460.0</ele><time>2026-04-19T15:01:59.999Z</time></trkpt><trkpt lat="43.339154117056296" lon="12.577915376810806"><ele>460.0</ele><time>2026-04-19T15:02:00.999Z</time></trkpt><trkpt lat="43.339122047758245" lon="12.578238486735172"><ele>460.0</ele><time>2026-04-19T15:02:01.999Z</time></trkpt><trkpt lat="43.33909071678156" lon="12.578565784355584"><ele>460.0</ele><time>2026-04-19T15:02:02.999Z</time></trkpt><trkpt lat="43.33905888251053" lon="12.578884320939487"><ele>459.0</ele><time>2026-04-19T15:02:03.999Z</time></trkpt><trkpt lat="43.33902556992193" lon="12.579214792279743"><ele>458.0</ele><time>2026-04-19T15:02:04.999Z</time></trkpt><trkpt lat="43.33899294948672" lon="12.57953573621403"><ele>458.0</ele><time>2026-04-19T15:02:05.999Z</time></trkpt><trkpt lat="43.33895847147217" lon="12.579868815089428"><ele>458.0</ele><time>2026-04-19T15:02:06.999Z</time></trkpt><trkpt lat="43.33892770152623" lon="12.58019471137383"><ele>457.0</ele><time>2026-04-19T15:02:07.999Z</time></trkpt><trkpt lat="43.33889452040339" lon="12.580529704614856"><ele>456.0</ele><time>2026-04-19T15:02:08.999Z</time></trkpt><trkpt lat="43.33886242390395" lon="12.58085721291746"><ele>456.5</ele><time>2026-04-19T15:02:09.999Z</time></trkpt><trkpt lat="43.33883004932204" lon="12.581188594454195"><ele>457.0</ele><time>2026-04-19T15:02:10.999Z</time></trkpt><trkpt lat="43.33879832504509" lon="12.581521748779554"><ele>457.0</ele><time>2026-04-19T15:02:11.999Z</time></trkpt><trkpt lat="43.33876600457398" lon="12.581848714766224"><ele>457.0</ele><time>2026-04-19T15:02:12.999Z</time></trkpt><trkpt lat="43.33873329128203" lon="12.582183615347525"><ele>457.5</ele><time>2026-04-19T15:02:13.999Z</time></trkpt><trkpt lat="43.338702316718255" lon="12.582512140324988"><ele>458.0</ele><time>2026-04-19T15:02:14.999Z</time></trkpt><trkpt lat="43.33866823798326" lon="12.582841631199141"><ele>459.0</ele><time>2026-04-19T15:02:15.999Z</time></trkpt><trkpt lat="43.338634075835216" lon="12.583167349167663"><ele>460.0</ele><time>2026-04-19T15:02:16.999Z</time></trkpt><trkpt lat="43.338600728491336" lon="12.58349286354684"><ele>463.0</ele><time>2026-04-19T15:02:17.999Z</time></trkpt><trkpt lat="43.33856913864109" lon="12.583817832165352"><ele>466.0</ele><time>2026-04-19T15:02:18.999Z</time></trkpt><trkpt lat="43.33853343924577" lon="12.584135794065684"><ele>466.0</ele><time>2026-04-19T15:02:19.999Z</time></trkpt><trkpt lat="43.33848957466271" lon="12.584454762639487"><ele>466.0</ele><time>2026-04-19T15:02:20.999Z</time></trkpt><trkpt lat="43.338434721003715" lon="12.584766306153822"><ele>467.0</ele><time>2026-04-19T15:02:21.999Z</time></trkpt><trkpt lat="43.33836734277327" lon="12.585074219563573"><ele>468.0</ele><time>2026-04-19T15:02:22.999Z</time></trkpt><trkpt lat="43.338290984094805" lon="12.585379540498309"><ele>468.0</ele><time>2026-04-19T15:02:23.999Z</time></trkpt><trkpt lat="43.33820143312331" lon="12.585678184190762"><ele>468.0</ele><time>2026-04-19T15:02:24.999Z</time></trkpt><trkpt lat="43.338093711067366" lon="12.585968876181804"><ele>466.5</ele><time>2026-04-19T15:02:25.999Z</time></trkpt><trkpt lat="43.337980361302726" lon="12.586246111598598"><ele>465.0</ele><time>2026-04-19T15:02:26.999Z</time></trkpt><trkpt lat="43.33784885318048" lon="12.586532687451127"><ele>465.0</ele><time>2026-04-19T15:02:27.999Z</time></trkpt><trkpt lat="43.337711426513444" lon="12.586805202248161"><ele>465.0</ele><time>2026-04-19T15:02:28.999Z</time></trkpt><trkpt lat="43.337562998492544" lon="12.587068418323994"><ele>465.0</ele><time>2026-04-19T15:02:29.999Z</time></trkpt><trkpt lat="43.337400768287466" lon="12.587316469163836"><ele>465.0</ele><time>2026-04-19T15:02:30.998Z</time></trkpt><trkpt lat="43.33722750946458" lon="12.587557211221194"><ele>465.0</ele><time>2026-04-19T15:02:31.998Z</time></trkpt><trkpt lat="43.33704608782504" lon="12.587782979861649"><ele>465.0</ele><time>2026-04-19T15:02:32.998Z</time></trkpt><trkpt lat="43.336856717359844" lon="12.587997358679251"><ele>465.0</ele><time>2026-04-19T15:02:33.998Z</time></trkpt><trkpt lat="43.3366632539082" lon="12.588213968829491"><ele>465.0</ele><time>2026-04-19T15:02:34.998Z</time></trkpt><trkpt lat="43.33647027150426" lon="12.588431452131097"><ele>464.5</ele><time>2026-04-19T15:02:35.998Z</time></trkpt><trkpt lat="43.336280357573436" lon="12.588660415701643"><ele>464.0</ele><time>2026-04-19T15:02:36.998Z</time></trkpt><trkpt lat="43.33608607036294" lon="12.588877902124088"><ele>464.0</ele><time>2026-04-19T15:02:37.998Z</time></trkpt><trkpt lat="43.33589127436454" lon="12.589093578542492"><ele>464.0</ele><time>2026-04-19T15:02:38.998Z</time></trkpt><trkpt lat="43.335700206526276" lon="12.589314267289534"><ele>462.5</ele><time>2026-04-19T15:02:39.998Z</time></trkpt><trkpt lat="43.335509623116096" lon="12.589537033261943"><ele>461.0</ele><time>2026-04-19T15:02:40.998Z</time></trkpt><trkpt lat="43.335317508952855" lon="12.589757925465738"><ele>461.0</ele><time>2026-04-19T15:02:41.998Z</time></trkpt><trkpt lat="43.33512176309663" lon="12.589975471823342"><ele>461.0</ele><time>2026-04-19T15:02:43Z</time></trkpt><trkpt lat="43.334930631476546" lon="12.59019017594932"><ele>461.0</ele><time>2026-04-19T15:02:44Z</time></trkpt><trkpt lat="43.33474011678359" lon="12.590396548192667"><ele>461.0</ele><time>2026-04-19T15:02:45Z</time></trkpt><trkpt lat="43.33455344405143" lon="12.590578977156202"><ele>461.0</ele><time>2026-04-19T15:02:46Z</time></trkpt><trkpt lat="43.33437678148558" lon="12.590774169064183"><ele>461.0</ele><time>2026-04-19T15:02:47Z</time></trkpt><trkpt lat="43.33420359498466" lon="12.59101623853638"><ele>461.0</ele><time>2026-04-19T15:02:48Z</time></trkpt><trkpt lat="43.334010963366076" lon="12.591219590480343"><ele>461.0</ele><time>2026-04-19T15:02:49Z</time></trkpt><trkpt lat="43.3338139469738" lon="12.591425448644287"><ele>461.0</ele><time>2026-04-19T15:02:50Z</time></trkpt><trkpt lat="43.33361913006553" lon="12.591641071270374"><ele>461.0</ele><time>2026-04-19T15:02:51Z</time></trkpt><trkpt lat="43.33342485047331" lon="12.591861620851747"><ele>461.0</ele><time>2026-04-19T15:02:52Z</time></trkpt><trkpt lat="43.333232016145026" lon="12.59207937848625"><ele>461.0</ele><time>2026-04-19T15:02:53Z</time></trkpt><trkpt lat="43.33303377230437" lon="12.592302892834923"><ele>459.5</ele><time>2026-04-19T15:02:54Z</time></trkpt><trkpt lat="43.33283937498122" lon="12.592519229912954"><ele>458.0</ele><time>2026-04-19T15:02:55Z</time></trkpt><trkpt lat="43.332644135654405" lon="12.592739174949328"><ele>457.5</ele><time>2026-04-19T15:02:56Z</time></trkpt><trkpt lat="43.33244997201591" lon="12.592960776796225"><ele>457.0</ele><time>2026-04-19T15:02:57Z</time></trkpt><trkpt lat="43.332258006476984" lon="12.59318713051431"><ele>455.0</ele><time>2026-04-19T15:02:58Z</time></trkpt><trkpt lat="43.33206579905644" lon="12.593418551753217"><ele>453.0</ele><time>2026-04-19T15:02:59Z</time></trkpt><trkpt lat="43.33186567548531" lon="12.593654517608153"><ele>453.0</ele><time>2026-04-19T15:03:00Z</time></trkpt><trkpt lat="43.33166510568218" lon="12.593884391302327"><ele>453.0</ele><time>2026-04-19T15:03:01Z</time></trkpt><trkpt lat="43.33145463840053" lon="12.594115824232153"><ele>451.0</ele><time>2026-04-19T15:03:02Z</time></trkpt><trkpt lat="43.33123783615147" lon="12.59436372909449"><ele>449.0</ele><time>2026-04-19T15:03:03Z</time></trkpt><trkpt lat="43.33101247007587" lon="12.594623684179867"><ele>449.0</ele><time>2026-04-19T15:03:04Z</time></trkpt><trkpt lat="43.33077695105559" lon="12.594887621114092"><ele>449.0</ele><time>2026-04-19T15:03:05Z</time></trkpt><trkpt lat="43.33054033806527" lon="12.595155247011386"><ele>448.5</ele><time>2026-04-19T15:03:06Z</time></trkpt><trkpt lat="43.330293808999194" lon="12.595430245692596"><ele>448.0</ele><time>2026-04-19T15:03:07Z</time></trkpt><trkpt lat="43.33004191418057" lon="12.595713980522389"><ele>448.0</ele><time>2026-04-19T15:03:08Z</time></trkpt><trkpt lat="43.32978686395417" lon="12.595996109060946"><ele>448.0</ele><time>2026-04-19T15:03:09Z</time></trkpt><trkpt lat="43.32953242430207" lon="12.596286869898313"><ele>447.0</ele><time>2026-04-19T15:03:10Z</time></trkpt><trkpt lat="43.32927956642435" lon="12.596570755901752"><ele>446.0</ele><time>2026-04-19T15:03:11Z</time></trkpt><trkpt lat="43.329026316368" lon="12.59685136406805"><ele>444.5</ele><time>2026-04-19T15:03:12Z</time></trkpt><trkpt lat="43.328780682584515" lon="12.59711835329736"><ele>443.0</ele><time>2026-04-19T15:03:13Z</time></trkpt><trkpt lat="43.32853959358405" lon="12.597376126851426"><ele>443.0</ele><time>2026-04-19T15:03:14Z</time></trkpt><trkpt lat="43.32831597053006" lon="12.597627160254575"><ele>443.0</ele><time>2026-04-19T15:03:15Z</time></trkpt><trkpt lat="43.32810219543787" lon="12.597885310410996"><ele>443.0</ele><time>2026-04-19T15:03:16Z</time></trkpt><trkpt lat="43.32789842224026" lon="12.598145183086494"><ele>443.0</ele><time>2026-04-19T15:03:17Z</time></trkpt><trkpt lat="43.32770351695061" lon="12.598405692726764"><ele>443.0</ele><time>2026-04-19T15:03:18Z</time></trkpt><trkpt lat="43.32750909743528" lon="12.598666972042489"><ele>443.0</ele><time>2026-04-19T15:03:19Z</time></trkpt><trkpt lat="43.32732293423332" lon="12.598927394342068"><ele>439.5</ele><time>2026-04-19T15:03:20Z</time></trkpt><trkpt lat="43.32713773630056" lon="12.5991919903702"><ele>436.0</ele><time>2026-04-19T15:03:21Z</time></trkpt><trkpt lat="43.32695769938047" lon="12.599458349376212"><ele>438.0</ele><time>2026-04-19T15:03:21.999Z</time></trkpt><trkpt lat="43.326781818102816" lon="12.599725007182634"><ele>440.0</ele><time>2026-04-19T15:03:22.999Z</time></trkpt><trkpt lat="43.32660389790108" lon="12.599992573629702"><ele>440.0</ele><time>2026-04-19T15:03:23.999Z</time></trkpt><trkpt lat="43.326427532635655" lon="12.60026145792692"><ele>440.0</ele><time>2026-04-19T15:03:24.999Z</time></trkpt><trkpt lat="43.32625343909383" lon="12.60052805595132"><ele>439.5</ele><time>2026-04-19T15:03:25.999Z</time></trkpt><trkpt lat="43.32608157978938" lon="12.60079257761397"><ele>439.0</ele><time>2026-04-19T15:03:26.999Z</time></trkpt><trkpt lat="43.32590506082836" lon="12.60106231512837"><ele>439.5</ele><time>2026-04-19T15:03:27.999Z</time></trkpt><trkpt lat="43.3257300065864" lon="12.601327109359913"><ele>440.0</ele><time>2026-04-19T15:03:28.999Z</time></trkpt><trkpt lat="43.32555459010904" lon="12.601594028158166"><ele>438.0</ele><time>2026-04-19T15:03:29.999Z</time></trkpt><trkpt lat="43.325382936862866" lon="12.601863975546847"><ele>436.0</ele><time>2026-04-19T15:03:30.999Z</time></trkpt><trkpt lat="43.32521039968876" lon="12.60213004883184"><ele>435.5</ele><time>2026-04-19T15:03:31.999Z</time></trkpt><trkpt lat="43.32503562263544" lon="12.602396155467574"><ele>435.0</ele><time>2026-04-19T15:03:32.999Z</time></trkpt><trkpt lat="43.32485925888529" lon="12.602660588851105"><ele>433.0</ele><time>2026-04-19T15:03:33.999Z</time></trkpt><trkpt lat="43.32468014242821" lon="12.602929589981558"><ele>431.0</ele><time>2026-04-19T15:03:34.999Z</time></trkpt><trkpt lat="43.324502964962356" lon="12.603199519104624"><ele>431.0</ele><time>2026-04-19T15:03:35.999Z</time></trkpt><trkpt lat="43.32432911859067" lon="12.60346910323134"><ele>431.0</ele><time>2026-04-19T15:03:36.999Z</time></trkpt><trkpt lat="43.324154455087836" lon="12.603738273244197"><ele>431.5</ele><time>2026-04-19T15:03:37.999Z</time></trkpt><trkpt lat="43.32397575982196" lon="12.60401207764981"><ele>432.0</ele><time>2026-04-19T15:03:38.999Z</time></trkpt><trkpt lat="43.32379817061916" lon="12.604282895766303"><ele>430.5</ele><time>2026-04-19T15:03:39.999Z</time></trkpt><trkpt lat="43.323622764751384" lon="12.604551181794887"><ele>429.0</ele><time>2026-04-19T15:03:40.999Z</time></trkpt><trkpt lat="43.3234485570933" lon="12.604814149539196"><ele>429.0</ele><time>2026-04-19T15:03:41.999Z</time></trkpt><trkpt lat="43.32327201063573" lon="12.605076703841597"><ele>429.0</ele><time>2026-04-19T15:03:42.999Z</time></trkpt><trkpt lat="43.323099601758905" lon="12.605335571909581"><ele>429.0</ele><time>2026-04-19T15:03:43.999Z</time></trkpt><trkpt lat="43.32292302540101" lon="12.60559609951741"><ele>429.0</ele><time>2026-04-19T15:03:44.999Z</time></trkpt><trkpt lat="43.3227478087329" lon="12.605845437260918"><ele>429.0</ele><time>2026-04-19T15:03:45.999Z</time></trkpt><trkpt lat="43.322565253483454" lon="12.606092321458496"><ele>429.0</ele><time>2026-04-19T15:03:46.999Z</time></trkpt><trkpt lat="43.322378358181425" lon="12.606333135287699"><ele>427.0</ele><time>2026-04-19T15:03:47.999Z</time></trkpt><trkpt lat="43.322177836018376" lon="12.606571154157008"><ele>425.0</ele><time>2026-04-19T15:03:48.999Z</time></trkpt><trkpt lat="43.32199423364795" lon="12.606808312654792"><ele>425.5</ele><time>2026-04-19T15:03:49.999Z</time></trkpt><trkpt lat="43.321805112868546" lon="12.607039431336887"><ele>426.0</ele><time>2026-04-19T15:03:50.999Z</time></trkpt><trkpt lat="43.32160924002361" lon="12.607266043749224"><ele>426.0</ele><time>2026-04-19T15:03:51.999Z</time></trkpt><trkpt lat="43.32141291724146" lon="12.607495331552961"><ele>426.0</ele><time>2026-04-19T15:03:52.999Z</time></trkpt><trkpt lat="43.3212158684366" lon="12.607724107877797"><ele>423.5</ele><time>2026-04-19T15:03:53.999Z</time></trkpt><trkpt lat="43.32101778519953" lon="12.607952180112102"><ele>421.0</ele><time>2026-04-19T15:03:54.999Z</time></trkpt><trkpt lat="43.320820272569954" lon="12.6081779344292"><ele>421.0</ele><time>2026-04-19T15:03:55.999Z</time></trkpt><trkpt lat="43.32062178610235" lon="12.60841312796147"><ele>421.0</ele><time>2026-04-19T15:03:56.999Z</time></trkpt><trkpt lat="43.320423832018584" lon="12.60864738950789"><ele>423.0</ele><time>2026-04-19T15:03:57.999Z</time></trkpt><trkpt lat="43.32022472303905" lon="12.608876338958384"><ele>425.0</ele><time>2026-04-19T15:03:58.999Z</time></trkpt><trkpt lat="43.32002348829308" lon="12.609112237788615"><ele>425.0</ele><time>2026-04-19T15:03:59.999Z</time></trkpt><trkpt lat="43.31982635853582" lon="12.609346570716268"><ele>425.0</ele><time>2026-04-19T15:04:00.999Z</time></trkpt><trkpt lat="43.319627215380585" lon="12.609574413939376"><ele>424.5</ele><time>2026-04-19T15:04:01.999Z</time></trkpt><trkpt lat="43.319430441534315" lon="12.609805305478725"><ele>424.0</ele><time>2026-04-19T15:04:02.999Z</time></trkpt><trkpt lat="43.31923381647266" lon="12.61003469306863"><ele>424.0</ele><time>2026-04-19T15:04:03.999Z</time></trkpt><trkpt lat="43.319037016171094" lon="12.610264041664934"><ele>424.0</ele><time>2026-04-19T15:04:04.999Z</time></trkpt><trkpt lat="43.31883950181286" lon="12.610493599777003"><ele>422.0</ele><time>2026-04-19T15:04:05.999Z</time></trkpt><trkpt lat="43.31864171182878" lon="12.61072124065991"><ele>420.0</ele><time>2026-04-19T15:04:06.999Z</time></trkpt><trkpt lat="43.318443047946815" lon="12.610951400986862"><ele>420.5</ele><time>2026-04-19T15:04:07.999Z</time></trkpt><trkpt lat="43.31824410324684" lon="12.611178623650186"><ele>421.0</ele><time>2026-04-19T15:04:08.999Z</time></trkpt><trkpt lat="43.31804944617223" lon="12.61140676145018"><ele>421.0</ele><time>2026-04-19T15:04:09.999Z</time></trkpt><trkpt lat="43.317854693186256" lon="12.611638951143403"><ele>421.0</ele><time>2026-04-19T15:04:10.999Z</time></trkpt><trkpt lat="43.317662333684005" lon="12.611872929041782"><ele>422.5</ele><time>2026-04-19T15:04:11.999Z</time></trkpt><trkpt lat="43.31747666719098" lon="12.612105232643424"><ele>424.0</ele><time>2026-04-19T15:04:12.999Z</time></trkpt><trkpt lat="43.31729657453958" lon="12.612339964895371"><ele>423.0</ele><time>2026-04-19T15:04:13.999Z</time></trkpt><trkpt lat="43.31712705871786" lon="12.612567674580617"><ele>422.0</ele><time>2026-04-19T15:04:14.999Z</time></trkpt><trkpt lat="43.316957565747565" lon="12.612797702008573"><ele>423.0</ele><time>2026-04-19T15:04:15.999Z</time></trkpt><trkpt lat="43.316797542850075" lon="12.613030805745034"><ele>424.0</ele><time>2026-04-19T15:04:16.999Z</time></trkpt><trkpt lat="43.31664153814666" lon="12.613250739542595"><ele>424.0</ele><time>2026-04-19T15:04:17.999Z</time></trkpt><trkpt lat="43.31649389551009" lon="12.613472644457161"><ele>424.0</ele><time>2026-04-19T15:04:18.999Z</time></trkpt><trkpt lat="43.31635112497049" lon="12.613683085498007"><ele>424.0</ele><time>2026-04-19T15:04:19.999Z</time></trkpt><trkpt lat="43.316210561960744" lon="12.613893872618865"><ele>424.0</ele><time>2026-04-19T15:04:20.999Z</time></trkpt><trkpt lat="43.31607475487787" lon="12.614100861438203"><ele>424.0</ele><time>2026-04-19T15:04:21.999Z</time></trkpt><trkpt lat="43.31594757564026" lon="12.614309055740145"><ele>424.0</ele><time>2026-04-19T15:04:22.999Z</time></trkpt><trkpt lat="43.31581729150541" lon="12.614518071662676"><ele>424.0</ele><time>2026-04-19T15:04:23.999Z</time></trkpt><trkpt lat="43.31568359602717" lon="12.614724016749864"><ele>424.0</ele><time>2026-04-19T15:04:24.999Z</time></trkpt><trkpt lat="43.315544863339944" lon="12.614933313131802"><ele>424.0</ele><time>2026-04-19T15:04:25.999Z</time></trkpt><trkpt lat="43.31540075832319" lon="12.615159204452382"><ele>424.0</ele><time>2026-04-19T15:04:26.999Z</time></trkpt><trkpt lat="43.31524201368867" lon="12.615370874726796"><ele>424.0</ele><time>2026-04-19T15:04:27.999Z</time></trkpt><trkpt lat="43.31509637577823" lon="12.615595361189614"><ele>424.0</ele><time>2026-04-19T15:04:28.999Z</time></trkpt><trkpt lat="43.31495174103597" lon="12.6158185056267"><ele>424.0</ele><time>2026-04-19T15:04:29.999Z</time></trkpt><trkpt lat="43.314809568508515" lon="12.616037968716922"><ele>424.0</ele><time>2026-04-19T15:04:30.999Z</time></trkpt><trkpt lat="43.31468248124114" lon="12.616267067283717"><ele>424.0</ele><time>2026-04-19T15:04:31.999Z</time></trkpt><trkpt lat="43.314544656470524" lon="12.616477825829262"><ele>425.0</ele><time>2026-04-19T15:04:32.999Z</time></trkpt><trkpt lat="43.31440954577416" lon="12.616687830088031"><ele>426.0</ele><time>2026-04-19T15:04:33.998Z</time></trkpt><trkpt lat="43.31427211682235" lon="12.616902226700569"><ele>427.0</ele><time>2026-04-19T15:04:34.998Z</time></trkpt><trkpt lat="43.31412370123881" lon="12.617102259483328"><ele>427.33333333333337</ele><time>2026-04-19T15:04:35.998Z</time></trkpt><trkpt lat="43.31399580177617" lon="12.617330151825364"><ele>427.66666666666663</ele><time>2026-04-19T15:04:36.998Z</time></trkpt><trkpt lat="43.313856757509164" lon="12.617547083507962"><ele>428.0</ele><time>2026-04-19T15:04:37.998Z</time></trkpt><trkpt lat="43.3137130145475" lon="12.617765270013546"><ele>427.3333333333333</ele><time>2026-04-19T15:04:38.998Z</time></trkpt><trkpt lat="43.31357277776346" lon="12.617992000362534"><ele>426.66666666666663</ele><time>2026-04-19T15:04:39.998Z</time></trkpt><trkpt lat="43.31343936685896" lon="12.618217696625864"><ele>426.0</ele><time>2026-04-19T15:04:40.998Z</time></trkpt><trkpt lat="43.31330908621657" lon="12.61844834921449"><ele>426.0</ele><time>2026-04-19T15:04:41.998Z</time></trkpt><trkpt lat="43.31318565653089" lon="12.618677052226555"><ele>426.0</ele><time>2026-04-19T15:04:42.998Z</time></trkpt><trkpt lat="43.313062551097325" lon="12.618901883679074"><ele>426.0</ele><time>2026-04-19T15:04:43.998Z</time></trkpt><trkpt lat="43.31293582271172" lon="12.619123592977479"><ele>425.66666666666663</ele><time>2026-04-19T15:04:44.998Z</time></trkpt><trkpt lat="43.31281277934278" lon="12.61936448334638"><ele>425.3333333333333</ele><time>2026-04-19T15:04:45.998Z</time></trkpt><trkpt lat="43.31268620322739" lon="12.619604426400011"><ele>425.0</ele><time>2026-04-19T15:04:46.998Z</time></trkpt><trkpt lat="43.31256540776512" lon="12.619851929126991"><ele>425.3333333333333</ele><time>2026-04-19T15:04:47.998Z</time></trkpt><trkpt lat="43.31244622382992" lon="12.620101334687666"><ele>425.66666666666663</ele><time>2026-04-19T15:04:49Z</time></trkpt><trkpt lat="43.31232171927338" lon="12.620361910980302"><ele>426.0</ele><time>2026-04-19T15:04:50Z</time></trkpt><trkpt lat="43.31219850316731" lon="12.620628057713573"><ele>426.0</ele><time>2026-04-19T15:04:51Z</time></trkpt><trkpt lat="43.312073124392086" lon="12.620895256399283"><ele>426.0</ele><time>2026-04-19T15:04:52Z</time></trkpt><trkpt lat="43.31195350659609" lon="12.621153892009998"><ele>426.33333333333337</ele><time>2026-04-19T15:04:53Z</time></trkpt><trkpt lat="43.31183232153352" lon="12.621410947522497"><ele>426.6666666666667</ele><time>2026-04-19T15:04:54Z</time></trkpt><trkpt lat="43.31171334412188" lon="12.621666153359753"><ele>427.0</ele><time>2026-04-19T15:04:55Z</time></trkpt><trkpt lat="43.31159233866332" lon="12.62192787861207"><ele>427.5</ele><time>2026-04-19T15:04:56Z</time></trkpt><trkpt lat="43.31147296450701" lon="12.622193420212168"><ele>428.0</ele><time>2026-04-19T15:04:57Z</time></trkpt><trkpt lat="43.31134857950515" lon="12.622470225781251"><ele>426.0</ele><time>2026-04-19T15:04:58Z</time></trkpt><trkpt lat="43.31121933029675" lon="12.622766567668979"><ele>424.0</ele><time>2026-04-19T15:04:59Z</time></trkpt><trkpt lat="43.31108305217379" lon="12.62308035429751"><ele>424.0</ele><time>2026-04-19T15:05:00Z</time></trkpt><trkpt lat="43.31093515162075" lon="12.623398417603545"><ele>424.0</ele><time>2026-04-19T15:05:01Z</time></trkpt><trkpt lat="43.31078680281405" lon="12.623724272048996"><ele>423.5</ele><time>2026-04-19T15:05:02Z</time></trkpt><trkpt lat="43.310634194401146" lon="12.624051986979197"><ele>423.0</ele><time>2026-04-19T15:05:03Z</time></trkpt><trkpt lat="43.310474964499406" lon="12.624382164509404"><ele>421.5</ele><time>2026-04-19T15:05:04Z</time></trkpt><trkpt lat="43.310313756426126" lon="12.624713865904187"><ele>420.0</ele><time>2026-04-19T15:05:05Z</time></trkpt><trkpt lat="43.31015241740622" lon="12.625046837592626"><ele>420.5</ele><time>2026-04-19T15:05:06Z</time></trkpt><trkpt lat="43.30999284876086" lon="12.625378350325823"><ele>421.0</ele><time>2026-04-19T15:05:07Z</time></trkpt><trkpt lat="43.30983586801543" lon="12.625709110526731"><ele>421.0</ele><time>2026-04-19T15:05:08Z</time></trkpt><trkpt lat="43.30967980736807" lon="12.626041380459496"><ele>421.0</ele><time>2026-04-19T15:05:09Z</time></trkpt><trkpt lat="43.30952515241472" lon="12.626374828960792"><ele>420.0</ele><time>2026-04-19T15:05:10Z</time></trkpt><trkpt lat="43.30936754624087" lon="12.626712599036553"><ele>419.0</ele><time>2026-04-19T15:05:11Z</time></trkpt><trkpt lat="43.309211843169734" lon="12.627049354781317"><ele>417.5</ele><time>2026-04-19T15:05:12Z</time></trkpt><trkpt lat="43.309054924112075" lon="12.627386829408405"><ele>416.0</ele><time>2026-04-19T15:05:13Z</time></trkpt><trkpt lat="43.30890211937928" lon="12.627722319195996"><ele>415.0</ele><time>2026-04-19T15:05:14Z</time></trkpt><trkpt lat="43.30874782066628" lon="12.628055607576714"><ele>414.0</ele><time>2026-04-19T15:05:15Z</time></trkpt><trkpt lat="43.308595800809194" lon="12.62838477209046"><ele>415.0</ele><time>2026-04-19T15:05:16Z</time></trkpt><trkpt lat="43.30844342083067" lon="12.62871250837568"><ele>416.0</ele><time>2026-04-19T15:05:17Z</time></trkpt><trkpt lat="43.30829376480192" lon="12.62903775465208"><ele>416.0</ele><time>2026-04-19T15:05:18Z</time></trkpt><trkpt lat="43.30814385110216" lon="12.629363078796587"><ele>416.0</ele><time>2026-04-19T15:05:19Z</time></trkpt><trkpt lat="43.30799755865408" lon="12.629685279793053"><ele>418.0</ele><time>2026-04-19T15:05:20Z</time></trkpt><trkpt lat="43.30784744882095" lon="12.630004659101541"><ele>420.0</ele><time>2026-04-19T15:05:21Z</time></trkpt><trkpt lat="43.30769660404937" lon="12.630320441141976"><ele>421.0</ele><time>2026-04-19T15:05:22Z</time></trkpt><trkpt lat="43.307543998944844" lon="12.630641504729317"><ele>422.0</ele><time>2026-04-19T15:05:23Z</time></trkpt><trkpt lat="43.3073974046394" lon="12.630956385297415"><ele>422.5</ele><time>2026-04-19T15:05:24Z</time></trkpt><trkpt lat="43.30725226096105" lon="12.631267082765987"><ele>423.0</ele><time>2026-04-19T15:05:25Z</time></trkpt><trkpt lat="43.307107042714605" lon="12.63158011541492"><ele>422.0</ele><time>2026-04-19T15:05:26Z</time></trkpt><trkpt lat="43.30696339053658" lon="12.63189181795686"><ele>421.0</ele><time>2026-04-19T15:05:27Z</time></trkpt><trkpt lat="43.306818626652124" lon="12.632206246480356"><ele>421.0</ele><time>2026-04-19T15:05:28Z</time></trkpt><trkpt lat="43.30667607667661" lon="12.632517964678701"><ele>421.0</ele><time>2026-04-19T15:05:29Z</time></trkpt><trkpt lat="43.306533974228095" lon="12.632829425618135"><ele>421.5</ele><time>2026-04-19T15:05:30Z</time></trkpt><trkpt lat="43.306393214427956" lon="12.633133941755068"><ele>422.0</ele><time>2026-04-19T15:05:30.999Z</time></trkpt><trkpt lat="43.30624763646813" lon="12.633445526478392"><ele>420.5</ele><time>2026-04-19T15:05:31.999Z</time></trkpt><trkpt lat="43.306104227456494" lon="12.633754254022968"><ele>419.0</ele><time>2026-04-19T15:05:32.999Z</time></trkpt><trkpt lat="43.305963283588625" lon="12.634062328050536"><ele>419.0</ele><time>2026-04-19T15:05:33.999Z</time></trkpt><trkpt lat="43.30581573994416" lon="12.634376299509446"><ele>419.0</ele><time>2026-04-19T15:05:34.999Z</time></trkpt><trkpt lat="43.30566682456973" lon="12.634696135352229"><ele>418.0</ele><time>2026-04-19T15:05:35.999Z</time></trkpt><trkpt lat="43.305517260283516" lon="12.635015290094216"><ele>417.0</ele><time>2026-04-19T15:05:36.999Z</time></trkpt><trkpt lat="43.30536636561329" lon="12.635335697830246"><ele>417.0</ele><time>2026-04-19T15:05:37.999Z</time></trkpt><trkpt lat="43.3052164957589" lon="12.635658662744781"><ele>417.0</ele><time>2026-04-19T15:05:38.999Z</time></trkpt><trkpt lat="43.30506774995567" lon="12.635977237952984"><ele>417.0</ele><time>2026-04-19T15:05:39.999Z</time></trkpt><trkpt lat="43.30492032235591" lon="12.636298205832228"><ele>417.0</ele><time>2026-04-19T15:05:40.999Z</time></trkpt><trkpt lat="43.30477028538923" lon="12.636620754563483"><ele>416.5</ele><time>2026-04-19T15:05:41.999Z</time></trkpt><trkpt lat="43.30461779500927" lon="12.636945488681103"><ele>416.0</ele><time>2026-04-19T15:05:42.999Z</time></trkpt><trkpt lat="43.304466729596484" lon="12.637270521810176"><ele>416.0</ele><time>2026-04-19T15:05:43.999Z</time></trkpt><trkpt lat="43.30431889591182" lon="12.637593755225804"><ele>416.0</ele><time>2026-04-19T15:05:44.999Z</time></trkpt><trkpt lat="43.304173059129674" lon="12.637919125850921"><ele>416.0</ele><time>2026-04-19T15:05:45.999Z</time></trkpt><trkpt lat="43.30402516185509" lon="12.638239630969084"><ele>416.0</ele><time>2026-04-19T15:05:46.999Z</time></trkpt><trkpt lat="43.30387489418413" lon="12.63855769487201"><ele>414.5</ele><time>2026-04-19T15:05:47.999Z</time></trkpt><trkpt lat="43.30373069589503" lon="12.638861630661165"><ele>413.0</ele><time>2026-04-19T15:05:48.999Z</time></trkpt><trkpt lat="43.303590514865604" lon="12.639155902091721"><ele>413.0</ele><time>2026-04-19T15:05:49.999Z</time></trkpt><trkpt lat="43.303452575701144" lon="12.639454713348275"><ele>413.0</ele><time>2026-04-19T15:05:50.999Z</time></trkpt><trkpt lat="43.303314497765484" lon="12.63975766215361"><ele>413.0</ele><time>2026-04-19T15:05:51.999Z</time></trkpt><trkpt lat="43.303177268789874" lon="12.640051431700966"><ele>413.0</ele><time>2026-04-19T15:05:52.999Z</time></trkpt><trkpt lat="43.3030447194071" lon="12.640337296350573"><ele>411.5</ele><time>2026-04-19T15:05:53.999Z</time></trkpt><trkpt lat="43.30291659100052" lon="12.640615796206923"><ele>410.0</ele><time>2026-04-19T15:05:54.999Z</time></trkpt><trkpt lat="43.30279235429224" lon="12.640878487815042"><ele>409.5</ele><time>2026-04-19T15:05:55.999Z</time></trkpt><trkpt lat="43.30266666208695" lon="12.641140375196036"><ele>409.0</ele><time>2026-04-19T15:05:56.999Z</time></trkpt><trkpt lat="43.302543651910504" lon="12.641405574855986"><ele>409.0</ele><time>2026-04-19T15:05:57.999Z</time></trkpt><trkpt lat="43.302421939778434" lon="12.641668100715151"><ele>409.0</ele><time>2026-04-19T15:05:58.999Z</time></trkpt><trkpt lat="43.30230201646739" lon="12.641927306344353"><ele>408.33333333333337</ele><time>2026-04-19T15:05:59.999Z</time></trkpt><trkpt lat="43.3021916359307" lon="12.64217288251413"><ele>407.66666666666663</ele><time>2026-04-19T15:06:00.999Z</time></trkpt><trkpt lat="43.302083997632565" lon="12.642412881676844"><ele>407.0</ele><time>2026-04-19T15:06:01.999Z</time></trkpt><trkpt lat="43.30196755656697" lon="12.642640984601265"><ele>407.3333333333333</ele><time>2026-04-19T15:06:02.999Z</time></trkpt><trkpt lat="43.30185880731006" lon="12.642882839733137"><ele>407.66666666666663</ele><time>2026-04-19T15:06:03.999Z</time></trkpt><trkpt lat="43.30175158082232" lon="12.643120976146852"><ele>408.0</ele><time>2026-04-19T15:06:04.999Z</time></trkpt><trkpt lat="43.30164475884371" lon="12.643347246984314"><ele>408.0</ele><time>2026-04-19T15:06:05.999Z</time></trkpt><trkpt lat="43.30154097729042" lon="12.643568914757155"><ele>408.0</ele><time>2026-04-19T15:06:06.999Z</time></trkpt><trkpt lat="43.30143807123295" lon="12.643792156410834"><ele>408.0</ele><time>2026-04-19T15:06:07.999Z</time></trkpt><trkpt lat="43.301331948501236" lon="12.644003849647834"><ele>409.66666666666663</ele><time>2026-04-19T15:06:08.999Z</time></trkpt><trkpt lat="43.30122689088643" lon="12.64420306053647"><ele>411.3333333333333</ele><time>2026-04-19T15:06:09.999Z</time></trkpt><trkpt lat="43.301125877546774" lon="12.644399484327305"><ele>413.0</ele><time>2026-04-19T15:06:10.999Z</time></trkpt><trkpt lat="43.301016933837" lon="12.644589319302378"><ele>414.66666666666663</ele><time>2026-04-19T15:06:11.999Z</time></trkpt><trkpt lat="43.30090990894032" lon="12.644777128327103"><ele>416.33333333333337</ele><time>2026-04-19T15:06:12.999Z</time></trkpt><trkpt lat="43.30080480294149" lon="12.644961596137396"><ele>418.0</ele><time>2026-04-19T15:06:13.999Z</time></trkpt><trkpt lat="43.300699527907796" lon="12.645141976316555"><ele>418.0</ele><time>2026-04-19T15:06:14.999Z</time></trkpt><trkpt lat="43.30059588662737" lon="12.645323308970314"><ele>418.0</ele><time>2026-04-19T15:06:15.999Z</time></trkpt><trkpt lat="43.300487218988614" lon="12.645503591497706"><ele>418.0</ele><time>2026-04-19T15:06:16.999Z</time></trkpt><trkpt lat="43.30037256045912" lon="12.64568533469379"><ele>418.0</ele><time>2026-04-19T15:06:17.999Z</time></trkpt><trkpt lat="43.3002593529825" lon="12.645875293233944"><ele>418.0</ele><time>2026-04-19T15:06:18.999Z</time></trkpt><trkpt lat="43.30013972968795" lon="12.64605655678651"><ele>418.0</ele><time>2026-04-19T15:06:19.999Z</time></trkpt><trkpt lat="43.30001743324236" lon="12.64623560447014"><ele>419.6666666666667</ele><time>2026-04-19T15:06:20.999Z</time></trkpt><trkpt lat="43.299892350527614" lon="12.646417285531982"><ele>421.33333333333337</ele><time>2026-04-19T15:06:21.999Z</time></trkpt><trkpt lat="43.299768609949716" lon="12.646601679521916"><ele>423.0</ele><time>2026-04-19T15:06:22.999Z</time></trkpt><trkpt lat="43.29964117934144" lon="12.646786404137494"><ele>422.66666666666663</ele><time>2026-04-19T15:06:23.999Z</time></trkpt><trkpt lat="43.299502956483856" lon="12.646961860875079"><ele>422.3333333333333</ele><time>2026-04-19T15:06:24.999Z</time></trkpt><trkpt lat="43.29936312656294" lon="12.647148930939384"><ele>422.0</ele><time>2026-04-19T15:06:25.999Z</time></trkpt><trkpt lat="43.299214823226016" lon="12.647334592494047"><ele>422.0</ele><time>2026-04-19T15:06:26.999Z</time></trkpt><trkpt lat="43.29907805859002" lon="12.647518296879921"><ele>422.0</ele><time>2026-04-19T15:06:27.999Z</time></trkpt><trkpt lat="43.29892702241783" lon="12.647703454015666"><ele>422.0</ele><time>2026-04-19T15:06:28.999Z</time></trkpt><trkpt lat="43.29877014297565" lon="12.647881478955503"><ele>422.3333333333333</ele><time>2026-04-19T15:06:29.999Z</time></trkpt><trkpt lat="43.29861397678555" lon="12.648063748533607"><ele>422.66666666666663</ele><time>2026-04-19T15:06:30.999Z</time></trkpt><trkpt lat="43.29845531040563" lon="12.648252050571267"><ele>423.0</ele><time>2026-04-19T15:06:31.999Z</time></trkpt><trkpt lat="43.29829140754165" lon="12.648436324512906"><ele>423.0</ele><time>2026-04-19T15:06:32.999Z</time></trkpt><trkpt lat="43.2981189346633" lon="12.648615640838337"><ele>423.0</ele><time>2026-04-19T15:06:33.999Z</time></trkpt><trkpt lat="43.29794632138413" lon="12.648798583091624"><ele>423.0</ele><time>2026-04-19T15:06:34.999Z</time></trkpt><trkpt lat="43.29777110691293" lon="12.648981213392867"><ele>420.0</ele><time>2026-04-19T15:06:35.999Z</time></trkpt><trkpt lat="43.297592405006995" lon="12.649164102255734"><ele>417.0</ele><time>2026-04-19T15:06:36.999Z</time></trkpt><trkpt lat="43.29741328814982" lon="12.649361390436965"><ele>413.5</ele><time>2026-04-19T15:06:37.999Z</time></trkpt><trkpt lat="43.29723481779278" lon="12.649555782437439"><ele>410.0</ele><time>2026-04-19T15:06:38.999Z</time></trkpt><trkpt lat="43.29704693225859" lon="12.649738199924645"><ele>410.0</ele><time>2026-04-19T15:06:39.999Z</time></trkpt><trkpt lat="43.296859310963434" lon="12.649922835989518"><ele>410.0</ele><time>2026-04-19T15:06:40.999Z</time></trkpt><trkpt lat="43.296671073426126" lon="12.65010940325552"><ele>410.66666666666663</ele><time>2026-04-19T15:06:41.999Z</time></trkpt><trkpt lat="43.29649279960965" lon="12.650291782658224"><ele>411.33333333333337</ele><time>2026-04-19T15:06:42.998Z</time></trkpt><trkpt lat="43.296326023877704" lon="12.650465221398377"><ele>412.0</ele><time>2026-04-19T15:06:43.998Z</time></trkpt><trkpt lat="43.296155565678816" lon="12.650640461986956"><ele>412.33333333333337</ele><time>2026-04-19T15:06:44.998Z</time></trkpt><trkpt lat="43.295980968186676" lon="12.650820847804614"><ele>412.66666666666663</ele><time>2026-04-19T15:06:45.998Z</time></trkpt><trkpt lat="43.29580950430424" lon="12.650995297454328"><ele>413.0</ele><time>2026-04-19T15:06:46.998Z</time></trkpt><trkpt lat="43.29565060266724" lon="12.65115689923346"><ele>411.66666666666663</ele><time>2026-04-19T15:06:47.998Z</time></trkpt><trkpt lat="43.295486942220876" lon="12.651331094399215"><ele>410.33333333333337</ele><time>2026-04-19T15:06:48.998Z</time></trkpt><trkpt lat="43.29532824408467" lon="12.651500670875281"><ele>409.0</ele><time>2026-04-19T15:06:49.998Z</time></trkpt><trkpt lat="43.29516728772153" lon="12.651665847762924"><ele>409.0</ele><time>2026-04-19T15:06:50.998Z</time></trkpt><trkpt lat="43.29500518631443" lon="12.6518353546393"><ele>409.0</ele><time>2026-04-19T15:06:51.998Z</time></trkpt><trkpt lat="43.29484583168021" lon="12.652013980998571"><ele>409.0</ele><time>2026-04-19T15:06:52.998Z</time></trkpt><trkpt lat="43.29468689253028" lon="12.65219406777052"><ele>408.0</ele><time>2026-04-19T15:06:53.998Z</time></trkpt><trkpt lat="43.29453537347" lon="12.652364886833697"><ele>407.0</ele><time>2026-04-19T15:06:55Z</time></trkpt><trkpt lat="43.29438195345747" lon="12.652530007346183"><ele>406.0</ele><time>2026-04-19T15:06:56Z</time></trkpt><trkpt lat="43.294229272564074" lon="12.652701846164042"><ele>404.33333333333337</ele><time>2026-04-19T15:06:57Z</time></trkpt><trkpt lat="43.29407785922325" lon="12.652866779566255"><ele>402.66666666666663</ele><time>2026-04-19T15:06:58Z</time></trkpt><trkpt lat="43.29394769852406" lon="12.653031012901609"><ele>401.0</ele><time>2026-04-19T15:06:59Z</time></trkpt><trkpt lat="43.29381186856561" lon="12.653198906355282"><ele>400.0</ele><time>2026-04-19T15:07:00Z</time></trkpt><trkpt lat="43.29367889114738" lon="12.653372011238865"><ele>399.0</ele><time>2026-04-19T15:07:01Z</time></trkpt><trkpt lat="43.293548183585024" lon="12.653539899115552"><ele>398.0</ele><time>2026-04-19T15:07:02Z</time></trkpt><trkpt lat="43.29342326248496" lon="12.653704205293774"><ele>397.66666666666663</ele><time>2026-04-19T15:07:03Z</time></trkpt><trkpt lat="43.29330026274452" lon="12.65387185952784"><ele>397.33333333333337</ele><time>2026-04-19T15:07:04Z</time></trkpt><trkpt lat="43.29318023292013" lon="12.654033713265635"><ele>397.0</ele><time>2026-04-19T15:07:05Z</time></trkpt><trkpt lat="43.293062913060226" lon="12.654195497385754"><ele>396.6666666666667</ele><time>2026-04-19T15:07:06Z</time></trkpt><trkpt lat="43.292939376713726" lon="12.654364742660826"><ele>396.33333333333337</ele><time>2026-04-19T15:07:07Z</time></trkpt><trkpt lat="43.292816155705154" lon="12.654537569891907"><ele>396.0</ele><time>2026-04-19T15:07:08Z</time></trkpt><trkpt lat="43.29268943970953" lon="12.654716016412559"><ele>396.0</ele><time>2026-04-19T15:07:09Z</time></trkpt><trkpt lat="43.29256003918831" lon="12.65489368402497"><ele>396.0</ele><time>2026-04-19T15:07:10Z</time></trkpt><trkpt lat="43.292435122536034" lon="12.65507104175488"><ele>396.0</ele><time>2026-04-19T15:07:11Z</time></trkpt><trkpt lat="43.29230787808769" lon="12.655245470566022"><ele>397.0</ele><time>2026-04-19T15:07:12Z</time></trkpt><trkpt lat="43.292181022181765" lon="12.655421070713336"><ele>398.0</ele><time>2026-04-19T15:07:13Z</time></trkpt><trkpt lat="43.29205623714938" lon="12.655600399110618"><ele>399.0</ele><time>2026-04-19T15:07:14Z</time></trkpt><trkpt lat="43.29193037088669" lon="12.655776880079985"><ele>399.0</ele><time>2026-04-19T15:07:15Z</time></trkpt><trkpt lat="43.291803300910665" lon="12.655955352992956"><ele>399.0</ele><time>2026-04-19T15:07:16Z</time></trkpt><trkpt lat="43.29167769313664" lon="12.656135764120469"><ele>399.0</ele><time>2026-04-19T15:07:17Z</time></trkpt><trkpt lat="43.2915469705166" lon="12.656315339839212"><ele>399.0</ele><time>2026-04-19T15:07:18Z</time></trkpt><trkpt lat="43.29141868838677" lon="12.656493256608414"><ele>399.0</ele><time>2026-04-19T15:07:19Z</time></trkpt><trkpt lat="43.29128683114192" lon="12.656668590832806"><ele>399.0</ele><time>2026-04-19T15:07:20Z</time></trkpt><trkpt lat="43.291155655693146" lon="12.656850318355062"><ele>399.66666666666663</ele><time>2026-04-19T15:07:21Z</time></trkpt><trkpt lat="43.29102133132035" lon="12.657029802309985"><ele>400.3333333333333</ele><time>2026-04-19T15:07:22Z</time></trkpt><trkpt lat="43.29088701923061" lon="12.657209679466934"><ele>401.0</ele><time>2026-04-19T15:07:23Z</time></trkpt><trkpt lat="43.290746100845176" lon="12.657400626309396"><ele>401.0</ele><time>2026-04-19T15:07:24Z</time></trkpt><trkpt lat="43.29059448259352" lon="12.657592331770223"><ele>401.0</ele><time>2026-04-19T15:07:25Z</time></trkpt><trkpt lat="43.29047197040884" lon="12.65776200160611"><ele>401.0</ele><time>2026-04-19T15:07:26Z</time></trkpt><trkpt lat="43.29032699291707" lon="12.657946195686261"><ele>400.0</ele><time>2026-04-19T15:07:27Z</time></trkpt><trkpt lat="43.290173456993244" lon="12.658128378227698"><ele>399.0</ele><time>2026-04-19T15:07:28Z</time></trkpt><trkpt lat="43.29001428570835" lon="12.658306054641965"><ele>398.0</ele><time>2026-04-19T15:07:29Z</time></trkpt><trkpt lat="43.28985294406074" lon="12.65848187274232"><ele>397.0</ele><time>2026-04-19T15:07:30Z</time></trkpt><trkpt lat="43.28968352470814" lon="12.658661669766007"><ele>396.0</ele><time>2026-04-19T15:07:31Z</time></trkpt><trkpt lat="43.28951590957833" lon="12.658844512815406"><ele>395.0</ele><time>2026-04-19T15:07:32Z</time></trkpt><trkpt lat="43.28934748408995" lon="12.659027256646292"><ele>395.0</ele><time>2026-04-19T15:07:33Z</time></trkpt><trkpt lat="43.28917673166001" lon="12.659203375728046"><ele>395.0</ele><time>2026-04-19T15:07:34Z</time></trkpt><trkpt lat="43.2890027858446" lon="12.65937758212734"><ele>395.0</ele><time>2026-04-19T15:07:34.999Z</time></trkpt><trkpt lat="43.28882660960377" lon="12.65954523253674"><ele>393.66666666666663</ele><time>2026-04-19T15:07:35.999Z</time></trkpt><trkpt lat="43.28864915612739" lon="12.659711331581919"><ele>392.33333333333337</ele><time>2026-04-19T15:07:36.999Z</time></trkpt><trkpt lat="43.28846968834092" lon="12.659874928248087"><ele>391.0</ele><time>2026-04-19T15:07:37.999Z</time></trkpt><trkpt lat="43.28829054928324" lon="12.66003081349035"><ele>391.0</ele><time>2026-04-19T15:07:38.999Z</time></trkpt><trkpt lat="43.288108350243625" lon="12.660185805780099"><ele>391.0</ele><time>2026-04-19T15:07:39.999Z</time></trkpt><trkpt lat="43.287925556110295" lon="12.660336863447583"><ele>391.0</ele><time>2026-04-19T15:07:40.999Z</time></trkpt><trkpt lat="43.28774394552234" lon="12.660486286929583"><ele>391.0</ele><time>2026-04-19T15:07:41.999Z</time></trkpt><trkpt lat="43.28756699959028" lon="12.660626373216985"><ele>391.0</ele><time>2026-04-19T15:07:42.999Z</time></trkpt><trkpt lat="43.28738841102816" lon="12.66076627229532"><ele>391.0</ele><time>2026-04-19T15:07:43.999Z</time></trkpt><trkpt lat="43.28721409028284" lon="12.660896248716785"><ele>390.6666666666667</ele><time>2026-04-19T15:07:44.999Z</time></trkpt><trkpt lat="43.287041791828045" lon="12.661018307390485"><ele>390.33333333333337</ele><time>2026-04-19T15:07:45.999Z</time></trkpt><trkpt lat="43.28686961787875" lon="12.661145341097894"><ele>390.0</ele><time>2026-04-19T15:07:46.999Z</time></trkpt><trkpt lat="43.286697376008355" lon="12.66125300204922"><ele>390.0</ele><time>2026-04-19T15:07:47.999Z</time></trkpt><trkpt lat="43.28652819510997" lon="12.661365478579569"><ele>390.0</ele><time>2026-04-19T15:07:48.999Z</time></trkpt><trkpt lat="43.286359787788065" lon="12.661476871926459"><ele>390.0</ele><time>2026-04-19T15:07:49.999Z</time></trkpt><trkpt lat="43.28619112325124" lon="12.661580391834178"><ele>390.0</ele><time>2026-04-19T15:07:50.999Z</time></trkpt><trkpt lat="43.28602278427978" lon="12.661684601326055"><ele>390.0</ele><time>2026-04-19T15:07:51.999Z</time></trkpt><trkpt lat="43.28585086814751" lon="12.661785579648486"><ele>390.0</ele><time>2026-04-19T15:07:52.999Z</time></trkpt><trkpt lat="43.28567438168275" lon="12.661883974849768"><ele>389.33333333333337</ele><time>2026-04-19T15:07:53.999Z</time></trkpt><trkpt lat="43.28550032962798" lon="12.661986490189113"><ele>388.6666666666667</ele><time>2026-04-19T15:07:54.999Z</time></trkpt><trkpt lat="43.285324466620985" lon="12.662089745050796"><ele>388.0</ele><time>2026-04-19T15:07:55.999Z</time></trkpt><trkpt lat="43.28514358752276" lon="12.66219862440435"><ele>388.0</ele><time>2026-04-19T15:07:56.999Z</time></trkpt><trkpt lat="43.28496752010234" lon="12.66230208999738"><ele>388.0</ele><time>2026-04-19T15:07:57.999Z</time></trkpt><trkpt lat="43.28479129083403" lon="12.662404409436133"><ele>388.0</ele><time>2026-04-19T15:07:58.999Z</time></trkpt><trkpt lat="43.28461436356284" lon="12.662499117369643"><ele>388.0</ele><time>2026-04-19T15:07:59.999Z</time></trkpt><trkpt lat="43.28443561744189" lon="12.662604584295872"><ele>388.0</ele><time>2026-04-19T15:08:00.999Z</time></trkpt><trkpt lat="43.28425757390184" lon="12.662703857748252"><ele>388.0</ele><time>2026-04-19T15:08:01.999Z</time></trkpt><trkpt lat="43.28407880569608" lon="12.662809837888386"><ele>387.0</ele><time>2026-04-19T15:08:02.999Z</time></trkpt><trkpt lat="43.28389938272829" lon="12.662913731343265"><ele>386.0</ele><time>2026-04-19T15:08:03.999Z</time></trkpt><trkpt lat="43.28371825025848" lon="12.663017605033863"><ele>385.0</ele><time>2026-04-19T15:08:04.999Z</time></trkpt><trkpt lat="43.28353907584126" lon="12.663122005677044"><ele>385.0</ele><time>2026-04-19T15:08:05.999Z</time></trkpt><trkpt lat="43.283359406373286" lon="12.663228837766248"><ele>385.0</ele><time>2026-04-19T15:08:06.999Z</time></trkpt><trkpt lat="43.283181365997216" lon="12.663335868417573"><ele>385.0</ele><time>2026-04-19T15:08:07.999Z</time></trkpt><trkpt lat="43.283005398977174" lon="12.663435468705192"><ele>384.6666666666667</ele><time>2026-04-19T15:08:08.999Z</time></trkpt><trkpt lat="43.28282663049193" lon="12.663537531633759"><ele>384.33333333333337</ele><time>2026-04-19T15:08:09.999Z</time></trkpt><trkpt lat="43.28264690139912" lon="12.66363844981826"><ele>384.0</ele><time>2026-04-19T15:08:10.999Z</time></trkpt><trkpt lat="43.28246345996042" lon="12.663743624904235"><ele>384.0</ele><time>2026-04-19T15:08:11.999Z</time></trkpt><trkpt lat="43.28227831109179" lon="12.66384712119258"><ele>384.0</ele><time>2026-04-19T15:08:12.999Z</time></trkpt><trkpt lat="43.282093382206334" lon="12.66395302176201"><ele>384.0</ele><time>2026-04-19T15:08:13.999Z</time></trkpt><trkpt lat="43.28190732822507" lon="12.664064049027838"><ele>383.3333333333333</ele><time>2026-04-19T15:08:14.999Z</time></trkpt><trkpt lat="43.281718655784914" lon="12.66417518416016"><ele>382.66666666666663</ele><time>2026-04-19T15:08:15.999Z</time></trkpt><trkpt lat="43.281528073292925" lon="12.664285594893794"><ele>382.0</ele><time>2026-04-19T15:08:16.999Z</time></trkpt><trkpt lat="43.281336627167825" lon="12.664398046488985"><ele>381.66666666666663</ele><time>2026-04-19T15:08:17.999Z</time></trkpt><trkpt lat="43.28114194654294" lon="12.664519821441369"><ele>381.3333333333333</ele><time>2026-04-19T15:08:18.999Z</time></trkpt><trkpt lat="43.280937341149816" lon="12.664623588397987"><ele>381.0</ele><time>2026-04-19T15:08:19.999Z</time></trkpt><trkpt lat="43.280738924753585" lon="12.664759851882618"><ele>380.6666666666667</ele><time>2026-04-19T15:08:20.999Z</time></trkpt><trkpt lat="43.280534432994536" lon="12.664875420831569"><ele>380.33333333333337</ele><time>2026-04-19T15:08:21.999Z</time></trkpt><trkpt lat="43.28033421578648" lon="12.664990808115675"><ele>380.0</ele><time>2026-04-19T15:08:22.999Z</time></trkpt><trkpt lat="43.28013215025042" lon="12.665106893060594"><ele>380.0</ele><time>2026-04-19T15:08:23.999Z</time></trkpt><trkpt lat="43.27992259820361" lon="12.66520805626474"><ele>380.0</ele><time>2026-04-19T15:08:24.999Z</time></trkpt><trkpt lat="43.279714693227845" lon="12.665325839909096"><ele>380.0</ele><time>2026-04-19T15:08:25.999Z</time></trkpt><trkpt lat="43.27949815889966" lon="12.665452222986469"><ele>377.5</ele><time>2026-04-19T15:08:26.999Z</time></trkpt><trkpt lat="43.27927060278898" lon="12.66558480305334"><ele>375.0</ele><time>2026-04-19T15:08:27.999Z</time></trkpt><trkpt lat="43.27902673665851" lon="12.66572450058237"><ele>373.5</ele><time>2026-04-19T15:08:28.999Z</time></trkpt><trkpt lat="43.27876548081525" lon="12.665874170409674"><ele>372.0</ele><time>2026-04-19T15:08:29.999Z</time></trkpt><trkpt lat="43.27849006794192" lon="12.666033083685425"><ele>371.5</ele><time>2026-04-19T15:08:30.999Z</time></trkpt><trkpt lat="43.278203808852105" lon="12.66619819071509"><ele>371.0</ele><time>2026-04-19T15:08:31.999Z</time></trkpt><trkpt lat="43.27792094667834" lon="12.66635703229111"><ele>371.0</ele><time>2026-04-19T15:08:32.999Z</time></trkpt><trkpt lat="43.27763301531423" lon="12.66652389771549"><ele>371.0</ele><time>2026-04-19T15:08:33.999Z</time></trkpt><trkpt lat="43.2773449364897" lon="12.666672519305587"><ele>371.0</ele><time>2026-04-19T15:08:34.999Z</time></trkpt><trkpt lat="43.27706954926543" lon="12.666817455569143"><ele>371.0</ele><time>2026-04-19T15:08:35.999Z</time></trkpt><trkpt lat="43.27679993411275" lon="12.666957829740307"><ele>371.0</ele><time>2026-04-19T15:08:36.999Z</time></trkpt><trkpt lat="43.27653364190346" lon="12.667092401416255"><ele>371.0</ele><time>2026-04-19T15:08:37.999Z</time></trkpt><trkpt lat="43.276268930113154" lon="12.667223008411666"><ele>370.0</ele><time>2026-04-19T15:08:38.999Z</time></trkpt><trkpt lat="43.276008278690725" lon="12.667353728701597"><ele>369.0</ele><time>2026-04-19T15:08:39.999Z</time></trkpt><trkpt lat="43.27575177491428" lon="12.667484396516613"><ele>367.5</ele><time>2026-04-19T15:08:40.999Z</time></trkpt><trkpt lat="43.27549847704761" lon="12.667617747155477"><ele>366.0</ele><time>2026-04-19T15:08:41.999Z</time></trkpt><trkpt lat="43.27524586983132" lon="12.667750034597754"><ele>366.0</ele><time>2026-04-19T15:08:42.999Z</time></trkpt><trkpt lat="43.27499209471426" lon="12.667880414810133"><ele>366.0</ele><time>2026-04-19T15:08:43.999Z</time></trkpt><trkpt lat="43.27473579467005" lon="12.668011834881863"><ele>364.5</ele><time>2026-04-19T15:08:44.999Z</time></trkpt><trkpt lat="43.27447684019319" lon="12.66814473606582"><ele>363.0</ele><time>2026-04-19T15:08:45.999Z</time></trkpt><trkpt lat="43.274220280208574" lon="12.668273493097411"><ele>363.0</ele><time>2026-04-19T15:08:46.999Z</time></trkpt><trkpt lat="43.27396731560539" lon="12.66839955137732"><ele>363.0</ele><time>2026-04-19T15:08:47.998Z</time></trkpt><trkpt lat="43.27370859755975" lon="12.66852324556105"><ele>362.5</ele><time>2026-04-19T15:08:48.998Z</time></trkpt><trkpt lat="43.27345703073498" lon="12.668656771887463"><ele>362.0</ele><time>2026-04-19T15:08:49.998Z</time></trkpt><trkpt lat="43.273203480085506" lon="12.668787328857675"><ele>361.5</ele><time>2026-04-19T15:08:50.998Z</time></trkpt><trkpt lat="43.272952671872474" lon="12.668920542637142"><ele>361.0</ele><time>2026-04-19T15:08:51.998Z</time></trkpt><trkpt lat="43.27270363209176" lon="12.669053047011591"><ele>361.0</ele><time>2026-04-19T15:08:52.998Z</time></trkpt><trkpt lat="43.272455181442304" lon="12.669188861780038"><ele>361.0</ele><time>2026-04-19T15:08:53.998Z</time></trkpt><trkpt lat="43.272207928027925" lon="12.669327234863706"><ele>361.0</ele><time>2026-04-19T15:08:54.998Z</time></trkpt><trkpt lat="43.271960710883945" lon="12.66946747244961"><ele>361.0</ele><time>2026-04-19T15:08:55.998Z</time></trkpt><trkpt lat="43.27171265762971" lon="12.669613142281097"><ele>361.0</ele><time>2026-04-19T15:08:56.998Z</time></trkpt><trkpt lat="43.27146550013916" lon="12.669763664249302"><ele>361.0</ele><time>2026-04-19T15:08:57.998Z</time></trkpt><trkpt lat="43.27121886361238" lon="12.669921563821395"><ele>360.0</ele><time>2026-04-19T15:08:58.998Z</time></trkpt><trkpt lat="43.2709748111209" lon="12.670086949795387"><ele>359.0</ele><time>2026-04-19T15:09:00Z</time></trkpt><trkpt lat="43.27073221885079" lon="12.67025861431064"><ele>358.0</ele><time>2026-04-19T15:09:01Z</time></trkpt><trkpt lat="43.27049139301838" lon="12.670431837090717"><ele>357.0</ele><time>2026-04-19T15:09:02Z</time></trkpt><trkpt lat="43.270252739524395" lon="12.670611068777973"><ele>357.0</ele><time>2026-04-19T15:09:03Z</time></trkpt><trkpt lat="43.27001699573322" lon="12.67079381043503"><ele>357.0</ele><time>2026-04-19T15:09:04Z</time></trkpt><trkpt lat="43.26978385810587" lon="12.670982227109098"><ele>357.0</ele><time>2026-04-19T15:09:05Z</time></trkpt><trkpt lat="43.269553177283996" lon="12.671178886641293"><ele>357.0</ele><time>2026-04-19T15:09:06Z</time></trkpt><trkpt lat="43.26932419921673" lon="12.671380088281579"><ele>357.0</ele><time>2026-04-19T15:09:07Z</time></trkpt><trkpt lat="43.269095472233005" lon="12.671584565591859"><ele>357.0</ele><time>2026-04-19T15:09:08Z</time></trkpt><trkpt lat="43.26886817388428" lon="12.671791296916187"><ele>356.5</ele><time>2026-04-19T15:09:09Z</time></trkpt><trkpt lat="43.26864277197743" lon="12.67200225805637"><ele>356.0</ele><time>2026-04-19T15:09:10Z</time></trkpt><trkpt lat="43.268424798640254" lon="12.672219468616227"><ele>356.0</ele><time>2026-04-19T15:09:11Z</time></trkpt><trkpt lat="43.26820863446091" lon="12.672438507266238"><ele>356.0</ele><time>2026-04-19T15:09:12Z</time></trkpt><trkpt lat="43.267996000758494" lon="12.672658152326305"><ele>355.5</ele><time>2026-04-19T15:09:13Z</time></trkpt><trkpt lat="43.267788546147706" lon="12.672876141185021"><ele>355.0</ele><time>2026-04-19T15:09:14Z</time></trkpt><trkpt lat="43.26758297134218" lon="12.673097276725425"><ele>355.0</ele><time>2026-04-19T15:09:15Z</time></trkpt><trkpt lat="43.26737965942798" lon="12.673320477799738"><ele>355.0</ele><time>2026-04-19T15:09:16Z</time></trkpt><trkpt lat="43.26717919692336" lon="12.673539206929473"><ele>354.0</ele><time>2026-04-19T15:09:17Z</time></trkpt><trkpt lat="43.2669805029551" lon="12.673757960003663"><ele>353.0</ele><time>2026-04-19T15:09:18Z</time></trkpt><trkpt lat="43.26678662648661" lon="12.673973905616378"><ele>353.0</ele><time>2026-04-19T15:09:19Z</time></trkpt><trkpt lat="43.26659682442613" lon="12.674188990321866"><ele>353.0</ele><time>2026-04-19T15:09:20Z</time></trkpt><trkpt lat="43.26641017705918" lon="12.674399559129093"><ele>352.5</ele><time>2026-04-19T15:09:21Z</time></trkpt><trkpt lat="43.266224256380056" lon="12.674610553350261"><ele>352.0</ele><time>2026-04-19T15:09:22Z</time></trkpt><trkpt lat="43.266037735758616" lon="12.674822425220727"><ele>352.0</ele><time>2026-04-19T15:09:23Z</time></trkpt><trkpt lat="43.265850985978055" lon="12.67503583869353"><ele>352.0</ele><time>2026-04-19T15:09:24Z</time></trkpt><trkpt lat="43.2656619255738" lon="12.675251212764366"><ele>352.0</ele><time>2026-04-19T15:09:25Z</time></trkpt><trkpt lat="43.265469640597054" lon="12.675461810754637"><ele>352.0</ele><time>2026-04-19T15:09:26Z</time></trkpt><trkpt lat="43.26527592547651" lon="12.675672783495198"><ele>352.0</ele><time>2026-04-19T15:09:27Z</time></trkpt><trkpt lat="43.265083593098076" lon="12.675880344286721"><ele>352.0</ele><time>2026-04-19T15:09:28Z</time></trkpt><trkpt lat="43.26488931489752" lon="12.676083040150242"><ele>353.0</ele><time>2026-04-19T15:09:29Z</time></trkpt><trkpt lat="43.264696346710764" lon="12.676290724456127"><ele>354.0</ele><time>2026-04-19T15:09:30Z</time></trkpt><trkpt lat="43.26450044400757" lon="12.676500415282387"><ele>354.0</ele><time>2026-04-19T15:09:31Z</time></trkpt><trkpt lat="43.264307746609134" lon="12.67671100375675"><ele>354.0</ele><time>2026-04-19T15:09:32Z</time></trkpt><trkpt lat="43.26411468557423" lon="12.676927588611763"><ele>351.5</ele><time>2026-04-19T15:09:33Z</time></trkpt><trkpt lat="43.263921965244556" lon="12.677140867664521"><ele>349.0</ele><time>2026-04-19T15:09:34Z</time></trkpt><trkpt lat="43.263728134292464" lon="12.677353856967006"><ele>349.0</ele><time>2026-04-19T15:09:35Z</time></trkpt><trkpt lat="43.26353312837919" lon="12.677563637392074"><ele>349.0</ele><time>2026-04-19T15:09:36Z</time></trkpt><trkpt lat="43.263344143395805" lon="12.67777396081066"><ele>348.5</ele><time>2026-04-19T15:09:37Z</time></trkpt><trkpt lat="43.26315312065153" lon="12.677986920293153"><ele>348.0</ele><time>2026-04-19T15:09:37.999Z</time></trkpt><trkpt lat="43.26296416874199" lon="12.67819934496541"><ele>348.0</ele><time>2026-04-19T15:09:38.999Z</time></trkpt><trkpt lat="43.26277169093304" lon="12.67840667739526"><ele>348.0</ele><time>2026-04-19T15:09:39.999Z</time></trkpt><trkpt lat="43.26257935631834" lon="12.678613006878804"><ele>348.5</ele><time>2026-04-19T15:09:40.999Z</time></trkpt><trkpt lat="43.26238615886646" lon="12.678820298263753"><ele>349.0</ele><time>2026-04-19T15:09:41.999Z</time></trkpt><trkpt lat="43.26219421461739" lon="12.679030709535857"><ele>349.0</ele><time>2026-04-19T15:09:42.999Z</time></trkpt><trkpt lat="43.26200374438538" lon="12.679241209922775"><ele>349.0</ele><time>2026-04-19T15:09:43.999Z</time></trkpt><trkpt lat="43.26181547017891" lon="12.679448707805534"><ele>349.0</ele><time>2026-04-19T15:09:44.999Z</time></trkpt><trkpt lat="43.26162708075469" lon="12.679656849752995"><ele>349.0</ele><time>2026-04-19T15:09:45.999Z</time></trkpt><trkpt lat="43.26144534630025" lon="12.679856652047802"><ele>348.5</ele><time>2026-04-19T15:09:46.999Z</time></trkpt><trkpt lat="43.2612692964787" lon="12.680051775218251"><ele>348.0</ele><time>2026-04-19T15:09:47.999Z</time></trkpt><trkpt lat="43.261095083901544" lon="12.680244610901799"><ele>348.3333333333333</ele><time>2026-04-19T15:09:48.999Z</time></trkpt><trkpt lat="43.26092550115135" lon="12.680432636170837"><ele>348.66666666666663</ele><time>2026-04-19T15:09:49.999Z</time></trkpt><trkpt lat="43.26075386983153" lon="12.680623148832051"><ele>349.0</ele><time>2026-04-19T15:09:50.999Z</time></trkpt><trkpt lat="43.26058390057705" lon="12.680810063836818"><ele>349.0</ele><time>2026-04-19T15:09:51.999Z</time></trkpt><trkpt lat="43.26041244487596" lon="12.68099929561923"><ele>349.0</ele><time>2026-04-19T15:09:52.999Z</time></trkpt><trkpt lat="43.26024166999011" lon="12.681188746489388"><ele>349.0</ele><time>2026-04-19T15:09:53.999Z</time></trkpt><trkpt lat="43.2600711570168" lon="12.681380201658575"><ele>349.66666666666663</ele><time>2026-04-19T15:09:54.999Z</time></trkpt><trkpt lat="43.25989778963912" lon="12.681571742868423"><ele>350.3333333333333</ele><time>2026-04-19T15:09:55.999Z</time></trkpt><trkpt lat="43.25972664051547" lon="12.681760917860437"><ele>351.0</ele><time>2026-04-19T15:09:56.999Z</time></trkpt><trkpt lat="43.259556718256604" lon="12.68194815245332"><ele>351.3333333333333</ele><time>2026-04-19T15:09:57.999Z</time></trkpt><trkpt lat="43.259388146965755" lon="12.682132800412987"><ele>351.66666666666663</ele><time>2026-04-19T15:09:58.999Z</time></trkpt><trkpt lat="43.2592166588361" lon="12.682315495733038"><ele>352.0</ele><time>2026-04-19T15:09:59.999Z</time></trkpt><trkpt lat="43.25905034259536" lon="12.68249807622021"><ele>355.0</ele><time>2026-04-19T15:10:00.999Z</time></trkpt><trkpt lat="43.25889495346351" lon="12.682673297799932"><ele>358.0</ele><time>2026-04-19T15:10:01.999Z</time></trkpt><trkpt lat="43.258730072313554" lon="12.682845567139523"><ele>361.0</ele><time>2026-04-19T15:10:02.999Z</time></trkpt><trkpt lat="43.25858476139334" lon="12.68300472749474"><ele>361.0</ele><time>2026-04-19T15:10:03.999Z</time></trkpt><trkpt lat="43.25845428624586" lon="12.68315153789039"><ele>361.0</ele><time>2026-04-19T15:10:04.999Z</time></trkpt><trkpt lat="43.25834461378348" lon="12.683298629395324"><ele>361.0</ele><time>2026-04-19T15:10:05.999Z</time></trkpt><trkpt lat="43.25826652546286" lon="12.683456777827008"><ele>362.5</ele><time>2026-04-19T15:10:06.999Z</time></trkpt><trkpt lat="43.25821264861417" lon="12.683643665135273"><ele>364.0</ele><time>2026-04-19T15:10:07.999Z</time></trkpt><trkpt lat="43.258179665458115" lon="12.68383726116694"><ele>365.5</ele><time>2026-04-19T15:10:08.999Z</time></trkpt><trkpt lat="43.258168072607475" lon="12.68402237276369"><ele>367.0</ele><time>2026-04-19T15:10:09.999Z</time></trkpt><trkpt lat="43.258172022591715" lon="12.684197289172198"><ele>367.0</ele><time>2026-04-19T15:10:10.999Z</time></trkpt><trkpt lat="43.258197879985204" lon="12.684366962204248"><ele>367.0</ele><time>2026-04-19T15:10:11.999Z</time></trkpt><trkpt lat="43.25823852487497" lon="12.684538223806909"><ele>367.0</ele><time>2026-04-19T15:10:12.999Z</time></trkpt><trkpt lat="43.25829786520868" lon="12.684709184212398"><ele>367.0</ele><time>2026-04-19T15:10:13.999Z</time></trkpt><trkpt lat="43.258379124587094" lon="12.684866426207321"><ele>369.75</ele><time>2026-04-19T15:10:14.999Z</time></trkpt><trkpt lat="43.25847498076651" lon="12.685008190946885"><ele>372.5</ele><time>2026-04-19T15:10:15.999Z</time></trkpt><trkpt lat="43.25859288700535" lon="12.685134947762739"><ele>375.25</ele><time>2026-04-19T15:10:16.999Z</time></trkpt><trkpt lat="43.25872609085868" lon="12.685232605742142"><ele>378.0</ele><time>2026-04-19T15:10:17.999Z</time></trkpt><trkpt lat="43.25887154278181" lon="12.68530826082834"><ele>377.0</ele><time>2026-04-19T15:10:18.999Z</time></trkpt><trkpt lat="43.25902704637473" lon="12.685340975436299"><ele>376.0</ele><time>2026-04-19T15:10:19.999Z</time></trkpt><trkpt lat="43.2591819377283" lon="12.685344989121885"><ele>375.0</ele><time>2026-04-19T15:10:20.999Z</time></trkpt><trkpt lat="43.25933903757487" lon="12.685343239394012"><ele>375.0</ele><time>2026-04-19T15:10:21.999Z</time></trkpt><trkpt lat="43.25948849363382" lon="12.68534859242497"><ele>375.0</ele><time>2026-04-19T15:10:22.999Z</time></trkpt><trkpt lat="43.259632321883245" lon="12.68536742976199"><ele>375.0</ele><time>2026-04-19T15:10:23.999Z</time></trkpt><trkpt lat="43.25976704786732" lon="12.68542199935753"><ele>375.0</ele><time>2026-04-19T15:10:24.999Z</time></trkpt><trkpt lat="43.25989274410712" lon="12.68550582194969"><ele>370.5</ele><time>2026-04-19T15:10:25.999Z</time></trkpt><trkpt lat="43.26001576842465" lon="12.685620024987845"><ele>366.0</ele><time>2026-04-19T15:10:26.999Z</time></trkpt><trkpt lat="43.26012945928545" lon="12.685751089580917"><ele>361.5</ele><time>2026-04-19T15:10:27.999Z</time></trkpt><trkpt lat="43.26022645754003" lon="12.685896666176914"><ele>357.0</ele><time>2026-04-19T15:10:28.999Z</time></trkpt><trkpt lat="43.26031115560809" lon="12.686058460042915"><ele>360.6666666666667</ele><time>2026-04-19T15:10:29.999Z</time></trkpt><trkpt lat="43.260381044273444" lon="12.686241857120564"><ele>364.33333333333337</ele><time>2026-04-19T15:10:30.999Z</time></trkpt><trkpt lat="43.2604543322956" lon="12.686423561392798"><ele>368.0</ele><time>2026-04-19T15:10:31.999Z</time></trkpt><trkpt lat="43.260526274666134" lon="12.68661351518972"><ele>368.0</ele><time>2026-04-19T15:10:32.999Z</time></trkpt><trkpt lat="43.260611001150004" lon="12.686808269836662"><ele>368.0</ele><time>2026-04-19T15:10:33.999Z</time></trkpt><trkpt lat="43.260701245732015" lon="12.687010916573389"><ele>368.0</ele><time>2026-04-19T15:10:34.999Z</time></trkpt><trkpt lat="43.26079542934688" lon="12.687230779614765"><ele>368.33333333333337</ele><time>2026-04-19T15:10:35.999Z</time></trkpt><trkpt lat="43.26089062000882" lon="12.68746529031556"><ele>368.6666666666667</ele><time>2026-04-19T15:10:36.999Z</time></trkpt><trkpt lat="43.260987495373215" lon="12.687711248290222"><ele>369.0</ele><time>2026-04-19T15:10:37.999Z</time></trkpt><trkpt lat="43.261075147214555" lon="12.687955516180478"><ele>369.0</ele><time>2026-04-19T15:10:38.999Z</time></trkpt><trkpt lat="43.26116412499358" lon="12.688204489914032"><ele>369.0</ele><time>2026-04-19T15:10:39.999Z</time></trkpt><trkpt lat="43.26125857789881" lon="12.688457305946825"><ele>369.0</ele><time>2026-04-19T15:10:40.999Z</time></trkpt><trkpt lat="43.26135306588645" lon="12.688714122876995"><ele>366.0</ele><time>2026-04-19T15:10:41.999Z</time></trkpt><trkpt lat="43.2614524109762" lon="12.688975495831585"><ele>363.0</ele><time>2026-04-19T15:10:42.999Z</time></trkpt><trkpt lat="43.2615524340057" lon="12.68923710462594"><ele>360.0</ele><time>2026-04-19T15:10:43.999Z</time></trkpt><trkpt lat="43.261651669023536" lon="12.689506836227096"><ele>360.0</ele><time>2026-04-19T15:10:44.999Z</time></trkpt><trkpt lat="43.26174834206687" lon="12.689780295543203"><ele>360.0</ele><time>2026-04-19T15:10:45.999Z</time></trkpt><trkpt lat="43.261852988996466" lon="12.690056465332196"><ele>360.0</ele><time>2026-04-19T15:10:46.999Z</time></trkpt><trkpt lat="43.26195481120762" lon="12.690331565816656"><ele>360.5</ele><time>2026-04-19T15:10:47.999Z</time></trkpt><trkpt lat="43.26205781390011" lon="12.690612293606927"><ele>361.0</ele><time>2026-04-19T15:10:48.999Z</time></trkpt><trkpt lat="43.26216245707534" lon="12.690893507173838"><ele>363.5</ele><time>2026-04-19T15:10:49.999Z</time></trkpt><trkpt lat="43.26226887576985" lon="12.691175728571523"><ele>366.0</ele><time>2026-04-19T15:10:50.998Z</time></trkpt><trkpt lat="43.262372172358894" lon="12.691460524438014"><ele>361.0</ele><time>2026-04-19T15:10:51.998Z</time></trkpt><trkpt lat="43.26247469732994" lon="12.691746159751364"><ele>356.0</ele><time>2026-04-19T15:10:52.998Z</time></trkpt><trkpt lat="43.262578828348865" lon="12.692035134619639"><ele>356.0</ele><time>2026-04-19T15:10:53.998Z</time></trkpt><trkpt lat="43.262682656364284" lon="12.692323115411197"><ele>356.0</ele><time>2026-04-19T15:10:54.998Z</time></trkpt><trkpt lat="43.2627885790502" lon="12.692612622181812"><ele>363.0</ele><time>2026-04-19T15:10:55.998Z</time></trkpt><trkpt lat="43.26289959200959" lon="12.692898796406492"><ele>370.0</ele><time>2026-04-19T15:10:56.998Z</time></trkpt><trkpt lat="43.263015423226555" lon="12.693180731876115"><ele>366.0</ele><time>2026-04-19T15:10:57.998Z</time></trkpt><trkpt lat="43.26313356288164" lon="12.693460509600913"><ele>362.0</ele><time>2026-04-19T15:10:58.998Z</time></trkpt><trkpt lat="43.263270983564375" lon="12.693735064321672"><ele>362.0</ele><time>2026-04-19T15:10:59.998Z</time></trkpt><trkpt lat="43.26340119644588" lon="12.693995664196917"><ele>362.0</ele><time>2026-04-19T15:11:00.998Z</time></trkpt><trkpt lat="43.263546780304466" lon="12.694247494240503"><ele>367.0</ele><time>2026-04-19T15:11:01.998Z</time></trkpt><trkpt lat="43.26370077250025" lon="12.694492094277711"><ele>372.0</ele><time>2026-04-19T15:11:02.998Z</time></trkpt><trkpt lat="43.26386215933914" lon="12.694724493602264"><ele>366.0</ele><time>2026-04-19T15:11:03.998Z</time></trkpt><trkpt lat="43.26403167565264" lon="12.694949541960632"><ele>360.0</ele><time>2026-04-19T15:11:04.998Z</time></trkpt><trkpt lat="43.2642085357308" lon="12.695165466544584"><ele>365.5</ele><time>2026-04-19T15:11:06Z</time></trkpt><trkpt lat="43.2643886060156" lon="12.695372762435957"><ele>371.0</ele><time>2026-04-19T15:11:07Z</time></trkpt><trkpt lat="43.264577801005714" lon="12.695573271368808"><ele>371.0</ele><time>2026-04-19T15:11:08Z</time></trkpt><trkpt lat="43.2647717461981" lon="12.695758725831997"><ele>371.0</ele><time>2026-04-19T15:11:09Z</time></trkpt><trkpt lat="43.2649730202176" lon="12.695934909352754"><ele>373.5</ele><time>2026-04-19T15:11:10Z</time></trkpt><trkpt lat="43.26518029880395" lon="12.69610591370194"><ele>376.0</ele><time>2026-04-19T15:11:11Z</time></trkpt><trkpt lat="43.26539433682158" lon="12.696269780036355"><ele>370.5</ele><time>2026-04-19T15:11:12Z</time></trkpt><trkpt lat="43.26561257087727" lon="12.69643097893395"><ele>365.0</ele><time>2026-04-19T15:11:13Z</time></trkpt><trkpt lat="43.2658351417562" lon="12.6965950626076"><ele>365.0</ele><time>2026-04-19T15:11:14Z</time></trkpt><trkpt lat="43.266050219833744" lon="12.696760641928945"><ele>365.0</ele><time>2026-04-19T15:11:15Z</time></trkpt><trkpt lat="43.26627000061252" lon="12.696932047560724"><ele>365.0</ele><time>2026-04-19T15:11:16Z</time></trkpt><trkpt lat="43.26650373663014" lon="12.696721334810684"><ele>365.0</ele><time>2026-04-19T15:11:17Z</time></trkpt><trkpt lat="43.26671810230577" lon="12.697279477298876"><ele>365.0</ele><time>2026-04-19T15:11:18Z</time></trkpt><trkpt lat="43.26694008157341" lon="12.697450400191448"><ele>365.0</ele><time>2026-04-19T15:11:19Z</time></trkpt><trkpt lat="43.26715851404823" lon="12.697624992812402"><ele>363.5</ele><time>2026-04-19T15:11:20Z</time></trkpt><trkpt lat="43.26737721809857" lon="12.69781152571571"><ele>362.0</ele><time>2026-04-19T15:11:21Z</time></trkpt><trkpt lat="43.26758739023174" lon="12.698013284491127"><ele>362.0</ele><time>2026-04-19T15:11:22Z</time></trkpt><trkpt lat="43.267790515118264" lon="12.698233054213892"><ele>362.0</ele><time>2026-04-19T15:11:23Z</time></trkpt><trkpt lat="43.26798418273993" lon="12.698463334745957"><ele>362.0</ele><time>2026-04-19T15:11:24Z</time></trkpt><trkpt lat="43.26816994140213" lon="12.69870724919168"><ele>362.0</ele><time>2026-04-19T15:11:25Z</time></trkpt><trkpt lat="43.26834899658662" lon="12.698962808710782"><ele>362.0</ele><time>2026-04-19T15:11:26Z</time></trkpt><trkpt lat="43.268515394016966" lon="12.699224371136433"><ele>362.0</ele><time>2026-04-19T15:11:27Z</time></trkpt><trkpt lat="43.26867080561616" lon="12.699501479794336"><ele>362.0</ele><time>2026-04-19T15:11:28Z</time></trkpt><trkpt lat="43.26881554068058" lon="12.699785977648002"><ele>362.0</ele><time>2026-04-19T15:11:29Z</time></trkpt><trkpt lat="43.26895327593255" lon="12.700082051360829"><ele>364.5</ele><time>2026-04-19T15:11:30Z</time></trkpt><trkpt lat="43.269081159161274" lon="12.700386653266323"><ele>367.0</ele><time>2026-04-19T15:11:31Z</time></trkpt><trkpt lat="43.26920181376032" lon="12.70069879412391"><ele>367.0</ele><time>2026-04-19T15:11:32Z</time></trkpt><trkpt lat="43.26931342019718" lon="12.701022734324544"><ele>367.0</ele><time>2026-04-19T15:11:33Z</time></trkpt><trkpt lat="43.269419247711454" lon="12.701353985159642"><ele>369.0</ele><time>2026-04-19T15:11:34Z</time></trkpt><trkpt lat="43.269519895202656" lon="12.701698996199049"><ele>371.0</ele><time>2026-04-19T15:11:35Z</time></trkpt><trkpt lat="43.26961933680411" lon="12.702046474811482"><ele>373.5</ele><time>2026-04-19T15:11:36Z</time></trkpt><trkpt lat="43.26971631582505" lon="12.702395580286856"><ele>376.0</ele><time>2026-04-19T15:11:37Z</time></trkpt><trkpt lat="43.26981423570383" lon="12.702746443889351"><ele>371.0</ele><time>2026-04-19T15:11:38Z</time></trkpt><trkpt lat="43.269917871816475" lon="12.703095347217799"><ele>366.0</ele><time>2026-04-19T15:11:39Z</time></trkpt><trkpt lat="43.27001763825045" lon="12.703442432091972"><ele>367.5</ele><time>2026-04-19T15:11:40Z</time></trkpt><trkpt lat="43.27010092497848" lon="12.703783365371542"><ele>369.0</ele><time>2026-04-19T15:11:41Z</time></trkpt><trkpt lat="43.27020233661487" lon="12.704131356159428"><ele>373.5</ele><time>2026-04-19T15:11:42Z</time></trkpt><trkpt lat="43.27029600652153" lon="12.704477365853649"><ele>378.0</ele><time>2026-04-19T15:11:43Z</time></trkpt><trkpt lat="43.270386529095454" lon="12.704818897169778"><ele>378.0</ele><time>2026-04-19T15:11:44Z</time></trkpt><trkpt lat="43.270477427042444" lon="12.705156086822894"><ele>378.0</ele><time>2026-04-19T15:11:45Z</time></trkpt><trkpt lat="43.27057024453545" lon="12.705486811259425"><ele>373.5</ele><time>2026-04-19T15:11:46Z</time></trkpt><trkpt lat="43.27066535633067" lon="12.70581071802893"><ele>369.0</ele><time>2026-04-19T15:11:46.999Z</time></trkpt><trkpt lat="43.2707616823413" lon="12.706127830511738"><ele>369.0</ele><time>2026-04-19T15:11:47.999Z</time></trkpt><trkpt lat="43.27086348935349" lon="12.706439729127535"><ele>369.0</ele><time>2026-04-19T15:11:48.999Z</time></trkpt><trkpt lat="43.27097259874465" lon="12.706740501856649"><ele>373.0</ele><time>2026-04-19T15:11:49.999Z</time></trkpt><trkpt lat="43.271092888091815" lon="12.707031726445653"><ele>377.0</ele><time>2026-04-19T15:11:50.999Z</time></trkpt><trkpt lat="43.27122112925736" lon="12.707312326018641"><ele>377.0</ele><time>2026-04-19T15:11:51.999Z</time></trkpt><trkpt lat="43.271358950092036" lon="12.707584080628164"><ele>377.0</ele><time>2026-04-19T15:11:52.999Z</time></trkpt><trkpt lat="43.27150453707457" lon="12.707845897633957"><ele>375.5</ele><time>2026-04-19T15:11:53.999Z</time></trkpt><trkpt lat="43.27165793929793" lon="12.708096255930979"><ele>374.0</ele><time>2026-04-19T15:11:54.999Z</time></trkpt><trkpt lat="43.27182083599649" lon="12.708334611327816"><ele>374.0</ele><time>2026-04-19T15:11:55.999Z</time></trkpt><trkpt lat="43.271988238217624" lon="12.708564591001496"><ele>374.0</ele><time>2026-04-19T15:11:56.999Z</time></trkpt><trkpt lat="43.27216287566659" lon="12.70878576078912"><ele>373.0</ele><time>2026-04-19T15:11:57.999Z</time></trkpt><trkpt lat="43.27234080283422" lon="12.708995908872112"><ele>372.0</ele><time>2026-04-19T15:11:58.999Z</time></trkpt><trkpt lat="43.27251861216038" lon="12.709184929264152"><ele>372.0</ele><time>2026-04-19T15:11:59.999Z</time></trkpt><trkpt lat="43.2726846191706" lon="12.709346513952763"><ele>372.0</ele><time>2026-04-19T15:12:00.999Z</time></trkpt><trkpt lat="43.27283461460727" lon="12.709487216162419"><ele>372.0</ele><time>2026-04-19T15:12:01.999Z</time></trkpt><trkpt lat="43.272976778583725" lon="12.709613252514037"><ele>372.0</ele><time>2026-04-19T15:12:02.999Z</time></trkpt><trkpt lat="43.27311359261997" lon="12.709741452834185"><ele>372.0</ele><time>2026-04-19T15:12:03.999Z</time></trkpt><trkpt lat="43.27324293145403" lon="12.709861690101901"><ele>372.0</ele><time>2026-04-19T15:12:04.999Z</time></trkpt><trkpt lat="43.273367171370445" lon="12.709975766186497"><ele>372.0</ele><time>2026-04-19T15:12:05.999Z</time></trkpt><trkpt lat="43.27348690230814" lon="12.710074810451578"><ele>372.0</ele><time>2026-04-19T15:12:06.999Z</time></trkpt><trkpt lat="43.27360440541884" lon="12.710159943844857"><ele>372.0</ele><time>2026-04-19T15:12:07.999Z</time></trkpt><trkpt lat="43.27372222960989" lon="12.710233158724877"><ele>372.0</ele><time>2026-04-19T15:12:08.999Z</time></trkpt><trkpt lat="43.2738339517089" lon="12.710313771189483"><ele>373.25</ele><time>2026-04-19T15:12:09.999Z</time></trkpt><trkpt lat="43.273941474441656" lon="12.710413220851732"><ele>374.5</ele><time>2026-04-19T15:12:10.999Z</time></trkpt><trkpt lat="43.27405009606874" lon="12.710528770848086"><ele>375.75</ele><time>2026-04-19T15:12:11.999Z</time></trkpt><trkpt lat="43.27416230430538" lon="12.710653478177848"><ele>377.0</ele><time>2026-04-19T15:12:12.999Z</time></trkpt><trkpt lat="43.27428249670679" lon="12.710783350613074"><ele>377.0</ele><time>2026-04-19T15:12:13.999Z</time></trkpt><trkpt lat="43.27440885820975" lon="12.710921141217966"><ele>377.0</ele><time>2026-04-19T15:12:14.999Z</time></trkpt><trkpt lat="43.274537870943746" lon="12.711067921987183"><ele>377.0</ele><time>2026-04-19T15:12:15.999Z</time></trkpt><trkpt lat="43.27466694508236" lon="12.711223293470294"><ele>377.33333333333337</ele><time>2026-04-19T15:12:16.999Z</time></trkpt><trkpt lat="43.27479355052591" lon="12.71139826793471"><ele>377.6666666666667</ele><time>2026-04-19T15:12:17.999Z</time></trkpt><trkpt lat="43.27491450841312" lon="12.711575971869047"><ele>378.0</ele><time>2026-04-19T15:12:18.999Z</time></trkpt><trkpt lat="43.275029953250204" lon="12.711752121508786"><ele>382.66666666666663</ele><time>2026-04-19T15:12:19.999Z</time></trkpt><trkpt lat="43.275145866855404" lon="12.711934118997124"><ele>387.3333333333333</ele><time>2026-04-19T15:12:20.999Z</time></trkpt><trkpt lat="43.27527123846103" lon="12.712127084259647"><ele>392.0</ele><time>2026-04-19T15:12:21.999Z</time></trkpt><trkpt lat="43.2753630728434" lon="12.712357997994534"><ele>392.0</ele><time>2026-04-19T15:12:22.999Z</time></trkpt><trkpt lat="43.27546657571641" lon="12.712576354807686"><ele>392.0</ele><time>2026-04-19T15:12:23.999Z</time></trkpt><trkpt lat="43.27556672381463" lon="12.712802899758913"><ele>392.0</ele><time>2026-04-19T15:12:24.999Z</time></trkpt><trkpt lat="43.27566204108682" lon="12.713030512110086"><ele>391.0</ele><time>2026-04-19T15:12:25.999Z</time></trkpt><trkpt lat="43.275743653139486" lon="12.713252892210203"><ele>390.0</ele><time>2026-04-19T15:12:26.999Z</time></trkpt><trkpt lat="43.275839832590165" lon="12.713531185227055"><ele>389.0</ele><time>2026-04-19T15:12:27.999Z</time></trkpt><trkpt lat="43.275904606635066" lon="12.71372690736633"><ele>388.66666666666663</ele><time>2026-04-19T15:12:28.999Z</time></trkpt><trkpt lat="43.275976937885524" lon="12.713974295485993"><ele>388.33333333333337</ele><time>2026-04-19T15:12:29.999Z</time></trkpt><trkpt lat="43.276048122553" lon="12.714228823849131"><ele>388.0</ele><time>2026-04-19T15:12:30.999Z</time></trkpt><trkpt lat="43.27611658138233" lon="12.714487517098798"><ele>387.33333333333337</ele><time>2026-04-19T15:12:31.999Z</time></trkpt><trkpt lat="43.27618033359945" lon="12.71474224487949"><ele>386.66666666666663</ele><time>2026-04-19T15:12:32.999Z</time></trkpt><trkpt lat="43.27624280083541" lon="12.714995652047667"><ele>386.0</ele><time>2026-04-19T15:12:33.999Z</time></trkpt><trkpt lat="43.27630588966579" lon="12.715251580817673"><ele>385.66666666666663</ele><time>2026-04-19T15:12:34.999Z</time></trkpt><trkpt lat="43.27636658017622" lon="12.71549778046783"><ele>385.33333333333337</ele><time>2026-04-19T15:12:35.999Z</time></trkpt><trkpt lat="43.27644091777874" lon="12.715734448650538"><ele>385.0</ele><time>2026-04-19T15:12:36.999Z</time></trkpt><trkpt lat="43.27649665902757" lon="12.715968472671731"><ele>385.6666666666667</ele><time>2026-04-19T15:12:37.999Z</time></trkpt><trkpt lat="43.27655094747954" lon="12.716201661741614"><ele>386.33333333333337</ele><time>2026-04-19T15:12:38.999Z</time></trkpt><trkpt lat="43.27660573535747" lon="12.71642919794461"><ele>387.0</ele><time>2026-04-19T15:12:39.999Z</time></trkpt><trkpt lat="43.27666114880533" lon="12.716652838724869"><ele>387.0</ele><time>2026-04-19T15:12:40.999Z</time></trkpt><trkpt lat="43.27671584970304" lon="12.716873424993326"><ele>387.0</ele><time>2026-04-19T15:12:41.999Z</time></trkpt><trkpt lat="43.276770326795614" lon="12.71708756044213"><ele>387.0</ele><time>2026-04-19T15:12:42.999Z</time></trkpt><trkpt lat="43.27682026792841" lon="12.717302908428087"><ele>388.0</ele><time>2026-04-19T15:12:43.999Z</time></trkpt><trkpt lat="43.27687191597169" lon="12.717511816501137"><ele>389.0</ele><time>2026-04-19T15:12:44.999Z</time></trkpt><trkpt lat="43.27692179870613" lon="12.717713700334926"><ele>390.0</ele><time>2026-04-19T15:12:45.999Z</time></trkpt><trkpt lat="43.27697087095802" lon="12.717917727511617"><ele>391.66666666666663</ele><time>2026-04-19T15:12:46.999Z</time></trkpt><trkpt lat="43.27702168531289" lon="12.718123667555945"><ele>393.3333333333333</ele><time>2026-04-19T15:12:47.999Z</time></trkpt><trkpt lat="43.277078413942995" lon="12.718321333921656"><ele>395.0</ele><time>2026-04-19T15:12:48.999Z</time></trkpt><trkpt lat="43.27713740266618" lon="12.718517254803261"><ele>396.66666666666663</ele><time>2026-04-19T15:12:49.999Z</time></trkpt><trkpt lat="43.27719813517859" lon="12.718709984206996"><ele>398.33333333333337</ele><time>2026-04-19T15:12:50.999Z</time></trkpt><trkpt lat="43.277265368713195" lon="12.718904062157195"><ele>400.0</ele><time>2026-04-19T15:12:51.999Z</time></trkpt><trkpt lat="43.277342157201" lon="12.719091066209566"><ele>402.0</ele><time>2026-04-19T15:12:52.999Z</time></trkpt><trkpt lat="43.277409697247876" lon="12.719258874346746"><ele>404.0</ele><time>2026-04-19T15:12:53.999Z</time></trkpt><trkpt lat="43.27748438406355" lon="12.71945329030569"><ele>406.0</ele><time>2026-04-19T15:12:54.999Z</time></trkpt><trkpt lat="43.277557909998215" lon="12.71964905175486"><ele>406.0</ele><time>2026-04-19T15:12:55.999Z</time></trkpt><trkpt lat="43.277605832673544" lon="12.719838124036942"><ele>406.0</ele><time>2026-04-19T15:12:56.999Z</time></trkpt><trkpt lat="43.277727222468286" lon="12.720019730764408"><ele>406.0</ele><time>2026-04-19T15:12:57.999Z</time></trkpt><trkpt lat="43.277827743917975" lon="12.72019984226294"><ele>405.0</ele><time>2026-04-19T15:12:58.998Z</time></trkpt><trkpt lat="43.27793273142522" lon="12.720384065174866"><ele>404.0</ele><time>2026-04-19T15:12:59.998Z</time></trkpt><trkpt lat="43.27804050087271" lon="12.720558450441953"><ele>403.0</ele><time>2026-04-19T15:13:00.998Z</time></trkpt><trkpt lat="43.278157347550874" lon="12.72073074503656"><ele>403.0</ele><time>2026-04-19T15:13:01.998Z</time></trkpt><trkpt lat="43.27827535848316" lon="12.720903089814684"><ele>403.0</ele><time>2026-04-19T15:13:02.998Z</time></trkpt><trkpt lat="43.278397013345085" lon="12.72106829193432"><ele>403.0</ele><time>2026-04-19T15:13:03.998Z</time></trkpt><trkpt lat="43.27852497060139" lon="12.721229202462464"><ele>402.33333333333337</ele><time>2026-04-19T15:13:04.998Z</time></trkpt><trkpt lat="43.278657931603064" lon="12.72138447307633"><ele>401.66666666666663</ele><time>2026-04-19T15:13:05.998Z</time></trkpt><trkpt lat="43.27880008301713" lon="12.721533736488567"><ele>401.0</ele><time>2026-04-19T15:13:06.998Z</time></trkpt><trkpt lat="43.278944508454245" lon="12.721677629023485"><ele>401.0</ele><time>2026-04-19T15:13:07.998Z</time></trkpt><trkpt lat="43.27909329688623" lon="12.721820118157373"><ele>401.0</ele><time>2026-04-19T15:13:08.998Z</time></trkpt><trkpt lat="43.27924248956911" lon="12.721955678094504"><ele>401.0</ele><time>2026-04-19T15:13:09.998Z</time></trkpt><trkpt lat="43.27939617326323" lon="12.722087263976297"><ele>399.0</ele><time>2026-04-19T15:13:11Z</time></trkpt><trkpt lat="43.279559462122364" lon="12.722212190904088"><ele>397.0</ele><time>2026-04-19T15:13:12Z</time></trkpt><trkpt lat="43.279723136320705" lon="12.722336716371933"><ele>395.0</ele><time>2026-04-19T15:13:13Z</time></trkpt><trkpt lat="43.27989197630421" lon="12.72246093356388"><ele>394.66666666666663</ele><time>2026-04-19T15:13:14Z</time></trkpt><trkpt lat="43.28006222050911" lon="12.72257602850439"><ele>394.33333333333337</ele><time>2026-04-19T15:13:15Z</time></trkpt><trkpt lat="43.28023196771039" lon="12.722692580429223"><ele>394.0</ele><time>2026-04-19T15:13:16Z</time></trkpt><trkpt lat="43.28040651068571" lon="12.722814417712705"><ele>393.0</ele><time>2026-04-19T15:13:17Z</time></trkpt><trkpt lat="43.28057672694251" lon="12.722944714822061"><ele>392.0</ele><time>2026-04-19T15:13:18Z</time></trkpt><trkpt lat="43.280763160357914" lon="12.723038584527943"><ele>391.0</ele><time>2026-04-19T15:13:19Z</time></trkpt><trkpt lat="43.28094374824456" lon="12.723154014824512"><ele>390.0</ele><time>2026-04-19T15:13:20Z</time></trkpt><trkpt lat="43.2811227028059" lon="12.723278663362585"><ele>389.0</ele><time>2026-04-19T15:13:21Z</time></trkpt><trkpt lat="43.28130354774675" lon="12.723401097715044"><ele>388.0</ele><time>2026-04-19T15:13:22Z</time></trkpt><trkpt lat="43.281490042789976" lon="12.723520088836308"><ele>385.33333333333337</ele><time>2026-04-19T15:13:23Z</time></trkpt><trkpt lat="43.28167032401978" lon="12.723638585100897"><ele>382.6666666666667</ele><time>2026-04-19T15:13:24Z</time></trkpt><trkpt lat="43.28185749603324" lon="12.723761903061494"><ele>380.0</ele><time>2026-04-19T15:13:25Z</time></trkpt><trkpt lat="43.282040767119895" lon="12.72388409314257"><ele>380.0</ele><time>2026-04-19T15:13:26Z</time></trkpt><trkpt lat="43.28221937257776" lon="12.72400854843556"><ele>380.0</ele><time>2026-04-19T15:13:27Z</time></trkpt><trkpt lat="43.28239740673228" lon="12.724132951953234"><ele>380.0</ele><time>2026-04-19T15:13:28Z</time></trkpt><trkpt lat="43.28258016556036" lon="12.724253574220219"><ele>380.33333333333337</ele><time>2026-04-19T15:13:29Z</time></trkpt><trkpt lat="43.282762099194855" lon="12.724367790729856"><ele>380.6666666666667</ele><time>2026-04-19T15:13:30Z</time></trkpt><trkpt lat="43.28294470271692" lon="12.724482239042297"><ele>381.0</ele><time>2026-04-19T15:13:31Z</time></trkpt><trkpt lat="43.28312631145125" lon="12.724596599718154"><ele>381.0</ele><time>2026-04-19T15:13:32Z</time></trkpt><trkpt lat="43.28330458033099" lon="12.724715132148805"><ele>381.0</ele><time>2026-04-19T15:13:33Z</time></trkpt><trkpt lat="43.28348825429322" lon="12.724834319267202"><ele>381.0</ele><time>2026-04-19T15:13:34Z</time></trkpt><trkpt lat="43.283657973787065" lon="12.724945425598866"><ele>381.0</ele><time>2026-04-19T15:13:35Z</time></trkpt><trkpt lat="43.283831030590726" lon="12.72506184916996"><ele>381.0</ele><time>2026-04-19T15:13:36Z</time></trkpt><trkpt lat="43.284003005806156" lon="12.725180097428074"><ele>381.0</ele><time>2026-04-19T15:13:37Z</time></trkpt><trkpt lat="43.28416937665986" lon="12.725304847986951"><ele>383.0</ele><time>2026-04-19T15:13:38Z</time></trkpt><trkpt lat="43.28433693876021" lon="12.725436456229298"><ele>385.0</ele><time>2026-04-19T15:13:39Z</time></trkpt><trkpt lat="43.28450578804914" lon="12.725572087496642"><ele>387.0</ele><time>2026-04-19T15:13:40Z</time></trkpt><trkpt lat="43.28467332463152" lon="12.725709573387993"><ele>387.33333333333337</ele><time>2026-04-19T15:13:41Z</time></trkpt><trkpt lat="43.28484072189634" lon="12.725855904968174"><ele>387.6666666666667</ele><time>2026-04-19T15:13:42Z</time></trkpt><trkpt lat="43.28500263150151" lon="12.726012907234335"><ele>388.0</ele><time>2026-04-19T15:13:43Z</time></trkpt><trkpt lat="43.28516215334245" lon="12.72617880076902"><ele>388.0</ele><time>2026-04-19T15:13:44Z</time></trkpt><trkpt lat="43.285318923697375" lon="12.726350046880837"><ele>388.0</ele><time>2026-04-19T15:13:45Z</time></trkpt><trkpt lat="43.28547501557558" lon="12.726522818460431"><ele>388.0</ele><time>2026-04-19T15:13:46Z</time></trkpt><trkpt lat="43.28562571722262" lon="12.726703385935371"><ele>387.6666666666667</ele><time>2026-04-19T15:13:47Z</time></trkpt><trkpt lat="43.28577337833269" lon="12.726889909229733"><ele>387.33333333333337</ele><time>2026-04-19T15:13:48Z</time></trkpt><trkpt lat="43.28591553120519" lon="12.727082593668777"><ele>387.0</ele><time>2026-04-19T15:13:49Z</time></trkpt><trkpt lat="43.286054876298074" lon="12.72727808539139"><ele>387.0</ele><time>2026-04-19T15:13:50Z</time></trkpt><trkpt lat="43.286185678579784" lon="12.727476675881825"><ele>387.0</ele><time>2026-04-19T15:13:51Z</time></trkpt><trkpt lat="43.28631199270101" lon="12.7276760778669"><ele>387.0</ele><time>2026-04-19T15:13:52Z</time></trkpt><trkpt lat="43.286429179094206" lon="12.727866294159698"><ele>388.33333333333337</ele><time>2026-04-19T15:13:52.999Z</time></trkpt><trkpt lat="43.286541941372406" lon="12.728062475309358"><ele>389.6666666666667</ele><time>2026-04-19T15:13:53.999Z</time></trkpt><trkpt lat="43.28664576394953" lon="12.72825428926178"><ele>391.0</ele><time>2026-04-19T15:13:54.999Z</time></trkpt><trkpt lat="43.286741667537484" lon="12.728444622463009"><ele>391.6666666666667</ele><time>2026-04-19T15:13:55.999Z</time></trkpt><trkpt lat="43.28683129428326" lon="12.728627314640578"><ele>392.33333333333337</ele><time>2026-04-19T15:13:56.999Z</time></trkpt><trkpt lat="43.28691787160604" lon="12.728810821483766"><ele>393.0</ele><time>2026-04-19T15:13:57.999Z</time></trkpt><trkpt lat="43.28700029425076" lon="12.728997080160813"><ele>393.0</ele><time>2026-04-19T15:13:58.999Z</time></trkpt><trkpt lat="43.287080755565654" lon="12.729185172901406"><ele>393.0</ele><time>2026-04-19T15:13:59.999Z</time></trkpt><trkpt lat="43.28715890375556" lon="12.729373025651606"><ele>393.0</ele><time>2026-04-19T15:14:00.999Z</time></trkpt><trkpt lat="43.28723540808162" lon="12.729560211314322"><ele>393.0</ele><time>2026-04-19T15:14:01.999Z</time></trkpt><trkpt lat="43.2873112717533" lon="12.7297448909603"><ele>393.0</ele><time>2026-04-19T15:14:02.999Z</time></trkpt><trkpt lat="43.287386608316304" lon="12.729930178675254"><ele>393.0</ele><time>2026-04-19T15:14:03.999Z</time></trkpt><trkpt lat="43.287459720842406" lon="12.730116651361858"><ele>393.0</ele><time>2026-04-19T15:14:04.999Z</time></trkpt><trkpt lat="43.28753357076477" lon="12.73030692528117"><ele>393.0</ele><time>2026-04-19T15:14:05.999Z</time></trkpt><trkpt lat="43.2876072419837" lon="12.730501206489654"><ele>393.0</ele><time>2026-04-19T15:14:06.999Z</time></trkpt><trkpt lat="43.287684793036476" lon="12.730698320562162"><ele>393.0</ele><time>2026-04-19T15:14:07.999Z</time></trkpt><trkpt lat="43.28776393910679" lon="12.730896353909973"><ele>393.0</ele><time>2026-04-19T15:14:08.999Z</time></trkpt><trkpt lat="43.28784613903712" lon="12.731096251115451"><ele>393.0</ele><time>2026-04-19T15:14:09.999Z</time></trkpt><trkpt lat="43.28792870876412" lon="12.731301578626555"><ele>393.66666666666663</ele><time>2026-04-19T15:14:10.999Z</time></trkpt><trkpt lat="43.288008119579786" lon="12.731508079591098"><ele>394.3333333333333</ele><time>2026-04-19T15:14:11.999Z</time></trkpt><trkpt lat="43.28808861665348" lon="12.7317128280438"><ele>395.0</ele><time>2026-04-19T15:14:12.999Z</time></trkpt><trkpt lat="43.288169829437415" lon="12.73191298585222"><ele>396.0</ele><time>2026-04-19T15:14:13.999Z</time></trkpt><trkpt lat="43.28825108936342" lon="12.732104605493204"><ele>397.0</ele><time>2026-04-19T15:14:14.999Z</time></trkpt><trkpt lat="43.28832775075403" lon="12.732303091201521"><ele>398.0</ele><time>2026-04-19T15:14:15.999Z</time></trkpt><trkpt lat="43.28840253152433" lon="12.732493969228408"><ele>398.0</ele><time>2026-04-19T15:14:16.999Z</time></trkpt><trkpt lat="43.288473385986805" lon="12.732687783465167"><ele>398.0</ele><time>2026-04-19T15:14:17.999Z</time></trkpt><trkpt lat="43.28854361061526" lon="12.732878832825357"><ele>398.0</ele><time>2026-04-19T15:14:18.999Z</time></trkpt><trkpt lat="43.288616469509364" lon="12.733061498147647"><ele>398.0</ele><time>2026-04-19T15:14:19.999Z</time></trkpt><trkpt lat="43.288685206573035" lon="12.733236639709991"><ele>398.0</ele><time>2026-04-19T15:14:20.999Z</time></trkpt><trkpt lat="43.28874835860272" lon="12.733400033014133"><ele>398.0</ele><time>2026-04-19T15:14:21.999Z</time></trkpt><trkpt lat="43.288797342543994" lon="12.733567378976735"><ele>398.0</ele><time>2026-04-19T15:14:22.999Z</time></trkpt><trkpt lat="43.28883463262526" lon="12.733739060906126"><ele>398.0</ele><time>2026-04-19T15:14:23.999Z</time></trkpt><trkpt lat="43.28887515013531" lon="12.733917745115336"><ele>398.0</ele><time>2026-04-19T15:14:24.999Z</time></trkpt><trkpt lat="43.288931845872106" lon="12.734091613496961"><ele>398.0</ele><time>2026-04-19T15:14:25.999Z</time></trkpt><trkpt lat="43.28900441806816" lon="12.734262905982085"><ele>398.0</ele><time>2026-04-19T15:14:26.999Z</time></trkpt><trkpt lat="43.28907802883767" lon="12.734436858878968"><ele>398.25</ele><time>2026-04-19T15:14:27.999Z</time></trkpt><trkpt lat="43.289148253415895" lon="12.734613232286888"><ele>398.5</ele><time>2026-04-19T15:14:28.999Z</time></trkpt><trkpt lat="43.289218924431175" lon="12.734794656534723"><ele>398.75</ele><time>2026-04-19T15:14:29.999Z</time></trkpt><trkpt lat="43.289294946014934" lon="12.734974731377138"><ele>399.0</ele><time>2026-04-19T15:14:30.999Z</time></trkpt><trkpt lat="43.28937249336568" lon="12.73515435936187"><ele>398.66666666666663</ele><time>2026-04-19T15:14:31.999Z</time></trkpt><trkpt lat="43.28945296378232" lon="12.73533280632148"><ele>398.3333333333333</ele><time>2026-04-19T15:14:32.999Z</time></trkpt><trkpt lat="43.289538469046285" lon="12.735509927494252"><ele>398.0</ele><time>2026-04-19T15:14:33.999Z</time></trkpt><trkpt lat="43.28962569836143" lon="12.735682233127886"><ele>398.0</ele><time>2026-04-19T15:14:34.999Z</time></trkpt><trkpt lat="43.289712550472515" lon="12.735843403056144"><ele>398.0</ele><time>2026-04-19T15:14:35.999Z</time></trkpt><trkpt lat="43.28979509169332" lon="12.735996207485561"><ele>398.0</ele><time>2026-04-19T15:14:36.999Z</time></trkpt><trkpt lat="43.2898791445847" lon="12.736149095436003"><ele>398.0</ele><time>2026-04-19T15:14:37.999Z</time></trkpt><trkpt lat="43.289966772934356" lon="12.736295067811879"><ele>399.0</ele><time>2026-04-19T15:14:38.999Z</time></trkpt><trkpt lat="43.290056854806224" lon="12.736434848665295"><ele>400.0</ele><time>2026-04-19T15:14:39.999Z</time></trkpt><trkpt lat="43.29014532938905" lon="12.73656576585387"><ele>401.0</ele><time>2026-04-19T15:14:40.999Z</time></trkpt><trkpt lat="43.29023476209414" lon="12.736688137268809"><ele>402.0</ele><time>2026-04-19T15:14:41.999Z</time></trkpt><trkpt lat="43.29032152233471" lon="12.736809465142967"><ele>403.0</ele><time>2026-04-19T15:14:42.999Z</time></trkpt><trkpt lat="43.290410465146735" lon="12.7369278387807"><ele>404.0</ele><time>2026-04-19T15:14:43.999Z</time></trkpt><trkpt lat="43.290498252460004" lon="12.737045431705898"><ele>405.0</ele><time>2026-04-19T15:14:44.999Z</time></trkpt><trkpt lat="43.29058850763122" lon="12.737160107748496"><ele>406.0</ele><time>2026-04-19T15:14:45.999Z</time></trkpt><trkpt lat="43.29068494061631" lon="12.737271830243216"><ele>406.0</ele><time>2026-04-19T15:14:46.999Z</time></trkpt><trkpt lat="43.290785261312635" lon="12.737383261632726"><ele>406.0</ele><time>2026-04-19T15:14:47.999Z</time></trkpt><trkpt lat="43.29089128763084" lon="12.737495802507365"><ele>406.0</ele><time>2026-04-19T15:14:48.999Z</time></trkpt><trkpt lat="43.29099766646033" lon="12.737608652554153"><ele>406.0</ele><time>2026-04-19T15:14:49.999Z</time></trkpt><trkpt lat="43.29110015532301" lon="12.737721468624601"><ele>406.75</ele><time>2026-04-19T15:14:50.999Z</time></trkpt><trkpt lat="43.291203287830854" lon="12.737833273525663"><ele>407.5</ele><time>2026-04-19T15:14:51.999Z</time></trkpt><trkpt lat="43.29130802904083" lon="12.737946791041582"><ele>408.25</ele><time>2026-04-19T15:14:52.999Z</time></trkpt><trkpt lat="43.29142016264556" lon="12.738054033835263"><ele>409.0</ele><time>2026-04-19T15:14:53.999Z</time></trkpt><trkpt lat="43.29153761541522" lon="12.738161244870788"><ele>409.75</ele><time>2026-04-19T15:14:54.999Z</time></trkpt><trkpt lat="43.29165623128975" lon="12.73827424202641"><ele>410.5</ele><time>2026-04-19T15:14:55.999Z</time></trkpt><trkpt lat="43.29177872920455" lon="12.738392741573607"><ele>411.25</ele><time>2026-04-19T15:14:56.999Z</time></trkpt><trkpt lat="43.291904253345905" lon="12.73851383912667"><ele>412.0</ele><time>2026-04-19T15:14:57.999Z</time></trkpt><trkpt lat="43.29203074603807" lon="12.738640189768207"><ele>412.6666666666667</ele><time>2026-04-19T15:14:58.999Z</time></trkpt><trkpt lat="43.292163004643854" lon="12.738770649057983"><ele>413.33333333333337</ele><time>2026-04-19T15:14:59.999Z</time></trkpt><trkpt lat="43.29230175587207" lon="12.738908281555883"><ele>414.0</ele><time>2026-04-19T15:15:00.999Z</time></trkpt><trkpt lat="43.292439291986454" lon="12.739051891339955"><ele>415.33333333333337</ele><time>2026-04-19T15:15:01.999Z</time></trkpt><trkpt lat="43.29257558450827" lon="12.739183771225328"><ele>416.6666666666667</ele><time>2026-04-19T15:15:02.999Z</time></trkpt><trkpt lat="43.29271745059905" lon="12.739324366080053"><ele>418.0</ele><time>2026-04-19T15:15:03.999Z</time></trkpt><trkpt lat="43.292867318189494" lon="12.739468683133847"><ele>418.33333333333337</ele><time>2026-04-19T15:15:04.998Z</time></trkpt><trkpt lat="43.29301833060199" lon="12.73961447836726"><ele>418.66666666666663</ele><time>2026-04-19T15:15:05.998Z</time></trkpt><trkpt lat="43.293170208361836" lon="12.739762311768137"><ele>419.0</ele><time>2026-04-19T15:15:06.998Z</time></trkpt><trkpt lat="43.29332580678911" lon="12.739912842894036"><ele>421.3333333333333</ele><time>2026-04-19T15:15:07.998Z</time></trkpt><trkpt lat="43.29347932366701" lon="12.740066119097532"><ele>423.66666666666663</ele><time>2026-04-19T15:15:08.998Z</time></trkpt><trkpt lat="43.293642208855495" lon="12.740219540171207"><ele>426.0</ele><time>2026-04-19T15:15:09.998Z</time></trkpt><trkpt lat="43.29381336420263" lon="12.740378557943654"><ele>430.66666666666663</ele><time>2026-04-19T15:15:10.998Z</time></trkpt><trkpt lat="43.29399496366756" lon="12.740547447854828"><ele>435.3333333333333</ele><time>2026-04-19T15:15:11.998Z</time></trkpt><trkpt lat="43.29417841056152" lon="12.740713282724876"><ele>440.0</ele><time>2026-04-19T15:15:12.998Z</time></trkpt><trkpt lat="43.29436334300428" lon="12.74088009739057"><ele>440.0</ele><time>2026-04-19T15:15:13.998Z</time></trkpt><trkpt lat="43.294545264846384" lon="12.741043324936173"><ele>440.0</ele><time>2026-04-19T15:15:14.998Z</time></trkpt><trkpt lat="43.29472395817356" lon="12.741210244528133"><ele>440.0</ele><time>2026-04-19T15:15:15.998Z</time></trkpt><trkpt lat="43.29489575103853" lon="12.741366857804943"><ele>439.5</ele><time>2026-04-19T15:15:17Z</time></trkpt><trkpt lat="43.29505395067329" lon="12.741548339079118"><ele>439.0</ele><time>2026-04-19T15:15:18Z</time></trkpt><trkpt lat="43.295263394123204" lon="12.741811486867341"><ele>439.5</ele><time>2026-04-19T15:15:19Z</time></trkpt><trkpt lat="43.29546083171338" lon="12.742052419610966"><ele>440.0</ele><time>2026-04-19T15:15:20Z</time></trkpt><trkpt lat="43.29564206675984" lon="12.742291247748978"><ele>439.0</ele><time>2026-04-19T15:15:21Z</time></trkpt><trkpt lat="43.29580832157169" lon="12.74253443058567"><ele>438.0</ele><time>2026-04-19T15:15:22Z</time></trkpt><trkpt lat="43.295965509593536" lon="12.742785234244469"><ele>440.0</ele><time>2026-04-19T15:15:23Z</time></trkpt><trkpt lat="43.29611410302626" lon="12.743044457162668"><ele>442.0</ele><time>2026-04-19T15:15:24Z</time></trkpt><trkpt lat="43.296257591103235" lon="12.74330699039496"><ele>441.5</ele><time>2026-04-19T15:15:25Z</time></trkpt><trkpt lat="43.29639691391818" lon="12.743574501186513"><ele>441.0</ele><time>2026-04-19T15:15:26Z</time></trkpt><trkpt lat="43.29653143066769" lon="12.74384490745184"><ele>441.0</ele><time>2026-04-19T15:15:27Z</time></trkpt><trkpt lat="43.29666408339059" lon="12.744117582860953"><ele>441.0</ele><time>2026-04-19T15:15:28Z</time></trkpt><trkpt lat="43.29679249730891" lon="12.744388139322082"><ele>444.0</ele><time>2026-04-19T15:15:29Z</time></trkpt><trkpt lat="43.29691180402294" lon="12.744665341628906"><ele>447.0</ele><time>2026-04-19T15:15:30Z</time></trkpt><trkpt lat="43.29704386803163" lon="12.74493690698192"><ele>447.0</ele><time>2026-04-19T15:15:31Z</time></trkpt><trkpt lat="43.297162861485944" lon="12.745209424460922"><ele>447.0</ele><time>2026-04-19T15:15:32Z</time></trkpt><trkpt lat="43.297285202963195" lon="12.74547966703428"><ele>447.0</ele><time>2026-04-19T15:15:33Z</time></trkpt><trkpt lat="43.29741005957342" lon="12.74574837897138"><ele>447.0</ele><time>2026-04-19T15:15:34Z</time></trkpt><trkpt lat="43.29753442816181" lon="12.746016610165947"><ele>451.5</ele><time>2026-04-19T15:15:35Z</time></trkpt><trkpt lat="43.297658189605" lon="12.746285284235151"><ele>456.0</ele><time>2026-04-19T15:15:36Z</time></trkpt><trkpt lat="43.29778287533625" lon="12.746556639649201"><ele>456.0</ele><time>2026-04-19T15:15:37Z</time></trkpt><trkpt lat="43.29790918380645" lon="12.746823706897835"><ele>456.0</ele><time>2026-04-19T15:15:38Z</time></trkpt><trkpt lat="43.29803373399761" lon="12.747089053555708"><ele>456.5</ele><time>2026-04-19T15:15:39Z</time></trkpt><trkpt lat="43.29816113244464" lon="12.747358640646711"><ele>457.0</ele><time>2026-04-19T15:15:40Z</time></trkpt><trkpt lat="43.298290789271235" lon="12.74763180048991"><ele>458.5</ele><time>2026-04-19T15:15:41Z</time></trkpt><trkpt lat="43.298420407345255" lon="12.747911403557888"><ele>460.0</ele><time>2026-04-19T15:15:42Z</time></trkpt><trkpt lat="43.298548242005616" lon="12.748169707163212"><ele>460.0</ele><time>2026-04-19T15:15:43Z</time></trkpt><trkpt lat="43.29868113300914" lon="12.748444059315426"><ele>460.0</ele><time>2026-04-19T15:15:44Z</time></trkpt><trkpt lat="43.29881509000457" lon="12.74871679100163"><ele>459.0</ele><time>2026-04-19T15:15:45Z</time></trkpt><trkpt lat="43.29895017805551" lon="12.748995737990063"><ele>458.0</ele><time>2026-04-19T15:15:46Z</time></trkpt><trkpt lat="43.29908480414055" lon="12.749277771292352"><ele>461.0</ele><time>2026-04-19T15:15:47Z</time></trkpt><trkpt lat="43.29921468320775" lon="12.749555838710855"><ele>464.0</ele><time>2026-04-19T15:15:48Z</time></trkpt><trkpt lat="43.2993418579499" lon="12.749846706191082"><ele>464.0</ele><time>2026-04-19T15:15:49Z</time></trkpt><trkpt lat="43.29946253242249" lon="12.750141264395765"><ele>464.0</ele><time>2026-04-19T15:15:50Z</time></trkpt><trkpt lat="43.29957770506645" lon="12.750443131386245"><ele>462.0</ele><time>2026-04-19T15:15:51Z</time></trkpt><trkpt lat="43.29968668671847" lon="12.750749982178672"><ele>460.0</ele><time>2026-04-19T15:15:52Z</time></trkpt><trkpt lat="43.299791194779104" lon="12.751053911794743"><ele>460.0</ele><time>2026-04-19T15:15:53Z</time></trkpt><trkpt lat="43.29987328245484" lon="12.751376632744998"><ele>460.0</ele><time>2026-04-19T15:15:54Z</time></trkpt><trkpt lat="43.29994888337674" lon="12.751708613897552"><ele>462.0</ele><time>2026-04-19T15:15:55Z</time></trkpt><trkpt lat="43.30001680081899" lon="12.75204678166796"><ele>464.0</ele><time>2026-04-19T15:15:56Z</time></trkpt><trkpt lat="43.300070812201916" lon="12.75239225659062"><ele>465.0</ele><time>2026-04-19T15:15:57Z</time></trkpt><trkpt lat="43.300111784548" lon="12.75274356496834"><ele>466.0</ele><time>2026-04-19T15:15:58Z</time></trkpt><trkpt lat="43.30014010150778" lon="12.753092701654868"><ele>466.0</ele><time>2026-04-19T15:15:59Z</time></trkpt><trkpt lat="43.30015881196881" lon="12.753444361395054"><ele>466.0</ele><time>2026-04-19T15:16:00Z</time></trkpt><trkpt lat="43.30016824937305" lon="12.753791203414183"><ele>469.0</ele><time>2026-04-19T15:16:01Z</time></trkpt><trkpt lat="43.30016954841093" lon="12.75414271754817"><ele>472.0</ele><time>2026-04-19T15:16:01.999Z</time></trkpt><trkpt lat="43.3001625705398" lon="12.754490333953038"><ele>472.0</ele><time>2026-04-19T15:16:02.999Z</time></trkpt><trkpt lat="43.30015324176603" lon="12.754839997673253"><ele>472.0</ele><time>2026-04-19T15:16:03.999Z</time></trkpt><trkpt lat="43.30014456764388" lon="12.755184267920187"><ele>469.0</ele><time>2026-04-19T15:16:04.999Z</time></trkpt><trkpt lat="43.30013765871056" lon="12.755531686911645"><ele>466.0</ele><time>2026-04-19T15:16:05.999Z</time></trkpt><trkpt lat="43.300135219316644" lon="12.755876262196487"><ele>465.0</ele><time>2026-04-19T15:16:06.999Z</time></trkpt><trkpt lat="43.30013843809888" lon="12.756219545144594"><ele>464.0</ele><time>2026-04-19T15:16:07.999Z</time></trkpt><trkpt lat="43.30014606635066" lon="12.756562870318543"><ele>462.0</ele><time>2026-04-19T15:16:08.999Z</time></trkpt><trkpt lat="43.30015764627884" lon="12.756907122485895"><ele>460.0</ele><time>2026-04-19T15:16:09.999Z</time></trkpt><trkpt lat="43.30017310223184" lon="12.757248312115783"><ele>460.0</ele><time>2026-04-19T15:16:10.999Z</time></trkpt><trkpt lat="43.300189004509996" lon="12.757587100958096"><ele>460.0</ele><time>2026-04-19T15:16:11.999Z</time></trkpt><trkpt lat="43.300201874810526" lon="12.757925006914508"><ele>459.5</ele><time>2026-04-19T15:16:12.999Z</time></trkpt><trkpt lat="43.30021465489603" lon="12.758265819468653"><ele>459.0</ele><time>2026-04-19T15:16:13.999Z</time></trkpt><trkpt lat="43.30022925802035" lon="12.758609046026317"><ele>463.5</ele><time>2026-04-19T15:16:14.999Z</time></trkpt><trkpt lat="43.30024523872804" lon="12.758943673614269"><ele>468.0</ele><time>2026-04-19T15:16:15.999Z</time></trkpt><trkpt lat="43.3002601143313" lon="12.75928225938718"><ele>474.0</ele><time>2026-04-19T15:16:16.999Z</time></trkpt><trkpt lat="43.30027587827349" lon="12.759625006640016"><ele>480.0</ele><time>2026-04-19T15:16:17.999Z</time></trkpt><trkpt lat="43.30029259594896" lon="12.759976288111094"><ele>483.0</ele><time>2026-04-19T15:16:18.999Z</time></trkpt><trkpt lat="43.300307626011445" lon="12.760330689668061"><ele>486.0</ele><time>2026-04-19T15:16:19.999Z</time></trkpt><trkpt lat="43.300323808898376" lon="12.760688164504158"><ele>487.0</ele><time>2026-04-19T15:16:20.999Z</time></trkpt><trkpt lat="43.300340021102684" lon="12.761045885356408"><ele>488.0</ele><time>2026-04-19T15:16:21.999Z</time></trkpt><trkpt lat="43.300354968788334" lon="12.761401449623664"><ele>488.0</ele><time>2026-04-19T15:16:22.999Z</time></trkpt><trkpt lat="43.30036801757469" lon="12.76175627664789"><ele>488.0</ele><time>2026-04-19T15:16:23.999Z</time></trkpt><trkpt lat="43.30038155820459" lon="12.762109983320391"><ele>487.5</ele><time>2026-04-19T15:16:24.999Z</time></trkpt><trkpt lat="43.30039673015127" lon="12.762457304859536"><ele>487.0</ele><time>2026-04-19T15:16:25.999Z</time></trkpt><trkpt lat="43.300411962045956" lon="12.762804163876227"><ele>486.5</ele><time>2026-04-19T15:16:26.999Z</time></trkpt><trkpt lat="43.30042747006133" lon="12.763148696382167"><ele>486.0</ele><time>2026-04-19T15:16:27.999Z</time></trkpt><trkpt lat="43.30044087552367" lon="12.763488952939147"><ele>485.5</ele><time>2026-04-19T15:16:28.999Z</time></trkpt><trkpt lat="43.300455209010565" lon="12.763827206123318"><ele>485.0</ele><time>2026-04-19T15:16:29.999Z</time></trkpt><trkpt lat="43.30047429013482" lon="12.764165363461121"><ele>488.0</ele><time>2026-04-19T15:16:30.999Z</time></trkpt><trkpt lat="43.300495854374724" lon="12.764492867618305"><ele>491.0</ele><time>2026-04-19T15:16:31.999Z</time></trkpt><trkpt lat="43.30053201655033" lon="12.764807250511257"><ele>493.5</ele><time>2026-04-19T15:16:32.999Z</time></trkpt><trkpt lat="43.300588506640075" lon="12.765113000930846"><ele>496.0</ele><time>2026-04-19T15:16:33.999Z</time></trkpt><trkpt lat="43.30066013927411" lon="12.765410493200791"><ele>496.0</ele><time>2026-04-19T15:16:34.999Z</time></trkpt><trkpt lat="43.30075396567447" lon="12.765698641924933"><ele>496.0</ele><time>2026-04-19T15:16:35.999Z</time></trkpt><trkpt lat="43.30086665426028" lon="12.76597252696538"><ele>493.0</ele><time>2026-04-19T15:16:36.999Z</time></trkpt><trkpt lat="43.300995560622546" lon="12.766235633696068"><ele>490.0</ele><time>2026-04-19T15:16:37.999Z</time></trkpt><trkpt lat="43.30113920813961" lon="12.766485450566384"><ele>490.0</ele><time>2026-04-19T15:16:38.999Z</time></trkpt><trkpt lat="43.301294001428964" lon="12.766721934327055"><ele>490.0</ele><time>2026-04-19T15:16:39.999Z</time></trkpt><trkpt lat="43.30145243817803" lon="12.766956643254124"><ele>488.5</ele><time>2026-04-19T15:16:40.999Z</time></trkpt><trkpt lat="43.301608005065134" lon="12.76719174241523"><ele>487.0</ele><time>2026-04-19T15:16:41.999Z</time></trkpt><trkpt lat="43.301757453035144" lon="12.767426655013498"><ele>487.0</ele><time>2026-04-19T15:16:42.999Z</time></trkpt><trkpt lat="43.301900891363815" lon="12.76766874920474"><ele>487.0</ele><time>2026-04-19T15:16:43.999Z</time></trkpt><trkpt lat="43.302035590145664" lon="12.767923772628155"><ele>488.0</ele><time>2026-04-19T15:16:44.999Z</time></trkpt><trkpt lat="43.30215735338241" lon="12.7681871067863"><ele>489.0</ele><time>2026-04-19T15:16:45.999Z</time></trkpt><trkpt lat="43.30226260741507" lon="12.768463398416543"><ele>493.5</ele><time>2026-04-19T15:16:46.999Z</time></trkpt><trkpt lat="43.30235913564052" lon="12.768752290823622"><ele>498.0</ele><time>2026-04-19T15:16:47.999Z</time></trkpt><trkpt lat="43.30244483034302" lon="12.769051382043601"><ele>498.0</ele><time>2026-04-19T15:16:48.999Z</time></trkpt><trkpt lat="43.3025182559749" lon="12.769359195019485"><ele>498.0</ele><time>2026-04-19T15:16:49.999Z</time></trkpt><trkpt lat="43.302578472459736" lon="12.769675938773274"><ele>498.0</ele><time>2026-04-19T15:16:50.999Z</time></trkpt><trkpt lat="43.30262731005152" lon="12.77000266575344"><ele>498.0</ele><time>2026-04-19T15:16:51.999Z</time></trkpt><trkpt lat="43.30266669044863" lon="12.770337870030582"><ele>498.5</ele><time>2026-04-19T15:16:52.999Z</time></trkpt><trkpt lat="43.302700948088884" lon="12.770679792849966"><ele>499.0</ele><time>2026-04-19T15:16:53.999Z</time></trkpt><trkpt lat="43.30273273875978" lon="12.771024893626766"><ele>499.0</ele><time>2026-04-19T15:16:54.999Z</time></trkpt><trkpt lat="43.30276694364647" lon="12.771371183844144"><ele>499.0</ele><time>2026-04-19T15:16:55.999Z</time></trkpt><trkpt lat="43.302799170542315" lon="12.771714418623317"><ele>501.0</ele><time>2026-04-19T15:16:56.999Z</time></trkpt><trkpt lat="43.302825686661556" lon="12.772054579605811"><ele>503.0</ele><time>2026-04-19T15:16:57.999Z</time></trkpt><trkpt lat="43.302843539110896" lon="12.772395696243938"><ele>505.5</ele><time>2026-04-19T15:16:58.999Z</time></trkpt><trkpt lat="43.30284517188548" lon="12.772734063108324"><ele>508.0</ele><time>2026-04-19T15:16:59.999Z</time></trkpt><trkpt lat="43.30283209170889" lon="12.773068549040525"><ele>508.0</ele><time>2026-04-19T15:17:00.999Z</time></trkpt><trkpt lat="43.30279207199169" lon="12.773392452075196"><ele>508.0</ele><time>2026-04-19T15:17:01.999Z</time></trkpt><trkpt lat="43.302743536949514" lon="12.77371519583222"><ele>513.0</ele><time>2026-04-19T15:17:02.999Z</time></trkpt><trkpt lat="43.302676202602626" lon="12.77403557865971"><ele>518.0</ele><time>2026-04-19T15:17:03.999Z</time></trkpt><trkpt lat="43.30259676706647" lon="12.7743544449383"><ele>520.5</ele><time>2026-04-19T15:17:04.999Z</time></trkpt><trkpt lat="43.30251476310213" lon="12.774674279892922"><ele>523.0</ele><time>2026-04-19T15:17:05.999Z</time></trkpt><trkpt lat="43.30243368217608" lon="12.774998183403463"><ele>524.5</ele><time>2026-04-19T15:17:06.999Z</time></trkpt><trkpt lat="43.302353911231044" lon="12.775327209405987"><ele>526.0</ele><time>2026-04-19T15:17:07.999Z</time></trkpt><trkpt lat="43.30227481658006" lon="12.775655730942768"><ele>526.0</ele><time>2026-04-19T15:17:08.999Z</time></trkpt><trkpt lat="43.30219764175093" lon="12.775984879720708"><ele>526.0</ele><time>2026-04-19T15:17:09.999Z</time></trkpt><trkpt lat="43.30212553607668" lon="12.776314535207371"><ele>526.0</ele><time>2026-04-19T15:17:10.999Z</time></trkpt><trkpt lat="43.3020609569253" lon="12.776640521170682"><ele>526.0</ele><time>2026-04-19T15:17:11.999Z</time></trkpt><trkpt lat="43.30200979201408" lon="12.776968674140113"><ele>526.0</ele><time>2026-04-19T15:17:12.999Z</time></trkpt><trkpt lat="43.30196958447512" lon="12.777297607151905"><ele>526.0</ele><time>2026-04-19T15:17:13.999Z</time></trkpt><trkpt lat="43.30194014641975" lon="12.777624134882794"><ele>528.5</ele><time>2026-04-19T15:17:14.998Z</time></trkpt><trkpt lat="43.301920670425304" lon="12.777951840846166"><ele>531.0</ele><time>2026-04-19T15:17:15.998Z</time></trkpt><trkpt lat="43.301914799940356" lon="12.778279736001346"><ele>534.5</ele><time>2026-04-19T15:17:16.998Z</time></trkpt><trkpt lat="43.301916999324604" lon="12.778606046998696"><ele>538.0</ele><time>2026-04-19T15:17:17.998Z</time></trkpt><trkpt lat="43.30192822329529" lon="12.778929875514606"><ele>538.0</ele><time>2026-04-19T15:17:18.998Z</time></trkpt><trkpt lat="43.301950123752896" lon="12.779252093790427"><ele>538.0</ele><time>2026-04-19T15:17:19.998Z</time></trkpt><trkpt lat="43.301982311399556" lon="12.779573515165824"><ele>538.0</ele><time>2026-04-19T15:17:20.998Z</time></trkpt><trkpt lat="43.30202270596308" lon="12.779906708004665"><ele>538.0</ele><time>2026-04-19T15:17:21.998Z</time></trkpt><trkpt lat="43.30205848105074" lon="12.780269921378272"><ele>546.0</ele><time>2026-04-19T15:17:23Z</time></trkpt><trkpt lat="43.30211078170443" lon="12.780600976265287"><ele>554.0</ele><time>2026-04-19T15:17:24Z</time></trkpt><trkpt lat="43.30216451704562" lon="12.780951887593444"><ele>561.0</ele><time>2026-04-19T15:17:25Z</time></trkpt><trkpt lat="43.30220753888323" lon="12.78129621531389"><ele>568.0</ele><time>2026-04-19T15:17:26Z</time></trkpt><trkpt lat="43.30225291155903" lon="12.781645935044807"><ele>587.5</ele><time>2026-04-19T15:17:27Z</time></trkpt><trkpt lat="43.30229815024322" lon="12.782003525750941"><ele>607.0</ele><time>2026-04-19T15:17:28Z</time></trkpt><trkpt lat="43.30233986352175" lon="12.78236755419913"><ele>604.0</ele><time>2026-04-19T15:17:29Z</time></trkpt><trkpt lat="43.302379124560574" lon="12.782763744344347"><ele>601.0</ele><time>2026-04-19T15:17:30.072Z</time></trkpt><trkpt lat="43.30240952372852" lon="12.78313400350825"><ele>601.0</ele><time>2026-04-19T15:17:31.059Z</time></trkpt><trkpt lat="43.30243718301471" lon="12.783507515123425"><ele>601.0</ele><time>2026-04-19T15:17:32.056Z</time></trkpt><trkpt lat="43.301212394241226" lon="12.788563086756442"><ele>609.5</ele><time>2026-04-19T15:17:49Z</time></trkpt><trkpt lat="43.30112334768637" lon="12.788829212239493"><ele>618.0</ele><time>2026-04-19T15:17:50Z</time></trkpt><trkpt lat="43.30099455249905" lon="12.78911127201329"><ele>594.0</ele><time>2026-04-19T15:17:51Z</time></trkpt><trkpt lat="43.299541494368256" lon="12.794152806296307"><ele>593.3333333333334</ele><time>2026-04-19T15:18:07.999Z</time></trkpt><trkpt lat="43.29948930971684" lon="12.794458580101592"><ele>592.6666666666667</ele><time>2026-04-19T15:18:08.999Z</time></trkpt><trkpt lat="43.29952972441382" lon="12.794725178443311"><ele>592.0</ele><time>2026-04-19T15:18:09.999Z</time></trkpt><trkpt lat="43.299523418812406" lon="12.79496786879834"><ele>598.6666666666667</ele><time>2026-04-19T15:18:10.999Z</time></trkpt><trkpt lat="43.29951357102257" lon="12.795249234410058"><ele>605.3333333333334</ele><time>2026-04-19T15:18:11.999Z</time></trkpt><trkpt lat="43.299503357031895" lon="12.795543711826799"><ele>612.0</ele><time>2026-04-19T15:18:12.999Z</time></trkpt><trkpt lat="43.299489825166894" lon="12.79583529871368"><ele>572.0</ele><time>2026-04-19T15:18:13.999Z</time></trkpt><trkpt lat="43.29914326643067" lon="12.807133737300255"><ele>572.0</ele><time>2026-04-19T15:18:43.999Z</time></trkpt><trkpt lat="43.29913097234942" lon="12.807492512686165"><ele>572.0</ele><time>2026-04-19T15:18:44.999Z</time></trkpt><trkpt lat="43.29912885445544" lon="12.807840099598158"><ele>571.5</ele><time>2026-04-19T15:18:45.999Z</time></trkpt><trkpt lat="43.299119637959194" lon="12.808183575388076"><ele>571.0</ele><time>2026-04-19T15:18:46.999Z</time></trkpt><trkpt lat="43.29911732504877" lon="12.808494326983693"><ele>574.0</ele><time>2026-04-19T15:18:47.999Z</time></trkpt><trkpt lat="43.299114822192514" lon="12.808807695610891"><ele>577.0</ele><time>2026-04-19T15:18:48.999Z</time></trkpt><trkpt lat="43.29912597179273" lon="12.80912031903405"><ele>591.5</ele><time>2026-04-19T15:18:49.999Z</time></trkpt><trkpt lat="43.299144854352775" lon="12.809440224843957"><ele>606.0</ele><time>2026-04-19T15:18:50.999Z</time></trkpt><trkpt lat="43.299165696101575" lon="12.809762240758522"><ele>634.0</ele><time>2026-04-19T15:18:51.999Z</time></trkpt><trkpt lat="43.299272436393125" lon="12.810750332794065"><ele>633.5</ele><time>2026-04-19T15:18:54.999Z</time></trkpt><trkpt lat="43.29930066255884" lon="12.811080509607624"><ele>633.0</ele><time>2026-04-19T15:18:55.999Z</time></trkpt><trkpt lat="43.299336984347875" lon="12.811405000758391"><ele>633.0</ele><time>2026-04-19T15:18:56.999Z</time></trkpt><trkpt lat="43.29937516945313" lon="12.811754921330346"><ele>633.0</ele><time>2026-04-19T15:18:58.069Z</time></trkpt><trkpt lat="43.2994421303123" lon="12.812066257862936"><ele>623.5</ele><time>2026-04-19T15:18:59.058Z</time></trkpt><trkpt lat="43.29952491641776" lon="12.81236674222929"><ele>614.0</ele><time>2026-04-19T15:19:00.057Z</time></trkpt><trkpt lat="43.2996115868031" lon="12.812650843533005"><ele>602.5</ele><time>2026-04-19T15:19:01.057Z</time></trkpt><trkpt lat="43.29970256919368" lon="12.812934682933468"><ele>591.0</ele><time>2026-04-19T15:19:02.055Z</time></trkpt><trkpt lat="43.299794773140576" lon="12.813218423310378"><ele>624.0</ele><time>2026-04-19T15:19:03.042Z</time></trkpt><trkpt lat="43.30075991358897" lon="12.815676228047659"><ele>602.0</ele><time>2026-04-19T15:19:06.818Z</time></trkpt><trkpt lat="43.3011406" lon="12.8166067"><ele>622.0</ele><time>2026-04-19T15:19:07.818Z</time></trkpt><trkpt lat="43.301484902324425" lon="12.817610370336784"><ele>604.0</ele><time>2026-04-19T15:19:24.818Z</time></trkpt><trkpt lat="43.301775848870356" lon="12.818645092143145"><ele>601.0</ele><time>2026-04-19T15:19:25.818Z</time></trkpt><trkpt lat="43.302040356597196" lon="12.819693422344386"><ele>577.0</ele><time>2026-04-19T15:19:26.818Z</time></trkpt><trkpt lat="43.302359307625224" lon="12.82071265334767"><ele>547.0</ele><time>2026-04-19T15:19:27.818Z</time></trkpt><trkpt lat="43.30270949503079" lon="12.821712766215834"><ele>508.0</ele><time>2026-04-19T15:19:28.818Z</time></trkpt><trkpt lat="43.30327943297357" lon="12.823479732866494"><ele>504.5</ele><time>2026-04-19T15:19:31.998Z</time></trkpt><trkpt lat="43.30336478325308" lon="12.823791943107143"><ele>501.0</ele><time>2026-04-19T15:19:32.998Z</time></trkpt><trkpt lat="43.30340400407826" lon="12.824143872755297"><ele>495.0</ele><time>2026-04-19T15:19:33.998Z</time></trkpt><trkpt lat="43.30346091275899" lon="12.824474680795836"><ele>489.0</ele><time>2026-04-19T15:19:34.998Z</time></trkpt><trkpt lat="43.30350435263486" lon="12.824799636220478"><ele>489.0</ele><time>2026-04-19T15:19:35.998Z</time></trkpt><trkpt lat="43.30353961435197" lon="12.825125101760948"><ele>489.0</ele><time>2026-04-19T15:19:36.998Z</time></trkpt><trkpt lat="43.30355976380092" lon="12.825457397907309"><ele>490.0</ele><time>2026-04-19T15:19:38Z</time></trkpt><trkpt lat="43.303569643230226" lon="12.825788933108688"><ele>491.0</ele><time>2026-04-19T15:19:39Z</time></trkpt><trkpt lat="43.30356792380387" lon="12.826125139589882"><ele>493.5</ele><time>2026-04-19T15:19:40Z</time></trkpt><trkpt lat="43.303554120086176" lon="12.826460235143788"><ele>496.0</ele><time>2026-04-19T15:19:41Z</time></trkpt><trkpt lat="43.303524452811985" lon="12.826794801561004"><ele>501.5</ele><time>2026-04-19T15:19:42Z</time></trkpt><trkpt lat="43.303485427664675" lon="12.827143462513739"><ele>507.0</ele><time>2026-04-19T15:19:43Z</time></trkpt><trkpt lat="43.30343922721928" lon="12.827490861440182"><ele>517.5</ele><time>2026-04-19T15:19:44Z</time></trkpt><trkpt lat="43.30339314006173" lon="12.827835842115428"><ele>528.0</ele><time>2026-04-19T15:19:45Z</time></trkpt><trkpt lat="43.30334694149962" lon="12.828185052294245"><ele>521.0</ele><time>2026-04-19T15:19:46Z</time></trkpt><trkpt lat="43.303299132695024" lon="12.828534565832387"><ele>514.0</ele><time>2026-04-19T15:19:47Z</time></trkpt><trkpt lat="43.30325170106431" lon="12.828879971955047"><ele>514.0</ele><time>2026-04-19T15:19:48Z</time></trkpt><trkpt lat="43.30320507295161" lon="12.829234345476669"><ele>514.0</ele><time>2026-04-19T15:19:49.059Z</time></trkpt><trkpt lat="43.303173124128776" lon="12.82958051220909"><ele>505.0</ele><time>2026-04-19T15:19:50.054Z</time></trkpt><trkpt lat="43.303140661793975" lon="12.82992518179457"><ele>496.0</ele><time>2026-04-19T15:19:51.052Z</time></trkpt><trkpt lat="43.30310366052384" lon="12.830274243697513"><ele>470.0</ele><time>2026-04-19T15:19:52.05Z</time></trkpt><trkpt lat="43.303035681681486" lon="12.831562330634725"><ele>465.0</ele><time>2026-04-19T15:19:56Z</time></trkpt><trkpt lat="43.30300153196239" lon="12.831897047748113"><ele>460.0</ele><time>2026-04-19T15:19:57Z</time></trkpt><trkpt lat="43.30296780948435" lon="12.832207806054358"><ele>460.0</ele><time>2026-04-19T15:19:58Z</time></trkpt><trkpt lat="43.30292426441588" lon="12.832554941680067"><ele>460.0</ele><time>2026-04-19T15:19:59Z</time></trkpt><trkpt lat="43.30288442955076" lon="12.832892834424896"><ele>456.5</ele><time>2026-04-19T15:20:00Z</time></trkpt><trkpt lat="43.302844563346476" lon="12.833234052852445"><ele>453.0</ele><time>2026-04-19T15:20:01Z</time></trkpt><trkpt lat="43.3028088295612" lon="12.833565399514681"><ele>450.5</ele><time>2026-04-19T15:20:02Z</time></trkpt><trkpt lat="43.30277525893149" lon="12.833906804355667"><ele>448.0</ele><time>2026-04-19T15:20:03Z</time></trkpt><trkpt lat="43.30273786949165" lon="12.834247050315732"><ele>447.0</ele><time>2026-04-19T15:20:04Z</time></trkpt><trkpt lat="43.30270508239297" lon="12.834590494418283"><ele>446.0</ele><time>2026-04-19T15:20:05Z</time></trkpt><trkpt lat="43.30267712769847" lon="12.834933327493346"><ele>444.5</ele><time>2026-04-19T15:20:06Z</time></trkpt><trkpt lat="43.30265012853304" lon="12.835276857210006"><ele>443.0</ele><time>2026-04-19T15:20:07Z</time></trkpt><trkpt lat="43.30261773529411" lon="12.835625337518648"><ele>443.0</ele><time>2026-04-19T15:20:08Z</time></trkpt><trkpt lat="43.302582388858546" lon="12.83596998749173"><ele>443.0</ele><time>2026-04-19T15:20:09Z</time></trkpt><trkpt lat="43.30255002276234" lon="12.83631649087565"><ele>441.0</ele><time>2026-04-19T15:20:10Z</time></trkpt><trkpt lat="43.3025253336666" lon="12.836661508544436"><ele>439.0</ele><time>2026-04-19T15:20:11Z</time></trkpt><trkpt lat="43.30250980041608" lon="12.83700293318733"><ele>437.5</ele><time>2026-04-19T15:20:12Z</time></trkpt><trkpt lat="43.302504628413445" lon="12.837345687208366"><ele>436.0</ele><time>2026-04-19T15:20:13Z</time></trkpt><trkpt lat="43.30252404954215" lon="12.837684025718211"><ele>434.0</ele><time>2026-04-19T15:20:14Z</time></trkpt><trkpt lat="43.302540820975025" lon="12.838022777614533"><ele>432.0</ele><time>2026-04-19T15:20:15Z</time></trkpt><trkpt lat="43.30258337950479" lon="12.83835897077604"><ele>429.0</ele><time>2026-04-19T15:20:16Z</time></trkpt><trkpt lat="43.302651193182314" lon="12.838685680027556"><ele>426.0</ele><time>2026-04-19T15:20:16.999Z</time></trkpt><trkpt lat="43.30273220991561" lon="12.8390096477193"><ele>422.5</ele><time>2026-04-19T15:20:17.999Z</time></trkpt><trkpt lat="43.30282956739854" lon="12.839323910737663"><ele>419.0</ele><time>2026-04-19T15:20:18.999Z</time></trkpt><trkpt lat="43.30293725322544" lon="12.839640820405078"><ele>419.0</ele><time>2026-04-19T15:20:19.999Z</time></trkpt><trkpt lat="43.303058031795764" lon="12.839941942406199"><ele>419.0</ele><time>2026-04-19T15:20:20.999Z</time></trkpt><trkpt lat="43.30319913194196" lon="12.840221085991661"><ele>420.5</ele><time>2026-04-19T15:20:21.999Z</time></trkpt><trkpt lat="43.303356279973" lon="12.840486213784441"><ele>422.0</ele><time>2026-04-19T15:20:22.999Z</time></trkpt><trkpt lat="43.303525519474654" lon="12.840741634736922"><ele>416.0</ele><time>2026-04-19T15:20:23.999Z</time></trkpt><trkpt lat="43.30370220511515" lon="12.840987019516284"><ele>410.0</ele><time>2026-04-19T15:20:24.999Z</time></trkpt><trkpt lat="43.303892120001066" lon="12.841218735853372"><ele>415.5</ele><time>2026-04-19T15:20:25.999Z</time></trkpt><trkpt lat="43.304090393418136" lon="12.841425928082828"><ele>421.0</ele><time>2026-04-19T15:20:26.999Z</time></trkpt><trkpt lat="43.30429422081798" lon="12.841617872069914"><ele>414.5</ele><time>2026-04-19T15:20:27.999Z</time></trkpt><trkpt lat="43.30449941441119" lon="12.84181542022825"><ele>408.0</ele><time>2026-04-19T15:20:28.999Z</time></trkpt><trkpt lat="43.30469587697979" lon="12.842031941290484"><ele>413.5</ele><time>2026-04-19T15:20:29.999Z</time></trkpt><trkpt lat="43.304877427455416" lon="12.842271390331168"><ele>419.0</ele><time>2026-04-19T15:20:30.999Z</time></trkpt><trkpt lat="43.30505771876969" lon="12.842524916827125"><ele>411.0</ele><time>2026-04-19T15:20:31.999Z</time></trkpt><trkpt lat="43.30524373215117" lon="12.842776375989214"><ele>403.0</ele><time>2026-04-19T15:20:32.999Z</time></trkpt><trkpt lat="43.3054348783842" lon="12.843026595955617"><ele>403.0</ele><time>2026-04-19T15:20:33.999Z</time></trkpt><trkpt lat="43.30562691818535" lon="12.84327941965736"><ele>403.0</ele><time>2026-04-19T15:20:34.999Z</time></trkpt><trkpt lat="43.30581539221423" lon="12.843534614513032"><ele>403.0</ele><time>2026-04-19T15:20:35.999Z</time></trkpt><trkpt lat="43.3060083218716" lon="12.84378815645031"><ele>403.0</ele><time>2026-04-19T15:20:36.999Z</time></trkpt><trkpt lat="43.306200470147644" lon="12.844046425294458"><ele>402.5</ele><time>2026-04-19T15:20:37.999Z</time></trkpt><trkpt lat="43.30639688009373" lon="12.844307606625952"><ele>402.0</ele><time>2026-04-19T15:20:38.999Z</time></trkpt><trkpt lat="43.306591390202136" lon="12.844573458423277"><ele>401.5</ele><time>2026-04-19T15:20:39.999Z</time></trkpt><trkpt lat="43.306780452305105" lon="12.844853871926388"><ele>401.0</ele><time>2026-04-19T15:20:40.999Z</time></trkpt><trkpt lat="43.30696398664034" lon="12.845155392194513"><ele>401.0</ele><time>2026-04-19T15:20:41.999Z</time></trkpt><trkpt lat="43.30714331519422" lon="12.845470203647022"><ele>401.0</ele><time>2026-04-19T15:20:42.999Z</time></trkpt><trkpt lat="43.30731915569929" lon="12.845778166576453"><ele>401.5</ele><time>2026-04-19T15:20:43.999Z</time></trkpt><trkpt lat="43.30749049900482" lon="12.846090370292755"><ele>402.0</ele><time>2026-04-19T15:20:44.999Z</time></trkpt><trkpt lat="43.30765819284054" lon="12.846401311873876"><ele>402.0</ele><time>2026-04-19T15:20:45.999Z</time></trkpt><trkpt lat="43.307824710427454" lon="12.84671064496059"><ele>402.0</ele><time>2026-04-19T15:20:46.999Z</time></trkpt><trkpt lat="43.30798847357271" lon="12.847015970721536"><ele>406.0</ele><time>2026-04-19T15:20:47.999Z</time></trkpt><trkpt lat="43.30815060471309" lon="12.847320984876609"><ele>410.0</ele><time>2026-04-19T15:20:48.999Z</time></trkpt><trkpt lat="43.30831071006596" lon="12.847620575834584"><ele>405.0</ele><time>2026-04-19T15:20:49.999Z</time></trkpt><trkpt lat="43.308467592978076" lon="12.847925897131272"><ele>400.0</ele><time>2026-04-19T15:20:50.999Z</time></trkpt><trkpt lat="43.30861784243307" lon="12.84821663854055"><ele>397.0</ele><time>2026-04-19T15:20:51.999Z</time></trkpt><trkpt lat="43.3087506506883" lon="12.848524331112543"><ele>394.0</ele><time>2026-04-19T15:20:52.999Z</time></trkpt><trkpt lat="43.308876952318734" lon="12.84883708869113"><ele>396.5</ele><time>2026-04-19T15:20:53.999Z</time></trkpt><trkpt lat="43.30899321658606" lon="12.849152574281497"><ele>399.0</ele><time>2026-04-19T15:20:54.999Z</time></trkpt><trkpt lat="43.309104216565096" lon="12.849474795086945"><ele>399.0</ele><time>2026-04-19T15:20:55.999Z</time></trkpt><trkpt lat="43.30920670261013" lon="12.849804556914325"><ele>399.0</ele><time>2026-04-19T15:20:56.999Z</time></trkpt><trkpt lat="43.309304560363046" lon="12.85014062632811"><ele>396.0</ele><time>2026-04-19T15:20:57.999Z</time></trkpt><trkpt lat="43.30939250856515" lon="12.850487258333143"><ele>393.0</ele><time>2026-04-19T15:20:58.999Z</time></trkpt><trkpt lat="43.30947516418159" lon="12.850840030234707"><ele>392.0</ele><time>2026-04-19T15:20:59.999Z</time></trkpt><trkpt lat="43.30955288927212" lon="12.851192721010442"><ele>391.0</ele><time>2026-04-19T15:21:00.999Z</time></trkpt><trkpt lat="43.30962946907124" lon="12.851549394745257"><ele>390.5</ele><time>2026-04-19T15:21:01.999Z</time></trkpt><trkpt lat="43.30970257783386" lon="12.851917007565078"><ele>390.0</ele><time>2026-04-19T15:21:02.999Z</time></trkpt><trkpt lat="43.30977504936681" lon="12.852282778106325"><ele>392.5</ele><time>2026-04-19T15:21:03.999Z</time></trkpt><trkpt lat="43.30984513916807" lon="12.852644893328138"><ele>395.0</ele><time>2026-04-19T15:21:04.999Z</time></trkpt><trkpt lat="43.30991326822946" lon="12.853005368001318"><ele>395.0</ele><time>2026-04-19T15:21:05.999Z</time></trkpt><trkpt lat="43.30998073550681" lon="12.853359634169582"><ele>395.0</ele><time>2026-04-19T15:21:06.999Z</time></trkpt><trkpt lat="43.31004613704952" lon="12.853705630618077"><ele>393.5</ele><time>2026-04-19T15:21:07.999Z</time></trkpt><trkpt lat="43.31011236021196" lon="12.85404758147319"><ele>392.0</ele><time>2026-04-19T15:21:08.999Z</time></trkpt><trkpt lat="43.310179787498235" lon="12.854387192205575"><ele>390.5</ele><time>2026-04-19T15:21:09.999Z</time></trkpt><trkpt lat="43.31024077838419" lon="12.854730743825952"><ele>389.0</ele><time>2026-04-19T15:21:10.999Z</time></trkpt><trkpt lat="43.31030758150398" lon="12.85506979037599"><ele>389.5</ele><time>2026-04-19T15:21:11.999Z</time></trkpt><trkpt lat="43.310373247008535" lon="12.855417342788323"><ele>390.0</ele><time>2026-04-19T15:21:12.999Z</time></trkpt><trkpt lat="43.31044045965635" lon="12.855756902383645"><ele>388.5</ele><time>2026-04-19T15:21:13.999Z</time></trkpt><trkpt lat="43.31050877508303" lon="12.856100298218573"><ele>387.0</ele><time>2026-04-19T15:21:14.999Z</time></trkpt><trkpt lat="43.31057838476115" lon="12.856438711296907"><ele>387.0</ele><time>2026-04-19T15:21:15.999Z</time></trkpt><trkpt lat="43.310646154417284" lon="12.856782204576772"><ele>387.0</ele><time>2026-04-19T15:21:16.999Z</time></trkpt><trkpt lat="43.310710835889296" lon="12.857122649868728"><ele>384.5</ele><time>2026-04-19T15:21:17.999Z</time></trkpt><trkpt lat="43.3107758368713" lon="12.857453869581557"><ele>382.0</ele><time>2026-04-19T15:21:18.999Z</time></trkpt><trkpt lat="43.310845482431425" lon="12.85778650299282"><ele>380.5</ele><time>2026-04-19T15:21:19.999Z</time></trkpt><trkpt lat="43.31091705453926" lon="12.858133451600514"><ele>379.0</ele><time>2026-04-19T15:21:20.999Z</time></trkpt><trkpt lat="43.31099215732732" lon="12.858468013057035"><ele>378.5</ele><time>2026-04-19T15:21:21.999Z</time></trkpt><trkpt lat="43.311080837198176" lon="12.85879855758653"><ele>378.0</ele><time>2026-04-19T15:21:22.999Z</time></trkpt><trkpt lat="43.31118302319397" lon="12.859121990759636"><ele>378.5</ele><time>2026-04-19T15:21:23.999Z</time></trkpt><trkpt lat="43.311296913849205" lon="12.85943800764264"><ele>379.0</ele><time>2026-04-19T15:21:24.999Z</time></trkpt><trkpt lat="43.31142223398803" lon="12.859748567222207"><ele>378.0</ele><time>2026-04-19T15:21:25.999Z</time></trkpt><trkpt lat="43.31155516324914" lon="12.86005577547335"><ele>377.0</ele><time>2026-04-19T15:21:26.999Z</time></trkpt><trkpt lat="43.31169792961137" lon="12.860359866421604"><ele>379.5</ele><time>2026-04-19T15:21:27.999Z</time></trkpt><trkpt lat="43.31185002788219" lon="12.860662527759898"><ele>382.0</ele><time>2026-04-19T15:21:28.998Z</time></trkpt><trkpt lat="43.31201260067681" lon="12.86095761220569"><ele>383.0</ele><time>2026-04-19T15:21:29.998Z</time></trkpt><trkpt lat="43.3121836136234" lon="12.861246875385154"><ele>384.0</ele><time>2026-04-19T15:21:30.998Z</time></trkpt><trkpt lat="43.31236016045758" lon="12.861530128152832"><ele>385.5</ele><time>2026-04-19T15:21:31.998Z</time></trkpt><trkpt lat="43.31254360677542" lon="12.861809389981804"><ele>387.0</ele><time>2026-04-19T15:21:32.998Z</time></trkpt><trkpt lat="43.31272923791474" lon="12.862088018633825"><ele>387.0</ele><time>2026-04-19T15:21:33.998Z</time></trkpt><trkpt lat="43.31290955950533" lon="12.862369783868546"><ele>387.0</ele><time>2026-04-19T15:21:34.998Z</time></trkpt><trkpt lat="43.31308818305925" lon="12.86265570110068"><ele>387.0</ele><time>2026-04-19T15:21:35.998Z</time></trkpt><trkpt lat="43.3132624905689" lon="12.862941403111938"><ele>387.0</ele><time>2026-04-19T15:21:36.998Z</time></trkpt><trkpt lat="43.3134335726406" lon="12.863219994666412"><ele>393.5</ele><time>2026-04-19T15:21:37.998Z</time></trkpt><trkpt lat="43.31359676869761" lon="12.863488858375298"><ele>400.0</ele><time>2026-04-19T15:21:38.998Z</time></trkpt><trkpt lat="43.31375053125077" lon="12.863763309663254"><ele>400.0</ele><time>2026-04-19T15:21:39.998Z</time></trkpt><trkpt lat="43.31389050039032" lon="12.864050423434984"><ele>400.0</ele><time>2026-04-19T15:21:40.998Z</time></trkpt><trkpt lat="43.31402106793692" lon="12.864342744509296"><ele>396.5</ele><time>2026-04-19T15:21:41.998Z</time></trkpt><trkpt lat="43.31413919156356" lon="12.864641819250265"><ele>393.0</ele><time>2026-04-19T15:21:43Z</time></trkpt><trkpt lat="43.31424708932697" lon="12.864950282106959"><ele>406.5</ele><time>2026-04-19T15:21:44Z</time></trkpt><trkpt lat="43.31434705639985" lon="12.86526085459328"><ele>420.0</ele><time>2026-04-19T15:21:45Z</time></trkpt><trkpt lat="43.314436236890195" lon="12.865571901586698"><ele>420.0</ele><time>2026-04-19T15:21:46Z</time></trkpt><trkpt lat="43.31452423849871" lon="12.86588694500341"><ele>420.0</ele><time>2026-04-19T15:21:47Z</time></trkpt><trkpt lat="43.31461360489599" lon="12.866202915857837"><ele>435.5</ele><time>2026-04-19T15:21:48Z</time></trkpt><trkpt lat="43.31470252719634" lon="12.866519472251692"><ele>451.0</ele><time>2026-04-19T15:21:49Z</time></trkpt><trkpt lat="43.31476195441042" lon="12.86684389259226"><ele>459.0</ele><time>2026-04-19T15:21:50Z</time></trkpt><trkpt lat="43.31480532623486" lon="12.867192936605035"><ele>467.0</ele><time>2026-04-19T15:21:51.073Z</time></trkpt><trkpt lat="43.31483590299578" lon="12.867512595451888"><ele>472.5</ele><time>2026-04-19T15:21:52.061Z</time></trkpt><trkpt lat="43.314869488785924" lon="12.86784250665336"><ele>478.0</ele><time>2026-04-19T15:21:53.061Z</time></trkpt><trkpt lat="43.314902889488685" lon="12.868176677989982"><ele>449.0</ele><time>2026-04-19T15:21:54.057Z</time></trkpt><trkpt lat="43.315017528791834" lon="12.870010241242591"><ele>431.5</ele><time>2026-04-19T15:21:57.811Z</time></trkpt><trkpt lat="43.31506766721142" lon="12.870500963610661"><ele>414.0</ele><time>2026-04-19T15:21:58.816Z</time></trkpt><trkpt lat="43.31511708862303" lon="12.870989355599267"><ele>399.0</ele><time>2026-04-19T15:21:59.816Z</time></trkpt><trkpt lat="43.3152615329734" lon="12.87245526986632"><ele>399.0</ele><time>2026-04-19T15:22:02.816Z</time></trkpt><trkpt lat="43.31525142609242" lon="12.87229845398414"><ele>399.0</ele><time>2026-04-19T15:22:04Z</time></trkpt><trkpt lat="43.31525555951948" lon="12.872722937417864"><ele>399.0</ele><time>2026-04-19T15:22:05Z</time></trkpt><trkpt lat="43.31569235521795" lon="12.876773147075726"><ele>419.5</ele><time>2026-04-19T15:22:14.816Z</time></trkpt><trkpt lat="43.31575259384874" lon="12.877259206317534"><ele>440.0</ele><time>2026-04-19T15:22:15.816Z</time></trkpt><trkpt lat="43.31582448284473" lon="12.877742340197049"><ele>441.0</ele><time>2026-04-19T15:22:16.816Z</time></trkpt><trkpt lat="43.31590533901295" lon="12.878222791322782"><ele>442.0</ele><time>2026-04-19T15:22:17.816Z</time></trkpt><trkpt lat="43.316001295261806" lon="12.878697979928315"><ele>452.0</ele><time>2026-04-19T15:22:18.816Z</time></trkpt><trkpt lat="43.316105115862605" lon="12.879170113094357"><ele>462.0</ele><time>2026-04-19T15:22:19.816Z</time></trkpt><trkpt lat="43.31622134052289" lon="12.879634078355634"><ele>455.5</ele><time>2026-04-19T15:22:20.811Z</time></trkpt><trkpt lat="43.31635175004213" lon="12.88009628100727"><ele>449.0</ele><time>2026-04-19T15:22:21.816Z</time></trkpt><trkpt lat="43.316489434946284" lon="12.880551860310208"><ele>456.0</ele><time>2026-04-19T15:22:22.815Z</time></trkpt><trkpt lat="43.31663422985172" lon="12.881003293928384"><ele>463.0</ele><time>2026-04-19T15:22:23.815Z</time></trkpt><trkpt lat="43.31677700074898" lon="12.88145595541922"><ele>471.0</ele><time>2026-04-19T15:22:24.815Z</time></trkpt><trkpt lat="43.3169197682253" lon="12.881908606063813"><ele>479.0</ele><time>2026-04-19T15:22:25.815Z</time></trkpt><trkpt lat="43.317063249186084" lon="12.882360837294947"><ele>485.5</ele><time>2026-04-19T15:22:26.815Z</time></trkpt><trkpt lat="43.3171849" lon="12.8827406"><ele>492.0</ele><time>2026-04-19T15:22:27.815Z</time></trkpt><trkpt lat="43.31878641845227" lon="12.887933638046908"><ele>449.0</ele><time>2026-04-19T15:22:44.999Z</time></trkpt><trkpt lat="43.31889154493765" lon="12.8883205829307"><ele>406.0</ele><time>2026-04-19T15:22:45.999Z</time></trkpt><trkpt lat="43.31900536570969" lon="12.888702631026677"><ele>406.0</ele><time>2026-04-19T15:22:46.999Z</time></trkpt><trkpt lat="43.31912059140744" lon="12.889084363186365"><ele>406.0</ele><time>2026-04-19T15:22:47.999Z</time></trkpt><trkpt lat="43.31923478586973" lon="12.889465211733034"><ele>400.0</ele><time>2026-04-19T15:22:48.999Z</time></trkpt><trkpt lat="43.319354707112105" lon="12.889868609528198"><ele>394.0</ele><time>2026-04-19T15:22:50.058Z</time></trkpt><trkpt lat="43.31947079049371" lon="12.890251251554757"><ele>387.0</ele><time>2026-04-19T15:22:51.064Z</time></trkpt><trkpt lat="43.31961268701187" lon="12.890618119107632"><ele>380.0</ele><time>2026-04-19T15:22:52.062Z</time></trkpt><trkpt lat="43.31984452590626" lon="12.891241282441204"><ele>380.0</ele><time>2026-04-19T15:22:53.999Z</time></trkpt><trkpt lat="43.31999666954568" lon="12.891575205495064"><ele>380.0</ele><time>2026-04-19T15:22:54.999Z</time></trkpt><trkpt lat="43.32011711559296" lon="12.891915681091909"><ele>380.0</ele><time>2026-04-19T15:22:55.999Z</time></trkpt><trkpt lat="43.32019775425779" lon="12.892258203334027"><ele>380.0</ele><time>2026-04-19T15:22:56.999Z</time></trkpt><trkpt lat="43.32029751415979" lon="12.892628299701597"><ele>393.5</ele><time>2026-04-19T15:22:57.999Z</time></trkpt><trkpt lat="43.32038992734545" lon="12.892949153078039"><ele>407.0</ele><time>2026-04-19T15:22:58.999Z</time></trkpt><trkpt lat="43.32145535166726" lon="12.89619563023517"><ele>451.0</ele><time>2026-04-19T15:23:07.815Z</time></trkpt><trkpt lat="43.32159859049193" lon="12.896648031749812"><ele>495.0</ele><time>2026-04-19T15:23:08.815Z</time></trkpt><trkpt lat="43.32174183461012" lon="12.897100449983384"><ele>502.5</ele><time>2026-04-19T15:23:09.815Z</time></trkpt><trkpt lat="43.321885704486995" lon="12.897552469835913"><ele>510.0</ele><time>2026-04-19T15:23:10.815Z</time></trkpt><trkpt lat="43.322029875334124" lon="12.898004324177275"><ele>510.0</ele><time>2026-04-19T15:23:11.815Z</time></trkpt><trkpt lat="43.32217396183454" lon="12.898456244449946"><ele>510.0</ele><time>2026-04-19T15:23:12.815Z</time></trkpt><trkpt lat="43.32231804544927" lon="12.898908155671855"><ele>486.5</ele><time>2026-04-19T15:23:13.815Z</time></trkpt><trkpt lat="43.32246166177453" lon="12.89935860126312"><ele>463.0</ele><time>2026-04-19T15:23:14.812Z</time></trkpt><trkpt lat="43.322606223036246" lon="12.89981201060144"><ele>458.5</ele><time>2026-04-19T15:23:15.815Z</time></trkpt><trkpt lat="43.3227501950537" lon="12.900263973637076"><ele>454.0</ele><time>2026-04-19T15:23:16.815Z</time></trkpt><trkpt lat="43.32289287005319" lon="12.90071672896877"><ele>453.5</ele><time>2026-04-19T15:23:17.815Z</time></trkpt><trkpt lat="43.323035546328306" lon="12.901169488348485"><ele>453.0</ele><time>2026-04-19T15:23:18.815Z</time></trkpt><trkpt lat="43.323178530581785" lon="12.901622058017084"><ele>440.0</ele><time>2026-04-19T15:23:19.815Z</time></trkpt><trkpt lat="43.32332198925537" lon="12.902074349058074"><ele>427.0</ele><time>2026-04-19T15:23:20.815Z</time></trkpt><trkpt lat="43.32346541023528" lon="12.902526677830924"><ele>423.0</ele><time>2026-04-19T15:23:21.815Z</time></trkpt><trkpt lat="43.32360879804787" lon="12.902979022252595"><ele>419.0</ele><time>2026-04-19T15:23:22.815Z</time></trkpt><trkpt lat="43.323752185997215" lon="12.90343136710566"><ele>410.5</ele><time>2026-04-19T15:23:23.815Z</time></trkpt><trkpt lat="43.32389487850633" lon="12.903884110643729"><ele>402.0</ele><time>2026-04-19T15:23:24.815Z</time></trkpt><trkpt lat="43.3240341745563" lon="12.904338837124586"><ele>390.0</ele><time>2026-04-19T15:23:25.815Z</time></trkpt><trkpt lat="43.32406680679476" lon="12.905487721800693"><ele>390.0</ele><time>2026-04-19T15:23:33.998Z</time></trkpt><trkpt lat="43.32413720778559" lon="12.905824315049568"><ele>390.0</ele><time>2026-04-19T15:23:34.998Z</time></trkpt><trkpt lat="43.324409554538846" lon="12.90608406148666"><ele>393.5</ele><time>2026-04-19T15:23:35.998Z</time></trkpt><trkpt lat="43.324477152521965" lon="12.906428550165176"><ele>397.0</ele><time>2026-04-19T15:23:36.998Z</time></trkpt><trkpt lat="43.32455281599622" lon="12.906758330454146"><ele>401.0</ele><time>2026-04-19T15:23:37.998Z</time></trkpt><trkpt lat="43.32464289313834" lon="12.907085677628357"><ele>405.0</ele><time>2026-04-19T15:23:38.998Z</time></trkpt><trkpt lat="43.324709702932346" lon="12.907413875456589"><ele>395.0</ele><time>2026-04-19T15:23:39.998Z</time></trkpt><trkpt lat="43.32476052155908" lon="12.90775048535658"><ele>385.0</ele><time>2026-04-19T15:23:40.998Z</time></trkpt><trkpt lat="43.324812930472575" lon="12.908079048580401"><ele>385.0</ele><time>2026-04-19T15:23:41.998Z</time></trkpt><trkpt lat="43.32486376635016" lon="12.908409071017138"><ele>385.0</ele><time>2026-04-19T15:23:42.998Z</time></trkpt><trkpt lat="43.324909797768484" lon="12.908742093554087"><ele>386.5</ele><time>2026-04-19T15:23:43.998Z</time></trkpt><trkpt lat="43.324952726476766" lon="12.909078517664183"><ele>388.0</ele><time>2026-04-19T15:23:44.998Z</time></trkpt><trkpt lat="43.324991800097244" lon="12.909422762198028"><ele>390.0</ele><time>2026-04-19T15:23:45.998Z</time></trkpt><trkpt lat="43.32504109519908" lon="12.909766862418095"><ele>392.0</ele><time>2026-04-19T15:23:46.998Z</time></trkpt><trkpt lat="43.32510514177062" lon="12.91014073198717"><ele>398.5</ele><time>2026-04-19T15:23:47.998Z</time></trkpt><trkpt lat="43.32517259872609" lon="12.91051267309091"><ele>405.0</ele><time>2026-04-19T15:23:49Z</time></trkpt><trkpt lat="43.325246810355225" lon="12.910885926200136"><ele>410.0</ele><time>2026-04-19T15:23:50Z</time></trkpt><trkpt lat="43.32532235921658" lon="12.911259751354788"><ele>415.0</ele><time>2026-04-19T15:23:51Z</time></trkpt><trkpt lat="43.325370248774945" lon="12.9116278321196"><ele>417.0</ele><time>2026-04-19T15:23:52Z</time></trkpt><trkpt lat="43.3254221759907" lon="12.912034632837086"><ele>419.0</ele><time>2026-04-19T15:23:53.078Z</time></trkpt><trkpt lat="43.32547003061155" lon="12.9124095285777"><ele>417.5</ele><time>2026-04-19T15:23:54.07Z</time></trkpt><trkpt lat="43.32551836738695" lon="12.912788201563504"><ele>416.0</ele><time>2026-04-19T15:23:55.067Z</time></trkpt><trkpt lat="43.32568856101095" lon="12.914621141967261"><ele>402.5</ele><time>2026-04-19T15:23:58.814Z</time></trkpt><trkpt lat="43.32575206417019" lon="12.91510656082405"><ele>389.0</ele><time>2026-04-19T15:23:59.814Z</time></trkpt><trkpt lat="43.32581507478386" lon="12.91559210494939"><ele>380.5</ele><time>2026-04-19T15:24:00.814Z</time></trkpt><trkpt lat="43.32587695250057" lon="12.916077920486213"><ele>372.0</ele><time>2026-04-19T15:24:01.814Z</time></trkpt><trkpt lat="43.32600345752603" lon="12.917239383351927"><ele>364.5</ele><time>2026-04-19T15:24:08Z</time></trkpt><trkpt lat="43.32604754695901" lon="12.917595225181712"><ele>357.0</ele><time>2026-04-19T15:24:09Z</time></trkpt><trkpt lat="43.32610351366065" lon="12.917936122993659"><ele>357.0</ele><time>2026-04-19T15:24:10Z</time></trkpt><trkpt lat="43.32616222528028" lon="12.918248184010952"><ele>357.0</ele><time>2026-04-19T15:24:11Z</time></trkpt><trkpt lat="43.32621338392178" lon="12.918561515794616"><ele>354.0</ele><time>2026-04-19T15:24:12Z</time></trkpt><trkpt lat="43.32626821515059" lon="12.918882838320737"><ele>351.0</ele><time>2026-04-19T15:24:13Z</time></trkpt><trkpt lat="43.32636029026156" lon="12.919201394791614"><ele>353.0</ele><time>2026-04-19T15:24:14Z</time></trkpt><trkpt lat="43.32643528594964" lon="12.919516984172324"><ele>355.0</ele><time>2026-04-19T15:24:15Z</time></trkpt><trkpt lat="43.32650584138105" lon="12.919831838984495"><ele>353.0</ele><time>2026-04-19T15:24:16Z</time></trkpt><trkpt lat="43.32659034340195" lon="12.920146950390205"><ele>351.0</ele><time>2026-04-19T15:24:17Z</time></trkpt><trkpt lat="43.32668402058913" lon="12.920462210251815"><ele>351.0</ele><time>2026-04-19T15:24:18Z</time></trkpt><trkpt lat="43.32678446090269" lon="12.920773824585813"><ele>351.0</ele><time>2026-04-19T15:24:19Z</time></trkpt><trkpt lat="43.32688885177916" lon="12.921094160864756"><ele>348.0</ele><time>2026-04-19T15:24:20Z</time></trkpt><trkpt lat="43.327002408562365" lon="12.921406274968469"><ele>345.0</ele><time>2026-04-19T15:24:21Z</time></trkpt><trkpt lat="43.327126769835026" lon="12.92172097204019"><ele>347.5</ele><time>2026-04-19T15:24:22Z</time></trkpt><trkpt lat="43.327258196112815" lon="12.922027756038055"><ele>350.0</ele><time>2026-04-19T15:24:23Z</time></trkpt><trkpt lat="43.32739612981781" lon="12.922340752252238"><ele>347.0</ele><time>2026-04-19T15:24:24Z</time></trkpt><trkpt lat="43.32754151532224" lon="12.922648755758571"><ele>344.0</ele><time>2026-04-19T15:24:25Z</time></trkpt><trkpt lat="43.32769887288288" lon="12.922949846501876"><ele>344.0</ele><time>2026-04-19T15:24:25.999Z</time></trkpt><trkpt lat="43.32786560774338" lon="12.923252527433919"><ele>344.0</ele><time>2026-04-19T15:24:26.999Z</time></trkpt><trkpt lat="43.32803804795608" lon="12.92354769911796"><ele>341.0</ele><time>2026-04-19T15:24:27.999Z</time></trkpt><trkpt lat="43.32821376903086" lon="12.923833680703234"><ele>338.0</ele><time>2026-04-19T15:24:28.999Z</time></trkpt><trkpt lat="43.32839935848316" lon="12.924117526859128"><ele>334.5</ele><time>2026-04-19T15:24:29.999Z</time></trkpt><trkpt lat="43.32859150325338" lon="12.924394879999154"><ele>331.0</ele><time>2026-04-19T15:24:30.999Z</time></trkpt><trkpt lat="43.32879264998148" lon="12.924665156396653"><ele>331.0</ele><time>2026-04-19T15:24:31.999Z</time></trkpt><trkpt lat="43.32900162668806" lon="12.924929795323699"><ele>331.0</ele><time>2026-04-19T15:24:32.999Z</time></trkpt><trkpt lat="43.32921823082498" lon="12.925191778894503"><ele>328.5</ele><time>2026-04-19T15:24:33.999Z</time></trkpt><trkpt lat="43.32943555058906" lon="12.925435106123912"><ele>326.0</ele><time>2026-04-19T15:24:34.999Z</time></trkpt><trkpt lat="43.32966047644823" lon="12.925677417199896"><ele>322.5</ele><time>2026-04-19T15:24:35.999Z</time></trkpt><trkpt lat="43.32988296063375" lon="12.925918446109447"><ele>319.0</ele><time>2026-04-19T15:24:36.999Z</time></trkpt><trkpt lat="43.33010481700938" lon="12.926158306415136"><ele>319.0</ele><time>2026-04-19T15:24:37.999Z</time></trkpt><trkpt lat="43.33032596862307" lon="12.926393865460298"><ele>319.0</ele><time>2026-04-19T15:24:38.999Z</time></trkpt><trkpt lat="43.330541174131426" lon="12.92663764813519"><ele>320.5</ele><time>2026-04-19T15:24:39.999Z</time></trkpt><trkpt lat="43.330771144178016" lon="12.926857197847532"><ele>322.0</ele><time>2026-04-19T15:24:40.999Z</time></trkpt><trkpt lat="43.3309880123156" lon="12.927072505960451"><ele>322.0</ele><time>2026-04-19T15:24:41.999Z</time></trkpt><trkpt lat="43.33120425128971" lon="12.927290372384599"><ele>322.0</ele><time>2026-04-19T15:24:42.999Z</time></trkpt><trkpt lat="43.33141487359963" lon="12.92750832199073"><ele>325.0</ele><time>2026-04-19T15:24:43.999Z</time></trkpt><trkpt lat="43.33162347232228" lon="12.927726923724034"><ele>328.0</ele><time>2026-04-19T15:24:44.999Z</time></trkpt><trkpt lat="43.33182964400854" lon="12.927942580410786"><ele>328.0</ele><time>2026-04-19T15:24:45.999Z</time></trkpt><trkpt lat="43.332036725295104" lon="12.928153224077382"><ele>328.0</ele><time>2026-04-19T15:24:46.999Z</time></trkpt><trkpt lat="43.332240833832856" lon="12.928361334171594"><ele>332.5</ele><time>2026-04-19T15:24:47.999Z</time></trkpt><trkpt lat="43.332459005027474" lon="12.928553028152223"><ele>337.0</ele><time>2026-04-19T15:24:48.999Z</time></trkpt><trkpt lat="43.332683487076324" lon="12.928747932613263"><ele>337.0</ele><time>2026-04-19T15:24:49.999Z</time></trkpt><trkpt lat="43.33291062373536" lon="12.928940471572602"><ele>337.0</ele><time>2026-04-19T15:24:50.999Z</time></trkpt><trkpt lat="43.33313537957009" lon="12.929137279066605"><ele>342.5</ele><time>2026-04-19T15:24:51.999Z</time></trkpt><trkpt lat="43.333343037524244" lon="12.929366864829577"><ele>348.0</ele><time>2026-04-19T15:24:52.999Z</time></trkpt><trkpt lat="43.33353445547325" lon="12.929615901687715"><ele>348.0</ele><time>2026-04-19T15:24:53.999Z</time></trkpt><trkpt lat="43.3337578247696" lon="12.929839302264241"><ele>348.0</ele><time>2026-04-19T15:24:55.061Z</time></trkpt><trkpt lat="43.333975245285075" lon="12.930054849327437"><ele>354.0</ele><time>2026-04-19T15:24:56.059Z</time></trkpt><trkpt lat="43.33418619221801" lon="12.930265662980299"><ele>360.0</ele><time>2026-04-19T15:24:57.055Z</time></trkpt><trkpt lat="43.336177325456035" lon="12.933037797843932"><ele>341.5</ele><time>2026-04-19T15:25:07.999Z</time></trkpt><trkpt lat="43.336353184897874" lon="12.93330150103796"><ele>323.0</ele><time>2026-04-19T15:25:08.999Z</time></trkpt><trkpt lat="43.336567423410415" lon="12.933615549391526"><ele>318.5</ele><time>2026-04-19T15:25:09.999Z</time></trkpt><trkpt lat="43.33674631126348" lon="12.933919656446212"><ele>314.0</ele><time>2026-04-19T15:25:10.999Z</time></trkpt><trkpt lat="43.33691241991955" lon="12.934258329698837"><ele>314.0</ele><time>2026-04-19T15:25:11.999Z</time></trkpt><trkpt lat="43.33707956751803" lon="12.934604510886377"><ele>314.0</ele><time>2026-04-19T15:25:12.999Z</time></trkpt><trkpt lat="43.3372416362299" lon="12.934956969099922"><ele>313.5</ele><time>2026-04-19T15:25:13.999Z</time></trkpt><trkpt lat="43.337394690509846" lon="12.935301754150895"><ele>313.0</ele><time>2026-04-19T15:25:14.999Z</time></trkpt><trkpt lat="43.337535982839775" lon="12.935650838233386"><ele>311.0</ele><time>2026-04-19T15:25:15.999Z</time></trkpt><trkpt lat="43.33767060609346" lon="12.936011092523486"><ele>309.0</ele><time>2026-04-19T15:25:16.999Z</time></trkpt><trkpt lat="43.33780035806542" lon="12.93637645277758"><ele>308.5</ele><time>2026-04-19T15:25:17.999Z</time></trkpt><trkpt lat="43.33794073908485" lon="12.936743577078358"><ele>308.0</ele><time>2026-04-19T15:25:18.999Z</time></trkpt><trkpt lat="43.338069439610344" lon="12.937114887755971"><ele>308.0</ele><time>2026-04-19T15:25:19.999Z</time></trkpt><trkpt lat="43.338199247827035" lon="12.93747030407805"><ele>308.0</ele><time>2026-04-19T15:25:20.999Z</time></trkpt><trkpt lat="43.338330818920326" lon="12.9378243790027"><ele>311.5</ele><time>2026-04-19T15:25:21.999Z</time></trkpt><trkpt lat="43.338462522962665" lon="12.938171571642888"><ele>315.0</ele><time>2026-04-19T15:25:22.999Z</time></trkpt><trkpt lat="43.338594742572816" lon="12.938513025685623"><ele>320.5</ele><time>2026-04-19T15:25:23.999Z</time></trkpt><trkpt lat="43.33871997039608" lon="12.938855047095306"><ele>326.0</ele><time>2026-04-19T15:25:24.999Z</time></trkpt><trkpt lat="43.33884368701084" lon="12.939196741701576"><ele>332.0</ele><time>2026-04-19T15:25:25.999Z</time></trkpt><trkpt lat="43.338966470068144" lon="12.939542003142405"><ele>338.0</ele><time>2026-04-19T15:25:26.999Z</time></trkpt><trkpt lat="43.339091891776235" lon="12.939889337699066"><ele>339.5</ele><time>2026-04-19T15:25:27.999Z</time></trkpt><trkpt lat="43.33921413210587" lon="12.940233692290604"><ele>341.0</ele><time>2026-04-19T15:25:28.999Z</time></trkpt><trkpt lat="43.339341490821795" lon="12.940581774389573"><ele>337.0</ele><time>2026-04-19T15:25:29.999Z</time></trkpt><trkpt lat="43.33947500005546" lon="12.940956795923704"><ele>333.0</ele><time>2026-04-19T15:25:31.073Z</time></trkpt><trkpt lat="43.33959891106024" lon="12.94130648563144"><ele>324.5</ele><time>2026-04-19T15:25:32.07Z</time></trkpt><trkpt lat="43.33972317637755" lon="12.941655974836193"><ele>316.0</ele><time>2026-04-19T15:25:33.067Z</time></trkpt><trkpt lat="43.33985611317052" lon="12.942000797499341"><ele>313.5</ele><time>2026-04-19T15:25:34.068Z</time></trkpt><trkpt lat="43.339977763501054" lon="12.9423623755349"><ele>311.0</ele><time>2026-04-19T15:25:35.068Z</time></trkpt><trkpt lat="43.340730623680095" lon="12.944317124907927"><ele>302.0</ele><time>2026-04-19T15:25:40.998Z</time></trkpt><trkpt lat="43.34086025457419" lon="12.944655912400322"><ele>293.0</ele><time>2026-04-19T15:25:41.998Z</time></trkpt><trkpt lat="43.340978716300675" lon="12.944977916215809"><ele>300.0</ele><time>2026-04-19T15:25:42.998Z</time></trkpt><trkpt lat="43.341106955920104" lon="12.945307609724255"><ele>307.0</ele><time>2026-04-19T15:25:43.998Z</time></trkpt><trkpt lat="43.34123132731579" lon="12.94564593042445"><ele>282.0</ele><time>2026-04-19T15:25:44.998Z</time></trkpt><trkpt lat="43.341457174576945" lon="12.946322505155464"><ele>282.0</ele><time>2026-04-19T15:25:46.998Z</time></trkpt><trkpt lat="43.34157354420471" lon="12.946662163286947"><ele>282.0</ele><time>2026-04-19T15:25:47.998Z</time></trkpt><trkpt lat="43.34163558041674" lon="12.947023039607158"><ele>279.0</ele><time>2026-04-19T15:25:48.998Z</time></trkpt><trkpt lat="43.34171483499409" lon="12.947356767344083"><ele>276.0</ele><time>2026-04-19T15:25:49.998Z</time></trkpt><trkpt lat="43.341803786028656" lon="12.94769550969635"><ele>275.5</ele><time>2026-04-19T15:25:50.998Z</time></trkpt><trkpt lat="43.34188929069294" lon="12.948035286081378"><ele>275.0</ele><time>2026-04-19T15:25:51.998Z</time></trkpt><trkpt lat="43.34199469367741" lon="12.948356935295482"><ele>274.5</ele><time>2026-04-19T15:25:52.998Z</time></trkpt><trkpt lat="43.34208111998362" lon="12.948675246376407"><ele>274.0</ele><time>2026-04-19T15:25:53.998Z</time></trkpt><trkpt lat="43.342163956419405" lon="12.948983346452977"><ele>272.66666666666663</ele><time>2026-04-19T15:25:55Z</time></trkpt><trkpt lat="43.342238203428124" lon="12.949279066846398"><ele>271.3333333333333</ele><time>2026-04-19T15:25:56Z</time></trkpt><trkpt lat="43.34230747266074" lon="12.949552202686489"><ele>270.0</ele><time>2026-04-19T15:25:57Z</time></trkpt><trkpt lat="43.34237025914197" lon="12.949809012233517"><ele>270.0</ele><time>2026-04-19T15:25:58Z</time></trkpt><trkpt lat="43.34243175617968" lon="12.950041496429973"><ele>270.0</ele><time>2026-04-19T15:25:59Z</time></trkpt><trkpt lat="43.34249018709787" lon="12.95025839461355"><ele>270.0</ele><time>2026-04-19T15:26:00Z</time></trkpt><trkpt lat="43.342545140313526" lon="12.95045654540447"><ele>270.0</ele><time>2026-04-19T15:26:01Z</time></trkpt><trkpt lat="43.34260022713036" lon="12.950643005188272"><ele>270.0</ele><time>2026-04-19T15:26:02Z</time></trkpt><trkpt lat="43.34264407765078" lon="12.950821555981403"><ele>270.0</ele><time>2026-04-19T15:26:03Z</time></trkpt><trkpt lat="43.34267656636838" lon="12.950975820822343"><ele>270.0</ele><time>2026-04-19T15:26:04Z</time></trkpt><trkpt lat="43.34269253410002" lon="12.951116816309094"><ele>269.4</ele><time>2026-04-19T15:26:05Z</time></trkpt><trkpt lat="43.34268472358554" lon="12.951241631867692"><ele>268.8</ele><time>2026-04-19T15:26:06Z</time></trkpt><trkpt lat="43.34264970609667" lon="12.951364417632679"><ele>268.2</ele><time>2026-04-19T15:26:07Z</time></trkpt><trkpt lat="43.34259234013254" lon="12.951478513499112"><ele>267.6</ele><time>2026-04-19T15:26:08Z</time></trkpt><trkpt lat="43.34252060485821" lon="12.951578988303728"><ele>267.0</ele><time>2026-04-19T15:26:09Z</time></trkpt><trkpt lat="43.34241957904433" lon="12.9516488711163"><ele>267.0</ele><time>2026-04-19T15:26:10Z</time></trkpt><trkpt lat="43.342340252717854" lon="12.95173947092959"><ele>267.0</ele><time>2026-04-19T15:26:11Z</time></trkpt><trkpt lat="43.34222930210679" lon="12.951753458379104"><ele>267.0</ele><time>2026-04-19T15:26:12Z</time></trkpt><trkpt lat="43.342131486449084" lon="12.951812817068664"><ele>267.0</ele><time>2026-04-19T15:26:13Z</time></trkpt><trkpt lat="43.342038976508874" lon="12.951881198596084"><ele>267.0</ele><time>2026-04-19T15:26:14Z</time></trkpt><trkpt lat="43.34197323337689" lon="12.951988128699881"><ele>266.8</ele><time>2026-04-19T15:26:15Z</time></trkpt><trkpt lat="43.34192290177606" lon="12.952120457370057"><ele>266.6</ele><time>2026-04-19T15:26:16Z</time></trkpt><trkpt lat="43.3418803636476" lon="12.952262775946767"><ele>266.40000000000003</ele><time>2026-04-19T15:26:17Z</time></trkpt><trkpt lat="43.341851526636134" lon="12.95241379593028"><ele>266.2</ele><time>2026-04-19T15:26:18Z</time></trkpt><trkpt lat="43.34184069584275" lon="12.952569748878144"><ele>266.0</ele><time>2026-04-19T15:26:19Z</time></trkpt><trkpt lat="43.3418552976202" lon="12.952721936285986"><ele>265.75</ele><time>2026-04-19T15:26:20Z</time></trkpt><trkpt lat="43.34189973389324" lon="12.952863360479391"><ele>265.5</ele><time>2026-04-19T15:26:21Z</time></trkpt><trkpt lat="43.341964465402576" lon="12.952986227968239"><ele>265.25</ele><time>2026-04-19T15:26:22Z</time></trkpt><trkpt lat="43.34205493873196" lon="12.95308827635157"><ele>265.0</ele><time>2026-04-19T15:26:23Z</time></trkpt><trkpt lat="43.34215385463915" lon="12.953179352591157"><ele>265.0</ele><time>2026-04-19T15:26:24Z</time></trkpt><trkpt lat="43.342264130949445" lon="12.953264832394936"><ele>265.0</ele><time>2026-04-19T15:26:25Z</time></trkpt><trkpt lat="43.34237384435332" lon="12.953359927158713"><ele>265.0</ele><time>2026-04-19T15:26:26Z</time></trkpt><trkpt lat="43.34247409801291" lon="12.95348412968755"><ele>265.0</ele><time>2026-04-19T15:26:27Z</time></trkpt><trkpt lat="43.34256266536983" lon="12.953633634598848"><ele>264.5</ele><time>2026-04-19T15:26:28Z</time></trkpt><trkpt lat="43.34264468708028" lon="12.953798016806637"><ele>264.0</ele><time>2026-04-19T15:26:29Z</time></trkpt><trkpt lat="43.34270368232078" lon="12.953977182335294"><ele>263.5</ele><time>2026-04-19T15:26:30Z</time></trkpt><trkpt lat="43.34278087125344" lon="12.954139119330565"><ele>263.0</ele><time>2026-04-19T15:26:31Z</time></trkpt><trkpt lat="43.342836192564214" lon="12.954318473074395"><ele>262.5</ele><time>2026-04-19T15:26:32Z</time></trkpt><trkpt lat="43.342894939833805" lon="12.954499838461599"><ele>262.0</ele><time>2026-04-19T15:26:33Z</time></trkpt><trkpt lat="43.34296229694208" lon="12.954668809113869"><ele>261.5</ele><time>2026-04-19T15:26:34Z</time></trkpt><trkpt lat="43.343041297501614" lon="12.954809904828537"><ele>261.0</ele><time>2026-04-19T15:26:35Z</time></trkpt><trkpt lat="43.343141819845215" lon="12.954908453534053"><ele>260.0</ele><time>2026-04-19T15:26:36Z</time></trkpt><trkpt lat="43.343252889303585" lon="12.954973644578272"><ele>259.0</ele><time>2026-04-19T15:26:37Z</time></trkpt><trkpt lat="43.3433705060073" lon="12.955003549620628"><ele>258.0</ele><time>2026-04-19T15:26:38Z</time></trkpt><trkpt lat="43.34348914344374" lon="12.954997523269093"><ele>257.0</ele><time>2026-04-19T15:26:39Z</time></trkpt><trkpt lat="43.343606291955126" lon="12.954962962061412"><ele>257.0</ele><time>2026-04-19T15:26:39.999Z</time></trkpt><trkpt lat="43.34371423427672" lon="12.95491113368427"><ele>257.0</ele><time>2026-04-19T15:26:40.999Z</time></trkpt><trkpt lat="43.3438152594481" lon="12.954845728042628"><ele>257.0</ele><time>2026-04-19T15:26:41.999Z</time></trkpt><trkpt lat="43.34392409206433" lon="12.954773609766276"><ele>257.0</ele><time>2026-04-19T15:26:42.999Z</time></trkpt><trkpt lat="43.344034080225136" lon="12.954694585028827"><ele>256.8</ele><time>2026-04-19T15:26:43.999Z</time></trkpt><trkpt lat="43.34409398987086" lon="12.95460048504609"><ele>256.6</ele><time>2026-04-19T15:26:44.999Z</time></trkpt><trkpt lat="43.34416024436389" lon="12.9545696859212"><ele>256.40000000000003</ele><time>2026-04-19T15:26:45.999Z</time></trkpt><trkpt lat="43.34426162246152" lon="12.954560448481317"><ele>256.2</ele><time>2026-04-19T15:26:47.999Z</time></trkpt><trkpt lat="43.34438149796039" lon="12.95463022887965"><ele>256.0</ele><time>2026-04-19T15:26:49.999Z</time></trkpt><trkpt lat="43.34445252662242" lon="12.954663608539624"><ele>256.0</ele><time>2026-04-19T15:26:50.999Z</time></trkpt><trkpt lat="43.34453331455575" lon="12.954682480690284"><ele>256.0</ele><time>2026-04-19T15:26:51.999Z</time></trkpt><trkpt lat="43.3446202284229" lon="12.954687533812878"><ele>256.0</ele><time>2026-04-19T15:26:52.999Z</time></trkpt><trkpt lat="43.34471280268889" lon="12.954675505564275"><ele>256.0</ele><time>2026-04-19T15:26:53.999Z</time></trkpt><trkpt lat="43.34480498408909" lon="12.954654536112677"><ele>256.0</ele><time>2026-04-19T15:26:54.999Z</time></trkpt><trkpt lat="43.344889812230434" lon="12.95459230249366"><ele>255.83333333333331</ele><time>2026-04-19T15:26:55.999Z</time></trkpt><trkpt lat="43.34495998135986" lon="12.95454345698585"><ele>255.66666666666666</ele><time>2026-04-19T15:26:56.999Z</time></trkpt><trkpt lat="43.34505204080379" lon="12.954566908247251"><ele>255.5</ele><time>2026-04-19T15:26:57.999Z</time></trkpt><trkpt lat="43.34511952995817" lon="12.954572362150685"><ele>255.33333333333331</ele><time>2026-04-19T15:26:58.999Z</time></trkpt><trkpt lat="43.345222157991486" lon="12.954669400311985"><ele>255.16666666666666</ele><time>2026-04-19T15:27:00.999Z</time></trkpt><trkpt lat="43.34525850214093" lon="12.954751385737612"><ele>255.0</ele><time>2026-04-19T15:27:01.999Z</time></trkpt><trkpt lat="43.34528600706269" lon="12.95484507796329"><ele>255.0</ele><time>2026-04-19T15:27:02.999Z</time></trkpt><trkpt lat="43.34530174200408" lon="12.954947477485854"><ele>255.0</ele><time>2026-04-19T15:27:03.999Z</time></trkpt><trkpt lat="43.34530843911496" lon="12.95505615175509"><ele>255.0</ele><time>2026-04-19T15:27:04.999Z</time></trkpt><trkpt lat="43.3453004603842" lon="12.955165702107319"><ele>255.0</ele><time>2026-04-19T15:27:05.999Z</time></trkpt><trkpt lat="43.34527103821188" lon="12.955273810749398"><ele>255.0</ele><time>2026-04-19T15:27:06.999Z</time></trkpt><trkpt lat="43.34521672978178" lon="12.955374472627504"><ele>255.0</ele><time>2026-04-19T15:27:07.999Z</time></trkpt><trkpt lat="43.3451595200031" lon="12.955473070463452"><ele>254.83333333333334</ele><time>2026-04-19T15:27:08.999Z</time></trkpt><trkpt lat="43.34509514913344" lon="12.955562526275669"><ele>254.66666666666669</ele><time>2026-04-19T15:27:09.999Z</time></trkpt><trkpt lat="43.345022542402006" lon="12.955624050421045"><ele>254.5</ele><time>2026-04-19T15:27:10.999Z</time></trkpt><trkpt lat="43.34494556739492" lon="12.955653053173938"><ele>254.33333333333334</ele><time>2026-04-19T15:27:11.999Z</time></trkpt><trkpt lat="43.3448674188237" lon="12.955653926943379"><ele>254.16666666666669</ele><time>2026-04-19T15:27:12.999Z</time></trkpt><trkpt lat="43.34478650758427" lon="12.95562427088317"><ele>254.0</ele><time>2026-04-19T15:27:13.999Z</time></trkpt><trkpt lat="43.3447021980324" lon="12.955584989955314"><ele>253.79999999999998</ele><time>2026-04-19T15:27:14.999Z</time></trkpt><trkpt lat="43.344611064568234" lon="12.955557857338093"><ele>253.59999999999997</ele><time>2026-04-19T15:27:15.999Z</time></trkpt><trkpt lat="43.34452112813461" lon="12.955559186294082"><ele>253.4</ele><time>2026-04-19T15:27:16.999Z</time></trkpt><trkpt lat="43.34443597943123" lon="12.955602390829114"><ele>253.2</ele><time>2026-04-19T15:27:17.999Z</time></trkpt><trkpt lat="43.34436606474073" lon="12.955682070599082"><ele>253.0</ele><time>2026-04-19T15:27:18.999Z</time></trkpt><trkpt lat="43.3443070879716" lon="12.955777406919584"><ele>252.60000000000002</ele><time>2026-04-19T15:27:19.999Z</time></trkpt><trkpt lat="43.34426739617209" lon="12.955901285113237"><ele>252.20000000000002</ele><time>2026-04-19T15:27:20.999Z</time></trkpt><trkpt lat="43.34423862169938" lon="12.956040608021986"><ele>251.8</ele><time>2026-04-19T15:27:21.999Z</time></trkpt><trkpt lat="43.344219667663104" lon="12.956173261941416"><ele>251.4</ele><time>2026-04-19T15:27:22.999Z</time></trkpt><trkpt lat="43.34418534453377" lon="12.956306498061997"><ele>251.0</ele><time>2026-04-19T15:27:23.999Z</time></trkpt><trkpt lat="43.344121194163456" lon="12.956427891509222"><ele>251.0</ele><time>2026-04-19T15:27:24.999Z</time></trkpt><trkpt lat="43.34403361957141" lon="12.95653472405301"><ele>251.0</ele><time>2026-04-19T15:27:25.999Z</time></trkpt><trkpt lat="43.343929231016745" lon="12.956635713946637"><ele>251.0</ele><time>2026-04-19T15:27:26.999Z</time></trkpt><trkpt lat="43.343798879644794" lon="12.956746319038592"><ele>251.0</ele><time>2026-04-19T15:27:27.999Z</time></trkpt><trkpt lat="43.34366373239852" lon="12.956858908648664"><ele>251.0</ele><time>2026-04-19T15:27:28.999Z</time></trkpt><trkpt lat="43.34353972410936" lon="12.956971138830163"><ele>251.0</ele><time>2026-04-19T15:27:29.999Z</time></trkpt><trkpt lat="43.343421196283586" lon="12.957081364855888"><ele>251.0</ele><time>2026-04-19T15:27:30.999Z</time></trkpt><trkpt lat="43.34330898992469" lon="12.957189641741218"><ele>251.0</ele><time>2026-04-19T15:27:31.999Z</time></trkpt><trkpt lat="43.343194956399415" lon="12.957295508627825"><ele>251.0</ele><time>2026-04-19T15:27:32.999Z</time></trkpt><trkpt lat="43.343067433917355" lon="12.957410491373974"><ele>251.0</ele><time>2026-04-19T15:27:33.999Z</time></trkpt><trkpt lat="43.342921404268864" lon="12.957547504597947"><ele>251.0</ele><time>2026-04-19T15:27:34.999Z</time></trkpt><trkpt lat="43.34274799054163" lon="12.957687535981787"><ele>250.5</ele><time>2026-04-19T15:27:35.999Z</time></trkpt><trkpt lat="43.34256599770125" lon="12.957852728978704"><ele>250.0</ele><time>2026-04-19T15:27:36.999Z</time></trkpt><trkpt lat="43.34236661170122" lon="12.95803387555126"><ele>250.0</ele><time>2026-04-19T15:27:37.999Z</time></trkpt><trkpt lat="43.342171065908616" lon="12.958211533189383"><ele>250.0</ele><time>2026-04-19T15:27:38.999Z</time></trkpt><trkpt lat="43.34197617686522" lon="12.958388594181264"><ele>250.0</ele><time>2026-04-19T15:27:39.999Z</time></trkpt><trkpt lat="43.34177377564683" lon="12.958584554139634"><ele>250.0</ele><time>2026-04-19T15:27:40.999Z</time></trkpt><trkpt lat="43.341573393108966" lon="12.958761039799231"><ele>252.0</ele><time>2026-04-19T15:27:41.999Z</time></trkpt><trkpt lat="43.3413785145742" lon="12.9589376196527"><ele>254.0</ele><time>2026-04-19T15:27:42.999Z</time></trkpt><trkpt lat="43.34118774052066" lon="12.959117947247051"><ele>253.0</ele><time>2026-04-19T15:27:43.999Z</time></trkpt><trkpt lat="43.34099877390951" lon="12.959296296811406"><ele>252.0</ele><time>2026-04-19T15:27:44.999Z</time></trkpt><trkpt lat="43.340812618435564" lon="12.9594821457417"><ele>252.0</ele><time>2026-04-19T15:27:45.999Z</time></trkpt><trkpt lat="43.340630850877076" lon="12.95967975726367"><ele>252.0</ele><time>2026-04-19T15:27:46.999Z</time></trkpt><trkpt lat="43.340460132277876" lon="12.959891322715324"><ele>251.5</ele><time>2026-04-19T15:27:47.999Z</time></trkpt><trkpt lat="43.340297674240546" lon="12.960119385155755"><ele>251.0</ele><time>2026-04-19T15:27:48.999Z</time></trkpt><trkpt lat="43.34014118883724" lon="12.960361136294463"><ele>251.0</ele><time>2026-04-19T15:27:49.999Z</time></trkpt><trkpt lat="43.33999614534778" lon="12.96061309245349"><ele>251.0</ele><time>2026-04-19T15:27:50.999Z</time></trkpt><trkpt lat="43.3398570882259" lon="12.960874145403883"><ele>250.5</ele><time>2026-04-19T15:27:51.998Z</time></trkpt><trkpt lat="43.33972585222436" lon="12.961138459339926"><ele>250.0</ele><time>2026-04-19T15:27:52.998Z</time></trkpt><trkpt lat="43.33959794780549" lon="12.961406227313322"><ele>249.0</ele><time>2026-04-19T15:27:53.998Z</time></trkpt><trkpt lat="43.33946798300368" lon="12.961668770870919"><ele>248.0</ele><time>2026-04-19T15:27:54.998Z</time></trkpt><trkpt lat="43.33933159623807" lon="12.961924366499105"><ele>248.0</ele><time>2026-04-19T15:27:55.998Z</time></trkpt><trkpt lat="43.33918480633039" lon="12.962171377333355"><ele>248.0</ele><time>2026-04-19T15:27:56.998Z</time></trkpt><trkpt lat="43.33902715203837" lon="12.962405527957602"><ele>249.0</ele><time>2026-04-19T15:27:57.998Z</time></trkpt><trkpt lat="43.338856982605336" lon="12.962625028527384"><ele>250.0</ele><time>2026-04-19T15:27:58.998Z</time></trkpt><trkpt lat="43.338675621229115" lon="12.962829436059453"><ele>250.0</ele><time>2026-04-19T15:27:59.998Z</time></trkpt><trkpt lat="43.33848630237395" lon="12.963019115239405"><ele>250.0</ele><time>2026-04-19T15:28:01Z</time></trkpt><trkpt lat="43.3382893642735" lon="12.963191989375076"><ele>250.0</ele><time>2026-04-19T15:28:02Z</time></trkpt><trkpt lat="43.33808559309168" lon="12.963346866188854"><ele>250.0</ele><time>2026-04-19T15:28:03Z</time></trkpt><trkpt lat="43.33787580518923" lon="12.963479338868098"><ele>249.5</ele><time>2026-04-19T15:28:04Z</time></trkpt><trkpt lat="43.33765894577071" lon="12.963596649158651"><ele>249.0</ele><time>2026-04-19T15:28:05Z</time></trkpt><trkpt lat="43.337437000054436" lon="12.963691315103615"><ele>255.5</ele><time>2026-04-19T15:28:06Z</time></trkpt><trkpt lat="43.3372110445879" lon="12.96376567997238"><ele>262.0</ele><time>2026-04-19T15:28:07Z</time></trkpt><trkpt lat="43.33698012338148" lon="12.963820630238622"><ele>262.0</ele><time>2026-04-19T15:28:08Z</time></trkpt><trkpt lat="43.33674979994149" lon="12.963861487602495"><ele>262.0</ele><time>2026-04-19T15:28:09Z</time></trkpt><trkpt lat="43.33651778917114" lon="12.963883087454597"><ele>263.5</ele><time>2026-04-19T15:28:10Z</time></trkpt><trkpt lat="43.33628741548247" lon="12.96389334169719"><ele>265.0</ele><time>2026-04-19T15:28:11Z</time></trkpt><trkpt lat="43.33605149432746" lon="12.963902900465232"><ele>265.0</ele><time>2026-04-19T15:28:12Z</time></trkpt><trkpt lat="43.33581895594856" lon="12.963911446715358"><ele>265.0</ele><time>2026-04-19T15:28:13Z</time></trkpt><trkpt lat="43.335586199110985" lon="12.96392573113508"><ele>262.0</ele><time>2026-04-19T15:28:14Z</time></trkpt><trkpt lat="43.33535441743625" lon="12.96394333518658"><ele>259.0</ele><time>2026-04-19T15:28:15Z</time></trkpt><trkpt lat="43.33512431125198" lon="12.963962942943443"><ele>259.0</ele><time>2026-04-19T15:28:16Z</time></trkpt><trkpt lat="43.33489025296629" lon="12.96398550365799"><ele>259.0</ele><time>2026-04-19T15:28:17Z</time></trkpt><trkpt lat="43.33465646427379" lon="12.964016732648197"><ele>257.5</ele><time>2026-04-19T15:28:18Z</time></trkpt><trkpt lat="43.33442553895907" lon="12.964058866307848"><ele>256.0</ele><time>2026-04-19T15:28:19Z</time></trkpt><trkpt lat="43.33419560514859" lon="12.964112332917338"><ele>256.0</ele><time>2026-04-19T15:28:20Z</time></trkpt><trkpt lat="43.33396865004681" lon="12.964177226031953"><ele>256.0</ele><time>2026-04-19T15:28:21Z</time></trkpt><trkpt lat="43.33374233444492" lon="12.96425168427318"><ele>260.5</ele><time>2026-04-19T15:28:22Z</time></trkpt><trkpt lat="43.33351927376443" lon="12.964335039921467"><ele>265.0</ele><time>2026-04-19T15:28:23Z</time></trkpt><trkpt lat="43.33329229244861" lon="12.964407276043463"><ele>265.0</ele><time>2026-04-19T15:28:24Z</time></trkpt><trkpt lat="43.333066956775674" lon="12.964479553574856"><ele>265.0</ele><time>2026-04-19T15:28:25Z</time></trkpt><trkpt lat="43.33285474336872" lon="12.964637401563703"><ele>270.5</ele><time>2026-04-19T15:28:26Z</time></trkpt><trkpt lat="43.33263836903317" lon="12.964746998238441"><ele>276.0</ele><time>2026-04-19T15:28:27Z</time></trkpt><trkpt lat="43.332420920634235" lon="12.964866575289836"><ele>281.5</ele><time>2026-04-19T15:28:28Z</time></trkpt><trkpt lat="43.33221125997489" lon="12.964999183336358"><ele>287.0</ele><time>2026-04-19T15:28:29Z</time></trkpt><trkpt lat="43.33199986577588" lon="12.96514006806709"><ele>293.5</ele><time>2026-04-19T15:28:30Z</time></trkpt><trkpt lat="43.33179003430453" lon="12.965288494040031"><ele>300.0</ele><time>2026-04-19T15:28:31Z</time></trkpt><trkpt lat="43.331581734936975" lon="12.965437812201948"><ele>300.5</ele><time>2026-04-19T15:28:32Z</time></trkpt><trkpt lat="43.3313757477447" lon="12.965587934283302"><ele>301.0</ele><time>2026-04-19T15:28:33Z</time></trkpt><trkpt lat="43.331171361933734" lon="12.96574301544275"><ele>306.5</ele><time>2026-04-19T15:28:34Z</time></trkpt><trkpt lat="43.3309687083693" lon="12.965902591252087"><ele>312.0</ele><time>2026-04-19T15:28:35Z</time></trkpt><trkpt lat="43.33075584512191" lon="12.96608043292854"><ele>315.5</ele><time>2026-04-19T15:28:36.061Z</time></trkpt><trkpt lat="43.330557022718374" lon="12.966251468314121"><ele>319.0</ele><time>2026-04-19T15:28:37.059Z</time></trkpt><trkpt lat="43.330358679000106" lon="12.96642476541621"><ele>277.0</ele><time>2026-04-19T15:28:38.057Z</time></trkpt><trkpt lat="43.32540188412246" lon="12.972133061368183"><ele>277.0</ele><time>2026-04-19T15:29:05.999Z</time></trkpt><trkpt lat="43.325185930612456" lon="12.97224856308857"><ele>277.0</ele><time>2026-04-19T15:29:06.999Z</time></trkpt><trkpt lat="43.325002688679305" lon="12.972346849633235"><ele>277.0</ele><time>2026-04-19T15:29:07.999Z</time></trkpt><trkpt lat="43.324776060466235" lon="12.972434303794186"><ele>278.5</ele><time>2026-04-19T15:29:08.999Z</time></trkpt><trkpt lat="43.32455192573783" lon="12.972510733615495"><ele>280.0</ele><time>2026-04-19T15:29:09.999Z</time></trkpt><trkpt lat="43.32432534175853" lon="12.972577465689666"><ele>280.5</ele><time>2026-04-19T15:29:10.999Z</time></trkpt><trkpt lat="43.324098815850014" lon="12.972633949451216"><ele>281.0</ele><time>2026-04-19T15:29:11.999Z</time></trkpt><trkpt lat="43.32387146457925" lon="12.972680785002371"><ele>281.0</ele><time>2026-04-19T15:29:12.999Z</time></trkpt><trkpt lat="43.32364240358967" lon="12.972727775989819"><ele>281.0</ele><time>2026-04-19T15:29:13.999Z</time></trkpt><trkpt lat="43.32341063845061" lon="12.972771285136048"><ele>281.0</ele><time>2026-04-19T15:29:14.999Z</time></trkpt><trkpt lat="43.32317909815277" lon="12.97281022967996"><ele>281.0</ele><time>2026-04-19T15:29:15.999Z</time></trkpt><trkpt lat="43.322948382633946" lon="12.97284998696694"><ele>281.5</ele><time>2026-04-19T15:29:16.999Z</time></trkpt><trkpt lat="43.32271929295531" lon="12.97288763557195"><ele>282.0</ele><time>2026-04-19T15:29:17.999Z</time></trkpt><trkpt lat="43.3224885682344" lon="12.97292233270745"><ele>282.0</ele><time>2026-04-19T15:29:18.999Z</time></trkpt><trkpt lat="43.32225551133349" lon="12.972957193980017"><ele>282.0</ele><time>2026-04-19T15:29:19.999Z</time></trkpt><trkpt lat="43.32202384678866" lon="12.972993746077872"><ele>283.0</ele><time>2026-04-19T15:29:20.999Z</time></trkpt><trkpt lat="43.321792854838755" lon="12.973030837097093"><ele>284.0</ele><time>2026-04-19T15:29:21.999Z</time></trkpt><trkpt lat="43.321561712088" lon="12.973067710745937"><ele>284.5</ele><time>2026-04-19T15:29:22.999Z</time></trkpt><trkpt lat="43.32133008128198" lon="12.973106198972316"><ele>285.0</ele><time>2026-04-19T15:29:23.999Z</time></trkpt><trkpt lat="43.32109557551083" lon="12.973142389793939"><ele>285.0</ele><time>2026-04-19T15:29:24.999Z</time></trkpt><trkpt lat="43.320862900509006" lon="12.973175972903237"><ele>285.0</ele><time>2026-04-19T15:29:25.999Z</time></trkpt><trkpt lat="43.3206298811401" lon="12.973208588036371"><ele>284.5</ele><time>2026-04-19T15:29:26.999Z</time></trkpt><trkpt lat="43.32039023630865" lon="12.973232065979602"><ele>284.0</ele><time>2026-04-19T15:29:27.999Z</time></trkpt><trkpt lat="43.32017144449304" lon="12.97328286638231"><ele>284.0</ele><time>2026-04-19T15:29:28.999Z</time></trkpt><trkpt lat="43.31993673889173" lon="12.973317226402182"><ele>284.0</ele><time>2026-04-19T15:29:29.999Z</time></trkpt><trkpt lat="43.319706289979955" lon="12.973351614002517"><ele>280.0</ele><time>2026-04-19T15:29:30.999Z</time></trkpt><trkpt lat="43.31947208559319" lon="12.973388787362614"><ele>276.0</ele><time>2026-04-19T15:29:31.999Z</time></trkpt><trkpt lat="43.31924005901709" lon="12.973425376496197"><ele>276.0</ele><time>2026-04-19T15:29:32.999Z</time></trkpt><trkpt lat="43.319009200358884" lon="12.97346296707693"><ele>276.0</ele><time>2026-04-19T15:29:33.999Z</time></trkpt><trkpt lat="43.318772701498375" lon="12.973512652141357"><ele>275.5</ele><time>2026-04-19T15:29:34.999Z</time></trkpt><trkpt lat="43.31853080348059" lon="12.973539811931222"><ele>275.0</ele><time>2026-04-19T15:29:35.999Z</time></trkpt><trkpt lat="43.31828325069089" lon="12.973577867599078"><ele>275.5</ele><time>2026-04-19T15:29:36.999Z</time></trkpt><trkpt lat="43.318032178852626" lon="12.973616281407132"><ele>276.0</ele><time>2026-04-19T15:29:37.999Z</time></trkpt><trkpt lat="43.31770158791417" lon="12.97368769812922"><ele>276.0</ele><time>2026-04-19T15:29:38.999Z</time></trkpt><trkpt lat="43.317404905846026" lon="12.973711308212026"><ele>276.0</ele><time>2026-04-19T15:29:39.999Z</time></trkpt><trkpt lat="43.31710377216595" lon="12.9737563167421"><ele>274.0</ele><time>2026-04-19T15:29:40.999Z</time></trkpt><trkpt lat="43.31679127227891" lon="12.9738047030606"><ele>272.0</ele><time>2026-04-19T15:29:41.999Z</time></trkpt><trkpt lat="43.31647380531929" lon="12.973854068636127"><ele>271.0</ele><time>2026-04-19T15:29:42.999Z</time></trkpt><trkpt lat="43.316149244343194" lon="12.973904526135732"><ele>270.0</ele><time>2026-04-19T15:29:43.999Z</time></trkpt><trkpt lat="43.31582274122453" lon="12.973955287567133"><ele>271.0</ele><time>2026-04-19T15:29:44.999Z</time></trkpt><trkpt lat="43.31549254976936" lon="12.974006620668883"><ele>272.0</ele><time>2026-04-19T15:29:45.999Z</time></trkpt><trkpt lat="43.31516758244469" lon="12.974056045124179"><ele>272.0</ele><time>2026-04-19T15:29:46.998Z</time></trkpt><trkpt lat="43.31483976346355" lon="12.974108299480909"><ele>272.0</ele><time>2026-04-19T15:29:47.998Z</time></trkpt><trkpt lat="43.314510390020246" lon="12.974161412151245"><ele>273.5</ele><time>2026-04-19T15:29:48.998Z</time></trkpt><trkpt lat="43.31418262573473" lon="12.974214239547688"><ele>275.0</ele><time>2026-04-19T15:29:49.998Z</time></trkpt><trkpt lat="43.31386140441001" lon="12.974276017141685"><ele>275.5</ele><time>2026-04-19T15:29:50.998Z</time></trkpt><trkpt lat="43.313547630395654" lon="12.974311723878948"><ele>276.0</ele><time>2026-04-19T15:29:51.998Z</time></trkpt><trkpt lat="43.31324445283307" lon="12.974349946597332"><ele>275.5</ele><time>2026-04-19T15:29:52.998Z</time></trkpt><trkpt lat="43.312941624379995" lon="12.97439578205537"><ele>275.0</ele><time>2026-04-19T15:29:53.998Z</time></trkpt><trkpt lat="43.31264395113792" lon="12.974442489759644"><ele>275.0</ele><time>2026-04-19T15:29:54.998Z</time></trkpt><trkpt lat="43.31234979079603" lon="12.974488165692978"><ele>275.0</ele><time>2026-04-19T15:29:55.998Z</time></trkpt><trkpt lat="43.312065500792556" lon="12.974540696451994"><ele>275.0</ele><time>2026-04-19T15:29:56.998Z</time></trkpt><trkpt lat="43.311785606521305" lon="12.9745972549105"><ele>275.0</ele><time>2026-04-19T15:29:57.998Z</time></trkpt><trkpt lat="43.31150961016328" lon="12.974652658087173"><ele>275.0</ele><time>2026-04-19T15:29:58.998Z</time></trkpt><trkpt lat="43.311244101362725" lon="12.974705284482388"><ele>275.0</ele><time>2026-04-19T15:29:59.998Z</time></trkpt><trkpt lat="43.3109916318465" lon="12.974752384316679"><ele>275.0</ele><time>2026-04-19T15:30:00.998Z</time></trkpt><trkpt lat="43.31074130848993" lon="12.974803168475905"><ele>275.0</ele><time>2026-04-19T15:30:01.998Z</time></trkpt><trkpt lat="43.31048972914978" lon="12.974857857729148"><ele>275.5</ele><time>2026-04-19T15:30:02.998Z</time></trkpt><trkpt lat="43.31023410207944" lon="12.974915569004438"><ele>276.0</ele><time>2026-04-19T15:30:03.998Z</time></trkpt><trkpt lat="43.30997688320812" lon="12.974979260347327"><ele>275.0</ele><time>2026-04-19T15:30:04.998Z</time></trkpt><trkpt lat="43.30972000566997" lon="12.975050979629607"><ele>274.0</ele><time>2026-04-19T15:30:06Z</time></trkpt><trkpt lat="43.30945969640387" lon="12.975130785975823"><ele>274.0</ele><time>2026-04-19T15:30:07Z</time></trkpt><trkpt lat="43.30920104666133" lon="12.975211812989205"><ele>274.0</ele><time>2026-04-19T15:30:08Z</time></trkpt><trkpt lat="43.3089415326106" lon="12.975297361979619"><ele>276.0</ele><time>2026-04-19T15:30:09Z</time></trkpt><trkpt lat="43.308682079044566" lon="12.975385419958007"><ele>278.0</ele><time>2026-04-19T15:30:10Z</time></trkpt><trkpt lat="43.3084195115378" lon="12.975475221062773"><ele>278.0</ele><time>2026-04-19T15:30:11Z</time></trkpt><trkpt lat="43.30815583955716" lon="12.975566254259828"><ele>278.0</ele><time>2026-04-19T15:30:12Z</time></trkpt><trkpt lat="43.307891303884546" lon="12.97565860660426"><ele>279.0</ele><time>2026-04-19T15:30:13Z</time></trkpt><trkpt lat="43.307624247567915" lon="12.975754423694648"><ele>280.0</ele><time>2026-04-19T15:30:14Z</time></trkpt><trkpt lat="43.30735798215824" lon="12.975852223331879"><ele>276.5</ele><time>2026-04-19T15:30:15Z</time></trkpt><trkpt lat="43.30708901450096" lon="12.97595159262042"><ele>273.0</ele><time>2026-04-19T15:30:16Z</time></trkpt><trkpt lat="43.30681533607349" lon="12.976053064886528"><ele>273.0</ele><time>2026-04-19T15:30:17Z</time></trkpt><trkpt lat="43.30654205970135" lon="12.97615552482737"><ele>273.0</ele><time>2026-04-19T15:30:18Z</time></trkpt><trkpt lat="43.306265576490354" lon="12.976258537171079"><ele>275.5</ele><time>2026-04-19T15:30:19Z</time></trkpt><trkpt lat="43.30598784431686" lon="12.976359650860061"><ele>278.0</ele><time>2026-04-19T15:30:20Z</time></trkpt><trkpt lat="43.30570885881396" lon="12.976463597024502"><ele>283.5</ele><time>2026-04-19T15:30:21Z</time></trkpt><trkpt lat="43.30543239661192" lon="12.976563853864368"><ele>289.0</ele><time>2026-04-19T15:30:22Z</time></trkpt><trkpt lat="43.30515377146625" lon="12.976670874223027"><ele>286.0</ele><time>2026-04-19T15:30:23Z</time></trkpt><trkpt lat="43.304878866090796" lon="12.976772473061246"><ele>283.0</ele><time>2026-04-19T15:30:24Z</time></trkpt><trkpt lat="43.304599564785946" lon="12.97687882107123"><ele>283.0</ele><time>2026-04-19T15:30:25Z</time></trkpt><trkpt lat="43.30432162562962" lon="12.976983816111538"><ele>283.0</ele><time>2026-04-19T15:30:26Z</time></trkpt><trkpt lat="43.30404135987479" lon="12.977082496399552"><ele>284.5</ele><time>2026-04-19T15:30:27Z</time></trkpt><trkpt lat="43.30376360807475" lon="12.977188814132536"><ele>286.0</ele><time>2026-04-19T15:30:28Z</time></trkpt><trkpt lat="43.303481315615585" lon="12.977295844813158"><ele>286.0</ele><time>2026-04-19T15:30:29Z</time></trkpt><trkpt lat="43.303198613160895" lon="12.977402109714353"><ele>286.0</ele><time>2026-04-19T15:30:30Z</time></trkpt><trkpt lat="43.30291631525683" lon="12.977509602295422"><ele>283.0</ele><time>2026-04-19T15:30:31Z</time></trkpt><trkpt lat="43.30262722867019" lon="12.977617317885542"><ele>280.0</ele><time>2026-04-19T15:30:32Z</time></trkpt><trkpt lat="43.30234041309455" lon="12.97772915539844"><ele>281.5</ele><time>2026-04-19T15:30:33Z</time></trkpt><trkpt lat="43.30204907503034" lon="12.977835742088024"><ele>283.0</ele><time>2026-04-19T15:30:34Z</time></trkpt><trkpt lat="43.30175527901188" lon="12.977943299859144"><ele>283.0</ele><time>2026-04-19T15:30:35Z</time></trkpt><trkpt lat="43.30146449524727" lon="12.978051096635546"><ele>283.0</ele><time>2026-04-19T15:30:36Z</time></trkpt><trkpt lat="43.30117744107334" lon="12.978156789408782"><ele>283.0</ele><time>2026-04-19T15:30:37Z</time></trkpt><trkpt lat="43.30088807426936" lon="12.978262798615193"><ele>283.0</ele><time>2026-04-19T15:30:38Z</time></trkpt><trkpt lat="43.30059960276521" lon="12.978371008102389"><ele>284.0</ele><time>2026-04-19T15:30:39Z</time></trkpt><trkpt lat="43.300310957684076" lon="12.978478593436797"><ele>285.0</ele><time>2026-04-19T15:30:40Z</time></trkpt><trkpt lat="43.300022495836906" lon="12.978585242405675"><ele>286.0</ele><time>2026-04-19T15:30:41Z</time></trkpt><trkpt lat="43.29973057956786" lon="12.978687312668617"><ele>287.0</ele><time>2026-04-19T15:30:42Z</time></trkpt><trkpt lat="43.299438734135656" lon="12.978793612451433"><ele>287.0</ele><time>2026-04-19T15:30:43Z</time></trkpt><trkpt lat="43.29914546937548" lon="12.97889861498023"><ele>287.0</ele><time>2026-04-19T15:30:44Z</time></trkpt><trkpt lat="43.29885540283002" lon="12.97900642693813"><ele>286.5</ele><time>2026-04-19T15:30:45Z</time></trkpt><trkpt lat="43.29856497440217" lon="12.97911492242611"><ele>286.0</ele><time>2026-04-19T15:30:46Z</time></trkpt><trkpt lat="43.29827335814169" lon="12.979224135628847"><ele>288.0</ele><time>2026-04-19T15:30:46.999Z</time></trkpt><trkpt lat="43.29797955236608" lon="12.979333506128507"><ele>290.0</ele><time>2026-04-19T15:30:47.999Z</time></trkpt><trkpt lat="43.29768912154553" lon="12.979439009458176"><ele>290.0</ele><time>2026-04-19T15:30:48.999Z</time></trkpt><trkpt lat="43.29739798152404" lon="12.979546306583988"><ele>290.0</ele><time>2026-04-19T15:30:49.999Z</time></trkpt><trkpt lat="43.29710308086199" lon="12.979657939480594"><ele>291.0</ele><time>2026-04-19T15:30:50.999Z</time></trkpt><trkpt lat="43.29680924979711" lon="12.979767676841513"><ele>292.0</ele><time>2026-04-19T15:30:51.999Z</time></trkpt><trkpt lat="43.29651394140096" lon="12.979878507453657"><ele>291.0</ele><time>2026-04-19T15:30:52.999Z</time></trkpt><trkpt lat="43.29622469218809" lon="12.979985276054606"><ele>290.0</ele><time>2026-04-19T15:30:53.999Z</time></trkpt><trkpt lat="43.295936715443936" lon="12.980092294746642"><ele>290.0</ele><time>2026-04-19T15:30:54.999Z</time></trkpt><trkpt lat="43.29564771161216" lon="12.980199005119434"><ele>290.0</ele><time>2026-04-19T15:30:55.999Z</time></trkpt><trkpt lat="43.29535788268896" lon="12.980300912503482"><ele>290.0</ele><time>2026-04-19T15:30:56.999Z</time></trkpt><trkpt lat="43.29506589198871" lon="12.98040671887231"><ele>290.0</ele><time>2026-04-19T15:30:57.999Z</time></trkpt><trkpt lat="43.29477017723273" lon="12.980516582861767"><ele>292.0</ele><time>2026-04-19T15:30:58.999Z</time></trkpt><trkpt lat="43.29447571827476" lon="12.980628203002283"><ele>294.0</ele><time>2026-04-19T15:30:59.999Z</time></trkpt><trkpt lat="43.29418111328531" lon="12.98074061530383"><ele>289.5</ele><time>2026-04-19T15:31:00.999Z</time></trkpt><trkpt lat="43.293885211812345" lon="12.980853240951424"><ele>285.0</ele><time>2026-04-19T15:31:01.999Z</time></trkpt><trkpt lat="43.293588064398" lon="12.980968215827978"><ele>285.0</ele><time>2026-04-19T15:31:02.999Z</time></trkpt><trkpt lat="43.29329316026522" lon="12.981086510821559"><ele>285.0</ele><time>2026-04-19T15:31:03.999Z</time></trkpt><trkpt lat="43.29300072447186" lon="12.981210995778287"><ele>285.0</ele><time>2026-04-19T15:31:04.999Z</time></trkpt><trkpt lat="43.29270812840461" lon="12.981344885899468"><ele>285.0</ele><time>2026-04-19T15:31:05.999Z</time></trkpt><trkpt lat="43.29242479330211" lon="12.981484001215305"><ele>285.5</ele><time>2026-04-19T15:31:06.999Z</time></trkpt><trkpt lat="43.292137607410666" lon="12.981630430728249"><ele>286.0</ele><time>2026-04-19T15:31:07.999Z</time></trkpt><trkpt lat="43.291853586158595" lon="12.981777956380451"><ele>289.0</ele><time>2026-04-19T15:31:08.999Z</time></trkpt><trkpt lat="43.29157181082149" lon="12.981933433452246"><ele>292.0</ele><time>2026-04-19T15:31:09.999Z</time></trkpt><trkpt lat="43.29129400068454" lon="12.982089589044579"><ele>293.5</ele><time>2026-04-19T15:31:10.999Z</time></trkpt><trkpt lat="43.29101550706699" lon="12.982252667979365"><ele>295.0</ele><time>2026-04-19T15:31:11.999Z</time></trkpt><trkpt lat="43.29073671367747" lon="12.98241042169202"><ele>295.5</ele><time>2026-04-19T15:31:12.999Z</time></trkpt><trkpt lat="43.29045852968438" lon="12.982569990852017"><ele>296.0</ele><time>2026-04-19T15:31:13.999Z</time></trkpt><trkpt lat="43.29017765183471" lon="12.982728291429042"><ele>296.0</ele><time>2026-04-19T15:31:14.999Z</time></trkpt><trkpt lat="43.289897973475135" lon="12.982874462263805"><ele>296.0</ele><time>2026-04-19T15:31:15.999Z</time></trkpt><trkpt lat="43.28961773284853" lon="12.983012874782466"><ele>297.5</ele><time>2026-04-19T15:31:16.999Z</time></trkpt><trkpt lat="43.28933681189201" lon="12.983145509668223"><ele>299.0</ele><time>2026-04-19T15:31:17.999Z</time></trkpt><trkpt lat="43.289056437385305" lon="12.983265851210543"><ele>300.5</ele><time>2026-04-19T15:31:18.999Z</time></trkpt><trkpt lat="43.288776419826085" lon="12.983371933355754"><ele>302.0</ele><time>2026-04-19T15:31:19.999Z</time></trkpt><trkpt lat="43.2884943664612" lon="12.983472619907442"><ele>302.0</ele><time>2026-04-19T15:31:20.999Z</time></trkpt><trkpt lat="43.28821341696562" lon="12.98356129916638"><ele>302.0</ele><time>2026-04-19T15:31:21.999Z</time></trkpt><trkpt lat="43.287935987906465" lon="12.983641642418009"><ele>305.0</ele><time>2026-04-19T15:31:22.999Z</time></trkpt><trkpt lat="43.287660389466744" lon="12.983717139305021"><ele>308.0</ele><time>2026-04-19T15:31:23.999Z</time></trkpt><trkpt lat="43.28738762951701" lon="12.98378381083339"><ele>311.5</ele><time>2026-04-19T15:31:24.999Z</time></trkpt><trkpt lat="43.28711665443564" lon="12.983843593670157"><ele>315.0</ele><time>2026-04-19T15:31:25.999Z</time></trkpt><trkpt lat="43.286846083581864" lon="12.983899438003819"><ele>315.0</ele><time>2026-04-19T15:31:26.999Z</time></trkpt><trkpt lat="43.28657437246057" lon="12.98395083740669"><ele>315.0</ele><time>2026-04-19T15:31:27.999Z</time></trkpt><trkpt lat="43.286299936130476" lon="12.984003029353504"><ele>320.5</ele><time>2026-04-19T15:31:28.999Z</time></trkpt><trkpt lat="43.2860311373867" lon="12.984055494656547"><ele>326.0</ele><time>2026-04-19T15:31:29.999Z</time></trkpt><trkpt lat="43.285761773812304" lon="12.984104837662752"><ele>328.5</ele><time>2026-04-19T15:31:30.999Z</time></trkpt><trkpt lat="43.28550155290868" lon="12.984156780430354"><ele>331.0</ele><time>2026-04-19T15:31:31.999Z</time></trkpt><trkpt lat="43.285251881939814" lon="12.984211233125931"><ele>325.0</ele><time>2026-04-19T15:31:32.999Z</time></trkpt><trkpt lat="43.28500829452542" lon="12.9842696219476"><ele>319.0</ele><time>2026-04-19T15:31:33.999Z</time></trkpt><trkpt lat="43.28476714748072" lon="12.984331957268141"><ele>320.5</ele><time>2026-04-19T15:31:34.999Z</time></trkpt><trkpt lat="43.284525627622784" lon="12.984400106295979"><ele>322.0</ele><time>2026-04-19T15:31:35.999Z</time></trkpt><trkpt lat="43.28428191762668" lon="12.9844764027356"><ele>322.0</ele><time>2026-04-19T15:31:36.999Z</time></trkpt><trkpt lat="43.284037432197806" lon="12.984562203235425"><ele>322.0</ele><time>2026-04-19T15:31:37.999Z</time></trkpt><trkpt lat="43.28379385339354" lon="12.984654054249688"><ele>324.0</ele><time>2026-04-19T15:31:38.999Z</time></trkpt><trkpt lat="43.28355019035299" lon="12.984751543614603"><ele>326.0</ele><time>2026-04-19T15:31:39.999Z</time></trkpt><trkpt lat="43.28330408950644" lon="12.984853961263942"><ele>326.0</ele><time>2026-04-19T15:31:40.999Z</time></trkpt><trkpt lat="43.2830577718459" lon="12.984965188383997"><ele>326.0</ele><time>2026-04-19T15:31:41.999Z</time></trkpt><trkpt lat="43.28281009543248" lon="12.985083539988077"><ele>326.0</ele><time>2026-04-19T15:31:42.999Z</time></trkpt><trkpt lat="43.28256152105529" lon="12.985207835416926"><ele>326.0</ele><time>2026-04-19T15:31:43.999Z</time></trkpt><trkpt lat="43.28231286963397" lon="12.98533684662538"><ele>329.0</ele><time>2026-04-19T15:31:44.999Z</time></trkpt><trkpt lat="43.28206425779594" lon="12.985474027400306"><ele>332.0</ele><time>2026-04-19T15:31:45.999Z</time></trkpt><trkpt lat="43.281817161358354" lon="12.985617423023168"><ele>332.0</ele><time>2026-04-19T15:31:46.999Z</time></trkpt><trkpt lat="43.28156750379277" lon="12.985768642260767"><ele>332.0</ele><time>2026-04-19T15:31:47.999Z</time></trkpt><trkpt lat="43.281320405717516" lon="12.985918369585006"><ele>331.5</ele><time>2026-04-19T15:31:48.999Z</time></trkpt><trkpt lat="43.28107380479759" lon="12.986064841250395"><ele>331.0</ele><time>2026-04-19T15:31:49.999Z</time></trkpt><trkpt lat="43.28082510774896" lon="12.986214049559724"><ele>333.5</ele><time>2026-04-19T15:31:50.999Z</time></trkpt><trkpt lat="43.28057986534973" lon="12.986359188465487"><ele>336.0</ele><time>2026-04-19T15:31:51.999Z</time></trkpt><trkpt lat="43.2803347289108" lon="12.986504766119378"><ele>336.0</ele><time>2026-04-19T15:31:52.999Z</time></trkpt><trkpt lat="43.28008946704485" lon="12.986650825426906"><ele>336.0</ele><time>2026-04-19T15:31:53.999Z</time></trkpt><trkpt lat="43.279843907785164" lon="12.986800541269835"><ele>332.0</ele><time>2026-04-19T15:31:54.999Z</time></trkpt><trkpt lat="43.2795972192615" lon="12.986954682592339"><ele>328.0</ele><time>2026-04-19T15:31:55.999Z</time></trkpt><trkpt lat="43.279344585428426" lon="12.987112586238617"><ele>328.0</ele><time>2026-04-19T15:31:56.999Z</time></trkpt><trkpt lat="43.279091023040344" lon="12.987262942365234"><ele>328.0</ele><time>2026-04-19T15:31:57.999Z</time></trkpt><trkpt lat="43.27883945744799" lon="12.987419381529627"><ele>324.0</ele><time>2026-04-19T15:31:58.998Z</time></trkpt><trkpt lat="43.27858776762536" lon="12.987573895376432"><ele>320.0</ele><time>2026-04-19T15:31:59.998Z</time></trkpt><trkpt lat="43.278327917399004" lon="12.987727632598013"><ele>320.5</ele><time>2026-04-19T15:32:00.998Z</time></trkpt><trkpt lat="43.27806755023374" lon="12.98787872354045"><ele>321.0</ele><time>2026-04-19T15:32:01.998Z</time></trkpt><trkpt lat="43.27781099826097" lon="12.988029262676392"><ele>321.0</ele><time>2026-04-19T15:32:02.998Z</time></trkpt><trkpt lat="43.27755124069966" lon="12.988182120366663"><ele>321.0</ele><time>2026-04-19T15:32:03.998Z</time></trkpt><trkpt lat="43.27729188890566" lon="12.988330226462441"><ele>320.0</ele><time>2026-04-19T15:32:04.998Z</time></trkpt><trkpt lat="43.27702966105267" lon="12.988476278561507"><ele>319.0</ele><time>2026-04-19T15:32:05.998Z</time></trkpt><trkpt lat="43.27676695285103" lon="12.988613224006718"><ele>319.0</ele><time>2026-04-19T15:32:06.998Z</time></trkpt><trkpt lat="43.2765007648677" lon="12.988744070858308"><ele>319.0</ele><time>2026-04-19T15:32:07.998Z</time></trkpt><trkpt lat="43.276235717079075" lon="12.988869580488153"><ele>320.0</ele><time>2026-04-19T15:32:08.998Z</time></trkpt><trkpt lat="43.275971057930825" lon="12.988987190873964"><ele>321.0</ele><time>2026-04-19T15:32:09.998Z</time></trkpt><trkpt lat="43.275702750824166" lon="12.989090915697496"><ele>319.5</ele><time>2026-04-19T15:32:10.998Z</time></trkpt><trkpt lat="43.275435674956846" lon="12.989184566165944"><ele>318.0</ele><time>2026-04-19T15:32:12Z</time></trkpt><trkpt lat="43.27517725310012" lon="12.989293633592007"><ele>318.0</ele><time>2026-04-19T15:32:13Z</time></trkpt><trkpt lat="43.274915291411986" lon="12.989393644572527"><ele>318.0</ele><time>2026-04-19T15:32:14Z</time></trkpt><trkpt lat="43.274636181584086" lon="12.989394910844759"><ele>319.5</ele><time>2026-04-19T15:32:15Z</time></trkpt><trkpt lat="43.274367690455705" lon="12.989446307602067"><ele>321.0</ele><time>2026-04-19T15:32:16Z</time></trkpt><trkpt lat="43.27409766461056" lon="12.989486879740358"><ele>320.0</ele><time>2026-04-19T15:32:17Z</time></trkpt><trkpt lat="43.2738279632565" lon="12.989516706827118"><ele>319.0</ele><time>2026-04-19T15:32:18Z</time></trkpt><trkpt lat="43.27355659391008" lon="12.989534109810487"><ele>319.0</ele><time>2026-04-19T15:32:19Z</time></trkpt><trkpt lat="43.27328572178299" lon="12.989541525162636"><ele>319.0</ele><time>2026-04-19T15:32:20Z</time></trkpt><trkpt lat="43.27301432235433" lon="12.989541122453886"><ele>320.5</ele><time>2026-04-19T15:32:21Z</time></trkpt><trkpt lat="43.27274499029303" lon="12.989531941073881"><ele>322.0</ele><time>2026-04-19T15:32:22Z</time></trkpt><trkpt lat="43.272474103224766" lon="12.989513156656713"><ele>323.0</ele><time>2026-04-19T15:32:23Z</time></trkpt><trkpt lat="43.27220246108874" lon="12.989489298178933"><ele>324.0</ele><time>2026-04-19T15:32:24Z</time></trkpt><trkpt lat="43.271934321346144" lon="12.989452718913157"><ele>324.0</ele><time>2026-04-19T15:32:25Z</time></trkpt><trkpt lat="43.271663865477464" lon="12.98940027292546"><ele>324.0</ele><time>2026-04-19T15:32:26Z</time></trkpt><trkpt lat="43.27139820454555" lon="12.98933394987803"><ele>326.0</ele><time>2026-04-19T15:32:27Z</time></trkpt><trkpt lat="43.27113432389637" lon="12.989258787508744"><ele>328.0</ele><time>2026-04-19T15:32:28Z</time></trkpt><trkpt lat="43.27087190277927" lon="12.989178821491384"><ele>329.0</ele><time>2026-04-19T15:32:29Z</time></trkpt><trkpt lat="43.270612820767674" lon="12.989087499129122"><ele>330.0</ele><time>2026-04-19T15:32:30Z</time></trkpt><trkpt lat="43.270357947148334" lon="12.988986789351241"><ele>330.0</ele><time>2026-04-19T15:32:31Z</time></trkpt><trkpt lat="43.270103676191276" lon="12.988875714394345"><ele>330.0</ele><time>2026-04-19T15:32:32Z</time></trkpt><trkpt lat="43.26984869381466" lon="12.98875970233662"><ele>336.5</ele><time>2026-04-19T15:32:33Z</time></trkpt><trkpt lat="43.26959493588372" lon="12.988641877692835"><ele>343.0</ele><time>2026-04-19T15:32:34Z</time></trkpt><trkpt lat="43.26934170098317" lon="12.988520322715496"><ele>343.0</ele><time>2026-04-19T15:32:35Z</time></trkpt><trkpt lat="43.26908669594836" lon="12.988395379528573"><ele>343.0</ele><time>2026-04-19T15:32:36Z</time></trkpt><trkpt lat="43.26883233624225" lon="12.988272399622318"><ele>341.5</ele><time>2026-04-19T15:32:37Z</time></trkpt><trkpt lat="43.26857671094041" lon="12.988148377199579"><ele>340.0</ele><time>2026-04-19T15:32:38Z</time></trkpt><trkpt lat="43.26832106170764" lon="12.988025169850074"><ele>346.5</ele><time>2026-04-19T15:32:39Z</time></trkpt><trkpt lat="43.26806450063707" lon="12.987903841217157"><ele>353.0</ele><time>2026-04-19T15:32:40Z</time></trkpt><trkpt lat="43.26780671654645" lon="12.98778349949518"><ele>353.0</ele><time>2026-04-19T15:32:41Z</time></trkpt><trkpt lat="43.26754868069643" lon="12.987668514674018"><ele>353.0</ele><time>2026-04-19T15:32:42Z</time></trkpt><trkpt lat="43.26729013965604" lon="12.987559137486707"><ele>345.5</ele><time>2026-04-19T15:32:43Z</time></trkpt><trkpt lat="43.26703414290442" lon="12.987455729516654"><ele>338.0</ele><time>2026-04-19T15:32:44Z</time></trkpt><trkpt lat="43.26677787435601" lon="12.987355717892713"><ele>338.0</ele><time>2026-04-19T15:32:45Z</time></trkpt><trkpt lat="43.266521502147036" lon="12.987260830532872"><ele>338.0</ele><time>2026-04-19T15:32:46Z</time></trkpt><trkpt lat="43.26626355009827" lon="12.987175357624322"><ele>339.5</ele><time>2026-04-19T15:32:47Z</time></trkpt><trkpt lat="43.26600420681179" lon="12.987096843013118"><ele>341.0</ele><time>2026-04-19T15:32:48Z</time></trkpt><trkpt lat="43.2657421886971" lon="12.987024735044994"><ele>346.0</ele><time>2026-04-19T15:32:49Z</time></trkpt><trkpt lat="43.265480972077654" lon="12.98695781286568"><ele>351.0</ele><time>2026-04-19T15:32:50Z</time></trkpt><trkpt lat="43.26521921637143" lon="12.986895758769244"><ele>351.0</ele><time>2026-04-19T15:32:51Z</time></trkpt><trkpt lat="43.264958370197114" lon="12.98684015273535"><ele>351.0</ele><time>2026-04-19T15:32:52Z</time></trkpt><trkpt lat="43.26469762061387" lon="12.98678892775466"><ele>355.5</ele><time>2026-04-19T15:32:52.999Z</time></trkpt><trkpt lat="43.26444055422803" lon="12.986743240835366"><ele>360.0</ele><time>2026-04-19T15:32:53.999Z</time></trkpt><trkpt lat="43.264186161201714" lon="12.986706604197732"><ele>353.5</ele><time>2026-04-19T15:32:54.999Z</time></trkpt><trkpt lat="43.26393496674104" lon="12.986675932717322"><ele>347.0</ele><time>2026-04-19T15:32:55.999Z</time></trkpt><trkpt lat="43.26368573881675" lon="12.986651327666507"><ele>347.0</ele><time>2026-04-19T15:32:56.999Z</time></trkpt><trkpt lat="43.26343799340418" lon="12.986634496327069"><ele>347.0</ele><time>2026-04-19T15:32:57.999Z</time></trkpt><trkpt lat="43.26319593297365" lon="12.98662094708888"><ele>348.0</ele><time>2026-04-19T15:32:58.999Z</time></trkpt><trkpt lat="43.26295655737732" lon="12.986611087115921"><ele>349.0</ele><time>2026-04-19T15:32:59.999Z</time></trkpt><trkpt lat="43.262720176197355" lon="12.986607134776103"><ele>349.0</ele><time>2026-04-19T15:33:00.999Z</time></trkpt><trkpt lat="43.262486776859035" lon="12.986606965816263"><ele>349.0</ele><time>2026-04-19T15:33:01.999Z</time></trkpt><trkpt lat="43.26226146850753" lon="12.986611131295819"><ele>353.0</ele><time>2026-04-19T15:33:02.999Z</time></trkpt><trkpt lat="43.262043856647686" lon="12.986617943270026"><ele>357.0</ele><time>2026-04-19T15:33:03.999Z</time></trkpt><trkpt lat="43.261832943464135" lon="12.986624548966194"><ele>361.0</ele><time>2026-04-19T15:33:04.999Z</time></trkpt><trkpt lat="43.26162475531766" lon="12.98663228811724"><ele>365.0</ele><time>2026-04-19T15:33:05.999Z</time></trkpt><trkpt lat="43.261419718604664" lon="12.98662931362867"><ele>369.0</ele><time>2026-04-19T15:33:06.999Z</time></trkpt><trkpt lat="43.26120947414156" lon="12.986612806341618"><ele>373.0</ele><time>2026-04-19T15:33:07.999Z</time></trkpt><trkpt lat="43.2609949015852" lon="12.986598493544957"><ele>373.0</ele><time>2026-04-19T15:33:08.999Z</time></trkpt><trkpt lat="43.26077965730248" lon="12.986592727074612"><ele>373.0</ele><time>2026-04-19T15:33:09.999Z</time></trkpt><trkpt lat="43.26056285647205" lon="12.986587590018793"><ele>373.0</ele><time>2026-04-19T15:33:10.999Z</time></trkpt><trkpt lat="43.260343773808806" lon="12.986582803955525"><ele>380.5</ele><time>2026-04-19T15:33:11.999Z</time></trkpt><trkpt lat="43.260109642527425" lon="12.986578245760741"><ele>388.0</ele><time>2026-04-19T15:33:13.063Z</time></trkpt><trkpt lat="43.259889499109" lon="12.98657588841679"><ele>392.0</ele><time>2026-04-19T15:33:14.061Z</time></trkpt><trkpt lat="43.259670946196884" lon="12.986574599758297"><ele>396.0</ele><time>2026-04-19T15:33:15.063Z</time></trkpt><trkpt lat="43.25945631805185" lon="12.98657436957474"><ele>400.0</ele><time>2026-04-19T15:33:16.059Z</time></trkpt><trkpt lat="43.259244984238876" lon="12.986578224823953"><ele>400.0</ele><time>2026-04-19T15:33:17.053Z</time></trkpt><trkpt lat="43.25903672839952" lon="12.98658302609178"><ele>400.0</ele><time>2026-04-19T15:33:18.032Z</time></trkpt><trkpt lat="43.24775517968291" lon="12.987420701602636"><ele>391.6666666666667</ele><time>2026-04-19T15:34:09.998Z</time></trkpt><trkpt lat="43.247557187997515" lon="12.987427478900631"><ele>383.33333333333337</ele><time>2026-04-19T15:34:10.998Z</time></trkpt><trkpt lat="43.247361993396574" lon="12.987459778534344"><ele>375.0</ele><time>2026-04-19T15:34:11.998Z</time></trkpt><trkpt lat="43.24715952567741" lon="12.987470244186719"><ele>375.0</ele><time>2026-04-19T15:34:12.998Z</time></trkpt><trkpt lat="43.246952237094135" lon="12.987489706562206"><ele>375.0</ele><time>2026-04-19T15:34:13.998Z</time></trkpt><trkpt lat="43.24675342634745" lon="12.987510715210142"><ele>375.0</ele><time>2026-04-19T15:34:14.998Z</time></trkpt><trkpt lat="43.24655514502955" lon="12.987534543874945"><ele>378.33333333333337</ele><time>2026-04-19T15:34:15.998Z</time></trkpt><trkpt lat="43.24635590722901" lon="12.987565900143698"><ele>381.6666666666667</ele><time>2026-04-19T15:34:16.998Z</time></trkpt><trkpt lat="43.24615767417496" lon="12.987606696361098"><ele>385.0</ele><time>2026-04-19T15:34:18Z</time></trkpt><trkpt lat="43.24596590307431" lon="12.987650858266605"><ele>385.0</ele><time>2026-04-19T15:34:19Z</time></trkpt><trkpt lat="43.24578674695829" lon="12.987693289274805"><ele>385.0</ele><time>2026-04-19T15:34:20Z</time></trkpt><trkpt lat="43.24562298240484" lon="12.987738782773452"><ele>385.0</ele><time>2026-04-19T15:34:21Z</time></trkpt><trkpt lat="43.245462716761914" lon="12.98778816739206"><ele>385.33333333333337</ele><time>2026-04-19T15:34:22Z</time></trkpt><trkpt lat="43.245304718948866" lon="12.98783970183465"><ele>385.66666666666663</ele><time>2026-04-19T15:34:23Z</time></trkpt><trkpt lat="43.245148641017366" lon="12.98789573802976"><ele>386.0</ele><time>2026-04-19T15:34:24Z</time></trkpt><trkpt lat="43.24499418559844" lon="12.98795615162499"><ele>386.0</ele><time>2026-04-19T15:34:25Z</time></trkpt><trkpt lat="43.24483626324218" lon="12.988021897610514"><ele>386.0</ele><time>2026-04-19T15:34:26Z</time></trkpt><trkpt lat="43.244672863357714" lon="12.988097315025463"><ele>386.0</ele><time>2026-04-19T15:34:27Z</time></trkpt><trkpt lat="43.24450660443623" lon="12.98818463216248"><ele>386.0</ele><time>2026-04-19T15:34:28Z</time></trkpt><trkpt lat="43.244329966194435" lon="12.98828148374226"><ele>386.0</ele><time>2026-04-19T15:34:29Z</time></trkpt><trkpt lat="43.244145279738895" lon="12.988387107241044"><ele>386.0</ele><time>2026-04-19T15:34:30Z</time></trkpt><trkpt lat="43.243954284439944" lon="12.988506816742873"><ele>386.3333333333333</ele><time>2026-04-19T15:34:31Z</time></trkpt><trkpt lat="43.2437686672219" lon="12.98862956671359"><ele>386.66666666666663</ele><time>2026-04-19T15:34:32Z</time></trkpt><trkpt lat="43.24359121095895" lon="12.988756048372975"><ele>387.0</ele><time>2026-04-19T15:34:33Z</time></trkpt><trkpt lat="43.243422776654334" lon="12.988884746281853"><ele>387.0</ele><time>2026-04-19T15:34:34Z</time></trkpt><trkpt lat="43.2432530603982" lon="12.989020663915221"><ele>387.0</ele><time>2026-04-19T15:34:35Z</time></trkpt><trkpt lat="43.24308098781972" lon="12.989163335457018"><ele>387.0</ele><time>2026-04-19T15:34:36Z</time></trkpt><trkpt lat="43.24290887269024" lon="12.989312201144866"><ele>387.66666666666663</ele><time>2026-04-19T15:34:37Z</time></trkpt><trkpt lat="43.24273930657854" lon="12.989466229045062"><ele>388.3333333333333</ele><time>2026-04-19T15:34:38Z</time></trkpt><trkpt lat="43.24257366638616" lon="12.98962949933904"><ele>389.0</ele><time>2026-04-19T15:34:39Z</time></trkpt><trkpt lat="43.24240984645284" lon="12.989801998882454"><ele>389.3333333333333</ele><time>2026-04-19T15:34:40Z</time></trkpt><trkpt lat="43.24224674445744" lon="12.989981107539595"><ele>389.66666666666663</ele><time>2026-04-19T15:34:41Z</time></trkpt><trkpt lat="43.24208574807717" lon="12.99016637490015"><ele>390.0</ele><time>2026-04-19T15:34:42Z</time></trkpt><trkpt lat="43.241929464608745" lon="12.9903583106091"><ele>390.0</ele><time>2026-04-19T15:34:43Z</time></trkpt><trkpt lat="43.24177511432024" lon="12.99056133854035"><ele>390.0</ele><time>2026-04-19T15:34:44Z</time></trkpt><trkpt lat="43.24162319118183" lon="12.990770329105345"><ele>390.0</ele><time>2026-04-19T15:34:45Z</time></trkpt><trkpt lat="43.24147460187684" lon="12.990987044080676"><ele>390.0</ele><time>2026-04-19T15:34:46Z</time></trkpt><trkpt lat="43.24132873140864" lon="12.99120614047934"><ele>390.0</ele><time>2026-04-19T15:34:47Z</time></trkpt><trkpt lat="43.24118633278625" lon="12.991434176720412"><ele>390.0</ele><time>2026-04-19T15:34:48Z</time></trkpt><trkpt lat="43.241047960209656" lon="12.991668191660953"><ele>389.0</ele><time>2026-04-19T15:34:49Z</time></trkpt><trkpt lat="43.240913458427215" lon="12.991907262272058"><ele>388.0</ele><time>2026-04-19T15:34:50Z</time></trkpt><trkpt lat="43.240784776146114" lon="12.992153754093158"><ele>387.0</ele><time>2026-04-19T15:34:51Z</time></trkpt><trkpt lat="43.24066198639472" lon="12.992408726723058"><ele>390.66666666666663</ele><time>2026-04-19T15:34:52Z</time></trkpt><trkpt lat="43.24054418307794" lon="12.992667727703251"><ele>394.3333333333333</ele><time>2026-04-19T15:34:53Z</time></trkpt><trkpt lat="43.240428710413816" lon="12.992929743729361"><ele>398.0</ele><time>2026-04-19T15:34:54Z</time></trkpt><trkpt lat="43.240317717875335" lon="12.993198122614755"><ele>401.3333333333333</ele><time>2026-04-19T15:34:55Z</time></trkpt><trkpt lat="43.24021297750332" lon="12.993469733822886"><ele>404.66666666666663</ele><time>2026-04-19T15:34:56Z</time></trkpt><trkpt lat="43.24011479964285" lon="12.993746498530353"><ele>408.0</ele><time>2026-04-19T15:34:57Z</time></trkpt><trkpt lat="43.24002348990552" lon="12.994026270953812"><ele>408.33333333333337</ele><time>2026-04-19T15:34:58Z</time></trkpt><trkpt lat="43.23994029686231" lon="12.994304826866063"><ele>408.6666666666667</ele><time>2026-04-19T15:34:59Z</time></trkpt><trkpt lat="43.239859019508245" lon="12.994591205356508"><ele>409.0</ele><time>2026-04-19T15:34:59.999Z</time></trkpt><trkpt lat="43.23978128531326" lon="12.994877578665909"><ele>412.5</ele><time>2026-04-19T15:35:00.999Z</time></trkpt><trkpt lat="43.239707139119055" lon="12.99517424811843"><ele>416.0</ele><time>2026-04-19T15:35:01.999Z</time></trkpt><trkpt lat="43.239634846211594" lon="12.995476387453719"><ele>416.0</ele><time>2026-04-19T15:35:02.999Z</time></trkpt><trkpt lat="43.23956334532095" lon="12.995782365059377"><ele>416.0</ele><time>2026-04-19T15:35:03.999Z</time></trkpt><trkpt lat="43.23949577955091" lon="12.99608347773728"><ele>414.5</ele><time>2026-04-19T15:35:04.999Z</time></trkpt><trkpt lat="43.23942763976409" lon="12.996382462189217"><ele>413.0</ele><time>2026-04-19T15:35:05.999Z</time></trkpt><trkpt lat="43.23936252951144" lon="12.996681080276407"><ele>413.0</ele><time>2026-04-19T15:35:06.999Z</time></trkpt><trkpt lat="43.239297187562606" lon="12.99698167879189"><ele>413.0</ele><time>2026-04-19T15:35:07.999Z</time></trkpt><trkpt lat="43.23922860618804" lon="12.997284606236251"><ele>412.5</ele><time>2026-04-19T15:35:08.999Z</time></trkpt><trkpt lat="43.23915541249465" lon="12.997587868746976"><ele>412.0</ele><time>2026-04-19T15:35:09.999Z</time></trkpt><trkpt lat="43.239084152107274" lon="12.99789155870749"><ele>412.0</ele><time>2026-04-19T15:35:10.999Z</time></trkpt><trkpt lat="43.23901707982907" lon="12.998200464242105"><ele>412.0</ele><time>2026-04-19T15:35:11.999Z</time></trkpt><trkpt lat="43.2389508297434" lon="12.998506990791448"><ele>417.5</ele><time>2026-04-19T15:35:12.999Z</time></trkpt><trkpt lat="43.238884904733" lon="12.998815440539389"><ele>423.0</ele><time>2026-04-19T15:35:13.999Z</time></trkpt><trkpt lat="43.23882093191123" lon="12.99912417650132"><ele>421.0</ele><time>2026-04-19T15:35:14.999Z</time></trkpt><trkpt lat="43.23875785600168" lon="12.999435447077131"><ele>419.0</ele><time>2026-04-19T15:35:15.999Z</time></trkpt><trkpt lat="43.23869785609717" lon="12.999747092651583"><ele>419.0</ele><time>2026-04-19T15:35:16.999Z</time></trkpt><trkpt lat="43.238639792009174" lon="13.000065231411368"><ele>419.0</ele><time>2026-04-19T15:35:17.999Z</time></trkpt><trkpt lat="43.238590329149346" lon="13.000381790104273"><ele>419.0</ele><time>2026-04-19T15:35:18.999Z</time></trkpt><trkpt lat="43.238544547016986" lon="13.000702017214836"><ele>419.0</ele><time>2026-04-19T15:35:19.999Z</time></trkpt><trkpt lat="43.23850262537279" lon="13.001024280100989"><ele>421.5</ele><time>2026-04-19T15:35:20.999Z</time></trkpt><trkpt lat="43.23846323553046" lon="13.001352896435622"><ele>424.0</ele><time>2026-04-19T15:35:21.999Z</time></trkpt><trkpt lat="43.23842840890934" lon="13.00168730489454"><ele>428.0</ele><time>2026-04-19T15:35:22.999Z</time></trkpt><trkpt lat="43.23840177272958" lon="13.002028957791092"><ele>432.0</ele><time>2026-04-19T15:35:23.999Z</time></trkpt><trkpt lat="43.238382611965406" lon="13.002376588674588"><ele>432.0</ele><time>2026-04-19T15:35:24.999Z</time></trkpt><trkpt lat="43.238371043916864" lon="13.002723744155647"><ele>432.0</ele><time>2026-04-19T15:35:25.999Z</time></trkpt><trkpt lat="43.238363613937814" lon="13.003067786790046"><ele>428.0</ele><time>2026-04-19T15:35:26.999Z</time></trkpt><trkpt lat="43.23836101934479" lon="13.003410128126191"><ele>424.0</ele><time>2026-04-19T15:35:27.999Z</time></trkpt><trkpt lat="43.23836951847918" lon="13.00375060453465"><ele>424.0</ele><time>2026-04-19T15:35:28.999Z</time></trkpt><trkpt lat="43.23838321602751" lon="13.004116531357214"><ele>424.0</ele><time>2026-04-19T15:35:29.999Z</time></trkpt><trkpt lat="43.23840573861788" lon="13.00449477924049"><ele>420.5</ele><time>2026-04-19T15:35:30.999Z</time></trkpt><trkpt lat="43.2384108489254" lon="13.004867231869959"><ele>417.0</ele><time>2026-04-19T15:35:31.999Z</time></trkpt><trkpt lat="43.238497410145264" lon="13.005232264604983"><ele>414.0</ele><time>2026-04-19T15:35:32.999Z</time></trkpt><trkpt lat="43.238558728281696" lon="13.005584891381385"><ele>411.0</ele><time>2026-04-19T15:35:33.999Z</time></trkpt><trkpt lat="43.23861895010155" lon="13.00593342627019"><ele>408.0</ele><time>2026-04-19T15:35:34.999Z</time></trkpt><trkpt lat="43.238680861503646" lon="13.006293085944934"><ele>405.0</ele><time>2026-04-19T15:35:35.999Z</time></trkpt><trkpt lat="43.23873639709747" lon="13.00664987455378"><ele>401.5</ele><time>2026-04-19T15:35:36.999Z</time></trkpt><trkpt lat="43.23878739846424" lon="13.006997248815122"><ele>398.0</ele><time>2026-04-19T15:35:37.999Z</time></trkpt><trkpt lat="43.238834439699524" lon="13.007339235498206"><ele>395.0</ele><time>2026-04-19T15:35:38.999Z</time></trkpt><trkpt lat="43.23887978281858" lon="13.00768295419501"><ele>392.0</ele><time>2026-04-19T15:35:39.999Z</time></trkpt><trkpt lat="43.23891845795227" lon="13.008019828551205"><ele>392.5</ele><time>2026-04-19T15:35:40.999Z</time></trkpt><trkpt lat="43.238948990720104" lon="13.008362325493891"><ele>393.0</ele><time>2026-04-19T15:35:41.999Z</time></trkpt><trkpt lat="43.23897301413755" lon="13.0087080442338"><ele>391.5</ele><time>2026-04-19T15:35:42.999Z</time></trkpt><trkpt lat="43.23898757401914" lon="13.009057324107898"><ele>390.0</ele><time>2026-04-19T15:35:43.999Z</time></trkpt><trkpt lat="43.23899121445678" lon="13.009410001917358"><ele>390.0</ele><time>2026-04-19T15:35:44.999Z</time></trkpt><trkpt lat="43.23898924628684" lon="13.00976143611904"><ele>390.0</ele><time>2026-04-19T15:35:45.999Z</time></trkpt><trkpt lat="43.23899942858872" lon="13.009965224747647"><ele>390.0</ele><time>2026-04-19T15:35:46.999Z</time></trkpt><trkpt lat="43.23901770729743" lon="13.010265525525902"><ele>390.0</ele><time>2026-04-19T15:35:47.999Z</time></trkpt><trkpt lat="43.23900308009613" lon="13.01057668480193"><ele>390.0</ele><time>2026-04-19T15:35:48.999Z</time></trkpt><trkpt lat="43.238983245454136" lon="13.0108785840787"><ele>390.0</ele><time>2026-04-19T15:35:49.999Z</time></trkpt><trkpt lat="43.23895712427765" lon="13.011171146911401"><ele>390.33333333333337</ele><time>2026-04-19T15:35:50.999Z</time></trkpt><trkpt lat="43.23892168088925" lon="13.011472404800918"><ele>390.6666666666667</ele><time>2026-04-19T15:35:51.999Z</time></trkpt><trkpt lat="43.2388783228834" lon="13.011773461544273"><ele>391.0</ele><time>2026-04-19T15:35:52.999Z</time></trkpt><trkpt lat="43.238829950319385" lon="13.012071403974273"><ele>391.0</ele><time>2026-04-19T15:35:53.999Z</time></trkpt><trkpt lat="43.238774253546794" lon="13.012373519238109"><ele>391.0</ele><time>2026-04-19T15:35:54.999Z</time></trkpt><trkpt lat="43.238713041247244" lon="13.012669827263297"><ele>390.5</ele><time>2026-04-19T15:35:55.999Z</time></trkpt><trkpt lat="43.23864400602803" lon="13.01296921627587"><ele>390.0</ele><time>2026-04-19T15:35:56.999Z</time></trkpt><trkpt lat="43.23857075758857" lon="13.013266308556965"><ele>392.0</ele><time>2026-04-19T15:35:57.999Z</time></trkpt><trkpt lat="43.238492726109605" lon="13.013565907188049"><ele>394.0</ele><time>2026-04-19T15:35:58.999Z</time></trkpt><trkpt lat="43.23841077587816" lon="13.013861995074697"><ele>393.0</ele><time>2026-04-19T15:35:59.999Z</time></trkpt><trkpt lat="43.23831964707905" lon="13.014157178257706"><ele>392.0</ele><time>2026-04-19T15:36:00.999Z</time></trkpt><trkpt lat="43.23821939754777" lon="13.014453205023283"><ele>390.5</ele><time>2026-04-19T15:36:01.999Z</time></trkpt><trkpt lat="43.23810953822215" lon="13.01476859460968"><ele>389.0</ele><time>2026-04-19T15:36:02.999Z</time></trkpt><trkpt lat="43.2379879095368" lon="13.015110311203198"><ele>389.0</ele><time>2026-04-19T15:36:03.999Z</time></trkpt><trkpt lat="43.23785446106841" lon="13.015451811167555"><ele>389.0</ele><time>2026-04-19T15:36:04.999Z</time></trkpt><trkpt lat="43.237694734094" lon="13.015795633551098"><ele>387.5</ele><time>2026-04-19T15:36:05.999Z</time></trkpt><trkpt lat="43.237519437544044" lon="13.016141026177914"><ele>386.0</ele><time>2026-04-19T15:36:06.999Z</time></trkpt><trkpt lat="43.23732757104046" lon="13.016474674284291"><ele>388.5</ele><time>2026-04-19T15:36:07.999Z</time></trkpt><trkpt lat="43.237120099894874" lon="13.01680548737054"><ele>391.0</ele><time>2026-04-19T15:36:08.999Z</time></trkpt><trkpt lat="43.2368971136207" lon="13.017110023810172"><ele>391.0</ele><time>2026-04-19T15:36:09.999Z</time></trkpt><trkpt lat="43.23667599185356" lon="13.017414872619778"><ele>391.0</ele><time>2026-04-19T15:36:10.999Z</time></trkpt><trkpt lat="43.236453682991396" lon="13.017710145380489"><ele>392.0</ele><time>2026-04-19T15:36:11.998Z</time></trkpt><trkpt lat="43.23623044391234" lon="13.017994371324061"><ele>393.0</ele><time>2026-04-19T15:36:12.998Z</time></trkpt><trkpt lat="43.23600799182438" lon="13.018263425024612"><ele>392.5</ele><time>2026-04-19T15:36:13.998Z</time></trkpt><trkpt lat="43.23578103928711" lon="13.01851925855868"><ele>392.0</ele><time>2026-04-19T15:36:14.998Z</time></trkpt><trkpt lat="43.23555326751165" lon="13.018761451269356"><ele>392.0</ele><time>2026-04-19T15:36:15.998Z</time></trkpt><trkpt lat="43.235323939115425" lon="13.018994691420911"><ele>392.0</ele><time>2026-04-19T15:36:16.998Z</time></trkpt><trkpt lat="43.23509098956169" lon="13.01922740586765"><ele>392.5</ele><time>2026-04-19T15:36:17.998Z</time></trkpt><trkpt lat="43.23486271505047" lon="13.019464417233003"><ele>393.0</ele><time>2026-04-19T15:36:18.998Z</time></trkpt><trkpt lat="43.234638698872615" lon="13.019706973113838"><ele>393.0</ele><time>2026-04-19T15:36:19.998Z</time></trkpt><trkpt lat="43.23441786587235" lon="13.019955945749576"><ele>393.0</ele><time>2026-04-19T15:36:20.998Z</time></trkpt><trkpt lat="43.23419949109999" lon="13.020209530509105"><ele>390.5</ele><time>2026-04-19T15:36:21.998Z</time></trkpt><trkpt lat="43.23398199819012" lon="13.020471499048513"><ele>388.0</ele><time>2026-04-19T15:36:23Z</time></trkpt><trkpt lat="43.23376682387823" lon="13.020742090217205"><ele>389.5</ele><time>2026-04-19T15:36:24Z</time></trkpt><trkpt lat="43.233562503713664" lon="13.021021009370923"><ele>391.0</ele><time>2026-04-19T15:36:25Z</time></trkpt><trkpt lat="43.23336810228395" lon="13.021307954892762"><ele>391.0</ele><time>2026-04-19T15:36:26Z</time></trkpt><trkpt lat="43.23317374696131" lon="13.021603624120463"><ele>391.0</ele><time>2026-04-19T15:36:27Z</time></trkpt><trkpt lat="43.23298213481334" lon="13.021901359289531"><ele>388.5</ele><time>2026-04-19T15:36:28Z</time></trkpt><trkpt lat="43.232792399536656" lon="13.022200999048957"><ele>386.0</ele><time>2026-04-19T15:36:29Z</time></trkpt><trkpt lat="43.23260629133018" lon="13.022502867772038"><ele>383.5</ele><time>2026-04-19T15:36:30Z</time></trkpt><trkpt lat="43.232422256688885" lon="13.022805408214458"><ele>381.0</ele><time>2026-04-19T15:36:31Z</time></trkpt><trkpt lat="43.2322388189204" lon="13.02310607207027"><ele>375.5</ele><time>2026-04-19T15:36:32Z</time></trkpt><trkpt lat="43.23205617900704" lon="13.023405261125252"><ele>370.0</ele><time>2026-04-19T15:36:33Z</time></trkpt><trkpt lat="43.231871918728274" lon="13.023703099576318"><ele>370.0</ele><time>2026-04-19T15:36:34Z</time></trkpt><trkpt lat="43.23168905405404" lon="13.023999655355105"><ele>370.0</ele><time>2026-04-19T15:36:35Z</time></trkpt><trkpt lat="43.23150764852913" lon="13.024296376975519"><ele>370.0</ele><time>2026-04-19T15:36:36Z</time></trkpt><trkpt lat="43.23132814513192" lon="13.024591400669243"><ele>370.0</ele><time>2026-04-19T15:36:37Z</time></trkpt><trkpt lat="43.23114835702815" lon="13.024884675719136"><ele>372.0</ele><time>2026-04-19T15:36:38Z</time></trkpt><trkpt lat="43.230967949529905" lon="13.025179815557848"><ele>374.0</ele><time>2026-04-19T15:36:39Z</time></trkpt><trkpt lat="43.23078845676708" lon="13.025481696926143"><ele>372.5</ele><time>2026-04-19T15:36:40Z</time></trkpt><trkpt lat="43.230611804150676" lon="13.025789650892028"><ele>371.0</ele><time>2026-04-19T15:36:41Z</time></trkpt><trkpt lat="43.23043830605793" lon="13.026101769604558"><ele>368.0</ele><time>2026-04-19T15:36:42Z</time></trkpt><trkpt lat="43.23026703932814" lon="13.026417900018314"><ele>365.0</ele><time>2026-04-19T15:36:43Z</time></trkpt><trkpt lat="43.23010030012881" lon="13.02673930155757"><ele>362.5</ele><time>2026-04-19T15:36:44Z</time></trkpt><trkpt lat="43.229941125671296" lon="13.027072833553209"><ele>360.0</ele><time>2026-04-19T15:36:45Z</time></trkpt><trkpt lat="43.229788641325335" lon="13.027410125055946"><ele>355.5</ele><time>2026-04-19T15:36:46Z</time></trkpt><trkpt lat="43.2296417601477" lon="13.027753581116606"><ele>351.0</ele><time>2026-04-19T15:36:47Z</time></trkpt><trkpt lat="43.22949819763615" lon="13.028102714936107"><ele>348.5</ele><time>2026-04-19T15:36:48Z</time></trkpt><trkpt lat="43.22936145713795" lon="13.028451913476683"><ele>346.0</ele><time>2026-04-19T15:36:49Z</time></trkpt><trkpt lat="43.22922612843728" lon="13.02880607432179"><ele>345.5</ele><time>2026-04-19T15:36:50Z</time></trkpt><trkpt lat="43.22909435237638" lon="13.02915769246927"><ele>345.0</ele><time>2026-04-19T15:36:51Z</time></trkpt><trkpt lat="43.228962443375394" lon="13.029511042836129"><ele>345.0</ele><time>2026-04-19T15:36:52Z</time></trkpt><trkpt lat="43.22883061356245" lon="13.029858940198174"><ele>345.0</ele><time>2026-04-19T15:36:53Z</time></trkpt><trkpt lat="43.228699844499936" lon="13.030205389881335"><ele>344.5</ele><time>2026-04-19T15:36:54Z</time></trkpt><trkpt lat="43.22857049636579" lon="13.030549942124104"><ele>344.0</ele><time>2026-04-19T15:36:55Z</time></trkpt><trkpt lat="43.228443183855404" lon="13.030894272437628"><ele>344.0</ele><time>2026-04-19T15:36:56Z</time></trkpt><trkpt lat="43.228319793371426" lon="13.031227263550464"><ele>344.0</ele><time>2026-04-19T15:36:57Z</time></trkpt><trkpt lat="43.228196348731366" lon="13.031560529001982"><ele>345.0</ele><time>2026-04-19T15:36:58Z</time></trkpt><trkpt lat="43.22807536570165" lon="13.031884965040762"><ele>346.0</ele><time>2026-04-19T15:36:59Z</time></trkpt><trkpt lat="43.22795763925031" lon="13.032195059764064"><ele>343.5</ele><time>2026-04-19T15:37:00Z</time></trkpt><trkpt lat="43.22784177338335" lon="13.03250167173262"><ele>341.0</ele><time>2026-04-19T15:37:01Z</time></trkpt><trkpt lat="43.22773167157466" lon="13.032789075362405"><ele>341.0</ele><time>2026-04-19T15:37:02Z</time></trkpt><trkpt lat="43.22762259730298" lon="13.033067115552754"><ele>341.0</ele><time>2026-04-19T15:37:02.999Z</time></trkpt><trkpt lat="43.227520985871756" lon="13.033328633851804"><ele>341.0</ele><time>2026-04-19T15:37:03.999Z</time></trkpt><trkpt lat="43.22742207623869" lon="13.03358752020286"><ele>339.33333333333337</ele><time>2026-04-19T15:37:04.999Z</time></trkpt><trkpt lat="43.22732945065694" lon="13.033830695692524"><ele>337.6666666666667</ele><time>2026-04-19T15:37:05.999Z</time></trkpt><trkpt lat="43.227236376552824" lon="13.03404698806698"><ele>336.0</ele><time>2026-04-19T15:37:06.999Z</time></trkpt><trkpt lat="43.227144728613666" lon="13.034241364342154"><ele>335.0</ele><time>2026-04-19T15:37:07.999Z</time></trkpt><trkpt lat="43.22704377711574" lon="13.034414389873408"><ele>334.0</ele><time>2026-04-19T15:37:08.999Z</time></trkpt><trkpt lat="43.22693269545967" lon="13.03456304490459"><ele>333.0</ele><time>2026-04-19T15:37:09.999Z</time></trkpt><trkpt lat="43.22680669710848" lon="13.03468903239723"><ele>333.0</ele><time>2026-04-19T15:37:10.999Z</time></trkpt><trkpt lat="43.22667434203255" lon="13.03479796210537"><ele>333.0</ele><time>2026-04-19T15:37:11.999Z</time></trkpt><trkpt lat="43.226527116980044" lon="13.034891320029649"><ele>333.0</ele><time>2026-04-19T15:37:12.999Z</time></trkpt><trkpt lat="43.226379165401546" lon="13.034975864041748"><ele>335.5</ele><time>2026-04-19T15:37:13.999Z</time></trkpt><trkpt lat="43.22623287218138" lon="13.035039793512885"><ele>338.0</ele><time>2026-04-19T15:37:14.999Z</time></trkpt><trkpt lat="43.22609133221939" lon="13.035094489905338"><ele>340.5</ele><time>2026-04-19T15:37:15.999Z</time></trkpt><trkpt lat="43.22595428698145" lon="13.035142622302375"><ele>343.0</ele><time>2026-04-19T15:37:16.999Z</time></trkpt><trkpt lat="43.22583005798643" lon="13.035200335688218"><ele>343.0</ele><time>2026-04-19T15:37:17.999Z</time></trkpt><trkpt lat="43.22572161415096" lon="13.035282164621382"><ele>343.0</ele><time>2026-04-19T15:37:18.999Z</time></trkpt><trkpt lat="43.22563820465146" lon="13.035393452274304"><ele>343.0</ele><time>2026-04-19T15:37:19.999Z</time></trkpt><trkpt lat="43.225585483380875" lon="13.035526960643622"><ele>343.0</ele><time>2026-04-19T15:37:20.999Z</time></trkpt><trkpt lat="43.2255666899605" lon="13.03566911416345"><ele>343.0</ele><time>2026-04-19T15:37:21.999Z</time></trkpt><trkpt lat="43.22557473537115" lon="13.035813394780549"><ele>343.0</ele><time>2026-04-19T15:37:22.999Z</time></trkpt><trkpt lat="43.22560762675383" lon="13.035955424380477"><ele>343.0</ele><time>2026-04-19T15:37:23.999Z</time></trkpt><trkpt lat="43.22566176571249" lon="13.03608828767399"><ele>343.0</ele><time>2026-04-19T15:37:24.999Z</time></trkpt><trkpt lat="43.225735135037226" lon="13.03620763048356"><ele>343.0</ele><time>2026-04-19T15:37:25.999Z</time></trkpt><trkpt lat="43.22582591509621" lon="13.036306593486284"><ele>340.25</ele><time>2026-04-19T15:37:26.999Z</time></trkpt><trkpt lat="43.225928214884156" lon="13.03638890314706"><ele>337.5</ele><time>2026-04-19T15:37:27.999Z</time></trkpt><trkpt lat="43.22603658639031" lon="13.036467845607902"><ele>334.75</ele><time>2026-04-19T15:37:28.999Z</time></trkpt><trkpt lat="43.22614845903225" lon="13.036557874901856"><ele>332.0</ele><time>2026-04-19T15:37:29.999Z</time></trkpt><trkpt lat="43.22626669184478" lon="13.036654342937496"><ele>331.5</ele><time>2026-04-19T15:37:30.999Z</time></trkpt><trkpt lat="43.226372850947506" lon="13.036755392712797"><ele>331.0</ele><time>2026-04-19T15:37:31.999Z</time></trkpt><trkpt lat="43.22648784775244" lon="13.036855341008485"><ele>330.5</ele><time>2026-04-19T15:37:32.999Z</time></trkpt><trkpt lat="43.226602375073824" lon="13.03695339143707"><ele>330.0</ele><time>2026-04-19T15:37:33.999Z</time></trkpt><trkpt lat="43.22671612075867" lon="13.037056162692888"><ele>330.0</ele><time>2026-04-19T15:37:34.999Z</time></trkpt><trkpt lat="43.22682577166454" lon="13.037155388693934"><ele>330.0</ele><time>2026-04-19T15:37:35.999Z</time></trkpt><trkpt lat="43.22692055845619" lon="13.037247567026355"><ele>330.0</ele><time>2026-04-19T15:37:36.999Z</time></trkpt><trkpt lat="43.22699151372957" lon="13.037327823705546"><ele>330.0</ele><time>2026-04-19T15:37:37.999Z</time></trkpt><trkpt lat="43.22703602405788" lon="13.037406119867839"><ele>330.0</ele><time>2026-04-19T15:37:38.999Z</time></trkpt><trkpt lat="43.22706308390909" lon="13.037491184751858"><ele>330.1666666666667</ele><time>2026-04-19T15:37:39.999Z</time></trkpt><trkpt lat="43.227070865508495" lon="13.037583761411485"><ele>330.3333333333333</ele><time>2026-04-19T15:37:40.999Z</time></trkpt><trkpt lat="43.227067918427" lon="13.037687539348092"><ele>330.5</ele><time>2026-04-19T15:37:41.999Z</time></trkpt><trkpt lat="43.22705637834741" lon="13.037794086596122"><ele>330.66666666666663</ele><time>2026-04-19T15:37:42.999Z</time></trkpt><trkpt lat="43.2270300084509" lon="13.037893040032483"><ele>330.8333333333333</ele><time>2026-04-19T15:37:43.999Z</time></trkpt><trkpt lat="43.22697923991353" lon="13.037973247350502"><ele>331.0</ele><time>2026-04-19T15:37:44.999Z</time></trkpt><trkpt lat="43.22689752715861" lon="13.038037798936934"><ele>331.0</ele><time>2026-04-19T15:37:45.999Z</time></trkpt><trkpt lat="43.22679985704665" lon="13.038102889655098"><ele>331.0</ele><time>2026-04-19T15:37:46.999Z</time></trkpt><trkpt lat="43.22669563853481" lon="13.038180689271302"><ele>331.0</ele><time>2026-04-19T15:37:47.999Z</time></trkpt><trkpt lat="43.226588706223765" lon="13.038246126728401"><ele>331.0</ele><time>2026-04-19T15:37:48.999Z</time></trkpt><trkpt lat="43.2264758411266" lon="13.038302753330019"><ele>330.75</ele><time>2026-04-19T15:37:49.999Z</time></trkpt><trkpt lat="43.22634962139845" lon="13.038356427528303"><ele>330.5</ele><time>2026-04-19T15:37:50.999Z</time></trkpt><trkpt lat="43.226211364840694" lon="13.038399859290971"><ele>330.25</ele><time>2026-04-19T15:37:51.999Z</time></trkpt><trkpt lat="43.22605636337294" lon="13.038437789152292"><ele>330.0</ele><time>2026-04-19T15:37:52.999Z</time></trkpt><trkpt lat="43.22590791315709" lon="13.038472465005245"><ele>330.0</ele><time>2026-04-19T15:37:53.999Z</time></trkpt><trkpt lat="43.225761950495965" lon="13.038500104881003"><ele>330.0</ele><time>2026-04-19T15:37:54.999Z</time></trkpt><trkpt lat="43.22560956608312" lon="13.038535333570856"><ele>330.0</ele><time>2026-04-19T15:37:55.999Z</time></trkpt><trkpt lat="43.22545245753594" lon="13.038580565618801"><ele>329.3333333333333</ele><time>2026-04-19T15:37:56.999Z</time></trkpt><trkpt lat="43.225288820169055" lon="13.038631094179207"><ele>328.66666666666663</ele><time>2026-04-19T15:37:57.999Z</time></trkpt><trkpt lat="43.225117225360194" lon="13.038687455895756"><ele>328.0</ele><time>2026-04-19T15:37:58.999Z</time></trkpt><trkpt lat="43.22494375904049" lon="13.038752114170087"><ele>327.3333333333333</ele><time>2026-04-19T15:37:59.999Z</time></trkpt><trkpt lat="43.224778048662024" lon="13.038839430677058"><ele>326.6666666666667</ele><time>2026-04-19T15:38:00.999Z</time></trkpt><trkpt lat="43.224616747841864" lon="13.038951707036974"><ele>326.0</ele><time>2026-04-19T15:38:01.999Z</time></trkpt><trkpt lat="43.22446064151253" lon="13.039084002715265"><ele>327.0</ele><time>2026-04-19T15:38:02.999Z</time></trkpt><trkpt lat="43.224312061822936" lon="13.039236716058852"><ele>328.0</ele><time>2026-04-19T15:38:03.999Z</time></trkpt><trkpt lat="43.2241680147228" lon="13.03940883393797"><ele>329.0</ele><time>2026-04-19T15:38:04.999Z</time></trkpt><trkpt lat="43.22402420029913" lon="13.039593090603836"><ele>328.6666666666667</ele><time>2026-04-19T15:38:05.999Z</time></trkpt><trkpt lat="43.223881768681316" lon="13.039788394493312"><ele>328.3333333333333</ele><time>2026-04-19T15:38:06.999Z</time></trkpt><trkpt lat="43.22373653510362" lon="13.039986680422068"><ele>328.0</ele><time>2026-04-19T15:38:07.999Z</time></trkpt><trkpt lat="43.223584904310265" lon="13.040184330835423"><ele>328.0</ele><time>2026-04-19T15:38:08.999Z</time></trkpt><trkpt lat="43.22343237834853" lon="13.040377246971193"><ele>328.0</ele><time>2026-04-19T15:38:09.999Z</time></trkpt><trkpt lat="43.22328262837683" lon="13.040568751873408"><ele>328.0</ele><time>2026-04-19T15:38:10.999Z</time></trkpt><trkpt lat="43.22313230157396" lon="13.040766507800662"><ele>327.3333333333333</ele><time>2026-04-19T15:38:11.999Z</time></trkpt><trkpt lat="43.22298083795311" lon="13.040970730352456"><ele>326.6666666666667</ele><time>2026-04-19T15:38:12.999Z</time></trkpt><trkpt lat="43.222830039971406" lon="13.041176229928942"><ele>326.0</ele><time>2026-04-19T15:38:13.998Z</time></trkpt><trkpt lat="43.22267640085075" lon="13.041373407301394"><ele>326.0</ele><time>2026-04-19T15:38:14.998Z</time></trkpt><trkpt lat="43.22252907335478" lon="13.041568963880827"><ele>326.0</ele><time>2026-04-19T15:38:15.998Z</time></trkpt><trkpt lat="43.22238894307517" lon="13.04176059110176"><ele>326.0</ele><time>2026-04-19T15:38:16.998Z</time></trkpt><trkpt lat="43.22225044997935" lon="13.041949520794857"><ele>324.6666666666667</ele><time>2026-04-19T15:38:17.998Z</time></trkpt><trkpt lat="43.222115369237926" lon="13.042126326739321"><ele>323.3333333333333</ele><time>2026-04-19T15:38:18.998Z</time></trkpt><trkpt lat="43.221985045966214" lon="13.042296630231915"><ele>322.0</ele><time>2026-04-19T15:38:19.998Z</time></trkpt><trkpt lat="43.221855626487255" lon="13.042464086769048"><ele>323.0</ele><time>2026-04-19T15:38:20.998Z</time></trkpt><trkpt lat="43.22173620684888" lon="13.042624920527425"><ele>324.0</ele><time>2026-04-19T15:38:21.998Z</time></trkpt><trkpt lat="43.221623219081216" lon="13.04278018252269"><ele>325.0</ele><time>2026-04-19T15:38:22.998Z</time></trkpt><trkpt lat="43.221511470104026" lon="13.042922091504618"><ele>324.5</ele><time>2026-04-19T15:38:23.998Z</time></trkpt><trkpt lat="43.221392425346146" lon="13.043041815055815"><ele>324.0</ele><time>2026-04-19T15:38:24.998Z</time></trkpt><trkpt lat="43.221261437278656" lon="13.0431374354213"><ele>323.5</ele><time>2026-04-19T15:38:25.998Z</time></trkpt><trkpt lat="43.22112271192276" lon="13.043219115830485"><ele>323.0</ele><time>2026-04-19T15:38:26.998Z</time></trkpt><trkpt lat="43.22098099046592" lon="13.043301986111302"><ele>323.0</ele><time>2026-04-19T15:38:27.998Z</time></trkpt><trkpt lat="43.22083603262713" lon="13.043388076188059"><ele>323.0</ele><time>2026-04-19T15:38:29Z</time></trkpt><trkpt lat="43.22069898148124" lon="13.043470987349087"><ele>323.0</ele><time>2026-04-19T15:38:30Z</time></trkpt><trkpt lat="43.220568691983466" lon="13.043562846253279"><ele>321.33333333333337</ele><time>2026-04-19T15:38:31Z</time></trkpt><trkpt lat="43.22043744602656" lon="13.043676582278868"><ele>319.6666666666667</ele><time>2026-04-19T15:38:32Z</time></trkpt><trkpt lat="43.22031448653477" lon="13.043811941523735"><ele>318.0</ele><time>2026-04-19T15:38:33Z</time></trkpt><trkpt lat="43.220204723051204" lon="13.043966295122823"><ele>318.6666666666667</ele><time>2026-04-19T15:38:34Z</time></trkpt><trkpt lat="43.22010030808592" lon="13.044130798627547"><ele>319.33333333333337</ele><time>2026-04-19T15:38:35Z</time></trkpt><trkpt lat="43.21999001111803" lon="13.044295238782645"><ele>320.0</ele><time>2026-04-19T15:38:36Z</time></trkpt><trkpt lat="43.21987155594747" lon="13.044457457994172"><ele>319.0</ele><time>2026-04-19T15:38:37Z</time></trkpt><trkpt lat="43.21974341768039" lon="13.04462111818973"><ele>318.0</ele><time>2026-04-19T15:38:38Z</time></trkpt><trkpt lat="43.219609361066944" lon="13.044773320359067"><ele>317.0</ele><time>2026-04-19T15:38:39Z</time></trkpt><trkpt lat="43.2194668927546" lon="13.044918101216414"><ele>317.6666666666667</ele><time>2026-04-19T15:38:40Z</time></trkpt><trkpt lat="43.21931810614827" lon="13.045064498540619"><ele>318.3333333333333</ele><time>2026-04-19T15:38:41Z</time></trkpt><trkpt lat="43.21916397330145" lon="13.04521257987288"><ele>319.0</ele><time>2026-04-19T15:38:42Z</time></trkpt><trkpt lat="43.21899619914415" lon="13.045346510305844"><ele>318.3333333333333</ele><time>2026-04-19T15:38:43Z</time></trkpt><trkpt lat="43.21883257559646" lon="13.045497056576375"><ele>317.6666666666667</ele><time>2026-04-19T15:38:44Z</time></trkpt><trkpt lat="43.218669883825044" lon="13.045647806424379"><ele>317.0</ele><time>2026-04-19T15:38:45Z</time></trkpt><trkpt lat="43.218517882259576" lon="13.045790300554842"><ele>317.0</ele><time>2026-04-19T15:38:46Z</time></trkpt><trkpt lat="43.218374850926345" lon="13.045947452698309"><ele>317.0</ele><time>2026-04-19T15:38:47Z</time></trkpt><trkpt lat="43.21821864087006" lon="13.046077567281344"><ele>317.0</ele><time>2026-04-19T15:38:48Z</time></trkpt><trkpt lat="43.21805399479345" lon="13.046192782026326"><ele>316.0</ele><time>2026-04-19T15:38:49Z</time></trkpt><trkpt lat="43.217879019836296" lon="13.046275114628164"><ele>315.0</ele><time>2026-04-19T15:38:50Z</time></trkpt><trkpt lat="43.21769385260885" lon="13.046326659654353"><ele>314.0</ele><time>2026-04-19T15:38:51Z</time></trkpt><trkpt lat="43.21750651958483" lon="13.046356601626131"><ele>314.6666666666667</ele><time>2026-04-19T15:38:52Z</time></trkpt><trkpt lat="43.21731159754581" lon="13.046390219387375"><ele>315.3333333333333</ele><time>2026-04-19T15:38:53Z</time></trkpt><trkpt lat="43.21711371041717" lon="13.046426498961852"><ele>316.0</ele><time>2026-04-19T15:38:54Z</time></trkpt><trkpt lat="43.216915158686994" lon="13.046460936100555"><ele>316.0</ele><time>2026-04-19T15:38:55Z</time></trkpt><trkpt lat="43.21671695128267" lon="13.046494695027919"><ele>316.0</ele><time>2026-04-19T15:38:56Z</time></trkpt><trkpt lat="43.216520027241195" lon="13.046525517586609"><ele>316.0</ele><time>2026-04-19T15:38:57Z</time></trkpt><trkpt lat="43.216321870312996" lon="13.046555450163666"><ele>317.66666666666663</ele><time>2026-04-19T15:38:58Z</time></trkpt><trkpt lat="43.216123297733304" lon="13.046583933556809"><ele>319.3333333333333</ele><time>2026-04-19T15:38:59Z</time></trkpt><trkpt lat="43.215923722630734" lon="13.046604849918888"><ele>321.0</ele><time>2026-04-19T15:39:00Z</time></trkpt><trkpt lat="43.21572466188231" lon="13.046614094188719"><ele>321.0</ele><time>2026-04-19T15:39:01Z</time></trkpt><trkpt lat="43.215526528320865" lon="13.046620907895031"><ele>321.0</ele><time>2026-04-19T15:39:02Z</time></trkpt><trkpt lat="43.215327912246984" lon="13.04663365634109"><ele>321.0</ele><time>2026-04-19T15:39:03Z</time></trkpt><trkpt lat="43.21512935821298" lon="13.046656392195315"><ele>318.0</ele><time>2026-04-19T15:39:04Z</time></trkpt><trkpt lat="43.21492933489683" lon="13.046681169511055"><ele>315.0</ele><time>2026-04-19T15:39:05Z</time></trkpt><trkpt lat="43.214727788431" lon="13.046706259590161"><ele>312.0</ele><time>2026-04-19T15:39:06Z</time></trkpt><trkpt lat="43.21452550402101" lon="13.046730632698166"><ele>311.6666666666667</ele><time>2026-04-19T15:39:06.999Z</time></trkpt><trkpt lat="43.21432399212069" lon="13.046752867405132"><ele>311.33333333333337</ele><time>2026-04-19T15:39:07.999Z</time></trkpt><trkpt lat="43.21412413976738" lon="13.046772593945983"><ele>311.0</ele><time>2026-04-19T15:39:08.999Z</time></trkpt><trkpt lat="43.213925538562336" lon="13.046791362732844"><ele>310.33333333333337</ele><time>2026-04-19T15:39:09.999Z</time></trkpt><trkpt lat="43.213731206393746" lon="13.046808994734533"><ele>309.6666666666667</ele><time>2026-04-19T15:39:10.999Z</time></trkpt><trkpt lat="43.2135388682657" lon="13.04682932778844"><ele>309.0</ele><time>2026-04-19T15:39:11.999Z</time></trkpt><trkpt lat="43.21335051654575" lon="13.046862856841171"><ele>309.0</ele><time>2026-04-19T15:39:12.999Z</time></trkpt><trkpt lat="43.21316182667423" lon="13.046913000904414"><ele>309.0</ele><time>2026-04-19T15:39:13.999Z</time></trkpt><trkpt lat="43.212977320528374" lon="13.0469899644364"><ele>309.0</ele><time>2026-04-19T15:39:14.999Z</time></trkpt><trkpt lat="43.21279822748101" lon="13.047087653016055"><ele>310.0</ele><time>2026-04-19T15:39:15.999Z</time></trkpt><trkpt lat="43.212619814342986" lon="13.047196673805054"><ele>311.0</ele><time>2026-04-19T15:39:16.999Z</time></trkpt><trkpt lat="43.21244508635416" lon="13.047304889460206"><ele>312.0</ele><time>2026-04-19T15:39:17.999Z</time></trkpt><trkpt lat="43.212273237722904" lon="13.047401313538757"><ele>311.6666666666667</ele><time>2026-04-19T15:39:18.999Z</time></trkpt><trkpt lat="43.21210478149594" lon="13.047493848922143"><ele>311.33333333333337</ele><time>2026-04-19T15:39:19.999Z</time></trkpt><trkpt lat="43.21193916403421" lon="13.04758833152338"><ele>311.0</ele><time>2026-04-19T15:39:20.999Z</time></trkpt><trkpt lat="43.21177453353484" lon="13.04768322654913"><ele>311.0</ele><time>2026-04-19T15:39:21.999Z</time></trkpt><trkpt lat="43.21160824678087" lon="13.047776984654936"><ele>311.0</ele><time>2026-04-19T15:39:22.999Z</time></trkpt><trkpt lat="43.21143999910937" lon="13.047869208008407"><ele>311.0</ele><time>2026-04-19T15:39:23.999Z</time></trkpt><trkpt lat="43.21127540541781" lon="13.047958451002415"><ele>313.0</ele><time>2026-04-19T15:39:24.999Z</time></trkpt><trkpt lat="43.21111839120576" lon="13.048034675641155"><ele>315.0</ele><time>2026-04-19T15:39:25.999Z</time></trkpt><trkpt lat="43.210960277174074" lon="13.048097583537768"><ele>317.0</ele><time>2026-04-19T15:39:26.999Z</time></trkpt><trkpt lat="43.210801048140155" lon="13.048146636496607"><ele>318.33333333333337</ele><time>2026-04-19T15:39:27.999Z</time></trkpt><trkpt lat="43.210644650624566" lon="13.048180004487172"><ele>319.6666666666667</ele><time>2026-04-19T15:39:28.999Z</time></trkpt><trkpt lat="43.210490938176726" lon="13.048194657978737"><ele>321.0</ele><time>2026-04-19T15:39:29.999Z</time></trkpt><trkpt lat="43.2103481290991" lon="13.048198967661502"><ele>321.0</ele><time>2026-04-19T15:39:30.999Z</time></trkpt><trkpt lat="43.21021543902343" lon="13.048206945048955"><ele>321.0</ele><time>2026-04-19T15:39:31.999Z</time></trkpt><trkpt lat="43.21009413519704" lon="13.048221047666317"><ele>321.0</ele><time>2026-04-19T15:39:32.999Z</time></trkpt><trkpt lat="43.20998118117159" lon="13.04824818583426"><ele>321.0</ele><time>2026-04-19T15:39:33.999Z</time></trkpt><trkpt lat="43.20987497342933" lon="13.048299080414564"><ele>319.5</ele><time>2026-04-19T15:39:34.999Z</time></trkpt><trkpt lat="43.209773366556774" lon="13.04837557074241"><ele>318.0</ele><time>2026-04-19T15:39:35.999Z</time></trkpt><trkpt lat="43.20967975946905" lon="13.048473563483595"><ele>316.5</ele><time>2026-04-19T15:39:36.999Z</time></trkpt><trkpt lat="43.20959534712437" lon="13.048590246335513"><ele>315.0</ele><time>2026-04-19T15:39:37.999Z</time></trkpt><trkpt lat="43.20952141013201" lon="13.048722764772215"><ele>315.0</ele><time>2026-04-19T15:39:38.999Z</time></trkpt><trkpt lat="43.20945827159907" lon="13.048867561207327"><ele>315.0</ele><time>2026-04-19T15:39:39.999Z</time></trkpt><trkpt lat="43.2094002578093" lon="13.049019296938301"><ele>315.0</ele><time>2026-04-19T15:39:40.999Z</time></trkpt><trkpt lat="43.209339614462955" lon="13.049169166803702"><ele>315.0</ele><time>2026-04-19T15:39:41.999Z</time></trkpt><trkpt lat="43.209276853086315" lon="13.04932132991313"><ele>314.25</ele><time>2026-04-19T15:39:42.999Z</time></trkpt><trkpt lat="43.209216431418604" lon="13.049467217993172"><ele>313.5</ele><time>2026-04-19T15:39:43.999Z</time></trkpt><trkpt lat="43.20915510591568" lon="13.049609979472237"><ele>312.75</ele><time>2026-04-19T15:39:44.999Z</time></trkpt><trkpt lat="43.20909552747436" lon="13.04975239045549"><ele>312.0</ele><time>2026-04-19T15:39:45.999Z</time></trkpt><trkpt lat="43.20903866868622" lon="13.04989316121075"><ele>311.6</ele><time>2026-04-19T15:39:46.999Z</time></trkpt><trkpt lat="43.20898336131427" lon="13.050028508124706"><ele>311.2</ele><time>2026-04-19T15:39:47.999Z</time></trkpt><trkpt lat="43.20892879753655" lon="13.050162510970194"><ele>310.8</ele><time>2026-04-19T15:39:48.999Z</time></trkpt><trkpt lat="43.20887688808821" lon="13.05029440058592"><ele>310.4</ele><time>2026-04-19T15:39:49.999Z</time></trkpt><trkpt lat="43.20882855550346" lon="13.05041845080187"><ele>310.0</ele><time>2026-04-19T15:39:50.999Z</time></trkpt><trkpt lat="43.20878277805198" lon="13.05053475235567"><ele>310.0</ele><time>2026-04-19T15:39:51.999Z</time></trkpt><trkpt lat="43.208737822974385" lon="13.050647062320852"><ele>310.0</ele><time>2026-04-19T15:39:52.999Z</time></trkpt><trkpt lat="43.20869485470097" lon="13.050752385884328"><ele>310.0</ele><time>2026-04-19T15:39:53.999Z</time></trkpt><trkpt lat="43.208647592765075" lon="13.050842413189788"><ele>310.0</ele><time>2026-04-19T15:39:54.999Z</time></trkpt><trkpt lat="43.208587695360734" lon="13.050908733527129"><ele>310.0</ele><time>2026-04-19T15:39:55.999Z</time></trkpt><trkpt lat="43.20852066414643" lon="13.050964234626685"><ele>310.0</ele><time>2026-04-19T15:39:56.999Z</time></trkpt><trkpt lat="43.20846472923558" lon="13.05102988473655"><ele>310.16666666666663</ele><time>2026-04-19T15:39:57.999Z</time></trkpt><trkpt lat="43.20842167840835" lon="13.051118041656096"><ele>310.3333333333333</ele><time>2026-04-19T15:39:58.999Z</time></trkpt><trkpt lat="43.20843048536969" lon="13.051243201376263"><ele>310.5</ele><time>2026-04-19T15:39:59.999Z</time></trkpt><trkpt lat="43.208430634918734" lon="13.051362641718589"><ele>310.6666666666667</ele><time>2026-04-19T15:40:00.999Z</time></trkpt><trkpt lat="43.20840034514649" lon="13.051484578439206"><ele>310.83333333333337</ele><time>2026-04-19T15:40:01.999Z</time></trkpt><trkpt lat="43.2083500578696" lon="13.05159895278492"><ele>311.0</ele><time>2026-04-19T15:40:02.999Z</time></trkpt><trkpt lat="43.20830090451529" lon="13.05172068890855"><ele>311.2</ele><time>2026-04-19T15:40:03.999Z</time></trkpt><trkpt lat="43.20825228516331" lon="13.051843173170122"><ele>311.40000000000003</ele><time>2026-04-19T15:40:04.999Z</time></trkpt><trkpt lat="43.208202787840435" lon="13.05195690922615"><ele>311.6</ele><time>2026-04-19T15:40:05.999Z</time></trkpt><trkpt lat="43.208155010794" lon="13.05207606358914"><ele>311.8</ele><time>2026-04-19T15:40:06.999Z</time></trkpt><trkpt lat="43.208107037083316" lon="13.052196864549806"><ele>312.0</ele><time>2026-04-19T15:40:07.999Z</time></trkpt><trkpt lat="43.20805668362926" lon="13.052324103848319"><ele>312.5</ele><time>2026-04-19T15:40:08.999Z</time></trkpt><trkpt lat="43.208005684684835" lon="13.052454224428024"><ele>313.0</ele><time>2026-04-19T15:40:09.999Z</time></trkpt><trkpt lat="43.207950409541056" lon="13.052587649522643"><ele>313.5</ele><time>2026-04-19T15:40:10.999Z</time></trkpt><trkpt lat="43.207890733440635" lon="13.052724148438832"><ele>314.0</ele><time>2026-04-19T15:40:11.999Z</time></trkpt><trkpt lat="43.20782931537745" lon="13.05287016095905"><ele>314.0</ele><time>2026-04-19T15:40:12.999Z</time></trkpt><trkpt lat="43.207771944004136" lon="13.053015945904967"><ele>314.0</ele><time>2026-04-19T15:40:13.999Z</time></trkpt><trkpt lat="43.20771256443562" lon="13.053170151592033"><ele>314.0</ele><time>2026-04-19T15:40:14.999Z</time></trkpt><trkpt lat="43.20764664231997" lon="13.053327670376113"><ele>314.0</ele><time>2026-04-19T15:40:15.999Z</time></trkpt><trkpt lat="43.20757348034224" lon="13.053486680562361"><ele>314.0</ele><time>2026-04-19T15:40:16.998Z</time></trkpt><trkpt lat="43.20749161556278" lon="13.053642733483791"><ele>314.0</ele><time>2026-04-19T15:40:17.998Z</time></trkpt><trkpt lat="43.20739538147939" lon="13.053789742994297"><ele>314.0</ele><time>2026-04-19T15:40:18.998Z</time></trkpt><trkpt lat="43.20728641529346" lon="13.053926026557146"><ele>314.0</ele><time>2026-04-19T15:40:19.998Z</time></trkpt><trkpt lat="43.20716108003002" lon="13.054044733254392"><ele>314.6666666666667</ele><time>2026-04-19T15:40:20.998Z</time></trkpt><trkpt lat="43.20702536131404" lon="13.05414280220259"><ele>315.3333333333333</ele><time>2026-04-19T15:40:21.998Z</time></trkpt><trkpt lat="43.206882925254135" lon="13.054216222637482"><ele>316.0</ele><time>2026-04-19T15:40:22.998Z</time></trkpt><trkpt lat="43.20673299145389" lon="13.054270960341197"><ele>316.0</ele><time>2026-04-19T15:40:23.998Z</time></trkpt><trkpt lat="43.20657993709047" lon="13.054311577177828"><ele>316.0</ele><time>2026-04-19T15:40:24.998Z</time></trkpt><trkpt lat="43.206427158652964" lon="13.054331453730311"><ele>316.0</ele><time>2026-04-19T15:40:25.998Z</time></trkpt><trkpt lat="43.206276528581036" lon="13.05433833337334"><ele>316.5</ele><time>2026-04-19T15:40:26.998Z</time></trkpt><trkpt lat="43.20613434205175" lon="13.054334973571047"><ele>317.0</ele><time>2026-04-19T15:40:27.998Z</time></trkpt><trkpt lat="43.20599682156877" lon="13.054332601419867"><ele>317.5</ele><time>2026-04-19T15:40:28.998Z</time></trkpt><trkpt lat="43.20585738073076" lon="13.054333333263113"><ele>318.0</ele><time>2026-04-19T15:40:29.998Z</time></trkpt><trkpt lat="43.205715583861" lon="13.054331620470178"><ele>318.5</ele><time>2026-04-19T15:40:30.998Z</time></trkpt><trkpt lat="43.20557220317155" lon="13.05433258185983"><ele>319.0</ele><time>2026-04-19T15:40:31.998Z</time></trkpt><trkpt lat="43.20542840614881" lon="13.054334644238507"><ele>319.5</ele><time>2026-04-19T15:40:32.998Z</time></trkpt><trkpt lat="43.20528395762594" lon="13.054338322905192"><ele>320.0</ele><time>2026-04-19T15:40:33.998Z</time></trkpt><trkpt lat="43.20513821638117" lon="13.054341689260422"><ele>320.0</ele><time>2026-04-19T15:40:35Z</time></trkpt><trkpt lat="43.204992961891264" lon="13.054344435327383"><ele>320.0</ele><time>2026-04-19T15:40:36Z</time></trkpt><trkpt lat="43.20484777474729" lon="13.054347540821428"><ele>320.0</ele><time>2026-04-19T15:40:37Z</time></trkpt><trkpt lat="43.20470992515872" lon="13.054349240789422"><ele>320.0</ele><time>2026-04-19T15:40:38Z</time></trkpt><trkpt lat="43.20457593137955" lon="13.054349640828885"><ele>319.8</ele><time>2026-04-19T15:40:39Z</time></trkpt><trkpt lat="43.20445185009953" lon="13.054355829362757"><ele>319.6</ele><time>2026-04-19T15:40:40Z</time></trkpt><trkpt lat="43.2043436691493" lon="13.054360404787133"><ele>319.4</ele><time>2026-04-19T15:40:41Z</time></trkpt><trkpt lat="43.20425621638929" lon="13.054370675197314"><ele>319.2</ele><time>2026-04-19T15:40:42Z</time></trkpt><trkpt lat="43.204188668453504" lon="13.054358537152964"><ele>319.0</ele><time>2026-04-19T15:40:43Z</time></trkpt><trkpt lat="43.204153214573196" lon="13.054582319213043"><ele>319.0</ele><time>2026-04-19T15:40:46Z</time></trkpt><trkpt lat="43.20418098136272" lon="13.054680613900656"><ele>319.0</ele><time>2026-04-19T15:40:48Z</time></trkpt><trkpt lat="43.204211794411485" lon="13.05479787094128"><ele>319.0</ele><time>2026-04-19T15:40:50Z</time></trkpt><trkpt lat="43.204253252835585" lon="13.054863232914478"><ele>319.0</ele><time>2026-04-19T15:40:51Z</time></trkpt><trkpt lat="43.20431645313271" lon="13.054922738395783"><ele>319.0</ele><time>2026-04-19T15:40:52Z</time></trkpt><trkpt lat="43.204380965712275" lon="13.054967034879297"><ele>319.0</ele><time>2026-04-19T15:40:53Z</time></trkpt><trkpt lat="43.204430575157666" lon="13.055032565082005"><ele>319.0</ele><time>2026-04-19T15:40:54Z</time></trkpt><trkpt lat="43.20450732628864" lon="13.055105503109584"><ele>317.8</ele><time>2026-04-19T15:40:55Z</time></trkpt><trkpt lat="43.20458993349579" lon="13.055182778713773"><ele>316.59999999999997</ele><time>2026-04-19T15:40:56Z</time></trkpt><trkpt lat="43.2046805731149" lon="13.055265052094548"><ele>315.4</ele><time>2026-04-19T15:40:57Z</time></trkpt><trkpt lat="43.20477472974897" lon="13.055347866698742"><ele>314.2</ele><time>2026-04-19T15:40:58Z</time></trkpt><trkpt lat="43.20485764969364" lon="13.055435800979708"><ele>313.0</ele><time>2026-04-19T15:40:59Z</time></trkpt><trkpt lat="43.20494271078101" lon="13.055544041668432"><ele>313.0</ele><time>2026-04-19T15:41:00Z</time></trkpt><trkpt lat="43.20502266180207" lon="13.055662915089712"><ele>313.0</ele><time>2026-04-19T15:41:01Z</time></trkpt><trkpt lat="43.20510244648666" lon="13.055783788615244"><ele>313.0</ele><time>2026-04-19T15:41:02Z</time></trkpt><trkpt lat="43.20517248798596" lon="13.055928348028896"><ele>313.0</ele><time>2026-04-19T15:41:03Z</time></trkpt><trkpt lat="43.20525477862549" lon="13.056062187961446"><ele>312.0</ele><time>2026-04-19T15:41:04Z</time></trkpt><trkpt lat="43.20535522328011" lon="13.056187849776084"><ele>311.0</ele><time>2026-04-19T15:41:05Z</time></trkpt><trkpt lat="43.20544061651518" lon="13.056337576434014"><ele>310.0</ele><time>2026-04-19T15:41:06Z</time></trkpt><trkpt lat="43.20553089136727" lon="13.056473705188772"><ele>309.0</ele><time>2026-04-19T15:41:07Z</time></trkpt><trkpt lat="43.205624112494746" lon="13.056587882338244"><ele>309.25</ele><time>2026-04-19T15:41:08Z</time></trkpt><trkpt lat="43.205731931612554" lon="13.056688001598557"><ele>309.5</ele><time>2026-04-19T15:41:09Z</time></trkpt><trkpt lat="43.20584286029183" lon="13.056768711696675"><ele>309.75</ele><time>2026-04-19T15:41:10Z</time></trkpt><trkpt lat="43.20596166587559" lon="13.0568214448947"><ele>310.0</ele><time>2026-04-19T15:41:11Z</time></trkpt><trkpt lat="43.20608657779561" lon="13.05685493051734"><ele>310.0</ele><time>2026-04-19T15:41:12Z</time></trkpt><trkpt lat="43.206203750485976" lon="13.056897764712946"><ele>310.0</ele><time>2026-04-19T15:41:12.999Z</time></trkpt><trkpt lat="43.20631629951277" lon="13.056949964668735"><ele>310.0</ele><time>2026-04-19T15:41:13.999Z</time></trkpt><trkpt lat="43.206428270664276" lon="13.056998739969007"><ele>310.0</ele><time>2026-04-19T15:41:14.999Z</time></trkpt><trkpt lat="43.206529678172494" lon="13.057043724861538"><ele>310.4</ele><time>2026-04-19T15:41:15.999Z</time></trkpt><trkpt lat="43.206638996436816" lon="13.057091690172436"><ele>310.8</ele><time>2026-04-19T15:41:16.999Z</time></trkpt><trkpt lat="43.2067441747664" lon="13.057138775067363"><ele>311.2</ele><time>2026-04-19T15:41:17.999Z</time></trkpt><trkpt lat="43.20684584999959" lon="13.05717805997455"><ele>311.6</ele><time>2026-04-19T15:41:18.999Z</time></trkpt><trkpt lat="43.206923774800494" lon="13.05721513145773"><ele>312.0</ele><time>2026-04-19T15:41:19.999Z</time></trkpt><trkpt lat="43.20698431120678" lon="13.057240615528563"><ele>312.0</ele><time>2026-04-19T15:41:20.999Z</time></trkpt><trkpt lat="43.20707988368365" lon="13.057280342985607"><ele>312.0</ele><time>2026-04-19T15:41:22.999Z</time></trkpt><trkpt lat="43.20715103917346" lon="13.057313937316119"><ele>312.0</ele><time>2026-04-19T15:41:24.999Z</time></trkpt><trkpt lat="43.20722381862574" lon="13.057345432279153"><ele>312.0</ele><time>2026-04-19T15:41:26.999Z</time></trkpt><trkpt lat="43.20730675553802" lon="13.057385266643998"><ele>312.0</ele><time>2026-04-19T15:41:28.999Z</time></trkpt><trkpt lat="43.2073769801582" lon="13.057434727462036"><ele>312.0</ele><time>2026-04-19T15:41:30.999Z</time></trkpt><trkpt lat="43.20743533296586" lon="13.057519340846932"><ele>311.5</ele><time>2026-04-19T15:41:32.999Z</time></trkpt><trkpt lat="43.207505697813886" lon="13.057571624059728"><ele>311.0</ele><time>2026-04-19T15:41:34.999Z</time></trkpt><trkpt lat="43.20760896130188" lon="13.05757560490318"><ele>310.5</ele><time>2026-04-19T15:41:36.999Z</time></trkpt><trkpt lat="43.20767244134522" lon="13.05756447646793"><ele>310.0</ele><time>2026-04-19T15:41:37.999Z</time></trkpt><trkpt lat="43.20774099521086" lon="13.057569401432179"><ele>309.5</ele><time>2026-04-19T15:41:38.999Z</time></trkpt><trkpt lat="43.207807719089104" lon="13.05759760217076"><ele>309.0</ele><time>2026-04-19T15:41:39.999Z</time></trkpt><trkpt lat="43.207882733034175" lon="13.05763550559917"><ele>309.0</ele><time>2026-04-19T15:41:40.999Z</time></trkpt><trkpt lat="43.207963916743815" lon="13.057680378145431"><ele>309.0</ele><time>2026-04-19T15:41:41.999Z</time></trkpt><trkpt lat="43.208050196788875" lon="13.057720351207058"><ele>309.0</ele><time>2026-04-19T15:41:42.999Z</time></trkpt><trkpt lat="43.20814099171268" lon="13.057758879957612"><ele>309.0</ele><time>2026-04-19T15:41:43.999Z</time></trkpt><trkpt lat="43.20823241608169" lon="13.057799518929123"><ele>309.0</ele><time>2026-04-19T15:41:44.999Z</time></trkpt><trkpt lat="43.20832670450523" lon="13.057843589042468"><ele>309.2</ele><time>2026-04-19T15:41:45.999Z</time></trkpt><trkpt lat="43.20842269077253" lon="13.057895142104458"><ele>309.4</ele><time>2026-04-19T15:41:46.999Z</time></trkpt><trkpt lat="43.20851315727508" lon="13.057952067571106"><ele>309.6</ele><time>2026-04-19T15:41:47.999Z</time></trkpt><trkpt lat="43.208591128206194" lon="13.058021978729196"><ele>309.8</ele><time>2026-04-19T15:41:48.999Z</time></trkpt><trkpt lat="43.2086538894407" lon="13.058115068669135"><ele>310.0</ele><time>2026-04-19T15:41:49.999Z</time></trkpt><trkpt lat="43.208724539746605" lon="13.058172485563569"><ele>310.0</ele><time>2026-04-19T15:41:50.999Z</time></trkpt><trkpt lat="43.20879779003933" lon="13.058261136738281"><ele>310.0</ele><time>2026-04-19T15:41:52.999Z</time></trkpt><trkpt lat="43.20884227464113" lon="13.058338465337483"><ele>310.0</ele><time>2026-04-19T15:41:55.999Z</time></trkpt><trkpt lat="43.20892517386422" lon="13.05840869368108"><ele>310.0</ele><time>2026-04-19T15:42:25.998Z</time></trkpt><trkpt lat="43.20899144784874" lon="13.058491000981002"><ele>310.0</ele><time>2026-04-19T15:42:27.998Z</time></trkpt><trkpt lat="43.20907010114766" lon="13.058584939578312"><ele>308.16666666666663</ele><time>2026-04-19T15:42:29.998Z</time></trkpt><trkpt lat="43.20914844520496" lon="13.058683979631152"><ele>306.3333333333333</ele><time>2026-04-19T15:42:31.998Z</time></trkpt><trkpt lat="43.20920174260009" lon="13.058764408120599"><ele>304.5</ele><time>2026-04-19T15:42:58Z</time></trkpt><trkpt lat="43.20928544803311" lon="13.058863075714811"><ele>302.6666666666667</ele><time>2026-04-19T15:43:00Z</time></trkpt><trkpt lat="43.20933814670977" lon="13.058927208573891"><ele>300.83333333333337</ele><time>2026-04-19T15:43:01Z</time></trkpt><trkpt lat="43.209397482588635" lon="13.058993563793274"><ele>299.0</ele><time>2026-04-19T15:43:02Z</time></trkpt><trkpt lat="43.20946577871869" lon="13.059074762440794"><ele>298.4</ele><time>2026-04-19T15:43:03Z</time></trkpt><trkpt lat="43.20954192146117" lon="13.059161990063348"><ele>297.79999999999995</ele><time>2026-04-19T15:43:04Z</time></trkpt><trkpt lat="43.20961917513974" lon="13.05925718543535"><ele>297.20000000000005</ele><time>2026-04-19T15:43:05Z</time></trkpt><trkpt lat="43.20970126738066" lon="13.059358908366658"><ele>296.6</ele><time>2026-04-19T15:43:06Z</time></trkpt><trkpt lat="43.20979219171208" lon="13.059465158141428"><ele>296.0</ele><time>2026-04-19T15:43:07Z</time></trkpt><trkpt lat="43.20989107423839" lon="13.059571433473668"><ele>296.0</ele><time>2026-04-19T15:43:08Z</time></trkpt><trkpt lat="43.21000065791506" lon="13.059666314685275"><ele>296.0</ele><time>2026-04-19T15:43:09Z</time></trkpt><trkpt lat="43.210120337793995" lon="13.059740401018901"><ele>296.0</ele><time>2026-04-19T15:43:10Z</time></trkpt><trkpt lat="43.21024827625649" lon="13.059799587349262"><ele>296.0</ele><time>2026-04-19T15:43:11Z</time></trkpt><trkpt lat="43.21038359516202" lon="13.059839444798397"><ele>296.0</ele><time>2026-04-19T15:43:12Z</time></trkpt><trkpt lat="43.21052737409872" lon="13.05985819395884"><ele>296.0</ele><time>2026-04-19T15:43:13Z</time></trkpt><trkpt lat="43.210676633354474" lon="13.059853423534497"><ele>296.0</ele><time>2026-04-19T15:43:14Z</time></trkpt><trkpt lat="43.21082363966311" lon="13.059841784978541"><ele>296.0</ele><time>2026-04-19T15:43:15Z</time></trkpt><trkpt lat="43.210972206765994" lon="13.059838188749234"><ele>296.5</ele><time>2026-04-19T15:43:16Z</time></trkpt><trkpt lat="43.211121793147356" lon="13.059843797871437"><ele>297.0</ele><time>2026-04-19T15:43:17Z</time></trkpt><trkpt lat="43.21125688494473" lon="13.05988717670369"><ele>297.5</ele><time>2026-04-19T15:43:18Z</time></trkpt><trkpt lat="43.21138730236972" lon="13.059946279637748"><ele>298.0</ele><time>2026-04-19T15:43:19Z</time></trkpt><trkpt lat="43.2115269621476" lon="13.059994976368992"><ele>294.66666666666663</ele><time>2026-04-19T15:43:20Z</time></trkpt><trkpt lat="43.21166536839897" lon="13.060069617881316"><ele>291.3333333333333</ele><time>2026-04-19T15:43:20.999Z</time></trkpt><trkpt lat="43.211817551463135" lon="13.060123076622363"><ele>288.0</ele><time>2026-04-19T15:43:21.999Z</time></trkpt><trkpt lat="43.211982510454426" lon="13.060159896595037"><ele>288.0</ele><time>2026-04-19T15:43:22.999Z</time></trkpt><trkpt lat="43.21214425880925" lon="13.060179492677713"><ele>288.0</ele><time>2026-04-19T15:43:23.999Z</time></trkpt><trkpt lat="43.2123089587736" lon="13.060183411705125"><ele>288.0</ele><time>2026-04-19T15:43:24.999Z</time></trkpt><trkpt lat="43.21247651770471" lon="13.060174498582663"><ele>289.0</ele><time>2026-04-19T15:43:25.999Z</time></trkpt><trkpt lat="43.212653715716804" lon="13.060165705851395"><ele>290.0</ele><time>2026-04-19T15:43:26.999Z</time></trkpt><trkpt lat="43.21282914618445" lon="13.060155717474958"><ele>291.0</ele><time>2026-04-19T15:43:27.999Z</time></trkpt><trkpt lat="43.21300562591643" lon="13.06013970867207"><ele>290.6666666666667</ele><time>2026-04-19T15:43:28.999Z</time></trkpt><trkpt lat="43.21318334063285" lon="13.060123918597942"><ele>290.33333333333337</ele><time>2026-04-19T15:43:29.999Z</time></trkpt><trkpt lat="43.213356029462844" lon="13.060108989904979"><ele>290.0</ele><time>2026-04-19T15:43:30.999Z</time></trkpt><trkpt lat="43.21353189770094" lon="13.060095951663389"><ele>290.0</ele><time>2026-04-19T15:43:31.999Z</time></trkpt><trkpt lat="43.21370329315272" lon="13.06008992576359"><ele>290.0</ele><time>2026-04-19T15:43:32.999Z</time></trkpt><trkpt lat="43.213867093229425" lon="13.060115273502943"><ele>290.0</ele><time>2026-04-19T15:43:33.999Z</time></trkpt><trkpt lat="43.21402860584582" lon="13.060176217352403"><ele>290.0</ele><time>2026-04-19T15:43:34.999Z</time></trkpt><trkpt lat="43.21418232358755" lon="13.06026316714428"><ele>290.0</ele><time>2026-04-19T15:43:35.999Z</time></trkpt><trkpt lat="43.2143249773225" lon="13.060377226285496"><ele>290.0</ele><time>2026-04-19T15:43:36.999Z</time></trkpt><trkpt lat="43.21445709064678" lon="13.060510210793204"><ele>290.0</ele><time>2026-04-19T15:43:37.999Z</time></trkpt><trkpt lat="43.214578038822594" lon="13.06066158859769"><ele>290.0</ele><time>2026-04-19T15:43:38.999Z</time></trkpt><trkpt lat="43.214698436925104" lon="13.060821455435953"><ele>290.0</ele><time>2026-04-19T15:43:39.999Z</time></trkpt><trkpt lat="43.21482789014896" lon="13.06098735688945"><ele>291.33333333333337</ele><time>2026-04-19T15:43:40.999Z</time></trkpt><trkpt lat="43.21496490994084" lon="13.0611498805238"><ele>292.6666666666667</ele><time>2026-04-19T15:43:41.999Z</time></trkpt><trkpt lat="43.215105625805634" lon="13.061320635826764"><ele>294.0</ele><time>2026-04-19T15:43:42.999Z</time></trkpt><trkpt lat="43.215246268293704" lon="13.061484141547595"><ele>293.6666666666667</ele><time>2026-04-19T15:43:43.999Z</time></trkpt><trkpt lat="43.21539246538194" lon="13.061628713741948"><ele>293.33333333333337</ele><time>2026-04-19T15:43:44.999Z</time></trkpt><trkpt lat="43.21554985581253" lon="13.06175348740927"><ele>293.0</ele><time>2026-04-19T15:43:45.999Z</time></trkpt><trkpt lat="43.21572336204896" lon="13.061836317411199"><ele>293.0</ele><time>2026-04-19T15:43:46.999Z</time></trkpt><trkpt lat="43.21589640797962" lon="13.061922347594228"><ele>293.0</ele><time>2026-04-19T15:43:47.999Z</time></trkpt><trkpt lat="43.21607549920028" lon="13.062014981097223"><ele>293.0</ele><time>2026-04-19T15:43:48.999Z</time></trkpt><trkpt lat="43.21624244702159" lon="13.062134778766747"><ele>293.0</ele><time>2026-04-19T15:43:49.999Z</time></trkpt><trkpt lat="43.216398054984545" lon="13.06228352087602"><ele>293.0</ele><time>2026-04-19T15:43:50.999Z</time></trkpt><trkpt lat="43.21653401267462" lon="13.062460280483517"><ele>293.0</ele><time>2026-04-19T15:43:51.999Z</time></trkpt><trkpt lat="43.216656310578934" lon="13.06265320739515"><ele>293.0</ele><time>2026-04-19T15:43:52.999Z</time></trkpt><trkpt lat="43.216772797515176" lon="13.062856134289834"><ele>293.0</ele><time>2026-04-19T15:43:53.999Z</time></trkpt><trkpt lat="43.21688553921087" lon="13.063061174096186"><ele>293.0</ele><time>2026-04-19T15:43:54.999Z</time></trkpt><trkpt lat="43.21701256164773" lon="13.063244536102658"><ele>294.0</ele><time>2026-04-19T15:43:55.999Z</time></trkpt><trkpt lat="43.21713903611135" lon="13.063433531693521"><ele>295.0</ele><time>2026-04-19T15:43:56.999Z</time></trkpt><trkpt lat="43.2172951731357" lon="13.063551214757858"><ele>296.0</ele><time>2026-04-19T15:43:57.999Z</time></trkpt><trkpt lat="43.21738305480925" lon="13.063761830003623"><ele>296.0</ele><time>2026-04-19T15:43:58.999Z</time></trkpt><trkpt lat="43.21744955360285" lon="13.063983041978178"><ele>296.0</ele><time>2026-04-19T15:43:59.999Z</time></trkpt><trkpt lat="43.217496495618086" lon="13.064209771661455"><ele>296.0</ele><time>2026-04-19T15:44:00.999Z</time></trkpt><trkpt lat="43.217548588106446" lon="13.064427281969914"><ele>294.33333333333337</ele><time>2026-04-19T15:44:01.999Z</time></trkpt><trkpt lat="43.21760318694842" lon="13.064647425954568"><ele>292.6666666666667</ele><time>2026-04-19T15:44:02.999Z</time></trkpt><trkpt lat="43.21766164927806" lon="13.06486102164655"><ele>291.0</ele><time>2026-04-19T15:44:03.999Z</time></trkpt><trkpt lat="43.21773836282902" lon="13.065068453263933"><ele>290.3333333333333</ele><time>2026-04-19T15:44:04.999Z</time></trkpt><trkpt lat="43.2178302390226" lon="13.065263602064647"><ele>289.66666666666663</ele><time>2026-04-19T15:44:05.999Z</time></trkpt><trkpt lat="43.21793966988049" lon="13.065444791133908"><ele>289.0</ele><time>2026-04-19T15:44:06.999Z</time></trkpt><trkpt lat="43.21805874516882" lon="13.065616059551136"><ele>290.0</ele><time>2026-04-19T15:44:07.999Z</time></trkpt><trkpt lat="43.21818723332504" lon="13.065767494477566"><ele>291.0</ele><time>2026-04-19T15:44:08.999Z</time></trkpt><trkpt lat="43.21832078632724" lon="13.065908487034644"><ele>292.0</ele><time>2026-04-19T15:44:09.999Z</time></trkpt><trkpt lat="43.218452276115" lon="13.066049787118176"><ele>292.0</ele><time>2026-04-19T15:44:10.999Z</time></trkpt><trkpt lat="43.21856992074853" lon="13.066196489753533"><ele>292.0</ele><time>2026-04-19T15:44:11.999Z</time></trkpt><trkpt lat="43.21867612902611" lon="13.066344517226856"><ele>292.0</ele><time>2026-04-19T15:44:12.999Z</time></trkpt><trkpt lat="43.21876474742771" lon="13.066501399910115"><ele>291.0</ele><time>2026-04-19T15:44:13.999Z</time></trkpt><trkpt lat="43.218815993434966" lon="13.066689642830726"><ele>290.0</ele><time>2026-04-19T15:44:14.999Z</time></trkpt><trkpt lat="43.218863918199354" lon="13.066870039140905"><ele>289.0</ele><time>2026-04-19T15:44:15.999Z</time></trkpt><trkpt lat="43.21890967671249" lon="13.067052404330344"><ele>288.0</ele><time>2026-04-19T15:44:16.999Z</time></trkpt><trkpt lat="43.218963021042796" lon="13.067225459475063"><ele>288.75</ele><time>2026-04-19T15:44:17.999Z</time></trkpt><trkpt lat="43.2189959383071" lon="13.067406363437952"><ele>289.5</ele><time>2026-04-19T15:44:18.999Z</time></trkpt><trkpt lat="43.21902787372321" lon="13.06756975525897"><ele>290.25</ele><time>2026-04-19T15:44:19.999Z</time></trkpt><trkpt lat="43.21906395173578" lon="13.067724568537903"><ele>291.0</ele><time>2026-04-19T15:44:20.999Z</time></trkpt><trkpt lat="43.21909606977074" lon="13.067870388259095"><ele>291.0</ele><time>2026-04-19T15:44:21.999Z</time></trkpt><trkpt lat="43.219128701927254" lon="13.068019662955919"><ele>291.0</ele><time>2026-04-19T15:44:22.999Z</time></trkpt><trkpt lat="43.21914684986555" lon="13.068180251410055"><ele>291.0</ele><time>2026-04-19T15:44:23.999Z</time></trkpt><trkpt lat="43.21916647847793" lon="13.068323702700589"><ele>291.0</ele><time>2026-04-19T15:44:24.999Z</time></trkpt><trkpt lat="43.21916622519499" lon="13.0684737633268"><ele>291.0</ele><time>2026-04-19T15:44:25.999Z</time></trkpt><trkpt lat="43.21915202778458" lon="13.068628237822528"><ele>290.75</ele><time>2026-04-19T15:44:26.999Z</time></trkpt><trkpt lat="43.21913134084797" lon="13.068778196533138"><ele>290.5</ele><time>2026-04-19T15:44:27.999Z</time></trkpt><trkpt lat="43.219111069550934" lon="13.068926367165872"><ele>290.25</ele><time>2026-04-19T15:44:28.999Z</time></trkpt><trkpt lat="43.21909282888855" lon="13.069084468029573"><ele>290.0</ele><time>2026-04-19T15:44:29.999Z</time></trkpt><trkpt lat="43.219082296264936" lon="13.069247254610305"><ele>290.0</ele><time>2026-04-19T15:44:30.999Z</time></trkpt><trkpt lat="43.2190755066101" lon="13.069414685168208"><ele>290.0</ele><time>2026-04-19T15:44:31.998Z</time></trkpt><trkpt lat="43.219069765598825" lon="13.069585994341786"><ele>290.0</ele><time>2026-04-19T15:44:32.998Z</time></trkpt><trkpt lat="43.219067189199755" lon="13.069761677034093"><ele>290.0</ele><time>2026-04-19T15:44:33.998Z</time></trkpt><trkpt lat="43.219066978612126" lon="13.06994072905249"><ele>290.0</ele><time>2026-04-19T15:44:34.998Z</time></trkpt><trkpt lat="43.219068630636905" lon="13.070124269156741"><ele>290.0</ele><time>2026-04-19T15:44:35.998Z</time></trkpt><trkpt lat="43.219074240715244" lon="13.070308933037031"><ele>290.0</ele><time>2026-04-19T15:44:36.998Z</time></trkpt><trkpt lat="43.219079262821616" lon="13.070498404368436"><ele>290.0</ele><time>2026-04-19T15:44:37.998Z</time></trkpt><trkpt lat="43.2190827979014" lon="13.070683294764772"><ele>289.75</ele><time>2026-04-19T15:44:38.998Z</time></trkpt><trkpt lat="43.21908735057708" lon="13.070874744399816"><ele>289.5</ele><time>2026-04-19T15:44:39.998Z</time></trkpt><trkpt lat="43.21909328695164" lon="13.071069494777735"><ele>289.25</ele><time>2026-04-19T15:44:40.998Z</time></trkpt><trkpt lat="43.21909375944313" lon="13.071264269430051"><ele>289.0</ele><time>2026-04-19T15:44:41.998Z</time></trkpt><trkpt lat="43.21909362961953" lon="13.071456623569421"><ele>289.0</ele><time>2026-04-19T15:44:42.998Z</time></trkpt><trkpt lat="43.21909544483295" lon="13.071643654290718"><ele>289.0</ele><time>2026-04-19T15:44:43.998Z</time></trkpt><trkpt lat="43.21909747048158" lon="13.0718245753348"><ele>289.0</ele><time>2026-04-19T15:44:44.998Z</time></trkpt><trkpt lat="43.21910067521697" lon="13.07199710108177"><ele>289.0</ele><time>2026-04-19T15:44:45.998Z</time></trkpt><trkpt lat="43.21910413157098" lon="13.072168355657494"><ele>289.0</ele><time>2026-04-19T15:44:47Z</time></trkpt><trkpt lat="43.2191064570761" lon="13.072343309082491"><ele>289.0</ele><time>2026-04-19T15:44:48Z</time></trkpt><trkpt lat="43.21910683909244" lon="13.072517328744189"><ele>289.0</ele><time>2026-04-19T15:44:49Z</time></trkpt><trkpt lat="43.21911200759182" lon="13.072697710826198"><ele>289.0</ele><time>2026-04-19T15:44:50Z</time></trkpt><trkpt lat="43.219120858661064" lon="13.07288270932275"><ele>289.0</ele><time>2026-04-19T15:44:51Z</time></trkpt><trkpt lat="43.21913333609756" lon="13.073066833702994"><ele>289.0</ele><time>2026-04-19T15:44:52Z</time></trkpt><trkpt lat="43.21915822135335" lon="13.07325289236393"><ele>289.0</ele><time>2026-04-19T15:44:53Z</time></trkpt><trkpt lat="43.21918884240591" lon="13.073441562336516"><ele>289.0</ele><time>2026-04-19T15:44:54Z</time></trkpt><trkpt lat="43.21922441911316" lon="13.073634944795792"><ele>289.0</ele><time>2026-04-19T15:44:55Z</time></trkpt><trkpt lat="43.21926148415439" lon="13.07382281665148"><ele>289.0</ele><time>2026-04-19T15:44:56Z</time></trkpt><trkpt lat="43.21930209360904" lon="13.074017274212808"><ele>289.0</ele><time>2026-04-19T15:44:57Z</time></trkpt><trkpt lat="43.21934110346161" lon="13.074210962681356"><ele>289.0</ele><time>2026-04-19T15:44:58Z</time></trkpt><trkpt lat="43.21937995776693" lon="13.074402334578274"><ele>288.5</ele><time>2026-04-19T15:44:59Z</time></trkpt><trkpt lat="43.21941609080482" lon="13.074588141860238"><ele>288.0</ele><time>2026-04-19T15:45:00Z</time></trkpt><trkpt lat="43.21945015108142" lon="13.074766752724065"><ele>287.5</ele><time>2026-04-19T15:45:01Z</time></trkpt><trkpt lat="43.21948885030963" lon="13.074943774550336"><ele>287.0</ele><time>2026-04-19T15:45:02Z</time></trkpt><trkpt lat="43.21952710471874" lon="13.075123328391953"><ele>287.0</ele><time>2026-04-19T15:45:03Z</time></trkpt><trkpt lat="43.21956241663434" lon="13.075300692128344"><ele>287.0</ele><time>2026-04-19T15:45:04Z</time></trkpt><trkpt lat="43.219597112490284" lon="13.075480824061064"><ele>287.0</ele><time>2026-04-19T15:45:05Z</time></trkpt><trkpt lat="43.21963516524453" lon="13.07565988044973"><ele>287.0</ele><time>2026-04-19T15:45:06Z</time></trkpt><trkpt lat="43.21967283821528" lon="13.075836116750063"><ele>286.5</ele><time>2026-04-19T15:45:07Z</time></trkpt><trkpt lat="43.219712102108794" lon="13.076007222936218"><ele>286.0</ele><time>2026-04-19T15:45:08Z</time></trkpt><trkpt lat="43.219748493283916" lon="13.076180292235676"><ele>285.5</ele><time>2026-04-19T15:45:09Z</time></trkpt><trkpt lat="43.219780766765155" lon="13.076349264730679"><ele>285.0</ele><time>2026-04-19T15:45:10Z</time></trkpt><trkpt lat="43.2198193610908" lon="13.076525762593944"><ele>286.5</ele><time>2026-04-19T15:45:11Z</time></trkpt><trkpt lat="43.21985623475505" lon="13.076697224972957"><ele>288.0</ele><time>2026-04-19T15:45:12Z</time></trkpt><trkpt lat="43.21989225901578" lon="13.076876159593047"><ele>289.5</ele><time>2026-04-19T15:45:13Z</time></trkpt><trkpt lat="43.21992515124759" lon="13.07705517852627"><ele>291.0</ele><time>2026-04-19T15:45:14Z</time></trkpt><trkpt lat="43.21995833737249" lon="13.077240527457981"><ele>291.0</ele><time>2026-04-19T15:45:15Z</time></trkpt><trkpt lat="43.21998959505628" lon="13.077424305849917"><ele>291.0</ele><time>2026-04-19T15:45:16Z</time></trkpt><trkpt lat="43.22001787253402" lon="13.077614062285441"><ele>291.0</ele><time>2026-04-19T15:45:16.999Z</time></trkpt><trkpt lat="43.22003842137158" lon="13.077799955573987"><ele>291.0</ele><time>2026-04-19T15:45:17.999Z</time></trkpt><trkpt lat="43.22006029926374" lon="13.077982615208633"><ele>290.75</ele><time>2026-04-19T15:45:18.999Z</time></trkpt><trkpt lat="43.22008578185837" lon="13.078166877673368"><ele>290.5</ele><time>2026-04-19T15:45:19.999Z</time></trkpt><trkpt lat="43.22011888524045" lon="13.078349415915648"><ele>290.25</ele><time>2026-04-19T15:45:20.999Z</time></trkpt><trkpt lat="43.22015805466812" lon="13.078537539830588"><ele>290.0</ele><time>2026-04-19T15:45:21.999Z</time></trkpt><trkpt lat="43.22020059833842" lon="13.078726131905805"><ele>289.25</ele><time>2026-04-19T15:45:22.999Z</time></trkpt><trkpt lat="43.22023914929883" lon="13.078910678737977"><ele>288.5</ele><time>2026-04-19T15:45:23.999Z</time></trkpt><trkpt lat="43.2202818964534" lon="13.079097961151087"><ele>287.75</ele><time>2026-04-19T15:45:24.999Z</time></trkpt><trkpt lat="43.220323538327925" lon="13.07928114806258"><ele>287.0</ele><time>2026-04-19T15:45:25.999Z</time></trkpt><trkpt lat="43.22036211218479" lon="13.079466977236885"><ele>286.25</ele><time>2026-04-19T15:45:26.999Z</time></trkpt><trkpt lat="43.22039790540518" lon="13.079655461444075"><ele>285.5</ele><time>2026-04-19T15:45:27.999Z</time></trkpt><trkpt lat="43.220427764889244" lon="13.079839858514914"><ele>284.75</ele><time>2026-04-19T15:45:28.999Z</time></trkpt><trkpt lat="43.220448318432524" lon="13.080027824704587"><ele>284.0</ele><time>2026-04-19T15:45:29.999Z</time></trkpt><trkpt lat="43.22045859759841" lon="13.080213634994156"><ele>283.25</ele><time>2026-04-19T15:45:30.999Z</time></trkpt><trkpt lat="43.22046723821961" lon="13.080403404452182"><ele>282.5</ele><time>2026-04-19T15:45:31.999Z</time></trkpt><trkpt lat="43.220483052875245" lon="13.0805981621377"><ele>281.75</ele><time>2026-04-19T15:45:32.999Z</time></trkpt><trkpt lat="43.22049997454299" lon="13.080793330149135"><ele>281.0</ele><time>2026-04-19T15:45:33.999Z</time></trkpt><trkpt lat="43.22052085123519" lon="13.080990965351088"><ele>280.0</ele><time>2026-04-19T15:45:34.999Z</time></trkpt><trkpt lat="43.22054633580887" lon="13.081191013879497"><ele>279.0</ele><time>2026-04-19T15:45:35.999Z</time></trkpt><trkpt lat="43.220574078704516" lon="13.081392443190948"><ele>278.0</ele><time>2026-04-19T15:45:36.999Z</time></trkpt><trkpt lat="43.22060432669696" lon="13.08159129754793"><ele>277.0</ele><time>2026-04-19T15:45:37.999Z</time></trkpt><trkpt lat="43.22063511853856" lon="13.081791602006634"><ele>277.66666666666663</ele><time>2026-04-19T15:45:38.999Z</time></trkpt><trkpt lat="43.22066754635259" lon="13.081989215746468"><ele>278.3333333333333</ele><time>2026-04-19T15:45:39.999Z</time></trkpt><trkpt lat="43.220693398768944" lon="13.082190990499013"><ele>279.0</ele><time>2026-04-19T15:45:40.999Z</time></trkpt><trkpt lat="43.22071929151783" lon="13.082400494704693"><ele>277.6666666666667</ele><time>2026-04-19T15:45:41.999Z</time></trkpt><trkpt lat="43.220744360227165" lon="13.082614369000394"><ele>276.33333333333337</ele><time>2026-04-19T15:45:42.999Z</time></trkpt><trkpt lat="43.22076983501219" lon="13.082834201113016"><ele>275.0</ele><time>2026-04-19T15:45:43.999Z</time></trkpt><trkpt lat="43.220791529685165" lon="13.08305218114778"><ele>275.0</ele><time>2026-04-19T15:45:44.999Z</time></trkpt><trkpt lat="43.22081176007287" lon="13.083276133100982"><ele>275.0</ele><time>2026-04-19T15:45:45.999Z</time></trkpt><trkpt lat="43.220831681905494" lon="13.083497106494676"><ele>275.0</ele><time>2026-04-19T15:45:46.999Z</time></trkpt><trkpt lat="43.2208506655685" lon="13.083727703279017"><ele>275.0</ele><time>2026-04-19T15:45:47.999Z</time></trkpt><trkpt lat="43.220872726783035" lon="13.083949716182094"><ele>275.0</ele><time>2026-04-19T15:45:48.999Z</time></trkpt><trkpt lat="43.22089344693567" lon="13.084178389808148"><ele>275.0</ele><time>2026-04-19T15:45:49.999Z</time></trkpt><trkpt lat="43.22091852018955" lon="13.084400329231041"><ele>275.0</ele><time>2026-04-19T15:45:50.999Z</time></trkpt><trkpt lat="43.22093799290172" lon="13.084630423074117"><ele>275.0</ele><time>2026-04-19T15:45:51.999Z</time></trkpt><trkpt lat="43.22095675991693" lon="13.084859270580692"><ele>275.0</ele><time>2026-04-19T15:45:52.999Z</time></trkpt><trkpt lat="43.22097415065141" lon="13.085086984037957"><ele>275.0</ele><time>2026-04-19T15:45:53.999Z</time></trkpt><trkpt lat="43.220991255412756" lon="13.085315461368346"><ele>275.0</ele><time>2026-04-19T15:45:54.999Z</time></trkpt><trkpt lat="43.221010263930985" lon="13.085551586222325"><ele>275.0</ele><time>2026-04-19T15:45:55.999Z</time></trkpt><trkpt lat="43.22103427521873" lon="13.08577566025091"><ele>275.0</ele><time>2026-04-19T15:45:56.999Z</time></trkpt><trkpt lat="43.22105938935345" lon="13.086003055224657"><ele>275.0</ele><time>2026-04-19T15:45:57.999Z</time></trkpt><trkpt lat="43.2210848565136" lon="13.086228628254688"><ele>275.0</ele><time>2026-04-19T15:45:58.999Z</time></trkpt><trkpt lat="43.22111044862295" lon="13.086456508408968"><ele>274.33333333333337</ele><time>2026-04-19T15:45:59.999Z</time></trkpt><trkpt lat="43.2211305993333" lon="13.086661176294529"><ele>273.6666666666667</ele><time>2026-04-19T15:46:00.999Z</time></trkpt><trkpt lat="43.2211496390696" lon="13.086876122346661"><ele>273.0</ele><time>2026-04-19T15:46:01.999Z</time></trkpt><trkpt lat="43.221170389976415" lon="13.087083684675088"><ele>273.0</ele><time>2026-04-19T15:46:02.999Z</time></trkpt><trkpt lat="43.22119668078577" lon="13.087279946895649"><ele>273.0</ele><time>2026-04-19T15:46:03.999Z</time></trkpt><trkpt lat="43.22121702836979" lon="13.087478863753775"><ele>273.0</ele><time>2026-04-19T15:46:04.999Z</time></trkpt><trkpt lat="43.22123197884785" lon="13.087668245974958"><ele>273.0</ele><time>2026-04-19T15:46:05.999Z</time></trkpt><trkpt lat="43.22123245264098" lon="13.087860401307129"><ele>273.25</ele><time>2026-04-19T15:46:06.999Z</time></trkpt><trkpt lat="43.22121109604797" lon="13.08803737366565"><ele>273.5</ele><time>2026-04-19T15:46:07.999Z</time></trkpt><trkpt lat="43.221166563351886" lon="13.088200236372758"><ele>273.75</ele><time>2026-04-19T15:46:08.999Z</time></trkpt><trkpt lat="43.221103613901974" lon="13.088341691868964"><ele>274.0</ele><time>2026-04-19T15:46:09.999Z</time></trkpt><trkpt lat="43.22102059386018" lon="13.088473706183358"><ele>274.25</ele><time>2026-04-19T15:46:10.999Z</time></trkpt><trkpt lat="43.22092830342433" lon="13.088589671639514"><ele>274.5</ele><time>2026-04-19T15:46:11.999Z</time></trkpt><trkpt lat="43.22082477647608" lon="13.088694325704935"><ele>274.75</ele><time>2026-04-19T15:46:12.999Z</time></trkpt><trkpt lat="43.22071797919008" lon="13.088792266386813"><ele>275.0</ele><time>2026-04-19T15:46:13.999Z</time></trkpt><trkpt lat="43.220613176826156" lon="13.088890544502867"><ele>275.0</ele><time>2026-04-19T15:46:14.999Z</time></trkpt><trkpt lat="43.220522042302875" lon="13.088993158517205"><ele>275.0</ele><time>2026-04-19T15:46:15.999Z</time></trkpt><trkpt lat="43.220439671645906" lon="13.08910988850292"><ele>275.0</ele><time>2026-04-19T15:46:16.999Z</time></trkpt><trkpt lat="43.220368774588" lon="13.089242741041867"><ele>275.0</ele><time>2026-04-19T15:46:17.999Z</time></trkpt><trkpt lat="43.220315419931154" lon="13.089396589554713"><ele>274.75</ele><time>2026-04-19T15:46:18.999Z</time></trkpt><trkpt lat="43.22028035627604" lon="13.089560233979432"><ele>274.5</ele><time>2026-04-19T15:46:19.999Z</time></trkpt><trkpt lat="43.220267914430686" lon="13.089742087053187"><ele>274.25</ele><time>2026-04-19T15:46:20.999Z</time></trkpt><trkpt lat="43.22027887933807" lon="13.08992919599312"><ele>274.0</ele><time>2026-04-19T15:46:21.999Z</time></trkpt><trkpt lat="43.22029446206669" lon="13.090124193253574"><ele>274.0</ele><time>2026-04-19T15:46:22.999Z</time></trkpt><trkpt lat="43.22031484600802" lon="13.090315407340466"><ele>274.0</ele><time>2026-04-19T15:46:23.999Z</time></trkpt><trkpt lat="43.22034150287638" lon="13.090513666064"><ele>274.0</ele><time>2026-04-19T15:46:24.999Z</time></trkpt><trkpt lat="43.22037453027883" lon="13.090708838549258"><ele>274.0</ele><time>2026-04-19T15:46:25.999Z</time></trkpt><trkpt lat="43.220412682021696" lon="13.090913730846328"><ele>273.66666666666663</ele><time>2026-04-19T15:46:26.999Z</time></trkpt><trkpt lat="43.22045847488791" lon="13.09112502974665"><ele>273.3333333333333</ele><time>2026-04-19T15:46:27.999Z</time></trkpt><trkpt lat="43.22050368432381" lon="13.091344073812895"><ele>273.0</ele><time>2026-04-19T15:46:28.999Z</time></trkpt><trkpt lat="43.22055603840379" lon="13.091579951994717"><ele>271.3333333333333</ele><time>2026-04-19T15:46:29.999Z</time></trkpt><trkpt lat="43.22060716302374" lon="13.091814465397766"><ele>269.66666666666663</ele><time>2026-04-19T15:46:30.999Z</time></trkpt><trkpt lat="43.220659387197436" lon="13.092048912339967"><ele>268.0</ele><time>2026-04-19T15:46:31.998Z</time></trkpt><trkpt lat="43.22070613760232" lon="13.092284882917491"><ele>272.0</ele><time>2026-04-19T15:46:32.998Z</time></trkpt><trkpt lat="43.220748122596625" lon="13.092533032658542"><ele>276.0</ele><time>2026-04-19T15:46:33.998Z</time></trkpt><trkpt lat="43.220774695218765" lon="13.092785928747816"><ele>280.0</ele><time>2026-04-19T15:46:34.998Z</time></trkpt><trkpt lat="43.22079050230031" lon="13.093044287112258"><ele>279.3333333333333</ele><time>2026-04-19T15:46:35.998Z</time></trkpt><trkpt lat="43.220793726230866" lon="13.093304137240855"><ele>278.6666666666667</ele><time>2026-04-19T15:46:36.998Z</time></trkpt><trkpt lat="43.220783386646694" lon="13.093573884926544"><ele>278.0</ele><time>2026-04-19T15:46:37.998Z</time></trkpt><trkpt lat="43.22081706164875" lon="13.093838406342861"><ele>277.33333333333337</ele><time>2026-04-19T15:46:38.998Z</time></trkpt><trkpt lat="43.22083708700104" lon="13.094095072643453"><ele>276.6666666666667</ele><time>2026-04-19T15:46:39.998Z</time></trkpt><trkpt lat="43.22086577614538" lon="13.094359021084637"><ele>276.0</ele><time>2026-04-19T15:46:40.998Z</time></trkpt><trkpt lat="43.220898673192956" lon="13.094621512332228"><ele>276.0</ele><time>2026-04-19T15:46:41.998Z</time></trkpt><trkpt lat="43.2209284518686" lon="13.094885988759973"><ele>276.0</ele><time>2026-04-19T15:46:42.998Z</time></trkpt><trkpt lat="43.22095344567141" lon="13.095151685148696"><ele>276.0</ele><time>2026-04-19T15:46:43.998Z</time></trkpt><trkpt lat="43.22097436502218" lon="13.095403155932566"><ele>276.0</ele><time>2026-04-19T15:46:44.998Z</time></trkpt><trkpt lat="43.220979350222315" lon="13.095647289032495"><ele>276.0</ele><time>2026-04-19T15:46:45.998Z</time></trkpt><trkpt lat="43.22095052215566" lon="13.095889059336745"><ele>276.0</ele><time>2026-04-19T15:46:46.998Z</time></trkpt><trkpt lat="43.22092295650408" lon="13.096134653795316"><ele>276.0</ele><time>2026-04-19T15:46:47.998Z</time></trkpt><trkpt lat="43.22088297114916" lon="13.096378485702513"><ele>276.0</ele><time>2026-04-19T15:46:48.998Z</time></trkpt><trkpt lat="43.220851008536506" lon="13.096637281591823"><ele>276.0</ele><time>2026-04-19T15:46:49.998Z</time></trkpt><trkpt lat="43.22079429582227" lon="13.096892337465224"><ele>276.0</ele><time>2026-04-19T15:46:50.998Z</time></trkpt><trkpt lat="43.22073558302292" lon="13.097146587498141"><ele>276.0</ele><time>2026-04-19T15:46:51.998Z</time></trkpt><trkpt lat="43.22067631764395" lon="13.097392997562544"><ele>276.0</ele><time>2026-04-19T15:46:53Z</time></trkpt><trkpt lat="43.2206260280983" lon="13.097631117590188"><ele>274.6666666666667</ele><time>2026-04-19T15:46:54Z</time></trkpt><trkpt lat="43.220588579360815" lon="13.09787878800925"><ele>273.33333333333337</ele><time>2026-04-19T15:46:55Z</time></trkpt><trkpt lat="43.22056293990683" lon="13.098125110735241"><ele>272.0</ele><time>2026-04-19T15:46:56Z</time></trkpt><trkpt lat="43.22054818959209" lon="13.098363312012781"><ele>272.0</ele><time>2026-04-19T15:46:57Z</time></trkpt><trkpt lat="43.220533813575" lon="13.09858952002539"><ele>272.0</ele><time>2026-04-19T15:46:58Z</time></trkpt><trkpt lat="43.22053000297837" lon="13.098818095237883"><ele>272.0</ele><time>2026-04-19T15:46:59Z</time></trkpt><trkpt lat="43.22054487579648" lon="13.099043941372983"><ele>271.6666666666667</ele><time>2026-04-19T15:47:00Z</time></trkpt><trkpt lat="43.22058086132069" lon="13.099263999291859"><ele>271.3333333333333</ele><time>2026-04-19T15:47:01Z</time></trkpt><trkpt lat="43.2206415651645" lon="13.099469969081369"><ele>271.0</ele><time>2026-04-19T15:47:02Z</time></trkpt><trkpt lat="43.22069748896329" lon="13.099676967197317"><ele>272.3333333333333</ele><time>2026-04-19T15:47:03Z</time></trkpt><trkpt lat="43.220738099509056" lon="13.099882158609352"><ele>273.6666666666667</ele><time>2026-04-19T15:47:04Z</time></trkpt><trkpt lat="43.22077935914541" lon="13.100082701652832"><ele>275.0</ele><time>2026-04-19T15:47:05Z</time></trkpt><trkpt lat="43.22082635704605" lon="13.100273037556683"><ele>275.0</ele><time>2026-04-19T15:47:06Z</time></trkpt><trkpt lat="43.22089098691061" lon="13.10043954267379"><ele>275.0</ele><time>2026-04-19T15:47:07Z</time></trkpt><trkpt lat="43.220984493838145" lon="13.100565310456457"><ele>275.0</ele><time>2026-04-19T15:47:08Z</time></trkpt><trkpt lat="43.221092715489455" lon="13.100651278701852"><ele>275.0</ele><time>2026-04-19T15:47:09Z</time></trkpt><trkpt lat="43.22120415996499" lon="13.100712370738686"><ele>274.5</ele><time>2026-04-19T15:47:10Z</time></trkpt><trkpt lat="43.22132325445766" lon="13.100756093616413"><ele>274.0</ele><time>2026-04-19T15:47:11Z</time></trkpt><trkpt lat="43.22143864310594" lon="13.100795168590176"><ele>273.5</ele><time>2026-04-19T15:47:12Z</time></trkpt><trkpt lat="43.22156065594701" lon="13.100834279643196"><ele>273.0</ele><time>2026-04-19T15:47:13Z</time></trkpt><trkpt lat="43.22168731957157" lon="13.100874812840313"><ele>274.75</ele><time>2026-04-19T15:47:14Z</time></trkpt><trkpt lat="43.22182232479713" lon="13.100924116218389"><ele>276.5</ele><time>2026-04-19T15:47:15Z</time></trkpt><trkpt lat="43.221957811021916" lon="13.100974618956503"><ele>278.25</ele><time>2026-04-19T15:47:16Z</time></trkpt><trkpt lat="43.222097342433074" lon="13.101036786942714"><ele>280.0</ele><time>2026-04-19T15:47:17Z</time></trkpt><trkpt lat="43.22224149747846" lon="13.101120146407265"><ele>285.66666666666663</ele><time>2026-04-19T15:47:17.999Z</time></trkpt><trkpt lat="43.22236356192692" lon="13.101251121823642"><ele>291.3333333333333</ele><time>2026-04-19T15:47:18.999Z</time></trkpt><trkpt lat="43.22247491835416" lon="13.10138580890418"><ele>297.0</ele><time>2026-04-19T15:47:19.999Z</time></trkpt><trkpt lat="43.22258820841056" lon="13.101526135767394"><ele>290.6666666666667</ele><time>2026-04-19T15:47:20.999Z</time></trkpt><trkpt lat="43.22267975337774" lon="13.101701433524788"><ele>284.33333333333337</ele><time>2026-04-19T15:47:21.999Z</time></trkpt><trkpt lat="43.222761733219336" lon="13.1018882493759"><ele>278.0</ele><time>2026-04-19T15:47:22.999Z</time></trkpt><trkpt lat="43.22282864646235" lon="13.102092554394742"><ele>278.0</ele><time>2026-04-19T15:47:23.999Z</time></trkpt><trkpt lat="43.22287483505467" lon="13.102308005251698"><ele>278.0</ele><time>2026-04-19T15:47:24.999Z</time></trkpt><trkpt lat="43.22289638234343" lon="13.10253218391699"><ele>278.0</ele><time>2026-04-19T15:47:25.999Z</time></trkpt><trkpt lat="43.22289731897228" lon="13.10275340293573"><ele>274.6666666666667</ele><time>2026-04-19T15:47:26.999Z</time></trkpt><trkpt lat="43.222881245615554" lon="13.10297652280038"><ele>271.3333333333333</ele><time>2026-04-19T15:47:27.999Z</time></trkpt><trkpt lat="43.22284944815698" lon="13.10320663762989"><ele>268.0</ele><time>2026-04-19T15:47:28.999Z</time></trkpt><trkpt lat="43.2228196958162" lon="13.103429384745173"><ele>268.66666666666663</ele><time>2026-04-19T15:47:29.999Z</time></trkpt><trkpt lat="43.22279006765964" lon="13.103656843074038"><ele>269.3333333333333</ele><time>2026-04-19T15:47:30.999Z</time></trkpt><trkpt lat="43.22276870007815" lon="13.103885768247983"><ele>270.0</ele><time>2026-04-19T15:47:31.999Z</time></trkpt><trkpt lat="43.22275314557226" lon="13.104111788947668"><ele>270.0</ele><time>2026-04-19T15:47:32.999Z</time></trkpt><trkpt lat="43.22273749605595" lon="13.104328222223456"><ele>270.0</ele><time>2026-04-19T15:47:33.999Z</time></trkpt><trkpt lat="43.222721799482656" lon="13.104543285846722"><ele>270.0</ele><time>2026-04-19T15:47:34.999Z</time></trkpt><trkpt lat="43.22271282062439" lon="13.10475632262725"><ele>270.3333333333333</ele><time>2026-04-19T15:47:35.999Z</time></trkpt><trkpt lat="43.22271179615628" lon="13.104970149617017"><ele>270.66666666666663</ele><time>2026-04-19T15:47:36.999Z</time></trkpt><trkpt lat="43.2227116097347" lon="13.105180113796083"><ele>271.0</ele><time>2026-04-19T15:47:37.999Z</time></trkpt><trkpt lat="43.222711316831386" lon="13.105394039991113"><ele>271.0</ele><time>2026-04-19T15:47:38.999Z</time></trkpt><trkpt lat="43.22270935634107" lon="13.1056092794392"><ele>271.0</ele><time>2026-04-19T15:47:39.999Z</time></trkpt><trkpt lat="43.2227069666278" lon="13.105825034860331"><ele>271.0</ele><time>2026-04-19T15:47:40.999Z</time></trkpt><trkpt lat="43.22270513726377" lon="13.106042680180922"><ele>271.0</ele><time>2026-04-19T15:47:41.999Z</time></trkpt><trkpt lat="43.22270364002206" lon="13.106269540452478"><ele>271.0</ele><time>2026-04-19T15:47:42.999Z</time></trkpt><trkpt lat="43.222700954948344" lon="13.106492731977829"><ele>271.0</ele><time>2026-04-19T15:47:43.999Z</time></trkpt><trkpt lat="43.22269752904857" lon="13.106710000302122"><ele>271.0</ele><time>2026-04-19T15:47:44.999Z</time></trkpt><trkpt lat="43.222696705366204" lon="13.106935463479289"><ele>271.0</ele><time>2026-04-19T15:47:45.999Z</time></trkpt><trkpt lat="43.222701689864834" lon="13.107157461426416"><ele>271.0</ele><time>2026-04-19T15:47:46.999Z</time></trkpt><trkpt lat="43.22271323295875" lon="13.10738586136973"><ele>269.66666666666663</ele><time>2026-04-19T15:47:47.999Z</time></trkpt><trkpt lat="43.222724669754605" lon="13.107618808149768"><ele>268.3333333333333</ele><time>2026-04-19T15:47:48.999Z</time></trkpt><trkpt lat="43.222741624920346" lon="13.107864334980743"><ele>267.0</ele><time>2026-04-19T15:47:49.999Z</time></trkpt><trkpt lat="43.222762702960146" lon="13.10812481577839"><ele>266.3333333333333</ele><time>2026-04-19T15:47:50.999Z</time></trkpt><trkpt lat="43.222788229281065" lon="13.108392828266423"><ele>265.66666666666663</ele><time>2026-04-19T15:47:51.999Z</time></trkpt><trkpt lat="43.2228245651329" lon="13.108658937235923"><ele>265.0</ele><time>2026-04-19T15:47:52.999Z</time></trkpt><trkpt lat="43.2228553870699" lon="13.10893975670305"><ele>263.0</ele><time>2026-04-19T15:47:53.999Z</time></trkpt><trkpt lat="43.222901203525495" lon="13.10924118571718"><ele>261.0</ele><time>2026-04-19T15:47:54.999Z</time></trkpt><trkpt lat="43.22295807642854" lon="13.10955908730811"><ele>261.0</ele><time>2026-04-19T15:47:55.999Z</time></trkpt><trkpt lat="43.22303133208239" lon="13.109875957655174"><ele>261.0</ele><time>2026-04-19T15:47:56.999Z</time></trkpt><trkpt lat="43.22308868919466" lon="13.110187259874161"><ele>266.5</ele><time>2026-04-19T15:47:57.999Z</time></trkpt><trkpt lat="43.22315611056733" lon="13.110501274115427"><ele>272.0</ele><time>2026-04-19T15:47:58.999Z</time></trkpt><trkpt lat="43.22323496030424" lon="13.110821078690822"><ele>272.0</ele><time>2026-04-19T15:47:59.999Z</time></trkpt><trkpt lat="43.223312321122584" lon="13.111134739756304"><ele>272.0</ele><time>2026-04-19T15:48:00.999Z</time></trkpt><trkpt lat="43.223388636923374" lon="13.111451958415556"><ele>271.0</ele><time>2026-04-19T15:48:01.999Z</time></trkpt><trkpt lat="43.223460384451116" lon="13.111768117491406"><ele>270.0</ele><time>2026-04-19T15:48:02.999Z</time></trkpt><trkpt lat="43.22352916648568" lon="13.112082303994626"><ele>270.0</ele><time>2026-04-19T15:48:03.999Z</time></trkpt><trkpt lat="43.223600765336236" lon="13.112395254713906"><ele>270.0</ele><time>2026-04-19T15:48:04.999Z</time></trkpt><trkpt lat="43.22367501812399" lon="13.112696990693017"><ele>268.0</ele><time>2026-04-19T15:48:05.999Z</time></trkpt><trkpt lat="43.22374979263471" lon="13.112990067702068"><ele>266.0</ele><time>2026-04-19T15:48:06.999Z</time></trkpt><trkpt lat="43.223828507154096" lon="13.113275704509556"><ele>264.0</ele><time>2026-04-19T15:48:07.999Z</time></trkpt><trkpt lat="43.223918051183695" lon="13.113549830393287"><ele>268.3333333333333</ele><time>2026-04-19T15:48:08.999Z</time></trkpt><trkpt lat="43.224018813206136" lon="13.113818801863461"><ele>272.66666666666663</ele><time>2026-04-19T15:48:09.999Z</time></trkpt><trkpt lat="43.22412250047623" lon="13.114083178940191"><ele>277.0</ele><time>2026-04-19T15:48:10.999Z</time></trkpt><trkpt lat="43.224223158671975" lon="13.114350410859133"><ele>277.0</ele><time>2026-04-19T15:48:11.999Z</time></trkpt><trkpt lat="43.224312107018186" lon="13.114617602870613"><ele>277.0</ele><time>2026-04-19T15:48:12.999Z</time></trkpt><trkpt lat="43.224385403526256" lon="13.114881329831412"><ele>277.0</ele><time>2026-04-19T15:48:13.999Z</time></trkpt><trkpt lat="43.224444595269674" lon="13.115155303885057"><ele>273.3333333333333</ele><time>2026-04-19T15:48:14.999Z</time></trkpt><trkpt lat="43.224483090394166" lon="13.115428241984352"><ele>269.6666666666667</ele><time>2026-04-19T15:48:15.999Z</time></trkpt><trkpt lat="43.224506389737215" lon="13.115708402758129"><ele>266.0</ele><time>2026-04-19T15:48:16.999Z</time></trkpt><trkpt lat="43.224509030271506" lon="13.115992592386652"><ele>264.6666666666667</ele><time>2026-04-19T15:48:17.999Z</time></trkpt><trkpt lat="43.22449442820388" lon="13.116279030992594"><ele>263.3333333333333</ele><time>2026-04-19T15:48:18.999Z</time></trkpt><trkpt lat="43.22447212619079" lon="13.116564382958614"><ele>262.0</ele><time>2026-04-19T15:48:19.999Z</time></trkpt><trkpt lat="43.224436643435666" lon="13.116850044558525"><ele>262.0</ele><time>2026-04-19T15:48:20.999Z</time></trkpt><trkpt lat="43.224395627053035" lon="13.117136155978475"><ele>262.0</ele><time>2026-04-19T15:48:21.999Z</time></trkpt><trkpt lat="43.22435921402923" lon="13.117427170329758"><ele>262.0</ele><time>2026-04-19T15:48:22.999Z</time></trkpt><trkpt lat="43.22432610092071" lon="13.117724584212302"><ele>262.3333333333333</ele><time>2026-04-19T15:48:23.999Z</time></trkpt><trkpt lat="43.22429315507312" lon="13.118020432801629"><ele>262.6666666666667</ele><time>2026-04-19T15:48:24.999Z</time></trkpt><trkpt lat="43.22425995058643" lon="13.11832123277204"><ele>263.0</ele><time>2026-04-19T15:48:25.999Z</time></trkpt><trkpt lat="43.22422421360017" lon="13.11861758109365"><ele>264.0</ele><time>2026-04-19T15:48:26.999Z</time></trkpt><trkpt lat="43.22418832963348" lon="13.118917314695201"><ele>265.0</ele><time>2026-04-19T15:48:27.999Z</time></trkpt><trkpt lat="43.224152974059784" lon="13.11921589740862"><ele>266.0</ele><time>2026-04-19T15:48:28.999Z</time></trkpt><trkpt lat="43.224119683232814" lon="13.119517954462198"><ele>267.6666666666667</ele><time>2026-04-19T15:48:29.999Z</time></trkpt><trkpt lat="43.22408923833767" lon="13.119821059735862"><ele>269.3333333333333</ele><time>2026-04-19T15:48:30.999Z</time></trkpt><trkpt lat="43.22406219057794" lon="13.120120789966025"><ele>271.0</ele><time>2026-04-19T15:48:31.999Z</time></trkpt><trkpt lat="43.22404142160492" lon="13.120409662893888"><ele>272.0</ele><time>2026-04-19T15:48:32.999Z</time></trkpt><trkpt lat="43.22402586419899" lon="13.120688502793804"><ele>273.0</ele><time>2026-04-19T15:48:33.999Z</time></trkpt><trkpt lat="43.22401818962844" lon="13.120965341022549"><ele>274.0</ele><time>2026-04-19T15:48:34.999Z</time></trkpt><trkpt lat="43.224014615991436" lon="13.12123902340578"><ele>275.0</ele><time>2026-04-19T15:48:35.999Z</time></trkpt><trkpt lat="43.224017966827354" lon="13.121508910099365"><ele>276.0</ele><time>2026-04-19T15:48:36.999Z</time></trkpt><trkpt lat="43.22402327526514" lon="13.12177929399493"><ele>277.0</ele><time>2026-04-19T15:48:37.998Z</time></trkpt><trkpt lat="43.224021362501865" lon="13.12205044382805"><ele>277.3333333333333</ele><time>2026-04-19T15:48:38.998Z</time></trkpt><trkpt lat="43.224008711554575" lon="13.122318045049848"><ele>277.6666666666667</ele><time>2026-04-19T15:48:39.998Z</time></trkpt><trkpt lat="43.22398549953266" lon="13.122583238188255"><ele>278.0</ele><time>2026-04-19T15:48:40.998Z</time></trkpt><trkpt lat="43.22395473423712" lon="13.122844525506952"><ele>271.0</ele><time>2026-04-19T15:48:41.998Z</time></trkpt><trkpt lat="43.223920062798605" lon="13.123105768422374"><ele>264.0</ele><time>2026-04-19T15:48:42.998Z</time></trkpt><trkpt lat="43.22388947857059" lon="13.123365847050593"><ele>257.0</ele><time>2026-04-19T15:48:43.998Z</time></trkpt><trkpt lat="43.22386333585701" lon="13.12362184237671"><ele>256.6666666666667</ele><time>2026-04-19T15:48:44.998Z</time></trkpt><trkpt lat="43.22384007518111" lon="13.123888955633404"><ele>256.3333333333333</ele><time>2026-04-19T15:48:45.998Z</time></trkpt><trkpt lat="43.22382050205931" lon="13.124154183021764"><ele>256.0</ele><time>2026-04-19T15:48:46.998Z</time></trkpt><trkpt lat="43.22380893352127" lon="13.124416396762221"><ele>255.66666666666666</ele><time>2026-04-19T15:48:47.998Z</time></trkpt><trkpt lat="43.22380386895267" lon="13.124681247709306"><ele>255.33333333333331</ele><time>2026-04-19T15:48:48.998Z</time></trkpt><trkpt lat="43.22380201097101" lon="13.124948073374176"><ele>255.0</ele><time>2026-04-19T15:48:49.998Z</time></trkpt><trkpt lat="43.22380780614495" lon="13.125213217438384"><ele>254.66666666666669</ele><time>2026-04-19T15:48:50.998Z</time></trkpt><trkpt lat="43.223819212049065" lon="13.125473842047345"><ele>254.33333333333334</ele><time>2026-04-19T15:48:51.998Z</time></trkpt><trkpt lat="43.223813164577614" lon="13.125737418274875"><ele>254.0</ele><time>2026-04-19T15:48:52.998Z</time></trkpt><trkpt lat="43.22386508645944" lon="13.125992962868729"><ele>254.66666666666669</ele><time>2026-04-19T15:48:53.998Z</time></trkpt><trkpt lat="43.22389668631601" lon="13.12625527958596"><ele>255.33333333333331</ele><time>2026-04-19T15:48:54.998Z</time></trkpt><trkpt lat="43.223925148100015" lon="13.126513660633092"><ele>256.0</ele><time>2026-04-19T15:48:55.998Z</time></trkpt><trkpt lat="43.22395293300443" lon="13.126776625726395"><ele>263.3333333333333</ele><time>2026-04-19T15:48:56.998Z</time></trkpt><trkpt lat="43.22398163474977" lon="13.127040558028211"><ele>270.6666666666667</ele><time>2026-04-19T15:48:58Z</time></trkpt><trkpt lat="43.22400767549677" lon="13.127305982353677"><ele>278.0</ele><time>2026-04-19T15:48:59Z</time></trkpt><trkpt lat="43.22403813621646" lon="13.127568411089214"><ele>278.0</ele><time>2026-04-19T15:48:59.999Z</time></trkpt><trkpt lat="43.22406401422499" lon="13.127834283128463"><ele>278.0</ele><time>2026-04-19T15:49:00.999Z</time></trkpt><trkpt lat="43.224086228500845" lon="13.128102380667737"><ele>278.0</ele><time>2026-04-19T15:49:01.999Z</time></trkpt><trkpt lat="43.22409691507623" lon="13.12836736149246"><ele>277.33333333333337</ele><time>2026-04-19T15:49:02.999Z</time></trkpt><trkpt lat="43.22408571233713" lon="13.128637524344981"><ele>276.6666666666667</ele><time>2026-04-19T15:49:03.999Z</time></trkpt><trkpt lat="43.22405273587665" lon="13.128902944744036"><ele>276.0</ele><time>2026-04-19T15:49:04.999Z</time></trkpt><trkpt lat="43.22399814529385" lon="13.129164875280425"><ele>268.3333333333333</ele><time>2026-04-19T15:49:05.999Z</time></trkpt><trkpt lat="43.22393350480851" lon="13.129415926532218"><ele>260.66666666666663</ele><time>2026-04-19T15:49:06.999Z</time></trkpt><trkpt lat="43.22386280412774" lon="13.129671529929304"><ele>253.0</ele><time>2026-04-19T15:49:07.999Z</time></trkpt><trkpt lat="43.223786054259705" lon="13.129929143602043"><ele>253.0</ele><time>2026-04-19T15:49:08.999Z</time></trkpt><trkpt lat="43.22370475231631" lon="13.130184076723857"><ele>253.0</ele><time>2026-04-19T15:49:09.999Z</time></trkpt><trkpt lat="43.22362201259708" lon="13.130436953260546"><ele>253.0</ele><time>2026-04-19T15:49:10.999Z</time></trkpt><trkpt lat="43.223537678703295" lon="13.130696086226669"><ele>255.33333333333331</ele><time>2026-04-19T15:49:11.999Z</time></trkpt><trkpt lat="43.22345695970251" lon="13.130948180287108"><ele>257.6666666666667</ele><time>2026-04-19T15:49:12.999Z</time></trkpt><trkpt lat="43.22337106200578" lon="13.13120257316708"><ele>260.0</ele><time>2026-04-19T15:49:13.999Z</time></trkpt><trkpt lat="43.22328841532118" lon="13.131451938503512"><ele>261.6666666666667</ele><time>2026-04-19T15:49:14.999Z</time></trkpt><trkpt lat="43.22321565407279" lon="13.131703808828792"><ele>263.3333333333333</ele><time>2026-04-19T15:49:15.999Z</time></trkpt><trkpt lat="43.22314946054081" lon="13.131958614903265"><ele>265.0</ele><time>2026-04-19T15:49:16.999Z</time></trkpt><trkpt lat="43.22310190815693" lon="13.132217303017725"><ele>261.66666666666663</ele><time>2026-04-19T15:49:17.999Z</time></trkpt><trkpt lat="43.22306440256694" lon="13.132480878978129"><ele>258.3333333333333</ele><time>2026-04-19T15:49:18.999Z</time></trkpt><trkpt lat="43.223049633505646" lon="13.13274016583986"><ele>255.0</ele><time>2026-04-19T15:49:19.999Z</time></trkpt><trkpt lat="43.2230393841941" lon="13.132996383020203"><ele>255.0</ele><time>2026-04-19T15:49:20.999Z</time></trkpt><trkpt lat="43.22303415663836" lon="13.133253382646227"><ele>255.0</ele><time>2026-04-19T15:49:21.999Z</time></trkpt><trkpt lat="43.22303742490279" lon="13.133510304749334"><ele>255.0</ele><time>2026-04-19T15:49:22.999Z</time></trkpt><trkpt lat="43.223054074443866" lon="13.13376081753374"><ele>255.0</ele><time>2026-04-19T15:49:23.999Z</time></trkpt><trkpt lat="43.22308220204984" lon="13.134006081575906"><ele>255.0</ele><time>2026-04-19T15:49:24.999Z</time></trkpt><trkpt lat="43.22312504184774" lon="13.134245971568307"><ele>255.0</ele><time>2026-04-19T15:49:25.999Z</time></trkpt><trkpt lat="43.22316540578599" lon="13.134471347276762"><ele>257.3333333333333</ele><time>2026-04-19T15:49:26.999Z</time></trkpt><trkpt lat="43.223209654393195" lon="13.134704321995999"><ele>259.66666666666663</ele><time>2026-04-19T15:49:27.999Z</time></trkpt><trkpt lat="43.22325299711758" lon="13.134935733004724"><ele>262.0</ele><time>2026-04-19T15:49:28.999Z</time></trkpt><trkpt lat="43.22330065556438" lon="13.135163056089866"><ele>262.0</ele><time>2026-04-19T15:49:29.999Z</time></trkpt><trkpt lat="43.22335489606067" lon="13.135384252516245"><ele>262.0</ele><time>2026-04-19T15:49:30.999Z</time></trkpt><trkpt lat="43.223413571636335" lon="13.135603459328147"><ele>262.0</ele><time>2026-04-19T15:49:31.999Z</time></trkpt><trkpt lat="43.22347311932963" lon="13.135813874911381"><ele>260.3333333333333</ele><time>2026-04-19T15:49:32.999Z</time></trkpt><trkpt lat="43.22354221253212" lon="13.13601033532271"><ele>258.6666666666667</ele><time>2026-04-19T15:49:33.999Z</time></trkpt><trkpt lat="43.22362490901369" lon="13.136186024584198"><ele>257.0</ele><time>2026-04-19T15:49:34.999Z</time></trkpt><trkpt lat="43.22371039227912" lon="13.13634535983094"><ele>257.0</ele><time>2026-04-19T15:49:35.999Z</time></trkpt><trkpt lat="43.2238008900987" lon="13.136495961608514"><ele>257.0</ele><time>2026-04-19T15:49:36.999Z</time></trkpt><trkpt lat="43.223895008403865" lon="13.136634718581329"><ele>257.0</ele><time>2026-04-19T15:49:37.999Z</time></trkpt><trkpt lat="43.22399764799827" lon="13.136764102162717"><ele>257.0</ele><time>2026-04-19T15:49:38.999Z</time></trkpt><trkpt lat="43.22411297536445" lon="13.136888042048088"><ele>258.33333333333337</ele><time>2026-04-19T15:49:39.999Z</time></trkpt><trkpt lat="43.22422893910946" lon="13.13701997049167"><ele>259.6666666666667</ele><time>2026-04-19T15:49:40.999Z</time></trkpt><trkpt lat="43.22435324130381" lon="13.13716652803424"><ele>261.0</ele><time>2026-04-19T15:49:41.999Z</time></trkpt><trkpt lat="43.22446361620245" lon="13.137312319548585"><ele>261.3333333333333</ele><time>2026-04-19T15:49:42.999Z</time></trkpt><trkpt lat="43.224583375920126" lon="13.137451511008448"><ele>261.66666666666663</ele><time>2026-04-19T15:49:43.999Z</time></trkpt><trkpt lat="43.22471332551713" lon="13.137588501699103"><ele>262.0</ele><time>2026-04-19T15:49:44.999Z</time></trkpt><trkpt lat="43.22484159539808" lon="13.137718203125958"><ele>262.0</ele><time>2026-04-19T15:49:45.999Z</time></trkpt><trkpt lat="43.22496660505397" lon="13.137852252643759"><ele>262.0</ele><time>2026-04-19T15:49:46.999Z</time></trkpt><trkpt lat="43.22509365448518" lon="13.137990385279128"><ele>262.0</ele><time>2026-04-19T15:49:47.999Z</time></trkpt><trkpt lat="43.22521905026766" lon="13.138127204034156"><ele>258.66666666666663</ele><time>2026-04-19T15:49:48.999Z</time></trkpt><trkpt lat="43.225341141590086" lon="13.13826015986524"><ele>255.33333333333331</ele><time>2026-04-19T15:49:49.999Z</time></trkpt><trkpt lat="43.225470416287365" lon="13.138395626213429"><ele>252.0</ele><time>2026-04-19T15:49:50.999Z</time></trkpt><trkpt lat="43.22559802339464" lon="13.138529791818643"><ele>258.0</ele><time>2026-04-19T15:49:51.999Z</time></trkpt><trkpt lat="43.225720650837744" lon="13.13865946645501"><ele>264.0</ele><time>2026-04-19T15:49:52.999Z</time></trkpt><trkpt lat="43.22583972551648" lon="13.138790971516524"><ele>270.0</ele><time>2026-04-19T15:49:53.999Z</time></trkpt><trkpt lat="43.22595660634659" lon="13.138920192753764"><ele>265.6666666666667</ele><time>2026-04-19T15:49:54.999Z</time></trkpt><trkpt lat="43.22607209876258" lon="13.13905369118194"><ele>261.33333333333337</ele><time>2026-04-19T15:49:55.999Z</time></trkpt><trkpt lat="43.22618489213465" lon="13.139199388350718"><ele>257.0</ele><time>2026-04-19T15:49:56.999Z</time></trkpt><trkpt lat="43.22629783102774" lon="13.139341463133706"><ele>257.0</ele><time>2026-04-19T15:49:57.999Z</time></trkpt><trkpt lat="43.22640482268019" lon="13.139491865116097"><ele>257.0</ele><time>2026-04-19T15:49:58.999Z</time></trkpt><trkpt lat="43.226510438628154" lon="13.139651024291878"><ele>257.0</ele><time>2026-04-19T15:49:59.999Z</time></trkpt><trkpt lat="43.22661547500452" lon="13.139816975062026"><ele>259.6666666666667</ele><time>2026-04-19T15:50:00.999Z</time></trkpt><trkpt lat="43.22672006049897" lon="13.139997199844029"><ele>262.3333333333333</ele><time>2026-04-19T15:50:01.999Z</time></trkpt><trkpt lat="43.22681982091404" lon="13.14018003878582"><ele>265.0</ele><time>2026-04-19T15:50:02.999Z</time></trkpt><trkpt lat="43.22692497416418" lon="13.140366667079274"><ele>265.0</ele><time>2026-04-19T15:50:03.999Z</time></trkpt><trkpt lat="43.22702542655675" lon="13.140546937645276"><ele>265.0</ele><time>2026-04-19T15:50:04.999Z</time></trkpt><trkpt lat="43.22712551432446" lon="13.140726217120964"><ele>265.0</ele><time>2026-04-19T15:50:05.999Z</time></trkpt><trkpt lat="43.227221770751704" lon="13.140912918827276"><ele>267.3333333333333</ele><time>2026-04-19T15:50:06.999Z</time></trkpt><trkpt lat="43.22731033574237" lon="13.141098617237871"><ele>269.6666666666667</ele><time>2026-04-19T15:50:07.999Z</time></trkpt><trkpt lat="43.22738936260387" lon="13.141294354791057"><ele>272.0</ele><time>2026-04-19T15:50:08.999Z</time></trkpt><trkpt lat="43.22744013705186" lon="13.1415086417175"><ele>268.0</ele><time>2026-04-19T15:50:09.999Z</time></trkpt><trkpt lat="43.22747957420329" lon="13.141737241028924"><ele>264.0</ele><time>2026-04-19T15:50:10.999Z</time></trkpt><trkpt lat="43.22750664213204" lon="13.141975769466791"><ele>260.0</ele><time>2026-04-19T15:50:11.999Z</time></trkpt><trkpt lat="43.22752652087714" lon="13.14221270396859"><ele>259.33333333333337</ele><time>2026-04-19T15:50:12.999Z</time></trkpt><trkpt lat="43.22753465702893" lon="13.142457700894266"><ele>258.6666666666667</ele><time>2026-04-19T15:50:13.999Z</time></trkpt><trkpt lat="43.22752614988656" lon="13.142699107397917"><ele>258.0</ele><time>2026-04-19T15:50:14.999Z</time></trkpt><trkpt lat="43.227518869571504" lon="13.142936724030074"><ele>258.0</ele><time>2026-04-19T15:50:15.999Z</time></trkpt><trkpt lat="43.22751896495012" lon="13.143180838474576"><ele>258.0</ele><time>2026-04-19T15:50:16.999Z</time></trkpt><trkpt lat="43.22752416663458" lon="13.143440369862109"><ele>258.0</ele><time>2026-04-19T15:50:17.999Z</time></trkpt><trkpt lat="43.22753493128846" lon="13.143694812487487"><ele>259.3333333333333</ele><time>2026-04-19T15:50:18.999Z</time></trkpt><trkpt lat="43.22754556903146" lon="13.143958434342737"><ele>260.66666666666663</ele><time>2026-04-19T15:50:19.999Z</time></trkpt><trkpt lat="43.227549522144166" lon="13.144225979531354"><ele>262.0</ele><time>2026-04-19T15:50:20.999Z</time></trkpt><trkpt lat="43.22755631889506" lon="13.14448217302476"><ele>262.0</ele><time>2026-04-19T15:50:21.999Z</time></trkpt><trkpt lat="43.22756248799908" lon="13.144738531251134"><ele>262.0</ele><time>2026-04-19T15:50:22.999Z</time></trkpt><trkpt lat="43.227553131004925" lon="13.144993444150867"><ele>262.0</ele><time>2026-04-19T15:50:23.999Z</time></trkpt><trkpt lat="43.227536020155576" lon="13.14524296346126"><ele>261.0</ele><time>2026-04-19T15:50:24.999Z</time></trkpt><trkpt lat="43.22750211372255" lon="13.14549406190806"><ele>260.0</ele><time>2026-04-19T15:50:25.999Z</time></trkpt><trkpt lat="43.227454229782296" lon="13.14573842862918"><ele>259.0</ele><time>2026-04-19T15:50:26.999Z</time></trkpt><trkpt lat="43.22739448645947" lon="13.145984291826691"><ele>258.3333333333333</ele><time>2026-04-19T15:50:27.999Z</time></trkpt><trkpt lat="43.22732470633269" lon="13.146218604071848"><ele>257.6666666666667</ele><time>2026-04-19T15:50:28.999Z</time></trkpt><trkpt lat="43.22724254118299" lon="13.14644466858558"><ele>257.0</ele><time>2026-04-19T15:50:29.999Z</time></trkpt><trkpt lat="43.227161763938675" lon="13.14667993419509"><ele>253.66666666666669</ele><time>2026-04-19T15:50:30.999Z</time></trkpt><trkpt lat="43.22709005396492" lon="13.146906867408243"><ele>250.33333333333331</ele><time>2026-04-19T15:50:31.999Z</time></trkpt><trkpt lat="43.227025575565214" lon="13.147130886075267"><ele>247.0</ele><time>2026-04-19T15:50:32.999Z</time></trkpt><trkpt lat="43.226975098881255" lon="13.147362223507349"><ele>248.0</ele><time>2026-04-19T15:50:33.999Z</time></trkpt><trkpt lat="43.22693791664126" lon="13.147589878769486"><ele>249.0</ele><time>2026-04-19T15:50:34.999Z</time></trkpt><trkpt lat="43.22691536825487" lon="13.147818329440813"><ele>250.0</ele><time>2026-04-19T15:50:35.999Z</time></trkpt><trkpt lat="43.22690704603476" lon="13.148041349668"><ele>250.0</ele><time>2026-04-19T15:50:36.999Z</time></trkpt><trkpt lat="43.22692159950892" lon="13.148272544444298"><ele>250.0</ele><time>2026-04-19T15:50:37.999Z</time></trkpt><trkpt lat="43.22695167032651" lon="13.148505519919699"><ele>250.0</ele><time>2026-04-19T15:50:38.999Z</time></trkpt><trkpt lat="43.226985019385644" lon="13.14872609927927"><ele>250.0</ele><time>2026-04-19T15:50:39.999Z</time></trkpt><trkpt lat="43.22702113483646" lon="13.148948406567804"><ele>250.0</ele><time>2026-04-19T15:50:40.999Z</time></trkpt><trkpt lat="43.22706197775586" lon="13.149167687328443"><ele>250.0</ele><time>2026-04-19T15:50:41.999Z</time></trkpt><trkpt lat="43.22711764488711" lon="13.149385944228463"><ele>250.33333333333331</ele><time>2026-04-19T15:50:42.999Z</time></trkpt><trkpt lat="43.2271846579133" lon="13.1495840803935"><ele>250.66666666666669</ele><time>2026-04-19T15:50:43.999Z</time></trkpt><trkpt lat="43.22726096706098" lon="13.149769783608235"><ele>251.0</ele><time>2026-04-19T15:50:44.999Z</time></trkpt><trkpt lat="43.227341170886845" lon="13.149952006838868"><ele>252.0</ele><time>2026-04-19T15:50:45.999Z</time></trkpt><trkpt lat="43.227410452119955" lon="13.150127934954096"><ele>253.0</ele><time>2026-04-19T15:50:46.999Z</time></trkpt><trkpt lat="43.227476719528696" lon="13.15029296271077"><ele>254.0</ele><time>2026-04-19T15:50:47.999Z</time></trkpt><trkpt lat="43.227545949490654" lon="13.150458541355219"><ele>255.0</ele><time>2026-04-19T15:50:48.998Z</time></trkpt><trkpt lat="43.22761713423756" lon="13.150620842603216"><ele>253.25</ele><time>2026-04-19T15:50:49.998Z</time></trkpt><trkpt lat="43.22768857884641" lon="13.15079430187786"><ele>251.5</ele><time>2026-04-19T15:50:50.998Z</time></trkpt><trkpt lat="43.227754621251904" lon="13.150966330162515"><ele>249.75</ele><time>2026-04-19T15:50:51.998Z</time></trkpt><trkpt lat="43.22782152448968" lon="13.15114043107316"><ele>248.0</ele><time>2026-04-19T15:50:52.998Z</time></trkpt><trkpt lat="43.22789009085168" lon="13.151318832193112"><ele>248.0</ele><time>2026-04-19T15:50:53.998Z</time></trkpt><trkpt lat="43.22795870302933" lon="13.151483868570327"><ele>248.0</ele><time>2026-04-19T15:50:54.998Z</time></trkpt><trkpt lat="43.22802776931932" lon="13.151648622581467"><ele>248.0</ele><time>2026-04-19T15:50:55.998Z</time></trkpt><trkpt lat="43.22809188964102" lon="13.151807200888278"><ele>248.0</ele><time>2026-04-19T15:50:56.998Z</time></trkpt><trkpt lat="43.2281573664982" lon="13.151968529704131"><ele>249.25</ele><time>2026-04-19T15:50:57.998Z</time></trkpt><trkpt lat="43.22821951354439" lon="13.15212656032335"><ele>250.5</ele><time>2026-04-19T15:50:58.998Z</time></trkpt><trkpt lat="43.228280415868454" lon="13.152282737743336"><ele>251.75</ele><time>2026-04-19T15:50:59.998Z</time></trkpt><trkpt lat="43.228341050307776" lon="13.15243531249838"><ele>253.0</ele><time>2026-04-19T15:51:00.998Z</time></trkpt><trkpt lat="43.22840118266758" lon="13.152586564073808"><ele>253.0</ele><time>2026-04-19T15:51:01.998Z</time></trkpt><trkpt lat="43.22846116980918" lon="13.152736439313646"><ele>253.0</ele><time>2026-04-19T15:51:02.998Z</time></trkpt><trkpt lat="43.22852213283317" lon="13.152881060409698"><ele>253.0</ele><time>2026-04-19T15:51:04Z</time></trkpt><trkpt lat="43.22858015461606" lon="13.153028778406481"><ele>253.0</ele><time>2026-04-19T15:51:05Z</time></trkpt><trkpt lat="43.22863577474067" lon="13.153172690437687"><ele>251.0</ele><time>2026-04-19T15:51:06Z</time></trkpt><trkpt lat="43.22869001152519" lon="13.153312951714623"><ele>249.0</ele><time>2026-04-19T15:51:07Z</time></trkpt><trkpt lat="43.228744571244334" lon="13.153448927149702"><ele>247.0</ele><time>2026-04-19T15:51:08Z</time></trkpt><trkpt lat="43.228797536671806" lon="13.153582848651444"><ele>245.0</ele><time>2026-04-19T15:51:09Z</time></trkpt><trkpt lat="43.228851181984226" lon="13.15372453698777"><ele>245.0</ele><time>2026-04-19T15:51:10Z</time></trkpt><trkpt lat="43.2289073370304" lon="13.153860608975695"><ele>245.0</ele><time>2026-04-19T15:51:11Z</time></trkpt><trkpt lat="43.22896738367968" lon="13.153999541449686"><ele>245.0</ele><time>2026-04-19T15:51:12Z</time></trkpt><trkpt lat="43.229029218365" lon="13.154142265620587"><ele>245.0</ele><time>2026-04-19T15:51:13Z</time></trkpt><trkpt lat="43.22908969969396" lon="13.154279786495277"><ele>244.5</ele><time>2026-04-19T15:51:14Z</time></trkpt><trkpt lat="43.22914860653537" lon="13.154431196162125"><ele>244.0</ele><time>2026-04-19T15:51:15Z</time></trkpt><trkpt lat="43.229205313806126" lon="13.154579563083876"><ele>243.5</ele><time>2026-04-19T15:51:16Z</time></trkpt><trkpt lat="43.22926119098183" lon="13.154724296413876"><ele>243.0</ele><time>2026-04-19T15:51:17Z</time></trkpt><trkpt lat="43.22932092730346" lon="13.154875037451838"><ele>243.0</ele><time>2026-04-19T15:51:18Z</time></trkpt><trkpt lat="43.22938149861307" lon="13.15501997900355"><ele>243.0</ele><time>2026-04-19T15:51:19Z</time></trkpt><trkpt lat="43.22944507237207" lon="13.15517432024599"><ele>243.0</ele><time>2026-04-19T15:51:20Z</time></trkpt><trkpt lat="43.22950631915911" lon="13.155329259264967"><ele>243.0</ele><time>2026-04-19T15:51:21Z</time></trkpt><trkpt lat="43.229567640670474" lon="13.155484167273878"><ele>243.0</ele><time>2026-04-19T15:51:22Z</time></trkpt><trkpt lat="43.229631905753315" lon="13.155645854004755"><ele>243.0</ele><time>2026-04-19T15:51:23Z</time></trkpt><trkpt lat="43.22969292859443" lon="13.155806140223689"><ele>243.0</ele><time>2026-04-19T15:51:24Z</time></trkpt><trkpt lat="43.22975960076236" lon="13.155961539834482"><ele>243.0</ele><time>2026-04-19T15:51:25Z</time></trkpt><trkpt lat="43.229822512102665" lon="13.156118936995451"><ele>245.5</ele><time>2026-04-19T15:51:26Z</time></trkpt><trkpt lat="43.22988608786226" lon="13.15628086050277"><ele>248.0</ele><time>2026-04-19T15:51:27Z</time></trkpt><trkpt lat="43.2299489119354" lon="13.156447574877692"><ele>250.5</ele><time>2026-04-19T15:51:28Z</time></trkpt><trkpt lat="43.23001330127905" lon="13.156615653489155"><ele>253.0</ele><time>2026-04-19T15:51:29Z</time></trkpt><trkpt lat="43.23008110068667" lon="13.156785009647303"><ele>253.0</ele><time>2026-04-19T15:51:30Z</time></trkpt><trkpt lat="43.23013368739474" lon="13.156946447426192"><ele>253.0</ele><time>2026-04-19T15:51:31Z</time></trkpt><trkpt lat="43.230216804106135" lon="13.157138971630964"><ele>253.0</ele><time>2026-04-19T15:51:32Z</time></trkpt><trkpt lat="43.23028912168795" lon="13.15731612258106"><ele>253.0</ele><time>2026-04-19T15:51:33Z</time></trkpt><trkpt lat="43.23036469363591" lon="13.157502595363635"><ele>250.33333333333331</ele><time>2026-04-19T15:51:33.999Z</time></trkpt><trkpt lat="43.23043455351999" lon="13.15769215689201"><ele>247.66666666666669</ele><time>2026-04-19T15:51:34.999Z</time></trkpt><trkpt lat="43.23050216781962" lon="13.157879433126558"><ele>245.0</ele><time>2026-04-19T15:51:35.999Z</time></trkpt><trkpt lat="43.230565475381816" lon="13.158082598511582"><ele>244.0</ele><time>2026-04-19T15:51:36.999Z</time></trkpt><trkpt lat="43.23062469820191" lon="13.158289462982234"><ele>243.0</ele><time>2026-04-19T15:51:37.999Z</time></trkpt><trkpt lat="43.230675467690055" lon="13.158510927019643"><ele>242.0</ele><time>2026-04-19T15:51:38.999Z</time></trkpt><trkpt lat="43.23071982414662" lon="13.158733836007034"><ele>248.66666666666669</ele><time>2026-04-19T15:51:39.999Z</time></trkpt><trkpt lat="43.23075421563638" lon="13.15896925380419"><ele>255.33333333333331</ele><time>2026-04-19T15:51:40.999Z</time></trkpt><trkpt lat="43.23078258565978" lon="13.15919991256403"><ele>262.0</ele><time>2026-04-19T15:51:41.999Z</time></trkpt><trkpt lat="43.2307996658714" lon="13.15944702791659"><ele>262.0</ele><time>2026-04-19T15:51:42.999Z</time></trkpt><trkpt lat="43.23081238663737" lon="13.159690523947265"><ele>262.0</ele><time>2026-04-19T15:51:43.999Z</time></trkpt><trkpt lat="43.230821231200174" lon="13.159931651981953"><ele>262.0</ele><time>2026-04-19T15:51:44.999Z</time></trkpt><trkpt lat="43.23083067305809" lon="13.160181795754188"><ele>260.66666666666663</ele><time>2026-04-19T15:51:45.999Z</time></trkpt><trkpt lat="43.23084344105232" lon="13.160426732208345"><ele>259.3333333333333</ele><time>2026-04-19T15:51:46.999Z</time></trkpt><trkpt lat="43.230857136035844" lon="13.160671214774782"><ele>258.0</ele><time>2026-04-19T15:51:47.999Z</time></trkpt><trkpt lat="43.230870309620464" lon="13.16091627583441"><ele>258.0</ele><time>2026-04-19T15:51:48.999Z</time></trkpt><trkpt lat="43.23088300463765" lon="13.161168261963995"><ele>258.0</ele><time>2026-04-19T15:51:49.999Z</time></trkpt><trkpt lat="43.230897920434366" lon="13.16141143852258"><ele>258.0</ele><time>2026-04-19T15:51:50.999Z</time></trkpt><trkpt lat="43.23091192668591" lon="13.161665928283899"><ele>258.0</ele><time>2026-04-19T15:51:51.999Z</time></trkpt><trkpt lat="43.230922419345006" lon="13.161914697957407"><ele>258.0</ele><time>2026-04-19T15:51:52.999Z</time></trkpt><trkpt lat="43.23093404191251" lon="13.162164400549065"><ele>258.0</ele><time>2026-04-19T15:51:53.999Z</time></trkpt><trkpt lat="43.23093893545116" lon="13.162418067968714"><ele>259.0</ele><time>2026-04-19T15:51:54.999Z</time></trkpt><trkpt lat="43.230943730540574" lon="13.162671552634746"><ele>260.0</ele><time>2026-04-19T15:51:55.999Z</time></trkpt><trkpt lat="43.23094568592476" lon="13.162920237501515"><ele>261.0</ele><time>2026-04-19T15:51:56.999Z</time></trkpt><trkpt lat="43.230941964918955" lon="13.163174875105714"><ele>261.6666666666667</ele><time>2026-04-19T15:51:57.999Z</time></trkpt><trkpt lat="43.23094237526843" lon="13.163436396351896"><ele>262.33333333333337</ele><time>2026-04-19T15:51:58.999Z</time></trkpt><trkpt lat="43.23095259398842" lon="13.16370054257877"><ele>263.0</ele><time>2026-04-19T15:51:59.999Z</time></trkpt><trkpt lat="43.230975690041475" lon="13.163961348343463"><ele>262.0</ele><time>2026-04-19T15:52:00.999Z</time></trkpt><trkpt lat="43.2310066925568" lon="13.164224569837213"><ele>261.0</ele><time>2026-04-19T15:52:01.999Z</time></trkpt><trkpt lat="43.23101994973844" lon="13.164508331777045"><ele>260.0</ele><time>2026-04-19T15:52:02.999Z</time></trkpt><trkpt lat="43.23105808012072" lon="13.164777792783278"><ele>256.6666666666667</ele><time>2026-04-19T15:52:03.999Z</time></trkpt><trkpt lat="43.231140867179406" lon="13.165043910268794"><ele>253.33333333333331</ele><time>2026-04-19T15:52:04.999Z</time></trkpt><trkpt lat="43.231230564270994" lon="13.165284363967485"><ele>250.0</ele><time>2026-04-19T15:52:05.999Z</time></trkpt><trkpt lat="43.231361054266316" lon="13.165450721888648"><ele>250.66666666666666</ele><time>2026-04-19T15:52:06.999Z</time></trkpt><trkpt lat="43.23147542083738" lon="13.1656908687516"><ele>251.33333333333331</ele><time>2026-04-19T15:52:07.999Z</time></trkpt><trkpt lat="43.2315948206057" lon="13.165930420905608"><ele>252.0</ele><time>2026-04-19T15:52:08.999Z</time></trkpt><trkpt lat="43.23171147534276" lon="13.166170186720901"><ele>252.0</ele><time>2026-04-19T15:52:09.999Z</time></trkpt><trkpt lat="43.23183323014903" lon="13.166414025650734"><ele>252.0</ele><time>2026-04-19T15:52:10.999Z</time></trkpt><trkpt lat="43.23194713398189" lon="13.166663031356789"><ele>252.0</ele><time>2026-04-19T15:52:11.999Z</time></trkpt><trkpt lat="43.23206251672909" lon="13.1669105356044"><ele>250.33333333333331</ele><time>2026-04-19T15:52:12.999Z</time></trkpt><trkpt lat="43.23218073694492" lon="13.1671630473554"><ele>248.66666666666666</ele><time>2026-04-19T15:52:13.999Z</time></trkpt><trkpt lat="43.232293675077926" lon="13.167413808760701"><ele>247.0</ele><time>2026-04-19T15:52:14.999Z</time></trkpt><trkpt lat="43.23240534631038" lon="13.167666117256195"><ele>247.0</ele><time>2026-04-19T15:52:15.999Z</time></trkpt><trkpt lat="43.232505438318334" lon="13.167930141819603"><ele>247.0</ele><time>2026-04-19T15:52:16.999Z</time></trkpt><trkpt lat="43.232587811502455" lon="13.16820061663201"><ele>247.0</ele><time>2026-04-19T15:52:17.999Z</time></trkpt><trkpt lat="43.232652449472795" lon="13.168483266319411"><ele>247.33333333333331</ele><time>2026-04-19T15:52:18.999Z</time></trkpt><trkpt lat="43.23271099060952" lon="13.16876296275277"><ele>247.66666666666669</ele><time>2026-04-19T15:52:19.999Z</time></trkpt><trkpt lat="43.23276426101816" lon="13.169041638359566"><ele>248.0</ele><time>2026-04-19T15:52:20.999Z</time></trkpt><trkpt lat="43.23281614213403" lon="13.169321289681006"><ele>248.0</ele><time>2026-04-19T15:52:21.999Z</time></trkpt><trkpt lat="43.232871046513765" lon="13.169598183669219"><ele>248.0</ele><time>2026-04-19T15:52:22.999Z</time></trkpt><trkpt lat="43.23293283332013" lon="13.169877206794675"><ele>248.0</ele><time>2026-04-19T15:52:23.999Z</time></trkpt><trkpt lat="43.2329884463298" lon="13.1701449032455"><ele>246.66666666666669</ele><time>2026-04-19T15:52:24.999Z</time></trkpt><trkpt lat="43.23303896968072" lon="13.17042098729556"><ele>245.33333333333331</ele><time>2026-04-19T15:52:25.999Z</time></trkpt><trkpt lat="43.23309333075339" lon="13.17069648925103"><ele>244.0</ele><time>2026-04-19T15:52:26.999Z</time></trkpt><trkpt lat="43.23314797939893" lon="13.170970349859504"><ele>249.33333333333331</ele><time>2026-04-19T15:52:27.999Z</time></trkpt><trkpt lat="43.233192412277575" lon="13.171206341461508"><ele>254.66666666666669</ele><time>2026-04-19T15:52:28.999Z</time></trkpt><trkpt lat="43.233239456732896" lon="13.171441783950105"><ele>260.0</ele><time>2026-04-19T15:52:29.999Z</time></trkpt><trkpt lat="43.233317764054156" lon="13.171797574208492"><ele>260.0</ele><time>2026-04-19T15:52:30.999Z</time></trkpt><trkpt lat="43.233377187670904" lon="13.17207819617067"><ele>260.0</ele><time>2026-04-19T15:52:31.999Z</time></trkpt><trkpt lat="43.23342790977741" lon="13.172359119319728"><ele>260.0</ele><time>2026-04-19T15:52:32.999Z</time></trkpt><trkpt lat="43.2334802278412" lon="13.17263868385302"><ele>257.6666666666667</ele><time>2026-04-19T15:52:33.999Z</time></trkpt><trkpt lat="43.23353663897957" lon="13.172922455007686"><ele>255.33333333333331</ele><time>2026-04-19T15:52:34.999Z</time></trkpt><trkpt lat="43.233592152949306" lon="13.173206590023245"><ele>253.0</ele><time>2026-04-19T15:52:35.999Z</time></trkpt><trkpt lat="43.23364507005299" lon="13.173483575076808"><ele>252.0</ele><time>2026-04-19T15:52:36.999Z</time></trkpt><trkpt lat="43.23368684462495" lon="13.173764887856978"><ele>251.0</ele><time>2026-04-19T15:52:37.999Z</time></trkpt><trkpt lat="43.23370871436058" lon="13.174054362101302"><ele>250.0</ele><time>2026-04-19T15:52:38.999Z</time></trkpt><trkpt lat="43.233709560042044" lon="13.174342980819537"><ele>250.0</ele><time>2026-04-19T15:52:39.999Z</time></trkpt><trkpt lat="43.23370558521311" lon="13.174630782010816"><ele>250.0</ele><time>2026-04-19T15:52:40.999Z</time></trkpt><trkpt lat="43.23370060641453" lon="13.1749197408448"><ele>250.0</ele><time>2026-04-19T15:52:41.999Z</time></trkpt><trkpt lat="43.23369360649668" lon="13.175208670582588"><ele>250.0</ele><time>2026-04-19T15:52:42.999Z</time></trkpt><trkpt lat="43.23368569348843" lon="13.175497530724845"><ele>250.0</ele><time>2026-04-19T15:52:43.999Z</time></trkpt><trkpt lat="43.23367917349604" lon="13.175789675249279"><ele>250.0</ele><time>2026-04-19T15:52:44.999Z</time></trkpt><trkpt lat="43.23367477985357" lon="13.176083704436142"><ele>250.0</ele><time>2026-04-19T15:52:45.999Z</time></trkpt><trkpt lat="43.23367365661867" lon="13.17637768454319"><ele>250.0</ele><time>2026-04-19T15:52:46.999Z</time></trkpt><trkpt lat="43.233672234130836" lon="13.176676756598777"><ele>250.0</ele><time>2026-04-19T15:52:47.999Z</time></trkpt><trkpt lat="43.23367340591951" lon="13.176976753981634"><ele>248.66666666666666</ele><time>2026-04-19T15:52:48.999Z</time></trkpt><trkpt lat="43.233670841955366" lon="13.177271106639173"><ele>247.33333333333331</ele><time>2026-04-19T15:52:49.999Z</time></trkpt><trkpt lat="43.23366999249041" lon="13.177564159327455"><ele>246.0</ele><time>2026-04-19T15:52:50.999Z</time></trkpt><trkpt lat="43.233656798666416" lon="13.177841854389905"><ele>245.66666666666669</ele><time>2026-04-19T15:52:51.999Z</time></trkpt><trkpt lat="43.23362812062528" lon="13.178103851369453"><ele>245.33333333333334</ele><time>2026-04-19T15:52:52.999Z</time></trkpt><trkpt lat="43.23360376664142" lon="13.178369963024046"><ele>245.0</ele><time>2026-04-19T15:52:53.999Z</time></trkpt><trkpt lat="43.23358126800665" lon="13.178617005266618"><ele>244.66666666666669</ele><time>2026-04-19T15:52:54.999Z</time></trkpt><trkpt lat="43.23357584917762" lon="13.178861051663024"><ele>244.33333333333331</ele><time>2026-04-19T15:52:55.999Z</time></trkpt><trkpt lat="43.23359302373477" lon="13.179114206203364"><ele>244.0</ele><time>2026-04-19T15:52:56.999Z</time></trkpt><trkpt lat="43.23362006673487" lon="13.17935541351867"><ele>243.33333333333331</ele><time>2026-04-19T15:52:57.999Z</time></trkpt><trkpt lat="43.233642511716454" lon="13.179590799035521"><ele>242.66666666666669</ele><time>2026-04-19T15:52:58.999Z</time></trkpt><trkpt lat="43.23367710692854" lon="13.179831702709835"><ele>242.0</ele><time>2026-04-19T15:52:59.999Z</time></trkpt><trkpt lat="43.23372070251722" lon="13.180070292837174"><ele>241.33333333333334</ele><time>2026-04-19T15:53:00.998Z</time></trkpt><trkpt lat="43.23377189229716" lon="13.180306699580717"><ele>240.66666666666669</ele><time>2026-04-19T15:53:01.998Z</time></trkpt><trkpt lat="43.23382452429696" lon="13.180547581664996"><ele>240.0</ele><time>2026-04-19T15:53:02.998Z</time></trkpt><trkpt lat="43.2338729119896" lon="13.180778024842446"><ele>238.66666666666669</ele><time>2026-04-19T15:53:03.998Z</time></trkpt><trkpt lat="43.233919852111015" lon="13.181001054358054"><ele>237.33333333333334</ele><time>2026-04-19T15:53:04.998Z</time></trkpt><trkpt lat="43.23396637135776" lon="13.181227451280481"><ele>236.0</ele><time>2026-04-19T15:53:05.998Z</time></trkpt><trkpt lat="43.23401459811131" lon="13.18145754832955"><ele>237.33333333333334</ele><time>2026-04-19T15:53:06.998Z</time></trkpt><trkpt lat="43.234066134474936" lon="13.181685364926839"><ele>238.66666666666669</ele><time>2026-04-19T15:53:07.998Z</time></trkpt><trkpt lat="43.234111877029235" lon="13.181914992423872"><ele>240.0</ele><time>2026-04-19T15:53:08.998Z</time></trkpt><trkpt lat="43.23416398302284" lon="13.182142806308676"><ele>239.66666666666669</ele><time>2026-04-19T15:53:10Z</time></trkpt><trkpt lat="43.234210495146094" lon="13.182368045278302"><ele>239.33333333333334</ele><time>2026-04-19T15:53:11Z</time></trkpt><trkpt lat="43.2342504526275" lon="13.182589516163567"><ele>239.0</ele><time>2026-04-19T15:53:12Z</time></trkpt><trkpt lat="43.23428778656355" lon="13.182812736723674"><ele>239.0</ele><time>2026-04-19T15:53:13Z</time></trkpt><trkpt lat="43.23432036842264" lon="13.18303425756566"><ele>239.0</ele><time>2026-04-19T15:53:14Z</time></trkpt><trkpt lat="43.234343679038275" lon="13.183246522756171"><ele>239.0</ele><time>2026-04-19T15:53:15Z</time></trkpt><trkpt lat="43.23435059645793" lon="13.183446005976075"><ele>238.75</ele><time>2026-04-19T15:53:16Z</time></trkpt><trkpt lat="43.234347054612506" lon="13.1836361044793"><ele>238.5</ele><time>2026-04-19T15:53:17Z</time></trkpt><trkpt lat="43.23432740991741" lon="13.18383169414491"><ele>238.25</ele><time>2026-04-19T15:53:18Z</time></trkpt><trkpt lat="43.23430213290815" lon="13.18402212257008"><ele>238.0</ele><time>2026-04-19T15:53:19Z</time></trkpt><trkpt lat="43.2342825057154" lon="13.184213443068842"><ele>237.2</ele><time>2026-04-19T15:53:20Z</time></trkpt><trkpt lat="43.23426704181087" lon="13.184385822989649"><ele>236.4</ele><time>2026-04-19T15:53:21Z</time></trkpt><trkpt lat="43.23426250857554" lon="13.184541979819526"><ele>235.59999999999997</ele><time>2026-04-19T15:53:22Z</time></trkpt><trkpt lat="43.234268566020845" lon="13.184678873026265"><ele>234.79999999999998</ele><time>2026-04-19T15:53:23Z</time></trkpt><trkpt lat="43.23428835022954" lon="13.184800803485599"><ele>234.0</ele><time>2026-04-19T15:53:24Z</time></trkpt><trkpt lat="43.23431725065534" lon="13.184924917021261"><ele>233.83333333333334</ele><time>2026-04-19T15:53:25Z</time></trkpt><trkpt lat="43.23434408277034" lon="13.185044584071647"><ele>233.66666666666669</ele><time>2026-04-19T15:53:26Z</time></trkpt><trkpt lat="43.234367670552665" lon="13.185153766752602"><ele>233.5</ele><time>2026-04-19T15:53:27Z</time></trkpt><trkpt lat="43.234384824240585" lon="13.185264046604496"><ele>233.33333333333334</ele><time>2026-04-19T15:53:28Z</time></trkpt><trkpt lat="43.23438899636424" lon="13.18536151008198"><ele>233.16666666666669</ele><time>2026-04-19T15:53:29Z</time></trkpt><trkpt lat="43.23436552580469" lon="13.185449157623989"><ele>233.0</ele><time>2026-04-19T15:53:30Z</time></trkpt><trkpt lat="43.23433019483292" lon="13.18552548567462"><ele>233.0</ele><time>2026-04-19T15:53:31Z</time></trkpt><trkpt lat="43.23427460293365" lon="13.185574170878493"><ele>233.0</ele><time>2026-04-19T15:53:32Z</time></trkpt><trkpt lat="43.2342093687507" lon="13.185605446963923"><ele>233.0</ele><time>2026-04-19T15:53:33Z</time></trkpt><trkpt lat="43.23413936066021" lon="13.185637327489074"><ele>233.0</ele><time>2026-04-19T15:53:34Z</time></trkpt><trkpt lat="43.23407295035531" lon="13.185664380501363"><ele>233.0</ele><time>2026-04-19T15:53:35Z</time></trkpt><trkpt lat="43.23400825406715" lon="13.185686210184242"><ele>233.0</ele><time>2026-04-19T15:53:36Z</time></trkpt><trkpt lat="43.23394197496632" lon="13.185710337339376"><ele>233.0</ele><time>2026-04-19T15:53:37Z</time></trkpt><trkpt lat="43.23382460734368" lon="13.185752855526784"><ele>232.75</ele><time>2026-04-19T15:53:39Z</time></trkpt><trkpt lat="43.23370615597775" lon="13.185794952044326"><ele>232.5</ele><time>2026-04-19T15:53:41Z</time></trkpt><trkpt lat="43.233593932064814" lon="13.185848721826527"><ele>232.25</ele><time>2026-04-19T15:53:43Z</time></trkpt><trkpt lat="43.23350525374609" lon="13.185949841739617"><ele>232.0</ele><time>2026-04-19T15:53:44.999Z</time></trkpt><trkpt lat="43.23353026079227" lon="13.186094539532487"><ele>232.0</ele><time>2026-04-19T15:53:46.999Z</time></trkpt><trkpt lat="43.23357294588139" lon="13.186212162753161"><ele>232.0</ele><time>2026-04-19T15:53:48.999Z</time></trkpt><trkpt lat="43.23367676605844" lon="13.186218388260954"><ele>232.0</ele><time>2026-04-19T15:53:49.999Z</time></trkpt><trkpt lat="43.233565695376406" lon="13.186341011345956"><ele>232.0</ele><time>2026-04-19T15:53:50.999Z</time></trkpt><trkpt lat="43.23360683397646" lon="13.18643548075142"><ele>232.0</ele><time>2026-04-19T15:53:52.999Z</time></trkpt><trkpt lat="43.2338223947558" lon="13.186124202358036"><ele>232.0</ele><time>2026-04-19T15:53:53.999Z</time></trkpt><trkpt lat="43.233842141951946" lon="13.186022650975255"><ele>232.0</ele><time>2026-04-19T15:53:55.999Z</time></trkpt><trkpt lat="43.23390232984596" lon="13.185887341937473"><ele>232.0</ele><time>2026-04-19T15:53:56.999Z</time></trkpt><trkpt lat="43.23402739854776" lon="13.18585480677211"><ele>232.0</ele><time>2026-04-19T15:53:58.999Z</time></trkpt><trkpt lat="43.23412623349739" lon="13.185853086321648"><ele>232.0</ele><time>2026-04-19T15:54:00.999Z</time></trkpt><trkpt lat="43.23420031517286" lon="13.185868750986542"><ele>231.75</ele><time>2026-04-19T15:54:04.999Z</time></trkpt><trkpt lat="43.23426730329222" lon="13.185898658956063"><ele>231.5</ele><time>2026-04-19T15:54:07.999Z</time></trkpt><trkpt lat="43.2343465738077" lon="13.18590548094716"><ele>231.25</ele><time>2026-04-19T15:54:08.999Z</time></trkpt><trkpt lat="43.23445739067704" lon="13.186200854966458"><ele>231.0</ele><time>2026-04-19T15:54:10.999Z</time></trkpt><trkpt lat="43.234479966780405" lon="13.186281542727253"><ele>231.0</ele><time>2026-04-19T15:56:08.999Z</time></trkpt><trkpt lat="43.234284406679905" lon="13.186407707575631"><ele>231.00000000000003</ele><time>2026-04-19T15:56:10.999Z</time></trkpt><trkpt lat="43.23421953493063" lon="13.18639828381484"><ele>231.00000000000003</ele><time>2026-04-19T15:56:29.852Z</time></trkpt><trkpt lat="43.234305845180515" lon="13.186389958546627"><ele>231.0</ele><time>2026-04-19T16:07:21.992Z</time></trkpt><trkpt lat="43.23433817035627" lon="13.186309130149864"><ele>231.0</ele><time>2026-04-19T16:07:30.001Z</time></trkpt><trkpt lat="43.23439277801002" lon="13.186262734194367"><ele>231.0</ele><time>2026-04-19T16:09:00.999Z</time></trkpt><trkpt lat="43.2344268455286" lon="13.186165692848133"><ele>231.0</ele><time>2026-04-19T16:09:03.999Z</time></trkpt><trkpt lat="43.23435602456479" lon="13.186140998376242"><ele>231.0</ele><time>2026-04-19T16:09:05.999Z</time></trkpt><trkpt lat="43.234294124707134" lon="13.18617585010342"><ele>231.0</ele><time>2026-04-19T16:09:07.999Z</time></trkpt><trkpt lat="43.23422658907349" lon="13.186199707229434"><ele>231.0</ele><time>2026-04-19T16:09:09.999Z</time></trkpt><trkpt lat="43.234157121289904" lon="13.186238758104833"><ele>231.0</ele><time>2026-04-19T16:09:11.999Z</time></trkpt><trkpt lat="43.23408037154507" lon="13.18627407800985"><ele>231.0</ele><time>2026-04-19T16:09:13.999Z</time></trkpt><trkpt lat="43.23398789097643" lon="13.186291434201843"><ele>231.20000000000002</ele><time>2026-04-19T16:09:15.999Z</time></trkpt><trkpt lat="43.233897839309265" lon="13.186320020923505"><ele>231.40000000000003</ele><time>2026-04-19T16:09:17.999Z</time></trkpt><trkpt lat="43.233817700649944" lon="13.18634248902876"><ele>231.6</ele><time>2026-04-19T16:09:19.999Z</time></trkpt><trkpt lat="43.23376305601594" lon="13.186469373413617"><ele>231.8</ele><time>2026-04-19T16:09:21.998Z</time></trkpt><trkpt lat="43.23367013252431" lon="13.186326072029157"><ele>232.0</ele><time>2026-04-19T16:09:22.998Z</time></trkpt><trkpt lat="43.233696175169925" lon="13.186191490241793"><ele>232.0</ele><time>2026-04-19T16:09:25.998Z</time></trkpt><trkpt lat="43.23373184767727" lon="13.18604283324139"><ele>232.0</ele><time>2026-04-19T16:09:28Z</time></trkpt><trkpt lat="43.23378043194562" lon="13.185901312815819"><ele>232.0</ele><time>2026-04-19T16:09:30Z</time></trkpt><trkpt lat="43.233906923044664" lon="13.185908789816164"><ele>232.0</ele><time>2026-04-19T16:09:31Z</time></trkpt><trkpt lat="43.233971035769756" lon="13.18586372094215"><ele>232.0</ele><time>2026-04-19T16:09:32Z</time></trkpt><trkpt lat="43.234044747508946" lon="13.185854097445768"><ele>231.83333333333331</ele><time>2026-04-19T16:09:33Z</time></trkpt><trkpt lat="43.23411661088052" lon="13.185853086320696"><ele>231.66666666666666</ele><time>2026-04-19T16:09:34Z</time></trkpt><trkpt lat="43.23418493925153" lon="13.1858803299143"><ele>231.5</ele><time>2026-04-19T16:09:35Z</time></trkpt><trkpt lat="43.23425714156276" lon="13.185870686634294"><ele>231.33333333333331</ele><time>2026-04-19T16:09:36Z</time></trkpt><trkpt lat="43.23432736793533" lon="13.185916872071752"><ele>231.16666666666666</ele><time>2026-04-19T16:09:37Z</time></trkpt><trkpt lat="43.23439978823997" lon="13.185924797449442"><ele>231.0</ele><time>2026-04-19T16:09:38Z</time></trkpt><trkpt lat="43.23448692824693" lon="13.186090193641633"><ele>231.0</ele><time>2026-04-19T16:09:40Z</time></trkpt><trkpt lat="43.23451683578068" lon="13.186185202723808"><ele>231.0</ele><time>2026-04-19T16:09:41Z</time></trkpt><trkpt lat="43.234547926877454" lon="13.186293137080385"><ele>231.0</ele><time>2026-04-19T16:09:42Z</time></trkpt><trkpt lat="43.23457697558644" lon="13.186412018949481"><ele>231.0</ele><time>2026-04-19T16:09:43Z</time></trkpt><trkpt lat="43.23460342473199" lon="13.186538961351156"><ele>231.0</ele><time>2026-04-19T16:09:44Z</time></trkpt><trkpt lat="43.234628011906906" lon="13.186670299607584"><ele>231.0</ele><time>2026-04-19T16:09:45Z</time></trkpt><trkpt lat="43.23465172059974" lon="13.18680776134967"><ele>231.25</ele><time>2026-04-19T16:09:46Z</time></trkpt><trkpt lat="43.23467699590314" lon="13.186956849047206"><ele>231.5</ele><time>2026-04-19T16:09:47Z</time></trkpt><trkpt lat="43.234702164456806" lon="13.187100747593671"><ele>231.75</ele><time>2026-04-19T16:09:48Z</time></trkpt><trkpt lat="43.23473176544306" lon="13.18724975298059"><ele>232.0</ele><time>2026-04-19T16:09:49Z</time></trkpt><trkpt lat="43.23476252869137" lon="13.187407426885184"><ele>232.0</ele><time>2026-04-19T16:09:50Z</time></trkpt><trkpt lat="43.234793622845274" lon="13.187570016149108"><ele>232.0</ele><time>2026-04-19T16:09:51Z</time></trkpt><trkpt lat="43.2348273957557" lon="13.18773551396566"><ele>232.0</ele><time>2026-04-19T16:09:52Z</time></trkpt><trkpt lat="43.2348600262263" lon="13.187905253422487"><ele>232.0</ele><time>2026-04-19T16:09:53Z</time></trkpt><trkpt lat="43.2348917797474" lon="13.188081065514513"><ele>233.0</ele><time>2026-04-19T16:09:54Z</time></trkpt><trkpt lat="43.23492459037063" lon="13.188259888644145"><ele>234.0</ele><time>2026-04-19T16:09:55Z</time></trkpt><trkpt lat="43.23495759945072" lon="13.188441563537067"><ele>235.0</ele><time>2026-04-19T16:09:56Z</time></trkpt><trkpt lat="43.23498805651297" lon="13.188625558201307"><ele>236.0</ele><time>2026-04-19T16:09:57Z</time></trkpt><trkpt lat="43.235023430378035" lon="13.188813270113172"><ele>236.0</ele><time>2026-04-19T16:09:58Z</time></trkpt><trkpt lat="43.235059388716024" lon="13.188998244307248"><ele>236.0</ele><time>2026-04-19T16:09:59Z</time></trkpt><trkpt lat="43.23509656991477" lon="13.189177779493441"><ele>236.0</ele><time>2026-04-19T16:10:00Z</time></trkpt><trkpt lat="43.235130836879215" lon="13.18934394937749"><ele>236.0</ele><time>2026-04-19T16:10:01Z</time></trkpt><trkpt lat="43.235158572316436" lon="13.18949764208872"><ele>236.0</ele><time>2026-04-19T16:10:02Z</time></trkpt><trkpt lat="43.235192356956446" lon="13.189635991350029"><ele>236.00000000000003</ele><time>2026-04-19T16:10:03Z</time></trkpt><trkpt lat="43.23521598483418" lon="13.189778298129948"><ele>236.00000000000003</ele><time>2026-04-19T16:10:04Z</time></trkpt><trkpt lat="43.23523116522124" lon="13.189910299747138"><ele>236.0</ele><time>2026-04-19T16:10:05Z</time></trkpt><trkpt lat="43.235256516708425" lon="13.1900344041813"><ele>236.0</ele><time>2026-04-19T16:10:06Z</time></trkpt><trkpt lat="43.23528214612028" lon="13.190193765689454"><ele>236.0</ele><time>2026-04-19T16:10:07Z</time></trkpt><trkpt lat="43.235330405146385" lon="13.190321285916351"><ele>236.00000000000003</ele><time>2026-04-19T16:10:08Z</time></trkpt><trkpt lat="43.235363106733516" lon="13.19042049959207"><ele>236.00000000000003</ele><time>2026-04-19T16:10:08.999Z</time></trkpt><trkpt lat="43.235393524473565" lon="13.190529174813612"><ele>236.0</ele><time>2026-04-19T16:10:09.999Z</time></trkpt><trkpt lat="43.23540991243003" lon="13.19064595615941"><ele>236.0</ele><time>2026-04-19T16:10:10.999Z</time></trkpt><trkpt lat="43.23541251141582" lon="13.190781066985542"><ele>236.0</ele><time>2026-04-19T16:10:11.999Z</time></trkpt><trkpt lat="43.23541188163728" lon="13.19091918548026"><ele>236.00000000000003</ele><time>2026-04-19T16:10:12.999Z</time></trkpt><trkpt lat="43.235420073449184" lon="13.191061363285153"><ele>236.00000000000003</ele><time>2026-04-19T16:10:13.999Z</time></trkpt><trkpt lat="43.235434865523814" lon="13.1912018417385"><ele>236.0</ele><time>2026-04-19T16:10:14.999Z</time></trkpt><trkpt lat="43.23544759676638" lon="13.191337361183463"><ele>236.0</ele><time>2026-04-19T16:10:15.999Z</time></trkpt><trkpt lat="43.23545204861717" lon="13.191468370867167"><ele>235.8</ele><time>2026-04-19T16:10:16.999Z</time></trkpt><trkpt lat="43.2354546962609" lon="13.191601234161162"><ele>235.60000000000002</ele><time>2026-04-19T16:10:17.999Z</time></trkpt><trkpt lat="43.23545721992263" lon="13.191734064935781"><ele>235.4</ele><time>2026-04-19T16:10:18.999Z</time></trkpt><trkpt lat="43.23545941668185" lon="13.191866782005864"><ele>235.2</ele><time>2026-04-19T16:10:19.999Z</time></trkpt><trkpt lat="43.23545874472664" lon="13.192003010671707"><ele>235.0</ele><time>2026-04-19T16:10:20.999Z</time></trkpt><trkpt lat="43.235451668886746" lon="13.192142853482133"><ele>235.0</ele><time>2026-04-19T16:10:21.999Z</time></trkpt><trkpt lat="43.235443685530974" lon="13.192286001007044"><ele>235.0</ele><time>2026-04-19T16:10:22.999Z</time></trkpt><trkpt lat="43.23543410788388" lon="13.192434641567393"><ele>235.0</ele><time>2026-04-19T16:10:23.999Z</time></trkpt><trkpt lat="43.235420626632646" lon="13.192575148003382"><ele>235.0</ele><time>2026-04-19T16:10:24.999Z</time></trkpt><trkpt lat="43.23540276075344" lon="13.192711873347417"><ele>235.0</ele><time>2026-04-19T16:10:25.999Z</time></trkpt><trkpt lat="43.23538111157278" lon="13.192848615765921"><ele>234.49999999999997</ele><time>2026-04-19T16:10:26.999Z</time></trkpt><trkpt lat="43.23535371435365" lon="13.192972303974356"><ele>234.0</ele><time>2026-04-19T16:10:27.999Z</time></trkpt><trkpt lat="43.23530410949318" lon="13.19306189773439"><ele>233.5</ele><time>2026-04-19T16:10:28.999Z</time></trkpt><trkpt lat="43.23525135502624" lon="13.193146762119815"><ele>233.0</ele><time>2026-04-19T16:10:29.999Z</time></trkpt><trkpt lat="43.23519248388613" lon="13.193217049405916"><ele>232.49999999999997</ele><time>2026-04-19T16:10:30.999Z</time></trkpt><trkpt lat="43.235149693753826" lon="13.193282358125593"><ele>232.0</ele><time>2026-04-19T16:10:31.999Z</time></trkpt><trkpt lat="43.2351274409193" lon="13.193422478203715"><ele>231.99999999999997</ele><time>2026-04-19T16:10:33.999Z</time></trkpt><trkpt lat="43.235178833088504" lon="13.193541954888241"><ele>232.0</ele><time>2026-04-19T16:10:35.999Z</time></trkpt><trkpt lat="43.2352650023131" lon="13.193663177915711"><ele>232.0</ele><time>2026-04-19T16:10:37.999Z</time></trkpt><trkpt lat="43.23530707547117" lon="13.193741722721695"><ele>232.0</ele><time>2026-04-19T16:10:38.999Z</time></trkpt><trkpt lat="43.235340025733514" lon="13.193826481521787"><ele>231.99999999999997</ele><time>2026-04-19T16:10:39.999Z</time></trkpt><trkpt lat="43.23536727470341" lon="13.193928221736778"><ele>232.0</ele><time>2026-04-19T16:10:40.999Z</time></trkpt><trkpt lat="43.23538393341895" lon="13.194042657861889"><ele>232.2</ele><time>2026-04-19T16:10:41.999Z</time></trkpt><trkpt lat="43.235397703279475" lon="13.194166771292936"><ele>232.39999999999998</ele><time>2026-04-19T16:10:42.999Z</time></trkpt><trkpt lat="43.235419079626936" lon="13.194296657713018"><ele>232.60000000000002</ele><time>2026-04-19T16:10:43.999Z</time></trkpt><trkpt lat="43.23544400905698" lon="13.194438886693654"><ele>232.8</ele><time>2026-04-19T16:10:44.999Z</time></trkpt><trkpt lat="43.23546984504044" lon="13.19459105227624"><ele>233.0</ele><time>2026-04-19T16:10:45.999Z</time></trkpt><trkpt lat="43.235497338317806" lon="13.194744926770618"><ele>233.25</ele><time>2026-04-19T16:10:46.999Z</time></trkpt><trkpt lat="43.23552114455233" lon="13.19490174451235"><ele>233.5</ele><time>2026-04-19T16:10:47.999Z</time></trkpt><trkpt lat="43.2355474531758" lon="13.195060037032627"><ele>233.75</ele><time>2026-04-19T16:10:48.999Z</time></trkpt><trkpt lat="43.23557368366272" lon="13.195225349337242"><ele>234.0</ele><time>2026-04-19T16:10:49.999Z</time></trkpt><trkpt lat="43.23559961841832" lon="13.195391693015019"><ele>234.0</ele><time>2026-04-19T16:10:50.999Z</time></trkpt><trkpt lat="43.23562655452967" lon="13.195558201855926"><ele>234.0</ele><time>2026-04-19T16:10:51.999Z</time></trkpt><trkpt lat="43.23565385510203" lon="13.19572574099506"><ele>234.0</ele><time>2026-04-19T16:10:52.999Z</time></trkpt><trkpt lat="43.23568299429743" lon="13.195904831745032"><ele>234.0</ele><time>2026-04-19T16:10:53.999Z</time></trkpt><trkpt lat="43.235713292814665" lon="13.196080660861943"><ele>234.25</ele><time>2026-04-19T16:10:54.999Z</time></trkpt><trkpt lat="43.235741796501316" lon="13.196261162783019"><ele>234.5</ele><time>2026-04-19T16:10:55.999Z</time></trkpt><trkpt lat="43.23577079013998" lon="13.19644715224767"><ele>234.75</ele><time>2026-04-19T16:10:56.999Z</time></trkpt><trkpt lat="43.23580405981996" lon="13.19662300559952"><ele>235.0</ele><time>2026-04-19T16:10:57.999Z</time></trkpt><trkpt lat="43.23583578115927" lon="13.196809030813016"><ele>234.0</ele><time>2026-04-19T16:10:58.999Z</time></trkpt><trkpt lat="43.235866739417055" lon="13.196997988652885"><ele>233.0</ele><time>2026-04-19T16:10:59.999Z</time></trkpt><trkpt lat="43.235897243134815" lon="13.197187514170102"><ele>232.0</ele><time>2026-04-19T16:11:00.999Z</time></trkpt><trkpt lat="43.235933104193855" lon="13.197383830799422"><ele>231.0</ele><time>2026-04-19T16:11:01.999Z</time></trkpt><trkpt lat="43.235971039677885" lon="13.197580233548955"><ele>230.33333333333331</ele><time>2026-04-19T16:11:02.999Z</time></trkpt><trkpt lat="43.23601124596934" lon="13.197780453868656"><ele>229.66666666666666</ele><time>2026-04-19T16:11:03.999Z</time></trkpt><trkpt lat="43.23605346554305" lon="13.197978194941195"><ele>229.0</ele><time>2026-04-19T16:11:04.999Z</time></trkpt><trkpt lat="43.236094357870705" lon="13.198183331271586"><ele>229.0</ele><time>2026-04-19T16:11:05.999Z</time></trkpt><trkpt lat="43.23613426583349" lon="13.19839610745237"><ele>229.0</ele><time>2026-04-19T16:11:06.999Z</time></trkpt><trkpt lat="43.23617503202535" lon="13.198601843444724"><ele>229.0</ele><time>2026-04-19T16:11:07.999Z</time></trkpt><trkpt lat="43.23621397947309" lon="13.198814405455769"><ele>229.0</ele><time>2026-04-19T16:11:08.999Z</time></trkpt><trkpt lat="43.236251411451256" lon="13.199031863223334"><ele>229.0</ele><time>2026-04-19T16:11:09.999Z</time></trkpt><trkpt lat="43.236295442711395" lon="13.199243311612086"><ele>229.0</ele><time>2026-04-19T16:11:10.999Z</time></trkpt><trkpt lat="43.23633790628174" lon="13.19945267165966"><ele>229.0</ele><time>2026-04-19T16:11:11.999Z</time></trkpt><trkpt lat="43.23637679802741" lon="13.199673845970883"><ele>229.0</ele><time>2026-04-19T16:11:12.999Z</time></trkpt><trkpt lat="43.23642137310738" lon="13.199883209750288"><ele>229.0</ele><time>2026-04-19T16:11:13.999Z</time></trkpt><trkpt lat="43.23645655659286" lon="13.20011216909793"><ele>228.66666666666666</ele><time>2026-04-19T16:11:14.999Z</time></trkpt><trkpt lat="43.236493127398354" lon="13.200328874600254"><ele>228.33333333333331</ele><time>2026-04-19T16:11:15.999Z</time></trkpt><trkpt lat="43.236529122738375" lon="13.200558320016446"><ele>228.0</ele><time>2026-04-19T16:11:16.999Z</time></trkpt><trkpt lat="43.23656493404095" lon="13.200785389718826"><ele>227.66666666666669</ele><time>2026-04-19T16:11:17.999Z</time></trkpt><trkpt lat="43.23660021193876" lon="13.201014878903752"><ele>227.33333333333334</ele><time>2026-04-19T16:11:18.999Z</time></trkpt><trkpt lat="43.236636719488736" lon="13.201247774354652"><ele>227.0</ele><time>2026-04-19T16:11:19.999Z</time></trkpt><trkpt lat="43.23667395883556" lon="13.201473811685506"><ele>226.66666666666669</ele><time>2026-04-19T16:11:20.999Z</time></trkpt><trkpt lat="43.23670685790425" lon="13.20170993260765"><ele>226.33333333333331</ele><time>2026-04-19T16:11:21.999Z</time></trkpt><trkpt lat="43.236738816207286" lon="13.201940658745857"><ele>226.0</ele><time>2026-04-19T16:11:22.999Z</time></trkpt><trkpt lat="43.23677068407212" lon="13.20216870815465"><ele>225.66666666666666</ele><time>2026-04-19T16:11:23.998Z</time></trkpt><trkpt lat="43.23680169266482" lon="13.202400237316047"><ele>225.33333333333331</ele><time>2026-04-19T16:11:24.998Z</time></trkpt><trkpt lat="43.2368379277013" lon="13.20262403125255"><ele>225.0</ele><time>2026-04-19T16:11:25.998Z</time></trkpt><trkpt lat="43.236871323939624" lon="13.202852064069344"><ele>225.0</ele><time>2026-04-19T16:11:26.998Z</time></trkpt><trkpt lat="43.23690818805944" lon="13.203073248907549"><ele>225.0</ele><time>2026-04-19T16:11:27.998Z</time></trkpt><trkpt lat="43.23694533996212" lon="13.203301443916347"><ele>225.0</ele><time>2026-04-19T16:11:28.998Z</time></trkpt><trkpt lat="43.236981612431556" lon="13.203524309338471"><ele>224.33333333333331</ele><time>2026-04-19T16:11:29.998Z</time></trkpt><trkpt lat="43.2370205872159" lon="13.203744160792166"><ele>223.66666666666666</ele><time>2026-04-19T16:11:30.998Z</time></trkpt><trkpt lat="43.23705811974799" lon="13.203964334733156"><ele>223.0</ele><time>2026-04-19T16:11:31.998Z</time></trkpt><trkpt lat="43.237092923586616" lon="13.204188257356476"><ele>222.0</ele><time>2026-04-19T16:11:32.998Z</time></trkpt><trkpt lat="43.23713279352303" lon="13.204406233616822"><ele>221.0</ele><time>2026-04-19T16:11:34Z</time></trkpt><trkpt lat="43.23716745836287" lon="13.204624069714686"><ele>220.0</ele><time>2026-04-19T16:11:35Z</time></trkpt><trkpt lat="43.23720785260129" lon="13.204846762581514"><ele>219.0</ele><time>2026-04-19T16:11:36Z</time></trkpt><trkpt lat="43.2372422285904" lon="13.2050638999453"><ele>218.0</ele><time>2026-04-19T16:11:37Z</time></trkpt><trkpt lat="43.23728127929192" lon="13.205282014889008"><ele>217.0</ele><time>2026-04-19T16:11:38Z</time></trkpt><trkpt lat="43.23732120817274" lon="13.20549371756"><ele>220.66666666666666</ele><time>2026-04-19T16:11:39Z</time></trkpt><trkpt lat="43.23735694524164" lon="13.205711470956969"><ele>224.33333333333331</ele><time>2026-04-19T16:11:40Z</time></trkpt><trkpt lat="43.23739232303272" lon="13.205928504740507"><ele>228.0</ele><time>2026-04-19T16:11:41Z</time></trkpt><trkpt lat="43.237434668028754" lon="13.206136635864652"><ele>228.0</ele><time>2026-04-19T16:11:42Z</time></trkpt><trkpt lat="43.23748039817525" lon="13.206348531758207"><ele>228.0</ele><time>2026-04-19T16:11:43Z</time></trkpt><trkpt lat="43.23753461727216" lon="13.206547052844886"><ele>228.0</ele><time>2026-04-19T16:11:44Z</time></trkpt><trkpt lat="43.237589411425375" lon="13.206747199876329"><ele>227.0</ele><time>2026-04-19T16:11:45Z</time></trkpt><trkpt lat="43.23764644856933" lon="13.206953411232286"><ele>226.0</ele><time>2026-04-19T16:11:46Z</time></trkpt><trkpt lat="43.23771016768233" lon="13.207139788394429"><ele>225.0</ele><time>2026-04-19T16:11:47Z</time></trkpt><trkpt lat="43.237761254414146" lon="13.207333774262073"><ele>223.75</ele><time>2026-04-19T16:11:48Z</time></trkpt><trkpt lat="43.23782330984655" lon="13.207514329491236"><ele>222.5</ele><time>2026-04-19T16:11:49Z</time></trkpt><trkpt lat="43.23789015475505" lon="13.207694675626762"><ele>221.25</ele><time>2026-04-19T16:11:50Z</time></trkpt><trkpt lat="43.237966859336936" lon="13.207866081841155"><ele>220.0</ele><time>2026-04-19T16:11:51Z</time></trkpt><trkpt lat="43.23804224796687" lon="13.208034098831291"><ele>218.0</ele><time>2026-04-19T16:11:52Z</time></trkpt><trkpt lat="43.238121642136925" lon="13.208203870851541"><ele>216.0</ele><time>2026-04-19T16:11:53Z</time></trkpt><trkpt lat="43.238203515004564" lon="13.208373238311447"><ele>214.0</ele><time>2026-04-19T16:11:54Z</time></trkpt><trkpt lat="43.23825919173881" lon="13.20856243871985"><ele>212.0</ele><time>2026-04-19T16:11:55Z</time></trkpt><trkpt lat="43.238314171002465" lon="13.208759784099605"><ele>214.25</ele><time>2026-04-19T16:11:56Z</time></trkpt><trkpt lat="43.23836251121903" lon="13.208958100405727"><ele>216.5</ele><time>2026-04-19T16:11:57Z</time></trkpt><trkpt lat="43.238416366551476" lon="13.209140510801715"><ele>218.75</ele><time>2026-04-19T16:11:58Z</time></trkpt><trkpt lat="43.23845278472537" lon="13.209327536515762"><ele>221.0</ele><time>2026-04-19T16:11:59Z</time></trkpt><trkpt lat="43.2384928633823" lon="13.209522155861992"><ele>221.0</ele><time>2026-04-19T16:12:00Z</time></trkpt><trkpt lat="43.23853999342154" lon="13.209707947756172"><ele>221.0</ele><time>2026-04-19T16:12:01Z</time></trkpt><trkpt lat="43.238585240266964" lon="13.209895927986906"><ele>221.0</ele><time>2026-04-19T16:12:02Z</time></trkpt><trkpt lat="43.238626288525424" lon="13.210084623283514"><ele>221.0</ele><time>2026-04-19T16:12:03Z</time></trkpt><trkpt lat="43.238669353888135" lon="13.210273960053533"><ele>219.0</ele><time>2026-04-19T16:12:04Z</time></trkpt><trkpt lat="43.23871070871158" lon="13.21046573183266"><ele>217.0</ele><time>2026-04-19T16:12:05Z</time></trkpt><trkpt lat="43.23875836073044" lon="13.210651038964484"><ele>215.0</ele><time>2026-04-19T16:12:06Z</time></trkpt><trkpt lat="43.238803086281216" lon="13.210837689236278"><ele>213.0</ele><time>2026-04-19T16:12:07Z</time></trkpt><trkpt lat="43.23885991773646" lon="13.211018693397506"><ele>213.0</ele><time>2026-04-19T16:12:08Z</time></trkpt><trkpt lat="43.23890984679654" lon="13.211199465083679"><ele>213.0</ele><time>2026-04-19T16:12:09Z</time></trkpt><trkpt lat="43.23896324078805" lon="13.211377158510807"><ele>213.0</ele><time>2026-04-19T16:12:10Z</time></trkpt><trkpt lat="43.23901730381376" lon="13.21155004510324"><ele>213.0</ele><time>2026-04-19T16:12:11Z</time></trkpt><trkpt lat="43.23906716692144" lon="13.211737479632138"><ele>213.5</ele><time>2026-04-19T16:12:12Z</time></trkpt><trkpt lat="43.23911636600393" lon="13.211911207618563"><ele>214.0</ele><time>2026-04-19T16:12:13Z</time></trkpt><trkpt lat="43.23916483038799" lon="13.212084742982144"><ele>214.5</ele><time>2026-04-19T16:12:14Z</time></trkpt><trkpt lat="43.239217398430675" lon="13.212244631598013"><ele>215.0</ele><time>2026-04-19T16:12:15Z</time></trkpt><trkpt lat="43.23926420750372" lon="13.212417867273034"><ele>215.0</ele><time>2026-04-19T16:12:15.999Z</time></trkpt><trkpt lat="43.23931349628108" lon="13.212589861985444"><ele>215.0</ele><time>2026-04-19T16:12:16.999Z</time></trkpt><trkpt lat="43.239359269192306" lon="13.212756797310758"><ele>215.0</ele><time>2026-04-19T16:12:17.999Z</time></trkpt><trkpt lat="43.23940593193021" lon="13.212930428739574"><ele>215.0</ele><time>2026-04-19T16:12:18.999Z</time></trkpt><trkpt lat="43.23945095695457" lon="13.213097095054383"><ele>214.25</ele><time>2026-04-19T16:12:19.999Z</time></trkpt><trkpt lat="43.23950164672584" lon="13.213266120750927"><ele>213.5</ele><time>2026-04-19T16:12:20.999Z</time></trkpt><trkpt lat="43.23955150021899" lon="13.213433614933482"><ele>212.75</ele><time>2026-04-19T16:12:21.999Z</time></trkpt><trkpt lat="43.239602436019986" lon="13.21360006300427"><ele>212.0</ele><time>2026-04-19T16:12:22.999Z</time></trkpt><trkpt lat="43.23965260835238" lon="13.213763381184595"><ele>212.0</ele><time>2026-04-19T16:12:23.999Z</time></trkpt><trkpt lat="43.23970223408311" lon="13.213927840007164"><ele>212.0</ele><time>2026-04-19T16:12:24.999Z</time></trkpt><trkpt lat="43.239751954438816" lon="13.21409706699152"><ele>212.0</ele><time>2026-04-19T16:12:25.999Z</time></trkpt><trkpt lat="43.23980426654196" lon="13.21426773505998"><ele>212.0</ele><time>2026-04-19T16:12:26.999Z</time></trkpt><trkpt lat="43.23985850406901" lon="13.214436378535412"><ele>212.25</ele><time>2026-04-19T16:12:27.999Z</time></trkpt><trkpt lat="43.239913014046834" lon="13.214602936532811"><ele>212.5</ele><time>2026-04-19T16:12:28.999Z</time></trkpt><trkpt lat="43.23996730668335" lon="13.214769419617964"><ele>212.75</ele><time>2026-04-19T16:12:29.999Z</time></trkpt><trkpt lat="43.240019527745766" lon="13.214933743246625"><ele>213.0</ele><time>2026-04-19T16:12:30.999Z</time></trkpt><trkpt lat="43.24007024682605" lon="13.215090824737171"><ele>213.0</ele><time>2026-04-19T16:12:31.999Z</time></trkpt><trkpt lat="43.240119555688935" lon="13.215246937769942"><ele>213.0</ele><time>2026-04-19T16:12:32.999Z</time></trkpt><trkpt lat="43.2401688048303" lon="13.21539205855517"><ele>213.0</ele><time>2026-04-19T16:12:33.999Z</time></trkpt><trkpt lat="43.24019877785461" lon="13.21554521193098"><ele>213.0</ele><time>2026-04-19T16:12:34.999Z</time></trkpt><trkpt lat="43.24024212360307" lon="13.215690342120403"><ele>212.5</ele><time>2026-04-19T16:12:35.999Z</time></trkpt><trkpt lat="43.24030157249891" lon="13.215828315782126"><ele>212.0</ele><time>2026-04-19T16:12:36.999Z</time></trkpt><trkpt lat="43.240345072113286" lon="13.21597925826489"><ele>211.5</ele><time>2026-04-19T16:12:37.999Z</time></trkpt><trkpt lat="43.240393315939556" lon="13.216131153216947"><ele>211.0</ele><time>2026-04-19T16:12:38.999Z</time></trkpt><trkpt lat="43.24044078226674" lon="13.216290925592308"><ele>211.0</ele><time>2026-04-19T16:12:39.999Z</time></trkpt><trkpt lat="43.24048698338295" lon="13.216446903094328"><ele>211.0</ele><time>2026-04-19T16:12:40.999Z</time></trkpt><trkpt lat="43.240533865962284" lon="13.216609682871887"><ele>211.0</ele><time>2026-04-19T16:12:41.999Z</time></trkpt><trkpt lat="43.24058266023905" lon="13.216773066265585"><ele>211.0</ele><time>2026-04-19T16:12:42.999Z</time></trkpt><trkpt lat="43.24063235268351" lon="13.216941802813901"><ele>210.75</ele><time>2026-04-19T16:12:43.999Z</time></trkpt><trkpt lat="43.24068263845941" lon="13.21710977330569"><ele>210.5</ele><time>2026-04-19T16:12:44.999Z</time></trkpt><trkpt lat="43.24073352742216" lon="13.21727559619626"><ele>210.25</ele><time>2026-04-19T16:12:45.999Z</time></trkpt><trkpt lat="43.24078459200603" lon="13.21744507374121"><ele>210.0</ele><time>2026-04-19T16:12:46.999Z</time></trkpt><trkpt lat="43.240838420919964" lon="13.217614649178037"><ele>209.75</ele><time>2026-04-19T16:12:47.999Z</time></trkpt><trkpt lat="43.24088946716141" lon="13.217783876599633"><ele>209.5</ele><time>2026-04-19T16:12:48.999Z</time></trkpt><trkpt lat="43.24093744635273" lon="13.217955553498467"><ele>209.25</ele><time>2026-04-19T16:12:49.999Z</time></trkpt><trkpt lat="43.24098375069514" lon="13.218122785665617"><ele>209.0</ele><time>2026-04-19T16:12:50.999Z</time></trkpt><trkpt lat="43.24102518249553" lon="13.218285049539741"><ele>208.6</ele><time>2026-04-19T16:12:51.999Z</time></trkpt><trkpt lat="43.24106157694001" lon="13.218442062097084"><ele>208.2</ele><time>2026-04-19T16:12:52.999Z</time></trkpt><trkpt lat="43.241091141956296" lon="13.218583634886675"><ele>207.79999999999998</ele><time>2026-04-19T16:12:53.999Z</time></trkpt><trkpt lat="43.24110945644927" lon="13.218701019474642"><ele>207.39999999999998</ele><time>2026-04-19T16:12:54.999Z</time></trkpt><trkpt lat="43.24110949078158" lon="13.21879669570994"><ele>207.0</ele><time>2026-04-19T16:12:55.999Z</time></trkpt><trkpt lat="43.24107790870923" lon="13.218964224143162"><ele>207.16666666666666</ele><time>2026-04-19T16:12:57.999Z</time></trkpt><trkpt lat="43.24109982326218" lon="13.21911780371593"><ele>207.33333333333331</ele><time>2026-04-19T16:12:59.999Z</time></trkpt><trkpt lat="43.241145710877895" lon="13.219181233692325"><ele>207.5</ele><time>2026-04-19T16:13:00.999Z</time></trkpt><trkpt lat="43.24120516223056" lon="13.219231689326612"><ele>207.66666666666666</ele><time>2026-04-19T16:13:01.999Z</time></trkpt><trkpt lat="43.2412664935546" lon="13.219296270885122"><ele>207.83333333333331</ele><time>2026-04-19T16:13:02.999Z</time></trkpt><trkpt lat="43.24132573406849" lon="13.21937843712398"><ele>208.0</ele><time>2026-04-19T16:13:03.999Z</time></trkpt><trkpt lat="43.24137453298399" lon="13.219487447381178"><ele>208.0</ele><time>2026-04-19T16:13:04.999Z</time></trkpt><trkpt lat="43.24141849308529" lon="13.219616554586825"><ele>208.0</ele><time>2026-04-19T16:13:05.999Z</time></trkpt><trkpt lat="43.24145776966404" lon="13.219736471076223"><ele>208.0</ele><time>2026-04-19T16:13:06.999Z</time></trkpt><trkpt lat="43.241502619565196" lon="13.21986734533668"><ele>208.0</ele><time>2026-04-19T16:13:07.999Z</time></trkpt><trkpt lat="43.24154964619611" lon="13.220007749214371"><ele>208.0</ele><time>2026-04-19T16:13:08.999Z</time></trkpt><trkpt lat="43.2415954368406" lon="13.220149866066945"><ele>208.75</ele><time>2026-04-19T16:13:09.999Z</time></trkpt><trkpt lat="43.24164177756502" lon="13.220298564280482"><ele>209.5</ele><time>2026-04-19T16:13:10.999Z</time></trkpt><trkpt lat="43.24169485311392" lon="13.220441340004404"><ele>210.25</ele><time>2026-04-19T16:13:11.999Z</time></trkpt><trkpt lat="43.24175843806521" lon="13.220581973844494"><ele>211.0</ele><time>2026-04-19T16:13:12.999Z</time></trkpt><trkpt lat="43.24182731206932" lon="13.220723380464511"><ele>211.0</ele><time>2026-04-19T16:13:13.999Z</time></trkpt><trkpt lat="43.241902326197035" lon="13.220868683130321"><ele>211.0</ele><time>2026-04-19T16:13:14.999Z</time></trkpt><trkpt lat="43.24198553538724" lon="13.2210081309661"><ele>211.0</ele><time>2026-04-19T16:13:15.999Z</time></trkpt><trkpt lat="43.242079679465135" lon="13.221148266232"><ele>211.0</ele><time>2026-04-19T16:13:16.999Z</time></trkpt><trkpt lat="43.2421808311612" lon="13.22128038964421"><ele>211.0</ele><time>2026-04-19T16:13:17.999Z</time></trkpt><trkpt lat="43.242286109527406" lon="13.221405841360149"><ele>211.0</ele><time>2026-04-19T16:13:18.999Z</time></trkpt><trkpt lat="43.24239998055022" lon="13.221527084088525"><ele>211.0</ele><time>2026-04-19T16:13:19.999Z</time></trkpt><trkpt lat="43.24252204461087" lon="13.221641040598156"><ele>211.0</ele><time>2026-04-19T16:13:20.999Z</time></trkpt><trkpt lat="43.24264928834051" lon="13.221753392317561"><ele>211.66666666666666</ele><time>2026-04-19T16:13:21.999Z</time></trkpt><trkpt lat="43.24277838193924" lon="13.221864599327974"><ele>212.33333333333331</ele><time>2026-04-19T16:13:22.999Z</time></trkpt><trkpt lat="43.2429098188002" lon="13.221973906537423"><ele>213.0</ele><time>2026-04-19T16:13:23.999Z</time></trkpt><trkpt lat="43.243044874736356" lon="13.222087864370549"><ele>214.66666666666669</ele><time>2026-04-19T16:13:24.999Z</time></trkpt><trkpt lat="43.2431847740939" lon="13.22220888941904"><ele>216.33333333333334</ele><time>2026-04-19T16:13:25.999Z</time></trkpt><trkpt lat="43.24332222008874" lon="13.222327235071418"><ele>218.0</ele><time>2026-04-19T16:13:26.999Z</time></trkpt><trkpt lat="43.24345914627424" lon="13.222462442319378"><ele>214.66666666666669</ele><time>2026-04-19T16:13:27.999Z</time></trkpt><trkpt lat="43.24359607461384" lon="13.222604602762205"><ele>211.33333333333331</ele><time>2026-04-19T16:13:28.999Z</time></trkpt><trkpt lat="43.24373275913026" lon="13.222752461600166"><ele>208.0</ele><time>2026-04-19T16:13:29.999Z</time></trkpt><trkpt lat="43.24387603724368" lon="13.222844307419283"><ele>207.33333333333331</ele><time>2026-04-19T16:13:30.998Z</time></trkpt><trkpt lat="43.24401864043296" lon="13.222974512946335"><ele>206.66666666666669</ele><time>2026-04-19T16:13:31.998Z</time></trkpt><trkpt lat="43.2441623891764" lon="13.223098668025896"><ele>206.0</ele><time>2026-04-19T16:13:32.998Z</time></trkpt><trkpt lat="43.2443053284605" lon="13.223234357059686"><ele>205.0</ele><time>2026-04-19T16:13:33.998Z</time></trkpt><trkpt lat="43.244444566740086" lon="13.22337475668542"><ele>204.0</ele><time>2026-04-19T16:13:34.998Z</time></trkpt><trkpt lat="43.244580832447504" lon="13.223520229317579"><ele>203.0</ele><time>2026-04-19T16:13:35.998Z</time></trkpt><trkpt lat="43.244724951301635" lon="13.223654550093931"><ele>203.0</ele><time>2026-04-19T16:13:36.998Z</time></trkpt><trkpt lat="43.24486804140177" lon="13.223790572266099"><ele>203.0</ele><time>2026-04-19T16:13:37.998Z</time></trkpt><trkpt lat="43.24514209507958" lon="13.2240715992099"><ele>204.33333333333334</ele><time>2026-04-19T16:13:40Z</time></trkpt><trkpt lat="43.245283735044794" lon="13.22420199020596"><ele>205.66666666666669</ele><time>2026-04-19T16:13:41Z</time></trkpt><trkpt lat="43.24541756073327" lon="13.224325093157962"><ele>207.0</ele><time>2026-04-19T16:13:42Z</time></trkpt><trkpt lat="43.24552198693146" lon="13.224424496681777"><ele>207.66666666666669</ele><time>2026-04-19T16:13:43Z</time></trkpt><trkpt lat="43.24567550732492" lon="13.22456631255593"><ele>208.33333333333334</ele><time>2026-04-19T16:13:44Z</time></trkpt><trkpt lat="43.2458114266128" lon="13.224693049630885"><ele>209.0</ele><time>2026-04-19T16:13:45Z</time></trkpt><trkpt lat="43.24594337658781" lon="13.22482947901274"><ele>209.0</ele><time>2026-04-19T16:13:46Z</time></trkpt><trkpt lat="43.246081412307475" lon="13.224962459878693"><ele>209.0</ele><time>2026-04-19T16:13:47Z</time></trkpt><trkpt lat="43.24621502591468" lon="13.225091228956323"><ele>209.0</ele><time>2026-04-19T16:13:48Z</time></trkpt><trkpt lat="43.246353868018204" lon="13.225222282504625"><ele>209.66666666666669</ele><time>2026-04-19T16:13:49Z</time></trkpt><trkpt lat="43.24648861888945" lon="13.225353935925293"><ele>210.33333333333331</ele><time>2026-04-19T16:13:50Z</time></trkpt><trkpt lat="43.24662425162045" lon="13.225487211298132"><ele>211.0</ele><time>2026-04-19T16:13:51Z</time></trkpt><trkpt lat="43.24676784904455" lon="13.225625574301962"><ele>210.66666666666666</ele><time>2026-04-19T16:13:52Z</time></trkpt><trkpt lat="43.24691279131539" lon="13.225773111802384"><ele>210.33333333333331</ele><time>2026-04-19T16:13:53Z</time></trkpt><trkpt lat="43.247057709615106" lon="13.225917305821461"><ele>210.0</ele><time>2026-04-19T16:13:54Z</time></trkpt><trkpt lat="43.24720372775568" lon="13.226063037703153"><ele>210.33333333333331</ele><time>2026-04-19T16:13:55Z</time></trkpt><trkpt lat="43.2473509289253" lon="13.226209418153493"><ele>210.66666666666666</ele><time>2026-04-19T16:13:56Z</time></trkpt><trkpt lat="43.24750157418156" lon="13.226354610130258"><ele>211.0</ele><time>2026-04-19T16:13:57Z</time></trkpt><trkpt lat="43.24765609810788" lon="13.226499788249644"><ele>210.33333333333331</ele><time>2026-04-19T16:13:57.999Z</time></trkpt><trkpt lat="43.247809391730954" lon="13.226648857988652"><ele>209.66666666666669</ele><time>2026-04-19T16:13:58.999Z</time></trkpt><trkpt lat="43.247961807837974" lon="13.226798367856004"><ele>209.0</ele><time>2026-04-19T16:13:59.999Z</time></trkpt><trkpt lat="43.248116145274565" lon="13.226953068953106"><ele>208.66666666666669</ele><time>2026-04-19T16:14:00.999Z</time></trkpt><trkpt lat="43.248270359692874" lon="13.227107792894362"><ele>208.33333333333331</ele><time>2026-04-19T16:14:01.999Z</time></trkpt><trkpt lat="43.24842537494753" lon="13.227261294814252"><ele>208.0</ele><time>2026-04-19T16:14:02.999Z</time></trkpt><trkpt lat="43.24857781296879" lon="13.227413291466025"><ele>208.0</ele><time>2026-04-19T16:14:03.999Z</time></trkpt><trkpt lat="43.24873536487782" lon="13.227562411252519"><ele>208.0</ele><time>2026-04-19T16:14:04.999Z</time></trkpt><trkpt lat="43.2488906434766" lon="13.227717117781117"><ele>208.0</ele><time>2026-04-19T16:14:05.999Z</time></trkpt><trkpt lat="43.24904803811565" lon="13.227872222317616"><ele>208.33333333333331</ele><time>2026-04-19T16:14:06.999Z</time></trkpt><trkpt lat="43.24920524548853" lon="13.228028553829484"><ele>208.66666666666669</ele><time>2026-04-19T16:14:07.999Z</time></trkpt><trkpt lat="43.24936444282524" lon="13.228179938776838"><ele>209.0</ele><time>2026-04-19T16:14:08.999Z</time></trkpt><trkpt lat="43.24952765003388" lon="13.228334834899451"><ele>208.33333333333334</ele><time>2026-04-19T16:14:09.999Z</time></trkpt><trkpt lat="43.249687839612214" lon="13.228484855761609"><ele>207.66666666666669</ele><time>2026-04-19T16:14:10.999Z</time></trkpt><trkpt lat="43.24984521159914" lon="13.228633857631685"><ele>207.0</ele><time>2026-04-19T16:14:11.999Z</time></trkpt><trkpt lat="43.25000064707359" lon="13.228783820612756"><ele>207.0</ele><time>2026-04-19T16:14:12.999Z</time></trkpt><trkpt lat="43.250154170155085" lon="13.228928947059575"><ele>207.0</ele><time>2026-04-19T16:14:13.999Z</time></trkpt><trkpt lat="43.25031107725501" lon="13.229079933054122"><ele>207.0</ele><time>2026-04-19T16:14:14.999Z</time></trkpt><trkpt lat="43.250462660707605" lon="13.22923721292243"><ele>207.0</ele><time>2026-04-19T16:14:15.999Z</time></trkpt><trkpt lat="43.25061986838154" lon="13.22939212448856"><ele>207.0</ele><time>2026-04-19T16:14:16.999Z</time></trkpt><trkpt lat="43.25078059433917" lon="13.229546218204069"><ele>207.0</ele><time>2026-04-19T16:14:17.998Z</time></trkpt><trkpt lat="43.25093753423011" lon="13.229698988338452"><ele>205.33333333333331</ele><time>2026-04-19T16:14:18.998Z</time></trkpt><trkpt lat="43.25109691106387" lon="13.229848735554326"><ele>203.66666666666666</ele><time>2026-04-19T16:14:19.998Z</time></trkpt><trkpt lat="43.2512576183788" lon="13.23000370519659"><ele>202.0</ele><time>2026-04-19T16:14:20.998Z</time></trkpt><trkpt lat="43.25141461582284" lon="13.230158178085654"><ele>203.33333333333331</ele><time>2026-04-19T16:14:21.998Z</time></trkpt><trkpt lat="43.25157578126794" lon="13.230311430482242"><ele>204.66666666666669</ele><time>2026-04-19T16:14:22.998Z</time></trkpt><trkpt lat="43.25173944134759" lon="13.230463087166122"><ele>206.0</ele><time>2026-04-19T16:14:23.998Z</time></trkpt><trkpt lat="43.25190352471993" lon="13.230610302365491"><ele>205.66666666666669</ele><time>2026-04-19T16:14:24.998Z</time></trkpt><trkpt lat="43.252071726336986" lon="13.230757355931047"><ele>205.33333333333331</ele><time>2026-04-19T16:14:25.998Z</time></trkpt><trkpt lat="43.252239512155185" lon="13.230892441310738"><ele>205.0</ele><time>2026-04-19T16:14:26.998Z</time></trkpt><trkpt lat="43.25242413272371" lon="13.231022238065295"><ele>205.0</ele><time>2026-04-19T16:14:27.998Z</time></trkpt><trkpt lat="43.25260801026813" lon="13.231117274860656"><ele>205.0</ele><time>2026-04-19T16:14:28.998Z</time></trkpt><trkpt lat="43.25279496174191" lon="13.231212727973675"><ele>205.0</ele><time>2026-04-19T16:14:29.998Z</time></trkpt><trkpt lat="43.25297945678331" lon="13.23131829794501"><ele>204.66666666666666</ele><time>2026-04-19T16:14:30.998Z</time></trkpt><trkpt lat="43.253162068529704" lon="13.231419458685016"><ele>204.33333333333331</ele><time>2026-04-19T16:14:31.998Z</time></trkpt><trkpt lat="43.25334624623995" lon="13.23151477929816"><ele>204.0</ele><time>2026-04-19T16:14:32.998Z</time></trkpt><trkpt lat="43.25352813342707" lon="13.231615271182337"><ele>203.66666666666669</ele><time>2026-04-19T16:14:33.998Z</time></trkpt><trkpt lat="43.253711013360174" lon="13.231713924232695"><ele>203.33333333333334</ele><time>2026-04-19T16:14:34.998Z</time></trkpt><trkpt lat="43.25389222005039" lon="13.231812352375554"><ele>203.0</ele><time>2026-04-19T16:14:35.998Z</time></trkpt><trkpt lat="43.2540687561692" lon="13.231924995531733"><ele>203.0</ele><time>2026-04-19T16:14:36.998Z</time></trkpt><trkpt lat="43.25424297640152" lon="13.23205524342653"><ele>203.0</ele><time>2026-04-19T16:14:37.998Z</time></trkpt><trkpt lat="43.254413189097484" lon="13.232192741491762"><ele>203.0</ele><time>2026-04-19T16:14:38.998Z</time></trkpt><trkpt lat="43.25457594664977" lon="13.232329599739089"><ele>202.33333333333334</ele><time>2026-04-19T16:14:39.998Z</time></trkpt><trkpt lat="43.25474110655614" lon="13.232466252631887"><ele>201.66666666666669</ele><time>2026-04-19T16:14:40.998Z</time></trkpt><trkpt lat="43.25490811046598" lon="13.232600517959712"><ele>201.0</ele><time>2026-04-19T16:14:41.998Z</time></trkpt><trkpt lat="43.25507468644463" lon="13.232731863958342"><ele>200.66666666666669</ele><time>2026-04-19T16:14:42.998Z</time></trkpt><trkpt lat="43.25524109802718" lon="13.232865316140316"><ele>200.33333333333334</ele><time>2026-04-19T16:14:43.998Z</time></trkpt><trkpt lat="43.25540822737181" lon="13.232993952234944"><ele>200.0</ele><time>2026-04-19T16:14:44.998Z</time></trkpt><trkpt lat="43.25557411625476" lon="13.233126006760042"><ele>200.66666666666669</ele><time>2026-04-19T16:14:45.998Z</time></trkpt><trkpt lat="43.25573765736941" lon="13.23326114767776"><ele>201.33333333333331</ele><time>2026-04-19T16:14:46.998Z</time></trkpt><trkpt lat="43.25590144853652" lon="13.233392535436225"><ele>202.0</ele><time>2026-04-19T16:14:47.998Z</time></trkpt><trkpt lat="43.25606532618371" lon="13.233526203921516"><ele>202.0</ele><time>2026-04-19T16:14:48.998Z</time></trkpt><trkpt lat="43.2562260772331" lon="13.233657194942896"><ele>202.0</ele><time>2026-04-19T16:14:49.998Z</time></trkpt><trkpt lat="43.25638476396857" lon="13.233789665260042"><ele>202.0</ele><time>2026-04-19T16:14:50.998Z</time></trkpt><trkpt lat="43.25654510068305" lon="13.233914526102263"><ele>202.66666666666666</ele><time>2026-04-19T16:14:51.998Z</time></trkpt><trkpt lat="43.256705239065425" lon="13.23403765946368"><ele>203.33333333333331</ele><time>2026-04-19T16:14:52.998Z</time></trkpt><trkpt lat="43.256863645143326" lon="13.234163261439761"><ele>204.0</ele><time>2026-04-19T16:14:53.998Z</time></trkpt><trkpt lat="43.25702093817193" lon="13.234291839785762"><ele>204.0</ele><time>2026-04-19T16:14:54.998Z</time></trkpt><trkpt lat="43.257175161467444" lon="13.234423809021003"><ele>204.0</ele><time>2026-04-19T16:14:55.998Z</time></trkpt><trkpt lat="43.25732869740658" lon="13.234554101960983"><ele>204.0</ele><time>2026-04-19T16:14:56.998Z</time></trkpt><trkpt lat="43.257479975908126" lon="13.234688484977024"><ele>202.66666666666669</ele><time>2026-04-19T16:14:57.998Z</time></trkpt><trkpt lat="43.257621332719495" lon="13.234837073522534"><ele>201.33333333333334</ele><time>2026-04-19T16:14:58.998Z</time></trkpt><trkpt lat="43.257750724306355" lon="13.235004131030516"><ele>200.0</ele><time>2026-04-19T16:14:59.998Z</time></trkpt><trkpt lat="43.25787708054642" lon="13.23517371414415"><ele>200.0</ele><time>2026-04-19T16:15:00.998Z</time></trkpt><trkpt lat="43.25800096189484" lon="13.235338641922423"><ele>200.0</ele><time>2026-04-19T16:15:01.998Z</time></trkpt><trkpt lat="43.25812203565353" lon="13.2355202224483"><ele>200.0</ele><time>2026-04-19T16:15:02.998Z</time></trkpt><trkpt lat="43.25824389478827" lon="13.235701032012413"><ele>199.66666666666669</ele><time>2026-04-19T16:15:03.998Z</time></trkpt><trkpt lat="43.25836513158137" lon="13.23588069613153"><ele>199.33333333333331</ele><time>2026-04-19T16:15:04.998Z</time></trkpt><trkpt lat="43.2584862567147" lon="13.236067188538511"><ele>199.0</ele><time>2026-04-19T16:15:05.998Z</time></trkpt><trkpt lat="43.258610959051744" lon="13.236263289531385"><ele>199.0</ele><time>2026-04-19T16:15:06.998Z</time></trkpt><trkpt lat="43.258751297164196" lon="13.236443928546585"><ele>199.0</ele><time>2026-04-19T16:15:07.998Z</time></trkpt><trkpt lat="43.258884389688085" lon="13.236650790806431"><ele>199.0</ele><time>2026-04-19T16:15:08.998Z</time></trkpt><trkpt lat="43.25902463689772" lon="13.236868086469647"><ele>200.0</ele><time>2026-04-19T16:15:09.998Z</time></trkpt><trkpt lat="43.259170562062295" lon="13.237086100465303"><ele>201.0</ele><time>2026-04-19T16:15:10.998Z</time></trkpt><trkpt lat="43.25932335180311" lon="13.237309171222625"><ele>202.0</ele><time>2026-04-19T16:15:11.998Z</time></trkpt><trkpt lat="43.25947187979128" lon="13.237558801549225"><ele>202.0</ele><time>2026-04-19T16:15:12.997Z</time></trkpt><trkpt lat="43.25965255922947" lon="13.237774664236188"><ele>202.0</ele><time>2026-04-19T16:15:13.997Z</time></trkpt><trkpt lat="43.25981340526029" lon="13.238018435052282"><ele>201.5</ele><time>2026-04-19T16:15:14.997Z</time></trkpt><trkpt lat="43.25996879391812" lon="13.238264880171762"><ele>201.0</ele><time>2026-04-19T16:15:15.997Z</time></trkpt><trkpt lat="43.260122911487535" lon="13.238518922925172"><ele>201.0</ele><time>2026-04-19T16:15:16.997Z</time></trkpt><trkpt lat="43.2602791043857" lon="13.238766740795937"><ele>201.0</ele><time>2026-04-19T16:15:17.997Z</time></trkpt><trkpt lat="43.26043871136311" lon="13.239012605835143"><ele>200.0</ele><time>2026-04-19T16:15:18.997Z</time></trkpt><trkpt lat="43.26059534754737" lon="13.239254903445502"><ele>199.0</ele><time>2026-04-19T16:15:19.997Z</time></trkpt><trkpt lat="43.26075462982503" lon="13.23949660991091"><ele>199.0</ele><time>2026-04-19T16:15:20.997Z</time></trkpt><trkpt lat="43.260909662490235" lon="13.23973818171985"><ele>199.0</ele><time>2026-04-19T16:15:21.997Z</time></trkpt><trkpt lat="43.261063036510286" lon="13.239976426610436"><ele>199.0</ele><time>2026-04-19T16:15:22.997Z</time></trkpt><trkpt lat="43.26121844754309" lon="13.24021266153243"><ele>199.0</ele><time>2026-04-19T16:15:23.997Z</time></trkpt><trkpt lat="43.261373091419735" lon="13.24044517680661"><ele>200.0</ele><time>2026-04-19T16:15:24.997Z</time></trkpt><trkpt lat="43.2615283088958" lon="13.240677992783493"><ele>201.0</ele><time>2026-04-19T16:15:25.997Z</time></trkpt><trkpt lat="43.26168214127502" lon="13.240909703405897"><ele>201.0</ele><time>2026-04-19T16:15:26.997Z</time></trkpt><trkpt lat="43.26183587465938" lon="13.241140186711252"><ele>201.0</ele><time>2026-04-19T16:15:27.997Z</time></trkpt><trkpt lat="43.261987835314784" lon="13.241372000098357"><ele>200.0</ele><time>2026-04-19T16:15:28.997Z</time></trkpt><trkpt lat="43.26213854200222" lon="13.241596612798164"><ele>199.0</ele><time>2026-04-19T16:15:29.997Z</time></trkpt><trkpt lat="43.262291506519155" lon="13.241827489182523"><ele>198.66666666666666</ele><time>2026-04-19T16:15:30.997Z</time></trkpt><trkpt lat="43.26244010364634" lon="13.24205370226462"><ele>198.33333333333331</ele><time>2026-04-19T16:15:31.997Z</time></trkpt><trkpt lat="43.262589454966665" lon="13.242281192795447"><ele>198.0</ele><time>2026-04-19T16:15:32.997Z</time></trkpt><trkpt lat="43.262739623993824" lon="13.242508918303438"><ele>198.0</ele><time>2026-04-19T16:15:33.997Z</time></trkpt><trkpt lat="43.262887655062535" lon="13.242731239386028"><ele>198.0</ele><time>2026-04-19T16:15:34.997Z</time></trkpt><trkpt lat="43.26303671223186" lon="13.242957461096506"><ele>198.0</ele><time>2026-04-19T16:15:35.997Z</time></trkpt><trkpt lat="43.26318454219915" lon="13.243180939935646"><ele>198.66666666666669</ele><time>2026-04-19T16:15:36.997Z</time></trkpt><trkpt lat="43.26333398655739" lon="13.243405544898234"><ele>199.33333333333334</ele><time>2026-04-19T16:15:37.997Z</time></trkpt><trkpt lat="43.26347983999087" lon="13.24362659064813"><ele>200.0</ele><time>2026-04-19T16:15:38.997Z</time></trkpt><trkpt lat="43.26362201427573" lon="13.243837992307286"><ele>199.0</ele><time>2026-04-19T16:15:39.997Z</time></trkpt><trkpt lat="43.26375755075779" lon="13.24404236588951"><ele>198.0</ele><time>2026-04-19T16:15:40.997Z</time></trkpt><trkpt lat="43.263882205817495" lon="13.244235982252215"><ele>197.0</ele><time>2026-04-19T16:15:41.997Z</time></trkpt><trkpt lat="43.26400138908635" lon="13.244419752053789"><ele>197.33333333333334</ele><time>2026-04-19T16:15:42.997Z</time></trkpt><trkpt lat="43.26410859277774" lon="13.244598063931631"><ele>197.66666666666669</ele><time>2026-04-19T16:15:43.997Z</time></trkpt><trkpt lat="43.264209754336655" lon="13.244789578755316"><ele>198.0</ele><time>2026-04-19T16:15:44.997Z</time></trkpt><trkpt lat="43.26429030455625" lon="13.244991781072978"><ele>198.0</ele><time>2026-04-19T16:15:45.998Z</time></trkpt><trkpt lat="43.26434562392661" lon="13.245211739122324"><ele>198.0</ele><time>2026-04-19T16:15:46.998Z</time></trkpt><trkpt lat="43.264374936680284" lon="13.245445139677171"><ele>198.0</ele><time>2026-04-19T16:15:47.998Z</time></trkpt><trkpt lat="43.2643819142899" lon="13.245685018079573"><ele>197.33333333333331</ele><time>2026-04-19T16:15:48.998Z</time></trkpt><trkpt lat="43.26438108065578" lon="13.245927052277166"><ele>196.66666666666666</ele><time>2026-04-19T16:15:49.998Z</time></trkpt><trkpt lat="43.26438624905019" lon="13.246167883306748"><ele>196.0</ele><time>2026-04-19T16:15:50.999Z</time></trkpt><trkpt lat="43.26439770646056" lon="13.246412668818643"><ele>193.66666666666666</ele><time>2026-04-19T16:15:51.999Z</time></trkpt><trkpt lat="43.26440956427268" lon="13.246666420195814"><ele>191.33333333333331</ele><time>2026-04-19T16:15:52.999Z</time></trkpt><trkpt lat="43.26442006083707" lon="13.246919371017533"><ele>189.0</ele><time>2026-04-19T16:15:53.999Z</time></trkpt><trkpt lat="43.26443600958441" lon="13.247174106031137"><ele>186.66666666666666</ele><time>2026-04-19T16:15:54.999Z</time></trkpt><trkpt lat="43.26445246819644" lon="13.247429227600527"><ele>184.33333333333331</ele><time>2026-04-19T16:15:55.999Z</time></trkpt><trkpt lat="43.26446837290367" lon="13.247690266830196"><ele>182.0</ele><time>2026-04-19T16:15:56.999Z</time></trkpt><trkpt lat="43.264480424698554" lon="13.247946557756773"><ele>182.33333333333331</ele><time>2026-04-19T16:15:57.999Z</time></trkpt><trkpt lat="43.26449375752856" lon="13.248210836139666"><ele>182.66666666666666</ele><time>2026-04-19T16:15:58.999Z</time></trkpt><trkpt lat="43.26450736876077" lon="13.248472210715029"><ele>183.0</ele><time>2026-04-19T16:15:59.999Z</time></trkpt><trkpt lat="43.26452122982018" lon="13.248736763293644"><ele>184.66666666666666</ele><time>2026-04-19T16:16:00.999Z</time></trkpt><trkpt lat="43.26453489546693" lon="13.249004796857294"><ele>186.33333333333331</ele><time>2026-04-19T16:16:01.999Z</time></trkpt><trkpt lat="43.26454913336784" lon="13.249270602586952"><ele>188.0</ele><time>2026-04-19T16:16:02.999Z</time></trkpt><trkpt lat="43.26456415220452" lon="13.249543205424475"><ele>189.66666666666666</ele><time>2026-04-19T16:16:03.999Z</time></trkpt><trkpt lat="43.2645791090058" lon="13.24981019615167"><ele>191.33333333333331</ele><time>2026-04-19T16:16:04.999Z</time></trkpt><trkpt lat="43.26459701214286" lon="13.250071497247388"><ele>193.0</ele><time>2026-04-19T16:16:05.999Z</time></trkpt><trkpt lat="43.264626254525965" lon="13.250339501227646"><ele>193.0</ele><time>2026-04-19T16:16:06.999Z</time></trkpt><trkpt lat="43.26467058651022" lon="13.250597276816416"><ele>193.0</ele><time>2026-04-19T16:16:07.999Z</time></trkpt><trkpt lat="43.26473038568754" lon="13.25084988201819"><ele>193.0</ele><time>2026-04-19T16:16:08.999Z</time></trkpt><trkpt lat="43.26479200287398" lon="13.251104188387758"><ele>193.33333333333331</ele><time>2026-04-19T16:16:09.999Z</time></trkpt><trkpt lat="43.264853676902405" lon="13.251368549503619"><ele>193.66666666666669</ele><time>2026-04-19T16:16:10.999Z</time></trkpt><trkpt lat="43.26491927524166" lon="13.251615579621516"><ele>194.0</ele><time>2026-04-19T16:16:11.999Z</time></trkpt><trkpt lat="43.26498426715826" lon="13.251868233374314"><ele>194.0</ele><time>2026-04-19T16:16:12.999Z</time></trkpt><trkpt lat="43.26505035388774" lon="13.252124149425518"><ele>194.0</ele><time>2026-04-19T16:16:13.999Z</time></trkpt><trkpt lat="43.26511424004464" lon="13.252379998811405"><ele>194.0</ele><time>2026-04-19T16:16:14.999Z</time></trkpt><trkpt lat="43.26517588336524" lon="13.25263307626077"><ele>193.0</ele><time>2026-04-19T16:16:15.999Z</time></trkpt><trkpt lat="43.265240407599755" lon="13.252896838764613"><ele>192.0</ele><time>2026-04-19T16:16:16.999Z</time></trkpt><trkpt lat="43.26530434203544" lon="13.25315644190995"><ele>191.0</ele><time>2026-04-19T16:16:17.999Z</time></trkpt><trkpt lat="43.26536924755064" lon="13.253421894302068"><ele>190.66666666666666</ele><time>2026-04-19T16:16:18.999Z</time></trkpt><trkpt lat="43.265437731517686" lon="13.253683453944415"><ele>190.33333333333334</ele><time>2026-04-19T16:16:19.999Z</time></trkpt><trkpt lat="43.265503599436556" lon="13.253948087784915"><ele>190.0</ele><time>2026-04-19T16:16:20.999Z</time></trkpt><trkpt lat="43.26556626783402" lon="13.254213136357722"><ele>190.66666666666669</ele><time>2026-04-19T16:16:21.999Z</time></trkpt><trkpt lat="43.26563015899758" lon="13.254484115411083"><ele>191.33333333333334</ele><time>2026-04-19T16:16:22.999Z</time></trkpt><trkpt lat="43.265695934632554" lon="13.254750653885417"><ele>192.0</ele><time>2026-04-19T16:16:23.999Z</time></trkpt><trkpt lat="43.26576498935941" lon="13.255022580544619"><ele>192.0</ele><time>2026-04-19T16:16:24.999Z</time></trkpt><trkpt lat="43.265838041549614" lon="13.255288667673984"><ele>192.0</ele><time>2026-04-19T16:16:25.999Z</time></trkpt><trkpt lat="43.265899370844714" lon="13.255561354412338"><ele>192.0</ele><time>2026-04-19T16:16:26.999Z</time></trkpt><trkpt lat="43.265954203247226" lon="13.255834517812573"><ele>191.33333333333334</ele><time>2026-04-19T16:16:27.999Z</time></trkpt><trkpt lat="43.26600732577542" lon="13.25612005852141"><ele>190.66666666666669</ele><time>2026-04-19T16:16:28.999Z</time></trkpt><trkpt lat="43.2660490941093" lon="13.256410472505001"><ele>190.0</ele><time>2026-04-19T16:16:29.999Z</time></trkpt><trkpt lat="43.26620641545951" lon="13.256629351231858"><ele>189.0</ele><time>2026-04-19T16:16:30.999Z</time></trkpt><trkpt lat="43.26628212152684" lon="13.256901562583685"><ele>188.0</ele><time>2026-04-19T16:16:31.999Z</time></trkpt><trkpt lat="43.26635666336321" lon="13.2571708904729"><ele>187.0</ele><time>2026-04-19T16:16:32.999Z</time></trkpt><trkpt lat="43.26643496871568" lon="13.257439670425454"><ele>188.33333333333334</ele><time>2026-04-19T16:16:33.999Z</time></trkpt><trkpt lat="43.266512107973156" lon="13.257708506713481"><ele>189.66666666666666</ele><time>2026-04-19T16:16:34.999Z</time></trkpt><trkpt lat="43.26658773508744" lon="13.257978627002343"><ele>191.0</ele><time>2026-04-19T16:16:35.999Z</time></trkpt><trkpt lat="43.26666278014006" lon="13.258244100470376"><ele>191.0</ele><time>2026-04-19T16:16:36.999Z</time></trkpt><trkpt lat="43.26673167501697" lon="13.258497944837798"><ele>191.0</ele><time>2026-04-19T16:16:37.999Z</time></trkpt><trkpt lat="43.26679708983718" lon="13.2587410968555"><ele>191.0</ele><time>2026-04-19T16:16:38.999Z</time></trkpt><trkpt lat="43.266863721203116" lon="13.2589762839143"><ele>190.33333333333331</ele><time>2026-04-19T16:16:39.999Z</time></trkpt><trkpt lat="43.26692655633573" lon="13.259205077973311"><ele>189.66666666666666</ele><time>2026-04-19T16:16:40.999Z</time></trkpt><trkpt lat="43.2669913724328" lon="13.259434319862704"><ele>189.0</ele><time>2026-04-19T16:16:41.999Z</time></trkpt><trkpt lat="43.26705311774636" lon="13.259661250218079"><ele>188.0</ele><time>2026-04-19T16:16:42.999Z</time></trkpt><trkpt lat="43.26711291408296" lon="13.259886838155781"><ele>187.0</ele><time>2026-04-19T16:16:43.999Z</time></trkpt><trkpt lat="43.26717563873927" lon="13.260105405815459"><ele>186.0</ele><time>2026-04-19T16:16:44.999Z</time></trkpt><trkpt lat="43.26723843574599" lon="13.260318996855563"><ele>186.66666666666666</ele><time>2026-04-19T16:16:45.999Z</time></trkpt><trkpt lat="43.267301696005276" lon="13.260531722836133"><ele>187.33333333333331</ele><time>2026-04-19T16:16:46.999Z</time></trkpt><trkpt lat="43.26736752827018" lon="13.260741307767399"><ele>188.0</ele><time>2026-04-19T16:16:47.999Z</time></trkpt><trkpt lat="43.26742871798495" lon="13.260948328991775"><ele>188.0</ele><time>2026-04-19T16:16:48.999Z</time></trkpt><trkpt lat="43.26747044556996" lon="13.261161796316948"><ele>188.0</ele><time>2026-04-19T16:16:49.999Z</time></trkpt><trkpt lat="43.26754063359293" lon="13.261357466880849"><ele>188.0</ele><time>2026-04-19T16:16:50.999Z</time></trkpt><trkpt lat="43.26759083985394" lon="13.261557384513583"><ele>187.75</ele><time>2026-04-19T16:16:51.999Z</time></trkpt><trkpt lat="43.26763488491859" lon="13.261754288081459"><ele>187.5</ele><time>2026-04-19T16:16:52.999Z</time></trkpt><trkpt lat="43.26768106176649" lon="13.261947917066916"><ele>187.25</ele><time>2026-04-19T16:16:53.999Z</time></trkpt><trkpt lat="43.26772865222333" lon="13.26213936132414"><ele>187.0</ele><time>2026-04-19T16:16:54.999Z</time></trkpt><trkpt lat="43.26777643042155" lon="13.26233237009738"><ele>187.0</ele><time>2026-04-19T16:16:55.999Z</time></trkpt><trkpt lat="43.267822454229105" lon="13.262516414036018"><ele>187.0</ele><time>2026-04-19T16:16:56.999Z</time></trkpt><trkpt lat="43.26786587461976" lon="13.26270044691967"><ele>187.0</ele><time>2026-04-19T16:16:57.999Z</time></trkpt><trkpt lat="43.267909404394196" lon="13.262880846532806"><ele>187.0</ele><time>2026-04-19T16:16:58.999Z</time></trkpt><trkpt lat="43.26795457775102" lon="13.263060023120557"><ele>186.75</ele><time>2026-04-19T16:16:59.999Z</time></trkpt><trkpt lat="43.26800004208463" lon="13.263240784818187"><ele>186.5</ele><time>2026-04-19T16:17:00.999Z</time></trkpt><trkpt lat="43.26804783105703" lon="13.263418973802395"><ele>186.25</ele><time>2026-04-19T16:17:01.999Z</time></trkpt><trkpt lat="43.268094754893404" lon="13.26359652581691"><ele>186.0</ele><time>2026-04-19T16:17:02.999Z</time></trkpt><trkpt lat="43.2681219383144" lon="13.263782954801568"><ele>186.5</ele><time>2026-04-19T16:17:03.999Z</time></trkpt><trkpt lat="43.26816364745369" lon="13.263962026415467"><ele>187.0</ele><time>2026-04-19T16:17:04.999Z</time></trkpt><trkpt lat="43.268220259289365" lon="13.264132427206446"><ele>187.5</ele><time>2026-04-19T16:17:05.999Z</time></trkpt><trkpt lat="43.26825748321474" lon="13.264312396866515"><ele>188.0</ele><time>2026-04-19T16:17:06.999Z</time></trkpt><trkpt lat="43.268293486786796" lon="13.264493329550831"><ele>188.0</ele><time>2026-04-19T16:17:07.999Z</time></trkpt><trkpt lat="43.268330717351276" lon="13.264669951493007"><ele>188.0</ele><time>2026-04-19T16:17:08.999Z</time></trkpt><trkpt lat="43.26837435802314" lon="13.264846219573615"><ele>188.0</ele><time>2026-04-19T16:17:09.999Z</time></trkpt><trkpt lat="43.268411478086904" lon="13.265025098823639"><ele>188.0</ele><time>2026-04-19T16:17:10.999Z</time></trkpt><trkpt lat="43.268449819843894" lon="13.265202711685632"><ele>187.5</ele><time>2026-04-19T16:17:11.999Z</time></trkpt><trkpt lat="43.268489058891404" lon="13.26538638963019"><ele>187.0</ele><time>2026-04-19T16:17:12.999Z</time></trkpt><trkpt lat="43.26853217992651" lon="13.2655667609878"><ele>186.5</ele><time>2026-04-19T16:17:13.999Z</time></trkpt><trkpt lat="43.26857367716187" lon="13.265753468354102"><ele>186.0</ele><time>2026-04-19T16:17:14.999Z</time></trkpt><trkpt lat="43.26861289409159" lon="13.265942007472281"><ele>185.5</ele><time>2026-04-19T16:17:15.999Z</time></trkpt><trkpt lat="43.26865292047214" lon="13.266130070108202"><ele>185.0</ele><time>2026-04-19T16:17:16.999Z</time></trkpt><trkpt lat="43.268694872463925" lon="13.26632104121581"><ele>184.5</ele><time>2026-04-19T16:17:17.999Z</time></trkpt><trkpt lat="43.26873830240068" lon="13.266509660955753"><ele>184.0</ele><time>2026-04-19T16:17:18.999Z</time></trkpt><trkpt lat="43.26877951390261" lon="13.266703950857503"><ele>183.75</ele><time>2026-04-19T16:17:19.999Z</time></trkpt><trkpt lat="43.26881948278116" lon="13.266897097169247"><ele>183.5</ele><time>2026-04-19T16:17:20.999Z</time></trkpt><trkpt lat="43.26886230179667" lon="13.267097622398314"><ele>183.25</ele><time>2026-04-19T16:17:21.999Z</time></trkpt><trkpt lat="43.26890610617041" lon="13.26729530770065"><ele>183.0</ele><time>2026-04-19T16:17:22.999Z</time></trkpt><trkpt lat="43.26895436013918" lon="13.267489592142356"><ele>184.33333333333334</ele><time>2026-04-19T16:17:23.999Z</time></trkpt><trkpt lat="43.26899739357525" lon="13.267690598814571"><ele>185.66666666666669</ele><time>2026-04-19T16:17:24.999Z</time></trkpt><trkpt lat="43.269041200537536" lon="13.26789704050066"><ele>187.0</ele><time>2026-04-19T16:17:25.999Z</time></trkpt><trkpt lat="43.26908607913781" lon="13.268103161429508"><ele>186.0</ele><time>2026-04-19T16:17:26.999Z</time></trkpt><trkpt lat="43.26913083400027" lon="13.26831270896738"><ele>185.0</ele><time>2026-04-19T16:17:27.999Z</time></trkpt><trkpt lat="43.26917714425721" lon="13.268522461441966"><ele>184.0</ele><time>2026-04-19T16:17:28.999Z</time></trkpt><trkpt lat="43.26922275179773" lon="13.268733218239928"><ele>183.33333333333334</ele><time>2026-04-19T16:17:29.999Z</time></trkpt><trkpt lat="43.26927069287291" lon="13.268944419896828"><ele>182.66666666666666</ele><time>2026-04-19T16:17:30.999Z</time></trkpt><trkpt lat="43.26931604909635" lon="13.26915938600642"><ele>182.0</ele><time>2026-04-19T16:17:31.999Z</time></trkpt><trkpt lat="43.26936411210489" lon="13.269368538184596"><ele>182.0</ele><time>2026-04-19T16:17:32.999Z</time></trkpt><trkpt lat="43.26940983261501" lon="13.269581590874814"><ele>182.0</ele><time>2026-04-19T16:17:33.999Z</time></trkpt><trkpt lat="43.26945398980845" lon="13.26980264422025"><ele>182.0</ele><time>2026-04-19T16:17:34.999Z</time></trkpt><trkpt lat="43.269497896365195" lon="13.270013729843471"><ele>182.0</ele><time>2026-04-19T16:17:35.999Z</time></trkpt><trkpt lat="43.26954252796369" lon="13.27023868975433"><ele>182.0</ele><time>2026-04-19T16:17:36.998Z</time></trkpt><trkpt lat="43.26958379835946" lon="13.27045460589032"><ele>182.0</ele><time>2026-04-19T16:17:37.998Z</time></trkpt><trkpt lat="43.26962838945221" lon="13.270675996351038"><ele>182.0</ele><time>2026-04-19T16:17:38.998Z</time></trkpt><trkpt lat="43.26967221357246" lon="13.270897639763506"><ele>182.0</ele><time>2026-04-19T16:17:39.998Z</time></trkpt><trkpt lat="43.26971634718124" lon="13.271120394441427"><ele>182.0</ele><time>2026-04-19T16:17:40.998Z</time></trkpt><trkpt lat="43.26976196632944" lon="13.271350118728058"><ele>182.0</ele><time>2026-04-19T16:17:41.998Z</time></trkpt><trkpt lat="43.269809579300045" lon="13.27158303581457"><ele>182.0</ele><time>2026-04-19T16:17:42.998Z</time></trkpt><trkpt lat="43.26985508767094" lon="13.271821346095484"><ele>182.0</ele><time>2026-04-19T16:17:43.998Z</time></trkpt><trkpt lat="43.26990423752957" lon="13.272068339242738"><ele>183.0</ele><time>2026-04-19T16:17:44.998Z</time></trkpt><trkpt lat="43.26995442175371" lon="13.272310610655595"><ele>184.0</ele><time>2026-04-19T16:17:45.998Z</time></trkpt><trkpt lat="43.27000663218077" lon="13.272558982309333"><ele>185.0</ele><time>2026-04-19T16:17:46.998Z</time></trkpt><trkpt lat="43.270061859227575" lon="13.272807193917453"><ele>185.0</ele><time>2026-04-19T16:17:47.998Z</time></trkpt><trkpt lat="43.270117756718086" lon="13.273051705308799"><ele>185.0</ele><time>2026-04-19T16:17:48.998Z</time></trkpt><trkpt lat="43.27016475560002" lon="13.273312836399208"><ele>185.0</ele><time>2026-04-19T16:17:49.998Z</time></trkpt><trkpt lat="43.27023341864847" lon="13.273560246416576"><ele>184.0</ele><time>2026-04-19T16:17:50.998Z</time></trkpt><trkpt lat="43.27029276058379" lon="13.27381411167936"><ele>183.0</ele><time>2026-04-19T16:17:52Z</time></trkpt><trkpt lat="43.2703476141632" lon="13.274066360259667"><ele>182.0</ele><time>2026-04-19T16:17:53Z</time></trkpt><trkpt lat="43.270403905807825" lon="13.274319601940743"><ele>181.66666666666666</ele><time>2026-04-19T16:17:54Z</time></trkpt><trkpt lat="43.27046049484356" lon="13.27457617708118"><ele>181.33333333333334</ele><time>2026-04-19T16:17:55Z</time></trkpt><trkpt lat="43.27052032474801" lon="13.27483653405005"><ele>181.0</ele><time>2026-04-19T16:17:56Z</time></trkpt><trkpt lat="43.27057442634405" lon="13.275091883161199"><ele>181.33333333333334</ele><time>2026-04-19T16:17:57Z</time></trkpt><trkpt lat="43.27062978627976" lon="13.275351656622217"><ele>181.66666666666666</ele><time>2026-04-19T16:17:58Z</time></trkpt><trkpt lat="43.2706841776357" lon="13.275605654672066"><ele>182.0</ele><time>2026-04-19T16:17:59Z</time></trkpt><trkpt lat="43.27074189110128" lon="13.275864353696692"><ele>182.0</ele><time>2026-04-19T16:18:00Z</time></trkpt><trkpt lat="43.27080028547834" lon="13.276124662606094"><ele>182.0</ele><time>2026-04-19T16:18:01Z</time></trkpt><trkpt lat="43.27085840024502" lon="13.276389948757"><ele>182.0</ele><time>2026-04-19T16:18:02Z</time></trkpt><trkpt lat="43.2709185929497" lon="13.276660719312392"><ele>181.66666666666666</ele><time>2026-04-19T16:18:03Z</time></trkpt><trkpt lat="43.270980568412796" lon="13.276935299788"><ele>181.33333333333334</ele><time>2026-04-19T16:18:04Z</time></trkpt><trkpt lat="43.27104278862654" lon="13.277219785494808"><ele>181.0</ele><time>2026-04-19T16:18:05Z</time></trkpt><trkpt lat="43.27109339986597" lon="13.277515089602508"><ele>180.66666666666669</ele><time>2026-04-19T16:18:06Z</time></trkpt><trkpt lat="43.27115921782392" lon="13.27781178985954"><ele>180.33333333333334</ele><time>2026-04-19T16:18:07Z</time></trkpt><trkpt lat="43.27122331549546" lon="13.278100735408705"><ele>180.0</ele><time>2026-04-19T16:18:08Z</time></trkpt><trkpt lat="43.27128775491517" lon="13.278391221494719"><ele>179.66666666666666</ele><time>2026-04-19T16:18:09Z</time></trkpt><trkpt lat="43.27136336273865" lon="13.278664674730614"><ele>179.33333333333331</ele><time>2026-04-19T16:18:10Z</time></trkpt><trkpt lat="43.27141342829079" lon="13.278930205605587"><ele>179.0</ele><time>2026-04-19T16:18:11Z</time></trkpt><trkpt lat="43.27147379405771" lon="13.279187410178155"><ele>178.66666666666666</ele><time>2026-04-19T16:18:12Z</time></trkpt><trkpt lat="43.27153068757378" lon="13.279449832380816"><ele>178.33333333333334</ele><time>2026-04-19T16:18:13Z</time></trkpt><trkpt lat="43.27158795323626" lon="13.279709707631833"><ele>178.0</ele><time>2026-04-19T16:18:14Z</time></trkpt><trkpt lat="43.27164481912674" lon="13.279966992953723"><ele>178.0</ele><time>2026-04-19T16:18:15Z</time></trkpt><trkpt lat="43.271701513630674" lon="13.2802252127185"><ele>178.0</ele><time>2026-04-19T16:18:16Z</time></trkpt><trkpt lat="43.27175660817725" lon="13.280478516560342"><ele>178.0</ele><time>2026-04-19T16:18:17Z</time></trkpt><trkpt lat="43.27180988363936" lon="13.2807262569613"><ele>178.0</ele><time>2026-04-19T16:18:18Z</time></trkpt><trkpt lat="43.271864404130746" lon="13.280973931767255"><ele>178.0</ele><time>2026-04-19T16:18:19Z</time></trkpt><trkpt lat="43.27191836199993" lon="13.281216220346122"><ele>178.0</ele><time>2026-04-19T16:18:20Z</time></trkpt><trkpt lat="43.27196706461655" lon="13.281452050033721"><ele>177.66666666666669</ele><time>2026-04-19T16:18:21Z</time></trkpt><trkpt lat="43.272021352068876" lon="13.281686894864473"><ele>177.33333333333334</ele><time>2026-04-19T16:18:21.999Z</time></trkpt><trkpt lat="43.27207431498525" lon="13.28191618515938"><ele>177.0</ele><time>2026-04-19T16:18:22.999Z</time></trkpt><trkpt lat="43.272129513902364" lon="13.282144427917224"><ele>176.66666666666666</ele><time>2026-04-19T16:18:23.999Z</time></trkpt><trkpt lat="43.27216702208194" lon="13.282379164438776"><ele>176.33333333333331</ele><time>2026-04-19T16:18:24.999Z</time></trkpt><trkpt lat="43.27222023767147" lon="13.28261024908519"><ele>176.0</ele><time>2026-04-19T16:18:25.999Z</time></trkpt><trkpt lat="43.2722736455032" lon="13.282840958741383"><ele>176.33333333333331</ele><time>2026-04-19T16:18:26.999Z</time></trkpt><trkpt lat="43.27232806895238" lon="13.283076055454158"><ele>176.66666666666666</ele><time>2026-04-19T16:18:27.999Z</time></trkpt><trkpt lat="43.27238223293084" lon="13.283310031494118"><ele>177.0</ele><time>2026-04-19T16:18:28.999Z</time></trkpt><trkpt lat="43.27243599775008" lon="13.283542283234262"><ele>177.0</ele><time>2026-04-19T16:18:29.999Z</time></trkpt><trkpt lat="43.27250612848618" lon="13.283779059166687"><ele>177.0</ele><time>2026-04-19T16:18:30.999Z</time></trkpt><trkpt lat="43.27255966228491" lon="13.284017381945867"><ele>177.0</ele><time>2026-04-19T16:18:31.999Z</time></trkpt><trkpt lat="43.27261626408221" lon="13.284259711541862"><ele>176.66666666666666</ele><time>2026-04-19T16:18:32.999Z</time></trkpt><trkpt lat="43.27267073725797" lon="13.28450503611123"><ele>176.33333333333331</ele><time>2026-04-19T16:18:33.999Z</time></trkpt><trkpt lat="43.272725871145454" lon="13.284751497319395"><ele>176.0</ele><time>2026-04-19T16:18:34.999Z</time></trkpt><trkpt lat="43.272782762871174" lon="13.284997283717898"><ele>175.33333333333331</ele><time>2026-04-19T16:18:35.999Z</time></trkpt><trkpt lat="43.27284122019823" lon="13.285250062873276"><ele>174.66666666666666</ele><time>2026-04-19T16:18:36.999Z</time></trkpt><trkpt lat="43.272894506472426" lon="13.285504806269469"><ele>174.0</ele><time>2026-04-19T16:18:37.999Z</time></trkpt><trkpt lat="43.27295070193604" lon="13.285762489284044"><ele>173.66666666666666</ele><time>2026-04-19T16:18:38.999Z</time></trkpt><trkpt lat="43.27300965672932" lon="13.286024812637743"><ele>173.33333333333331</ele><time>2026-04-19T16:18:39.999Z</time></trkpt><trkpt lat="43.27306961676685" lon="13.286287551014539"><ele>173.0</ele><time>2026-04-19T16:18:40.999Z</time></trkpt><trkpt lat="43.273127607855166" lon="13.286556412894145"><ele>173.66666666666666</ele><time>2026-04-19T16:18:41.999Z</time></trkpt><trkpt lat="43.27318618519272" lon="13.286817526238151"><ele>174.33333333333334</ele><time>2026-04-19T16:18:42.999Z</time></trkpt><trkpt lat="43.27324654626468" lon="13.287087413558465"><ele>175.0</ele><time>2026-04-19T16:18:43.999Z</time></trkpt><trkpt lat="43.27331017576397" lon="13.287366118376255"><ele>175.0</ele><time>2026-04-19T16:18:44.999Z</time></trkpt><trkpt lat="43.27336975541057" lon="13.287637638967587"><ele>175.0</ele><time>2026-04-19T16:18:45.999Z</time></trkpt><trkpt lat="43.27343539968504" lon="13.287921852613131"><ele>175.0</ele><time>2026-04-19T16:18:46.999Z</time></trkpt><trkpt lat="43.27350049798248" lon="13.2882129531283"><ele>174.0</ele><time>2026-04-19T16:18:47.999Z</time></trkpt><trkpt lat="43.27356754455023" lon="13.288511306880967"><ele>173.0</ele><time>2026-04-19T16:18:48.999Z</time></trkpt><trkpt lat="43.27363498893743" lon="13.288811585921191"><ele>172.0</ele><time>2026-04-19T16:18:49.999Z</time></trkpt><trkpt lat="43.27370030574766" lon="13.289112635151248"><ele>171.0</ele><time>2026-04-19T16:18:50.999Z</time></trkpt><trkpt lat="43.27376783765615" lon="13.289413208661824"><ele>171.0</ele><time>2026-04-19T16:18:51.999Z</time></trkpt><trkpt lat="43.27383448665807" lon="13.289715469966119"><ele>171.0</ele><time>2026-04-19T16:18:52.999Z</time></trkpt><trkpt lat="43.27390060871214" lon="13.290014711603234"><ele>172.33333333333334</ele><time>2026-04-19T16:18:53.999Z</time></trkpt><trkpt lat="43.273964083673484" lon="13.290314162750661"><ele>173.66666666666669</ele><time>2026-04-19T16:18:54.999Z</time></trkpt><trkpt lat="43.27402837942032" lon="13.290605124999201"><ele>175.0</ele><time>2026-04-19T16:18:55.999Z</time></trkpt><trkpt lat="43.274091206635084" lon="13.29089318055691"><ele>175.0</ele><time>2026-04-19T16:18:56.999Z</time></trkpt><trkpt lat="43.27415534308255" lon="13.291176448326393"><ele>175.0</ele><time>2026-04-19T16:18:57.999Z</time></trkpt><trkpt lat="43.274215057898466" lon="13.291459916012334"><ele>175.0</ele><time>2026-04-19T16:18:58.999Z</time></trkpt><trkpt lat="43.274275840746" lon="13.291734260410568"><ele>175.0</ele><time>2026-04-19T16:18:59.999Z</time></trkpt><trkpt lat="43.2743379111129" lon="13.292010269096856"><ele>175.0</ele><time>2026-04-19T16:19:00.999Z</time></trkpt><trkpt lat="43.27439670628692" lon="13.29228498009799"><ele>175.0</ele><time>2026-04-19T16:19:01.999Z</time></trkpt><trkpt lat="43.27446059912915" lon="13.292558578365925"><ele>173.33333333333334</ele><time>2026-04-19T16:19:02.999Z</time></trkpt><trkpt lat="43.27452170218745" lon="13.292831161931133"><ele>171.66666666666666</ele><time>2026-04-19T16:19:03.999Z</time></trkpt><trkpt lat="43.27458035735732" lon="13.29310614541475"><ele>170.0</ele><time>2026-04-19T16:19:04.999Z</time></trkpt><trkpt lat="43.274641762793365" lon="13.29338222143133"><ele>169.33333333333331</ele><time>2026-04-19T16:19:05.999Z</time></trkpt><trkpt lat="43.27470343778289" lon="13.293655332341261"><ele>168.66666666666666</ele><time>2026-04-19T16:19:06.999Z</time></trkpt><trkpt lat="43.274769952719154" lon="13.293936566269686"><ele>168.0</ele><time>2026-04-19T16:19:07.999Z</time></trkpt><trkpt lat="43.27483528383021" lon="13.294219856088832"><ele>169.33333333333334</ele><time>2026-04-19T16:19:08.999Z</time></trkpt><trkpt lat="43.27489680623702" lon="13.294509600579243"><ele>170.66666666666669</ele><time>2026-04-19T16:19:09.999Z</time></trkpt><trkpt lat="43.27495837476951" lon="13.294798806081637"><ele>172.0</ele><time>2026-04-19T16:19:10.999Z</time></trkpt><trkpt lat="43.27502122290993" lon="13.295088099800319"><ele>172.0</ele><time>2026-04-19T16:19:11.999Z</time></trkpt><trkpt lat="43.27508610268175" lon="13.295383694867715"><ele>172.0</ele><time>2026-04-19T16:19:12.999Z</time></trkpt><trkpt lat="43.275151183575446" lon="13.295676597230763"><ele>172.0</ele><time>2026-04-19T16:19:13.999Z</time></trkpt><trkpt lat="43.27521467706119" lon="13.295969685561879"><ele>171.66666666666669</ele><time>2026-04-19T16:19:14.999Z</time></trkpt><trkpt lat="43.27527417949192" lon="13.296257606286487"><ele>171.33333333333334</ele><time>2026-04-19T16:19:15.999Z</time></trkpt><trkpt lat="43.27534156265966" lon="13.296546266260036"><ele>171.0</ele><time>2026-04-19T16:19:16.999Z</time></trkpt><trkpt lat="43.27540308814879" lon="13.296828572399452"><ele>170.66666666666666</ele><time>2026-04-19T16:19:17.999Z</time></trkpt><trkpt lat="43.275471886223016" lon="13.297117894310121"><ele>170.33333333333331</ele><time>2026-04-19T16:19:18.999Z</time></trkpt><trkpt lat="43.27553314407474" lon="13.297399420953697"><ele>170.0</ele><time>2026-04-19T16:19:19.999Z</time></trkpt><trkpt lat="43.27560071277523" lon="13.297690317361656"><ele>170.33333333333331</ele><time>2026-04-19T16:19:20.999Z</time></trkpt><trkpt lat="43.27566926905612" lon="13.297979516358547"><ele>170.66666666666666</ele><time>2026-04-19T16:19:21.999Z</time></trkpt><trkpt lat="43.27573814658328" lon="13.298271830099495"><ele>171.0</ele><time>2026-04-19T16:19:22.999Z</time></trkpt><trkpt lat="43.275806452529345" lon="13.298565152532511"><ele>171.0</ele><time>2026-04-19T16:19:23.999Z</time></trkpt><trkpt lat="43.27587510429918" lon="13.2988572238561"><ele>171.0</ele><time>2026-04-19T16:19:24.999Z</time></trkpt><trkpt lat="43.27594358090588" lon="13.299149054136402"><ele>171.0</ele><time>2026-04-19T16:19:25.999Z</time></trkpt><trkpt lat="43.27601158414191" lon="13.299441947514564"><ele>170.0</ele><time>2026-04-19T16:19:26.999Z</time></trkpt><trkpt lat="43.27608033115992" lon="13.299734826127077"><ele>169.0</ele><time>2026-04-19T16:19:27.999Z</time></trkpt><trkpt lat="43.27614801809739" lon="13.300026180554354"><ele>168.0</ele><time>2026-04-19T16:19:28.999Z</time></trkpt><trkpt lat="43.27621181573441" lon="13.300308570865688"><ele>167.0</ele><time>2026-04-19T16:19:29.999Z</time></trkpt><trkpt lat="43.2762746544242" lon="13.300584918229024"><ele>166.0</ele><time>2026-04-19T16:19:30.999Z</time></trkpt><trkpt lat="43.27634181811595" lon="13.300861772280177"><ele>165.0</ele><time>2026-04-19T16:19:31.999Z</time></trkpt><trkpt lat="43.2764062688463" lon="13.301136156373941"><ele>166.33333333333334</ele><time>2026-04-19T16:19:32.999Z</time></trkpt><trkpt lat="43.27647561449829" lon="13.301398548692823"><ele>167.66666666666669</ele><time>2026-04-19T16:19:33.999Z</time></trkpt><trkpt lat="43.276539841563206" lon="13.301658841941656"><ele>169.0</ele><time>2026-04-19T16:19:34.999Z</time></trkpt><trkpt lat="43.27660026350306" lon="13.301905370670548"><ele>169.0</ele><time>2026-04-19T16:19:35.999Z</time></trkpt><trkpt lat="43.27666615962485" lon="13.302151190235074"><ele>169.0</ele><time>2026-04-19T16:19:36.999Z</time></trkpt><trkpt lat="43.27673276689045" lon="13.302392726365126"><ele>169.0</ele><time>2026-04-19T16:19:37.999Z</time></trkpt><trkpt lat="43.2767985624217" lon="13.302638300513765"><ele>169.0</ele><time>2026-04-19T16:19:38.999Z</time></trkpt><trkpt lat="43.27686578282573" lon="13.302881737859142"><ele>169.0</ele><time>2026-04-19T16:19:39.999Z</time></trkpt><trkpt lat="43.27693523167008" lon="13.30312149193439"><ele>169.0</ele><time>2026-04-19T16:19:40.999Z</time></trkpt><trkpt lat="43.27700964440442" lon="13.303361201649754"><ele>168.0</ele><time>2026-04-19T16:19:41.999Z</time></trkpt><trkpt lat="43.277086498582044" lon="13.303600585946674"><ele>167.0</ele><time>2026-04-19T16:19:42.999Z</time></trkpt><trkpt lat="43.277169563851544" lon="13.303835751727192"><ele>166.0</ele><time>2026-04-19T16:19:43.999Z</time></trkpt><trkpt lat="43.27725671222645" lon="13.304069432973574"><ele>166.0</ele><time>2026-04-19T16:19:44.999Z</time></trkpt><trkpt lat="43.277346055173425" lon="13.304300564641798"><ele>166.0</ele><time>2026-04-19T16:19:45.999Z</time></trkpt><trkpt lat="43.277436543692325" lon="13.304535534048163"><ele>166.0</ele><time>2026-04-19T16:19:46.998Z</time></trkpt><trkpt lat="43.27752321630138" lon="13.30476927231084"><ele>165.66666666666669</ele><time>2026-04-19T16:19:47.998Z</time></trkpt><trkpt lat="43.27761196117816" lon="13.305002847874093"><ele>165.33333333333334</ele><time>2026-04-19T16:19:48.998Z</time></trkpt><trkpt lat="43.277693770025586" lon="13.305234597959187"><ele>165.0</ele><time>2026-04-19T16:19:49.998Z</time></trkpt><trkpt lat="43.27777535856651" lon="13.305458224382273"><ele>164.66666666666666</ele><time>2026-04-19T16:19:50.998Z</time></trkpt><trkpt lat="43.27785133534398" lon="13.305678631810117"><ele>164.33333333333331</ele><time>2026-04-19T16:19:51.998Z</time></trkpt><trkpt lat="43.277919238044575" lon="13.305901970544326"><ele>164.0</ele><time>2026-04-19T16:19:52.998Z</time></trkpt><trkpt lat="43.27796762941782" lon="13.30613143826814"><ele>164.0</ele><time>2026-04-19T16:19:53.998Z</time></trkpt><trkpt lat="43.277990302894196" lon="13.306362320848214"><ele>164.0</ele><time>2026-04-19T16:19:54.998Z</time></trkpt><trkpt lat="43.277996900799565" lon="13.306597281747477"><ele>164.0</ele><time>2026-04-19T16:19:55.998Z</time></trkpt><trkpt lat="43.27798517666567" lon="13.306832750463181"><ele>163.66666666666666</ele><time>2026-04-19T16:19:57Z</time></trkpt><trkpt lat="43.27797043022541" lon="13.307073271609166"><ele>163.33333333333334</ele><time>2026-04-19T16:19:58Z</time></trkpt><trkpt lat="43.277958048654604" lon="13.307315112612528"><ele>163.0</ele><time>2026-04-19T16:19:59Z</time></trkpt><trkpt lat="43.27794801355406" lon="13.307562971417392"><ele>162.66666666666669</ele><time>2026-04-19T16:20:00Z</time></trkpt><trkpt lat="43.27793239834382" lon="13.307813500333182"><ele>162.33333333333334</ele><time>2026-04-19T16:20:01Z</time></trkpt><trkpt lat="43.27791888571855" lon="13.308067061069265"><ele>162.0</ele><time>2026-04-19T16:20:02Z</time></trkpt><trkpt lat="43.277909079778944" lon="13.308320547615551"><ele>162.66666666666666</ele><time>2026-04-19T16:20:03Z</time></trkpt><trkpt lat="43.27790123350764" lon="13.308578181596026"><ele>163.33333333333331</ele><time>2026-04-19T16:20:04Z</time></trkpt><trkpt lat="43.277899069635495" lon="13.30883801305899"><ele>164.0</ele><time>2026-04-19T16:20:05Z</time></trkpt><trkpt lat="43.27791030824972" lon="13.309102643275358"><ele>164.0</ele><time>2026-04-19T16:20:06Z</time></trkpt><trkpt lat="43.27793441207846" lon="13.309364729234344"><ele>164.0</ele><time>2026-04-19T16:20:07Z</time></trkpt><trkpt lat="43.2779714266866" lon="13.309631208976493"><ele>164.0</ele><time>2026-04-19T16:20:08Z</time></trkpt><trkpt lat="43.278015860232564" lon="13.30989552187867"><ele>163.66666666666666</ele><time>2026-04-19T16:20:09Z</time></trkpt><trkpt lat="43.27805623015822" lon="13.310161921012492"><ele>163.33333333333334</ele><time>2026-04-19T16:20:10Z</time></trkpt><trkpt lat="43.27809601800687" lon="13.310439788049553"><ele>163.0</ele><time>2026-04-19T16:20:11Z</time></trkpt><trkpt lat="43.27813633231656" lon="13.310715043304455"><ele>163.66666666666669</ele><time>2026-04-19T16:20:12Z</time></trkpt><trkpt lat="43.27817565608581" lon="13.310986775085537"><ele>164.33333333333334</ele><time>2026-04-19T16:20:13Z</time></trkpt><trkpt lat="43.27821666337128" lon="13.311254807525778"><ele>165.0</ele><time>2026-04-19T16:20:14Z</time></trkpt><trkpt lat="43.27825519369938" lon="13.311521984373773"><ele>165.0</ele><time>2026-04-19T16:20:15Z</time></trkpt><trkpt lat="43.27829275841295" lon="13.311789555602227"><ele>165.0</ele><time>2026-04-19T16:20:16Z</time></trkpt><trkpt lat="43.278329819002664" lon="13.312051202468494"><ele>165.0</ele><time>2026-04-19T16:20:17Z</time></trkpt><trkpt lat="43.278368359012866" lon="13.312315872869636"><ele>164.0</ele><time>2026-04-19T16:20:18Z</time></trkpt><trkpt lat="43.27840701612571" lon="13.31258030604179"><ele>163.0</ele><time>2026-04-19T16:20:19Z</time></trkpt><trkpt lat="43.27844770069566" lon="13.312849292014853"><ele>162.0</ele><time>2026-04-19T16:20:20Z</time></trkpt><trkpt lat="43.27848769549892" lon="13.31311768123068"><ele>161.0</ele><time>2026-04-19T16:20:21Z</time></trkpt><trkpt lat="43.27852723165366" lon="13.313384280872624"><ele>160.0</ele><time>2026-04-19T16:20:22Z</time></trkpt><trkpt lat="43.27856765431227" lon="13.313650468457897"><ele>159.0</ele><time>2026-04-19T16:20:23Z</time></trkpt><trkpt lat="43.27860862001848" lon="13.313916508094152"><ele>158.0</ele><time>2026-04-19T16:20:24Z</time></trkpt><trkpt lat="43.27864899514536" lon="13.314179994237982"><ele>157.0</ele><time>2026-04-19T16:20:25Z</time></trkpt><trkpt lat="43.27869493426294" lon="13.314440010556751"><ele>156.0</ele><time>2026-04-19T16:20:26Z</time></trkpt><trkpt lat="43.27873806336847" lon="13.31470543317577"><ele>156.0</ele><time>2026-04-19T16:20:27Z</time></trkpt><trkpt lat="43.278811381723266" lon="13.31495829052339"><ele>156.0</ele><time>2026-04-19T16:20:28Z</time></trkpt><trkpt lat="43.2789154013979" lon="13.315184263253004"><ele>156.0</ele><time>2026-04-19T16:20:29Z</time></trkpt><trkpt lat="43.2790105960342" lon="13.31541600457037"><ele>156.66666666666666</ele><time>2026-04-19T16:20:30Z</time></trkpt><trkpt lat="43.27910992202494" lon="13.315648910432234"><ele>157.33333333333331</ele><time>2026-04-19T16:20:30.999Z</time></trkpt><trkpt lat="43.27921650287315" lon="13.315885875665"><ele>158.0</ele><time>2026-04-19T16:20:31.999Z</time></trkpt><trkpt lat="43.279321314438576" lon="13.316122777134815"><ele>158.0</ele><time>2026-04-19T16:20:32.999Z</time></trkpt><trkpt lat="43.27942292069904" lon="13.316355996103406"><ele>158.0</ele><time>2026-04-19T16:20:33.999Z</time></trkpt><trkpt lat="43.279526220153016" lon="13.316595727636766"><ele>158.0</ele><time>2026-04-19T16:20:34.999Z</time></trkpt><trkpt lat="43.27963075589294" lon="13.316838584877058"><ele>157.33333333333331</ele><time>2026-04-19T16:20:35.999Z</time></trkpt><trkpt lat="43.27973430590357" lon="13.317080892186576"><ele>156.66666666666666</ele><time>2026-04-19T16:20:36.999Z</time></trkpt><trkpt lat="43.27983712181988" lon="13.317325231156104"><ele>156.0</ele><time>2026-04-19T16:20:37.999Z</time></trkpt><trkpt lat="43.27994151272024" lon="13.317565864414101"><ele>156.0</ele><time>2026-04-19T16:20:38.999Z</time></trkpt><trkpt lat="43.280040515563215" lon="13.317798372844054"><ele>156.0</ele><time>2026-04-19T16:20:39.999Z</time></trkpt><trkpt lat="43.28013773944115" lon="13.318031160633522"><ele>156.0</ele><time>2026-04-19T16:20:40.999Z</time></trkpt><trkpt lat="43.280236462629944" lon="13.318256019093345"><ele>155.33333333333334</ele><time>2026-04-19T16:20:41.999Z</time></trkpt><trkpt lat="43.28033408978019" lon="13.31848857912914"><ele>154.66666666666669</ele><time>2026-04-19T16:20:42.999Z</time></trkpt><trkpt lat="43.28042043334638" lon="13.318692029358616"><ele>154.0</ele><time>2026-04-19T16:20:43.999Z</time></trkpt><trkpt lat="43.28050938097957" lon="13.318909972047669"><ele>153.66666666666669</ele><time>2026-04-19T16:20:44.999Z</time></trkpt><trkpt lat="43.28059512500118" lon="13.319134142132532"><ele>153.33333333333334</ele><time>2026-04-19T16:20:45.999Z</time></trkpt><trkpt lat="43.28067816953714" lon="13.319351738455925"><ele>153.0</ele><time>2026-04-19T16:20:46.999Z</time></trkpt><trkpt lat="43.28075344912664" lon="13.319562114219792"><ele>153.0</ele><time>2026-04-19T16:20:47.999Z</time></trkpt><trkpt lat="43.28082158775575" lon="13.319774083762828"><ele>153.0</ele><time>2026-04-19T16:20:48.999Z</time></trkpt><trkpt lat="43.280895578094636" lon="13.319983714148202"><ele>153.0</ele><time>2026-04-19T16:20:49.999Z</time></trkpt><trkpt lat="43.28095957740463" lon="13.320201285006979"><ele>153.0</ele><time>2026-04-19T16:20:50.999Z</time></trkpt><trkpt lat="43.28101834140875" lon="13.320421965882801"><ele>153.0</ele><time>2026-04-19T16:20:51.999Z</time></trkpt><trkpt lat="43.281037092688614" lon="13.320649172881993"><ele>153.0</ele><time>2026-04-19T16:20:52.999Z</time></trkpt><trkpt lat="43.281075318653485" lon="13.320905532421543"><ele>152.0</ele><time>2026-04-19T16:20:53.999Z</time></trkpt><trkpt lat="43.28110507981366" lon="13.321105632372408"><ele>151.0</ele><time>2026-04-19T16:20:54.999Z</time></trkpt><trkpt lat="43.28113765599004" lon="13.32132590505003"><ele>150.0</ele><time>2026-04-19T16:20:55.999Z</time></trkpt><trkpt lat="43.281170414956875" lon="13.32154741404101"><ele>149.66666666666666</ele><time>2026-04-19T16:20:56.999Z</time></trkpt><trkpt lat="43.28122374597515" lon="13.3217642697115"><ele>149.33333333333331</ele><time>2026-04-19T16:20:57.999Z</time></trkpt><trkpt lat="43.281254935867594" lon="13.321973580637984"><ele>149.0</ele><time>2026-04-19T16:20:58.999Z</time></trkpt><trkpt lat="43.281286390472765" lon="13.322180236954017"><ele>148.75</ele><time>2026-04-19T16:20:59.999Z</time></trkpt><trkpt lat="43.28131859126133" lon="13.322379650752858"><ele>148.5</ele><time>2026-04-19T16:21:00.999Z</time></trkpt><trkpt lat="43.281350362776315" lon="13.322574422356064"><ele>148.25</ele><time>2026-04-19T16:21:01.999Z</time></trkpt><trkpt lat="43.281358815857175" lon="13.32277230458044"><ele>148.0</ele><time>2026-04-19T16:21:02.999Z</time></trkpt><trkpt lat="43.28140443863013" lon="13.32295338822649"><ele>148.25</ele><time>2026-04-19T16:21:03.999Z</time></trkpt><trkpt lat="43.28143878748264" lon="13.323135381642293"><ele>148.5</ele><time>2026-04-19T16:21:04.999Z</time></trkpt><trkpt lat="43.28148156740056" lon="13.323308848632555"><ele>148.75</ele><time>2026-04-19T16:21:05.999Z</time></trkpt><trkpt lat="43.28153650332898" lon="13.323474616853343"><ele>149.0</ele><time>2026-04-19T16:21:06.999Z</time></trkpt><trkpt lat="43.281595628113415" lon="13.323632892303863"><ele>149.0</ele><time>2026-04-19T16:21:07.999Z</time></trkpt><trkpt lat="43.281650964501544" lon="13.323786819272318"><ele>149.0</ele><time>2026-04-19T16:21:08.999Z</time></trkpt><trkpt lat="43.28169736093843" lon="13.323944877970476"><ele>149.0</ele><time>2026-04-19T16:21:09.999Z</time></trkpt><trkpt lat="43.28175015164019" lon="13.324107737787285"><ele>149.0</ele><time>2026-04-19T16:21:10.999Z</time></trkpt><trkpt lat="43.28180548005345" lon="13.324270848284353"><ele>149.25</ele><time>2026-04-19T16:21:11.999Z</time></trkpt><trkpt lat="43.281861007276255" lon="13.324436022501654"><ele>149.5</ele><time>2026-04-19T16:21:12.999Z</time></trkpt><trkpt lat="43.28191625450376" lon="13.324606593528793"><ele>149.75</ele><time>2026-04-19T16:21:13.999Z</time></trkpt><trkpt lat="43.2819674766685" lon="13.324786524693955"><ele>150.0</ele><time>2026-04-19T16:21:14.999Z</time></trkpt><trkpt lat="43.28202479873322" lon="13.324955427751275"><ele>149.0</ele><time>2026-04-19T16:21:15.999Z</time></trkpt><trkpt lat="43.28208554264792" lon="13.325129542904094"><ele>148.0</ele><time>2026-04-19T16:21:16.999Z</time></trkpt><trkpt lat="43.28212864809365" lon="13.325313058922152"><ele>147.0</ele><time>2026-04-19T16:21:17.999Z</time></trkpt><trkpt lat="43.282201030863064" lon="13.325482423828207"><ele>146.0</ele><time>2026-04-19T16:21:18.999Z</time></trkpt><trkpt lat="43.28225649604" lon="13.32566227486548"><ele>146.5</ele><time>2026-04-19T16:21:19.999Z</time></trkpt><trkpt lat="43.2823156527776" lon="13.32583683272574"><ele>147.0</ele><time>2026-04-19T16:21:20.999Z</time></trkpt><trkpt lat="43.28235876195573" lon="13.326018484913435"><ele>147.5</ele><time>2026-04-19T16:21:21.999Z</time></trkpt><trkpt lat="43.28242636812347" lon="13.326181099901262"><ele>148.0</ele><time>2026-04-19T16:21:22.999Z</time></trkpt><trkpt lat="43.28247664507722" lon="13.326353323193079"><ele>147.5</ele><time>2026-04-19T16:21:23.999Z</time></trkpt><trkpt lat="43.28253253341441" lon="13.326513887461893"><ele>147.0</ele><time>2026-04-19T16:21:24.999Z</time></trkpt><trkpt lat="43.282581725261004" lon="13.326648227826265"><ele>146.5</ele><time>2026-04-19T16:21:25.999Z</time></trkpt><trkpt lat="43.282625064633876" lon="13.326779828518045"><ele>146.0</ele><time>2026-04-19T16:21:26.999Z</time></trkpt><trkpt lat="43.28266890660452" lon="13.326925063875544"><ele>146.0</ele><time>2026-04-19T16:21:27.999Z</time></trkpt><trkpt lat="43.28269609256315" lon="13.327052493434461"><ele>146.0</ele><time>2026-04-19T16:21:28.999Z</time></trkpt><trkpt lat="43.28272411401819" lon="13.327138824517412"><ele>146.0</ele><time>2026-04-19T16:21:29.999Z</time></trkpt><trkpt lat="43.28275902233933" lon="13.32721198642607"><ele>146.0</ele><time>2026-04-19T16:21:30.999Z</time></trkpt><trkpt lat="43.28278743230352" lon="13.327293040820365"><ele>146.0</ele><time>2026-04-19T16:21:31.999Z</time></trkpt><trkpt lat="43.28283695694064" lon="13.3274471145252"><ele>146.0</ele><time>2026-04-19T16:21:33.999Z</time></trkpt><trkpt lat="43.28286420093759" lon="13.327529235449372"><ele>145.57142857142856</ele><time>2026-04-19T16:21:34.999Z</time></trkpt><trkpt lat="43.28289131641711" lon="13.3276096664734"><ele>145.14285714285714</ele><time>2026-04-19T16:21:35.999Z</time></trkpt><trkpt lat="43.282919338402756" lon="13.327692586689434"><ele>144.71428571428572</ele><time>2026-04-19T16:21:36.999Z</time></trkpt><trkpt lat="43.28294899030777" lon="13.327775659211852"><ele>144.28571428571428</ele><time>2026-04-19T16:21:37.999Z</time></trkpt><trkpt lat="43.28297637468884" lon="13.327859367238338"><ele>143.85714285714286</ele><time>2026-04-19T16:21:38.999Z</time></trkpt><trkpt lat="43.28300494149347" lon="13.327948000647195"><ele>143.42857142857142</ele><time>2026-04-19T16:21:39.999Z</time></trkpt><trkpt lat="43.283038488284284" lon="13.328031175666355"><ele>143.0</ele><time>2026-04-19T16:21:40.999Z</time></trkpt><trkpt lat="43.283076889743654" lon="13.328120786923794"><ele>143.33333333333331</ele><time>2026-04-19T16:21:41.999Z</time></trkpt><trkpt lat="43.28311034664353" lon="13.328215640376033"><ele>143.66666666666666</ele><time>2026-04-19T16:21:42.999Z</time></trkpt><trkpt lat="43.283137072289726" lon="13.328315491588562"><ele>144.0</ele><time>2026-04-19T16:21:43.999Z</time></trkpt><trkpt lat="43.28317460398075" lon="13.328410559987887"><ele>144.33333333333334</ele><time>2026-04-19T16:21:44.999Z</time></trkpt><trkpt lat="43.28317282233529" lon="13.328530520364046"><ele>144.66666666666669</ele><time>2026-04-19T16:21:45.999Z</time></trkpt><trkpt lat="43.28320457015598" lon="13.328633023521178"><ele>145.0</ele><time>2026-04-19T16:21:46.999Z</time></trkpt><trkpt lat="43.28323471612727" lon="13.32873401877707"><ele>145.0</ele><time>2026-04-19T16:21:47.999Z</time></trkpt><trkpt lat="43.28326423149081" lon="13.328834228438213"><ele>145.0</ele><time>2026-04-19T16:21:48.999Z</time></trkpt><trkpt lat="43.28329484791368" lon="13.32893817622427"><ele>145.0</ele><time>2026-04-19T16:21:49.999Z</time></trkpt><trkpt lat="43.283324107821116" lon="13.329037372233168"><ele>145.0</ele><time>2026-04-19T16:21:50.999Z</time></trkpt><trkpt lat="43.28335449956316" lon="13.329139996990467"><ele>145.0</ele><time>2026-04-19T16:21:51.998Z</time></trkpt><trkpt lat="43.283385496488556" lon="13.329242893510257"><ele>145.0</ele><time>2026-04-19T16:21:52.998Z</time></trkpt><trkpt lat="43.28341722481918" lon="13.32934521741398"><ele>144.83333333333334</ele><time>2026-04-19T16:21:53.998Z</time></trkpt><trkpt lat="43.28344868335668" lon="13.329446671232349"><ele>144.66666666666669</ele><time>2026-04-19T16:21:54.998Z</time></trkpt><trkpt lat="43.283478926033254" lon="13.329551109605271"><ele>144.5</ele><time>2026-04-19T16:21:55.998Z</time></trkpt><trkpt lat="43.28350373782431" lon="13.32965818702262"><ele>144.33333333333334</ele><time>2026-04-19T16:21:56.998Z</time></trkpt><trkpt lat="43.28352428458964" lon="13.32976905186498"><ele>144.16666666666666</ele><time>2026-04-19T16:21:57.998Z</time></trkpt><trkpt lat="43.28354030313168" lon="13.329882397131147"><ele>144.0</ele><time>2026-04-19T16:21:58.998Z</time></trkpt><trkpt lat="43.28355412308662" lon="13.330001045703614"><ele>143.66666666666666</ele><time>2026-04-19T16:21:59.998Z</time></trkpt><trkpt lat="43.28356801291848" lon="13.330122552241964"><ele>143.33333333333334</ele><time>2026-04-19T16:22:00.998Z</time></trkpt><trkpt lat="43.28358332002439" lon="13.330239949282069"><ele>143.0</ele><time>2026-04-19T16:22:01.998Z</time></trkpt><trkpt lat="43.28360900284986" lon="13.330358243381365"><ele>142.66666666666669</ele><time>2026-04-19T16:22:03Z</time></trkpt><trkpt lat="43.28364004695111" lon="13.330462324476468"><ele>142.33333333333334</ele><time>2026-04-19T16:22:04Z</time></trkpt><trkpt lat="43.283691823250614" lon="13.330558019564831"><ele>142.0</ele><time>2026-04-19T16:22:05Z</time></trkpt><trkpt lat="43.28370903433316" lon="13.330675090502412"><ele>141.79999999999998</ele><time>2026-04-19T16:22:06Z</time></trkpt><trkpt lat="43.2837200984079" lon="13.330790935672887"><ele>141.6</ele><time>2026-04-19T16:22:07Z</time></trkpt><trkpt lat="43.283736953371175" lon="13.330913260640463"><ele>141.39999999999998</ele><time>2026-04-19T16:22:08Z</time></trkpt><trkpt lat="43.283763490622064" lon="13.331037608115642"><ele>141.2</ele><time>2026-04-19T16:22:09Z</time></trkpt><trkpt lat="43.28374357013148" lon="13.331187233084181"><ele>141.0</ele><time>2026-04-19T16:22:10Z</time></trkpt><trkpt lat="43.28377579987562" lon="13.331317894560227"><ele>140.6</ele><time>2026-04-19T16:22:11Z</time></trkpt><trkpt lat="43.283813561590215" lon="13.331449052826377"><ele>140.2</ele><time>2026-04-19T16:22:12Z</time></trkpt><trkpt lat="43.28385403825245" lon="13.331589599639235"><ele>139.8</ele><time>2026-04-19T16:22:13Z</time></trkpt><trkpt lat="43.28386668502742" lon="13.33172042709304"><ele>139.4</ele><time>2026-04-19T16:22:14Z</time></trkpt><trkpt lat="43.28386625504061" lon="13.33187020710468"><ele>139.0</ele><time>2026-04-19T16:22:15Z</time></trkpt><trkpt lat="43.28387050114464" lon="13.332030641987153"><ele>139.0</ele><time>2026-04-19T16:22:16Z</time></trkpt><trkpt lat="43.28384268479578" lon="13.332179094825731"><ele>139.0</ele><time>2026-04-19T16:22:17Z</time></trkpt><trkpt lat="43.28380672337575" lon="13.332331410789955"><ele>139.0</ele><time>2026-04-19T16:22:18Z</time></trkpt><trkpt lat="43.28376718991887" lon="13.332463758762536"><ele>139.0</ele><time>2026-04-19T16:22:19Z</time></trkpt><trkpt lat="43.28373865598563" lon="13.332592636106083"><ele>139.0</ele><time>2026-04-19T16:22:20Z</time></trkpt><trkpt lat="43.28370365220668" lon="13.332696420661952"><ele>138.8</ele><time>2026-04-19T16:22:21Z</time></trkpt><trkpt lat="43.28367250275277" lon="13.332787450515168"><ele>138.60000000000002</ele><time>2026-04-19T16:22:22Z</time></trkpt><trkpt lat="43.28362340416522" lon="13.33286607847414"><ele>138.4</ele><time>2026-04-19T16:22:23Z</time></trkpt><trkpt lat="43.283517333878926" lon="13.332870682879662"><ele>138.20000000000002</ele><time>2026-04-19T16:22:25Z</time></trkpt><trkpt lat="43.28346915974459" lon="13.332955136548113"><ele>138.0</ele><time>2026-04-19T16:22:26.999Z</time></trkpt><trkpt lat="43.2834781025169" lon="13.33312762606915"><ele>138.0</ele><time>2026-04-19T16:22:28.999Z</time></trkpt><trkpt lat="43.28347541001116" lon="13.333242829685856"><ele>138.0</ele><time>2026-04-19T16:22:30.999Z</time></trkpt><trkpt lat="43.283481121280445" lon="13.333351998739332"><ele>138.0</ele><time>2026-04-19T16:22:32.999Z</time></trkpt><trkpt lat="43.28336703337827" lon="13.333387270170249"><ele>138.0</ele><time>2026-04-19T16:22:33.999Z</time></trkpt><trkpt lat="43.28330495488205" lon="13.333448424594112"><ele>138.0</ele><time>2026-04-19T16:22:34.999Z</time></trkpt><trkpt lat="43.28323924421179" lon="13.33351179439706"><ele>138.0</ele><time>2026-04-19T16:22:35.999Z</time></trkpt><trkpt lat="43.28318179989856" lon="13.333592449921833"><ele>138.0</ele><time>2026-04-19T16:22:36.999Z</time></trkpt><trkpt lat="43.28310247163744" lon="13.333665443214288"><ele>138.0</ele><time>2026-04-19T16:22:37.999Z</time></trkpt><trkpt lat="43.28300553418284" lon="13.33372750140095"><ele>138.0</ele><time>2026-04-19T16:22:38.999Z</time></trkpt><trkpt lat="43.28291272861319" lon="13.333811153259571"><ele>138.0</ele><time>2026-04-19T16:22:39.999Z</time></trkpt><trkpt lat="43.28281869568857" lon="13.333895911503614"><ele>138.0</ele><time>2026-04-19T16:22:40.999Z</time></trkpt><trkpt lat="43.28272464501801" lon="13.333980903018139"><ele>139.4</ele><time>2026-04-19T16:22:41.999Z</time></trkpt><trkpt lat="43.28263236109891" lon="13.334064417476547"><ele>140.8</ele><time>2026-04-19T16:22:42.999Z</time></trkpt><trkpt lat="43.2825434033299" lon="13.33415123159499"><ele>142.2</ele><time>2026-04-19T16:22:43.999Z</time></trkpt><trkpt lat="43.28247200223708" lon="13.33424253225024"><ele>143.6</ele><time>2026-04-19T16:22:44.999Z</time></trkpt><trkpt lat="43.28241678767099" lon="13.334359632574062"><ele>145.0</ele><time>2026-04-19T16:22:45.999Z</time></trkpt><trkpt lat="43.28242130550849" lon="13.33450565682745"><ele>145.0</ele><time>2026-04-19T16:22:46.999Z</time></trkpt><trkpt lat="43.28242230158395" lon="13.33464020768583"><ele>145.0</ele><time>2026-04-19T16:22:47.999Z</time></trkpt><trkpt lat="43.2824427486424" lon="13.334782248174662"><ele>145.0</ele><time>2026-04-19T16:22:48.999Z</time></trkpt><trkpt lat="43.28247409346017" lon="13.334941783088988"><ele>145.0</ele><time>2026-04-19T16:22:49.999Z</time></trkpt><trkpt lat="43.28252378966464" lon="13.335096386750864"><ele>145.0</ele><time>2026-04-19T16:22:50.999Z</time></trkpt><trkpt lat="43.28259020506333" lon="13.335248290632315"><ele>146.25</ele><time>2026-04-19T16:22:51.999Z</time></trkpt><trkpt lat="43.28262473605199" lon="13.335422372717856"><ele>147.5</ele><time>2026-04-19T16:22:52.999Z</time></trkpt><trkpt lat="43.28266772629265" lon="13.335589487019927"><ele>148.75</ele><time>2026-04-19T16:22:53.999Z</time></trkpt><trkpt lat="43.282707618097774" lon="13.335760940749658"><ele>150.0</ele><time>2026-04-19T16:22:54.999Z</time></trkpt><trkpt lat="43.282745112091625" lon="13.335938251938154"><ele>152.25</ele><time>2026-04-19T16:22:55.999Z</time></trkpt><trkpt lat="43.28279417685173" lon="13.336122527747644"><ele>154.5</ele><time>2026-04-19T16:22:56.999Z</time></trkpt><trkpt lat="43.28282494593514" lon="13.336323542818283"><ele>156.75</ele><time>2026-04-19T16:22:57.999Z</time></trkpt><trkpt lat="43.28285910995136" lon="13.336533776967235"><ele>159.0</ele><time>2026-04-19T16:22:58.999Z</time></trkpt><trkpt lat="43.282895432061736" lon="13.336747232958837"><ele>159.33333333333334</ele><time>2026-04-19T16:22:59.999Z</time></trkpt><trkpt lat="43.28293341988322" lon="13.336963941391117"><ele>159.66666666666669</ele><time>2026-04-19T16:23:00.999Z</time></trkpt><trkpt lat="43.28296845796923" lon="13.337189323832199"><ele>160.0</ele><time>2026-04-19T16:23:01.999Z</time></trkpt><trkpt lat="43.283006384559634" lon="13.337417039420291"><ele>158.33333333333334</ele><time>2026-04-19T16:23:02.999Z</time></trkpt><trkpt lat="43.2830488192173" lon="13.337649591913456"><ele>156.66666666666666</ele><time>2026-04-19T16:23:03.999Z</time></trkpt><trkpt lat="43.28309398821505" lon="13.337877653968988"><ele>155.0</ele><time>2026-04-19T16:23:04.999Z</time></trkpt><trkpt lat="43.28313932634618" lon="13.338113298264345"><ele>150.0</ele><time>2026-04-19T16:23:05.999Z</time></trkpt><trkpt lat="43.28318752261192" lon="13.338359408528834"><ele>145.0</ele><time>2026-04-19T16:23:06.999Z</time></trkpt><trkpt lat="43.283233964290446" lon="13.338606194218862"><ele>140.0</ele><time>2026-04-19T16:23:07.999Z</time></trkpt><trkpt lat="43.28328016403439" lon="13.338854793433109"><ele>140.33333333333331</ele><time>2026-04-19T16:23:08.999Z</time></trkpt><trkpt lat="43.28332455498319" lon="13.33911019554635"><ele>140.66666666666666</ele><time>2026-04-19T16:23:09.999Z</time></trkpt><trkpt lat="43.283373399191646" lon="13.339368434839113"><ele>141.0</ele><time>2026-04-19T16:23:10.999Z</time></trkpt><trkpt lat="43.28342324241428" lon="13.339629530992616"><ele>141.0</ele><time>2026-04-19T16:23:11.999Z</time></trkpt><trkpt lat="43.283478668659335" lon="13.339892503951232"><ele>141.0</ele><time>2026-04-19T16:23:12.999Z</time></trkpt><trkpt lat="43.283526152456034" lon="13.340158498047321"><ele>141.0</ele><time>2026-04-19T16:23:13.999Z</time></trkpt><trkpt lat="43.28357893107787" lon="13.340429072661953"><ele>141.0</ele><time>2026-04-19T16:23:14.999Z</time></trkpt><trkpt lat="43.283629097874446" lon="13.340700367200688"><ele>141.0</ele><time>2026-04-19T16:23:15.999Z</time></trkpt><trkpt lat="43.283679266644285" lon="13.34097419729659"><ele>141.0</ele><time>2026-04-19T16:23:16.999Z</time></trkpt><trkpt lat="43.28373104336695" lon="13.341249322101639"><ele>140.33333333333334</ele><time>2026-04-19T16:23:17.999Z</time></trkpt><trkpt lat="43.283779827721006" lon="13.341522581891974"><ele>139.66666666666669</ele><time>2026-04-19T16:23:18.999Z</time></trkpt><trkpt lat="43.283831619478704" lon="13.341796047885738"><ele>139.0</ele><time>2026-04-19T16:23:19.999Z</time></trkpt><trkpt lat="43.2838815455145" lon="13.342054864003849"><ele>137.33333333333334</ele><time>2026-04-19T16:23:20.999Z</time></trkpt><trkpt lat="43.28393015987459" lon="13.342307689379792"><ele>135.66666666666666</ele><time>2026-04-19T16:23:21.999Z</time></trkpt><trkpt lat="43.28398604493824" lon="13.342555335203572"><ele>134.0</ele><time>2026-04-19T16:23:22.999Z</time></trkpt><trkpt lat="43.28403731124834" lon="13.342801633032295"><ele>134.0</ele><time>2026-04-19T16:23:23.999Z</time></trkpt><trkpt lat="43.28408607269429" lon="13.343040703476872"><ele>134.0</ele><time>2026-04-19T16:23:24.999Z</time></trkpt><trkpt lat="43.284136771611195" lon="13.343279177111407"><ele>134.0</ele><time>2026-04-19T16:23:25.999Z</time></trkpt><trkpt lat="43.28418467856203" lon="13.343510897779145"><ele>134.33333333333331</ele><time>2026-04-19T16:23:26.999Z</time></trkpt><trkpt lat="43.284228285003564" lon="13.343741980392624"><ele>134.66666666666666</ele><time>2026-04-19T16:23:27.999Z</time></trkpt><trkpt lat="43.28427150809105" lon="13.34397456574599"><ele>135.0</ele><time>2026-04-19T16:23:28.999Z</time></trkpt><trkpt lat="43.284326272505254" lon="13.344206412447647"><ele>135.0</ele><time>2026-04-19T16:23:29.999Z</time></trkpt><trkpt lat="43.28436883188777" lon="13.344433343450289"><ele>135.0</ele><time>2026-04-19T16:23:30.999Z</time></trkpt><trkpt lat="43.28441079536864" lon="13.344661341485102"><ele>135.0</ele><time>2026-04-19T16:23:31.999Z</time></trkpt><trkpt lat="43.28445595521272" lon="13.344881921182514"><ele>136.0</ele><time>2026-04-19T16:23:32.999Z</time></trkpt><trkpt lat="43.28450375926116" lon="13.345090313961187"><ele>137.0</ele><time>2026-04-19T16:23:33.999Z</time></trkpt><trkpt lat="43.28454399524097" lon="13.345311218753514"><ele>138.0</ele><time>2026-04-19T16:23:34.999Z</time></trkpt><trkpt lat="43.2845839366274" lon="13.345524160715598"><ele>138.66666666666666</ele><time>2026-04-19T16:23:35.999Z</time></trkpt><trkpt lat="43.28462409661659" lon="13.345738347776281"><ele>139.33333333333331</ele><time>2026-04-19T16:23:36.998Z</time></trkpt><trkpt lat="43.28466670810401" lon="13.34594666314108"><ele>140.0</ele><time>2026-04-19T16:23:37.998Z</time></trkpt><trkpt lat="43.28471071612502" lon="13.346151718904805"><ele>140.0</ele><time>2026-04-19T16:23:38.998Z</time></trkpt><trkpt lat="43.28475528662511" lon="13.346358152523974"><ele>140.0</ele><time>2026-04-19T16:23:39.998Z</time></trkpt><trkpt lat="43.284800689995315" lon="13.346568310095385"><ele>140.0</ele><time>2026-04-19T16:23:40.998Z</time></trkpt><trkpt lat="43.284843277212204" lon="13.346780413068007"><ele>139.33333333333331</ele><time>2026-04-19T16:23:41.998Z</time></trkpt><trkpt lat="43.284885024816944" lon="13.34699503743273"><ele>138.66666666666666</ele><time>2026-04-19T16:23:42.998Z</time></trkpt><trkpt lat="43.28492749633973" lon="13.34721431465966"><ele>138.0</ele><time>2026-04-19T16:23:43.998Z</time></trkpt><trkpt lat="43.28497178733785" lon="13.347437795406771"><ele>137.66666666666666</ele><time>2026-04-19T16:23:44.998Z</time></trkpt><trkpt lat="43.28501703746166" lon="13.347663770163413"><ele>137.33333333333331</ele><time>2026-04-19T16:23:45.998Z</time></trkpt><trkpt lat="43.28506284828143" lon="13.347889838312607"><ele>137.0</ele><time>2026-04-19T16:23:46.998Z</time></trkpt><trkpt lat="43.285108321125705" lon="13.348113980063737"><ele>136.66666666666666</ele><time>2026-04-19T16:23:47.998Z</time></trkpt><trkpt lat="43.285156115080596" lon="13.348338369878993"><ele>136.33333333333334</ele><time>2026-04-19T16:23:48.998Z</time></trkpt><trkpt lat="43.28520393663312" lon="13.34856372070757"><ele>136.0</ele><time>2026-04-19T16:23:49.998Z</time></trkpt><trkpt lat="43.28525031467852" lon="13.348790914360405"><ele>136.0</ele><time>2026-04-19T16:23:50.998Z</time></trkpt><trkpt lat="43.28529510619698" lon="13.349022560218836"><ele>136.0</ele><time>2026-04-19T16:23:51.998Z</time></trkpt><trkpt lat="43.28533956259869" lon="13.3492529998604"><ele>136.0</ele><time>2026-04-19T16:23:52.998Z</time></trkpt><trkpt lat="43.28538119526451" lon="13.3494756345542"><ele>136.0</ele><time>2026-04-19T16:23:53.998Z</time></trkpt><trkpt lat="43.28542258930005" lon="13.349692435637976"><ele>136.0</ele><time>2026-04-19T16:23:54.998Z</time></trkpt><trkpt lat="43.28546414231364" lon="13.349895658805801"><ele>136.0</ele><time>2026-04-19T16:23:55.998Z</time></trkpt><trkpt lat="43.28550503358346" lon="13.350088336927266"><ele>135.6</ele><time>2026-04-19T16:23:56.998Z</time></trkpt><trkpt lat="43.285541187246395" lon="13.35025337246931"><ele>135.2</ele><time>2026-04-19T16:23:57.998Z</time></trkpt><trkpt lat="43.28557128531557" lon="13.350398201842955"><ele>134.8</ele><time>2026-04-19T16:23:58.998Z</time></trkpt><trkpt lat="43.28559528966438" lon="13.35051943836945"><ele>134.4</ele><time>2026-04-19T16:23:59.998Z</time></trkpt><trkpt lat="43.28561729591329" lon="13.350623503888464"><ele>134.0</ele><time>2026-04-19T16:24:00.998Z</time></trkpt><trkpt lat="43.285636482608886" lon="13.350706363954457"><ele>133.8</ele><time>2026-04-19T16:24:01.998Z</time></trkpt><trkpt lat="43.28564361595384" lon="13.350793302826672"><ele>133.60000000000002</ele><time>2026-04-19T16:24:03.998Z</time></trkpt><trkpt lat="43.285779420873574" lon="13.35070400995577"><ele>133.4</ele><time>2026-04-19T16:24:06.998Z</time></trkpt><trkpt lat="43.285856564619564" lon="13.350684357673307"><ele>133.20000000000002</ele><time>2026-04-19T16:24:08.999Z</time></trkpt><trkpt lat="43.285933479155005" lon="13.350691265313475"><ele>133.0</ele><time>2026-04-19T16:24:10.999Z</time></trkpt><trkpt lat="43.28601810034371" lon="13.35070953327014"><ele>133.0</ele><time>2026-04-19T16:24:13Z</time></trkpt><trkpt lat="43.28609539929334" lon="13.350732904400866"><ele>133.0</ele><time>2026-04-19T16:24:15Z</time></trkpt><trkpt lat="43.286162971554866" lon="13.350744041912398"><ele>133.0</ele><time>2026-04-19T16:24:19Z</time></trkpt></trkseg></trk></gpx>